<?xml version="1.0" encoding="UTF-8"?>
<gpx version="1.1" creator="S Health_0.2" schemaLocation="http://www.topografix.com/GPX/1/1 http://www.topografix.com/GPX/1/1/gpx.xsd http://www.garmin.com/xmlschemas/TrackPointExtension/v1 http://www.garmin.com/xmlschemas/TrackPointExtensionv1.xsd" xmlns="http://www.topografix.com/GPX/1/1" xmlns:xsi="http://www.w3.org/2001/XMLSchema-instance" xsi:schemaLocation="http://www.topografix.com/GPX/1/1 http://www.topografix.com/GPX/1/1/gpx.xsd http://www.garmin.com/xmlschemas/GpxExtensions/v3 http://www.garmin.com/xmlschemas/GpxExtensionsv3.xsd http://www.garmin.com/xmlschemas/TrackPointExtension/v1 http://www.garmin.com/xmlschemas/TrackPointExtensionv1.xsd http://www.garmin.com/xmlschemas/PowerExtension/v1 http://www.garmin.com/xmlschemas/PowerExtensionv1.xsd http://www.topografix.com/GPX/gpx_style/0/2 http://www.topografix.com/GPX/gpx_style/0/2/gpx_style.xsd" xmlns:gpxtpx="http://www.garmin.com/xmlschemas/TrackPointExtension/v1" xmlns:gpxx="http://www.garmin.com/xmlschemas/GpxExtensions/v3" xmlns:gpxpx="http://www.garmin.com/xmlschemas/PowerExtension/v1" xmlns:gpx_style="http://www.topografix.com/GPX/gpx_style/0/2">
  <metadata>
    <name>LaGriere-10Kms3</name>
    <author>
      <name>gpx.studio</name>
      <link href="https://gpx.studio"/>
    </author>
  </metadata>
  <trk>
    <name>LaGriere20220224_085718.gpx</name>
    <trkseg>
      <trkpt lat="47.665264" lon="2.0964375">
        <ele>174</ele>
        <time>2022-02-24T07:57:19.000Z</time>
      </trkpt>
      <trkpt lat="47.665264" lon="2.0964394">
        <ele>174</ele>
        <time>2022-02-24T07:57:21.000Z</time>
      </trkpt>
      <trkpt lat="47.665264" lon="2.0964394">
        <ele>174</ele>
        <time>2022-02-24T07:57:22.000Z</time>
      </trkpt>
      <trkpt lat="47.665264" lon="2.0964394">
        <ele>174</ele>
        <time>2022-02-24T07:57:23.000Z</time>
      </trkpt>
      <trkpt lat="47.665264" lon="2.0964394">
        <ele>174</ele>
        <time>2022-02-24T07:57:24.000Z</time>
      </trkpt>
      <trkpt lat="47.665264" lon="2.0964394">
        <ele>174</ele>
        <time>2022-02-24T07:57:25.000Z</time>
      </trkpt>
      <trkpt lat="47.665264" lon="2.0964394">
        <ele>174</ele>
        <time>2022-02-24T07:57:26.000Z</time>
      </trkpt>
      <trkpt lat="47.665264" lon="2.0964394">
        <ele>174</ele>
        <time>2022-02-24T07:57:27.000Z</time>
      </trkpt>
      <trkpt lat="47.665264" lon="2.0964394">
        <ele>174</ele>
        <time>2022-02-24T07:57:28.000Z</time>
      </trkpt>
      <trkpt lat="47.665264" lon="2.0964394">
        <ele>174</ele>
        <time>2022-02-24T07:57:29.000Z</time>
      </trkpt>
      <trkpt lat="47.665264" lon="2.0964394">
        <ele>174</ele>
        <time>2022-02-24T07:57:30.000Z</time>
      </trkpt>
      <trkpt lat="47.665264" lon="2.0964394">
        <ele>174</ele>
        <time>2022-02-24T07:57:30.000Z</time>
      </trkpt>
      <trkpt lat="47.665264" lon="2.0964394">
        <ele>174</ele>
        <time>2022-02-24T07:57:30.000Z</time>
      </trkpt>
      <trkpt lat="47.665276" lon="2.0964622">
        <ele>175</ele>
        <time>2022-02-24T07:58:42.000Z</time>
      </trkpt>
      <trkpt lat="47.665276" lon="2.0964622">
        <ele>175</ele>
        <time>2022-02-24T07:58:43.000Z</time>
      </trkpt>
      <trkpt lat="47.665276" lon="2.0964622">
        <ele>175</ele>
        <time>2022-02-24T07:58:44.000Z</time>
      </trkpt>
      <trkpt lat="47.665276" lon="2.0964622">
        <ele>175</ele>
        <time>2022-02-24T07:58:45.000Z</time>
      </trkpt>
      <trkpt lat="47.665276" lon="2.0964622">
        <ele>175</ele>
        <time>2022-02-24T07:58:45.000Z</time>
      </trkpt>
      <trkpt lat="47.665276" lon="2.0964622">
        <ele>175</ele>
        <time>2022-02-24T07:58:45.000Z</time>
      </trkpt>
      <trkpt lat="47.665348" lon="2.0964217">
        <ele>177</ele>
        <time>2022-02-24T08:00:31.000Z</time>
      </trkpt>
      <trkpt lat="47.665348" lon="2.0964289">
        <ele>178</ele>
        <time>2022-02-24T08:00:33.000Z</time>
      </trkpt>
      <trkpt lat="47.665356" lon="2.0964293">
        <ele>178</ele>
        <time>2022-02-24T08:00:35.000Z</time>
      </trkpt>
      <trkpt lat="47.665367" lon="2.0964339">
        <ele>178</ele>
        <time>2022-02-24T08:00:36.000Z</time>
      </trkpt>
      <trkpt lat="47.66538" lon="2.0964289">
        <ele>178</ele>
        <time>2022-02-24T08:00:37.000Z</time>
      </trkpt>
      <trkpt lat="47.66539" lon="2.0964267">
        <ele>178</ele>
        <time>2022-02-24T08:00:38.000Z</time>
      </trkpt>
      <trkpt lat="47.6654" lon="2.0964177">
        <ele>178</ele>
        <time>2022-02-24T08:00:39.000Z</time>
      </trkpt>
      <trkpt lat="47.66541" lon="2.0964084">
        <ele>177</ele>
        <time>2022-02-24T08:00:40.000Z</time>
      </trkpt>
      <trkpt lat="47.66542" lon="2.0964065">
        <ele>177</ele>
        <time>2022-02-24T08:00:41.000Z</time>
      </trkpt>
      <trkpt lat="47.665432" lon="2.0964065">
        <ele>178</ele>
        <time>2022-02-24T08:00:42.000Z</time>
      </trkpt>
      <trkpt lat="47.665443" lon="2.096394">
        <ele>178</ele>
        <time>2022-02-24T08:00:44.000Z</time>
      </trkpt>
      <trkpt lat="47.665455" lon="2.0963914">
        <ele>179</ele>
        <time>2022-02-24T08:00:45.000Z</time>
      </trkpt>
      <trkpt lat="47.665466" lon="2.0963933">
        <ele>178</ele>
        <time>2022-02-24T08:00:46.000Z</time>
      </trkpt>
      <trkpt lat="47.665474" lon="2.096385">
        <ele>178</ele>
        <time>2022-02-24T08:00:47.000Z</time>
      </trkpt>
      <trkpt lat="47.665478" lon="2.096378">
        <ele>178</ele>
        <time>2022-02-24T08:00:48.000Z</time>
      </trkpt>
      <trkpt lat="47.66549" lon="2.0963717">
        <ele>178</ele>
        <time>2022-02-24T08:00:49.000Z</time>
      </trkpt>
      <trkpt lat="47.6655" lon="2.096367">
        <ele>179</ele>
        <time>2022-02-24T08:00:50.000Z</time>
      </trkpt>
      <trkpt lat="47.665512" lon="2.0963678">
        <ele>179</ele>
        <time>2022-02-24T08:00:51.000Z</time>
      </trkpt>
      <trkpt lat="47.66552" lon="2.096368">
        <ele>179</ele>
        <time>2022-02-24T08:00:52.000Z</time>
      </trkpt>
      <trkpt lat="47.665527" lon="2.0963626">
        <ele>179</ele>
        <time>2022-02-24T08:00:53.000Z</time>
      </trkpt>
      <trkpt lat="47.665543" lon="2.0963583">
        <ele>179</ele>
        <time>2022-02-24T08:00:54.000Z</time>
      </trkpt>
      <trkpt lat="47.66555" lon="2.09635">
        <ele>179</ele>
        <time>2022-02-24T08:00:55.000Z</time>
      </trkpt>
      <trkpt lat="47.665565" lon="2.0963454">
        <ele>179</ele>
        <time>2022-02-24T08:00:56.000Z</time>
      </trkpt>
      <trkpt lat="47.665573" lon="2.0963514">
        <ele>179</ele>
        <time>2022-02-24T08:00:57.000Z</time>
      </trkpt>
      <trkpt lat="47.665585" lon="2.0963604">
        <ele>179</ele>
        <time>2022-02-24T08:00:58.000Z</time>
      </trkpt>
      <trkpt lat="47.665596" lon="2.096359">
        <ele>179</ele>
        <time>2022-02-24T08:00:59.000Z</time>
      </trkpt>
      <trkpt lat="47.665607" lon="2.096357">
        <ele>179</ele>
        <time>2022-02-24T08:01:00.000Z</time>
      </trkpt>
      <trkpt lat="47.665615" lon="2.0963576">
        <ele>179</ele>
        <time>2022-02-24T08:01:01.000Z</time>
      </trkpt>
      <trkpt lat="47.665638" lon="2.0963552">
        <ele>180</ele>
        <time>2022-02-24T08:01:03.000Z</time>
      </trkpt>
      <trkpt lat="47.66567" lon="2.0963554">
        <ele>181</ele>
        <time>2022-02-24T08:01:05.000Z</time>
      </trkpt>
      <trkpt lat="47.665676" lon="2.096353">
        <ele>180</ele>
        <time>2022-02-24T08:01:06.000Z</time>
      </trkpt>
      <trkpt lat="47.665688" lon="2.0963519">
        <ele>180</ele>
        <time>2022-02-24T08:01:07.000Z</time>
      </trkpt>
      <trkpt lat="47.6657" lon="2.0963514">
        <ele>180</ele>
        <time>2022-02-24T08:01:08.000Z</time>
      </trkpt>
      <trkpt lat="47.665703" lon="2.0963454">
        <ele>180</ele>
        <time>2022-02-24T08:01:09.000Z</time>
      </trkpt>
      <trkpt lat="47.66571" lon="2.0963373">
        <ele>180</ele>
        <time>2022-02-24T08:01:10.000Z</time>
      </trkpt>
      <trkpt lat="47.665718" lon="2.096333">
        <ele>180</ele>
        <time>2022-02-24T08:01:11.000Z</time>
      </trkpt>
      <trkpt lat="47.66572" lon="2.0963275">
        <ele>180</ele>
        <time>2022-02-24T08:01:12.000Z</time>
      </trkpt>
      <trkpt lat="47.665726" lon="2.096324">
        <ele>180</ele>
        <time>2022-02-24T08:01:13.000Z</time>
      </trkpt>
      <trkpt lat="47.665733" lon="2.0963178">
        <ele>180</ele>
        <time>2022-02-24T08:01:14.000Z</time>
      </trkpt>
      <trkpt lat="47.66574" lon="2.096314">
        <ele>180</ele>
        <time>2022-02-24T08:01:15.000Z</time>
      </trkpt>
      <trkpt lat="47.665752" lon="2.0963094">
        <ele>179</ele>
        <time>2022-02-24T08:01:16.000Z</time>
      </trkpt>
      <trkpt lat="47.665764" lon="2.096303">
        <ele>180</ele>
        <time>2022-02-24T08:01:17.000Z</time>
      </trkpt>
      <trkpt lat="47.665775" lon="2.0962932">
        <ele>180</ele>
        <time>2022-02-24T08:01:18.000Z</time>
      </trkpt>
      <trkpt lat="47.665787" lon="2.0962844">
        <ele>181</ele>
        <time>2022-02-24T08:01:19.000Z</time>
      </trkpt>
      <trkpt lat="47.6658" lon="2.0962782">
        <ele>181</ele>
        <time>2022-02-24T08:01:20.000Z</time>
      </trkpt>
      <trkpt lat="47.66581" lon="2.0962737">
        <ele>181</ele>
        <time>2022-02-24T08:01:21.000Z</time>
      </trkpt>
      <trkpt lat="47.665813" lon="2.0962822">
        <ele>181</ele>
        <time>2022-02-24T08:01:22.000Z</time>
      </trkpt>
      <trkpt lat="47.66582" lon="2.096284">
        <ele>181</ele>
        <time>2022-02-24T08:01:23.000Z</time>
      </trkpt>
      <trkpt lat="47.665833" lon="2.0962863">
        <ele>181</ele>
        <time>2022-02-24T08:01:24.000Z</time>
      </trkpt>
      <trkpt lat="47.665844" lon="2.0962844">
        <ele>180</ele>
        <time>2022-02-24T08:01:25.000Z</time>
      </trkpt>
      <trkpt lat="47.665855" lon="2.0962832">
        <ele>180</ele>
        <time>2022-02-24T08:01:26.000Z</time>
      </trkpt>
      <trkpt lat="47.665863" lon="2.0962825">
        <ele>180</ele>
        <time>2022-02-24T08:01:27.000Z</time>
      </trkpt>
      <trkpt lat="47.665867" lon="2.0962827">
        <ele>181</ele>
        <time>2022-02-24T08:01:28.000Z</time>
      </trkpt>
      <trkpt lat="47.66588" lon="2.0962775">
        <ele>181</ele>
        <time>2022-02-24T08:01:29.000Z</time>
      </trkpt>
      <trkpt lat="47.66589" lon="2.0962782">
        <ele>180</ele>
        <time>2022-02-24T08:01:30.000Z</time>
      </trkpt>
      <trkpt lat="47.665897" lon="2.0962737">
        <ele>180</ele>
        <time>2022-02-24T08:01:31.000Z</time>
      </trkpt>
      <trkpt lat="47.66591" lon="2.09627">
        <ele>180</ele>
        <time>2022-02-24T08:01:32.000Z</time>
      </trkpt>
      <trkpt lat="47.66592" lon="2.0962677">
        <ele>179</ele>
        <time>2022-02-24T08:01:33.000Z</time>
      </trkpt>
      <trkpt lat="47.66593" lon="2.0962646">
        <ele>180</ele>
        <time>2022-02-24T08:01:34.000Z</time>
      </trkpt>
      <trkpt lat="47.665943" lon="2.0962615">
        <ele>180</ele>
        <time>2022-02-24T08:01:35.000Z</time>
      </trkpt>
      <trkpt lat="47.66595" lon="2.0962622">
        <ele>180</ele>
        <time>2022-02-24T08:01:36.000Z</time>
      </trkpt>
      <trkpt lat="47.665962" lon="2.0962567">
        <ele>179</ele>
        <time>2022-02-24T08:01:37.000Z</time>
      </trkpt>
      <trkpt lat="47.665974" lon="2.0962505">
        <ele>179</ele>
        <time>2022-02-24T08:01:38.000Z</time>
      </trkpt>
      <trkpt lat="47.66599" lon="2.0962508">
        <ele>179</ele>
        <time>2022-02-24T08:01:39.000Z</time>
      </trkpt>
      <trkpt lat="47.666" lon="2.0962462">
        <ele>179</ele>
        <time>2022-02-24T08:01:40.000Z</time>
      </trkpt>
      <trkpt lat="47.666016" lon="2.0962408">
        <ele>179</ele>
        <time>2022-02-24T08:01:41.000Z</time>
      </trkpt>
      <trkpt lat="47.666023" lon="2.0962393">
        <ele>179</ele>
        <time>2022-02-24T08:01:42.000Z</time>
      </trkpt>
      <trkpt lat="47.666035" lon="2.0962443">
        <ele>179</ele>
        <time>2022-02-24T08:01:43.000Z</time>
      </trkpt>
      <trkpt lat="47.666042" lon="2.0962477">
        <ele>179</ele>
        <time>2022-02-24T08:01:44.000Z</time>
      </trkpt>
      <trkpt lat="47.666046" lon="2.0962481">
        <ele>179</ele>
        <time>2022-02-24T08:01:45.000Z</time>
      </trkpt>
      <trkpt lat="47.666058" lon="2.0962477">
        <ele>179</ele>
        <time>2022-02-24T08:01:46.000Z</time>
      </trkpt>
      <trkpt lat="47.66607" lon="2.0962417">
        <ele>179</ele>
        <time>2022-02-24T08:01:47.000Z</time>
      </trkpt>
      <trkpt lat="47.666077" lon="2.0962462">
        <ele>180</ele>
        <time>2022-02-24T08:01:48.000Z</time>
      </trkpt>
      <trkpt lat="47.66608" lon="2.0962377">
        <ele>180</ele>
        <time>2022-02-24T08:01:49.000Z</time>
      </trkpt>
      <trkpt lat="47.666092" lon="2.0962353">
        <ele>180</ele>
        <time>2022-02-24T08:01:50.000Z</time>
      </trkpt>
      <trkpt lat="47.666103" lon="2.0962358">
        <ele>180</ele>
        <time>2022-02-24T08:01:51.000Z</time>
      </trkpt>
      <trkpt lat="47.666115" lon="2.0962348">
        <ele>180</ele>
        <time>2022-02-24T08:01:52.000Z</time>
      </trkpt>
      <trkpt lat="47.666122" lon="2.096232">
        <ele>180</ele>
        <time>2022-02-24T08:01:53.000Z</time>
      </trkpt>
      <trkpt lat="47.666134" lon="2.096228">
        <ele>179</ele>
        <time>2022-02-24T08:01:54.000Z</time>
      </trkpt>
      <trkpt lat="47.66615" lon="2.0962245">
        <ele>180</ele>
        <time>2022-02-24T08:01:55.000Z</time>
      </trkpt>
      <trkpt lat="47.66617" lon="2.0962174">
        <ele>180</ele>
        <time>2022-02-24T08:01:56.000Z</time>
      </trkpt>
      <trkpt lat="47.666183" lon="2.0962162">
        <ele>180</ele>
        <time>2022-02-24T08:01:57.000Z</time>
      </trkpt>
      <trkpt lat="47.66619" lon="2.0962124">
        <ele>180</ele>
        <time>2022-02-24T08:01:58.000Z</time>
      </trkpt>
      <trkpt lat="47.6662" lon="2.0962083">
        <ele>180</ele>
        <time>2022-02-24T08:01:59.000Z</time>
      </trkpt>
      <trkpt lat="47.666214" lon="2.0962048">
        <ele>180</ele>
        <time>2022-02-24T08:02:00.000Z</time>
      </trkpt>
      <trkpt lat="47.66622" lon="2.0962055">
        <ele>180</ele>
        <time>2022-02-24T08:02:01.000Z</time>
      </trkpt>
      <trkpt lat="47.666233" lon="2.0962026">
        <ele>179</ele>
        <time>2022-02-24T08:02:02.000Z</time>
      </trkpt>
      <trkpt lat="47.66625" lon="2.0962029">
        <ele>179</ele>
        <time>2022-02-24T08:02:03.000Z</time>
      </trkpt>
      <trkpt lat="47.666264" lon="2.0962055">
        <ele>179</ele>
        <time>2022-02-24T08:02:04.000Z</time>
      </trkpt>
      <trkpt lat="47.666275" lon="2.096209">
        <ele>179</ele>
        <time>2022-02-24T08:02:05.000Z</time>
      </trkpt>
      <trkpt lat="47.666286" lon="2.0962052">
        <ele>178</ele>
        <time>2022-02-24T08:02:06.000Z</time>
      </trkpt>
      <trkpt lat="47.666294" lon="2.096203">
        <ele>178</ele>
        <time>2022-02-24T08:02:07.000Z</time>
      </trkpt>
      <trkpt lat="47.666294" lon="2.096203">
        <ele>178</ele>
        <time>2022-02-24T08:02:08.000Z</time>
      </trkpt>
      <trkpt lat="47.666294" lon="2.096203">
        <ele>178</ele>
        <time>2022-02-24T08:02:09.000Z</time>
      </trkpt>
      <trkpt lat="47.666325" lon="2.0961888">
        <ele>178</ele>
        <time>2022-02-24T08:02:10.000Z</time>
      </trkpt>
      <trkpt lat="47.666336" lon="2.0961847">
        <ele>178</ele>
        <time>2022-02-24T08:02:11.000Z</time>
      </trkpt>
      <trkpt lat="47.666344" lon="2.096178">
        <ele>178</ele>
        <time>2022-02-24T08:02:12.000Z</time>
      </trkpt>
      <trkpt lat="47.66636" lon="2.096176">
        <ele>178</ele>
        <time>2022-02-24T08:02:13.000Z</time>
      </trkpt>
      <trkpt lat="47.66636" lon="2.096176">
        <ele>178</ele>
        <time>2022-02-24T08:02:14.000Z</time>
      </trkpt>
      <trkpt lat="47.66636" lon="2.096176">
        <ele>178</ele>
        <time>2022-02-24T08:02:15.000Z</time>
      </trkpt>
      <trkpt lat="47.666374" lon="2.0961647">
        <ele>177</ele>
        <time>2022-02-24T08:02:16.000Z</time>
      </trkpt>
      <trkpt lat="47.66638" lon="2.09616">
        <ele>177</ele>
        <time>2022-02-24T08:02:17.000Z</time>
      </trkpt>
      <trkpt lat="47.66639" lon="2.096157">
        <ele>177</ele>
        <time>2022-02-24T08:02:18.000Z</time>
      </trkpt>
      <trkpt lat="47.6664" lon="2.09615">
        <ele>176</ele>
        <time>2022-02-24T08:02:19.000Z</time>
      </trkpt>
      <trkpt lat="47.66641" lon="2.0961437">
        <ele>177</ele>
        <time>2022-02-24T08:02:20.000Z</time>
      </trkpt>
      <trkpt lat="47.66642" lon="2.09614">
        <ele>177</ele>
        <time>2022-02-24T08:02:21.000Z</time>
      </trkpt>
      <trkpt lat="47.666428" lon="2.0961378">
        <ele>177</ele>
        <time>2022-02-24T08:02:22.000Z</time>
      </trkpt>
      <trkpt lat="47.666435" lon="2.0961359">
        <ele>176</ele>
        <time>2022-02-24T08:02:23.000Z</time>
      </trkpt>
      <trkpt lat="47.666447" lon="2.0961351">
        <ele>176</ele>
        <time>2022-02-24T08:02:24.000Z</time>
      </trkpt>
      <trkpt lat="47.66646" lon="2.0961297">
        <ele>176</ele>
        <time>2022-02-24T08:02:25.000Z</time>
      </trkpt>
      <trkpt lat="47.66647" lon="2.0961268">
        <ele>176</ele>
        <time>2022-02-24T08:02:26.000Z</time>
      </trkpt>
      <trkpt lat="47.666477" lon="2.096125">
        <ele>176</ele>
        <time>2022-02-24T08:02:27.000Z</time>
      </trkpt>
      <trkpt lat="47.666485" lon="2.0961192">
        <ele>177</ele>
        <time>2022-02-24T08:02:28.000Z</time>
      </trkpt>
      <trkpt lat="47.666492" lon="2.096111">
        <ele>177</ele>
        <time>2022-02-24T08:02:29.000Z</time>
      </trkpt>
      <trkpt lat="47.6665" lon="2.0961044">
        <ele>177</ele>
        <time>2022-02-24T08:02:30.000Z</time>
      </trkpt>
      <trkpt lat="47.66651" lon="2.0960968">
        <ele>177</ele>
        <time>2022-02-24T08:02:31.000Z</time>
      </trkpt>
      <trkpt lat="47.666515" lon="2.0960922">
        <ele>177</ele>
        <time>2022-02-24T08:02:32.000Z</time>
      </trkpt>
      <trkpt lat="47.666527" lon="2.0960922">
        <ele>177</ele>
        <time>2022-02-24T08:02:33.000Z</time>
      </trkpt>
      <trkpt lat="47.666534" lon="2.0960894">
        <ele>176</ele>
        <time>2022-02-24T08:02:34.000Z</time>
      </trkpt>
      <trkpt lat="47.666542" lon="2.096082">
        <ele>176</ele>
        <time>2022-02-24T08:02:35.000Z</time>
      </trkpt>
      <trkpt lat="47.666553" lon="2.0960739">
        <ele>176</ele>
        <time>2022-02-24T08:02:36.000Z</time>
      </trkpt>
      <trkpt lat="47.666565" lon="2.0960665">
        <ele>176</ele>
        <time>2022-02-24T08:02:37.000Z</time>
      </trkpt>
      <trkpt lat="47.666576" lon="2.0960653">
        <ele>176</ele>
        <time>2022-02-24T08:02:38.000Z</time>
      </trkpt>
      <trkpt lat="47.666588" lon="2.0960593">
        <ele>175</ele>
        <time>2022-02-24T08:02:39.000Z</time>
      </trkpt>
      <trkpt lat="47.666595" lon="2.0960531">
        <ele>175</ele>
        <time>2022-02-24T08:02:40.000Z</time>
      </trkpt>
      <trkpt lat="47.666595" lon="2.0960531">
        <ele>175</ele>
        <time>2022-02-24T08:02:41.000Z</time>
      </trkpt>
      <trkpt lat="47.666595" lon="2.0960531">
        <ele>175</ele>
        <time>2022-02-24T08:02:42.000Z</time>
      </trkpt>
      <trkpt lat="47.666615" lon="2.0960505">
        <ele>174</ele>
        <time>2022-02-24T08:02:43.000Z</time>
      </trkpt>
      <trkpt lat="47.666622" lon="2.0960443">
        <ele>174</ele>
        <time>2022-02-24T08:02:44.000Z</time>
      </trkpt>
      <trkpt lat="47.666634" lon="2.0960412">
        <ele>174</ele>
        <time>2022-02-24T08:02:45.000Z</time>
      </trkpt>
      <trkpt lat="47.66664" lon="2.0960386">
        <ele>174</ele>
        <time>2022-02-24T08:02:46.000Z</time>
      </trkpt>
      <trkpt lat="47.66665" lon="2.0960326">
        <ele>173</ele>
        <time>2022-02-24T08:02:47.000Z</time>
      </trkpt>
      <trkpt lat="47.66666" lon="2.0960214">
        <ele>173</ele>
        <time>2022-02-24T08:02:48.000Z</time>
      </trkpt>
      <trkpt lat="47.66667" lon="2.0960155">
        <ele>173</ele>
        <time>2022-02-24T08:02:49.000Z</time>
      </trkpt>
      <trkpt lat="47.666683" lon="2.096015">
        <ele>173</ele>
        <time>2022-02-24T08:02:50.000Z</time>
      </trkpt>
      <trkpt lat="47.66669" lon="2.0960147">
        <ele>173</ele>
        <time>2022-02-24T08:02:51.000Z</time>
      </trkpt>
      <trkpt lat="47.6667" lon="2.0960162">
        <ele>172</ele>
        <time>2022-02-24T08:02:52.000Z</time>
      </trkpt>
      <trkpt lat="47.66671" lon="2.0960095">
        <ele>173</ele>
        <time>2022-02-24T08:02:53.000Z</time>
      </trkpt>
      <trkpt lat="47.66672" lon="2.096001">
        <ele>173</ele>
        <time>2022-02-24T08:02:54.000Z</time>
      </trkpt>
      <trkpt lat="47.66673" lon="2.096002">
        <ele>173</ele>
        <time>2022-02-24T08:02:55.000Z</time>
      </trkpt>
      <trkpt lat="47.66674" lon="2.096">
        <ele>173</ele>
        <time>2022-02-24T08:02:56.000Z</time>
      </trkpt>
      <trkpt lat="47.66675" lon="2.0959995">
        <ele>173</ele>
        <time>2022-02-24T08:02:57.000Z</time>
      </trkpt>
      <trkpt lat="47.666763" lon="2.095995">
        <ele>173</ele>
        <time>2022-02-24T08:02:58.000Z</time>
      </trkpt>
      <trkpt lat="47.666775" lon="2.09599">
        <ele>173</ele>
        <time>2022-02-24T08:02:59.000Z</time>
      </trkpt>
      <trkpt lat="47.666786" lon="2.0959857">
        <ele>173</ele>
        <time>2022-02-24T08:03:00.000Z</time>
      </trkpt>
      <trkpt lat="47.666794" lon="2.09598">
        <ele>173</ele>
        <time>2022-02-24T08:03:01.000Z</time>
      </trkpt>
      <trkpt lat="47.666805" lon="2.0959768">
        <ele>173</ele>
        <time>2022-02-24T08:03:02.000Z</time>
      </trkpt>
      <trkpt lat="47.66682" lon="2.0959713">
        <ele>174</ele>
        <time>2022-02-24T08:03:03.000Z</time>
      </trkpt>
      <trkpt lat="47.666832" lon="2.0959678">
        <ele>173</ele>
        <time>2022-02-24T08:03:04.000Z</time>
      </trkpt>
      <trkpt lat="47.666843" lon="2.095967">
        <ele>173</ele>
        <time>2022-02-24T08:03:05.000Z</time>
      </trkpt>
      <trkpt lat="47.666855" lon="2.095968">
        <ele>173</ele>
        <time>2022-02-24T08:03:06.000Z</time>
      </trkpt>
      <trkpt lat="47.666866" lon="2.0959635">
        <ele>173</ele>
        <time>2022-02-24T08:03:07.000Z</time>
      </trkpt>
      <trkpt lat="47.66688" lon="2.0959637">
        <ele>173</ele>
        <time>2022-02-24T08:03:08.000Z</time>
      </trkpt>
      <trkpt lat="47.666893" lon="2.0959651">
        <ele>173</ele>
        <time>2022-02-24T08:03:09.000Z</time>
      </trkpt>
      <trkpt lat="47.666904" lon="2.095965">
        <ele>173</ele>
        <time>2022-02-24T08:03:10.000Z</time>
      </trkpt>
      <trkpt lat="47.666912" lon="2.0959644">
        <ele>172</ele>
        <time>2022-02-24T08:03:11.000Z</time>
      </trkpt>
      <trkpt lat="47.66692" lon="2.0959644">
        <ele>172</ele>
        <time>2022-02-24T08:03:12.000Z</time>
      </trkpt>
      <trkpt lat="47.66693" lon="2.0959656">
        <ele>171</ele>
        <time>2022-02-24T08:03:13.000Z</time>
      </trkpt>
      <trkpt lat="47.66694" lon="2.0959623">
        <ele>171</ele>
        <time>2022-02-24T08:03:14.000Z</time>
      </trkpt>
      <trkpt lat="47.66695" lon="2.0959604">
        <ele>171</ele>
        <time>2022-02-24T08:03:15.000Z</time>
      </trkpt>
      <trkpt lat="47.66696" lon="2.0959544">
        <ele>171</ele>
        <time>2022-02-24T08:03:16.000Z</time>
      </trkpt>
      <trkpt lat="47.666973" lon="2.0959475">
        <ele>170</ele>
        <time>2022-02-24T08:03:17.000Z</time>
      </trkpt>
      <trkpt lat="47.66698" lon="2.0959444">
        <ele>170</ele>
        <time>2022-02-24T08:03:18.000Z</time>
      </trkpt>
      <trkpt lat="47.66699" lon="2.0959322">
        <ele>170</ele>
        <time>2022-02-24T08:03:19.000Z</time>
      </trkpt>
      <trkpt lat="47.667004" lon="2.0959232">
        <ele>170</ele>
        <time>2022-02-24T08:03:20.000Z</time>
      </trkpt>
      <trkpt lat="47.667007" lon="2.0959134">
        <ele>170</ele>
        <time>2022-02-24T08:03:21.000Z</time>
      </trkpt>
      <trkpt lat="47.66702" lon="2.0959034">
        <ele>169</ele>
        <time>2022-02-24T08:03:22.000Z</time>
      </trkpt>
      <trkpt lat="47.667027" lon="2.0958974">
        <ele>169</ele>
        <time>2022-02-24T08:03:23.000Z</time>
      </trkpt>
      <trkpt lat="47.667034" lon="2.0958889">
        <ele>169</ele>
        <time>2022-02-24T08:03:24.000Z</time>
      </trkpt>
      <trkpt lat="47.667046" lon="2.0958827">
        <ele>169</ele>
        <time>2022-02-24T08:03:25.000Z</time>
      </trkpt>
      <trkpt lat="47.66706" lon="2.095878">
        <ele>169</ele>
        <time>2022-02-24T08:03:26.000Z</time>
      </trkpt>
      <trkpt lat="47.667072" lon="2.095872">
        <ele>170</ele>
        <time>2022-02-24T08:03:27.000Z</time>
      </trkpt>
      <trkpt lat="47.667084" lon="2.095869">
        <ele>169</ele>
        <time>2022-02-24T08:03:28.000Z</time>
      </trkpt>
      <trkpt lat="47.667095" lon="2.0958707">
        <ele>169</ele>
        <time>2022-02-24T08:03:29.000Z</time>
      </trkpt>
      <trkpt lat="47.66711" lon="2.0958667">
        <ele>169</ele>
        <time>2022-02-24T08:03:30.000Z</time>
      </trkpt>
      <trkpt lat="47.66712" lon="2.0958612">
        <ele>169</ele>
        <time>2022-02-24T08:03:31.000Z</time>
      </trkpt>
      <trkpt lat="47.667133" lon="2.0958557">
        <ele>169</ele>
        <time>2022-02-24T08:03:32.000Z</time>
      </trkpt>
      <trkpt lat="47.66715" lon="2.0958593">
        <ele>169</ele>
        <time>2022-02-24T08:03:33.000Z</time>
      </trkpt>
      <trkpt lat="47.66716" lon="2.0958564">
        <ele>169</ele>
        <time>2022-02-24T08:03:34.000Z</time>
      </trkpt>
      <trkpt lat="47.667168" lon="2.0958526">
        <ele>169</ele>
        <time>2022-02-24T08:03:35.000Z</time>
      </trkpt>
      <trkpt lat="47.66718" lon="2.0958498">
        <ele>169</ele>
        <time>2022-02-24T08:03:36.000Z</time>
      </trkpt>
      <trkpt lat="47.66719" lon="2.0958462">
        <ele>169</ele>
        <time>2022-02-24T08:03:37.000Z</time>
      </trkpt>
      <trkpt lat="47.667202" lon="2.0958443">
        <ele>170</ele>
        <time>2022-02-24T08:03:38.000Z</time>
      </trkpt>
      <trkpt lat="47.667213" lon="2.095845">
        <ele>170</ele>
        <time>2022-02-24T08:03:39.000Z</time>
      </trkpt>
      <trkpt lat="47.66722" lon="2.0958438">
        <ele>170</ele>
        <time>2022-02-24T08:03:40.000Z</time>
      </trkpt>
      <trkpt lat="47.667233" lon="2.0958385">
        <ele>169</ele>
        <time>2022-02-24T08:03:41.000Z</time>
      </trkpt>
      <trkpt lat="47.667244" lon="2.09583">
        <ele>170</ele>
        <time>2022-02-24T08:03:42.000Z</time>
      </trkpt>
      <trkpt lat="47.66725" lon="2.0958228">
        <ele>170</ele>
        <time>2022-02-24T08:03:43.000Z</time>
      </trkpt>
      <trkpt lat="47.66725" lon="2.0958228">
        <ele>170</ele>
        <time>2022-02-24T08:03:44.000Z</time>
      </trkpt>
      <trkpt lat="47.66725" lon="2.0958228">
        <ele>170</ele>
        <time>2022-02-24T08:03:45.000Z</time>
      </trkpt>
      <trkpt lat="47.667282" lon="2.0958085">
        <ele>170</ele>
        <time>2022-02-24T08:03:46.000Z</time>
      </trkpt>
      <trkpt lat="47.66729" lon="2.095805">
        <ele>170</ele>
        <time>2022-02-24T08:03:47.000Z</time>
      </trkpt>
      <trkpt lat="47.667305" lon="2.0958002">
        <ele>170</ele>
        <time>2022-02-24T08:03:48.000Z</time>
      </trkpt>
      <trkpt lat="47.667316" lon="2.095795">
        <ele>170</ele>
        <time>2022-02-24T08:03:49.000Z</time>
      </trkpt>
      <trkpt lat="47.66733" lon="2.0957901">
        <ele>169</ele>
        <time>2022-02-24T08:03:50.000Z</time>
      </trkpt>
      <trkpt lat="47.667347" lon="2.0957835">
        <ele>169</ele>
        <time>2022-02-24T08:03:51.000Z</time>
      </trkpt>
      <trkpt lat="47.66736" lon="2.0957758">
        <ele>169</ele>
        <time>2022-02-24T08:03:52.000Z</time>
      </trkpt>
      <trkpt lat="47.667366" lon="2.0957675">
        <ele>169</ele>
        <time>2022-02-24T08:03:53.000Z</time>
      </trkpt>
      <trkpt lat="47.667374" lon="2.095765">
        <ele>169</ele>
        <time>2022-02-24T08:03:54.000Z</time>
      </trkpt>
      <trkpt lat="47.667385" lon="2.0957634">
        <ele>169</ele>
        <time>2022-02-24T08:03:55.000Z</time>
      </trkpt>
      <trkpt lat="47.667393" lon="2.095759">
        <ele>169</ele>
        <time>2022-02-24T08:03:56.000Z</time>
      </trkpt>
      <trkpt lat="47.6674" lon="2.095758">
        <ele>169</ele>
        <time>2022-02-24T08:03:57.000Z</time>
      </trkpt>
      <trkpt lat="47.667408" lon="2.0957582">
        <ele>168</ele>
        <time>2022-02-24T08:03:58.000Z</time>
      </trkpt>
      <trkpt lat="47.667416" lon="2.0957553">
        <ele>168</ele>
        <time>2022-02-24T08:03:59.000Z</time>
      </trkpt>
      <trkpt lat="47.667416" lon="2.0957553">
        <ele>168</ele>
        <time>2022-02-24T08:04:00.000Z</time>
      </trkpt>
      <trkpt lat="47.667416" lon="2.0957553">
        <ele>168</ele>
        <time>2022-02-24T08:04:01.000Z</time>
      </trkpt>
      <trkpt lat="47.667442" lon="2.0957494">
        <ele>168</ele>
        <time>2022-02-24T08:04:02.000Z</time>
      </trkpt>
      <trkpt lat="47.66745" lon="2.0957437">
        <ele>167</ele>
        <time>2022-02-24T08:04:03.000Z</time>
      </trkpt>
      <trkpt lat="47.66746" lon="2.0957398">
        <ele>166</ele>
        <time>2022-02-24T08:04:04.000Z</time>
      </trkpt>
      <trkpt lat="47.66747" lon="2.095736">
        <ele>166</ele>
        <time>2022-02-24T08:04:05.000Z</time>
      </trkpt>
      <trkpt lat="47.66747" lon="2.095736">
        <ele>166</ele>
        <time>2022-02-24T08:04:06.000Z</time>
      </trkpt>
      <trkpt lat="47.667492" lon="2.095727">
        <ele>166</ele>
        <time>2022-02-24T08:04:07.000Z</time>
      </trkpt>
      <trkpt lat="47.6675" lon="2.0957243">
        <ele>166</ele>
        <time>2022-02-24T08:04:08.000Z</time>
      </trkpt>
      <trkpt lat="47.667515" lon="2.0957186">
        <ele>167</ele>
        <time>2022-02-24T08:04:09.000Z</time>
      </trkpt>
      <trkpt lat="47.66753" lon="2.0957127">
        <ele>167</ele>
        <time>2022-02-24T08:04:10.000Z</time>
      </trkpt>
      <trkpt lat="47.66754" lon="2.0957026">
        <ele>167</ele>
        <time>2022-02-24T08:04:11.000Z</time>
      </trkpt>
      <trkpt lat="47.667557" lon="2.0956988">
        <ele>167</ele>
        <time>2022-02-24T08:04:12.000Z</time>
      </trkpt>
      <trkpt lat="47.66757" lon="2.0956926">
        <ele>167</ele>
        <time>2022-02-24T08:04:13.000Z</time>
      </trkpt>
      <trkpt lat="47.667583" lon="2.0956922">
        <ele>167</ele>
        <time>2022-02-24T08:04:14.000Z</time>
      </trkpt>
      <trkpt lat="47.66759" lon="2.0956917">
        <ele>167</ele>
        <time>2022-02-24T08:04:15.000Z</time>
      </trkpt>
      <trkpt lat="47.667603" lon="2.095687">
        <ele>167</ele>
        <time>2022-02-24T08:04:16.000Z</time>
      </trkpt>
      <trkpt lat="47.667603" lon="2.095687">
        <ele>167</ele>
        <time>2022-02-24T08:04:17.000Z</time>
      </trkpt>
      <trkpt lat="47.667603" lon="2.095687">
        <ele>167</ele>
        <time>2022-02-24T08:04:18.000Z</time>
      </trkpt>
      <trkpt lat="47.667625" lon="2.095693">
        <ele>167</ele>
        <time>2022-02-24T08:04:19.000Z</time>
      </trkpt>
      <trkpt lat="47.667637" lon="2.0956893">
        <ele>167</ele>
        <time>2022-02-24T08:04:20.000Z</time>
      </trkpt>
      <trkpt lat="47.667645" lon="2.0956855">
        <ele>167</ele>
        <time>2022-02-24T08:04:21.000Z</time>
      </trkpt>
      <trkpt lat="47.667656" lon="2.0956893">
        <ele>167</ele>
        <time>2022-02-24T08:04:22.000Z</time>
      </trkpt>
      <trkpt lat="47.667664" lon="2.095687">
        <ele>167</ele>
        <time>2022-02-24T08:04:23.000Z</time>
      </trkpt>
      <trkpt lat="47.66767" lon="2.095681">
        <ele>166</ele>
        <time>2022-02-24T08:04:24.000Z</time>
      </trkpt>
      <trkpt lat="47.667683" lon="2.0956779">
        <ele>166</ele>
        <time>2022-02-24T08:04:25.000Z</time>
      </trkpt>
      <trkpt lat="47.667694" lon="2.0956786">
        <ele>166</ele>
        <time>2022-02-24T08:04:26.000Z</time>
      </trkpt>
      <trkpt lat="47.667706" lon="2.095678">
        <ele>166</ele>
        <time>2022-02-24T08:04:27.000Z</time>
      </trkpt>
      <trkpt lat="47.66772" lon="2.0956745">
        <ele>166</ele>
        <time>2022-02-24T08:04:28.000Z</time>
      </trkpt>
      <trkpt lat="47.667732" lon="2.0956697">
        <ele>166</ele>
        <time>2022-02-24T08:04:29.000Z</time>
      </trkpt>
      <trkpt lat="47.66774" lon="2.0956678">
        <ele>166</ele>
        <time>2022-02-24T08:04:30.000Z</time>
      </trkpt>
      <trkpt lat="47.66775" lon="2.095662">
        <ele>167</ele>
        <time>2022-02-24T08:04:31.000Z</time>
      </trkpt>
      <trkpt lat="47.667767" lon="2.0956595">
        <ele>167</ele>
        <time>2022-02-24T08:04:32.000Z</time>
      </trkpt>
      <trkpt lat="47.667778" lon="2.0956552">
        <ele>166</ele>
        <time>2022-02-24T08:04:33.000Z</time>
      </trkpt>
      <trkpt lat="47.667793" lon="2.0956538">
        <ele>166</ele>
        <time>2022-02-24T08:04:34.000Z</time>
      </trkpt>
      <trkpt lat="47.667805" lon="2.0956495">
        <ele>166</ele>
        <time>2022-02-24T08:04:35.000Z</time>
      </trkpt>
      <trkpt lat="47.667816" lon="2.0956485">
        <ele>166</ele>
        <time>2022-02-24T08:04:36.000Z</time>
      </trkpt>
      <trkpt lat="47.667828" lon="2.0956497">
        <ele>165</ele>
        <time>2022-02-24T08:04:37.000Z</time>
      </trkpt>
      <trkpt lat="47.66784" lon="2.095643">
        <ele>165</ele>
        <time>2022-02-24T08:04:38.000Z</time>
      </trkpt>
      <trkpt lat="47.66785" lon="2.095637">
        <ele>165</ele>
        <time>2022-02-24T08:04:39.000Z</time>
      </trkpt>
      <trkpt lat="47.667862" lon="2.0956361">
        <ele>165</ele>
        <time>2022-02-24T08:04:40.000Z</time>
      </trkpt>
      <trkpt lat="47.667873" lon="2.0956373">
        <ele>165</ele>
        <time>2022-02-24T08:04:41.000Z</time>
      </trkpt>
      <trkpt lat="47.667885" lon="2.0956352">
        <ele>166</ele>
        <time>2022-02-24T08:04:42.000Z</time>
      </trkpt>
      <trkpt lat="47.667896" lon="2.0956283">
        <ele>166</ele>
        <time>2022-02-24T08:04:43.000Z</time>
      </trkpt>
      <trkpt lat="47.667908" lon="2.0956235">
        <ele>166</ele>
        <time>2022-02-24T08:04:44.000Z</time>
      </trkpt>
      <trkpt lat="47.66792" lon="2.0956202">
        <ele>166</ele>
        <time>2022-02-24T08:04:45.000Z</time>
      </trkpt>
      <trkpt lat="47.667927" lon="2.0956173">
        <ele>165</ele>
        <time>2022-02-24T08:04:46.000Z</time>
      </trkpt>
      <trkpt lat="47.667934" lon="2.0956142">
        <ele>165</ele>
        <time>2022-02-24T08:04:47.000Z</time>
      </trkpt>
      <trkpt lat="47.66795" lon="2.0956097">
        <ele>165</ele>
        <time>2022-02-24T08:04:48.000Z</time>
      </trkpt>
      <trkpt lat="47.667965" lon="2.0956125">
        <ele>164</ele>
        <time>2022-02-24T08:04:49.000Z</time>
      </trkpt>
      <trkpt lat="47.667976" lon="2.0956087">
        <ele>163</ele>
        <time>2022-02-24T08:04:50.000Z</time>
      </trkpt>
      <trkpt lat="47.667988" lon="2.0956028">
        <ele>163</ele>
        <time>2022-02-24T08:04:51.000Z</time>
      </trkpt>
      <trkpt lat="47.668" lon="2.0955975">
        <ele>163</ele>
        <time>2022-02-24T08:04:52.000Z</time>
      </trkpt>
      <trkpt lat="47.66801" lon="2.0955896">
        <ele>163</ele>
        <time>2022-02-24T08:04:53.000Z</time>
      </trkpt>
      <trkpt lat="47.66802" lon="2.0955853">
        <ele>163</ele>
        <time>2022-02-24T08:04:54.000Z</time>
      </trkpt>
      <trkpt lat="47.66802" lon="2.0955853">
        <ele>163</ele>
        <time>2022-02-24T08:04:55.000Z</time>
      </trkpt>
      <trkpt lat="47.66802" lon="2.0955853">
        <ele>163</ele>
        <time>2022-02-24T08:04:56.000Z</time>
      </trkpt>
      <trkpt lat="47.668045" lon="2.0955882">
        <ele>162</ele>
        <time>2022-02-24T08:04:57.000Z</time>
      </trkpt>
      <trkpt lat="47.66805" lon="2.0955865">
        <ele>162</ele>
        <time>2022-02-24T08:04:58.000Z</time>
      </trkpt>
      <trkpt lat="47.668056" lon="2.0955844">
        <ele>162</ele>
        <time>2022-02-24T08:04:59.000Z</time>
      </trkpt>
      <trkpt lat="47.668068" lon="2.095579">
        <ele>162</ele>
        <time>2022-02-24T08:05:00.000Z</time>
      </trkpt>
      <trkpt lat="47.668068" lon="2.095579">
        <ele>162</ele>
        <time>2022-02-24T08:05:01.000Z</time>
      </trkpt>
      <trkpt lat="47.668068" lon="2.095579">
        <ele>162</ele>
        <time>2022-02-24T08:05:02.000Z</time>
      </trkpt>
      <trkpt lat="47.668095" lon="2.0955675">
        <ele>161</ele>
        <time>2022-02-24T08:05:03.000Z</time>
      </trkpt>
      <trkpt lat="47.668106" lon="2.0955565">
        <ele>161</ele>
        <time>2022-02-24T08:05:04.000Z</time>
      </trkpt>
      <trkpt lat="47.668114" lon="2.0955482">
        <ele>160</ele>
        <time>2022-02-24T08:05:05.000Z</time>
      </trkpt>
      <trkpt lat="47.66812" lon="2.0955415">
        <ele>159</ele>
        <time>2022-02-24T08:05:06.000Z</time>
      </trkpt>
      <trkpt lat="47.66812" lon="2.0955415">
        <ele>159</ele>
        <time>2022-02-24T08:05:07.000Z</time>
      </trkpt>
      <trkpt lat="47.668144" lon="2.0955348">
        <ele>159</ele>
        <time>2022-02-24T08:05:08.000Z</time>
      </trkpt>
      <trkpt lat="47.66815" lon="2.0955348">
        <ele>158</ele>
        <time>2022-02-24T08:05:09.000Z</time>
      </trkpt>
      <trkpt lat="47.66816" lon="2.0955367">
        <ele>158</ele>
        <time>2022-02-24T08:05:10.000Z</time>
      </trkpt>
      <trkpt lat="47.66817" lon="2.095533">
        <ele>158</ele>
        <time>2022-02-24T08:05:11.000Z</time>
      </trkpt>
      <trkpt lat="47.66817" lon="2.095533">
        <ele>158</ele>
        <time>2022-02-24T08:05:12.000Z</time>
      </trkpt>
      <trkpt lat="47.66817" lon="2.095533">
        <ele>158</ele>
        <time>2022-02-24T08:05:13.000Z</time>
      </trkpt>
      <trkpt lat="47.6682" lon="2.0955288">
        <ele>158</ele>
        <time>2022-02-24T08:05:14.000Z</time>
      </trkpt>
      <trkpt lat="47.668213" lon="2.0955327">
        <ele>158</ele>
        <time>2022-02-24T08:05:15.000Z</time>
      </trkpt>
      <trkpt lat="47.66822" lon="2.0955305">
        <ele>158</ele>
        <time>2022-02-24T08:05:16.000Z</time>
      </trkpt>
      <trkpt lat="47.668232" lon="2.0955288">
        <ele>158</ele>
        <time>2022-02-24T08:05:17.000Z</time>
      </trkpt>
      <trkpt lat="47.668243" lon="2.0955224">
        <ele>157</ele>
        <time>2022-02-24T08:05:18.000Z</time>
      </trkpt>
      <trkpt lat="47.668255" lon="2.095517">
        <ele>157</ele>
        <time>2022-02-24T08:05:19.000Z</time>
      </trkpt>
      <trkpt lat="47.66827" lon="2.0955129">
        <ele>157</ele>
        <time>2022-02-24T08:05:20.000Z</time>
      </trkpt>
      <trkpt lat="47.66828" lon="2.0955107">
        <ele>157</ele>
        <time>2022-02-24T08:05:21.000Z</time>
      </trkpt>
      <trkpt lat="47.668293" lon="2.0955074">
        <ele>158</ele>
        <time>2022-02-24T08:05:22.000Z</time>
      </trkpt>
      <trkpt lat="47.668297" lon="2.0954964">
        <ele>158</ele>
        <time>2022-02-24T08:05:23.000Z</time>
      </trkpt>
      <trkpt lat="47.668297" lon="2.0954964">
        <ele>158</ele>
        <time>2022-02-24T08:05:24.000Z</time>
      </trkpt>
      <trkpt lat="47.668297" lon="2.0954964">
        <ele>158</ele>
        <time>2022-02-24T08:05:25.000Z</time>
      </trkpt>
      <trkpt lat="47.668316" lon="2.095489">
        <ele>157</ele>
        <time>2022-02-24T08:05:26.000Z</time>
      </trkpt>
      <trkpt lat="47.668324" lon="2.095486">
        <ele>157</ele>
        <time>2022-02-24T08:05:27.000Z</time>
      </trkpt>
      <trkpt lat="47.668335" lon="2.0954847">
        <ele>156</ele>
        <time>2022-02-24T08:05:28.000Z</time>
      </trkpt>
      <trkpt lat="47.668343" lon="2.0954735">
        <ele>156</ele>
        <time>2022-02-24T08:05:29.000Z</time>
      </trkpt>
      <trkpt lat="47.66835" lon="2.0954664">
        <ele>156</ele>
        <time>2022-02-24T08:05:30.000Z</time>
      </trkpt>
      <trkpt lat="47.668365" lon="2.0954602">
        <ele>155</ele>
        <time>2022-02-24T08:05:31.000Z</time>
      </trkpt>
      <trkpt lat="47.668377" lon="2.095451">
        <ele>154</ele>
        <time>2022-02-24T08:05:32.000Z</time>
      </trkpt>
      <trkpt lat="47.668385" lon="2.0954468">
        <ele>154</ele>
        <time>2022-02-24T08:05:33.000Z</time>
      </trkpt>
      <trkpt lat="47.6684" lon="2.0954452">
        <ele>154</ele>
        <time>2022-02-24T08:05:34.000Z</time>
      </trkpt>
      <trkpt lat="47.668407" lon="2.0954418">
        <ele>154</ele>
        <time>2022-02-24T08:05:35.000Z</time>
      </trkpt>
      <trkpt lat="47.66842" lon="2.0954392">
        <ele>154</ele>
        <time>2022-02-24T08:05:36.000Z</time>
      </trkpt>
      <trkpt lat="47.668434" lon="2.0954375">
        <ele>154</ele>
        <time>2022-02-24T08:05:37.000Z</time>
      </trkpt>
      <trkpt lat="47.66845" lon="2.0954368">
        <ele>154</ele>
        <time>2022-02-24T08:05:38.000Z</time>
      </trkpt>
      <trkpt lat="47.66846" lon="2.0954354">
        <ele>154</ele>
        <time>2022-02-24T08:05:39.000Z</time>
      </trkpt>
      <trkpt lat="47.668476" lon="2.0954275">
        <ele>155</ele>
        <time>2022-02-24T08:05:40.000Z</time>
      </trkpt>
      <trkpt lat="47.668476" lon="2.0954275">
        <ele>155</ele>
        <time>2022-02-24T08:05:41.000Z</time>
      </trkpt>
      <trkpt lat="47.668476" lon="2.0954275">
        <ele>155</ele>
        <time>2022-02-24T08:05:42.000Z</time>
      </trkpt>
      <trkpt lat="47.668507" lon="2.095418">
        <ele>154</ele>
        <time>2022-02-24T08:05:43.000Z</time>
      </trkpt>
      <trkpt lat="47.668518" lon="2.0954125">
        <ele>153</ele>
        <time>2022-02-24T08:05:44.000Z</time>
      </trkpt>
      <trkpt lat="47.66853" lon="2.0954087">
        <ele>153</ele>
        <time>2022-02-24T08:05:45.000Z</time>
      </trkpt>
      <trkpt lat="47.66854" lon="2.0954046">
        <ele>152</ele>
        <time>2022-02-24T08:05:46.000Z</time>
      </trkpt>
      <trkpt lat="47.668552" lon="2.0953965">
        <ele>152</ele>
        <time>2022-02-24T08:05:47.000Z</time>
      </trkpt>
      <trkpt lat="47.668564" lon="2.095391">
        <ele>152</ele>
        <time>2022-02-24T08:05:48.000Z</time>
      </trkpt>
      <trkpt lat="47.668575" lon="2.0953867">
        <ele>152</ele>
        <time>2022-02-24T08:05:49.000Z</time>
      </trkpt>
      <trkpt lat="47.668587" lon="2.0953815">
        <ele>152</ele>
        <time>2022-02-24T08:05:50.000Z</time>
      </trkpt>
      <trkpt lat="47.668594" lon="2.0953822">
        <ele>152</ele>
        <time>2022-02-24T08:05:51.000Z</time>
      </trkpt>
      <trkpt lat="47.668606" lon="2.0953877">
        <ele>152</ele>
        <time>2022-02-24T08:05:52.000Z</time>
      </trkpt>
      <trkpt lat="47.668617" lon="2.0953853">
        <ele>153</ele>
        <time>2022-02-24T08:05:53.000Z</time>
      </trkpt>
      <trkpt lat="47.66863" lon="2.0953805">
        <ele>153</ele>
        <time>2022-02-24T08:05:54.000Z</time>
      </trkpt>
      <trkpt lat="47.66863" lon="2.0953805">
        <ele>153</ele>
        <time>2022-02-24T08:05:55.000Z</time>
      </trkpt>
      <trkpt lat="47.66863" lon="2.0953805">
        <ele>153</ele>
        <time>2022-02-24T08:05:56.000Z</time>
      </trkpt>
      <trkpt lat="47.668648" lon="2.095373">
        <ele>153</ele>
        <time>2022-02-24T08:05:57.000Z</time>
      </trkpt>
      <trkpt lat="47.668655" lon="2.0953689">
        <ele>153</ele>
        <time>2022-02-24T08:05:58.000Z</time>
      </trkpt>
      <trkpt lat="47.668667" lon="2.0953667">
        <ele>153</ele>
        <time>2022-02-24T08:05:59.000Z</time>
      </trkpt>
      <trkpt lat="47.66868" lon="2.0953612">
        <ele>152</ele>
        <time>2022-02-24T08:06:00.000Z</time>
      </trkpt>
      <trkpt lat="47.66868" lon="2.0953612">
        <ele>152</ele>
        <time>2022-02-24T08:06:00.000Z</time>
      </trkpt>
      <trkpt lat="47.66868" lon="2.0953612">
        <ele>152</ele>
        <time>2022-02-24T08:06:02.000Z</time>
      </trkpt>
      <trkpt lat="47.668713" lon="2.0953434">
        <ele>152</ele>
        <time>2022-02-24T08:06:03.000Z</time>
      </trkpt>
      <trkpt lat="47.668724" lon="2.0953357">
        <ele>152</ele>
        <time>2022-02-24T08:06:04.000Z</time>
      </trkpt>
      <trkpt lat="47.66873" lon="2.0953288">
        <ele>152</ele>
        <time>2022-02-24T08:06:05.000Z</time>
      </trkpt>
      <trkpt lat="47.668747" lon="2.0953214">
        <ele>152</ele>
        <time>2022-02-24T08:06:06.000Z</time>
      </trkpt>
      <trkpt lat="47.668747" lon="2.0953214">
        <ele>152</ele>
        <time>2022-02-24T08:06:07.000Z</time>
      </trkpt>
      <trkpt lat="47.668747" lon="2.0953214">
        <ele>152</ele>
        <time>2022-02-24T08:06:08.000Z</time>
      </trkpt>
      <trkpt lat="47.668766" lon="2.0953126">
        <ele>151</ele>
        <time>2022-02-24T08:06:09.000Z</time>
      </trkpt>
      <trkpt lat="47.668777" lon="2.0953126">
        <ele>151</ele>
        <time>2022-02-24T08:06:10.000Z</time>
      </trkpt>
      <trkpt lat="47.668793" lon="2.0953112">
        <ele>151</ele>
        <time>2022-02-24T08:06:11.000Z</time>
      </trkpt>
      <trkpt lat="47.668804" lon="2.0953114">
        <ele>151</ele>
        <time>2022-02-24T08:06:12.000Z</time>
      </trkpt>
      <trkpt lat="47.668816" lon="2.0953054">
        <ele>151</ele>
        <time>2022-02-24T08:06:13.000Z</time>
      </trkpt>
      <trkpt lat="47.668827" lon="2.0952997">
        <ele>151</ele>
        <time>2022-02-24T08:06:14.000Z</time>
      </trkpt>
      <trkpt lat="47.66884" lon="2.0952933">
        <ele>152</ele>
        <time>2022-02-24T08:06:15.000Z</time>
      </trkpt>
      <trkpt lat="47.66885" lon="2.0952902">
        <ele>152</ele>
        <time>2022-02-24T08:06:16.000Z</time>
      </trkpt>
      <trkpt lat="47.66885" lon="2.0952902">
        <ele>152</ele>
        <time>2022-02-24T08:06:17.000Z</time>
      </trkpt>
      <trkpt lat="47.668873" lon="2.095286">
        <ele>153</ele>
        <time>2022-02-24T08:06:18.000Z</time>
      </trkpt>
      <trkpt lat="47.668884" lon="2.09528">
        <ele>153</ele>
        <time>2022-02-24T08:06:19.000Z</time>
      </trkpt>
      <trkpt lat="47.668896" lon="2.0952728">
        <ele>153</ele>
        <time>2022-02-24T08:06:20.000Z</time>
      </trkpt>
      <trkpt lat="47.668907" lon="2.0952668">
        <ele>153</ele>
        <time>2022-02-24T08:06:21.000Z</time>
      </trkpt>
      <trkpt lat="47.66893" lon="2.095265">
        <ele>153</ele>
        <time>2022-02-24T08:06:22.000Z</time>
      </trkpt>
      <trkpt lat="47.66893" lon="2.095265">
        <ele>153</ele>
        <time>2022-02-24T08:06:22.000Z</time>
      </trkpt>
      <trkpt lat="47.66893" lon="2.095265">
        <ele>153</ele>
        <time>2022-02-24T08:06:24.000Z</time>
      </trkpt>
      <trkpt lat="47.66895" lon="2.0952604">
        <ele>152</ele>
        <time>2022-02-24T08:06:25.000Z</time>
      </trkpt>
      <trkpt lat="47.668964" lon="2.0952585">
        <ele>152</ele>
        <time>2022-02-24T08:06:26.000Z</time>
      </trkpt>
      <trkpt lat="47.66898" lon="2.095256">
        <ele>151</ele>
        <time>2022-02-24T08:06:27.000Z</time>
      </trkpt>
      <trkpt lat="47.668995" lon="2.0952532">
        <ele>151</ele>
        <time>2022-02-24T08:06:28.000Z</time>
      </trkpt>
      <trkpt lat="47.66901" lon="2.0952485">
        <ele>151</ele>
        <time>2022-02-24T08:06:29.000Z</time>
      </trkpt>
      <trkpt lat="47.669025" lon="2.0952415">
        <ele>151</ele>
        <time>2022-02-24T08:06:30.000Z</time>
      </trkpt>
      <trkpt lat="47.669033" lon="2.0952322">
        <ele>150</ele>
        <time>2022-02-24T08:06:31.000Z</time>
      </trkpt>
      <trkpt lat="47.669033" lon="2.0952322">
        <ele>150</ele>
        <time>2022-02-24T08:06:32.000Z</time>
      </trkpt>
      <trkpt lat="47.669033" lon="2.0952322">
        <ele>150</ele>
        <time>2022-02-24T08:06:33.000Z</time>
      </trkpt>
      <trkpt lat="47.669064" lon="2.0952227">
        <ele>150</ele>
        <time>2022-02-24T08:06:34.000Z</time>
      </trkpt>
      <trkpt lat="47.669075" lon="2.0952196">
        <ele>150</ele>
        <time>2022-02-24T08:06:35.000Z</time>
      </trkpt>
      <trkpt lat="47.669086" lon="2.0952158">
        <ele>150</ele>
        <time>2022-02-24T08:06:36.000Z</time>
      </trkpt>
      <trkpt lat="47.669098" lon="2.0952063">
        <ele>150</ele>
        <time>2022-02-24T08:06:37.000Z</time>
      </trkpt>
      <trkpt lat="47.669098" lon="2.0952063">
        <ele>150</ele>
        <time>2022-02-24T08:06:38.000Z</time>
      </trkpt>
      <trkpt lat="47.669098" lon="2.0952063">
        <ele>150</ele>
        <time>2022-02-24T08:06:38.000Z</time>
      </trkpt>
      <trkpt lat="47.66913" lon="2.0952048">
        <ele>149</ele>
        <time>2022-02-24T08:06:40.000Z</time>
      </trkpt>
      <trkpt lat="47.66914" lon="2.0952013">
        <ele>149</ele>
        <time>2022-02-24T08:06:41.000Z</time>
      </trkpt>
      <trkpt lat="47.66915" lon="2.095201">
        <ele>149</ele>
        <time>2022-02-24T08:06:42.000Z</time>
      </trkpt>
      <trkpt lat="47.669163" lon="2.095199">
        <ele>149</ele>
        <time>2022-02-24T08:06:43.000Z</time>
      </trkpt>
      <trkpt lat="47.669163" lon="2.095199">
        <ele>149</ele>
        <time>2022-02-24T08:06:44.000Z</time>
      </trkpt>
      <trkpt lat="47.669163" lon="2.095199">
        <ele>149</ele>
        <time>2022-02-24T08:06:45.000Z</time>
      </trkpt>
      <trkpt lat="47.66918" lon="2.0951908">
        <ele>148</ele>
        <time>2022-02-24T08:06:46.000Z</time>
      </trkpt>
      <trkpt lat="47.66919" lon="2.0951867">
        <ele>148</ele>
        <time>2022-02-24T08:06:47.000Z</time>
      </trkpt>
      <trkpt lat="47.6692" lon="2.0951836">
        <ele>148</ele>
        <time>2022-02-24T08:06:48.000Z</time>
      </trkpt>
      <trkpt lat="47.669212" lon="2.0951798">
        <ele>148</ele>
        <time>2022-02-24T08:06:49.000Z</time>
      </trkpt>
      <trkpt lat="47.669212" lon="2.0951798">
        <ele>148</ele>
        <time>2022-02-24T08:06:50.000Z</time>
      </trkpt>
      <trkpt lat="47.669212" lon="2.0951798">
        <ele>148</ele>
        <time>2022-02-24T08:06:51.000Z</time>
      </trkpt>
      <trkpt lat="47.66924" lon="2.0951712">
        <ele>148</ele>
        <time>2022-02-24T08:06:52.000Z</time>
      </trkpt>
      <trkpt lat="47.669247" lon="2.09517">
        <ele>148</ele>
        <time>2022-02-24T08:06:53.000Z</time>
      </trkpt>
      <trkpt lat="47.669254" lon="2.0951633">
        <ele>147</ele>
        <time>2022-02-24T08:06:54.000Z</time>
      </trkpt>
      <trkpt lat="47.66927" lon="2.095158">
        <ele>147</ele>
        <time>2022-02-24T08:06:55.000Z</time>
      </trkpt>
      <trkpt lat="47.66928" lon="2.095155">
        <ele>147</ele>
        <time>2022-02-24T08:06:56.000Z</time>
      </trkpt>
      <trkpt lat="47.669292" lon="2.0951486">
        <ele>147</ele>
        <time>2022-02-24T08:06:57.000Z</time>
      </trkpt>
      <trkpt lat="47.669304" lon="2.0951464">
        <ele>147</ele>
        <time>2022-02-24T08:06:58.000Z</time>
      </trkpt>
      <trkpt lat="47.669304" lon="2.0951464">
        <ele>147</ele>
        <time>2022-02-24T08:06:59.000Z</time>
      </trkpt>
      <trkpt lat="47.66933" lon="2.095135">
        <ele>147</ele>
        <time>2022-02-24T08:07:00.000Z</time>
      </trkpt>
      <trkpt lat="47.66933" lon="2.095135">
        <ele>147</ele>
        <time>2022-02-24T08:07:00.000Z</time>
      </trkpt>
      <trkpt lat="47.669353" lon="2.0951304">
        <ele>146</ele>
        <time>2022-02-24T08:07:02.000Z</time>
      </trkpt>
      <trkpt lat="47.669365" lon="2.0951252">
        <ele>146</ele>
        <time>2022-02-24T08:07:03.000Z</time>
      </trkpt>
      <trkpt lat="47.669365" lon="2.0951252">
        <ele>146</ele>
        <time>2022-02-24T08:07:04.000Z</time>
      </trkpt>
      <trkpt lat="47.669365" lon="2.0951252">
        <ele>146</ele>
        <time>2022-02-24T08:07:05.000Z</time>
      </trkpt>
      <trkpt lat="47.669395" lon="2.0951102">
        <ele>145</ele>
        <time>2022-02-24T08:07:06.000Z</time>
      </trkpt>
      <trkpt lat="47.669407" lon="2.0951025">
        <ele>146</ele>
        <time>2022-02-24T08:07:07.000Z</time>
      </trkpt>
      <trkpt lat="47.669422" lon="2.0950954">
        <ele>145</ele>
        <time>2022-02-24T08:07:08.000Z</time>
      </trkpt>
      <trkpt lat="47.669437" lon="2.0950902">
        <ele>144</ele>
        <time>2022-02-24T08:07:09.000Z</time>
      </trkpt>
      <trkpt lat="47.66945" lon="2.0950904">
        <ele>144</ele>
        <time>2022-02-24T08:07:10.000Z</time>
      </trkpt>
      <trkpt lat="47.669456" lon="2.0950928">
        <ele>143</ele>
        <time>2022-02-24T08:07:11.000Z</time>
      </trkpt>
      <trkpt lat="47.669464" lon="2.0950937">
        <ele>143</ele>
        <time>2022-02-24T08:07:12.000Z</time>
      </trkpt>
      <trkpt lat="47.669464" lon="2.0950937">
        <ele>143</ele>
        <time>2022-02-24T08:07:12.000Z</time>
      </trkpt>
      <trkpt lat="47.669476" lon="2.0950851">
        <ele>144</ele>
        <time>2022-02-24T08:07:14.000Z</time>
      </trkpt>
      <trkpt lat="47.669476" lon="2.0950851">
        <ele>144</ele>
        <time>2022-02-24T08:07:15.000Z</time>
      </trkpt>
      <trkpt lat="47.669476" lon="2.0950851">
        <ele>144</ele>
        <time>2022-02-24T08:07:16.000Z</time>
      </trkpt>
      <trkpt lat="47.669514" lon="2.095069">
        <ele>144</ele>
        <time>2022-02-24T08:07:17.000Z</time>
      </trkpt>
      <trkpt lat="47.669514" lon="2.095069">
        <ele>144</ele>
        <time>2022-02-24T08:07:17.000Z</time>
      </trkpt>
      <trkpt lat="47.669525" lon="2.095068">
        <ele>144</ele>
        <time>2022-02-24T08:07:19.000Z</time>
      </trkpt>
      <trkpt lat="47.669556" lon="2.0950706">
        <ele>144</ele>
        <time>2022-02-24T08:07:20.000Z</time>
      </trkpt>
      <trkpt lat="47.669567" lon="2.0950708">
        <ele>144</ele>
        <time>2022-02-24T08:07:21.000Z</time>
      </trkpt>
      <trkpt lat="47.669582" lon="2.0950627">
        <ele>144</ele>
        <time>2022-02-24T08:07:22.000Z</time>
      </trkpt>
      <trkpt lat="47.669594" lon="2.0950582">
        <ele>144</ele>
        <time>2022-02-24T08:07:23.000Z</time>
      </trkpt>
      <trkpt lat="47.66961" lon="2.0950568">
        <ele>144</ele>
        <time>2022-02-24T08:07:24.000Z</time>
      </trkpt>
      <trkpt lat="47.66962" lon="2.095057">
        <ele>144</ele>
        <time>2022-02-24T08:07:25.000Z</time>
      </trkpt>
      <trkpt lat="47.669636" lon="2.0950606">
        <ele>144</ele>
        <time>2022-02-24T08:07:26.000Z</time>
      </trkpt>
      <trkpt lat="47.669647" lon="2.0950637">
        <ele>144</ele>
        <time>2022-02-24T08:07:27.000Z</time>
      </trkpt>
      <trkpt lat="47.66966" lon="2.0950584">
        <ele>144</ele>
        <time>2022-02-24T08:07:28.000Z</time>
      </trkpt>
      <trkpt lat="47.66967" lon="2.0950582">
        <ele>144</ele>
        <time>2022-02-24T08:07:29.000Z</time>
      </trkpt>
      <trkpt lat="47.66968" lon="2.095057">
        <ele>144</ele>
        <time>2022-02-24T08:07:30.000Z</time>
      </trkpt>
      <trkpt lat="47.669697" lon="2.095056">
        <ele>143</ele>
        <time>2022-02-24T08:07:31.000Z</time>
      </trkpt>
      <trkpt lat="47.669712" lon="2.0950556">
        <ele>143</ele>
        <time>2022-02-24T08:07:32.000Z</time>
      </trkpt>
      <trkpt lat="47.669724" lon="2.0950515">
        <ele>143</ele>
        <time>2022-02-24T08:07:33.000Z</time>
      </trkpt>
      <trkpt lat="47.66974" lon="2.0950441">
        <ele>144</ele>
        <time>2022-02-24T08:07:34.000Z</time>
      </trkpt>
      <trkpt lat="47.669758" lon="2.0950363">
        <ele>144</ele>
        <time>2022-02-24T08:07:35.000Z</time>
      </trkpt>
      <trkpt lat="47.669773" lon="2.0950334">
        <ele>143</ele>
        <time>2022-02-24T08:07:36.000Z</time>
      </trkpt>
      <trkpt lat="47.66979" lon="2.0950289">
        <ele>144</ele>
        <time>2022-02-24T08:07:37.000Z</time>
      </trkpt>
      <trkpt lat="47.669804" lon="2.0950203">
        <ele>144</ele>
        <time>2022-02-24T08:07:38.000Z</time>
      </trkpt>
      <trkpt lat="47.669815" lon="2.095014">
        <ele>144</ele>
        <time>2022-02-24T08:07:39.000Z</time>
      </trkpt>
      <trkpt lat="47.66983" lon="2.0950148">
        <ele>144</ele>
        <time>2022-02-24T08:07:40.000Z</time>
      </trkpt>
      <trkpt lat="47.66984" lon="2.0950139">
        <ele>144</ele>
        <time>2022-02-24T08:07:41.000Z</time>
      </trkpt>
      <trkpt lat="47.669857" lon="2.0950136">
        <ele>144</ele>
        <time>2022-02-24T08:07:42.000Z</time>
      </trkpt>
      <trkpt lat="47.669872" lon="2.095013">
        <ele>144</ele>
        <time>2022-02-24T08:07:43.000Z</time>
      </trkpt>
      <trkpt lat="47.669884" lon="2.0950089">
        <ele>144</ele>
        <time>2022-02-24T08:07:44.000Z</time>
      </trkpt>
      <trkpt lat="47.6699" lon="2.0950058">
        <ele>144</ele>
        <time>2022-02-24T08:07:45.000Z</time>
      </trkpt>
      <trkpt lat="47.669918" lon="2.0950015">
        <ele>145</ele>
        <time>2022-02-24T08:07:46.000Z</time>
      </trkpt>
      <trkpt lat="47.66993" lon="2.095003">
        <ele>144</ele>
        <time>2022-02-24T08:07:47.000Z</time>
      </trkpt>
      <trkpt lat="47.66993" lon="2.095003">
        <ele>144</ele>
        <time>2022-02-24T08:07:47.000Z</time>
      </trkpt>
      <trkpt lat="47.669945" lon="2.0949996">
        <ele>144</ele>
        <time>2022-02-24T08:07:49.000Z</time>
      </trkpt>
      <trkpt lat="47.669952" lon="2.0949955">
        <ele>144</ele>
        <time>2022-02-24T08:07:50.000Z</time>
      </trkpt>
      <trkpt lat="47.66997" lon="2.0949893">
        <ele>144</ele>
        <time>2022-02-24T08:07:51.000Z</time>
      </trkpt>
      <trkpt lat="47.66997" lon="2.0949893">
        <ele>144</ele>
        <time>2022-02-24T08:07:51.000Z</time>
      </trkpt>
      <trkpt lat="47.669987" lon="2.094988">
        <ele>144</ele>
        <time>2022-02-24T08:07:53.000Z</time>
      </trkpt>
      <trkpt lat="47.67" lon="2.0949829">
        <ele>143</ele>
        <time>2022-02-24T08:07:54.000Z</time>
      </trkpt>
      <trkpt lat="47.670013" lon="2.0949745">
        <ele>143</ele>
        <time>2022-02-24T08:07:55.000Z</time>
      </trkpt>
      <trkpt lat="47.670025" lon="2.0949678">
        <ele>143</ele>
        <time>2022-02-24T08:07:56.000Z</time>
      </trkpt>
      <trkpt lat="47.67005" lon="2.0949512">
        <ele>143</ele>
        <time>2022-02-24T08:07:57.000Z</time>
      </trkpt>
      <trkpt lat="47.67005" lon="2.0949512">
        <ele>143</ele>
        <time>2022-02-24T08:07:57.000Z</time>
      </trkpt>
      <trkpt lat="47.670082" lon="2.0949364">
        <ele>144</ele>
        <time>2022-02-24T08:07:59.000Z</time>
      </trkpt>
      <trkpt lat="47.670097" lon="2.0949285">
        <ele>144</ele>
        <time>2022-02-24T08:08:00.000Z</time>
      </trkpt>
      <trkpt lat="47.670097" lon="2.0949285">
        <ele>144</ele>
        <time>2022-02-24T08:08:00.000Z</time>
      </trkpt>
      <trkpt lat="47.670124" lon="2.094921">
        <ele>144</ele>
        <time>2022-02-24T08:08:02.000Z</time>
      </trkpt>
      <trkpt lat="47.670124" lon="2.094921">
        <ele>144</ele>
        <time>2022-02-24T08:08:02.000Z</time>
      </trkpt>
      <trkpt lat="47.670147" lon="2.094898">
        <ele>145</ele>
        <time>2022-02-24T08:08:04.000Z</time>
      </trkpt>
      <trkpt lat="47.67016" lon="2.0948892">
        <ele>144</ele>
        <time>2022-02-24T08:08:05.000Z</time>
      </trkpt>
      <trkpt lat="47.67017" lon="2.094885">
        <ele>144</ele>
        <time>2022-02-24T08:08:06.000Z</time>
      </trkpt>
      <trkpt lat="47.670185" lon="2.0948792">
        <ele>144</ele>
        <time>2022-02-24T08:08:07.000Z</time>
      </trkpt>
      <trkpt lat="47.6702" lon="2.0948749">
        <ele>144</ele>
        <time>2022-02-24T08:08:08.000Z</time>
      </trkpt>
      <trkpt lat="47.6702" lon="2.0948749">
        <ele>144</ele>
        <time>2022-02-24T08:08:08.000Z</time>
      </trkpt>
      <trkpt lat="47.670227" lon="2.0948687">
        <ele>144</ele>
        <time>2022-02-24T08:08:10.000Z</time>
      </trkpt>
      <trkpt lat="47.670227" lon="2.0948687">
        <ele>144</ele>
        <time>2022-02-24T08:08:10.000Z</time>
      </trkpt>
      <trkpt lat="47.670242" lon="2.0948606">
        <ele>144</ele>
        <time>2022-02-24T08:08:12.000Z</time>
      </trkpt>
      <trkpt lat="47.670254" lon="2.0948527">
        <ele>144</ele>
        <time>2022-02-24T08:08:13.000Z</time>
      </trkpt>
      <trkpt lat="47.670265" lon="2.0948417">
        <ele>145</ele>
        <time>2022-02-24T08:08:14.000Z</time>
      </trkpt>
      <trkpt lat="47.670288" lon="2.0948286">
        <ele>145</ele>
        <time>2022-02-24T08:08:15.000Z</time>
      </trkpt>
      <trkpt lat="47.6703" lon="2.0948255">
        <ele>145</ele>
        <time>2022-02-24T08:08:16.000Z</time>
      </trkpt>
      <trkpt lat="47.6703" lon="2.0948255">
        <ele>145</ele>
        <time>2022-02-24T08:08:16.000Z</time>
      </trkpt>
      <trkpt lat="47.6703" lon="2.0948255">
        <ele>145</ele>
        <time>2022-02-24T08:08:18.000Z</time>
      </trkpt>
      <trkpt lat="47.67033" lon="2.0948002">
        <ele>145</ele>
        <time>2022-02-24T08:08:19.000Z</time>
      </trkpt>
      <trkpt lat="47.670338" lon="2.0947928">
        <ele>144</ele>
        <time>2022-02-24T08:08:20.000Z</time>
      </trkpt>
      <trkpt lat="47.67035" lon="2.094784">
        <ele>144</ele>
        <time>2022-02-24T08:08:21.000Z</time>
      </trkpt>
      <trkpt lat="47.67035" lon="2.094784">
        <ele>144</ele>
        <time>2022-02-24T08:08:21.000Z</time>
      </trkpt>
      <trkpt lat="47.670372" lon="2.094768">
        <ele>144</ele>
        <time>2022-02-24T08:08:23.000Z</time>
      </trkpt>
      <trkpt lat="47.670383" lon="2.0947616">
        <ele>144</ele>
        <time>2022-02-24T08:08:24.000Z</time>
      </trkpt>
      <trkpt lat="47.670395" lon="2.0947578">
        <ele>143</ele>
        <time>2022-02-24T08:08:25.000Z</time>
      </trkpt>
      <trkpt lat="47.670406" lon="2.0947506">
        <ele>143</ele>
        <time>2022-02-24T08:08:26.000Z</time>
      </trkpt>
      <trkpt lat="47.67042" lon="2.0947416">
        <ele>143</ele>
        <time>2022-02-24T08:08:27.000Z</time>
      </trkpt>
      <trkpt lat="47.670437" lon="2.0947313">
        <ele>143</ele>
        <time>2022-02-24T08:08:28.000Z</time>
      </trkpt>
      <trkpt lat="47.67045" lon="2.0947256">
        <ele>143</ele>
        <time>2022-02-24T08:08:29.000Z</time>
      </trkpt>
      <trkpt lat="47.67046" lon="2.094718">
        <ele>143</ele>
        <time>2022-02-24T08:08:30.000Z</time>
      </trkpt>
      <trkpt lat="47.67047" lon="2.0947084">
        <ele>143</ele>
        <time>2022-02-24T08:08:31.000Z</time>
      </trkpt>
      <trkpt lat="47.67048" lon="2.0947046">
        <ele>143</ele>
        <time>2022-02-24T08:08:32.000Z</time>
      </trkpt>
      <trkpt lat="47.67049" lon="2.0946994">
        <ele>143</ele>
        <time>2022-02-24T08:08:33.000Z</time>
      </trkpt>
      <trkpt lat="47.670498" lon="2.0946937">
        <ele>143</ele>
        <time>2022-02-24T08:08:34.000Z</time>
      </trkpt>
      <trkpt lat="47.670498" lon="2.0946937">
        <ele>143</ele>
        <time>2022-02-24T08:08:35.000Z</time>
      </trkpt>
      <trkpt lat="47.670498" lon="2.0946937">
        <ele>143</ele>
        <time>2022-02-24T08:08:36.000Z</time>
      </trkpt>
      <trkpt lat="47.670498" lon="2.0946937">
        <ele>143</ele>
        <time>2022-02-24T08:08:36.000Z</time>
      </trkpt>
      <trkpt lat="47.670536" lon="2.0946717">
        <ele>142</ele>
        <time>2022-02-24T08:08:38.000Z</time>
      </trkpt>
      <trkpt lat="47.670547" lon="2.0946686">
        <ele>142</ele>
        <time>2022-02-24T08:08:39.000Z</time>
      </trkpt>
      <trkpt lat="47.670563" lon="2.094668">
        <ele>142</ele>
        <time>2022-02-24T08:08:40.000Z</time>
      </trkpt>
      <trkpt lat="47.670578" lon="2.094664">
        <ele>142</ele>
        <time>2022-02-24T08:08:41.000Z</time>
      </trkpt>
      <trkpt lat="47.670593" lon="2.0946593">
        <ele>142</ele>
        <time>2022-02-24T08:08:42.000Z</time>
      </trkpt>
      <trkpt lat="47.670612" lon="2.0946548">
        <ele>143</ele>
        <time>2022-02-24T08:08:43.000Z</time>
      </trkpt>
      <trkpt lat="47.670628" lon="2.094648">
        <ele>142</ele>
        <time>2022-02-24T08:08:44.000Z</time>
      </trkpt>
      <trkpt lat="47.67064" lon="2.094641">
        <ele>142</ele>
        <time>2022-02-24T08:08:45.000Z</time>
      </trkpt>
      <trkpt lat="47.67065" lon="2.094635">
        <ele>142</ele>
        <time>2022-02-24T08:08:46.000Z</time>
      </trkpt>
      <trkpt lat="47.670662" lon="2.0946271">
        <ele>142</ele>
        <time>2022-02-24T08:08:47.000Z</time>
      </trkpt>
      <trkpt lat="47.670673" lon="2.0946164">
        <ele>142</ele>
        <time>2022-02-24T08:08:48.000Z</time>
      </trkpt>
      <trkpt lat="47.670685" lon="2.0946074">
        <ele>143</ele>
        <time>2022-02-24T08:08:49.000Z</time>
      </trkpt>
      <trkpt lat="47.6707" lon="2.0945935">
        <ele>143</ele>
        <time>2022-02-24T08:08:50.000Z</time>
      </trkpt>
      <trkpt lat="47.67071" lon="2.094589">
        <ele>143</ele>
        <time>2022-02-24T08:08:51.000Z</time>
      </trkpt>
      <trkpt lat="47.67071" lon="2.094589">
        <ele>143</ele>
        <time>2022-02-24T08:08:51.000Z</time>
      </trkpt>
      <trkpt lat="47.670734" lon="2.094583">
        <ele>143</ele>
        <time>2022-02-24T08:08:53.000Z</time>
      </trkpt>
      <trkpt lat="47.67075" lon="2.0945754">
        <ele>143</ele>
        <time>2022-02-24T08:08:54.000Z</time>
      </trkpt>
      <trkpt lat="47.67076" lon="2.0945635">
        <ele>143</ele>
        <time>2022-02-24T08:08:55.000Z</time>
      </trkpt>
      <trkpt lat="47.670773" lon="2.0945551">
        <ele>143</ele>
        <time>2022-02-24T08:08:56.000Z</time>
      </trkpt>
      <trkpt lat="47.670784" lon="2.094547">
        <ele>143</ele>
        <time>2022-02-24T08:08:57.000Z</time>
      </trkpt>
      <trkpt lat="47.670795" lon="2.0945346">
        <ele>143</ele>
        <time>2022-02-24T08:08:58.000Z</time>
      </trkpt>
      <trkpt lat="47.670807" lon="2.0945263">
        <ele>143</ele>
        <time>2022-02-24T08:08:59.000Z</time>
      </trkpt>
      <trkpt lat="47.670815" lon="2.0945215">
        <ele>143</ele>
        <time>2022-02-24T08:09:00.000Z</time>
      </trkpt>
      <trkpt lat="47.67083" lon="2.094521">
        <ele>143</ele>
        <time>2022-02-24T08:09:01.000Z</time>
      </trkpt>
      <trkpt lat="47.67084" lon="2.0945163">
        <ele>143</ele>
        <time>2022-02-24T08:09:02.000Z</time>
      </trkpt>
      <trkpt lat="47.670853" lon="2.0945125">
        <ele>143</ele>
        <time>2022-02-24T08:09:03.000Z</time>
      </trkpt>
      <trkpt lat="47.670868" lon="2.0945058">
        <ele>143</ele>
        <time>2022-02-24T08:09:04.000Z</time>
      </trkpt>
      <trkpt lat="47.67088" lon="2.0944965">
        <ele>143</ele>
        <time>2022-02-24T08:09:05.000Z</time>
      </trkpt>
      <trkpt lat="47.670895" lon="2.0944886">
        <ele>143</ele>
        <time>2022-02-24T08:09:06.000Z</time>
      </trkpt>
      <trkpt lat="47.67091" lon="2.0944877">
        <ele>143</ele>
        <time>2022-02-24T08:09:07.000Z</time>
      </trkpt>
      <trkpt lat="47.670925" lon="2.094486">
        <ele>143</ele>
        <time>2022-02-24T08:09:08.000Z</time>
      </trkpt>
      <trkpt lat="47.67094" lon="2.094479">
        <ele>143</ele>
        <time>2022-02-24T08:09:09.000Z</time>
      </trkpt>
      <trkpt lat="47.67096" lon="2.0944774">
        <ele>143</ele>
        <time>2022-02-24T08:09:10.000Z</time>
      </trkpt>
      <trkpt lat="47.670975" lon="2.0944734">
        <ele>144</ele>
        <time>2022-02-24T08:09:11.000Z</time>
      </trkpt>
      <trkpt lat="47.67099" lon="2.0944712">
        <ele>144</ele>
        <time>2022-02-24T08:09:12.000Z</time>
      </trkpt>
      <trkpt lat="47.67103" lon="2.094462">
        <ele>145</ele>
        <time>2022-02-24T08:09:14.000Z</time>
      </trkpt>
      <trkpt lat="47.67105" lon="2.0944457">
        <ele>145</ele>
        <time>2022-02-24T08:09:16.000Z</time>
      </trkpt>
      <trkpt lat="47.67107" lon="2.0944366">
        <ele>145</ele>
        <time>2022-02-24T08:09:17.000Z</time>
      </trkpt>
      <trkpt lat="47.67108" lon="2.0944326">
        <ele>146</ele>
        <time>2022-02-24T08:09:18.000Z</time>
      </trkpt>
      <trkpt lat="47.671093" lon="2.0944273">
        <ele>146</ele>
        <time>2022-02-24T08:09:19.000Z</time>
      </trkpt>
      <trkpt lat="47.67111" lon="2.094421">
        <ele>146</ele>
        <time>2022-02-24T08:09:20.000Z</time>
      </trkpt>
      <trkpt lat="47.671116" lon="2.094416">
        <ele>146</ele>
        <time>2022-02-24T08:09:21.000Z</time>
      </trkpt>
      <trkpt lat="47.671127" lon="2.094412">
        <ele>146</ele>
        <time>2022-02-24T08:09:22.000Z</time>
      </trkpt>
      <trkpt lat="47.67114" lon="2.0944126">
        <ele>146</ele>
        <time>2022-02-24T08:09:23.000Z</time>
      </trkpt>
      <trkpt lat="47.67115" lon="2.094406">
        <ele>145</ele>
        <time>2022-02-24T08:09:24.000Z</time>
      </trkpt>
      <trkpt lat="47.67116" lon="2.094401">
        <ele>145</ele>
        <time>2022-02-24T08:09:25.000Z</time>
      </trkpt>
      <trkpt lat="47.671173" lon="2.0943978">
        <ele>145</ele>
        <time>2022-02-24T08:09:26.000Z</time>
      </trkpt>
      <trkpt lat="47.67118" lon="2.0943916">
        <ele>145</ele>
        <time>2022-02-24T08:09:27.000Z</time>
      </trkpt>
      <trkpt lat="47.67118" lon="2.0943916">
        <ele>145</ele>
        <time>2022-02-24T08:09:28.000Z</time>
      </trkpt>
      <trkpt lat="47.6712" lon="2.0943868">
        <ele>146</ele>
        <time>2022-02-24T08:09:29.000Z</time>
      </trkpt>
      <trkpt lat="47.67121" lon="2.094382">
        <ele>146</ele>
        <time>2022-02-24T08:09:30.000Z</time>
      </trkpt>
      <trkpt lat="47.671223" lon="2.0943768">
        <ele>146</ele>
        <time>2022-02-24T08:09:31.000Z</time>
      </trkpt>
      <trkpt lat="47.671234" lon="2.0943754">
        <ele>146</ele>
        <time>2022-02-24T08:09:32.000Z</time>
      </trkpt>
      <trkpt lat="47.671246" lon="2.0943706">
        <ele>146</ele>
        <time>2022-02-24T08:09:33.000Z</time>
      </trkpt>
      <trkpt lat="47.671253" lon="2.0943637">
        <ele>147</ele>
        <time>2022-02-24T08:09:34.000Z</time>
      </trkpt>
      <trkpt lat="47.671257" lon="2.0943563">
        <ele>147</ele>
        <time>2022-02-24T08:09:35.000Z</time>
      </trkpt>
      <trkpt lat="47.671257" lon="2.0943563">
        <ele>147</ele>
        <time>2022-02-24T08:09:36.000Z</time>
      </trkpt>
      <trkpt lat="47.671276" lon="2.0943456">
        <ele>147</ele>
        <time>2022-02-24T08:09:37.000Z</time>
      </trkpt>
      <trkpt lat="47.671288" lon="2.0943398">
        <ele>147</ele>
        <time>2022-02-24T08:09:38.000Z</time>
      </trkpt>
      <trkpt lat="47.6713" lon="2.0943344">
        <ele>147</ele>
        <time>2022-02-24T08:09:39.000Z</time>
      </trkpt>
      <trkpt lat="47.67131" lon="2.094328">
        <ele>147</ele>
        <time>2022-02-24T08:09:40.000Z</time>
      </trkpt>
      <trkpt lat="47.671314" lon="2.0943167">
        <ele>147</ele>
        <time>2022-02-24T08:09:41.000Z</time>
      </trkpt>
      <trkpt lat="47.67132" lon="2.0943103">
        <ele>147</ele>
        <time>2022-02-24T08:09:42.000Z</time>
      </trkpt>
      <trkpt lat="47.671333" lon="2.0943012">
        <ele>147</ele>
        <time>2022-02-24T08:09:43.000Z</time>
      </trkpt>
      <trkpt lat="47.671345" lon="2.0942893">
        <ele>147</ele>
        <time>2022-02-24T08:09:44.000Z</time>
      </trkpt>
      <trkpt lat="47.671352" lon="2.0942793">
        <ele>147</ele>
        <time>2022-02-24T08:09:45.000Z</time>
      </trkpt>
      <trkpt lat="47.671364" lon="2.0942748">
        <ele>148</ele>
        <time>2022-02-24T08:09:46.000Z</time>
      </trkpt>
      <trkpt lat="47.671364" lon="2.0942748">
        <ele>148</ele>
        <time>2022-02-24T08:09:47.000Z</time>
      </trkpt>
      <trkpt lat="47.671364" lon="2.0942748">
        <ele>148</ele>
        <time>2022-02-24T08:09:48.000Z</time>
      </trkpt>
      <trkpt lat="47.67139" lon="2.0942569">
        <ele>148</ele>
        <time>2022-02-24T08:09:49.000Z</time>
      </trkpt>
      <trkpt lat="47.671402" lon="2.0942514">
        <ele>148</ele>
        <time>2022-02-24T08:09:50.000Z</time>
      </trkpt>
      <trkpt lat="47.671406" lon="2.094251">
        <ele>148</ele>
        <time>2022-02-24T08:09:51.000Z</time>
      </trkpt>
      <trkpt lat="47.671413" lon="2.0942483">
        <ele>148</ele>
        <time>2022-02-24T08:09:52.000Z</time>
      </trkpt>
      <trkpt lat="47.671417" lon="2.0942411">
        <ele>147</ele>
        <time>2022-02-24T08:09:53.000Z</time>
      </trkpt>
      <trkpt lat="47.67142" lon="2.0942338">
        <ele>147</ele>
        <time>2022-02-24T08:09:54.000Z</time>
      </trkpt>
      <trkpt lat="47.671432" lon="2.0942264">
        <ele>147</ele>
        <time>2022-02-24T08:09:55.000Z</time>
      </trkpt>
      <trkpt lat="47.671444" lon="2.09422">
        <ele>147</ele>
        <time>2022-02-24T08:09:56.000Z</time>
      </trkpt>
      <trkpt lat="47.67146" lon="2.0942147">
        <ele>147</ele>
        <time>2022-02-24T08:09:57.000Z</time>
      </trkpt>
      <trkpt lat="47.67147" lon="2.094206">
        <ele>147</ele>
        <time>2022-02-24T08:09:58.000Z</time>
      </trkpt>
      <trkpt lat="47.671486" lon="2.0941982">
        <ele>147</ele>
        <time>2022-02-24T08:09:59.000Z</time>
      </trkpt>
      <trkpt lat="47.671497" lon="2.0941927">
        <ele>146</ele>
        <time>2022-02-24T08:10:00.000Z</time>
      </trkpt>
      <trkpt lat="47.67151" lon="2.0941846">
        <ele>147</ele>
        <time>2022-02-24T08:10:01.000Z</time>
      </trkpt>
      <trkpt lat="47.671528" lon="2.0941834">
        <ele>147</ele>
        <time>2022-02-24T08:10:02.000Z</time>
      </trkpt>
      <trkpt lat="47.671543" lon="2.094182">
        <ele>147</ele>
        <time>2022-02-24T08:10:03.000Z</time>
      </trkpt>
      <trkpt lat="47.67156" lon="2.0941784">
        <ele>146</ele>
        <time>2022-02-24T08:10:04.000Z</time>
      </trkpt>
      <trkpt lat="47.671574" lon="2.094169">
        <ele>147</ele>
        <time>2022-02-24T08:10:05.000Z</time>
      </trkpt>
      <trkpt lat="47.67159" lon="2.0941586">
        <ele>147</ele>
        <time>2022-02-24T08:10:06.000Z</time>
      </trkpt>
      <trkpt lat="47.6716" lon="2.0941515">
        <ele>147</ele>
        <time>2022-02-24T08:10:07.000Z</time>
      </trkpt>
      <trkpt lat="47.671616" lon="2.0941453">
        <ele>147</ele>
        <time>2022-02-24T08:10:08.000Z</time>
      </trkpt>
      <trkpt lat="47.671627" lon="2.0941415">
        <ele>147</ele>
        <time>2022-02-24T08:10:09.000Z</time>
      </trkpt>
      <trkpt lat="47.67164" lon="2.0941432">
        <ele>148</ele>
        <time>2022-02-24T08:10:10.000Z</time>
      </trkpt>
      <trkpt lat="47.671654" lon="2.0941355">
        <ele>148</ele>
        <time>2022-02-24T08:10:11.000Z</time>
      </trkpt>
      <trkpt lat="47.671665" lon="2.0941253">
        <ele>148</ele>
        <time>2022-02-24T08:10:12.000Z</time>
      </trkpt>
      <trkpt lat="47.67168" lon="2.0941174">
        <ele>148</ele>
        <time>2022-02-24T08:10:13.000Z</time>
      </trkpt>
      <trkpt lat="47.671696" lon="2.0941133">
        <ele>148</ele>
        <time>2022-02-24T08:10:14.000Z</time>
      </trkpt>
      <trkpt lat="47.671707" lon="2.0941062">
        <ele>148</ele>
        <time>2022-02-24T08:10:15.000Z</time>
      </trkpt>
      <trkpt lat="47.67172" lon="2.0940974">
        <ele>148</ele>
        <time>2022-02-24T08:10:16.000Z</time>
      </trkpt>
      <trkpt lat="47.671738" lon="2.0940924">
        <ele>148</ele>
        <time>2022-02-24T08:10:17.000Z</time>
      </trkpt>
      <trkpt lat="47.671753" lon="2.0940855">
        <ele>148</ele>
        <time>2022-02-24T08:10:18.000Z</time>
      </trkpt>
      <trkpt lat="47.671772" lon="2.0940795">
        <ele>149</ele>
        <time>2022-02-24T08:10:19.000Z</time>
      </trkpt>
      <trkpt lat="47.671783" lon="2.0940711">
        <ele>149</ele>
        <time>2022-02-24T08:10:20.000Z</time>
      </trkpt>
      <trkpt lat="47.671795" lon="2.0940666">
        <ele>149</ele>
        <time>2022-02-24T08:10:21.000Z</time>
      </trkpt>
      <trkpt lat="47.671806" lon="2.0940635">
        <ele>148</ele>
        <time>2022-02-24T08:10:22.000Z</time>
      </trkpt>
      <trkpt lat="47.67182" lon="2.0940619">
        <ele>148</ele>
        <time>2022-02-24T08:10:23.000Z</time>
      </trkpt>
      <trkpt lat="47.671837" lon="2.0940578">
        <ele>148</ele>
        <time>2022-02-24T08:10:24.000Z</time>
      </trkpt>
      <trkpt lat="47.67185" lon="2.0940514">
        <ele>148</ele>
        <time>2022-02-24T08:10:25.000Z</time>
      </trkpt>
      <trkpt lat="47.671864" lon="2.0940475">
        <ele>148</ele>
        <time>2022-02-24T08:10:26.000Z</time>
      </trkpt>
      <trkpt lat="47.67188" lon="2.094045">
        <ele>147</ele>
        <time>2022-02-24T08:10:27.000Z</time>
      </trkpt>
      <trkpt lat="47.671894" lon="2.0940387">
        <ele>147</ele>
        <time>2022-02-24T08:10:28.000Z</time>
      </trkpt>
      <trkpt lat="47.671906" lon="2.0940342">
        <ele>147</ele>
        <time>2022-02-24T08:10:29.000Z</time>
      </trkpt>
      <trkpt lat="47.671917" lon="2.0940285">
        <ele>147</ele>
        <time>2022-02-24T08:10:30.000Z</time>
      </trkpt>
      <trkpt lat="47.67193" lon="2.0940208">
        <ele>148</ele>
        <time>2022-02-24T08:10:31.000Z</time>
      </trkpt>
      <trkpt lat="47.671936" lon="2.0940146">
        <ele>148</ele>
        <time>2022-02-24T08:10:32.000Z</time>
      </trkpt>
      <trkpt lat="47.671944" lon="2.094013">
        <ele>147</ele>
        <time>2022-02-24T08:10:33.000Z</time>
      </trkpt>
      <trkpt lat="47.671944" lon="2.094013">
        <ele>147</ele>
        <time>2022-02-24T08:10:34.000Z</time>
      </trkpt>
      <trkpt lat="47.671944" lon="2.094013">
        <ele>147</ele>
        <time>2022-02-24T08:10:35.000Z</time>
      </trkpt>
      <trkpt lat="47.671955" lon="2.0939918">
        <ele>147</ele>
        <time>2022-02-24T08:10:36.000Z</time>
      </trkpt>
      <trkpt lat="47.671963" lon="2.093987">
        <ele>147</ele>
        <time>2022-02-24T08:10:37.000Z</time>
      </trkpt>
      <trkpt lat="47.67197" lon="2.093981">
        <ele>147</ele>
        <time>2022-02-24T08:10:38.000Z</time>
      </trkpt>
      <trkpt lat="47.67198" lon="2.09398">
        <ele>146</ele>
        <time>2022-02-24T08:10:39.000Z</time>
      </trkpt>
      <trkpt lat="47.67198" lon="2.09398">
        <ele>146</ele>
        <time>2022-02-24T08:10:40.000Z</time>
      </trkpt>
      <trkpt lat="47.67198" lon="2.09398">
        <ele>146</ele>
        <time>2022-02-24T08:10:41.000Z</time>
      </trkpt>
      <trkpt lat="47.672012" lon="2.0939672">
        <ele>145</ele>
        <time>2022-02-24T08:10:42.000Z</time>
      </trkpt>
      <trkpt lat="47.672024" lon="2.0939636">
        <ele>145</ele>
        <time>2022-02-24T08:10:43.000Z</time>
      </trkpt>
      <trkpt lat="47.67204" lon="2.093953">
        <ele>145</ele>
        <time>2022-02-24T08:10:44.000Z</time>
      </trkpt>
      <trkpt lat="47.67205" lon="2.0939417">
        <ele>145</ele>
        <time>2022-02-24T08:10:45.000Z</time>
      </trkpt>
      <trkpt lat="47.672062" lon="2.0939298">
        <ele>146</ele>
        <time>2022-02-24T08:10:46.000Z</time>
      </trkpt>
      <trkpt lat="47.672077" lon="2.0939164">
        <ele>146</ele>
        <time>2022-02-24T08:10:47.000Z</time>
      </trkpt>
      <trkpt lat="47.67209" lon="2.0939043">
        <ele>146</ele>
        <time>2022-02-24T08:10:48.000Z</time>
      </trkpt>
      <trkpt lat="47.6721" lon="2.0938916">
        <ele>146</ele>
        <time>2022-02-24T08:10:49.000Z</time>
      </trkpt>
      <trkpt lat="47.672115" lon="2.093881">
        <ele>145</ele>
        <time>2022-02-24T08:10:50.000Z</time>
      </trkpt>
      <trkpt lat="47.672127" lon="2.093866">
        <ele>145</ele>
        <time>2022-02-24T08:10:51.000Z</time>
      </trkpt>
      <trkpt lat="47.672142" lon="2.0938513">
        <ele>146</ele>
        <time>2022-02-24T08:10:52.000Z</time>
      </trkpt>
      <trkpt lat="47.672153" lon="2.093837">
        <ele>147</ele>
        <time>2022-02-24T08:10:53.000Z</time>
      </trkpt>
      <trkpt lat="47.67217" lon="2.0938265">
        <ele>147</ele>
        <time>2022-02-24T08:10:54.000Z</time>
      </trkpt>
      <trkpt lat="47.67218" lon="2.0938208">
        <ele>148</ele>
        <time>2022-02-24T08:10:55.000Z</time>
      </trkpt>
      <trkpt lat="47.6722" lon="2.0938156">
        <ele>148</ele>
        <time>2022-02-24T08:10:56.000Z</time>
      </trkpt>
      <trkpt lat="47.67221" lon="2.093807">
        <ele>148</ele>
        <time>2022-02-24T08:10:57.000Z</time>
      </trkpt>
      <trkpt lat="47.672226" lon="2.0937967">
        <ele>148</ele>
        <time>2022-02-24T08:10:58.000Z</time>
      </trkpt>
      <trkpt lat="47.672245" lon="2.0937922">
        <ele>148</ele>
        <time>2022-02-24T08:10:59.000Z</time>
      </trkpt>
      <trkpt lat="47.67226" lon="2.0937881">
        <ele>148</ele>
        <time>2022-02-24T08:11:00.000Z</time>
      </trkpt>
      <trkpt lat="47.67228" lon="2.0937862">
        <ele>148</ele>
        <time>2022-02-24T08:11:01.000Z</time>
      </trkpt>
      <trkpt lat="47.672295" lon="2.093781">
        <ele>149</ele>
        <time>2022-02-24T08:11:02.000Z</time>
      </trkpt>
      <trkpt lat="47.672306" lon="2.093768">
        <ele>149</ele>
        <time>2022-02-24T08:11:03.000Z</time>
      </trkpt>
      <trkpt lat="47.672318" lon="2.0937588">
        <ele>150</ele>
        <time>2022-02-24T08:11:04.000Z</time>
      </trkpt>
      <trkpt lat="47.67233" lon="2.09375">
        <ele>150</ele>
        <time>2022-02-24T08:11:05.000Z</time>
      </trkpt>
      <trkpt lat="47.67234" lon="2.0937428">
        <ele>150</ele>
        <time>2022-02-24T08:11:06.000Z</time>
      </trkpt>
      <trkpt lat="47.672348" lon="2.0937366">
        <ele>150</ele>
        <time>2022-02-24T08:11:07.000Z</time>
      </trkpt>
      <trkpt lat="47.67236" lon="2.093729">
        <ele>149</ele>
        <time>2022-02-24T08:11:08.000Z</time>
      </trkpt>
      <trkpt lat="47.672367" lon="2.0937235">
        <ele>149</ele>
        <time>2022-02-24T08:11:09.000Z</time>
      </trkpt>
      <trkpt lat="47.672382" lon="2.093718">
        <ele>149</ele>
        <time>2022-02-24T08:11:10.000Z</time>
      </trkpt>
      <trkpt lat="47.672394" lon="2.0937114">
        <ele>150</ele>
        <time>2022-02-24T08:11:11.000Z</time>
      </trkpt>
      <trkpt lat="47.672405" lon="2.0937097">
        <ele>150</ele>
        <time>2022-02-24T08:11:12.000Z</time>
      </trkpt>
      <trkpt lat="47.672417" lon="2.0937068">
        <ele>150</ele>
        <time>2022-02-24T08:11:13.000Z</time>
      </trkpt>
      <trkpt lat="47.672432" lon="2.0937023">
        <ele>150</ele>
        <time>2022-02-24T08:11:14.000Z</time>
      </trkpt>
      <trkpt lat="47.672443" lon="2.0936968">
        <ele>150</ele>
        <time>2022-02-24T08:11:15.000Z</time>
      </trkpt>
      <trkpt lat="47.67246" lon="2.0936894">
        <ele>150</ele>
        <time>2022-02-24T08:11:16.000Z</time>
      </trkpt>
      <trkpt lat="47.67247" lon="2.0936837">
        <ele>150</ele>
        <time>2022-02-24T08:11:17.000Z</time>
      </trkpt>
      <trkpt lat="47.67249" lon="2.0936794">
        <ele>150</ele>
        <time>2022-02-24T08:11:18.000Z</time>
      </trkpt>
      <trkpt lat="47.67251" lon="2.0936725">
        <ele>150</ele>
        <time>2022-02-24T08:11:19.000Z</time>
      </trkpt>
      <trkpt lat="47.672523" lon="2.0936623">
        <ele>150</ele>
        <time>2022-02-24T08:11:20.000Z</time>
      </trkpt>
      <trkpt lat="47.67253" lon="2.0936546">
        <ele>150</ele>
        <time>2022-02-24T08:11:21.000Z</time>
      </trkpt>
      <trkpt lat="47.672546" lon="2.093654">
        <ele>150</ele>
        <time>2022-02-24T08:11:22.000Z</time>
      </trkpt>
      <trkpt lat="47.672546" lon="2.093654">
        <ele>150</ele>
        <time>2022-02-24T08:11:23.000Z</time>
      </trkpt>
      <trkpt lat="47.672546" lon="2.093654">
        <ele>150</ele>
        <time>2022-02-24T08:11:24.000Z</time>
      </trkpt>
      <trkpt lat="47.672585" lon="2.0936449">
        <ele>153</ele>
        <time>2022-02-24T08:11:25.000Z</time>
      </trkpt>
      <trkpt lat="47.6726" lon="2.093642">
        <ele>153</ele>
        <time>2022-02-24T08:11:26.000Z</time>
      </trkpt>
      <trkpt lat="47.67262" lon="2.0936408">
        <ele>154</ele>
        <time>2022-02-24T08:11:27.000Z</time>
      </trkpt>
      <trkpt lat="47.672634" lon="2.093635">
        <ele>155</ele>
        <time>2022-02-24T08:11:28.000Z</time>
      </trkpt>
      <trkpt lat="47.672646" lon="2.093628">
        <ele>156</ele>
        <time>2022-02-24T08:11:29.000Z</time>
      </trkpt>
      <trkpt lat="47.672646" lon="2.093628">
        <ele>156</ele>
        <time>2022-02-24T08:11:30.000Z</time>
      </trkpt>
      <trkpt lat="47.672646" lon="2.093628">
        <ele>156</ele>
        <time>2022-02-24T08:11:31.000Z</time>
      </trkpt>
      <trkpt lat="47.672676" lon="2.0936005">
        <ele>156</ele>
        <time>2022-02-24T08:11:32.000Z</time>
      </trkpt>
      <trkpt lat="47.672684" lon="2.09359">
        <ele>156</ele>
        <time>2022-02-24T08:11:33.000Z</time>
      </trkpt>
      <trkpt lat="47.672695" lon="2.0935817">
        <ele>156</ele>
        <time>2022-02-24T08:11:34.000Z</time>
      </trkpt>
      <trkpt lat="47.67271" lon="2.0935733">
        <ele>156</ele>
        <time>2022-02-24T08:11:35.000Z</time>
      </trkpt>
      <trkpt lat="47.67272" lon="2.093575">
        <ele>157</ele>
        <time>2022-02-24T08:11:36.000Z</time>
      </trkpt>
      <trkpt lat="47.672737" lon="2.0935755">
        <ele>157</ele>
        <time>2022-02-24T08:11:37.000Z</time>
      </trkpt>
      <trkpt lat="47.672752" lon="2.0935671">
        <ele>158</ele>
        <time>2022-02-24T08:11:38.000Z</time>
      </trkpt>
      <trkpt lat="47.672768" lon="2.0935607">
        <ele>158</ele>
        <time>2022-02-24T08:11:39.000Z</time>
      </trkpt>
      <trkpt lat="47.672787" lon="2.0935507">
        <ele>158</ele>
        <time>2022-02-24T08:11:40.000Z</time>
      </trkpt>
      <trkpt lat="47.672802" lon="2.0935454">
        <ele>157</ele>
        <time>2022-02-24T08:11:41.000Z</time>
      </trkpt>
      <trkpt lat="47.672817" lon="2.0935376">
        <ele>158</ele>
        <time>2022-02-24T08:11:42.000Z</time>
      </trkpt>
      <trkpt lat="47.672832" lon="2.0935314">
        <ele>157</ele>
        <time>2022-02-24T08:11:43.000Z</time>
      </trkpt>
      <trkpt lat="47.67284" lon="2.0935225">
        <ele>157</ele>
        <time>2022-02-24T08:11:44.000Z</time>
      </trkpt>
      <trkpt lat="47.67285" lon="2.0935152">
        <ele>157</ele>
        <time>2022-02-24T08:11:45.000Z</time>
      </trkpt>
      <trkpt lat="47.67286" lon="2.093505">
        <ele>157</ele>
        <time>2022-02-24T08:11:46.000Z</time>
      </trkpt>
      <trkpt lat="47.67286" lon="2.093505">
        <ele>157</ele>
        <time>2022-02-24T08:11:47.000Z</time>
      </trkpt>
      <trkpt lat="47.67286" lon="2.093505">
        <ele>157</ele>
        <time>2022-02-24T08:11:48.000Z</time>
      </trkpt>
      <trkpt lat="47.672886" lon="2.093476">
        <ele>157</ele>
        <time>2022-02-24T08:11:49.000Z</time>
      </trkpt>
      <trkpt lat="47.672897" lon="2.0934672">
        <ele>156</ele>
        <time>2022-02-24T08:11:50.000Z</time>
      </trkpt>
      <trkpt lat="47.67291" lon="2.093459">
        <ele>156</ele>
        <time>2022-02-24T08:11:51.000Z</time>
      </trkpt>
      <trkpt lat="47.672924" lon="2.093451">
        <ele>156</ele>
        <time>2022-02-24T08:11:52.000Z</time>
      </trkpt>
      <trkpt lat="47.672935" lon="2.0934453">
        <ele>156</ele>
        <time>2022-02-24T08:11:53.000Z</time>
      </trkpt>
      <trkpt lat="47.672947" lon="2.0934381">
        <ele>156</ele>
        <time>2022-02-24T08:11:54.000Z</time>
      </trkpt>
      <trkpt lat="47.672955" lon="2.0934308">
        <ele>156</ele>
        <time>2022-02-24T08:11:55.000Z</time>
      </trkpt>
      <trkpt lat="47.672962" lon="2.093424">
        <ele>156</ele>
        <time>2022-02-24T08:11:56.000Z</time>
      </trkpt>
      <trkpt lat="47.672974" lon="2.0934124">
        <ele>156</ele>
        <time>2022-02-24T08:11:57.000Z</time>
      </trkpt>
      <trkpt lat="47.672974" lon="2.0934124">
        <ele>156</ele>
        <time>2022-02-24T08:11:58.000Z</time>
      </trkpt>
      <trkpt lat="47.672997" lon="2.093386">
        <ele>155</ele>
        <time>2022-02-24T08:11:59.000Z</time>
      </trkpt>
      <trkpt lat="47.673004" lon="2.093374">
        <ele>155</ele>
        <time>2022-02-24T08:12:00.000Z</time>
      </trkpt>
      <trkpt lat="47.673016" lon="2.0933697">
        <ele>155</ele>
        <time>2022-02-24T08:12:01.000Z</time>
      </trkpt>
      <trkpt lat="47.67303" lon="2.0933602">
        <ele>155</ele>
        <time>2022-02-24T08:12:02.000Z</time>
      </trkpt>
      <trkpt lat="47.673042" lon="2.0933492">
        <ele>155</ele>
        <time>2022-02-24T08:12:03.000Z</time>
      </trkpt>
      <trkpt lat="47.673054" lon="2.0933402">
        <ele>155</ele>
        <time>2022-02-24T08:12:04.000Z</time>
      </trkpt>
      <trkpt lat="47.67307" lon="2.0933318">
        <ele>156</ele>
        <time>2022-02-24T08:12:05.000Z</time>
      </trkpt>
      <trkpt lat="47.673084" lon="2.093323">
        <ele>156</ele>
        <time>2022-02-24T08:12:06.000Z</time>
      </trkpt>
      <trkpt lat="47.673096" lon="2.0933106">
        <ele>156</ele>
        <time>2022-02-24T08:12:07.000Z</time>
      </trkpt>
      <trkpt lat="47.673107" lon="2.0933027">
        <ele>156</ele>
        <time>2022-02-24T08:12:08.000Z</time>
      </trkpt>
      <trkpt lat="47.67312" lon="2.0932937">
        <ele>156</ele>
        <time>2022-02-24T08:12:09.000Z</time>
      </trkpt>
      <trkpt lat="47.673134" lon="2.0932846">
        <ele>157</ele>
        <time>2022-02-24T08:12:10.000Z</time>
      </trkpt>
      <trkpt lat="47.673153" lon="2.093277">
        <ele>157</ele>
        <time>2022-02-24T08:12:11.000Z</time>
      </trkpt>
      <trkpt lat="47.67317" lon="2.0932693">
        <ele>158</ele>
        <time>2022-02-24T08:12:12.000Z</time>
      </trkpt>
      <trkpt lat="47.673183" lon="2.0932631">
        <ele>158</ele>
        <time>2022-02-24T08:12:13.000Z</time>
      </trkpt>
      <trkpt lat="47.6732" lon="2.093258">
        <ele>158</ele>
        <time>2022-02-24T08:12:14.000Z</time>
      </trkpt>
      <trkpt lat="47.673214" lon="2.0932496">
        <ele>158</ele>
        <time>2022-02-24T08:12:15.000Z</time>
      </trkpt>
      <trkpt lat="47.67323" lon="2.0932417">
        <ele>158</ele>
        <time>2022-02-24T08:12:16.000Z</time>
      </trkpt>
      <trkpt lat="47.67324" lon="2.0932353">
        <ele>158</ele>
        <time>2022-02-24T08:12:17.000Z</time>
      </trkpt>
      <trkpt lat="47.67325" lon="2.0932348">
        <ele>158</ele>
        <time>2022-02-24T08:12:18.000Z</time>
      </trkpt>
      <trkpt lat="47.67325" lon="2.0932348">
        <ele>158</ele>
        <time>2022-02-24T08:12:19.000Z</time>
      </trkpt>
      <trkpt lat="47.67327" lon="2.093224">
        <ele>159</ele>
        <time>2022-02-24T08:12:20.000Z</time>
      </trkpt>
      <trkpt lat="47.673283" lon="2.0932145">
        <ele>160</ele>
        <time>2022-02-24T08:12:21.000Z</time>
      </trkpt>
      <trkpt lat="47.673298" lon="2.0932066">
        <ele>160</ele>
        <time>2022-02-24T08:12:22.000Z</time>
      </trkpt>
      <trkpt lat="47.673313" lon="2.0931976">
        <ele>161</ele>
        <time>2022-02-24T08:12:23.000Z</time>
      </trkpt>
      <trkpt lat="47.67333" lon="2.0931873">
        <ele>161</ele>
        <time>2022-02-24T08:12:24.000Z</time>
      </trkpt>
      <trkpt lat="47.67334" lon="2.0931814">
        <ele>161</ele>
        <time>2022-02-24T08:12:25.000Z</time>
      </trkpt>
      <trkpt lat="47.67335" lon="2.093175">
        <ele>160</ele>
        <time>2022-02-24T08:12:26.000Z</time>
      </trkpt>
      <trkpt lat="47.673363" lon="2.0931675">
        <ele>161</ele>
        <time>2022-02-24T08:12:27.000Z</time>
      </trkpt>
      <trkpt lat="47.673378" lon="2.093156">
        <ele>161</ele>
        <time>2022-02-24T08:12:28.000Z</time>
      </trkpt>
      <trkpt lat="47.673378" lon="2.093156">
        <ele>161</ele>
        <time>2022-02-24T08:12:29.000Z</time>
      </trkpt>
      <trkpt lat="47.673378" lon="2.093156">
        <ele>161</ele>
        <time>2022-02-24T08:12:30.000Z</time>
      </trkpt>
      <trkpt lat="47.673412" lon="2.0931349">
        <ele>161</ele>
        <time>2022-02-24T08:12:31.000Z</time>
      </trkpt>
      <trkpt lat="47.673424" lon="2.0931258">
        <ele>161</ele>
        <time>2022-02-24T08:12:32.000Z</time>
      </trkpt>
      <trkpt lat="47.67344" lon="2.0931132">
        <ele>161</ele>
        <time>2022-02-24T08:12:33.000Z</time>
      </trkpt>
      <trkpt lat="47.673447" lon="2.0931096">
        <ele>162</ele>
        <time>2022-02-24T08:12:34.000Z</time>
      </trkpt>
      <trkpt lat="47.673454" lon="2.0931094">
        <ele>162</ele>
        <time>2022-02-24T08:12:35.000Z</time>
      </trkpt>
      <trkpt lat="47.673466" lon="2.093102">
        <ele>162</ele>
        <time>2022-02-24T08:12:36.000Z</time>
      </trkpt>
      <trkpt lat="47.673477" lon="2.093093">
        <ele>162</ele>
        <time>2022-02-24T08:12:37.000Z</time>
      </trkpt>
      <trkpt lat="47.67349" lon="2.093087">
        <ele>162</ele>
        <time>2022-02-24T08:12:38.000Z</time>
      </trkpt>
      <trkpt lat="47.673496" lon="2.09308">
        <ele>162</ele>
        <time>2022-02-24T08:12:39.000Z</time>
      </trkpt>
      <trkpt lat="47.673504" lon="2.0930724">
        <ele>162</ele>
        <time>2022-02-24T08:12:40.000Z</time>
      </trkpt>
      <trkpt lat="47.67351" lon="2.0930612">
        <ele>161</ele>
        <time>2022-02-24T08:12:41.000Z</time>
      </trkpt>
      <trkpt lat="47.67351" lon="2.0930612">
        <ele>161</ele>
        <time>2022-02-24T08:12:42.000Z</time>
      </trkpt>
      <trkpt lat="47.67351" lon="2.0930612">
        <ele>161</ele>
        <time>2022-02-24T08:12:43.000Z</time>
      </trkpt>
      <trkpt lat="47.67353" lon="2.0930407">
        <ele>161</ele>
        <time>2022-02-24T08:12:44.000Z</time>
      </trkpt>
      <trkpt lat="47.673542" lon="2.09303">
        <ele>161</ele>
        <time>2022-02-24T08:12:45.000Z</time>
      </trkpt>
      <trkpt lat="47.673546" lon="2.0930238">
        <ele>161</ele>
        <time>2022-02-24T08:12:46.000Z</time>
      </trkpt>
      <trkpt lat="47.673553" lon="2.0930178">
        <ele>161</ele>
        <time>2022-02-24T08:12:47.000Z</time>
      </trkpt>
      <trkpt lat="47.673553" lon="2.0930178">
        <ele>161</ele>
        <time>2022-02-24T08:12:48.000Z</time>
      </trkpt>
      <trkpt lat="47.673553" lon="2.0930178">
        <ele>161</ele>
        <time>2022-02-24T08:12:49.000Z</time>
      </trkpt>
      <trkpt lat="47.673576" lon="2.0930028">
        <ele>159</ele>
        <time>2022-02-24T08:12:50.000Z</time>
      </trkpt>
      <trkpt lat="47.673588" lon="2.0929954">
        <ele>159</ele>
        <time>2022-02-24T08:12:51.000Z</time>
      </trkpt>
      <trkpt lat="47.6736" lon="2.0929894">
        <ele>159</ele>
        <time>2022-02-24T08:12:52.000Z</time>
      </trkpt>
      <trkpt lat="47.67361" lon="2.0929801">
        <ele>159</ele>
        <time>2022-02-24T08:12:53.000Z</time>
      </trkpt>
      <trkpt lat="47.67361" lon="2.0929801">
        <ele>159</ele>
        <time>2022-02-24T08:12:54.000Z</time>
      </trkpt>
      <trkpt lat="47.67361" lon="2.0929801">
        <ele>159</ele>
        <time>2022-02-24T08:12:55.000Z</time>
      </trkpt>
      <trkpt lat="47.673634" lon="2.0929558">
        <ele>159</ele>
        <time>2022-02-24T08:12:56.000Z</time>
      </trkpt>
      <trkpt lat="47.673645" lon="2.0929482">
        <ele>159</ele>
        <time>2022-02-24T08:12:57.000Z</time>
      </trkpt>
      <trkpt lat="47.673656" lon="2.0929382">
        <ele>159</ele>
        <time>2022-02-24T08:12:58.000Z</time>
      </trkpt>
      <trkpt lat="47.673664" lon="2.0929317">
        <ele>158</ele>
        <time>2022-02-24T08:12:59.000Z</time>
      </trkpt>
      <trkpt lat="47.673676" lon="2.0929244">
        <ele>158</ele>
        <time>2022-02-24T08:13:00.000Z</time>
      </trkpt>
      <trkpt lat="47.673676" lon="2.0929244">
        <ele>158</ele>
        <time>2022-02-24T08:13:01.000Z</time>
      </trkpt>
      <trkpt lat="47.673676" lon="2.0929244">
        <ele>158</ele>
        <time>2022-02-24T08:13:02.000Z</time>
      </trkpt>
      <trkpt lat="47.6737" lon="2.0928972">
        <ele>158</ele>
        <time>2022-02-24T08:13:03.000Z</time>
      </trkpt>
      <trkpt lat="47.673706" lon="2.0928931">
        <ele>157</ele>
        <time>2022-02-24T08:13:04.000Z</time>
      </trkpt>
      <trkpt lat="47.673717" lon="2.0928857">
        <ele>158</ele>
        <time>2022-02-24T08:13:05.000Z</time>
      </trkpt>
      <trkpt lat="47.67372" lon="2.0928829">
        <ele>157</ele>
        <time>2022-02-24T08:13:06.000Z</time>
      </trkpt>
      <trkpt lat="47.67372" lon="2.0928829">
        <ele>157</ele>
        <time>2022-02-24T08:13:07.000Z</time>
      </trkpt>
      <trkpt lat="47.67372" lon="2.0928829">
        <ele>157</ele>
        <time>2022-02-24T08:13:08.000Z</time>
      </trkpt>
      <trkpt lat="47.67375" lon="2.0928586">
        <ele>158</ele>
        <time>2022-02-24T08:13:09.000Z</time>
      </trkpt>
      <trkpt lat="47.67376" lon="2.0928464">
        <ele>158</ele>
        <time>2022-02-24T08:13:10.000Z</time>
      </trkpt>
      <trkpt lat="47.67377" lon="2.0928402">
        <ele>158</ele>
        <time>2022-02-24T08:13:11.000Z</time>
      </trkpt>
      <trkpt lat="47.67378" lon="2.092832">
        <ele>158</ele>
        <time>2022-02-24T08:13:12.000Z</time>
      </trkpt>
      <trkpt lat="47.67378" lon="2.092832">
        <ele>158</ele>
        <time>2022-02-24T08:13:13.000Z</time>
      </trkpt>
      <trkpt lat="47.67378" lon="2.092832">
        <ele>158</ele>
        <time>2022-02-24T08:13:14.000Z</time>
      </trkpt>
      <trkpt lat="47.6738" lon="2.0928009">
        <ele>156</ele>
        <time>2022-02-24T08:13:15.000Z</time>
      </trkpt>
      <trkpt lat="47.673813" lon="2.0927873">
        <ele>156</ele>
        <time>2022-02-24T08:13:16.000Z</time>
      </trkpt>
      <trkpt lat="47.673824" lon="2.092778">
        <ele>156</ele>
        <time>2022-02-24T08:13:17.000Z</time>
      </trkpt>
      <trkpt lat="47.673836" lon="2.0927665">
        <ele>155</ele>
        <time>2022-02-24T08:13:18.000Z</time>
      </trkpt>
      <trkpt lat="47.673843" lon="2.0927587">
        <ele>155</ele>
        <time>2022-02-24T08:13:19.000Z</time>
      </trkpt>
      <trkpt lat="47.67385" lon="2.0927527">
        <ele>155</ele>
        <time>2022-02-24T08:13:20.000Z</time>
      </trkpt>
      <trkpt lat="47.673862" lon="2.0927432">
        <ele>154</ele>
        <time>2022-02-24T08:13:21.000Z</time>
      </trkpt>
      <trkpt lat="47.673874" lon="2.0927408">
        <ele>154</ele>
        <time>2022-02-24T08:13:22.000Z</time>
      </trkpt>
      <trkpt lat="47.67388" lon="2.0927355">
        <ele>154</ele>
        <time>2022-02-24T08:13:23.000Z</time>
      </trkpt>
      <trkpt lat="47.67388" lon="2.0927355">
        <ele>154</ele>
        <time>2022-02-24T08:13:24.000Z</time>
      </trkpt>
      <trkpt lat="47.67388" lon="2.0927355">
        <ele>154</ele>
        <time>2022-02-24T08:13:25.000Z</time>
      </trkpt>
      <trkpt lat="47.67391" lon="2.092721">
        <ele>154</ele>
        <time>2022-02-24T08:13:26.000Z</time>
      </trkpt>
      <trkpt lat="47.67392" lon="2.09271">
        <ele>154</ele>
        <time>2022-02-24T08:13:27.000Z</time>
      </trkpt>
      <trkpt lat="47.67393" lon="2.0926983">
        <ele>154</ele>
        <time>2022-02-24T08:13:28.000Z</time>
      </trkpt>
      <trkpt lat="47.67394" lon="2.0926902">
        <ele>154</ele>
        <time>2022-02-24T08:13:29.000Z</time>
      </trkpt>
      <trkpt lat="47.67394" lon="2.0926902">
        <ele>154</ele>
        <time>2022-02-24T08:13:30.000Z</time>
      </trkpt>
      <trkpt lat="47.67394" lon="2.0926902">
        <ele>154</ele>
        <time>2022-02-24T08:13:31.000Z</time>
      </trkpt>
      <trkpt lat="47.67396" lon="2.0926793">
        <ele>153</ele>
        <time>2022-02-24T08:13:32.000Z</time>
      </trkpt>
      <trkpt lat="47.67397" lon="2.0926764">
        <ele>153</ele>
        <time>2022-02-24T08:13:33.000Z</time>
      </trkpt>
      <trkpt lat="47.67398" lon="2.0926778">
        <ele>152</ele>
        <time>2022-02-24T08:13:34.000Z</time>
      </trkpt>
      <trkpt lat="47.673992" lon="2.092681">
        <ele>152</ele>
        <time>2022-02-24T08:13:35.000Z</time>
      </trkpt>
      <trkpt lat="47.674" lon="2.092674">
        <ele>151</ele>
        <time>2022-02-24T08:13:36.000Z</time>
      </trkpt>
      <trkpt lat="47.674" lon="2.092674">
        <ele>151</ele>
        <time>2022-02-24T08:13:37.000Z</time>
      </trkpt>
      <trkpt lat="47.674" lon="2.092674">
        <ele>151</ele>
        <time>2022-02-24T08:13:38.000Z</time>
      </trkpt>
      <trkpt lat="47.67403" lon="2.092671">
        <ele>150</ele>
        <time>2022-02-24T08:13:39.000Z</time>
      </trkpt>
      <trkpt lat="47.67404" lon="2.0926688">
        <ele>150</ele>
        <time>2022-02-24T08:13:40.000Z</time>
      </trkpt>
      <trkpt lat="47.674053" lon="2.092664">
        <ele>149</ele>
        <time>2022-02-24T08:13:41.000Z</time>
      </trkpt>
      <trkpt lat="47.67407" lon="2.0926597">
        <ele>149</ele>
        <time>2022-02-24T08:13:42.000Z</time>
      </trkpt>
      <trkpt lat="47.67408" lon="2.0926547">
        <ele>148</ele>
        <time>2022-02-24T08:13:43.000Z</time>
      </trkpt>
      <trkpt lat="47.67409" lon="2.0926545">
        <ele>148</ele>
        <time>2022-02-24T08:13:44.000Z</time>
      </trkpt>
      <trkpt lat="47.674103" lon="2.0926516">
        <ele>147</ele>
        <time>2022-02-24T08:13:45.000Z</time>
      </trkpt>
      <trkpt lat="47.674103" lon="2.0926516">
        <ele>147</ele>
        <time>2022-02-24T08:13:46.000Z</time>
      </trkpt>
      <trkpt lat="47.674103" lon="2.0926516">
        <ele>147</ele>
        <time>2022-02-24T08:13:47.000Z</time>
      </trkpt>
      <trkpt lat="47.674126" lon="2.0926518">
        <ele>146</ele>
        <time>2022-02-24T08:13:48.000Z</time>
      </trkpt>
      <trkpt lat="47.674137" lon="2.0926476">
        <ele>145</ele>
        <time>2022-02-24T08:13:49.000Z</time>
      </trkpt>
      <trkpt lat="47.674152" lon="2.0926483">
        <ele>145</ele>
        <time>2022-02-24T08:13:50.000Z</time>
      </trkpt>
      <trkpt lat="47.67416" lon="2.092643">
        <ele>145</ele>
        <time>2022-02-24T08:13:51.000Z</time>
      </trkpt>
      <trkpt lat="47.67416" lon="2.092643">
        <ele>145</ele>
        <time>2022-02-24T08:13:52.000Z</time>
      </trkpt>
      <trkpt lat="47.67416" lon="2.092643">
        <ele>145</ele>
        <time>2022-02-24T08:13:53.000Z</time>
      </trkpt>
      <trkpt lat="47.674187" lon="2.092643">
        <ele>144</ele>
        <time>2022-02-24T08:13:54.000Z</time>
      </trkpt>
      <trkpt lat="47.6742" lon="2.092644">
        <ele>144</ele>
        <time>2022-02-24T08:13:55.000Z</time>
      </trkpt>
      <trkpt lat="47.674206" lon="2.0926416">
        <ele>144</ele>
        <time>2022-02-24T08:13:56.000Z</time>
      </trkpt>
      <trkpt lat="47.674213" lon="2.0926325">
        <ele>144</ele>
        <time>2022-02-24T08:13:57.000Z</time>
      </trkpt>
      <trkpt lat="47.67422" lon="2.0926304">
        <ele>143</ele>
        <time>2022-02-24T08:13:58.000Z</time>
      </trkpt>
      <trkpt lat="47.674236" lon="2.0926301">
        <ele>143</ele>
        <time>2022-02-24T08:13:59.000Z</time>
      </trkpt>
      <trkpt lat="47.67425" lon="2.0926285">
        <ele>143</ele>
        <time>2022-02-24T08:14:00.000Z</time>
      </trkpt>
      <trkpt lat="47.674263" lon="2.0926263">
        <ele>143</ele>
        <time>2022-02-24T08:14:01.000Z</time>
      </trkpt>
      <trkpt lat="47.67428" lon="2.092629">
        <ele>142</ele>
        <time>2022-02-24T08:14:02.000Z</time>
      </trkpt>
      <trkpt lat="47.674297" lon="2.092632">
        <ele>143</ele>
        <time>2022-02-24T08:14:03.000Z</time>
      </trkpt>
      <trkpt lat="47.674316" lon="2.0926366">
        <ele>142</ele>
        <time>2022-02-24T08:14:04.000Z</time>
      </trkpt>
      <trkpt lat="47.67433" lon="2.0926368">
        <ele>143</ele>
        <time>2022-02-24T08:14:05.000Z</time>
      </trkpt>
      <trkpt lat="47.67435" lon="2.09264">
        <ele>143</ele>
        <time>2022-02-24T08:14:06.000Z</time>
      </trkpt>
      <trkpt lat="47.674362" lon="2.0926404">
        <ele>142</ele>
        <time>2022-02-24T08:14:07.000Z</time>
      </trkpt>
      <trkpt lat="47.67438" lon="2.0926435">
        <ele>142</ele>
        <time>2022-02-24T08:14:08.000Z</time>
      </trkpt>
      <trkpt lat="47.674397" lon="2.092638">
        <ele>142</ele>
        <time>2022-02-24T08:14:09.000Z</time>
      </trkpt>
      <trkpt lat="47.67441" lon="2.0926394">
        <ele>142</ele>
        <time>2022-02-24T08:14:10.000Z</time>
      </trkpt>
      <trkpt lat="47.674427" lon="2.0926473">
        <ele>141</ele>
        <time>2022-02-24T08:14:11.000Z</time>
      </trkpt>
      <trkpt lat="47.674446" lon="2.0926523">
        <ele>141</ele>
        <time>2022-02-24T08:14:12.000Z</time>
      </trkpt>
      <trkpt lat="47.67446" lon="2.092656">
        <ele>141</ele>
        <time>2022-02-24T08:14:13.000Z</time>
      </trkpt>
      <trkpt lat="47.674477" lon="2.0926523">
        <ele>141</ele>
        <time>2022-02-24T08:14:14.000Z</time>
      </trkpt>
      <trkpt lat="47.674488" lon="2.0926511">
        <ele>141</ele>
        <time>2022-02-24T08:14:15.000Z</time>
      </trkpt>
      <trkpt lat="47.674488" lon="2.0926511">
        <ele>141</ele>
        <time>2022-02-24T08:14:16.000Z</time>
      </trkpt>
      <trkpt lat="47.674488" lon="2.0926511">
        <ele>141</ele>
        <time>2022-02-24T08:14:17.000Z</time>
      </trkpt>
      <trkpt lat="47.674526" lon="2.0926597">
        <ele>141</ele>
        <time>2022-02-24T08:14:18.000Z</time>
      </trkpt>
      <trkpt lat="47.67454" lon="2.092664">
        <ele>141</ele>
        <time>2022-02-24T08:14:19.000Z</time>
      </trkpt>
      <trkpt lat="47.674553" lon="2.0926702">
        <ele>140</ele>
        <time>2022-02-24T08:14:20.000Z</time>
      </trkpt>
      <trkpt lat="47.674564" lon="2.092668">
        <ele>140</ele>
        <time>2022-02-24T08:14:21.000Z</time>
      </trkpt>
      <trkpt lat="47.67457" lon="2.0926673">
        <ele>140</ele>
        <time>2022-02-24T08:14:22.000Z</time>
      </trkpt>
      <trkpt lat="47.67458" lon="2.0926666">
        <ele>140</ele>
        <time>2022-02-24T08:14:23.000Z</time>
      </trkpt>
      <trkpt lat="47.674595" lon="2.0926666">
        <ele>140</ele>
        <time>2022-02-24T08:14:24.000Z</time>
      </trkpt>
      <trkpt lat="47.674606" lon="2.0926685">
        <ele>140</ele>
        <time>2022-02-24T08:14:25.000Z</time>
      </trkpt>
      <trkpt lat="47.674618" lon="2.0926738">
        <ele>140</ele>
        <time>2022-02-24T08:14:26.000Z</time>
      </trkpt>
      <trkpt lat="47.67463" lon="2.0926795">
        <ele>140</ele>
        <time>2022-02-24T08:14:27.000Z</time>
      </trkpt>
      <trkpt lat="47.674644" lon="2.092681">
        <ele>141</ele>
        <time>2022-02-24T08:14:28.000Z</time>
      </trkpt>
      <trkpt lat="47.674656" lon="2.0926874">
        <ele>141</ele>
        <time>2022-02-24T08:14:29.000Z</time>
      </trkpt>
      <trkpt lat="47.674667" lon="2.0926929">
        <ele>141</ele>
        <time>2022-02-24T08:14:30.000Z</time>
      </trkpt>
      <trkpt lat="47.674667" lon="2.0926929">
        <ele>141</ele>
        <time>2022-02-24T08:14:31.000Z</time>
      </trkpt>
      <trkpt lat="47.674667" lon="2.0926929">
        <ele>141</ele>
        <time>2022-02-24T08:14:32.000Z</time>
      </trkpt>
      <trkpt lat="47.6747" lon="2.0927036">
        <ele>141</ele>
        <time>2022-02-24T08:14:33.000Z</time>
      </trkpt>
      <trkpt lat="47.674717" lon="2.0927067">
        <ele>141</ele>
        <time>2022-02-24T08:14:34.000Z</time>
      </trkpt>
      <trkpt lat="47.674732" lon="2.0927165">
        <ele>141</ele>
        <time>2022-02-24T08:14:35.000Z</time>
      </trkpt>
      <trkpt lat="47.674744" lon="2.0927224">
        <ele>142</ele>
        <time>2022-02-24T08:14:36.000Z</time>
      </trkpt>
      <trkpt lat="47.674744" lon="2.0927224">
        <ele>142</ele>
        <time>2022-02-24T08:14:37.000Z</time>
      </trkpt>
      <trkpt lat="47.674744" lon="2.0927224">
        <ele>142</ele>
        <time>2022-02-24T08:14:38.000Z</time>
      </trkpt>
      <trkpt lat="47.67478" lon="2.092746">
        <ele>141</ele>
        <time>2022-02-24T08:14:39.000Z</time>
      </trkpt>
      <trkpt lat="47.674793" lon="2.0927572">
        <ele>141</ele>
        <time>2022-02-24T08:14:40.000Z</time>
      </trkpt>
      <trkpt lat="47.67481" lon="2.0927632">
        <ele>141</ele>
        <time>2022-02-24T08:14:41.000Z</time>
      </trkpt>
      <trkpt lat="47.674824" lon="2.092768">
        <ele>142</ele>
        <time>2022-02-24T08:14:42.000Z</time>
      </trkpt>
      <trkpt lat="47.67484" lon="2.0927703">
        <ele>142</ele>
        <time>2022-02-24T08:14:43.000Z</time>
      </trkpt>
      <trkpt lat="47.67485" lon="2.0927742">
        <ele>142</ele>
        <time>2022-02-24T08:14:44.000Z</time>
      </trkpt>
      <trkpt lat="47.674862" lon="2.092772">
        <ele>143</ele>
        <time>2022-02-24T08:14:45.000Z</time>
      </trkpt>
      <trkpt lat="47.674877" lon="2.0927708">
        <ele>143</ele>
        <time>2022-02-24T08:14:46.000Z</time>
      </trkpt>
      <trkpt lat="47.674892" lon="2.0927727">
        <ele>143</ele>
        <time>2022-02-24T08:14:47.000Z</time>
      </trkpt>
      <trkpt lat="47.6749" lon="2.092775">
        <ele>143</ele>
        <time>2022-02-24T08:14:48.000Z</time>
      </trkpt>
      <trkpt lat="47.674915" lon="2.0927806">
        <ele>143</ele>
        <time>2022-02-24T08:14:49.000Z</time>
      </trkpt>
      <trkpt lat="47.674915" lon="2.0927806">
        <ele>143</ele>
        <time>2022-02-24T08:14:50.000Z</time>
      </trkpt>
      <trkpt lat="47.674915" lon="2.0927806">
        <ele>143</ele>
        <time>2022-02-24T08:14:51.000Z</time>
      </trkpt>
      <trkpt lat="47.674942" lon="2.0927866">
        <ele>143</ele>
        <time>2022-02-24T08:14:52.000Z</time>
      </trkpt>
      <trkpt lat="47.674953" lon="2.09279">
        <ele>143</ele>
        <time>2022-02-24T08:14:53.000Z</time>
      </trkpt>
      <trkpt lat="47.67497" lon="2.0927935">
        <ele>143</ele>
        <time>2022-02-24T08:14:54.000Z</time>
      </trkpt>
      <trkpt lat="47.674984" lon="2.0927973">
        <ele>143</ele>
        <time>2022-02-24T08:14:55.000Z</time>
      </trkpt>
      <trkpt lat="47.675003" lon="2.0928004">
        <ele>144</ele>
        <time>2022-02-24T08:14:56.000Z</time>
      </trkpt>
      <trkpt lat="47.675014" lon="2.092807">
        <ele>144</ele>
        <time>2022-02-24T08:14:57.000Z</time>
      </trkpt>
      <trkpt lat="47.67503" lon="2.0928125">
        <ele>144</ele>
        <time>2022-02-24T08:14:58.000Z</time>
      </trkpt>
      <trkpt lat="47.67503" lon="2.0928125">
        <ele>144</ele>
        <time>2022-02-24T08:14:59.000Z</time>
      </trkpt>
      <trkpt lat="47.67503" lon="2.0928125">
        <ele>144</ele>
        <time>2022-02-24T08:15:00.000Z</time>
      </trkpt>
      <trkpt lat="47.67506" lon="2.092833">
        <ele>145</ele>
        <time>2022-02-24T08:15:01.000Z</time>
      </trkpt>
      <trkpt lat="47.675076" lon="2.0928416">
        <ele>145</ele>
        <time>2022-02-24T08:15:02.000Z</time>
      </trkpt>
      <trkpt lat="47.675087" lon="2.0928512">
        <ele>145</ele>
        <time>2022-02-24T08:15:03.000Z</time>
      </trkpt>
      <trkpt lat="47.6751" lon="2.092861">
        <ele>145</ele>
        <time>2022-02-24T08:15:04.000Z</time>
      </trkpt>
      <trkpt lat="47.675114" lon="2.092874">
        <ele>145</ele>
        <time>2022-02-24T08:15:05.000Z</time>
      </trkpt>
      <trkpt lat="47.675114" lon="2.092874">
        <ele>145</ele>
        <time>2022-02-24T08:15:06.000Z</time>
      </trkpt>
      <trkpt lat="47.675114" lon="2.092874">
        <ele>145</ele>
        <time>2022-02-24T08:15:07.000Z</time>
      </trkpt>
      <trkpt lat="47.675144" lon="2.092893">
        <ele>146</ele>
        <time>2022-02-24T08:15:08.000Z</time>
      </trkpt>
      <trkpt lat="47.675156" lon="2.0929008">
        <ele>147</ele>
        <time>2022-02-24T08:15:09.000Z</time>
      </trkpt>
      <trkpt lat="47.675167" lon="2.0929077">
        <ele>147</ele>
        <time>2022-02-24T08:15:10.000Z</time>
      </trkpt>
      <trkpt lat="47.67518" lon="2.092916">
        <ele>147</ele>
        <time>2022-02-24T08:15:11.000Z</time>
      </trkpt>
      <trkpt lat="47.67518" lon="2.092916">
        <ele>147</ele>
        <time>2022-02-24T08:15:12.000Z</time>
      </trkpt>
      <trkpt lat="47.67518" lon="2.092916">
        <ele>147</ele>
        <time>2022-02-24T08:15:13.000Z</time>
      </trkpt>
      <trkpt lat="47.67521" lon="2.0929399">
        <ele>148</ele>
        <time>2022-02-24T08:15:14.000Z</time>
      </trkpt>
      <trkpt lat="47.675224" lon="2.0929532">
        <ele>148</ele>
        <time>2022-02-24T08:15:15.000Z</time>
      </trkpt>
      <trkpt lat="47.67524" lon="2.0929644">
        <ele>149</ele>
        <time>2022-02-24T08:15:16.000Z</time>
      </trkpt>
      <trkpt lat="47.675255" lon="2.0929766">
        <ele>150</ele>
        <time>2022-02-24T08:15:17.000Z</time>
      </trkpt>
      <trkpt lat="47.675266" lon="2.0929852">
        <ele>150</ele>
        <time>2022-02-24T08:15:18.000Z</time>
      </trkpt>
      <trkpt lat="47.67528" lon="2.092996">
        <ele>151</ele>
        <time>2022-02-24T08:15:19.000Z</time>
      </trkpt>
      <trkpt lat="47.675293" lon="2.093006">
        <ele>151</ele>
        <time>2022-02-24T08:15:20.000Z</time>
      </trkpt>
      <trkpt lat="47.6753" lon="2.0930169">
        <ele>152</ele>
        <time>2022-02-24T08:15:21.000Z</time>
      </trkpt>
      <trkpt lat="47.67531" lon="2.0930295">
        <ele>152</ele>
        <time>2022-02-24T08:15:22.000Z</time>
      </trkpt>
      <trkpt lat="47.675316" lon="2.0930448">
        <ele>152</ele>
        <time>2022-02-24T08:15:23.000Z</time>
      </trkpt>
      <trkpt lat="47.675327" lon="2.0930612">
        <ele>152</ele>
        <time>2022-02-24T08:15:24.000Z</time>
      </trkpt>
      <trkpt lat="47.675335" lon="2.0930758">
        <ele>152</ele>
        <time>2022-02-24T08:15:25.000Z</time>
      </trkpt>
      <trkpt lat="47.675343" lon="2.0930943">
        <ele>153</ele>
        <time>2022-02-24T08:15:26.000Z</time>
      </trkpt>
      <trkpt lat="47.675346" lon="2.09311">
        <ele>153</ele>
        <time>2022-02-24T08:15:27.000Z</time>
      </trkpt>
      <trkpt lat="47.67535" lon="2.0931299">
        <ele>153</ele>
        <time>2022-02-24T08:15:28.000Z</time>
      </trkpt>
      <trkpt lat="47.675358" lon="2.09315">
        <ele>153</ele>
        <time>2022-02-24T08:15:29.000Z</time>
      </trkpt>
      <trkpt lat="47.67537" lon="2.0931692">
        <ele>153</ele>
        <time>2022-02-24T08:15:30.000Z</time>
      </trkpt>
      <trkpt lat="47.675373" lon="2.0931864">
        <ele>153</ele>
        <time>2022-02-24T08:15:31.000Z</time>
      </trkpt>
      <trkpt lat="47.675385" lon="2.093205">
        <ele>153</ele>
        <time>2022-02-24T08:15:32.000Z</time>
      </trkpt>
      <trkpt lat="47.675392" lon="2.093226">
        <ele>154</ele>
        <time>2022-02-24T08:15:33.000Z</time>
      </trkpt>
      <trkpt lat="47.6754" lon="2.0932434">
        <ele>154</ele>
        <time>2022-02-24T08:15:34.000Z</time>
      </trkpt>
      <trkpt lat="47.675407" lon="2.0932584">
        <ele>154</ele>
        <time>2022-02-24T08:15:35.000Z</time>
      </trkpt>
      <trkpt lat="47.675415" lon="2.093273">
        <ele>154</ele>
        <time>2022-02-24T08:15:36.000Z</time>
      </trkpt>
      <trkpt lat="47.67542" lon="2.093286">
        <ele>154</ele>
        <time>2022-02-24T08:15:37.000Z</time>
      </trkpt>
      <trkpt lat="47.67542" lon="2.093286">
        <ele>154</ele>
        <time>2022-02-24T08:15:38.000Z</time>
      </trkpt>
      <trkpt lat="47.67543" lon="2.0933082">
        <ele>154</ele>
        <time>2022-02-24T08:15:39.000Z</time>
      </trkpt>
      <trkpt lat="47.675438" lon="2.0933259">
        <ele>153</ele>
        <time>2022-02-24T08:15:40.000Z</time>
      </trkpt>
      <trkpt lat="47.675438" lon="2.0933452">
        <ele>153</ele>
        <time>2022-02-24T08:15:41.000Z</time>
      </trkpt>
      <trkpt lat="47.67544" lon="2.0933654">
        <ele>153</ele>
        <time>2022-02-24T08:15:42.000Z</time>
      </trkpt>
      <trkpt lat="47.675446" lon="2.0933871">
        <ele>154</ele>
        <time>2022-02-24T08:15:43.000Z</time>
      </trkpt>
      <trkpt lat="47.675453" lon="2.0934076">
        <ele>154</ele>
        <time>2022-02-24T08:15:44.000Z</time>
      </trkpt>
      <trkpt lat="47.675457" lon="2.0934293">
        <ele>154</ele>
        <time>2022-02-24T08:15:45.000Z</time>
      </trkpt>
      <trkpt lat="47.67546" lon="2.0934503">
        <ele>154</ele>
        <time>2022-02-24T08:15:46.000Z</time>
      </trkpt>
      <trkpt lat="47.67547" lon="2.0934699">
        <ele>154</ele>
        <time>2022-02-24T08:15:47.000Z</time>
      </trkpt>
      <trkpt lat="47.675476" lon="2.0934854">
        <ele>154</ele>
        <time>2022-02-24T08:15:48.000Z</time>
      </trkpt>
      <trkpt lat="47.675484" lon="2.0935032">
        <ele>155</ele>
        <time>2022-02-24T08:15:49.000Z</time>
      </trkpt>
      <trkpt lat="47.675488" lon="2.093522">
        <ele>155</ele>
        <time>2022-02-24T08:15:50.000Z</time>
      </trkpt>
      <trkpt lat="47.675495" lon="2.0935378">
        <ele>155</ele>
        <time>2022-02-24T08:15:51.000Z</time>
      </trkpt>
      <trkpt lat="47.675503" lon="2.0935512">
        <ele>156</ele>
        <time>2022-02-24T08:15:52.000Z</time>
      </trkpt>
      <trkpt lat="47.675507" lon="2.0935721">
        <ele>156</ele>
        <time>2022-02-24T08:15:53.000Z</time>
      </trkpt>
      <trkpt lat="47.675507" lon="2.0935931">
        <ele>157</ele>
        <time>2022-02-24T08:15:54.000Z</time>
      </trkpt>
      <trkpt lat="47.67551" lon="2.0936143">
        <ele>157</ele>
        <time>2022-02-24T08:15:55.000Z</time>
      </trkpt>
      <trkpt lat="47.675514" lon="2.0936291">
        <ele>157</ele>
        <time>2022-02-24T08:15:56.000Z</time>
      </trkpt>
      <trkpt lat="47.67552" lon="2.093647">
        <ele>157</ele>
        <time>2022-02-24T08:15:57.000Z</time>
      </trkpt>
      <trkpt lat="47.67553" lon="2.0936625">
        <ele>157</ele>
        <time>2022-02-24T08:15:58.000Z</time>
      </trkpt>
      <trkpt lat="47.675537" lon="2.093683">
        <ele>157</ele>
        <time>2022-02-24T08:15:59.000Z</time>
      </trkpt>
      <trkpt lat="47.675545" lon="2.0937006">
        <ele>157</ele>
        <time>2022-02-24T08:16:00.000Z</time>
      </trkpt>
      <trkpt lat="47.67555" lon="2.0937135">
        <ele>158</ele>
        <time>2022-02-24T08:16:01.000Z</time>
      </trkpt>
      <trkpt lat="47.675552" lon="2.093731">
        <ele>158</ele>
        <time>2022-02-24T08:16:02.000Z</time>
      </trkpt>
      <trkpt lat="47.67556" lon="2.0937455">
        <ele>158</ele>
        <time>2022-02-24T08:16:03.000Z</time>
      </trkpt>
      <trkpt lat="47.675568" lon="2.0937629">
        <ele>158</ele>
        <time>2022-02-24T08:16:04.000Z</time>
      </trkpt>
      <trkpt lat="47.67557" lon="2.0937788">
        <ele>158</ele>
        <time>2022-02-24T08:16:05.000Z</time>
      </trkpt>
      <trkpt lat="47.67558" lon="2.0937984">
        <ele>158</ele>
        <time>2022-02-24T08:16:06.000Z</time>
      </trkpt>
      <trkpt lat="47.67558" lon="2.0938156">
        <ele>157</ele>
        <time>2022-02-24T08:16:07.000Z</time>
      </trkpt>
      <trkpt lat="47.675583" lon="2.0938349">
        <ele>157</ele>
        <time>2022-02-24T08:16:08.000Z</time>
      </trkpt>
      <trkpt lat="47.67559" lon="2.093851">
        <ele>158</ele>
        <time>2022-02-24T08:16:09.000Z</time>
      </trkpt>
      <trkpt lat="47.675594" lon="2.0938675">
        <ele>158</ele>
        <time>2022-02-24T08:16:10.000Z</time>
      </trkpt>
      <trkpt lat="47.6756" lon="2.0938833">
        <ele>159</ele>
        <time>2022-02-24T08:16:11.000Z</time>
      </trkpt>
      <trkpt lat="47.675602" lon="2.0938976">
        <ele>159</ele>
        <time>2022-02-24T08:16:12.000Z</time>
      </trkpt>
      <trkpt lat="47.675602" lon="2.0938976">
        <ele>159</ele>
        <time>2022-02-24T08:16:13.000Z</time>
      </trkpt>
      <trkpt lat="47.675613" lon="2.0939245">
        <ele>159</ele>
        <time>2022-02-24T08:16:14.000Z</time>
      </trkpt>
      <trkpt lat="47.675625" lon="2.0939388">
        <ele>160</ele>
        <time>2022-02-24T08:16:15.000Z</time>
      </trkpt>
      <trkpt lat="47.675632" lon="2.0939496">
        <ele>161</ele>
        <time>2022-02-24T08:16:16.000Z</time>
      </trkpt>
      <trkpt lat="47.675636" lon="2.0939653">
        <ele>161</ele>
        <time>2022-02-24T08:16:17.000Z</time>
      </trkpt>
      <trkpt lat="47.675644" lon="2.093987">
        <ele>161</ele>
        <time>2022-02-24T08:16:18.000Z</time>
      </trkpt>
      <trkpt lat="47.675644" lon="2.0940077">
        <ele>161</ele>
        <time>2022-02-24T08:16:19.000Z</time>
      </trkpt>
      <trkpt lat="47.675644" lon="2.0940328">
        <ele>162</ele>
        <time>2022-02-24T08:16:20.000Z</time>
      </trkpt>
      <trkpt lat="47.675644" lon="2.0940516">
        <ele>163</ele>
        <time>2022-02-24T08:16:21.000Z</time>
      </trkpt>
      <trkpt lat="47.675648" lon="2.0940726">
        <ele>163</ele>
        <time>2022-02-24T08:16:22.000Z</time>
      </trkpt>
      <trkpt lat="47.675648" lon="2.09409">
        <ele>164</ele>
        <time>2022-02-24T08:16:23.000Z</time>
      </trkpt>
      <trkpt lat="47.675648" lon="2.0941107">
        <ele>164</ele>
        <time>2022-02-24T08:16:24.000Z</time>
      </trkpt>
      <trkpt lat="47.675648" lon="2.094132">
        <ele>164</ele>
        <time>2022-02-24T08:16:25.000Z</time>
      </trkpt>
      <trkpt lat="47.675648" lon="2.0941525">
        <ele>164</ele>
        <time>2022-02-24T08:16:26.000Z</time>
      </trkpt>
      <trkpt lat="47.67565" lon="2.094172">
        <ele>164</ele>
        <time>2022-02-24T08:16:27.000Z</time>
      </trkpt>
      <trkpt lat="47.67565" lon="2.094194">
        <ele>164</ele>
        <time>2022-02-24T08:16:28.000Z</time>
      </trkpt>
      <trkpt lat="47.675648" lon="2.094211">
        <ele>164</ele>
        <time>2022-02-24T08:16:29.000Z</time>
      </trkpt>
      <trkpt lat="47.67565" lon="2.0942323">
        <ele>163</ele>
        <time>2022-02-24T08:16:30.000Z</time>
      </trkpt>
      <trkpt lat="47.67565" lon="2.0942533">
        <ele>163</ele>
        <time>2022-02-24T08:16:31.000Z</time>
      </trkpt>
      <trkpt lat="47.67566" lon="2.0942695">
        <ele>163</ele>
        <time>2022-02-24T08:16:32.000Z</time>
      </trkpt>
      <trkpt lat="47.67566" lon="2.0942695">
        <ele>163</ele>
        <time>2022-02-24T08:16:33.000Z</time>
      </trkpt>
      <trkpt lat="47.67566" lon="2.0942695">
        <ele>163</ele>
        <time>2022-02-24T08:16:34.000Z</time>
      </trkpt>
      <trkpt lat="47.675663" lon="2.0943127">
        <ele>162</ele>
        <time>2022-02-24T08:16:35.000Z</time>
      </trkpt>
      <trkpt lat="47.675667" lon="2.0943298">
        <ele>162</ele>
        <time>2022-02-24T08:16:36.000Z</time>
      </trkpt>
      <trkpt lat="47.675674" lon="2.0943434">
        <ele>162</ele>
        <time>2022-02-24T08:16:37.000Z</time>
      </trkpt>
      <trkpt lat="47.675682" lon="2.0943575">
        <ele>162</ele>
        <time>2022-02-24T08:16:38.000Z</time>
      </trkpt>
      <trkpt lat="47.675686" lon="2.094376">
        <ele>163</ele>
        <time>2022-02-24T08:16:39.000Z</time>
      </trkpt>
      <trkpt lat="47.67569" lon="2.0943928">
        <ele>163</ele>
        <time>2022-02-24T08:16:40.000Z</time>
      </trkpt>
      <trkpt lat="47.675694" lon="2.0944078">
        <ele>162</ele>
        <time>2022-02-24T08:16:41.000Z</time>
      </trkpt>
      <trkpt lat="47.675697" lon="2.0944245">
        <ele>163</ele>
        <time>2022-02-24T08:16:42.000Z</time>
      </trkpt>
      <trkpt lat="47.675697" lon="2.0944245">
        <ele>163</ele>
        <time>2022-02-24T08:16:43.000Z</time>
      </trkpt>
      <trkpt lat="47.675697" lon="2.0944245">
        <ele>163</ele>
        <time>2022-02-24T08:16:44.000Z</time>
      </trkpt>
      <trkpt lat="47.6757" lon="2.0944648">
        <ele>164</ele>
        <time>2022-02-24T08:16:45.000Z</time>
      </trkpt>
      <trkpt lat="47.6757" lon="2.0944812">
        <ele>165</ele>
        <time>2022-02-24T08:16:46.000Z</time>
      </trkpt>
      <trkpt lat="47.675705" lon="2.094497">
        <ele>164</ele>
        <time>2022-02-24T08:16:47.000Z</time>
      </trkpt>
      <trkpt lat="47.675705" lon="2.0945144">
        <ele>164</ele>
        <time>2022-02-24T08:16:48.000Z</time>
      </trkpt>
      <trkpt lat="47.67571" lon="2.0945327">
        <ele>164</ele>
        <time>2022-02-24T08:16:49.000Z</time>
      </trkpt>
      <trkpt lat="47.675705" lon="2.09455">
        <ele>164</ele>
        <time>2022-02-24T08:16:50.000Z</time>
      </trkpt>
      <trkpt lat="47.67571" lon="2.0945704">
        <ele>164</ele>
        <time>2022-02-24T08:16:51.000Z</time>
      </trkpt>
      <trkpt lat="47.675713" lon="2.0945895">
        <ele>164</ele>
        <time>2022-02-24T08:16:52.000Z</time>
      </trkpt>
      <trkpt lat="47.675713" lon="2.0946083">
        <ele>164</ele>
        <time>2022-02-24T08:16:53.000Z</time>
      </trkpt>
      <trkpt lat="47.675716" lon="2.0946283">
        <ele>164</ele>
        <time>2022-02-24T08:16:54.000Z</time>
      </trkpt>
      <trkpt lat="47.67572" lon="2.0946462">
        <ele>164</ele>
        <time>2022-02-24T08:16:55.000Z</time>
      </trkpt>
      <trkpt lat="47.67572" lon="2.0946462">
        <ele>164</ele>
        <time>2022-02-24T08:16:56.000Z</time>
      </trkpt>
      <trkpt lat="47.67572" lon="2.0946853">
        <ele>163</ele>
        <time>2022-02-24T08:16:57.000Z</time>
      </trkpt>
      <trkpt lat="47.67572" lon="2.0947065">
        <ele>163</ele>
        <time>2022-02-24T08:16:58.000Z</time>
      </trkpt>
      <trkpt lat="47.675716" lon="2.0947278">
        <ele>164</ele>
        <time>2022-02-24T08:16:59.000Z</time>
      </trkpt>
      <trkpt lat="47.675716" lon="2.0947487">
        <ele>164</ele>
        <time>2022-02-24T08:17:00.000Z</time>
      </trkpt>
      <trkpt lat="47.67572" lon="2.0947669">
        <ele>164</ele>
        <time>2022-02-24T08:17:01.000Z</time>
      </trkpt>
      <trkpt lat="47.67572" lon="2.094785">
        <ele>164</ele>
        <time>2022-02-24T08:17:02.000Z</time>
      </trkpt>
      <trkpt lat="47.67572" lon="2.094785">
        <ele>164</ele>
        <time>2022-02-24T08:17:03.000Z</time>
      </trkpt>
      <trkpt lat="47.67572" lon="2.094785">
        <ele>164</ele>
        <time>2022-02-24T08:17:04.000Z</time>
      </trkpt>
      <trkpt lat="47.67573" lon="2.0948277">
        <ele>164</ele>
        <time>2022-02-24T08:17:05.000Z</time>
      </trkpt>
      <trkpt lat="47.675735" lon="2.0948424">
        <ele>164</ele>
        <time>2022-02-24T08:17:06.000Z</time>
      </trkpt>
      <trkpt lat="47.675735" lon="2.0948603">
        <ele>163</ele>
        <time>2022-02-24T08:17:07.000Z</time>
      </trkpt>
      <trkpt lat="47.675735" lon="2.0948749">
        <ele>163</ele>
        <time>2022-02-24T08:17:08.000Z</time>
      </trkpt>
      <trkpt lat="47.675735" lon="2.0948749">
        <ele>163</ele>
        <time>2022-02-24T08:17:09.000Z</time>
      </trkpt>
      <trkpt lat="47.675735" lon="2.0948749">
        <ele>163</ele>
        <time>2022-02-24T08:17:10.000Z</time>
      </trkpt>
      <trkpt lat="47.675743" lon="2.0949128">
        <ele>164</ele>
        <time>2022-02-24T08:17:11.000Z</time>
      </trkpt>
      <trkpt lat="47.675743" lon="2.0949314">
        <ele>164</ele>
        <time>2022-02-24T08:17:12.000Z</time>
      </trkpt>
      <trkpt lat="47.675743" lon="2.0949473">
        <ele>164</ele>
        <time>2022-02-24T08:17:13.000Z</time>
      </trkpt>
      <trkpt lat="47.675743" lon="2.0949645">
        <ele>164</ele>
        <time>2022-02-24T08:17:14.000Z</time>
      </trkpt>
      <trkpt lat="47.675747" lon="2.0949836">
        <ele>165</ele>
        <time>2022-02-24T08:17:15.000Z</time>
      </trkpt>
      <trkpt lat="47.675755" lon="2.0950027">
        <ele>165</ele>
        <time>2022-02-24T08:17:16.000Z</time>
      </trkpt>
      <trkpt lat="47.67576" lon="2.095027">
        <ele>165</ele>
        <time>2022-02-24T08:17:17.000Z</time>
      </trkpt>
      <trkpt lat="47.675762" lon="2.0950494">
        <ele>165</ele>
        <time>2022-02-24T08:17:18.000Z</time>
      </trkpt>
      <trkpt lat="47.675766" lon="2.0950723">
        <ele>165</ele>
        <time>2022-02-24T08:17:19.000Z</time>
      </trkpt>
      <trkpt lat="47.675766" lon="2.0950956">
        <ele>165</ele>
        <time>2022-02-24T08:17:20.000Z</time>
      </trkpt>
      <trkpt lat="47.675766" lon="2.0951145">
        <ele>164</ele>
        <time>2022-02-24T08:17:21.000Z</time>
      </trkpt>
      <trkpt lat="47.675766" lon="2.0951345">
        <ele>164</ele>
        <time>2022-02-24T08:17:22.000Z</time>
      </trkpt>
      <trkpt lat="47.67577" lon="2.0951514">
        <ele>164</ele>
        <time>2022-02-24T08:17:23.000Z</time>
      </trkpt>
      <trkpt lat="47.67577" lon="2.0951514">
        <ele>164</ele>
        <time>2022-02-24T08:17:24.000Z</time>
      </trkpt>
      <trkpt lat="47.67577" lon="2.0951514">
        <ele>164</ele>
        <time>2022-02-24T08:17:25.000Z</time>
      </trkpt>
      <trkpt lat="47.67577" lon="2.0951927">
        <ele>164</ele>
        <time>2022-02-24T08:17:26.000Z</time>
      </trkpt>
      <trkpt lat="47.67577" lon="2.095207">
        <ele>163</ele>
        <time>2022-02-24T08:17:27.000Z</time>
      </trkpt>
      <trkpt lat="47.675777" lon="2.095217">
        <ele>163</ele>
        <time>2022-02-24T08:17:28.000Z</time>
      </trkpt>
      <trkpt lat="47.67578" lon="2.09523">
        <ele>163</ele>
        <time>2022-02-24T08:17:29.000Z</time>
      </trkpt>
      <trkpt lat="47.67578" lon="2.09523">
        <ele>163</ele>
        <time>2022-02-24T08:17:30.000Z</time>
      </trkpt>
      <trkpt lat="47.67579" lon="2.0952554">
        <ele>163</ele>
        <time>2022-02-24T08:17:31.000Z</time>
      </trkpt>
      <trkpt lat="47.675793" lon="2.0952723">
        <ele>163</ele>
        <time>2022-02-24T08:17:32.000Z</time>
      </trkpt>
      <trkpt lat="47.675797" lon="2.0952954">
        <ele>163</ele>
        <time>2022-02-24T08:17:33.000Z</time>
      </trkpt>
      <trkpt lat="47.675797" lon="2.095318">
        <ele>163</ele>
        <time>2022-02-24T08:17:34.000Z</time>
      </trkpt>
      <trkpt lat="47.675797" lon="2.095339">
        <ele>163</ele>
        <time>2022-02-24T08:17:35.000Z</time>
      </trkpt>
      <trkpt lat="47.675797" lon="2.095362">
        <ele>163</ele>
        <time>2022-02-24T08:17:36.000Z</time>
      </trkpt>
      <trkpt lat="47.675793" lon="2.0953872">
        <ele>163</ele>
        <time>2022-02-24T08:17:37.000Z</time>
      </trkpt>
      <trkpt lat="47.675797" lon="2.095405">
        <ele>163</ele>
        <time>2022-02-24T08:17:38.000Z</time>
      </trkpt>
      <trkpt lat="47.6758" lon="2.0954223">
        <ele>163</ele>
        <time>2022-02-24T08:17:39.000Z</time>
      </trkpt>
      <trkpt lat="47.6758" lon="2.0954378">
        <ele>163</ele>
        <time>2022-02-24T08:17:40.000Z</time>
      </trkpt>
      <trkpt lat="47.6758" lon="2.0954547">
        <ele>163</ele>
        <time>2022-02-24T08:17:41.000Z</time>
      </trkpt>
      <trkpt lat="47.6758" lon="2.095473">
        <ele>164</ele>
        <time>2022-02-24T08:17:42.000Z</time>
      </trkpt>
      <trkpt lat="47.6758" lon="2.0954893">
        <ele>163</ele>
        <time>2022-02-24T08:17:43.000Z</time>
      </trkpt>
      <trkpt lat="47.6758" lon="2.0955088">
        <ele>163</ele>
        <time>2022-02-24T08:17:44.000Z</time>
      </trkpt>
      <trkpt lat="47.675804" lon="2.095526">
        <ele>163</ele>
        <time>2022-02-24T08:17:45.000Z</time>
      </trkpt>
      <trkpt lat="47.675804" lon="2.095526">
        <ele>163</ele>
        <time>2022-02-24T08:17:46.000Z</time>
      </trkpt>
      <trkpt lat="47.675804" lon="2.095526">
        <ele>163</ele>
        <time>2022-02-24T08:17:47.000Z</time>
      </trkpt>
      <trkpt lat="47.675804" lon="2.0955694">
        <ele>163</ele>
        <time>2022-02-24T08:17:48.000Z</time>
      </trkpt>
      <trkpt lat="47.675808" lon="2.0955882">
        <ele>163</ele>
        <time>2022-02-24T08:17:49.000Z</time>
      </trkpt>
      <trkpt lat="47.67581" lon="2.095607">
        <ele>163</ele>
        <time>2022-02-24T08:17:50.000Z</time>
      </trkpt>
      <trkpt lat="47.675816" lon="2.0956235">
        <ele>163</ele>
        <time>2022-02-24T08:17:51.000Z</time>
      </trkpt>
      <trkpt lat="47.675816" lon="2.095637">
        <ele>163</ele>
        <time>2022-02-24T08:17:52.000Z</time>
      </trkpt>
      <trkpt lat="47.675816" lon="2.095637">
        <ele>163</ele>
        <time>2022-02-24T08:17:53.000Z</time>
      </trkpt>
      <trkpt lat="47.675816" lon="2.095637">
        <ele>163</ele>
        <time>2022-02-24T08:17:54.000Z</time>
      </trkpt>
      <trkpt lat="47.675823" lon="2.0956805">
        <ele>162</ele>
        <time>2022-02-24T08:17:55.000Z</time>
      </trkpt>
      <trkpt lat="47.67583" lon="2.0956957">
        <ele>162</ele>
        <time>2022-02-24T08:17:56.000Z</time>
      </trkpt>
      <trkpt lat="47.675835" lon="2.0957131">
        <ele>162</ele>
        <time>2022-02-24T08:17:57.000Z</time>
      </trkpt>
      <trkpt lat="47.67584" lon="2.0957332">
        <ele>162</ele>
        <time>2022-02-24T08:17:58.000Z</time>
      </trkpt>
      <trkpt lat="47.67584" lon="2.0957522">
        <ele>162</ele>
        <time>2022-02-24T08:17:59.000Z</time>
      </trkpt>
      <trkpt lat="47.675846" lon="2.0957725">
        <ele>162</ele>
        <time>2022-02-24T08:18:00.000Z</time>
      </trkpt>
      <trkpt lat="47.67585" lon="2.0957947">
        <ele>162</ele>
        <time>2022-02-24T08:18:01.000Z</time>
      </trkpt>
      <trkpt lat="47.67585" lon="2.0958233">
        <ele>162</ele>
        <time>2022-02-24T08:18:02.000Z</time>
      </trkpt>
      <trkpt lat="47.67585" lon="2.0958486">
        <ele>163</ele>
        <time>2022-02-24T08:18:04.000Z</time>
      </trkpt>
      <trkpt lat="47.675854" lon="2.0958753">
        <ele>163</ele>
        <time>2022-02-24T08:18:05.000Z</time>
      </trkpt>
      <trkpt lat="47.675854" lon="2.0958986">
        <ele>164</ele>
        <time>2022-02-24T08:18:06.000Z</time>
      </trkpt>
      <trkpt lat="47.67585" lon="2.095921">
        <ele>164</ele>
        <time>2022-02-24T08:18:07.000Z</time>
      </trkpt>
      <trkpt lat="47.67585" lon="2.095943">
        <ele>164</ele>
        <time>2022-02-24T08:18:08.000Z</time>
      </trkpt>
      <trkpt lat="47.67585" lon="2.0959625">
        <ele>164</ele>
        <time>2022-02-24T08:18:09.000Z</time>
      </trkpt>
      <trkpt lat="47.67585" lon="2.0959828">
        <ele>164</ele>
        <time>2022-02-24T08:18:10.000Z</time>
      </trkpt>
      <trkpt lat="47.675854" lon="2.0960023">
        <ele>164</ele>
        <time>2022-02-24T08:18:11.000Z</time>
      </trkpt>
      <trkpt lat="47.675854" lon="2.0960221">
        <ele>164</ele>
        <time>2022-02-24T08:18:12.000Z</time>
      </trkpt>
      <trkpt lat="47.675854" lon="2.0960426">
        <ele>164</ele>
        <time>2022-02-24T08:18:13.000Z</time>
      </trkpt>
      <trkpt lat="47.675858" lon="2.096064">
        <ele>164</ele>
        <time>2022-02-24T08:18:14.000Z</time>
      </trkpt>
      <trkpt lat="47.67586" lon="2.0960855">
        <ele>165</ele>
        <time>2022-02-24T08:18:15.000Z</time>
      </trkpt>
      <trkpt lat="47.675865" lon="2.0961046">
        <ele>165</ele>
        <time>2022-02-24T08:18:16.000Z</time>
      </trkpt>
      <trkpt lat="47.675865" lon="2.0961208">
        <ele>165</ele>
        <time>2022-02-24T08:18:17.000Z</time>
      </trkpt>
      <trkpt lat="47.675865" lon="2.096136">
        <ele>165</ele>
        <time>2022-02-24T08:18:18.000Z</time>
      </trkpt>
      <trkpt lat="47.67587" lon="2.0961528">
        <ele>164</ele>
        <time>2022-02-24T08:18:19.000Z</time>
      </trkpt>
      <trkpt lat="47.675877" lon="2.0961747">
        <ele>164</ele>
        <time>2022-02-24T08:18:20.000Z</time>
      </trkpt>
      <trkpt lat="47.675877" lon="2.0961964">
        <ele>165</ele>
        <time>2022-02-24T08:18:21.000Z</time>
      </trkpt>
      <trkpt lat="47.67588" lon="2.096215">
        <ele>165</ele>
        <time>2022-02-24T08:18:22.000Z</time>
      </trkpt>
      <trkpt lat="47.675877" lon="2.0962324">
        <ele>164</ele>
        <time>2022-02-24T08:18:23.000Z</time>
      </trkpt>
      <trkpt lat="47.67588" lon="2.096252">
        <ele>165</ele>
        <time>2022-02-24T08:18:24.000Z</time>
      </trkpt>
      <trkpt lat="47.67588" lon="2.0962706">
        <ele>165</ele>
        <time>2022-02-24T08:18:25.000Z</time>
      </trkpt>
      <trkpt lat="47.675877" lon="2.0962896">
        <ele>165</ele>
        <time>2022-02-24T08:18:26.000Z</time>
      </trkpt>
      <trkpt lat="47.67588" lon="2.0963097">
        <ele>165</ele>
        <time>2022-02-24T08:18:27.000Z</time>
      </trkpt>
      <trkpt lat="47.67588" lon="2.0963292">
        <ele>165</ele>
        <time>2022-02-24T08:18:28.000Z</time>
      </trkpt>
      <trkpt lat="47.675884" lon="2.0963476">
        <ele>164</ele>
        <time>2022-02-24T08:18:29.000Z</time>
      </trkpt>
      <trkpt lat="47.675884" lon="2.0963476">
        <ele>164</ele>
        <time>2022-02-24T08:18:30.000Z</time>
      </trkpt>
      <trkpt lat="47.675884" lon="2.0963476">
        <ele>164</ele>
        <time>2022-02-24T08:18:31.000Z</time>
      </trkpt>
      <trkpt lat="47.675884" lon="2.0963905">
        <ele>165</ele>
        <time>2022-02-24T08:18:32.000Z</time>
      </trkpt>
      <trkpt lat="47.675884" lon="2.0964046">
        <ele>165</ele>
        <time>2022-02-24T08:18:33.000Z</time>
      </trkpt>
      <trkpt lat="47.675884" lon="2.0964193">
        <ele>164</ele>
        <time>2022-02-24T08:18:34.000Z</time>
      </trkpt>
      <trkpt lat="47.675888" lon="2.0964339">
        <ele>164</ele>
        <time>2022-02-24T08:18:35.000Z</time>
      </trkpt>
      <trkpt lat="47.675888" lon="2.0964339">
        <ele>164</ele>
        <time>2022-02-24T08:18:36.000Z</time>
      </trkpt>
      <trkpt lat="47.67589" lon="2.0964708">
        <ele>164</ele>
        <time>2022-02-24T08:18:37.000Z</time>
      </trkpt>
      <trkpt lat="47.675896" lon="2.0964882">
        <ele>164</ele>
        <time>2022-02-24T08:18:38.000Z</time>
      </trkpt>
      <trkpt lat="47.675896" lon="2.096506">
        <ele>165</ele>
        <time>2022-02-24T08:18:39.000Z</time>
      </trkpt>
      <trkpt lat="47.675896" lon="2.0965216">
        <ele>165</ele>
        <time>2022-02-24T08:18:40.000Z</time>
      </trkpt>
      <trkpt lat="47.6759" lon="2.0965383">
        <ele>165</ele>
        <time>2022-02-24T08:18:41.000Z</time>
      </trkpt>
      <trkpt lat="47.675903" lon="2.096559">
        <ele>165</ele>
        <time>2022-02-24T08:18:42.000Z</time>
      </trkpt>
      <trkpt lat="47.675907" lon="2.0965784">
        <ele>165</ele>
        <time>2022-02-24T08:18:43.000Z</time>
      </trkpt>
      <trkpt lat="47.67591" lon="2.0965955">
        <ele>165</ele>
        <time>2022-02-24T08:18:44.000Z</time>
      </trkpt>
      <trkpt lat="47.675915" lon="2.0966144">
        <ele>165</ele>
        <time>2022-02-24T08:18:45.000Z</time>
      </trkpt>
      <trkpt lat="47.67592" lon="2.0966341">
        <ele>165</ele>
        <time>2022-02-24T08:18:46.000Z</time>
      </trkpt>
      <trkpt lat="47.67592" lon="2.0966527">
        <ele>166</ele>
        <time>2022-02-24T08:18:47.000Z</time>
      </trkpt>
      <trkpt lat="47.675922" lon="2.0966704">
        <ele>166</ele>
        <time>2022-02-24T08:18:48.000Z</time>
      </trkpt>
      <trkpt lat="47.675926" lon="2.0966856">
        <ele>166</ele>
        <time>2022-02-24T08:18:49.000Z</time>
      </trkpt>
      <trkpt lat="47.67593" lon="2.0967004">
        <ele>165</ele>
        <time>2022-02-24T08:18:50.000Z</time>
      </trkpt>
      <trkpt lat="47.675934" lon="2.096717">
        <ele>165</ele>
        <time>2022-02-24T08:18:51.000Z</time>
      </trkpt>
      <trkpt lat="47.675934" lon="2.0967324">
        <ele>164</ele>
        <time>2022-02-24T08:18:52.000Z</time>
      </trkpt>
      <trkpt lat="47.675938" lon="2.096747">
        <ele>164</ele>
        <time>2022-02-24T08:18:53.000Z</time>
      </trkpt>
      <trkpt lat="47.675938" lon="2.096747">
        <ele>164</ele>
        <time>2022-02-24T08:18:54.000Z</time>
      </trkpt>
      <trkpt lat="47.675938" lon="2.096747">
        <ele>164</ele>
        <time>2022-02-24T08:18:55.000Z</time>
      </trkpt>
      <trkpt lat="47.675938" lon="2.0967875">
        <ele>164</ele>
        <time>2022-02-24T08:18:56.000Z</time>
      </trkpt>
      <trkpt lat="47.675938" lon="2.0967977">
        <ele>164</ele>
        <time>2022-02-24T08:18:57.000Z</time>
      </trkpt>
      <trkpt lat="47.675938" lon="2.0968082">
        <ele>163</ele>
        <time>2022-02-24T08:18:58.000Z</time>
      </trkpt>
      <trkpt lat="47.67594" lon="2.0968256">
        <ele>163</ele>
        <time>2022-02-24T08:18:59.000Z</time>
      </trkpt>
      <trkpt lat="47.67594" lon="2.0968256">
        <ele>163</ele>
        <time>2022-02-24T08:19:00.000Z</time>
      </trkpt>
      <trkpt lat="47.67594" lon="2.0968256">
        <ele>163</ele>
        <time>2022-02-24T08:19:01.000Z</time>
      </trkpt>
      <trkpt lat="47.675953" lon="2.0968652">
        <ele>163</ele>
        <time>2022-02-24T08:19:02.000Z</time>
      </trkpt>
      <trkpt lat="47.675953" lon="2.0968797">
        <ele>163</ele>
        <time>2022-02-24T08:19:03.000Z</time>
      </trkpt>
      <trkpt lat="47.675957" lon="2.096899">
        <ele>163</ele>
        <time>2022-02-24T08:19:04.000Z</time>
      </trkpt>
      <trkpt lat="47.675957" lon="2.096917">
        <ele>164</ele>
        <time>2022-02-24T08:19:05.000Z</time>
      </trkpt>
      <trkpt lat="47.67596" lon="2.0969338">
        <ele>164</ele>
        <time>2022-02-24T08:19:06.000Z</time>
      </trkpt>
      <trkpt lat="47.67596" lon="2.096956">
        <ele>164</ele>
        <time>2022-02-24T08:19:07.000Z</time>
      </trkpt>
      <trkpt lat="47.675964" lon="2.0969722">
        <ele>164</ele>
        <time>2022-02-24T08:19:08.000Z</time>
      </trkpt>
      <trkpt lat="47.675964" lon="2.0969932">
        <ele>164</ele>
        <time>2022-02-24T08:19:09.000Z</time>
      </trkpt>
      <trkpt lat="47.67597" lon="2.0970113">
        <ele>164</ele>
        <time>2022-02-24T08:19:10.000Z</time>
      </trkpt>
      <trkpt lat="47.67597" lon="2.097034">
        <ele>164</ele>
        <time>2022-02-24T08:19:11.000Z</time>
      </trkpt>
      <trkpt lat="47.675964" lon="2.097051">
        <ele>164</ele>
        <time>2022-02-24T08:19:12.000Z</time>
      </trkpt>
      <trkpt lat="47.67597" lon="2.0970678">
        <ele>164</ele>
        <time>2022-02-24T08:19:13.000Z</time>
      </trkpt>
      <trkpt lat="47.675972" lon="2.0970862">
        <ele>164</ele>
        <time>2022-02-24T08:19:14.000Z</time>
      </trkpt>
      <trkpt lat="47.67598" lon="2.0971034">
        <ele>163</ele>
        <time>2022-02-24T08:19:15.000Z</time>
      </trkpt>
      <trkpt lat="47.675983" lon="2.0971196">
        <ele>163</ele>
        <time>2022-02-24T08:19:16.000Z</time>
      </trkpt>
      <trkpt lat="47.675987" lon="2.097135">
        <ele>163</ele>
        <time>2022-02-24T08:19:17.000Z</time>
      </trkpt>
      <trkpt lat="47.675987" lon="2.097151">
        <ele>163</ele>
        <time>2022-02-24T08:19:18.000Z</time>
      </trkpt>
      <trkpt lat="47.675995" lon="2.0971692">
        <ele>163</ele>
        <time>2022-02-24T08:19:19.000Z</time>
      </trkpt>
      <trkpt lat="47.676" lon="2.0971892">
        <ele>163</ele>
        <time>2022-02-24T08:19:20.000Z</time>
      </trkpt>
      <trkpt lat="47.676003" lon="2.097209">
        <ele>162</ele>
        <time>2022-02-24T08:19:21.000Z</time>
      </trkpt>
      <trkpt lat="47.676003" lon="2.0972261">
        <ele>162</ele>
        <time>2022-02-24T08:19:22.000Z</time>
      </trkpt>
      <trkpt lat="47.676003" lon="2.0972261">
        <ele>162</ele>
        <time>2022-02-24T08:19:23.000Z</time>
      </trkpt>
      <trkpt lat="47.676003" lon="2.0972261">
        <ele>162</ele>
        <time>2022-02-24T08:19:24.000Z</time>
      </trkpt>
      <trkpt lat="47.67601" lon="2.0972803">
        <ele>162</ele>
        <time>2022-02-24T08:19:25.000Z</time>
      </trkpt>
      <trkpt lat="47.67601" lon="2.0972996">
        <ele>162</ele>
        <time>2022-02-24T08:19:26.000Z</time>
      </trkpt>
      <trkpt lat="47.676014" lon="2.09732">
        <ele>162</ele>
        <time>2022-02-24T08:19:27.000Z</time>
      </trkpt>
      <trkpt lat="47.676018" lon="2.0973434">
        <ele>162</ele>
        <time>2022-02-24T08:19:28.000Z</time>
      </trkpt>
      <trkpt lat="47.676018" lon="2.0973434">
        <ele>162</ele>
        <time>2022-02-24T08:19:29.000Z</time>
      </trkpt>
      <trkpt lat="47.676018" lon="2.0973434">
        <ele>162</ele>
        <time>2022-02-24T08:19:30.000Z</time>
      </trkpt>
      <trkpt lat="47.67602" lon="2.0973935">
        <ele>162</ele>
        <time>2022-02-24T08:19:31.000Z</time>
      </trkpt>
      <trkpt lat="47.67603" lon="2.0974162">
        <ele>162</ele>
        <time>2022-02-24T08:19:32.000Z</time>
      </trkpt>
      <trkpt lat="47.676037" lon="2.097434">
        <ele>162</ele>
        <time>2022-02-24T08:19:33.000Z</time>
      </trkpt>
      <trkpt lat="47.676044" lon="2.0974483">
        <ele>162</ele>
        <time>2022-02-24T08:19:34.000Z</time>
      </trkpt>
      <trkpt lat="47.676044" lon="2.0974483">
        <ele>162</ele>
        <time>2022-02-24T08:19:35.000Z</time>
      </trkpt>
      <trkpt lat="47.676044" lon="2.0974483">
        <ele>162</ele>
        <time>2022-02-24T08:19:36.000Z</time>
      </trkpt>
      <trkpt lat="47.676064" lon="2.0974772">
        <ele>161</ele>
        <time>2022-02-24T08:19:37.000Z</time>
      </trkpt>
      <trkpt lat="47.676067" lon="2.0974927">
        <ele>161</ele>
        <time>2022-02-24T08:19:38.000Z</time>
      </trkpt>
      <trkpt lat="47.676075" lon="2.0975077">
        <ele>161</ele>
        <time>2022-02-24T08:19:39.000Z</time>
      </trkpt>
      <trkpt lat="47.67608" lon="2.0975251">
        <ele>162</ele>
        <time>2022-02-24T08:19:40.000Z</time>
      </trkpt>
      <trkpt lat="47.67608" lon="2.0975251">
        <ele>162</ele>
        <time>2022-02-24T08:19:41.000Z</time>
      </trkpt>
      <trkpt lat="47.67608" lon="2.0975251">
        <ele>162</ele>
        <time>2022-02-24T08:19:42.000Z</time>
      </trkpt>
      <trkpt lat="47.676094" lon="2.0975597">
        <ele>162</ele>
        <time>2022-02-24T08:19:43.000Z</time>
      </trkpt>
      <trkpt lat="47.676098" lon="2.0975726">
        <ele>162</ele>
        <time>2022-02-24T08:19:44.000Z</time>
      </trkpt>
      <trkpt lat="47.676105" lon="2.097582">
        <ele>161</ele>
        <time>2022-02-24T08:19:45.000Z</time>
      </trkpt>
      <trkpt lat="47.67611" lon="2.0975924">
        <ele>161</ele>
        <time>2022-02-24T08:19:46.000Z</time>
      </trkpt>
      <trkpt lat="47.67611" lon="2.0975924">
        <ele>161</ele>
        <time>2022-02-24T08:19:47.000Z</time>
      </trkpt>
      <trkpt lat="47.67611" lon="2.0975924">
        <ele>161</ele>
        <time>2022-02-24T08:19:48.000Z</time>
      </trkpt>
      <trkpt lat="47.676125" lon="2.0976233">
        <ele>161</ele>
        <time>2022-02-24T08:19:49.000Z</time>
      </trkpt>
      <trkpt lat="47.676125" lon="2.097625">
        <ele>161</ele>
        <time>2022-02-24T08:19:50.000Z</time>
      </trkpt>
      <trkpt lat="47.676132" lon="2.0976298">
        <ele>161</ele>
        <time>2022-02-24T08:19:51.000Z</time>
      </trkpt>
      <trkpt lat="47.676136" lon="2.097641">
        <ele>161</ele>
        <time>2022-02-24T08:19:52.000Z</time>
      </trkpt>
      <trkpt lat="47.676136" lon="2.097641">
        <ele>161</ele>
        <time>2022-02-24T08:19:53.000Z</time>
      </trkpt>
      <trkpt lat="47.676136" lon="2.097641">
        <ele>161</ele>
        <time>2022-02-24T08:19:54.000Z</time>
      </trkpt>
      <trkpt lat="47.676155" lon="2.0976636">
        <ele>161</ele>
        <time>2022-02-24T08:19:55.000Z</time>
      </trkpt>
      <trkpt lat="47.676163" lon="2.097669">
        <ele>160</ele>
        <time>2022-02-24T08:19:56.000Z</time>
      </trkpt>
      <trkpt lat="47.676167" lon="2.0976796">
        <ele>160</ele>
        <time>2022-02-24T08:19:57.000Z</time>
      </trkpt>
      <trkpt lat="47.676174" lon="2.0976884">
        <ele>160</ele>
        <time>2022-02-24T08:19:58.000Z</time>
      </trkpt>
      <trkpt lat="47.676174" lon="2.0976884">
        <ele>160</ele>
        <time>2022-02-24T08:19:59.000Z</time>
      </trkpt>
      <trkpt lat="47.676174" lon="2.0976884">
        <ele>160</ele>
        <time>2022-02-24T08:20:00.000Z</time>
      </trkpt>
      <trkpt lat="47.676186" lon="2.0977046">
        <ele>160</ele>
        <time>2022-02-24T08:20:01.000Z</time>
      </trkpt>
      <trkpt lat="47.67619" lon="2.097713">
        <ele>159</ele>
        <time>2022-02-24T08:20:02.000Z</time>
      </trkpt>
      <trkpt lat="47.676197" lon="2.0977209">
        <ele>159</ele>
        <time>2022-02-24T08:20:03.000Z</time>
      </trkpt>
      <trkpt lat="47.676205" lon="2.0977292">
        <ele>159</ele>
        <time>2022-02-24T08:20:04.000Z</time>
      </trkpt>
      <trkpt lat="47.676205" lon="2.0977292">
        <ele>159</ele>
        <time>2022-02-24T08:20:05.000Z</time>
      </trkpt>
      <trkpt lat="47.676205" lon="2.0977292">
        <ele>159</ele>
        <time>2022-02-24T08:20:06.000Z</time>
      </trkpt>
      <trkpt lat="47.676228" lon="2.0977373">
        <ele>157</ele>
        <time>2022-02-24T08:20:07.000Z</time>
      </trkpt>
      <trkpt lat="47.67624" lon="2.0977442">
        <ele>157</ele>
        <time>2022-02-24T08:20:08.000Z</time>
      </trkpt>
      <trkpt lat="47.67625" lon="2.0977554">
        <ele>157</ele>
        <time>2022-02-24T08:20:09.000Z</time>
      </trkpt>
      <trkpt lat="47.67626" lon="2.097762">
        <ele>157</ele>
        <time>2022-02-24T08:20:10.000Z</time>
      </trkpt>
      <trkpt lat="47.67626" lon="2.097762">
        <ele>157</ele>
        <time>2022-02-24T08:20:11.000Z</time>
      </trkpt>
      <trkpt lat="47.676273" lon="2.0977807">
        <ele>156</ele>
        <time>2022-02-24T08:20:12.000Z</time>
      </trkpt>
      <trkpt lat="47.676285" lon="2.0977883">
        <ele>156</ele>
        <time>2022-02-24T08:20:13.000Z</time>
      </trkpt>
      <trkpt lat="47.676296" lon="2.097793">
        <ele>155</ele>
        <time>2022-02-24T08:20:14.000Z</time>
      </trkpt>
      <trkpt lat="47.676304" lon="2.0977998">
        <ele>155</ele>
        <time>2022-02-24T08:20:15.000Z</time>
      </trkpt>
      <trkpt lat="47.676304" lon="2.0977998">
        <ele>155</ele>
        <time>2022-02-24T08:20:16.000Z</time>
      </trkpt>
      <trkpt lat="47.676304" lon="2.0977998">
        <ele>155</ele>
        <time>2022-02-24T08:20:17.000Z</time>
      </trkpt>
      <trkpt lat="47.676323" lon="2.0978172">
        <ele>155</ele>
        <time>2022-02-24T08:20:18.000Z</time>
      </trkpt>
      <trkpt lat="47.676327" lon="2.097825">
        <ele>154</ele>
        <time>2022-02-24T08:20:19.000Z</time>
      </trkpt>
      <trkpt lat="47.676334" lon="2.09784">
        <ele>154</ele>
        <time>2022-02-24T08:20:20.000Z</time>
      </trkpt>
      <trkpt lat="47.67634" lon="2.097848">
        <ele>154</ele>
        <time>2022-02-24T08:20:21.000Z</time>
      </trkpt>
      <trkpt lat="47.67635" lon="2.0978553">
        <ele>153</ele>
        <time>2022-02-24T08:20:22.000Z</time>
      </trkpt>
      <trkpt lat="47.676365" lon="2.0978656">
        <ele>154</ele>
        <time>2022-02-24T08:20:23.000Z</time>
      </trkpt>
      <trkpt lat="47.676373" lon="2.0978742">
        <ele>153</ele>
        <time>2022-02-24T08:20:24.000Z</time>
      </trkpt>
      <trkpt lat="47.67638" lon="2.0978858">
        <ele>153</ele>
        <time>2022-02-24T08:20:25.000Z</time>
      </trkpt>
      <trkpt lat="47.67639" lon="2.0978932">
        <ele>153</ele>
        <time>2022-02-24T08:20:26.000Z</time>
      </trkpt>
      <trkpt lat="47.676403" lon="2.0978997">
        <ele>153</ele>
        <time>2022-02-24T08:20:27.000Z</time>
      </trkpt>
      <trkpt lat="47.67642" lon="2.0979042">
        <ele>152</ele>
        <time>2022-02-24T08:20:28.000Z</time>
      </trkpt>
      <trkpt lat="47.67643" lon="2.0979073">
        <ele>152</ele>
        <time>2022-02-24T08:20:29.000Z</time>
      </trkpt>
      <trkpt lat="47.67643" lon="2.0979073">
        <ele>152</ele>
        <time>2022-02-24T08:20:30.000Z</time>
      </trkpt>
      <trkpt lat="47.67643" lon="2.0979073">
        <ele>152</ele>
        <time>2022-02-24T08:20:31.000Z</time>
      </trkpt>
      <trkpt lat="47.67646" lon="2.0979292">
        <ele>152</ele>
        <time>2022-02-24T08:20:32.000Z</time>
      </trkpt>
      <trkpt lat="47.676468" lon="2.0979323">
        <ele>151</ele>
        <time>2022-02-24T08:20:33.000Z</time>
      </trkpt>
      <trkpt lat="47.67647" lon="2.0979416">
        <ele>151</ele>
        <time>2022-02-24T08:20:34.000Z</time>
      </trkpt>
      <trkpt lat="47.676483" lon="2.0979536">
        <ele>151</ele>
        <time>2022-02-24T08:20:35.000Z</time>
      </trkpt>
      <trkpt lat="47.676483" lon="2.0979536">
        <ele>151</ele>
        <time>2022-02-24T08:20:36.000Z</time>
      </trkpt>
      <trkpt lat="47.676483" lon="2.0979536">
        <ele>151</ele>
        <time>2022-02-24T08:20:37.000Z</time>
      </trkpt>
      <trkpt lat="47.676506" lon="2.0979624">
        <ele>151</ele>
        <time>2022-02-24T08:20:38.000Z</time>
      </trkpt>
      <trkpt lat="47.67651" lon="2.0979638">
        <ele>151</ele>
        <time>2022-02-24T08:20:39.000Z</time>
      </trkpt>
      <trkpt lat="47.676517" lon="2.0979617">
        <ele>151</ele>
        <time>2022-02-24T08:20:40.000Z</time>
      </trkpt>
      <trkpt lat="47.67652" lon="2.0979645">
        <ele>151</ele>
        <time>2022-02-24T08:20:41.000Z</time>
      </trkpt>
      <trkpt lat="47.676533" lon="2.0979707">
        <ele>151</ele>
        <time>2022-02-24T08:20:42.000Z</time>
      </trkpt>
      <trkpt lat="47.676548" lon="2.0979805">
        <ele>150</ele>
        <time>2022-02-24T08:20:43.000Z</time>
      </trkpt>
      <trkpt lat="47.67656" lon="2.097987">
        <ele>150</ele>
        <time>2022-02-24T08:20:44.000Z</time>
      </trkpt>
      <trkpt lat="47.676575" lon="2.0979922">
        <ele>150</ele>
        <time>2022-02-24T08:20:45.000Z</time>
      </trkpt>
      <trkpt lat="47.67659" lon="2.0979953">
        <ele>151</ele>
        <time>2022-02-24T08:20:46.000Z</time>
      </trkpt>
      <trkpt lat="47.676613" lon="2.0980003">
        <ele>151</ele>
        <time>2022-02-24T08:20:47.000Z</time>
      </trkpt>
      <trkpt lat="47.67663" lon="2.0980058">
        <ele>152</ele>
        <time>2022-02-24T08:20:48.000Z</time>
      </trkpt>
      <trkpt lat="47.676643" lon="2.0980103">
        <ele>152</ele>
        <time>2022-02-24T08:20:49.000Z</time>
      </trkpt>
      <trkpt lat="47.67666" lon="2.0980153">
        <ele>152</ele>
        <time>2022-02-24T08:20:50.000Z</time>
      </trkpt>
      <trkpt lat="47.676674" lon="2.098019">
        <ele>152</ele>
        <time>2022-02-24T08:20:51.000Z</time>
      </trkpt>
      <trkpt lat="47.67669" lon="2.0980268">
        <ele>153</ele>
        <time>2022-02-24T08:20:52.000Z</time>
      </trkpt>
      <trkpt lat="47.6767" lon="2.0980318">
        <ele>153</ele>
        <time>2022-02-24T08:20:53.000Z</time>
      </trkpt>
      <trkpt lat="47.676712" lon="2.0980358">
        <ele>153</ele>
        <time>2022-02-24T08:20:54.000Z</time>
      </trkpt>
      <trkpt lat="47.676723" lon="2.0980442">
        <ele>152</ele>
        <time>2022-02-24T08:20:55.000Z</time>
      </trkpt>
      <trkpt lat="47.676735" lon="2.098053">
        <ele>152</ele>
        <time>2022-02-24T08:20:56.000Z</time>
      </trkpt>
      <trkpt lat="47.67675" lon="2.0980644">
        <ele>152</ele>
        <time>2022-02-24T08:20:57.000Z</time>
      </trkpt>
      <trkpt lat="47.67675" lon="2.0980644">
        <ele>152</ele>
        <time>2022-02-24T08:20:58.000Z</time>
      </trkpt>
      <trkpt lat="47.676777" lon="2.0980752">
        <ele>152</ele>
        <time>2022-02-24T08:20:59.000Z</time>
      </trkpt>
      <trkpt lat="47.676792" lon="2.098086">
        <ele>153</ele>
        <time>2022-02-24T08:21:00.000Z</time>
      </trkpt>
      <trkpt lat="47.67681" lon="2.098102">
        <ele>153</ele>
        <time>2022-02-24T08:21:01.000Z</time>
      </trkpt>
      <trkpt lat="47.676823" lon="2.098109">
        <ele>153</ele>
        <time>2022-02-24T08:21:02.000Z</time>
      </trkpt>
      <trkpt lat="47.676834" lon="2.0981164">
        <ele>153</ele>
        <time>2022-02-24T08:21:03.000Z</time>
      </trkpt>
      <trkpt lat="47.67685" lon="2.098126">
        <ele>153</ele>
        <time>2022-02-24T08:21:04.000Z</time>
      </trkpt>
      <trkpt lat="47.676865" lon="2.0981286">
        <ele>153</ele>
        <time>2022-02-24T08:21:05.000Z</time>
      </trkpt>
      <trkpt lat="47.676876" lon="2.0981357">
        <ele>153</ele>
        <time>2022-02-24T08:21:06.000Z</time>
      </trkpt>
      <trkpt lat="47.676888" lon="2.0981436">
        <ele>154</ele>
        <time>2022-02-24T08:21:07.000Z</time>
      </trkpt>
      <trkpt lat="47.676907" lon="2.0981522">
        <ele>153</ele>
        <time>2022-02-24T08:21:08.000Z</time>
      </trkpt>
      <trkpt lat="47.67692" lon="2.0981617">
        <ele>153</ele>
        <time>2022-02-24T08:21:09.000Z</time>
      </trkpt>
      <trkpt lat="47.676937" lon="2.0981746">
        <ele>153</ele>
        <time>2022-02-24T08:21:10.000Z</time>
      </trkpt>
      <trkpt lat="47.676952" lon="2.0981846">
        <ele>153</ele>
        <time>2022-02-24T08:21:11.000Z</time>
      </trkpt>
      <trkpt lat="47.676968" lon="2.0981963">
        <ele>153</ele>
        <time>2022-02-24T08:21:12.000Z</time>
      </trkpt>
      <trkpt lat="47.676983" lon="2.0982044">
        <ele>153</ele>
        <time>2022-02-24T08:21:13.000Z</time>
      </trkpt>
      <trkpt lat="47.677006" lon="2.0982132">
        <ele>153</ele>
        <time>2022-02-24T08:21:14.000Z</time>
      </trkpt>
      <trkpt lat="47.677017" lon="2.09822">
        <ele>153</ele>
        <time>2022-02-24T08:21:15.000Z</time>
      </trkpt>
      <trkpt lat="47.67703" lon="2.0982268">
        <ele>154</ele>
        <time>2022-02-24T08:21:16.000Z</time>
      </trkpt>
      <trkpt lat="47.677044" lon="2.0982332">
        <ele>155</ele>
        <time>2022-02-24T08:21:17.000Z</time>
      </trkpt>
      <trkpt lat="47.677063" lon="2.0982373">
        <ele>155</ele>
        <time>2022-02-24T08:21:18.000Z</time>
      </trkpt>
      <trkpt lat="47.677074" lon="2.098242">
        <ele>156</ele>
        <time>2022-02-24T08:21:19.000Z</time>
      </trkpt>
      <trkpt lat="47.67709" lon="2.098247">
        <ele>157</ele>
        <time>2022-02-24T08:21:20.000Z</time>
      </trkpt>
      <trkpt lat="47.6771" lon="2.0982513">
        <ele>158</ele>
        <time>2022-02-24T08:21:21.000Z</time>
      </trkpt>
      <trkpt lat="47.677113" lon="2.098255">
        <ele>158</ele>
        <time>2022-02-24T08:21:22.000Z</time>
      </trkpt>
      <trkpt lat="47.677128" lon="2.0982568">
        <ele>158</ele>
        <time>2022-02-24T08:21:23.000Z</time>
      </trkpt>
      <trkpt lat="47.677143" lon="2.0982583">
        <ele>158</ele>
        <time>2022-02-24T08:21:24.000Z</time>
      </trkpt>
      <trkpt lat="47.67716" lon="2.0982583">
        <ele>158</ele>
        <time>2022-02-24T08:21:25.000Z</time>
      </trkpt>
      <trkpt lat="47.677174" lon="2.0982602">
        <ele>159</ele>
        <time>2022-02-24T08:21:26.000Z</time>
      </trkpt>
      <trkpt lat="47.677185" lon="2.0982652">
        <ele>159</ele>
        <time>2022-02-24T08:21:27.000Z</time>
      </trkpt>
      <trkpt lat="47.677193" lon="2.0982711">
        <ele>158</ele>
        <time>2022-02-24T08:21:28.000Z</time>
      </trkpt>
      <trkpt lat="47.677204" lon="2.0982726">
        <ele>159</ele>
        <time>2022-02-24T08:21:29.000Z</time>
      </trkpt>
      <trkpt lat="47.67721" lon="2.0982769">
        <ele>159</ele>
        <time>2022-02-24T08:21:30.000Z</time>
      </trkpt>
      <trkpt lat="47.67721" lon="2.0982769">
        <ele>159</ele>
        <time>2022-02-24T08:21:31.000Z</time>
      </trkpt>
      <trkpt lat="47.67721" lon="2.0982769">
        <ele>159</ele>
        <time>2022-02-24T08:21:32.000Z</time>
      </trkpt>
      <trkpt lat="47.67723" lon="2.0982907">
        <ele>160</ele>
        <time>2022-02-24T08:21:33.000Z</time>
      </trkpt>
      <trkpt lat="47.677242" lon="2.098298">
        <ele>160</ele>
        <time>2022-02-24T08:21:34.000Z</time>
      </trkpt>
      <trkpt lat="47.677254" lon="2.0983043">
        <ele>160</ele>
        <time>2022-02-24T08:21:35.000Z</time>
      </trkpt>
      <trkpt lat="47.67727" lon="2.098315">
        <ele>160</ele>
        <time>2022-02-24T08:21:36.000Z</time>
      </trkpt>
      <trkpt lat="47.677284" lon="2.098323">
        <ele>160</ele>
        <time>2022-02-24T08:21:37.000Z</time>
      </trkpt>
      <trkpt lat="47.6773" lon="2.0983324">
        <ele>160</ele>
        <time>2022-02-24T08:21:38.000Z</time>
      </trkpt>
      <trkpt lat="47.67731" lon="2.0983422">
        <ele>160</ele>
        <time>2022-02-24T08:21:39.000Z</time>
      </trkpt>
      <trkpt lat="47.677322" lon="2.0983512">
        <ele>160</ele>
        <time>2022-02-24T08:21:40.000Z</time>
      </trkpt>
      <trkpt lat="47.677326" lon="2.0983596">
        <ele>161</ele>
        <time>2022-02-24T08:21:41.000Z</time>
      </trkpt>
      <trkpt lat="47.677326" lon="2.0983596">
        <ele>161</ele>
        <time>2022-02-24T08:21:42.000Z</time>
      </trkpt>
      <trkpt lat="47.677326" lon="2.0983596">
        <ele>161</ele>
        <time>2022-02-24T08:21:43.000Z</time>
      </trkpt>
      <trkpt lat="47.677353" lon="2.0983903">
        <ele>161</ele>
        <time>2022-02-24T08:21:44.000Z</time>
      </trkpt>
      <trkpt lat="47.67736" lon="2.0983987">
        <ele>161</ele>
        <time>2022-02-24T08:21:45.000Z</time>
      </trkpt>
      <trkpt lat="47.677364" lon="2.0984046">
        <ele>161</ele>
        <time>2022-02-24T08:21:46.000Z</time>
      </trkpt>
      <trkpt lat="47.677376" lon="2.0984166">
        <ele>161</ele>
        <time>2022-02-24T08:21:47.000Z</time>
      </trkpt>
      <trkpt lat="47.677376" lon="2.0984166">
        <ele>161</ele>
        <time>2022-02-24T08:21:48.000Z</time>
      </trkpt>
      <trkpt lat="47.677376" lon="2.0984166">
        <ele>161</ele>
        <time>2022-02-24T08:21:49.000Z</time>
      </trkpt>
      <trkpt lat="47.677402" lon="2.0984366">
        <ele>160</ele>
        <time>2022-02-24T08:21:50.000Z</time>
      </trkpt>
      <trkpt lat="47.677418" lon="2.0984502">
        <ele>159</ele>
        <time>2022-02-24T08:21:51.000Z</time>
      </trkpt>
      <trkpt lat="47.677425" lon="2.098456">
        <ele>160</ele>
        <time>2022-02-24T08:21:52.000Z</time>
      </trkpt>
      <trkpt lat="47.677437" lon="2.0984654">
        <ele>159</ele>
        <time>2022-02-24T08:21:53.000Z</time>
      </trkpt>
      <trkpt lat="47.677433" lon="2.0984652">
        <ele>159</ele>
        <time>2022-02-24T08:21:54.000Z</time>
      </trkpt>
      <trkpt lat="47.67744" lon="2.0984693">
        <ele>159</ele>
        <time>2022-02-24T08:21:55.000Z</time>
      </trkpt>
      <trkpt lat="47.67745" lon="2.0984716">
        <ele>158</ele>
        <time>2022-02-24T08:21:56.000Z</time>
      </trkpt>
      <trkpt lat="47.67745" lon="2.0984716">
        <ele>158</ele>
        <time>2022-02-24T08:21:57.000Z</time>
      </trkpt>
      <trkpt lat="47.67745" lon="2.0984716">
        <ele>158</ele>
        <time>2022-02-24T08:21:58.000Z</time>
      </trkpt>
      <trkpt lat="47.677475" lon="2.0984828">
        <ele>157</ele>
        <time>2022-02-24T08:21:59.000Z</time>
      </trkpt>
      <trkpt lat="47.677483" lon="2.0984898">
        <ele>156</ele>
        <time>2022-02-24T08:22:00.000Z</time>
      </trkpt>
      <trkpt lat="47.67749" lon="2.0984936">
        <ele>156</ele>
        <time>2022-02-24T08:22:01.000Z</time>
      </trkpt>
      <trkpt lat="47.6775" lon="2.0984974">
        <ele>156</ele>
        <time>2022-02-24T08:22:02.000Z</time>
      </trkpt>
      <trkpt lat="47.6775" lon="2.0984974">
        <ele>156</ele>
        <time>2022-02-24T08:22:03.000Z</time>
      </trkpt>
      <trkpt lat="47.6775" lon="2.0984974">
        <ele>156</ele>
        <time>2022-02-24T08:22:04.000Z</time>
      </trkpt>
      <trkpt lat="47.677525" lon="2.0985096">
        <ele>156</ele>
        <time>2022-02-24T08:22:05.000Z</time>
      </trkpt>
      <trkpt lat="47.67753" lon="2.0985153">
        <ele>156</ele>
        <time>2022-02-24T08:22:06.000Z</time>
      </trkpt>
      <trkpt lat="47.677532" lon="2.0985208">
        <ele>156</ele>
        <time>2022-02-24T08:22:07.000Z</time>
      </trkpt>
      <trkpt lat="47.67754" lon="2.0985293">
        <ele>156</ele>
        <time>2022-02-24T08:22:08.000Z</time>
      </trkpt>
      <trkpt lat="47.67754" lon="2.0985293">
        <ele>156</ele>
        <time>2022-02-24T08:22:09.000Z</time>
      </trkpt>
      <trkpt lat="47.67754" lon="2.0985293">
        <ele>156</ele>
        <time>2022-02-24T08:22:10.000Z</time>
      </trkpt>
      <trkpt lat="47.677567" lon="2.098529">
        <ele>156</ele>
        <time>2022-02-24T08:22:11.000Z</time>
      </trkpt>
      <trkpt lat="47.67758" lon="2.0985239">
        <ele>156</ele>
        <time>2022-02-24T08:22:12.000Z</time>
      </trkpt>
      <trkpt lat="47.677597" lon="2.0985253">
        <ele>156</ele>
        <time>2022-02-24T08:22:13.000Z</time>
      </trkpt>
      <trkpt lat="47.67761" lon="2.0985253">
        <ele>156</ele>
        <time>2022-02-24T08:22:14.000Z</time>
      </trkpt>
      <trkpt lat="47.67762" lon="2.0985289">
        <ele>156</ele>
        <time>2022-02-24T08:22:15.000Z</time>
      </trkpt>
      <trkpt lat="47.677628" lon="2.0985286">
        <ele>156</ele>
        <time>2022-02-24T08:22:16.000Z</time>
      </trkpt>
      <trkpt lat="47.677628" lon="2.0985286">
        <ele>156</ele>
        <time>2022-02-24T08:22:17.000Z</time>
      </trkpt>
      <trkpt lat="47.67765" lon="2.0985408">
        <ele>155</ele>
        <time>2022-02-24T08:22:18.000Z</time>
      </trkpt>
      <trkpt lat="47.677666" lon="2.0985475">
        <ele>155</ele>
        <time>2022-02-24T08:22:19.000Z</time>
      </trkpt>
      <trkpt lat="47.677677" lon="2.0985525">
        <ele>155</ele>
        <time>2022-02-24T08:22:20.000Z</time>
      </trkpt>
      <trkpt lat="47.677685" lon="2.0985575">
        <ele>154</ele>
        <time>2022-02-24T08:22:21.000Z</time>
      </trkpt>
      <trkpt lat="47.677692" lon="2.0985668">
        <ele>154</ele>
        <time>2022-02-24T08:22:22.000Z</time>
      </trkpt>
      <trkpt lat="47.677692" lon="2.0985668">
        <ele>154</ele>
        <time>2022-02-24T08:22:23.000Z</time>
      </trkpt>
      <trkpt lat="47.677692" lon="2.0985668">
        <ele>154</ele>
        <time>2022-02-24T08:22:24.000Z</time>
      </trkpt>
      <trkpt lat="47.677708" lon="2.0985909">
        <ele>152</ele>
        <time>2022-02-24T08:22:25.000Z</time>
      </trkpt>
      <trkpt lat="47.67772" lon="2.0985947">
        <ele>152</ele>
        <time>2022-02-24T08:22:26.000Z</time>
      </trkpt>
      <trkpt lat="47.67773" lon="2.0986028">
        <ele>152</ele>
        <time>2022-02-24T08:22:27.000Z</time>
      </trkpt>
      <trkpt lat="47.677742" lon="2.0986075">
        <ele>152</ele>
        <time>2022-02-24T08:22:28.000Z</time>
      </trkpt>
      <trkpt lat="47.677746" lon="2.098612">
        <ele>152</ele>
        <time>2022-02-24T08:22:29.000Z</time>
      </trkpt>
      <trkpt lat="47.67775" lon="2.098621">
        <ele>151</ele>
        <time>2022-02-24T08:22:30.000Z</time>
      </trkpt>
      <trkpt lat="47.677753" lon="2.0986266">
        <ele>151</ele>
        <time>2022-02-24T08:22:31.000Z</time>
      </trkpt>
      <trkpt lat="47.677765" lon="2.0986323">
        <ele>151</ele>
        <time>2022-02-24T08:22:32.000Z</time>
      </trkpt>
      <trkpt lat="47.677765" lon="2.0986323">
        <ele>151</ele>
        <time>2022-02-24T08:22:33.000Z</time>
      </trkpt>
      <trkpt lat="47.677765" lon="2.0986323">
        <ele>151</ele>
        <time>2022-02-24T08:22:34.000Z</time>
      </trkpt>
      <trkpt lat="47.677784" lon="2.0986524">
        <ele>150</ele>
        <time>2022-02-24T08:22:35.000Z</time>
      </trkpt>
      <trkpt lat="47.677795" lon="2.098663">
        <ele>150</ele>
        <time>2022-02-24T08:22:36.000Z</time>
      </trkpt>
      <trkpt lat="47.677803" lon="2.0986757">
        <ele>150</ele>
        <time>2022-02-24T08:22:37.000Z</time>
      </trkpt>
      <trkpt lat="47.677814" lon="2.0986862">
        <ele>150</ele>
        <time>2022-02-24T08:22:38.000Z</time>
      </trkpt>
      <trkpt lat="47.677814" lon="2.0986862">
        <ele>150</ele>
        <time>2022-02-24T08:22:39.000Z</time>
      </trkpt>
      <trkpt lat="47.677814" lon="2.0986862">
        <ele>150</ele>
        <time>2022-02-24T08:22:40.000Z</time>
      </trkpt>
      <trkpt lat="47.67784" lon="2.0987055">
        <ele>150</ele>
        <time>2022-02-24T08:22:41.000Z</time>
      </trkpt>
      <trkpt lat="47.677853" lon="2.0987103">
        <ele>150</ele>
        <time>2022-02-24T08:22:42.000Z</time>
      </trkpt>
      <trkpt lat="47.67786" lon="2.0987177">
        <ele>150</ele>
        <time>2022-02-24T08:22:43.000Z</time>
      </trkpt>
      <trkpt lat="47.67787" lon="2.098728">
        <ele>150</ele>
        <time>2022-02-24T08:22:44.000Z</time>
      </trkpt>
      <trkpt lat="47.67787" lon="2.098728">
        <ele>150</ele>
        <time>2022-02-24T08:22:45.000Z</time>
      </trkpt>
      <trkpt lat="47.67787" lon="2.098728">
        <ele>150</ele>
        <time>2022-02-24T08:22:46.000Z</time>
      </trkpt>
      <trkpt lat="47.677895" lon="2.0987504">
        <ele>150</ele>
        <time>2022-02-24T08:22:47.000Z</time>
      </trkpt>
      <trkpt lat="47.67791" lon="2.0987632">
        <ele>150</ele>
        <time>2022-02-24T08:22:48.000Z</time>
      </trkpt>
      <trkpt lat="47.67793" lon="2.0987668">
        <ele>151</ele>
        <time>2022-02-24T08:22:49.000Z</time>
      </trkpt>
      <trkpt lat="47.67794" lon="2.0987732">
        <ele>151</ele>
        <time>2022-02-24T08:22:50.000Z</time>
      </trkpt>
      <trkpt lat="47.67796" lon="2.0987806">
        <ele>151</ele>
        <time>2022-02-24T08:22:51.000Z</time>
      </trkpt>
      <trkpt lat="47.677975" lon="2.0987887">
        <ele>151</ele>
        <time>2022-02-24T08:22:52.000Z</time>
      </trkpt>
      <trkpt lat="47.677986" lon="2.0987954">
        <ele>152</ele>
        <time>2022-02-24T08:22:53.000Z</time>
      </trkpt>
      <trkpt lat="47.678" lon="2.0987997">
        <ele>152</ele>
        <time>2022-02-24T08:22:54.000Z</time>
      </trkpt>
      <trkpt lat="47.678017" lon="2.098808">
        <ele>152</ele>
        <time>2022-02-24T08:22:55.000Z</time>
      </trkpt>
      <trkpt lat="47.678032" lon="2.098813">
        <ele>152</ele>
        <time>2022-02-24T08:22:56.000Z</time>
      </trkpt>
      <trkpt lat="47.678047" lon="2.0988207">
        <ele>153</ele>
        <time>2022-02-24T08:22:57.000Z</time>
      </trkpt>
      <trkpt lat="47.678066" lon="2.098824">
        <ele>153</ele>
        <time>2022-02-24T08:22:58.000Z</time>
      </trkpt>
      <trkpt lat="47.67808" lon="2.0988286">
        <ele>154</ele>
        <time>2022-02-24T08:22:59.000Z</time>
      </trkpt>
      <trkpt lat="47.678097" lon="2.098836">
        <ele>154</ele>
        <time>2022-02-24T08:23:00.000Z</time>
      </trkpt>
      <trkpt lat="47.678112" lon="2.0988429">
        <ele>154</ele>
        <time>2022-02-24T08:23:01.000Z</time>
      </trkpt>
      <trkpt lat="47.678123" lon="2.0988507">
        <ele>153</ele>
        <time>2022-02-24T08:23:02.000Z</time>
      </trkpt>
      <trkpt lat="47.678135" lon="2.0988574">
        <ele>153</ele>
        <time>2022-02-24T08:23:03.000Z</time>
      </trkpt>
      <trkpt lat="47.678143" lon="2.098866">
        <ele>154</ele>
        <time>2022-02-24T08:23:04.000Z</time>
      </trkpt>
      <trkpt lat="47.67815" lon="2.0988724">
        <ele>154</ele>
        <time>2022-02-24T08:23:05.000Z</time>
      </trkpt>
      <trkpt lat="47.67816" lon="2.0988786">
        <ele>154</ele>
        <time>2022-02-24T08:23:06.000Z</time>
      </trkpt>
      <trkpt lat="47.67816" lon="2.0988786">
        <ele>154</ele>
        <time>2022-02-24T08:23:07.000Z</time>
      </trkpt>
      <trkpt lat="47.67816" lon="2.0988786">
        <ele>154</ele>
        <time>2022-02-24T08:23:08.000Z</time>
      </trkpt>
      <trkpt lat="47.67819" lon="2.0988998">
        <ele>155</ele>
        <time>2022-02-24T08:23:09.000Z</time>
      </trkpt>
      <trkpt lat="47.678204" lon="2.0989027">
        <ele>155</ele>
        <time>2022-02-24T08:23:10.000Z</time>
      </trkpt>
      <trkpt lat="47.67822" lon="2.098905">
        <ele>155</ele>
        <time>2022-02-24T08:23:11.000Z</time>
      </trkpt>
      <trkpt lat="47.67823" lon="2.0989106">
        <ele>155</ele>
        <time>2022-02-24T08:23:12.000Z</time>
      </trkpt>
      <trkpt lat="47.67824" lon="2.0989208">
        <ele>155</ele>
        <time>2022-02-24T08:23:13.000Z</time>
      </trkpt>
      <trkpt lat="47.678257" lon="2.0989285">
        <ele>155</ele>
        <time>2022-02-24T08:23:14.000Z</time>
      </trkpt>
      <trkpt lat="47.678272" lon="2.0989337">
        <ele>156</ele>
        <time>2022-02-24T08:23:15.000Z</time>
      </trkpt>
      <trkpt lat="47.678284" lon="2.0989318">
        <ele>156</ele>
        <time>2022-02-24T08:23:16.000Z</time>
      </trkpt>
      <trkpt lat="47.6783" lon="2.0989397">
        <ele>156</ele>
        <time>2022-02-24T08:23:17.000Z</time>
      </trkpt>
      <trkpt lat="47.678314" lon="2.0989504">
        <ele>156</ele>
        <time>2022-02-24T08:23:18.000Z</time>
      </trkpt>
      <trkpt lat="47.67833" lon="2.0989563">
        <ele>156</ele>
        <time>2022-02-24T08:23:19.000Z</time>
      </trkpt>
      <trkpt lat="47.678345" lon="2.0989656">
        <ele>156</ele>
        <time>2022-02-24T08:23:20.000Z</time>
      </trkpt>
      <trkpt lat="47.678364" lon="2.0989785">
        <ele>156</ele>
        <time>2022-02-24T08:23:21.000Z</time>
      </trkpt>
      <trkpt lat="47.67838" lon="2.098984">
        <ele>156</ele>
        <time>2022-02-24T08:23:22.000Z</time>
      </trkpt>
      <trkpt lat="47.67839" lon="2.0989933">
        <ele>157</ele>
        <time>2022-02-24T08:23:23.000Z</time>
      </trkpt>
      <trkpt lat="47.678402" lon="2.098997">
        <ele>157</ele>
        <time>2022-02-24T08:23:24.000Z</time>
      </trkpt>
      <trkpt lat="47.678417" lon="2.0990071">
        <ele>157</ele>
        <time>2022-02-24T08:23:25.000Z</time>
      </trkpt>
      <trkpt lat="47.67843" lon="2.099015">
        <ele>157</ele>
        <time>2022-02-24T08:23:26.000Z</time>
      </trkpt>
      <trkpt lat="47.678444" lon="2.0990212">
        <ele>157</ele>
        <time>2022-02-24T08:23:27.000Z</time>
      </trkpt>
      <trkpt lat="47.678455" lon="2.0990324">
        <ele>156</ele>
        <time>2022-02-24T08:23:28.000Z</time>
      </trkpt>
      <trkpt lat="47.678474" lon="2.0990431">
        <ele>156</ele>
        <time>2022-02-24T08:23:29.000Z</time>
      </trkpt>
      <trkpt lat="47.67849" lon="2.0990515">
        <ele>157</ele>
        <time>2022-02-24T08:23:30.000Z</time>
      </trkpt>
      <trkpt lat="47.6785" lon="2.0990613">
        <ele>157</ele>
        <time>2022-02-24T08:23:31.000Z</time>
      </trkpt>
      <trkpt lat="47.67851" lon="2.0990655">
        <ele>157</ele>
        <time>2022-02-24T08:23:32.000Z</time>
      </trkpt>
      <trkpt lat="47.678524" lon="2.0990772">
        <ele>157</ele>
        <time>2022-02-24T08:23:33.000Z</time>
      </trkpt>
      <trkpt lat="47.67854" lon="2.0990853">
        <ele>157</ele>
        <time>2022-02-24T08:23:34.000Z</time>
      </trkpt>
      <trkpt lat="47.67855" lon="2.09909">
        <ele>157</ele>
        <time>2022-02-24T08:23:35.000Z</time>
      </trkpt>
      <trkpt lat="47.678566" lon="2.09909">
        <ele>158</ele>
        <time>2022-02-24T08:23:36.000Z</time>
      </trkpt>
      <trkpt lat="47.678577" lon="2.0990925">
        <ele>158</ele>
        <time>2022-02-24T08:23:37.000Z</time>
      </trkpt>
      <trkpt lat="47.678593" lon="2.0991008">
        <ele>158</ele>
        <time>2022-02-24T08:23:38.000Z</time>
      </trkpt>
      <trkpt lat="47.678604" lon="2.099111">
        <ele>157</ele>
        <time>2022-02-24T08:23:39.000Z</time>
      </trkpt>
      <trkpt lat="47.678616" lon="2.0991187">
        <ele>157</ele>
        <time>2022-02-24T08:23:40.000Z</time>
      </trkpt>
      <trkpt lat="47.678627" lon="2.099127">
        <ele>157</ele>
        <time>2022-02-24T08:23:41.000Z</time>
      </trkpt>
      <trkpt lat="47.67864" lon="2.099132">
        <ele>157</ele>
        <time>2022-02-24T08:23:42.000Z</time>
      </trkpt>
      <trkpt lat="47.678654" lon="2.099141">
        <ele>157</ele>
        <time>2022-02-24T08:23:43.000Z</time>
      </trkpt>
      <trkpt lat="47.678665" lon="2.0991464">
        <ele>158</ele>
        <time>2022-02-24T08:23:44.000Z</time>
      </trkpt>
      <trkpt lat="47.67868" lon="2.0991476">
        <ele>158</ele>
        <time>2022-02-24T08:23:45.000Z</time>
      </trkpt>
      <trkpt lat="47.67869" lon="2.099147">
        <ele>159</ele>
        <time>2022-02-24T08:23:46.000Z</time>
      </trkpt>
      <trkpt lat="47.67871" lon="2.099152">
        <ele>159</ele>
        <time>2022-02-24T08:23:47.000Z</time>
      </trkpt>
      <trkpt lat="47.67872" lon="2.099155">
        <ele>159</ele>
        <time>2022-02-24T08:23:48.000Z</time>
      </trkpt>
      <trkpt lat="47.678734" lon="2.099164">
        <ele>159</ele>
        <time>2022-02-24T08:23:49.000Z</time>
      </trkpt>
      <trkpt lat="47.678745" lon="2.0991733">
        <ele>159</ele>
        <time>2022-02-24T08:23:50.000Z</time>
      </trkpt>
      <trkpt lat="47.678757" lon="2.0991745">
        <ele>159</ele>
        <time>2022-02-24T08:23:51.000Z</time>
      </trkpt>
      <trkpt lat="47.678764" lon="2.0991802">
        <ele>159</ele>
        <time>2022-02-24T08:23:52.000Z</time>
      </trkpt>
      <trkpt lat="47.678772" lon="2.0991876">
        <ele>160</ele>
        <time>2022-02-24T08:23:53.000Z</time>
      </trkpt>
      <trkpt lat="47.678783" lon="2.099194">
        <ele>160</ele>
        <time>2022-02-24T08:23:54.000Z</time>
      </trkpt>
      <trkpt lat="47.6788" lon="2.0991995">
        <ele>160</ele>
        <time>2022-02-24T08:23:55.000Z</time>
      </trkpt>
      <trkpt lat="47.67881" lon="2.0992098">
        <ele>160</ele>
        <time>2022-02-24T08:23:56.000Z</time>
      </trkpt>
      <trkpt lat="47.67882" lon="2.099217">
        <ele>160</ele>
        <time>2022-02-24T08:23:57.000Z</time>
      </trkpt>
      <trkpt lat="47.678837" lon="2.0992298">
        <ele>160</ele>
        <time>2022-02-24T08:23:58.000Z</time>
      </trkpt>
      <trkpt lat="47.67885" lon="2.0992365">
        <ele>160</ele>
        <time>2022-02-24T08:23:59.000Z</time>
      </trkpt>
      <trkpt lat="47.67886" lon="2.099245">
        <ele>160</ele>
        <time>2022-02-24T08:24:00.000Z</time>
      </trkpt>
      <trkpt lat="47.678867" lon="2.0992527">
        <ele>160</ele>
        <time>2022-02-24T08:24:01.000Z</time>
      </trkpt>
      <trkpt lat="47.67888" lon="2.0992641">
        <ele>160</ele>
        <time>2022-02-24T08:24:02.000Z</time>
      </trkpt>
      <trkpt lat="47.67889" lon="2.099274">
        <ele>161</ele>
        <time>2022-02-24T08:24:03.000Z</time>
      </trkpt>
      <trkpt lat="47.6789" lon="2.099288">
        <ele>161</ele>
        <time>2022-02-24T08:24:04.000Z</time>
      </trkpt>
      <trkpt lat="47.678913" lon="2.0992923">
        <ele>160</ele>
        <time>2022-02-24T08:24:05.000Z</time>
      </trkpt>
      <trkpt lat="47.67892" lon="2.0992908">
        <ele>160</ele>
        <time>2022-02-24T08:24:06.000Z</time>
      </trkpt>
      <trkpt lat="47.678932" lon="2.0993001">
        <ele>160</ele>
        <time>2022-02-24T08:24:07.000Z</time>
      </trkpt>
      <trkpt lat="47.678944" lon="2.099308">
        <ele>160</ele>
        <time>2022-02-24T08:24:08.000Z</time>
      </trkpt>
      <trkpt lat="47.678955" lon="2.099314">
        <ele>160</ele>
        <time>2022-02-24T08:24:09.000Z</time>
      </trkpt>
      <trkpt lat="47.678967" lon="2.099318">
        <ele>160</ele>
        <time>2022-02-24T08:24:10.000Z</time>
      </trkpt>
      <trkpt lat="47.678978" lon="2.099327">
        <ele>160</ele>
        <time>2022-02-24T08:24:11.000Z</time>
      </trkpt>
      <trkpt lat="47.67899" lon="2.099337">
        <ele>160</ele>
        <time>2022-02-24T08:24:12.000Z</time>
      </trkpt>
      <trkpt lat="47.679" lon="2.0993445">
        <ele>161</ele>
        <time>2022-02-24T08:24:13.000Z</time>
      </trkpt>
      <trkpt lat="47.679012" lon="2.0993557">
        <ele>161</ele>
        <time>2022-02-24T08:24:14.000Z</time>
      </trkpt>
      <trkpt lat="47.679024" lon="2.0993576">
        <ele>161</ele>
        <time>2022-02-24T08:24:15.000Z</time>
      </trkpt>
      <trkpt lat="47.67903" lon="2.0993621">
        <ele>161</ele>
        <time>2022-02-24T08:24:16.000Z</time>
      </trkpt>
      <trkpt lat="47.679047" lon="2.099366">
        <ele>161</ele>
        <time>2022-02-24T08:24:17.000Z</time>
      </trkpt>
      <trkpt lat="47.679058" lon="2.0993752">
        <ele>161</ele>
        <time>2022-02-24T08:24:18.000Z</time>
      </trkpt>
      <trkpt lat="47.67907" lon="2.0993838">
        <ele>161</ele>
        <time>2022-02-24T08:24:19.000Z</time>
      </trkpt>
      <trkpt lat="47.679077" lon="2.0993938">
        <ele>161</ele>
        <time>2022-02-24T08:24:20.000Z</time>
      </trkpt>
      <trkpt lat="47.67908" lon="2.0994048">
        <ele>161</ele>
        <time>2022-02-24T08:24:21.000Z</time>
      </trkpt>
      <trkpt lat="47.679092" lon="2.0994143">
        <ele>162</ele>
        <time>2022-02-24T08:24:22.000Z</time>
      </trkpt>
      <trkpt lat="47.679104" lon="2.0994198">
        <ele>162</ele>
        <time>2022-02-24T08:24:23.000Z</time>
      </trkpt>
      <trkpt lat="47.679115" lon="2.0994296">
        <ele>162</ele>
        <time>2022-02-24T08:24:24.000Z</time>
      </trkpt>
      <trkpt lat="47.679127" lon="2.09944">
        <ele>163</ele>
        <time>2022-02-24T08:24:25.000Z</time>
      </trkpt>
      <trkpt lat="47.679146" lon="2.0994525">
        <ele>163</ele>
        <time>2022-02-24T08:24:26.000Z</time>
      </trkpt>
      <trkpt lat="47.67916" lon="2.0994656">
        <ele>163</ele>
        <time>2022-02-24T08:24:27.000Z</time>
      </trkpt>
      <trkpt lat="47.679176" lon="2.0994756">
        <ele>163</ele>
        <time>2022-02-24T08:24:28.000Z</time>
      </trkpt>
      <trkpt lat="47.679188" lon="2.0994878">
        <ele>163</ele>
        <time>2022-02-24T08:24:29.000Z</time>
      </trkpt>
      <trkpt lat="47.6792" lon="2.0994942">
        <ele>162</ele>
        <time>2022-02-24T08:24:30.000Z</time>
      </trkpt>
      <trkpt lat="47.67921" lon="2.099499">
        <ele>163</ele>
        <time>2022-02-24T08:24:31.000Z</time>
      </trkpt>
      <trkpt lat="47.679222" lon="2.0995023">
        <ele>162</ele>
        <time>2022-02-24T08:24:32.000Z</time>
      </trkpt>
      <trkpt lat="47.67924" lon="2.0995061">
        <ele>163</ele>
        <time>2022-02-24T08:24:33.000Z</time>
      </trkpt>
      <trkpt lat="47.679245" lon="2.0995104">
        <ele>162</ele>
        <time>2022-02-24T08:24:34.000Z</time>
      </trkpt>
      <trkpt lat="47.679253" lon="2.0995064">
        <ele>163</ele>
        <time>2022-02-24T08:24:35.000Z</time>
      </trkpt>
      <trkpt lat="47.679253" lon="2.0995064">
        <ele>163</ele>
        <time>2022-02-24T08:24:36.000Z</time>
      </trkpt>
      <trkpt lat="47.67925" lon="2.0995057">
        <ele>163</ele>
        <time>2022-02-24T08:24:37.000Z</time>
      </trkpt>
      <trkpt lat="47.67925" lon="2.0995057">
        <ele>163</ele>
        <time>2022-02-24T08:24:38.000Z</time>
      </trkpt>
      <trkpt lat="47.67925" lon="2.0995057">
        <ele>163</ele>
        <time>2022-02-24T08:24:39.000Z</time>
      </trkpt>
      <trkpt lat="47.67925" lon="2.0995057">
        <ele>163</ele>
        <time>2022-02-24T08:24:39.000Z</time>
      </trkpt>
      <trkpt lat="47.67925" lon="2.0995057">
        <ele>163</ele>
        <time>2022-02-24T08:24:39.000Z</time>
      </trkpt>
      <trkpt lat="47.67932" lon="2.0995402">
        <ele>165</ele>
        <time>2022-02-24T08:25:22.000Z</time>
      </trkpt>
      <trkpt lat="47.67933" lon="2.099546">
        <ele>165</ele>
        <time>2022-02-24T08:25:23.000Z</time>
      </trkpt>
      <trkpt lat="47.67933" lon="2.0995479">
        <ele>165</ele>
        <time>2022-02-24T08:25:24.000Z</time>
      </trkpt>
      <trkpt lat="47.679337" lon="2.0995584">
        <ele>165</ele>
        <time>2022-02-24T08:25:25.000Z</time>
      </trkpt>
      <trkpt lat="47.67934" lon="2.099571">
        <ele>165</ele>
        <time>2022-02-24T08:25:26.000Z</time>
      </trkpt>
      <trkpt lat="47.679348" lon="2.0995817">
        <ele>165</ele>
        <time>2022-02-24T08:25:27.000Z</time>
      </trkpt>
      <trkpt lat="47.679356" lon="2.0995877">
        <ele>164</ele>
        <time>2022-02-24T08:25:28.000Z</time>
      </trkpt>
      <trkpt lat="47.679363" lon="2.0995984">
        <ele>164</ele>
        <time>2022-02-24T08:25:29.000Z</time>
      </trkpt>
      <trkpt lat="47.679363" lon="2.0996003">
        <ele>164</ele>
        <time>2022-02-24T08:25:30.000Z</time>
      </trkpt>
      <trkpt lat="47.679367" lon="2.0996082">
        <ele>164</ele>
        <time>2022-02-24T08:25:31.000Z</time>
      </trkpt>
      <trkpt lat="47.679375" lon="2.0996163">
        <ele>164</ele>
        <time>2022-02-24T08:25:32.000Z</time>
      </trkpt>
      <trkpt lat="47.679382" lon="2.0996306">
        <ele>164</ele>
        <time>2022-02-24T08:25:33.000Z</time>
      </trkpt>
      <trkpt lat="47.67939" lon="2.09964">
        <ele>163</ele>
        <time>2022-02-24T08:25:34.000Z</time>
      </trkpt>
      <trkpt lat="47.679405" lon="2.0996485">
        <ele>163</ele>
        <time>2022-02-24T08:25:35.000Z</time>
      </trkpt>
      <trkpt lat="47.67941" lon="2.0996592">
        <ele>162</ele>
        <time>2022-02-24T08:25:36.000Z</time>
      </trkpt>
      <trkpt lat="47.67942" lon="2.0996714">
        <ele>162</ele>
        <time>2022-02-24T08:25:37.000Z</time>
      </trkpt>
      <trkpt lat="47.679432" lon="2.0996773">
        <ele>162</ele>
        <time>2022-02-24T08:25:38.000Z</time>
      </trkpt>
      <trkpt lat="47.679447" lon="2.0996842">
        <ele>161</ele>
        <time>2022-02-24T08:25:39.000Z</time>
      </trkpt>
      <trkpt lat="47.67946" lon="2.0996928">
        <ele>161</ele>
        <time>2022-02-24T08:25:40.000Z</time>
      </trkpt>
      <trkpt lat="47.679474" lon="2.0996993">
        <ele>161</ele>
        <time>2022-02-24T08:25:41.000Z</time>
      </trkpt>
      <trkpt lat="47.679485" lon="2.0997097">
        <ele>161</ele>
        <time>2022-02-24T08:25:42.000Z</time>
      </trkpt>
      <trkpt lat="47.679493" lon="2.0997195">
        <ele>161</ele>
        <time>2022-02-24T08:25:43.000Z</time>
      </trkpt>
      <trkpt lat="47.679504" lon="2.099724">
        <ele>161</ele>
        <time>2022-02-24T08:25:44.000Z</time>
      </trkpt>
      <trkpt lat="47.679512" lon="2.0997317">
        <ele>160</ele>
        <time>2022-02-24T08:25:45.000Z</time>
      </trkpt>
      <trkpt lat="47.679512" lon="2.0997317">
        <ele>160</ele>
        <time>2022-02-24T08:25:46.000Z</time>
      </trkpt>
      <trkpt lat="47.679527" lon="2.0997453">
        <ele>160</ele>
        <time>2022-02-24T08:25:47.000Z</time>
      </trkpt>
      <trkpt lat="47.67954" lon="2.099755">
        <ele>160</ele>
        <time>2022-02-24T08:25:48.000Z</time>
      </trkpt>
      <trkpt lat="47.67955" lon="2.099762">
        <ele>160</ele>
        <time>2022-02-24T08:25:49.000Z</time>
      </trkpt>
      <trkpt lat="47.67956" lon="2.0997658">
        <ele>160</ele>
        <time>2022-02-24T08:25:50.000Z</time>
      </trkpt>
      <trkpt lat="47.67957" lon="2.099767">
        <ele>160</ele>
        <time>2022-02-24T08:25:51.000Z</time>
      </trkpt>
      <trkpt lat="47.67958" lon="2.0997787">
        <ele>159</ele>
        <time>2022-02-24T08:25:52.000Z</time>
      </trkpt>
      <trkpt lat="47.67959" lon="2.0997868">
        <ele>159</ele>
        <time>2022-02-24T08:25:53.000Z</time>
      </trkpt>
      <trkpt lat="47.679596" lon="2.0997958">
        <ele>159</ele>
        <time>2022-02-24T08:25:54.000Z</time>
      </trkpt>
      <trkpt lat="47.679604" lon="2.0998068">
        <ele>159</ele>
        <time>2022-02-24T08:25:55.000Z</time>
      </trkpt>
      <trkpt lat="47.679615" lon="2.099818">
        <ele>158</ele>
        <time>2022-02-24T08:25:56.000Z</time>
      </trkpt>
      <trkpt lat="47.679626" lon="2.0998318">
        <ele>159</ele>
        <time>2022-02-24T08:25:57.000Z</time>
      </trkpt>
      <trkpt lat="47.679638" lon="2.0998402">
        <ele>159</ele>
        <time>2022-02-24T08:25:58.000Z</time>
      </trkpt>
      <trkpt lat="47.679653" lon="2.0998504">
        <ele>159</ele>
        <time>2022-02-24T08:25:59.000Z</time>
      </trkpt>
      <trkpt lat="47.67966" lon="2.0998585">
        <ele>159</ele>
        <time>2022-02-24T08:26:00.000Z</time>
      </trkpt>
      <trkpt lat="47.679676" lon="2.0998707">
        <ele>159</ele>
        <time>2022-02-24T08:26:01.000Z</time>
      </trkpt>
      <trkpt lat="47.679688" lon="2.0998828">
        <ele>159</ele>
        <time>2022-02-24T08:26:02.000Z</time>
      </trkpt>
      <trkpt lat="47.679707" lon="2.0998867">
        <ele>158</ele>
        <time>2022-02-24T08:26:03.000Z</time>
      </trkpt>
      <trkpt lat="47.67972" lon="2.0998926">
        <ele>158</ele>
        <time>2022-02-24T08:26:04.000Z</time>
      </trkpt>
      <trkpt lat="47.679733" lon="2.099901">
        <ele>158</ele>
        <time>2022-02-24T08:26:05.000Z</time>
      </trkpt>
      <trkpt lat="47.679745" lon="2.0999112">
        <ele>158</ele>
        <time>2022-02-24T08:26:06.000Z</time>
      </trkpt>
      <trkpt lat="47.679752" lon="2.0999198">
        <ele>158</ele>
        <time>2022-02-24T08:26:07.000Z</time>
      </trkpt>
      <trkpt lat="47.679768" lon="2.0999312">
        <ele>158</ele>
        <time>2022-02-24T08:26:08.000Z</time>
      </trkpt>
      <trkpt lat="47.67978" lon="2.0999432">
        <ele>159</ele>
        <time>2022-02-24T08:26:09.000Z</time>
      </trkpt>
      <trkpt lat="47.67979" lon="2.0999513">
        <ele>159</ele>
        <time>2022-02-24T08:26:10.000Z</time>
      </trkpt>
      <trkpt lat="47.679802" lon="2.0999615">
        <ele>158</ele>
        <time>2022-02-24T08:26:11.000Z</time>
      </trkpt>
      <trkpt lat="47.679817" lon="2.09997">
        <ele>158</ele>
        <time>2022-02-24T08:26:12.000Z</time>
      </trkpt>
      <trkpt lat="47.67983" lon="2.099981">
        <ele>159</ele>
        <time>2022-02-24T08:26:13.000Z</time>
      </trkpt>
      <trkpt lat="47.679844" lon="2.0999901">
        <ele>159</ele>
        <time>2022-02-24T08:26:14.000Z</time>
      </trkpt>
      <trkpt lat="47.67986" lon="2.1000028">
        <ele>159</ele>
        <time>2022-02-24T08:26:15.000Z</time>
      </trkpt>
      <trkpt lat="47.679874" lon="2.10001">
        <ele>159</ele>
        <time>2022-02-24T08:26:16.000Z</time>
      </trkpt>
      <trkpt lat="47.67989" lon="2.1000197">
        <ele>159</ele>
        <time>2022-02-24T08:26:17.000Z</time>
      </trkpt>
      <trkpt lat="47.6799" lon="2.1000233">
        <ele>159</ele>
        <time>2022-02-24T08:26:18.000Z</time>
      </trkpt>
      <trkpt lat="47.679913" lon="2.1000316">
        <ele>160</ele>
        <time>2022-02-24T08:26:19.000Z</time>
      </trkpt>
      <trkpt lat="47.679928" lon="2.1000376">
        <ele>161</ele>
        <time>2022-02-24T08:26:20.000Z</time>
      </trkpt>
      <trkpt lat="47.679943" lon="2.1000443">
        <ele>161</ele>
        <time>2022-02-24T08:26:21.000Z</time>
      </trkpt>
      <trkpt lat="47.679955" lon="2.1000504">
        <ele>161</ele>
        <time>2022-02-24T08:26:22.000Z</time>
      </trkpt>
      <trkpt lat="47.679966" lon="2.1000547">
        <ele>161</ele>
        <time>2022-02-24T08:26:23.000Z</time>
      </trkpt>
      <trkpt lat="47.679974" lon="2.1000607">
        <ele>161</ele>
        <time>2022-02-24T08:26:24.000Z</time>
      </trkpt>
      <trkpt lat="47.67998" lon="2.1000686">
        <ele>161</ele>
        <time>2022-02-24T08:26:25.000Z</time>
      </trkpt>
      <trkpt lat="47.67999" lon="2.1000748">
        <ele>161</ele>
        <time>2022-02-24T08:26:26.000Z</time>
      </trkpt>
      <trkpt lat="47.679996" lon="2.1000779">
        <ele>161</ele>
        <time>2022-02-24T08:26:27.000Z</time>
      </trkpt>
      <trkpt lat="47.680008" lon="2.1000857">
        <ele>161</ele>
        <time>2022-02-24T08:26:28.000Z</time>
      </trkpt>
      <trkpt lat="47.68002" lon="2.100088">
        <ele>161</ele>
        <time>2022-02-24T08:26:29.000Z</time>
      </trkpt>
      <trkpt lat="47.680027" lon="2.1000965">
        <ele>161</ele>
        <time>2022-02-24T08:26:30.000Z</time>
      </trkpt>
      <trkpt lat="47.68004" lon="2.1001074">
        <ele>161</ele>
        <time>2022-02-24T08:26:31.000Z</time>
      </trkpt>
      <trkpt lat="47.680054" lon="2.1001146">
        <ele>161</ele>
        <time>2022-02-24T08:26:32.000Z</time>
      </trkpt>
      <trkpt lat="47.680065" lon="2.1001198">
        <ele>161</ele>
        <time>2022-02-24T08:26:33.000Z</time>
      </trkpt>
      <trkpt lat="47.680077" lon="2.1001232">
        <ele>161</ele>
        <time>2022-02-24T08:26:34.000Z</time>
      </trkpt>
      <trkpt lat="47.680084" lon="2.1001265">
        <ele>161</ele>
        <time>2022-02-24T08:26:35.000Z</time>
      </trkpt>
      <trkpt lat="47.6801" lon="2.1001325">
        <ele>161</ele>
        <time>2022-02-24T08:26:36.000Z</time>
      </trkpt>
      <trkpt lat="47.68011" lon="2.1001375">
        <ele>161</ele>
        <time>2022-02-24T08:26:37.000Z</time>
      </trkpt>
      <trkpt lat="47.680126" lon="2.1001425">
        <ele>162</ele>
        <time>2022-02-24T08:26:38.000Z</time>
      </trkpt>
      <trkpt lat="47.680138" lon="2.1001494">
        <ele>161</ele>
        <time>2022-02-24T08:26:39.000Z</time>
      </trkpt>
      <trkpt lat="47.680153" lon="2.1001556">
        <ele>161</ele>
        <time>2022-02-24T08:26:40.000Z</time>
      </trkpt>
      <trkpt lat="47.68017" lon="2.1001656">
        <ele>162</ele>
        <time>2022-02-24T08:26:41.000Z</time>
      </trkpt>
      <trkpt lat="47.68018" lon="2.100175">
        <ele>162</ele>
        <time>2022-02-24T08:26:42.000Z</time>
      </trkpt>
      <trkpt lat="47.68019" lon="2.1001856">
        <ele>162</ele>
        <time>2022-02-24T08:26:43.000Z</time>
      </trkpt>
      <trkpt lat="47.6802" lon="2.100194">
        <ele>162</ele>
        <time>2022-02-24T08:26:44.000Z</time>
      </trkpt>
      <trkpt lat="47.68021" lon="2.1002083">
        <ele>162</ele>
        <time>2022-02-24T08:26:45.000Z</time>
      </trkpt>
      <trkpt lat="47.68022" lon="2.1002164">
        <ele>162</ele>
        <time>2022-02-24T08:26:46.000Z</time>
      </trkpt>
      <trkpt lat="47.680233" lon="2.100227">
        <ele>162</ele>
        <time>2022-02-24T08:26:47.000Z</time>
      </trkpt>
      <trkpt lat="47.68024" lon="2.1002338">
        <ele>162</ele>
        <time>2022-02-24T08:26:48.000Z</time>
      </trkpt>
      <trkpt lat="47.680256" lon="2.100245">
        <ele>162</ele>
        <time>2022-02-24T08:26:49.000Z</time>
      </trkpt>
      <trkpt lat="47.68026" lon="2.1002493">
        <ele>162</ele>
        <time>2022-02-24T08:26:50.000Z</time>
      </trkpt>
      <trkpt lat="47.68027" lon="2.1002593">
        <ele>163</ele>
        <time>2022-02-24T08:26:51.000Z</time>
      </trkpt>
      <trkpt lat="47.680275" lon="2.100268">
        <ele>163</ele>
        <time>2022-02-24T08:26:52.000Z</time>
      </trkpt>
      <trkpt lat="47.680286" lon="2.100276">
        <ele>163</ele>
        <time>2022-02-24T08:26:53.000Z</time>
      </trkpt>
      <trkpt lat="47.680298" lon="2.1002862">
        <ele>163</ele>
        <time>2022-02-24T08:26:54.000Z</time>
      </trkpt>
      <trkpt lat="47.68031" lon="2.1002932">
        <ele>163</ele>
        <time>2022-02-24T08:26:55.000Z</time>
      </trkpt>
      <trkpt lat="47.680325" lon="2.100299">
        <ele>163</ele>
        <time>2022-02-24T08:26:56.000Z</time>
      </trkpt>
      <trkpt lat="47.68034" lon="2.100305">
        <ele>162</ele>
        <time>2022-02-24T08:26:57.000Z</time>
      </trkpt>
      <trkpt lat="47.680344" lon="2.10031">
        <ele>163</ele>
        <time>2022-02-24T08:26:58.000Z</time>
      </trkpt>
      <trkpt lat="47.68035" lon="2.1003132">
        <ele>162</ele>
        <time>2022-02-24T08:26:59.000Z</time>
      </trkpt>
      <trkpt lat="47.68036" lon="2.1003208">
        <ele>162</ele>
        <time>2022-02-24T08:27:00.000Z</time>
      </trkpt>
      <trkpt lat="47.680367" lon="2.1003284">
        <ele>162</ele>
        <time>2022-02-24T08:27:01.000Z</time>
      </trkpt>
      <trkpt lat="47.680374" lon="2.1003387">
        <ele>163</ele>
        <time>2022-02-24T08:27:02.000Z</time>
      </trkpt>
      <trkpt lat="47.680386" lon="2.10035">
        <ele>162</ele>
        <time>2022-02-24T08:27:03.000Z</time>
      </trkpt>
      <trkpt lat="47.6804" lon="2.1003547">
        <ele>162</ele>
        <time>2022-02-24T08:27:04.000Z</time>
      </trkpt>
      <trkpt lat="47.68041" lon="2.1003563">
        <ele>162</ele>
        <time>2022-02-24T08:27:05.000Z</time>
      </trkpt>
      <trkpt lat="47.68042" lon="2.1003659">
        <ele>162</ele>
        <time>2022-02-24T08:27:06.000Z</time>
      </trkpt>
      <trkpt lat="47.680428" lon="2.1003754">
        <ele>163</ele>
        <time>2022-02-24T08:27:07.000Z</time>
      </trkpt>
      <trkpt lat="47.68044" lon="2.1003878">
        <ele>163</ele>
        <time>2022-02-24T08:27:08.000Z</time>
      </trkpt>
      <trkpt lat="47.680454" lon="2.1003976">
        <ele>164</ele>
        <time>2022-02-24T08:27:09.000Z</time>
      </trkpt>
      <trkpt lat="47.68047" lon="2.1004093">
        <ele>164</ele>
        <time>2022-02-24T08:27:10.000Z</time>
      </trkpt>
      <trkpt lat="47.68048" lon="2.1004183">
        <ele>164</ele>
        <time>2022-02-24T08:27:11.000Z</time>
      </trkpt>
      <trkpt lat="47.68049" lon="2.1004317">
        <ele>164</ele>
        <time>2022-02-24T08:27:12.000Z</time>
      </trkpt>
      <trkpt lat="47.6805" lon="2.100444">
        <ele>164</ele>
        <time>2022-02-24T08:27:13.000Z</time>
      </trkpt>
      <trkpt lat="47.68051" lon="2.1004505">
        <ele>164</ele>
        <time>2022-02-24T08:27:14.000Z</time>
      </trkpt>
      <trkpt lat="47.680523" lon="2.100456">
        <ele>164</ele>
        <time>2022-02-24T08:27:15.000Z</time>
      </trkpt>
      <trkpt lat="47.68053" lon="2.100462">
        <ele>164</ele>
        <time>2022-02-24T08:27:16.000Z</time>
      </trkpt>
      <trkpt lat="47.680542" lon="2.1004732">
        <ele>164</ele>
        <time>2022-02-24T08:27:17.000Z</time>
      </trkpt>
      <trkpt lat="47.680553" lon="2.1004825">
        <ele>164</ele>
        <time>2022-02-24T08:27:18.000Z</time>
      </trkpt>
      <trkpt lat="47.680565" lon="2.100491">
        <ele>164</ele>
        <time>2022-02-24T08:27:19.000Z</time>
      </trkpt>
      <trkpt lat="47.680576" lon="2.100497">
        <ele>164</ele>
        <time>2022-02-24T08:27:20.000Z</time>
      </trkpt>
      <trkpt lat="47.680584" lon="2.1004972">
        <ele>164</ele>
        <time>2022-02-24T08:27:21.000Z</time>
      </trkpt>
      <trkpt lat="47.680595" lon="2.100501">
        <ele>164</ele>
        <time>2022-02-24T08:27:22.000Z</time>
      </trkpt>
      <trkpt lat="47.680603" lon="2.1005087">
        <ele>164</ele>
        <time>2022-02-24T08:27:23.000Z</time>
      </trkpt>
      <trkpt lat="47.680614" lon="2.100523">
        <ele>164</ele>
        <time>2022-02-24T08:27:24.000Z</time>
      </trkpt>
      <trkpt lat="47.680626" lon="2.1005387">
        <ele>164</ele>
        <time>2022-02-24T08:27:25.000Z</time>
      </trkpt>
      <trkpt lat="47.680634" lon="2.1005533">
        <ele>164</ele>
        <time>2022-02-24T08:27:26.000Z</time>
      </trkpt>
      <trkpt lat="47.680645" lon="2.1005619">
        <ele>164</ele>
        <time>2022-02-24T08:27:27.000Z</time>
      </trkpt>
      <trkpt lat="47.680656" lon="2.1005695">
        <ele>164</ele>
        <time>2022-02-24T08:27:28.000Z</time>
      </trkpt>
      <trkpt lat="47.680668" lon="2.100579">
        <ele>164</ele>
        <time>2022-02-24T08:27:29.000Z</time>
      </trkpt>
      <trkpt lat="47.680683" lon="2.1005855">
        <ele>163</ele>
        <time>2022-02-24T08:27:30.000Z</time>
      </trkpt>
      <trkpt lat="47.680695" lon="2.1005948">
        <ele>163</ele>
        <time>2022-02-24T08:27:31.000Z</time>
      </trkpt>
      <trkpt lat="47.680702" lon="2.1006048">
        <ele>163</ele>
        <time>2022-02-24T08:27:32.000Z</time>
      </trkpt>
      <trkpt lat="47.68071" lon="2.1006217">
        <ele>163</ele>
        <time>2022-02-24T08:27:33.000Z</time>
      </trkpt>
      <trkpt lat="47.68072" lon="2.1006355">
        <ele>163</ele>
        <time>2022-02-24T08:27:34.000Z</time>
      </trkpt>
      <trkpt lat="47.68073" lon="2.100646">
        <ele>162</ele>
        <time>2022-02-24T08:27:35.000Z</time>
      </trkpt>
      <trkpt lat="47.68074" lon="2.1006527">
        <ele>162</ele>
        <time>2022-02-24T08:27:36.000Z</time>
      </trkpt>
      <trkpt lat="47.68075" lon="2.1006591">
        <ele>162</ele>
        <time>2022-02-24T08:27:37.000Z</time>
      </trkpt>
      <trkpt lat="47.68076" lon="2.1006658">
        <ele>162</ele>
        <time>2022-02-24T08:27:38.000Z</time>
      </trkpt>
      <trkpt lat="47.68077" lon="2.100665">
        <ele>162</ele>
        <time>2022-02-24T08:27:39.000Z</time>
      </trkpt>
      <trkpt lat="47.680782" lon="2.1006687">
        <ele>162</ele>
        <time>2022-02-24T08:27:40.000Z</time>
      </trkpt>
      <trkpt lat="47.68079" lon="2.100677">
        <ele>161</ele>
        <time>2022-02-24T08:27:41.000Z</time>
      </trkpt>
      <trkpt lat="47.680805" lon="2.1006873">
        <ele>162</ele>
        <time>2022-02-24T08:27:42.000Z</time>
      </trkpt>
      <trkpt lat="47.68082" lon="2.100698">
        <ele>162</ele>
        <time>2022-02-24T08:27:43.000Z</time>
      </trkpt>
      <trkpt lat="47.680832" lon="2.1007078">
        <ele>162</ele>
        <time>2022-02-24T08:27:44.000Z</time>
      </trkpt>
      <trkpt lat="47.680843" lon="2.1007144">
        <ele>162</ele>
        <time>2022-02-24T08:27:45.000Z</time>
      </trkpt>
      <trkpt lat="47.68085" lon="2.1007204">
        <ele>162</ele>
        <time>2022-02-24T08:27:46.000Z</time>
      </trkpt>
      <trkpt lat="47.680862" lon="2.100724">
        <ele>163</ele>
        <time>2022-02-24T08:27:47.000Z</time>
      </trkpt>
      <trkpt lat="47.680874" lon="2.1007268">
        <ele>163</ele>
        <time>2022-02-24T08:27:48.000Z</time>
      </trkpt>
      <trkpt lat="47.68088" lon="2.1007326">
        <ele>163</ele>
        <time>2022-02-24T08:27:49.000Z</time>
      </trkpt>
      <trkpt lat="47.680893" lon="2.1007369">
        <ele>163</ele>
        <time>2022-02-24T08:27:50.000Z</time>
      </trkpt>
      <trkpt lat="47.6809" lon="2.100743">
        <ele>163</ele>
        <time>2022-02-24T08:27:51.000Z</time>
      </trkpt>
      <trkpt lat="47.680912" lon="2.10075">
        <ele>163</ele>
        <time>2022-02-24T08:27:52.000Z</time>
      </trkpt>
      <trkpt lat="47.680923" lon="2.100758">
        <ele>163</ele>
        <time>2022-02-24T08:27:53.000Z</time>
      </trkpt>
      <trkpt lat="47.680935" lon="2.1007662">
        <ele>163</ele>
        <time>2022-02-24T08:27:54.000Z</time>
      </trkpt>
      <trkpt lat="47.680943" lon="2.1007733">
        <ele>163</ele>
        <time>2022-02-24T08:27:55.000Z</time>
      </trkpt>
      <trkpt lat="47.68095" lon="2.1007776">
        <ele>164</ele>
        <time>2022-02-24T08:27:56.000Z</time>
      </trkpt>
      <trkpt lat="47.680958" lon="2.1007838">
        <ele>164</ele>
        <time>2022-02-24T08:27:57.000Z</time>
      </trkpt>
      <trkpt lat="47.680965" lon="2.1007946">
        <ele>164</ele>
        <time>2022-02-24T08:27:58.000Z</time>
      </trkpt>
      <trkpt lat="47.680977" lon="2.100807">
        <ele>164</ele>
        <time>2022-02-24T08:27:59.000Z</time>
      </trkpt>
      <trkpt lat="47.680992" lon="2.100818">
        <ele>164</ele>
        <time>2022-02-24T08:28:00.000Z</time>
      </trkpt>
      <trkpt lat="47.681004" lon="2.1008275">
        <ele>164</ele>
        <time>2022-02-24T08:28:01.000Z</time>
      </trkpt>
      <trkpt lat="47.681007" lon="2.1008344">
        <ele>164</ele>
        <time>2022-02-24T08:28:02.000Z</time>
      </trkpt>
      <trkpt lat="47.681023" lon="2.1008418">
        <ele>164</ele>
        <time>2022-02-24T08:28:03.000Z</time>
      </trkpt>
      <trkpt lat="47.681034" lon="2.100847">
        <ele>164</ele>
        <time>2022-02-24T08:28:04.000Z</time>
      </trkpt>
      <trkpt lat="47.68105" lon="2.100853">
        <ele>164</ele>
        <time>2022-02-24T08:28:05.000Z</time>
      </trkpt>
      <trkpt lat="47.681057" lon="2.1008577">
        <ele>164</ele>
        <time>2022-02-24T08:28:06.000Z</time>
      </trkpt>
      <trkpt lat="47.68107" lon="2.1008668">
        <ele>164</ele>
        <time>2022-02-24T08:28:07.000Z</time>
      </trkpt>
      <trkpt lat="47.681076" lon="2.1008818">
        <ele>164</ele>
        <time>2022-02-24T08:28:08.000Z</time>
      </trkpt>
      <trkpt lat="47.681084" lon="2.1008918">
        <ele>165</ele>
        <time>2022-02-24T08:28:09.000Z</time>
      </trkpt>
      <trkpt lat="47.68109" lon="2.100901">
        <ele>165</ele>
        <time>2022-02-24T08:28:10.000Z</time>
      </trkpt>
      <trkpt lat="47.681103" lon="2.1009116">
        <ele>165</ele>
        <time>2022-02-24T08:28:11.000Z</time>
      </trkpt>
      <trkpt lat="47.681118" lon="2.1009223">
        <ele>165</ele>
        <time>2022-02-24T08:28:12.000Z</time>
      </trkpt>
      <trkpt lat="47.68113" lon="2.1009314">
        <ele>164</ele>
        <time>2022-02-24T08:28:13.000Z</time>
      </trkpt>
      <trkpt lat="47.681145" lon="2.1009476">
        <ele>164</ele>
        <time>2022-02-24T08:28:14.000Z</time>
      </trkpt>
      <trkpt lat="47.681156" lon="2.100958">
        <ele>164</ele>
        <time>2022-02-24T08:28:15.000Z</time>
      </trkpt>
      <trkpt lat="47.681168" lon="2.1009667">
        <ele>163</ele>
        <time>2022-02-24T08:28:16.000Z</time>
      </trkpt>
      <trkpt lat="47.68118" lon="2.1009767">
        <ele>163</ele>
        <time>2022-02-24T08:28:17.000Z</time>
      </trkpt>
      <trkpt lat="47.68119" lon="2.1009831">
        <ele>164</ele>
        <time>2022-02-24T08:28:18.000Z</time>
      </trkpt>
      <trkpt lat="47.6812" lon="2.1009948">
        <ele>164</ele>
        <time>2022-02-24T08:28:19.000Z</time>
      </trkpt>
      <trkpt lat="47.681213" lon="2.1010032">
        <ele>163</ele>
        <time>2022-02-24T08:28:20.000Z</time>
      </trkpt>
      <trkpt lat="47.68122" lon="2.1010108">
        <ele>164</ele>
        <time>2022-02-24T08:28:21.000Z</time>
      </trkpt>
      <trkpt lat="47.68123" lon="2.1010156">
        <ele>164</ele>
        <time>2022-02-24T08:28:22.000Z</time>
      </trkpt>
      <trkpt lat="47.68124" lon="2.1010237">
        <ele>164</ele>
        <time>2022-02-24T08:28:23.000Z</time>
      </trkpt>
      <trkpt lat="47.68125" lon="2.1010327">
        <ele>164</ele>
        <time>2022-02-24T08:28:24.000Z</time>
      </trkpt>
      <trkpt lat="47.681267" lon="2.1010408">
        <ele>163</ele>
        <time>2022-02-24T08:28:25.000Z</time>
      </trkpt>
      <trkpt lat="47.681274" lon="2.1010487">
        <ele>163</ele>
        <time>2022-02-24T08:28:26.000Z</time>
      </trkpt>
      <trkpt lat="47.68129" lon="2.1010556">
        <ele>163</ele>
        <time>2022-02-24T08:28:27.000Z</time>
      </trkpt>
      <trkpt lat="47.6813" lon="2.1010637">
        <ele>163</ele>
        <time>2022-02-24T08:28:28.000Z</time>
      </trkpt>
      <trkpt lat="47.681316" lon="2.101073">
        <ele>163</ele>
        <time>2022-02-24T08:28:29.000Z</time>
      </trkpt>
      <trkpt lat="47.681328" lon="2.1010802">
        <ele>163</ele>
        <time>2022-02-24T08:28:30.000Z</time>
      </trkpt>
      <trkpt lat="47.681343" lon="2.1010845">
        <ele>163</ele>
        <time>2022-02-24T08:28:31.000Z</time>
      </trkpt>
      <trkpt lat="47.681355" lon="2.1010885">
        <ele>163</ele>
        <time>2022-02-24T08:28:32.000Z</time>
      </trkpt>
      <trkpt lat="47.681362" lon="2.1010923">
        <ele>163</ele>
        <time>2022-02-24T08:28:33.000Z</time>
      </trkpt>
      <trkpt lat="47.681374" lon="2.1011012">
        <ele>163</ele>
        <time>2022-02-24T08:28:34.000Z</time>
      </trkpt>
      <trkpt lat="47.681385" lon="2.101108">
        <ele>163</ele>
        <time>2022-02-24T08:28:35.000Z</time>
      </trkpt>
      <trkpt lat="47.681396" lon="2.101119">
        <ele>163</ele>
        <time>2022-02-24T08:28:36.000Z</time>
      </trkpt>
      <trkpt lat="47.681408" lon="2.1011267">
        <ele>164</ele>
        <time>2022-02-24T08:28:37.000Z</time>
      </trkpt>
      <trkpt lat="47.68142" lon="2.1011343">
        <ele>164</ele>
        <time>2022-02-24T08:28:38.000Z</time>
      </trkpt>
      <trkpt lat="47.68143" lon="2.1011455">
        <ele>164</ele>
        <time>2022-02-24T08:28:39.000Z</time>
      </trkpt>
      <trkpt lat="47.681442" lon="2.1011534">
        <ele>163</ele>
        <time>2022-02-24T08:28:40.000Z</time>
      </trkpt>
      <trkpt lat="47.681454" lon="2.1011562">
        <ele>164</ele>
        <time>2022-02-24T08:28:41.000Z</time>
      </trkpt>
      <trkpt lat="47.681465" lon="2.1011567">
        <ele>164</ele>
        <time>2022-02-24T08:28:42.000Z</time>
      </trkpt>
      <trkpt lat="47.681477" lon="2.101159">
        <ele>164</ele>
        <time>2022-02-24T08:28:43.000Z</time>
      </trkpt>
      <trkpt lat="47.681488" lon="2.1011567">
        <ele>164</ele>
        <time>2022-02-24T08:28:44.000Z</time>
      </trkpt>
      <trkpt lat="47.681496" lon="2.1011643">
        <ele>164</ele>
        <time>2022-02-24T08:28:45.000Z</time>
      </trkpt>
      <trkpt lat="47.681515" lon="2.101178">
        <ele>164</ele>
        <time>2022-02-24T08:28:46.000Z</time>
      </trkpt>
      <trkpt lat="47.681526" lon="2.1011918">
        <ele>164</ele>
        <time>2022-02-24T08:28:47.000Z</time>
      </trkpt>
      <trkpt lat="47.68154" lon="2.1012022">
        <ele>164</ele>
        <time>2022-02-24T08:28:48.000Z</time>
      </trkpt>
      <trkpt lat="47.68155" lon="2.1012056">
        <ele>164</ele>
        <time>2022-02-24T08:28:49.000Z</time>
      </trkpt>
      <trkpt lat="47.68156" lon="2.1012151">
        <ele>164</ele>
        <time>2022-02-24T08:28:50.000Z</time>
      </trkpt>
      <trkpt lat="47.681576" lon="2.1012216">
        <ele>164</ele>
        <time>2022-02-24T08:28:51.000Z</time>
      </trkpt>
      <trkpt lat="47.681583" lon="2.1012313">
        <ele>164</ele>
        <time>2022-02-24T08:28:52.000Z</time>
      </trkpt>
      <trkpt lat="47.681595" lon="2.101242">
        <ele>164</ele>
        <time>2022-02-24T08:28:53.000Z</time>
      </trkpt>
      <trkpt lat="47.681602" lon="2.1012487">
        <ele>164</ele>
        <time>2022-02-24T08:28:54.000Z</time>
      </trkpt>
      <trkpt lat="47.681614" lon="2.1012561">
        <ele>164</ele>
        <time>2022-02-24T08:28:55.000Z</time>
      </trkpt>
      <trkpt lat="47.681625" lon="2.1012561">
        <ele>164</ele>
        <time>2022-02-24T08:28:56.000Z</time>
      </trkpt>
      <trkpt lat="47.681633" lon="2.101261">
        <ele>164</ele>
        <time>2022-02-24T08:28:57.000Z</time>
      </trkpt>
      <trkpt lat="47.681644" lon="2.1012607">
        <ele>164</ele>
        <time>2022-02-24T08:28:58.000Z</time>
      </trkpt>
      <trkpt lat="47.681656" lon="2.1012673">
        <ele>164</ele>
        <time>2022-02-24T08:28:59.000Z</time>
      </trkpt>
      <trkpt lat="47.681667" lon="2.1012747">
        <ele>164</ele>
        <time>2022-02-24T08:29:00.000Z</time>
      </trkpt>
      <trkpt lat="47.68168" lon="2.1012833">
        <ele>164</ele>
        <time>2022-02-24T08:29:01.000Z</time>
      </trkpt>
      <trkpt lat="47.68169" lon="2.1012928">
        <ele>164</ele>
        <time>2022-02-24T08:29:02.000Z</time>
      </trkpt>
      <trkpt lat="47.681698" lon="2.1013026">
        <ele>164</ele>
        <time>2022-02-24T08:29:03.000Z</time>
      </trkpt>
      <trkpt lat="47.68171" lon="2.1013148">
        <ele>164</ele>
        <time>2022-02-24T08:29:04.000Z</time>
      </trkpt>
      <trkpt lat="47.681717" lon="2.1013272">
        <ele>164</ele>
        <time>2022-02-24T08:29:05.000Z</time>
      </trkpt>
      <trkpt lat="47.68173" lon="2.1013427">
        <ele>163</ele>
        <time>2022-02-24T08:29:06.000Z</time>
      </trkpt>
      <trkpt lat="47.68174" lon="2.1013582">
        <ele>163</ele>
        <time>2022-02-24T08:29:07.000Z</time>
      </trkpt>
      <trkpt lat="47.681747" lon="2.101371">
        <ele>163</ele>
        <time>2022-02-24T08:29:08.000Z</time>
      </trkpt>
      <trkpt lat="47.68176" lon="2.101382">
        <ele>164</ele>
        <time>2022-02-24T08:29:09.000Z</time>
      </trkpt>
      <trkpt lat="47.681767" lon="2.101391">
        <ele>164</ele>
        <time>2022-02-24T08:29:10.000Z</time>
      </trkpt>
      <trkpt lat="47.681778" lon="2.1013994">
        <ele>164</ele>
        <time>2022-02-24T08:29:11.000Z</time>
      </trkpt>
      <trkpt lat="47.681797" lon="2.1014051">
        <ele>164</ele>
        <time>2022-02-24T08:29:12.000Z</time>
      </trkpt>
      <trkpt lat="47.681805" lon="2.1014092">
        <ele>164</ele>
        <time>2022-02-24T08:29:13.000Z</time>
      </trkpt>
      <trkpt lat="47.681812" lon="2.1014173">
        <ele>165</ele>
        <time>2022-02-24T08:29:14.000Z</time>
      </trkpt>
      <trkpt lat="47.681824" lon="2.101434">
        <ele>165</ele>
        <time>2022-02-24T08:29:15.000Z</time>
      </trkpt>
      <trkpt lat="47.681828" lon="2.101448">
        <ele>165</ele>
        <time>2022-02-24T08:29:16.000Z</time>
      </trkpt>
      <trkpt lat="47.68184" lon="2.101465">
        <ele>165</ele>
        <time>2022-02-24T08:29:17.000Z</time>
      </trkpt>
      <trkpt lat="47.681847" lon="2.1014717">
        <ele>165</ele>
        <time>2022-02-24T08:29:18.000Z</time>
      </trkpt>
      <trkpt lat="47.681858" lon="2.1014805">
        <ele>165</ele>
        <time>2022-02-24T08:29:19.000Z</time>
      </trkpt>
      <trkpt lat="47.681866" lon="2.1014886">
        <ele>165</ele>
        <time>2022-02-24T08:29:20.000Z</time>
      </trkpt>
      <trkpt lat="47.681873" lon="2.1014943">
        <ele>165</ele>
        <time>2022-02-24T08:29:21.000Z</time>
      </trkpt>
      <trkpt lat="47.681885" lon="2.1015036">
        <ele>165</ele>
        <time>2022-02-24T08:29:22.000Z</time>
      </trkpt>
      <trkpt lat="47.681896" lon="2.1015196">
        <ele>165</ele>
        <time>2022-02-24T08:29:23.000Z</time>
      </trkpt>
      <trkpt lat="47.681904" lon="2.1015325">
        <ele>165</ele>
        <time>2022-02-24T08:29:24.000Z</time>
      </trkpt>
      <trkpt lat="47.681915" lon="2.1015408">
        <ele>165</ele>
        <time>2022-02-24T08:29:25.000Z</time>
      </trkpt>
      <trkpt lat="47.681927" lon="2.101548">
        <ele>165</ele>
        <time>2022-02-24T08:29:26.000Z</time>
      </trkpt>
      <trkpt lat="47.68194" lon="2.1015534">
        <ele>164</ele>
        <time>2022-02-24T08:29:27.000Z</time>
      </trkpt>
      <trkpt lat="47.681953" lon="2.101559">
        <ele>164</ele>
        <time>2022-02-24T08:29:28.000Z</time>
      </trkpt>
      <trkpt lat="47.68196" lon="2.1015658">
        <ele>163</ele>
        <time>2022-02-24T08:29:29.000Z</time>
      </trkpt>
      <trkpt lat="47.68197" lon="2.1015732">
        <ele>163</ele>
        <time>2022-02-24T08:29:30.000Z</time>
      </trkpt>
      <trkpt lat="47.681973" lon="2.1015859">
        <ele>163</ele>
        <time>2022-02-24T08:29:31.000Z</time>
      </trkpt>
      <trkpt lat="47.681984" lon="2.1015995">
        <ele>163</ele>
        <time>2022-02-24T08:29:32.000Z</time>
      </trkpt>
      <trkpt lat="47.681995" lon="2.101609">
        <ele>164</ele>
        <time>2022-02-24T08:29:33.000Z</time>
      </trkpt>
      <trkpt lat="47.682007" lon="2.1016183">
        <ele>163</ele>
        <time>2022-02-24T08:29:34.000Z</time>
      </trkpt>
      <trkpt lat="47.682022" lon="2.101628">
        <ele>163</ele>
        <time>2022-02-24T08:29:35.000Z</time>
      </trkpt>
      <trkpt lat="47.682034" lon="2.1016374">
        <ele>163</ele>
        <time>2022-02-24T08:29:36.000Z</time>
      </trkpt>
      <trkpt lat="47.68205" lon="2.1016467">
        <ele>163</ele>
        <time>2022-02-24T08:29:37.000Z</time>
      </trkpt>
      <trkpt lat="47.68206" lon="2.1016443">
        <ele>163</ele>
        <time>2022-02-24T08:29:38.000Z</time>
      </trkpt>
      <trkpt lat="47.682068" lon="2.101646">
        <ele>163</ele>
        <time>2022-02-24T08:29:39.000Z</time>
      </trkpt>
      <trkpt lat="47.68208" lon="2.1016467">
        <ele>163</ele>
        <time>2022-02-24T08:29:40.000Z</time>
      </trkpt>
      <trkpt lat="47.682087" lon="2.1016495">
        <ele>163</ele>
        <time>2022-02-24T08:29:41.000Z</time>
      </trkpt>
      <trkpt lat="47.6821" lon="2.1016572">
        <ele>163</ele>
        <time>2022-02-24T08:29:42.000Z</time>
      </trkpt>
      <trkpt lat="47.682106" lon="2.1016657">
        <ele>163</ele>
        <time>2022-02-24T08:29:43.000Z</time>
      </trkpt>
      <trkpt lat="47.682117" lon="2.1016736">
        <ele>163</ele>
        <time>2022-02-24T08:29:44.000Z</time>
      </trkpt>
      <trkpt lat="47.682125" lon="2.1016815">
        <ele>163</ele>
        <time>2022-02-24T08:29:45.000Z</time>
      </trkpt>
      <trkpt lat="47.682137" lon="2.101689">
        <ele>163</ele>
        <time>2022-02-24T08:29:46.000Z</time>
      </trkpt>
      <trkpt lat="47.682148" lon="2.1016989">
        <ele>163</ele>
        <time>2022-02-24T08:29:47.000Z</time>
      </trkpt>
      <trkpt lat="47.68216" lon="2.101708">
        <ele>163</ele>
        <time>2022-02-24T08:29:48.000Z</time>
      </trkpt>
      <trkpt lat="47.682167" lon="2.101716">
        <ele>163</ele>
        <time>2022-02-24T08:29:49.000Z</time>
      </trkpt>
      <trkpt lat="47.68218" lon="2.1017256">
        <ele>163</ele>
        <time>2022-02-24T08:29:50.000Z</time>
      </trkpt>
      <trkpt lat="47.68219" lon="2.1017334">
        <ele>163</ele>
        <time>2022-02-24T08:29:51.000Z</time>
      </trkpt>
      <trkpt lat="47.6822" lon="2.1017408">
        <ele>163</ele>
        <time>2022-02-24T08:29:52.000Z</time>
      </trkpt>
      <trkpt lat="47.682217" lon="2.1017523">
        <ele>164</ele>
        <time>2022-02-24T08:29:53.000Z</time>
      </trkpt>
      <trkpt lat="47.682228" lon="2.101765">
        <ele>164</ele>
        <time>2022-02-24T08:29:54.000Z</time>
      </trkpt>
      <trkpt lat="47.68224" lon="2.1017714">
        <ele>164</ele>
        <time>2022-02-24T08:29:55.000Z</time>
      </trkpt>
      <trkpt lat="47.68225" lon="2.1017852">
        <ele>165</ele>
        <time>2022-02-24T08:29:56.000Z</time>
      </trkpt>
      <trkpt lat="47.682262" lon="2.1017957">
        <ele>165</ele>
        <time>2022-02-24T08:29:57.000Z</time>
      </trkpt>
      <trkpt lat="47.68227" lon="2.101805">
        <ele>165</ele>
        <time>2022-02-24T08:29:58.000Z</time>
      </trkpt>
      <trkpt lat="47.682285" lon="2.1018105">
        <ele>165</ele>
        <time>2022-02-24T08:29:59.000Z</time>
      </trkpt>
      <trkpt lat="47.682297" lon="2.10182">
        <ele>165</ele>
        <time>2022-02-24T08:30:00.000Z</time>
      </trkpt>
      <trkpt lat="47.682304" lon="2.1018302">
        <ele>165</ele>
        <time>2022-02-24T08:30:01.000Z</time>
      </trkpt>
      <trkpt lat="47.682316" lon="2.1018405">
        <ele>164</ele>
        <time>2022-02-24T08:30:02.000Z</time>
      </trkpt>
      <trkpt lat="47.682327" lon="2.1018517">
        <ele>164</ele>
        <time>2022-02-24T08:30:03.000Z</time>
      </trkpt>
      <trkpt lat="47.682335" lon="2.1018608">
        <ele>164</ele>
        <time>2022-02-24T08:30:04.000Z</time>
      </trkpt>
      <trkpt lat="47.682346" lon="2.1018727">
        <ele>164</ele>
        <time>2022-02-24T08:30:05.000Z</time>
      </trkpt>
      <trkpt lat="47.682354" lon="2.1018817">
        <ele>164</ele>
        <time>2022-02-24T08:30:06.000Z</time>
      </trkpt>
      <trkpt lat="47.682365" lon="2.1018884">
        <ele>164</ele>
        <time>2022-02-24T08:30:07.000Z</time>
      </trkpt>
      <trkpt lat="47.682377" lon="2.1018927">
        <ele>164</ele>
        <time>2022-02-24T08:30:08.000Z</time>
      </trkpt>
      <trkpt lat="47.68239" lon="2.1018968">
        <ele>164</ele>
        <time>2022-02-24T08:30:09.000Z</time>
      </trkpt>
      <trkpt lat="47.6824" lon="2.1019015">
        <ele>164</ele>
        <time>2022-02-24T08:30:10.000Z</time>
      </trkpt>
      <trkpt lat="47.68241" lon="2.1019058">
        <ele>164</ele>
        <time>2022-02-24T08:30:11.000Z</time>
      </trkpt>
      <trkpt lat="47.68242" lon="2.101913">
        <ele>164</ele>
        <time>2022-02-24T08:30:12.000Z</time>
      </trkpt>
      <trkpt lat="47.682426" lon="2.1019185">
        <ele>164</ele>
        <time>2022-02-24T08:30:13.000Z</time>
      </trkpt>
      <trkpt lat="47.682434" lon="2.1019216">
        <ele>165</ele>
        <time>2022-02-24T08:30:14.000Z</time>
      </trkpt>
      <trkpt lat="47.68244" lon="2.1019263">
        <ele>165</ele>
        <time>2022-02-24T08:30:15.000Z</time>
      </trkpt>
      <trkpt lat="47.68245" lon="2.1019325">
        <ele>165</ele>
        <time>2022-02-24T08:30:16.000Z</time>
      </trkpt>
      <trkpt lat="47.682457" lon="2.1019354">
        <ele>165</ele>
        <time>2022-02-24T08:30:17.000Z</time>
      </trkpt>
      <trkpt lat="47.68247" lon="2.101942">
        <ele>165</ele>
        <time>2022-02-24T08:30:18.000Z</time>
      </trkpt>
      <trkpt lat="47.682476" lon="2.101952">
        <ele>165</ele>
        <time>2022-02-24T08:30:19.000Z</time>
      </trkpt>
      <trkpt lat="47.682487" lon="2.1019602">
        <ele>165</ele>
        <time>2022-02-24T08:30:20.000Z</time>
      </trkpt>
      <trkpt lat="47.682503" lon="2.1019719">
        <ele>165</ele>
        <time>2022-02-24T08:30:21.000Z</time>
      </trkpt>
      <trkpt lat="47.682507" lon="2.1019807">
        <ele>165</ele>
        <time>2022-02-24T08:30:22.000Z</time>
      </trkpt>
      <trkpt lat="47.682514" lon="2.101989">
        <ele>164</ele>
        <time>2022-02-24T08:30:23.000Z</time>
      </trkpt>
      <trkpt lat="47.682526" lon="2.1019971">
        <ele>164</ele>
        <time>2022-02-24T08:30:24.000Z</time>
      </trkpt>
      <trkpt lat="47.682533" lon="2.1020033">
        <ele>164</ele>
        <time>2022-02-24T08:30:25.000Z</time>
      </trkpt>
      <trkpt lat="47.68254" lon="2.1020093">
        <ele>164</ele>
        <time>2022-02-24T08:30:26.000Z</time>
      </trkpt>
      <trkpt lat="47.682556" lon="2.1020136">
        <ele>163</ele>
        <time>2022-02-24T08:30:27.000Z</time>
      </trkpt>
      <trkpt lat="47.682568" lon="2.1020188">
        <ele>163</ele>
        <time>2022-02-24T08:30:28.000Z</time>
      </trkpt>
      <trkpt lat="47.682575" lon="2.102027">
        <ele>163</ele>
        <time>2022-02-24T08:30:29.000Z</time>
      </trkpt>
      <trkpt lat="47.68259" lon="2.1020362">
        <ele>163</ele>
        <time>2022-02-24T08:30:30.000Z</time>
      </trkpt>
      <trkpt lat="47.682602" lon="2.1020453">
        <ele>163</ele>
        <time>2022-02-24T08:30:31.000Z</time>
      </trkpt>
      <trkpt lat="47.682613" lon="2.1020515">
        <ele>163</ele>
        <time>2022-02-24T08:30:32.000Z</time>
      </trkpt>
      <trkpt lat="47.682625" lon="2.1020613">
        <ele>163</ele>
        <time>2022-02-24T08:30:33.000Z</time>
      </trkpt>
      <trkpt lat="47.682636" lon="2.1020696">
        <ele>163</ele>
        <time>2022-02-24T08:30:34.000Z</time>
      </trkpt>
      <trkpt lat="47.682655" lon="2.1020737">
        <ele>163</ele>
        <time>2022-02-24T08:30:35.000Z</time>
      </trkpt>
      <trkpt lat="47.682667" lon="2.1020825">
        <ele>162</ele>
        <time>2022-02-24T08:30:36.000Z</time>
      </trkpt>
      <trkpt lat="47.682674" lon="2.102093">
        <ele>162</ele>
        <time>2022-02-24T08:30:37.000Z</time>
      </trkpt>
      <trkpt lat="47.682686" lon="2.1021016">
        <ele>163</ele>
        <time>2022-02-24T08:30:38.000Z</time>
      </trkpt>
      <trkpt lat="47.682697" lon="2.1021101">
        <ele>163</ele>
        <time>2022-02-24T08:30:39.000Z</time>
      </trkpt>
      <trkpt lat="47.682705" lon="2.102123">
        <ele>163</ele>
        <time>2022-02-24T08:30:40.000Z</time>
      </trkpt>
      <trkpt lat="47.682713" lon="2.102129">
        <ele>163</ele>
        <time>2022-02-24T08:30:41.000Z</time>
      </trkpt>
      <trkpt lat="47.682724" lon="2.102142">
        <ele>163</ele>
        <time>2022-02-24T08:30:42.000Z</time>
      </trkpt>
      <trkpt lat="47.68273" lon="2.1021519">
        <ele>163</ele>
        <time>2022-02-24T08:30:43.000Z</time>
      </trkpt>
      <trkpt lat="47.682743" lon="2.1021602">
        <ele>163</ele>
        <time>2022-02-24T08:30:44.000Z</time>
      </trkpt>
      <trkpt lat="47.682755" lon="2.1021695">
        <ele>163</ele>
        <time>2022-02-24T08:30:45.000Z</time>
      </trkpt>
      <trkpt lat="47.68276" lon="2.1021821">
        <ele>163</ele>
        <time>2022-02-24T08:30:46.000Z</time>
      </trkpt>
      <trkpt lat="47.682766" lon="2.10219">
        <ele>163</ele>
        <time>2022-02-24T08:30:47.000Z</time>
      </trkpt>
      <trkpt lat="47.682774" lon="2.1021943">
        <ele>164</ele>
        <time>2022-02-24T08:30:48.000Z</time>
      </trkpt>
      <trkpt lat="47.682785" lon="2.102199">
        <ele>164</ele>
        <time>2022-02-24T08:30:49.000Z</time>
      </trkpt>
      <trkpt lat="47.68279" lon="2.10221">
        <ele>164</ele>
        <time>2022-02-24T08:30:50.000Z</time>
      </trkpt>
      <trkpt lat="47.682796" lon="2.10222">
        <ele>164</ele>
        <time>2022-02-24T08:30:51.000Z</time>
      </trkpt>
      <trkpt lat="47.6828" lon="2.1022208">
        <ele>165</ele>
        <time>2022-02-24T08:30:52.000Z</time>
      </trkpt>
      <trkpt lat="47.6828" lon="2.1022193">
        <ele>164</ele>
        <time>2022-02-24T08:30:53.000Z</time>
      </trkpt>
      <trkpt lat="47.6828" lon="2.1022286">
        <ele>165</ele>
        <time>2022-02-24T08:30:54.000Z</time>
      </trkpt>
      <trkpt lat="47.6828" lon="2.1022286">
        <ele>165</ele>
        <time>2022-02-24T08:30:55.000Z</time>
      </trkpt>
      <trkpt lat="47.6828" lon="2.1022286">
        <ele>165</ele>
        <time>2022-02-24T08:30:55.000Z</time>
      </trkpt>
      <trkpt lat="47.6828" lon="2.1022286">
        <ele>165</ele>
        <time>2022-02-24T08:30:55.000Z</time>
      </trkpt>
      <trkpt lat="47.682858" lon="2.1022875">
        <ele>169</ele>
        <time>2022-02-24T08:32:30.000Z</time>
      </trkpt>
      <trkpt lat="47.682865" lon="2.1022887">
        <ele>169</ele>
        <time>2022-02-24T08:32:31.000Z</time>
      </trkpt>
      <trkpt lat="47.682873" lon="2.1022956">
        <ele>168</ele>
        <time>2022-02-24T08:32:32.000Z</time>
      </trkpt>
      <trkpt lat="47.682877" lon="2.1022973">
        <ele>169</ele>
        <time>2022-02-24T08:32:33.000Z</time>
      </trkpt>
      <trkpt lat="47.68288" lon="2.102298">
        <ele>168</ele>
        <time>2022-02-24T08:32:34.000Z</time>
      </trkpt>
      <trkpt lat="47.68288" lon="2.1022916">
        <ele>169</ele>
        <time>2022-02-24T08:32:35.000Z</time>
      </trkpt>
      <trkpt lat="47.682888" lon="2.1022854">
        <ele>168</ele>
        <time>2022-02-24T08:32:36.000Z</time>
      </trkpt>
      <trkpt lat="47.68289" lon="2.1022859">
        <ele>168</ele>
        <time>2022-02-24T08:32:37.000Z</time>
      </trkpt>
      <trkpt lat="47.682903" lon="2.1022851">
        <ele>168</ele>
        <time>2022-02-24T08:32:38.000Z</time>
      </trkpt>
      <trkpt lat="47.682903" lon="2.1022851">
        <ele>168</ele>
        <time>2022-02-24T08:32:39.000Z</time>
      </trkpt>
      <trkpt lat="47.682903" lon="2.1022851">
        <ele>168</ele>
        <time>2022-02-24T08:32:39.000Z</time>
      </trkpt>
      <trkpt lat="47.682903" lon="2.1022851">
        <ele>168</ele>
        <time>2022-02-24T08:32:39.000Z</time>
      </trkpt>
      <trkpt lat="47.682938" lon="2.1022253">
        <ele>168</ele>
        <time>2022-02-24T08:32:51.000Z</time>
      </trkpt>
      <trkpt lat="47.68294" lon="2.102212">
        <ele>168</ele>
        <time>2022-02-24T08:32:52.000Z</time>
      </trkpt>
      <trkpt lat="47.68295" lon="2.1022012">
        <ele>168</ele>
        <time>2022-02-24T08:32:53.000Z</time>
      </trkpt>
      <trkpt lat="47.682953" lon="2.1021898">
        <ele>167</ele>
        <time>2022-02-24T08:32:54.000Z</time>
      </trkpt>
      <trkpt lat="47.68296" lon="2.1021771">
        <ele>167</ele>
        <time>2022-02-24T08:32:55.000Z</time>
      </trkpt>
      <trkpt lat="47.68296" lon="2.1021771">
        <ele>167</ele>
        <time>2022-02-24T08:32:56.000Z</time>
      </trkpt>
      <trkpt lat="47.68296" lon="2.1021771">
        <ele>167</ele>
        <time>2022-02-24T08:32:57.000Z</time>
      </trkpt>
      <trkpt lat="47.682976" lon="2.102148">
        <ele>166</ele>
        <time>2022-02-24T08:32:58.000Z</time>
      </trkpt>
      <trkpt lat="47.682983" lon="2.102134">
        <ele>166</ele>
        <time>2022-02-24T08:32:59.000Z</time>
      </trkpt>
      <trkpt lat="47.68299" lon="2.102123">
        <ele>166</ele>
        <time>2022-02-24T08:33:00.000Z</time>
      </trkpt>
      <trkpt lat="47.682995" lon="2.102115">
        <ele>166</ele>
        <time>2022-02-24T08:33:01.000Z</time>
      </trkpt>
      <trkpt lat="47.683002" lon="2.1021035">
        <ele>166</ele>
        <time>2022-02-24T08:33:02.000Z</time>
      </trkpt>
      <trkpt lat="47.683006" lon="2.102091">
        <ele>166</ele>
        <time>2022-02-24T08:33:03.000Z</time>
      </trkpt>
      <trkpt lat="47.683014" lon="2.1020844">
        <ele>165</ele>
        <time>2022-02-24T08:33:04.000Z</time>
      </trkpt>
      <trkpt lat="47.683014" lon="2.1020844">
        <ele>165</ele>
        <time>2022-02-24T08:33:05.000Z</time>
      </trkpt>
      <trkpt lat="47.683025" lon="2.102061">
        <ele>165</ele>
        <time>2022-02-24T08:33:06.000Z</time>
      </trkpt>
      <trkpt lat="47.683033" lon="2.1020498">
        <ele>166</ele>
        <time>2022-02-24T08:33:07.000Z</time>
      </trkpt>
      <trkpt lat="47.68304" lon="2.102038">
        <ele>165</ele>
        <time>2022-02-24T08:33:08.000Z</time>
      </trkpt>
      <trkpt lat="47.68305" lon="2.1020267">
        <ele>165</ele>
        <time>2022-02-24T08:33:09.000Z</time>
      </trkpt>
      <trkpt lat="47.683056" lon="2.1020155">
        <ele>165</ele>
        <time>2022-02-24T08:33:10.000Z</time>
      </trkpt>
      <trkpt lat="47.68306" lon="2.1020017">
        <ele>165</ele>
        <time>2022-02-24T08:33:11.000Z</time>
      </trkpt>
      <trkpt lat="47.683064" lon="2.1019874">
        <ele>165</ele>
        <time>2022-02-24T08:33:12.000Z</time>
      </trkpt>
      <trkpt lat="47.683067" lon="2.101974">
        <ele>165</ele>
        <time>2022-02-24T08:33:13.000Z</time>
      </trkpt>
      <trkpt lat="47.683067" lon="2.1019537">
        <ele>165</ele>
        <time>2022-02-24T08:33:14.000Z</time>
      </trkpt>
      <trkpt lat="47.683067" lon="2.1019397">
        <ele>165</ele>
        <time>2022-02-24T08:33:15.000Z</time>
      </trkpt>
      <trkpt lat="47.683067" lon="2.10192">
        <ele>164</ele>
        <time>2022-02-24T08:33:16.000Z</time>
      </trkpt>
      <trkpt lat="47.683067" lon="2.10192">
        <ele>164</ele>
        <time>2022-02-24T08:33:17.000Z</time>
      </trkpt>
      <trkpt lat="47.683067" lon="2.10192">
        <ele>164</ele>
        <time>2022-02-24T08:33:18.000Z</time>
      </trkpt>
      <trkpt lat="47.68308" lon="2.1018784">
        <ele>164</ele>
        <time>2022-02-24T08:33:19.000Z</time>
      </trkpt>
      <trkpt lat="47.683086" lon="2.101867">
        <ele>164</ele>
        <time>2022-02-24T08:33:20.000Z</time>
      </trkpt>
      <trkpt lat="47.68309" lon="2.1018546">
        <ele>164</ele>
        <time>2022-02-24T08:33:21.000Z</time>
      </trkpt>
      <trkpt lat="47.683098" lon="2.1018445">
        <ele>164</ele>
        <time>2022-02-24T08:33:22.000Z</time>
      </trkpt>
      <trkpt lat="47.6831" lon="2.1018317">
        <ele>164</ele>
        <time>2022-02-24T08:33:23.000Z</time>
      </trkpt>
      <trkpt lat="47.68311" lon="2.10182">
        <ele>164</ele>
        <time>2022-02-24T08:33:24.000Z</time>
      </trkpt>
      <trkpt lat="47.68311" lon="2.101804">
        <ele>164</ele>
        <time>2022-02-24T08:33:25.000Z</time>
      </trkpt>
      <trkpt lat="47.68311" lon="2.1017828">
        <ele>164</ele>
        <time>2022-02-24T08:33:26.000Z</time>
      </trkpt>
      <trkpt lat="47.683113" lon="2.1017547">
        <ele>164</ele>
        <time>2022-02-24T08:33:27.000Z</time>
      </trkpt>
      <trkpt lat="47.683113" lon="2.101735">
        <ele>164</ele>
        <time>2022-02-24T08:33:28.000Z</time>
      </trkpt>
      <trkpt lat="47.683117" lon="2.1017232">
        <ele>164</ele>
        <time>2022-02-24T08:33:29.000Z</time>
      </trkpt>
      <trkpt lat="47.68312" lon="2.1017032">
        <ele>163</ele>
        <time>2022-02-24T08:33:30.000Z</time>
      </trkpt>
      <trkpt lat="47.68312" lon="2.1016905">
        <ele>162</ele>
        <time>2022-02-24T08:33:31.000Z</time>
      </trkpt>
      <trkpt lat="47.68312" lon="2.1016805">
        <ele>162</ele>
        <time>2022-02-24T08:33:32.000Z</time>
      </trkpt>
      <trkpt lat="47.68312" lon="2.1016805">
        <ele>162</ele>
        <time>2022-02-24T08:33:33.000Z</time>
      </trkpt>
      <trkpt lat="47.68312" lon="2.1016805">
        <ele>162</ele>
        <time>2022-02-24T08:33:34.000Z</time>
      </trkpt>
      <trkpt lat="47.683132" lon="2.1016471">
        <ele>161</ele>
        <time>2022-02-24T08:33:35.000Z</time>
      </trkpt>
      <trkpt lat="47.683132" lon="2.1016352">
        <ele>160</ele>
        <time>2022-02-24T08:33:36.000Z</time>
      </trkpt>
      <trkpt lat="47.683136" lon="2.101617">
        <ele>160</ele>
        <time>2022-02-24T08:33:37.000Z</time>
      </trkpt>
      <trkpt lat="47.683136" lon="2.1015983">
        <ele>160</ele>
        <time>2022-02-24T08:33:38.000Z</time>
      </trkpt>
      <trkpt lat="47.683136" lon="2.1015797">
        <ele>160</ele>
        <time>2022-02-24T08:33:39.000Z</time>
      </trkpt>
      <trkpt lat="47.68314" lon="2.1015573">
        <ele>159</ele>
        <time>2022-02-24T08:33:40.000Z</time>
      </trkpt>
      <trkpt lat="47.68314" lon="2.1015399">
        <ele>159</ele>
        <time>2022-02-24T08:33:41.000Z</time>
      </trkpt>
      <trkpt lat="47.683144" lon="2.1015258">
        <ele>159</ele>
        <time>2022-02-24T08:33:42.000Z</time>
      </trkpt>
      <trkpt lat="47.683144" lon="2.101508">
        <ele>159</ele>
        <time>2022-02-24T08:33:43.000Z</time>
      </trkpt>
      <trkpt lat="47.683144" lon="2.1014926">
        <ele>158</ele>
        <time>2022-02-24T08:33:44.000Z</time>
      </trkpt>
      <trkpt lat="47.683147" lon="2.1014795">
        <ele>158</ele>
        <time>2022-02-24T08:33:45.000Z</time>
      </trkpt>
      <trkpt lat="47.68315" lon="2.1014664">
        <ele>158</ele>
        <time>2022-02-24T08:33:46.000Z</time>
      </trkpt>
      <trkpt lat="47.68315" lon="2.1014447">
        <ele>157</ele>
        <time>2022-02-24T08:33:47.000Z</time>
      </trkpt>
      <trkpt lat="47.683155" lon="2.1014283">
        <ele>157</ele>
        <time>2022-02-24T08:33:48.000Z</time>
      </trkpt>
      <trkpt lat="47.68316" lon="2.1014085">
        <ele>158</ele>
        <time>2022-02-24T08:33:49.000Z</time>
      </trkpt>
      <trkpt lat="47.68316" lon="2.1013875">
        <ele>158</ele>
        <time>2022-02-24T08:33:50.000Z</time>
      </trkpt>
      <trkpt lat="47.683163" lon="2.1013658">
        <ele>157</ele>
        <time>2022-02-24T08:33:51.000Z</time>
      </trkpt>
      <trkpt lat="47.683167" lon="2.1013477">
        <ele>158</ele>
        <time>2022-02-24T08:33:52.000Z</time>
      </trkpt>
      <trkpt lat="47.68317" lon="2.1013296">
        <ele>157</ele>
        <time>2022-02-24T08:33:53.000Z</time>
      </trkpt>
      <trkpt lat="47.68317" lon="2.1013107">
        <ele>157</ele>
        <time>2022-02-24T08:33:54.000Z</time>
      </trkpt>
      <trkpt lat="47.683174" lon="2.1012926">
        <ele>157</ele>
        <time>2022-02-24T08:33:55.000Z</time>
      </trkpt>
      <trkpt lat="47.683178" lon="2.1012735">
        <ele>157</ele>
        <time>2022-02-24T08:33:56.000Z</time>
      </trkpt>
      <trkpt lat="47.68318" lon="2.1012511">
        <ele>157</ele>
        <time>2022-02-24T08:33:57.000Z</time>
      </trkpt>
      <trkpt lat="47.683186" lon="2.1012318">
        <ele>157</ele>
        <time>2022-02-24T08:33:58.000Z</time>
      </trkpt>
      <trkpt lat="47.68319" lon="2.1012142">
        <ele>157</ele>
        <time>2022-02-24T08:33:59.000Z</time>
      </trkpt>
      <trkpt lat="47.68319" lon="2.101201">
        <ele>158</ele>
        <time>2022-02-24T08:34:00.000Z</time>
      </trkpt>
      <trkpt lat="47.683193" lon="2.1011858">
        <ele>157</ele>
        <time>2022-02-24T08:34:01.000Z</time>
      </trkpt>
      <trkpt lat="47.6832" lon="2.1011698">
        <ele>157</ele>
        <time>2022-02-24T08:34:02.000Z</time>
      </trkpt>
      <trkpt lat="47.683205" lon="2.1011548">
        <ele>157</ele>
        <time>2022-02-24T08:34:03.000Z</time>
      </trkpt>
      <trkpt lat="47.68321" lon="2.101139">
        <ele>157</ele>
        <time>2022-02-24T08:34:04.000Z</time>
      </trkpt>
      <trkpt lat="47.683212" lon="2.101129">
        <ele>157</ele>
        <time>2022-02-24T08:34:05.000Z</time>
      </trkpt>
      <trkpt lat="47.683216" lon="2.1011183">
        <ele>156</ele>
        <time>2022-02-24T08:34:06.000Z</time>
      </trkpt>
      <trkpt lat="47.68322" lon="2.101109">
        <ele>156</ele>
        <time>2022-02-24T08:34:07.000Z</time>
      </trkpt>
      <trkpt lat="47.683224" lon="2.101097">
        <ele>156</ele>
        <time>2022-02-24T08:34:08.000Z</time>
      </trkpt>
      <trkpt lat="47.683228" lon="2.1010826">
        <ele>156</ele>
        <time>2022-02-24T08:34:09.000Z</time>
      </trkpt>
      <trkpt lat="47.683228" lon="2.1010683">
        <ele>156</ele>
        <time>2022-02-24T08:34:10.000Z</time>
      </trkpt>
      <trkpt lat="47.68323" lon="2.101054">
        <ele>156</ele>
        <time>2022-02-24T08:34:11.000Z</time>
      </trkpt>
      <trkpt lat="47.683235" lon="2.1010394">
        <ele>156</ele>
        <time>2022-02-24T08:34:12.000Z</time>
      </trkpt>
      <trkpt lat="47.68324" lon="2.1010232">
        <ele>156</ele>
        <time>2022-02-24T08:34:13.000Z</time>
      </trkpt>
      <trkpt lat="47.683247" lon="2.1010118">
        <ele>157</ele>
        <time>2022-02-24T08:34:14.000Z</time>
      </trkpt>
      <trkpt lat="47.68325" lon="2.1009984">
        <ele>157</ele>
        <time>2022-02-24T08:34:15.000Z</time>
      </trkpt>
      <trkpt lat="47.683254" lon="2.1009872">
        <ele>157</ele>
        <time>2022-02-24T08:34:16.000Z</time>
      </trkpt>
      <trkpt lat="47.683254" lon="2.1009703">
        <ele>157</ele>
        <time>2022-02-24T08:34:17.000Z</time>
      </trkpt>
      <trkpt lat="47.683258" lon="2.1009526">
        <ele>156</ele>
        <time>2022-02-24T08:34:18.000Z</time>
      </trkpt>
      <trkpt lat="47.68326" lon="2.1009352">
        <ele>157</ele>
        <time>2022-02-24T08:34:19.000Z</time>
      </trkpt>
      <trkpt lat="47.683266" lon="2.1009173">
        <ele>157</ele>
        <time>2022-02-24T08:34:20.000Z</time>
      </trkpt>
      <trkpt lat="47.68327" lon="2.1009004">
        <ele>157</ele>
        <time>2022-02-24T08:34:21.000Z</time>
      </trkpt>
      <trkpt lat="47.683273" lon="2.100884">
        <ele>157</ele>
        <time>2022-02-24T08:34:22.000Z</time>
      </trkpt>
      <trkpt lat="47.683277" lon="2.100869">
        <ele>157</ele>
        <time>2022-02-24T08:34:23.000Z</time>
      </trkpt>
      <trkpt lat="47.68328" lon="2.1008534">
        <ele>157</ele>
        <time>2022-02-24T08:34:24.000Z</time>
      </trkpt>
      <trkpt lat="47.68328" lon="2.1008372">
        <ele>157</ele>
        <time>2022-02-24T08:34:25.000Z</time>
      </trkpt>
      <trkpt lat="47.68329" lon="2.100823">
        <ele>157</ele>
        <time>2022-02-24T08:34:26.000Z</time>
      </trkpt>
      <trkpt lat="47.683292" lon="2.100805">
        <ele>157</ele>
        <time>2022-02-24T08:34:27.000Z</time>
      </trkpt>
      <trkpt lat="47.683296" lon="2.100785">
        <ele>157</ele>
        <time>2022-02-24T08:34:28.000Z</time>
      </trkpt>
      <trkpt lat="47.6833" lon="2.1007717">
        <ele>157</ele>
        <time>2022-02-24T08:34:29.000Z</time>
      </trkpt>
      <trkpt lat="47.683304" lon="2.1007552">
        <ele>157</ele>
        <time>2022-02-24T08:34:30.000Z</time>
      </trkpt>
      <trkpt lat="47.683308" lon="2.10074">
        <ele>157</ele>
        <time>2022-02-24T08:34:31.000Z</time>
      </trkpt>
      <trkpt lat="47.68331" lon="2.1007237">
        <ele>157</ele>
        <time>2022-02-24T08:34:32.000Z</time>
      </trkpt>
      <trkpt lat="47.683315" lon="2.1007087">
        <ele>156</ele>
        <time>2022-02-24T08:34:33.000Z</time>
      </trkpt>
      <trkpt lat="47.68332" lon="2.1006937">
        <ele>156</ele>
        <time>2022-02-24T08:34:34.000Z</time>
      </trkpt>
      <trkpt lat="47.68332" lon="2.1006756">
        <ele>156</ele>
        <time>2022-02-24T08:34:35.000Z</time>
      </trkpt>
      <trkpt lat="47.683323" lon="2.100654">
        <ele>155</ele>
        <time>2022-02-24T08:34:36.000Z</time>
      </trkpt>
      <trkpt lat="47.683327" lon="2.1006405">
        <ele>155</ele>
        <time>2022-02-24T08:34:37.000Z</time>
      </trkpt>
      <trkpt lat="47.68333" lon="2.100625">
        <ele>155</ele>
        <time>2022-02-24T08:34:38.000Z</time>
      </trkpt>
      <trkpt lat="47.68333" lon="2.1006079">
        <ele>155</ele>
        <time>2022-02-24T08:34:39.000Z</time>
      </trkpt>
      <trkpt lat="47.683334" lon="2.1005912">
        <ele>155</ele>
        <time>2022-02-24T08:34:40.000Z</time>
      </trkpt>
      <trkpt lat="47.68334" lon="2.1005757">
        <ele>155</ele>
        <time>2022-02-24T08:34:41.000Z</time>
      </trkpt>
      <trkpt lat="47.683342" lon="2.1005614">
        <ele>155</ele>
        <time>2022-02-24T08:34:42.000Z</time>
      </trkpt>
      <trkpt lat="47.68335" lon="2.1005478">
        <ele>155</ele>
        <time>2022-02-24T08:34:43.000Z</time>
      </trkpt>
      <trkpt lat="47.683353" lon="2.1005337">
        <ele>155</ele>
        <time>2022-02-24T08:34:44.000Z</time>
      </trkpt>
      <trkpt lat="47.683357" lon="2.100517">
        <ele>155</ele>
        <time>2022-02-24T08:34:45.000Z</time>
      </trkpt>
      <trkpt lat="47.68336" lon="2.1005034">
        <ele>155</ele>
        <time>2022-02-24T08:34:46.000Z</time>
      </trkpt>
      <trkpt lat="47.683365" lon="2.1004903">
        <ele>155</ele>
        <time>2022-02-24T08:34:47.000Z</time>
      </trkpt>
      <trkpt lat="47.68337" lon="2.100474">
        <ele>156</ele>
        <time>2022-02-24T08:34:48.000Z</time>
      </trkpt>
      <trkpt lat="47.68337" lon="2.1004553">
        <ele>156</ele>
        <time>2022-02-24T08:34:49.000Z</time>
      </trkpt>
      <trkpt lat="47.683372" lon="2.1004393">
        <ele>156</ele>
        <time>2022-02-24T08:34:50.000Z</time>
      </trkpt>
      <trkpt lat="47.683376" lon="2.1004229">
        <ele>156</ele>
        <time>2022-02-24T08:34:51.000Z</time>
      </trkpt>
      <trkpt lat="47.68338" lon="2.100404">
        <ele>156</ele>
        <time>2022-02-24T08:34:52.000Z</time>
      </trkpt>
      <trkpt lat="47.683384" lon="2.1003861">
        <ele>157</ele>
        <time>2022-02-24T08:34:53.000Z</time>
      </trkpt>
      <trkpt lat="47.683384" lon="2.1003695">
        <ele>157</ele>
        <time>2022-02-24T08:34:54.000Z</time>
      </trkpt>
      <trkpt lat="47.68339" lon="2.1003559">
        <ele>157</ele>
        <time>2022-02-24T08:34:55.000Z</time>
      </trkpt>
      <trkpt lat="47.683395" lon="2.1003401">
        <ele>157</ele>
        <time>2022-02-24T08:34:56.000Z</time>
      </trkpt>
      <trkpt lat="47.6834" lon="2.1003287">
        <ele>157</ele>
        <time>2022-02-24T08:34:57.000Z</time>
      </trkpt>
      <trkpt lat="47.683403" lon="2.1003127">
        <ele>157</ele>
        <time>2022-02-24T08:34:58.000Z</time>
      </trkpt>
      <trkpt lat="47.683407" lon="2.1002984">
        <ele>158</ele>
        <time>2022-02-24T08:34:59.000Z</time>
      </trkpt>
      <trkpt lat="47.68341" lon="2.100281">
        <ele>158</ele>
        <time>2022-02-24T08:35:00.000Z</time>
      </trkpt>
      <trkpt lat="47.683414" lon="2.1002626">
        <ele>157</ele>
        <time>2022-02-24T08:35:01.000Z</time>
      </trkpt>
      <trkpt lat="47.68342" lon="2.1002467">
        <ele>157</ele>
        <time>2022-02-24T08:35:02.000Z</time>
      </trkpt>
      <trkpt lat="47.683422" lon="2.10023">
        <ele>157</ele>
        <time>2022-02-24T08:35:03.000Z</time>
      </trkpt>
      <trkpt lat="47.683422" lon="2.1002128">
        <ele>157</ele>
        <time>2022-02-24T08:35:04.000Z</time>
      </trkpt>
      <trkpt lat="47.683426" lon="2.1001985">
        <ele>157</ele>
        <time>2022-02-24T08:35:05.000Z</time>
      </trkpt>
      <trkpt lat="47.68343" lon="2.1001844">
        <ele>156</ele>
        <time>2022-02-24T08:35:06.000Z</time>
      </trkpt>
      <trkpt lat="47.683434" lon="2.1001692">
        <ele>156</ele>
        <time>2022-02-24T08:35:07.000Z</time>
      </trkpt>
      <trkpt lat="47.683434" lon="2.1001549">
        <ele>156</ele>
        <time>2022-02-24T08:35:08.000Z</time>
      </trkpt>
      <trkpt lat="47.683434" lon="2.1001394">
        <ele>155</ele>
        <time>2022-02-24T08:35:09.000Z</time>
      </trkpt>
      <trkpt lat="47.683437" lon="2.1001225">
        <ele>155</ele>
        <time>2022-02-24T08:35:10.000Z</time>
      </trkpt>
      <trkpt lat="47.68344" lon="2.1001062">
        <ele>155</ele>
        <time>2022-02-24T08:35:11.000Z</time>
      </trkpt>
      <trkpt lat="47.683445" lon="2.100087">
        <ele>155</ele>
        <time>2022-02-24T08:35:12.000Z</time>
      </trkpt>
      <trkpt lat="47.683445" lon="2.1000643">
        <ele>155</ele>
        <time>2022-02-24T08:35:13.000Z</time>
      </trkpt>
      <trkpt lat="47.68345" lon="2.100044">
        <ele>155</ele>
        <time>2022-02-24T08:35:14.000Z</time>
      </trkpt>
      <trkpt lat="47.683453" lon="2.100026">
        <ele>155</ele>
        <time>2022-02-24T08:35:15.000Z</time>
      </trkpt>
      <trkpt lat="47.683453" lon="2.1000092">
        <ele>155</ele>
        <time>2022-02-24T08:35:16.000Z</time>
      </trkpt>
      <trkpt lat="47.683456" lon="2.0999959">
        <ele>154</ele>
        <time>2022-02-24T08:35:17.000Z</time>
      </trkpt>
      <trkpt lat="47.68346" lon="2.0999827">
        <ele>154</ele>
        <time>2022-02-24T08:35:18.000Z</time>
      </trkpt>
      <trkpt lat="47.683468" lon="2.0999715">
        <ele>154</ele>
        <time>2022-02-24T08:35:19.000Z</time>
      </trkpt>
      <trkpt lat="47.68347" lon="2.0999613">
        <ele>154</ele>
        <time>2022-02-24T08:35:20.000Z</time>
      </trkpt>
      <trkpt lat="47.683475" lon="2.0999506">
        <ele>154</ele>
        <time>2022-02-24T08:35:21.000Z</time>
      </trkpt>
      <trkpt lat="47.683483" lon="2.099934">
        <ele>155</ele>
        <time>2022-02-24T08:35:22.000Z</time>
      </trkpt>
      <trkpt lat="47.683487" lon="2.0999174">
        <ele>154</ele>
        <time>2022-02-24T08:35:23.000Z</time>
      </trkpt>
      <trkpt lat="47.68349" lon="2.099896">
        <ele>154</ele>
        <time>2022-02-24T08:35:24.000Z</time>
      </trkpt>
      <trkpt lat="47.68349" lon="2.0998838">
        <ele>154</ele>
        <time>2022-02-24T08:35:25.000Z</time>
      </trkpt>
      <trkpt lat="47.683495" lon="2.099872">
        <ele>153</ele>
        <time>2022-02-24T08:35:26.000Z</time>
      </trkpt>
      <trkpt lat="47.6835" lon="2.099861">
        <ele>154</ele>
        <time>2022-02-24T08:35:27.000Z</time>
      </trkpt>
      <trkpt lat="47.683502" lon="2.0998483">
        <ele>154</ele>
        <time>2022-02-24T08:35:28.000Z</time>
      </trkpt>
      <trkpt lat="47.683502" lon="2.099833">
        <ele>154</ele>
        <time>2022-02-24T08:35:29.000Z</time>
      </trkpt>
      <trkpt lat="47.683506" lon="2.0998194">
        <ele>154</ele>
        <time>2022-02-24T08:35:30.000Z</time>
      </trkpt>
      <trkpt lat="47.683506" lon="2.099804">
        <ele>154</ele>
        <time>2022-02-24T08:35:31.000Z</time>
      </trkpt>
      <trkpt lat="47.683514" lon="2.0997882">
        <ele>154</ele>
        <time>2022-02-24T08:35:32.000Z</time>
      </trkpt>
      <trkpt lat="47.683517" lon="2.0997705">
        <ele>154</ele>
        <time>2022-02-24T08:35:33.000Z</time>
      </trkpt>
      <trkpt lat="47.683525" lon="2.0997539">
        <ele>155</ele>
        <time>2022-02-24T08:35:34.000Z</time>
      </trkpt>
      <trkpt lat="47.683533" lon="2.0997384">
        <ele>155</ele>
        <time>2022-02-24T08:35:35.000Z</time>
      </trkpt>
      <trkpt lat="47.683537" lon="2.0997221">
        <ele>155</ele>
        <time>2022-02-24T08:35:36.000Z</time>
      </trkpt>
      <trkpt lat="47.683548" lon="2.0997066">
        <ele>155</ele>
        <time>2022-02-24T08:35:37.000Z</time>
      </trkpt>
      <trkpt lat="47.683556" lon="2.0996897">
        <ele>155</ele>
        <time>2022-02-24T08:35:38.000Z</time>
      </trkpt>
      <trkpt lat="47.683563" lon="2.0996754">
        <ele>154</ele>
        <time>2022-02-24T08:35:39.000Z</time>
      </trkpt>
      <trkpt lat="47.683567" lon="2.0996623">
        <ele>154</ele>
        <time>2022-02-24T08:35:40.000Z</time>
      </trkpt>
      <trkpt lat="47.683575" lon="2.0996463">
        <ele>154</ele>
        <time>2022-02-24T08:35:41.000Z</time>
      </trkpt>
      <trkpt lat="47.68358" lon="2.0996323">
        <ele>155</ele>
        <time>2022-02-24T08:35:42.000Z</time>
      </trkpt>
      <trkpt lat="47.683582" lon="2.0996146">
        <ele>155</ele>
        <time>2022-02-24T08:35:43.000Z</time>
      </trkpt>
      <trkpt lat="47.683586" lon="2.099598">
        <ele>155</ele>
        <time>2022-02-24T08:35:44.000Z</time>
      </trkpt>
      <trkpt lat="47.68359" lon="2.099581">
        <ele>154</ele>
        <time>2022-02-24T08:35:45.000Z</time>
      </trkpt>
      <trkpt lat="47.68359" lon="2.0995615">
        <ele>154</ele>
        <time>2022-02-24T08:35:46.000Z</time>
      </trkpt>
      <trkpt lat="47.68359" lon="2.0995433">
        <ele>154</ele>
        <time>2022-02-24T08:35:47.000Z</time>
      </trkpt>
      <trkpt lat="47.683594" lon="2.0995247">
        <ele>153</ele>
        <time>2022-02-24T08:35:48.000Z</time>
      </trkpt>
      <trkpt lat="47.683598" lon="2.0995123">
        <ele>154</ele>
        <time>2022-02-24T08:35:49.000Z</time>
      </trkpt>
      <trkpt lat="47.6836" lon="2.0994995">
        <ele>154</ele>
        <time>2022-02-24T08:35:50.000Z</time>
      </trkpt>
      <trkpt lat="47.683605" lon="2.0994859">
        <ele>154</ele>
        <time>2022-02-24T08:35:51.000Z</time>
      </trkpt>
      <trkpt lat="47.68361" lon="2.099473">
        <ele>155</ele>
        <time>2022-02-24T08:35:52.000Z</time>
      </trkpt>
      <trkpt lat="47.683613" lon="2.0994573">
        <ele>155</ele>
        <time>2022-02-24T08:35:53.000Z</time>
      </trkpt>
      <trkpt lat="47.683617" lon="2.099439">
        <ele>155</ele>
        <time>2022-02-24T08:35:54.000Z</time>
      </trkpt>
      <trkpt lat="47.68362" lon="2.0994225">
        <ele>155</ele>
        <time>2022-02-24T08:35:55.000Z</time>
      </trkpt>
      <trkpt lat="47.683624" lon="2.0994077">
        <ele>155</ele>
        <time>2022-02-24T08:35:56.000Z</time>
      </trkpt>
      <trkpt lat="47.683628" lon="2.099394">
        <ele>155</ele>
        <time>2022-02-24T08:35:57.000Z</time>
      </trkpt>
      <trkpt lat="47.68363" lon="2.09938">
        <ele>155</ele>
        <time>2022-02-24T08:35:58.000Z</time>
      </trkpt>
      <trkpt lat="47.68363" lon="2.0993636">
        <ele>155</ele>
        <time>2022-02-24T08:35:59.000Z</time>
      </trkpt>
      <trkpt lat="47.68363" lon="2.099338">
        <ele>155</ele>
        <time>2022-02-24T08:36:00.000Z</time>
      </trkpt>
      <trkpt lat="47.68363" lon="2.0993145">
        <ele>154</ele>
        <time>2022-02-24T08:36:01.000Z</time>
      </trkpt>
      <trkpt lat="47.68363" lon="2.0992923">
        <ele>154</ele>
        <time>2022-02-24T08:36:02.000Z</time>
      </trkpt>
      <trkpt lat="47.683636" lon="2.0992754">
        <ele>154</ele>
        <time>2022-02-24T08:36:03.000Z</time>
      </trkpt>
      <trkpt lat="47.68364" lon="2.099259">
        <ele>154</ele>
        <time>2022-02-24T08:36:04.000Z</time>
      </trkpt>
      <trkpt lat="47.683647" lon="2.099244">
        <ele>154</ele>
        <time>2022-02-24T08:36:05.000Z</time>
      </trkpt>
      <trkpt lat="47.68365" lon="2.0992305">
        <ele>154</ele>
        <time>2022-02-24T08:36:06.000Z</time>
      </trkpt>
      <trkpt lat="47.683655" lon="2.0992177">
        <ele>154</ele>
        <time>2022-02-24T08:36:07.000Z</time>
      </trkpt>
      <trkpt lat="47.68366" lon="2.0992055">
        <ele>154</ele>
        <time>2022-02-24T08:36:08.000Z</time>
      </trkpt>
      <trkpt lat="47.683666" lon="2.0991886">
        <ele>154</ele>
        <time>2022-02-24T08:36:09.000Z</time>
      </trkpt>
      <trkpt lat="47.683666" lon="2.0991724">
        <ele>154</ele>
        <time>2022-02-24T08:36:10.000Z</time>
      </trkpt>
      <trkpt lat="47.68367" lon="2.0991564">
        <ele>154</ele>
        <time>2022-02-24T08:36:11.000Z</time>
      </trkpt>
      <trkpt lat="47.683678" lon="2.0991418">
        <ele>154</ele>
        <time>2022-02-24T08:36:12.000Z</time>
      </trkpt>
      <trkpt lat="47.68368" lon="2.0991251">
        <ele>155</ele>
        <time>2022-02-24T08:36:13.000Z</time>
      </trkpt>
      <trkpt lat="47.683685" lon="2.0991096">
        <ele>155</ele>
        <time>2022-02-24T08:36:14.000Z</time>
      </trkpt>
      <trkpt lat="47.683685" lon="2.0990915">
        <ele>155</ele>
        <time>2022-02-24T08:36:15.000Z</time>
      </trkpt>
      <trkpt lat="47.68369" lon="2.0990703">
        <ele>155</ele>
        <time>2022-02-24T08:36:16.000Z</time>
      </trkpt>
      <trkpt lat="47.683697" lon="2.0990555">
        <ele>156</ele>
        <time>2022-02-24T08:36:17.000Z</time>
      </trkpt>
      <trkpt lat="47.683704" lon="2.0990427">
        <ele>156</ele>
        <time>2022-02-24T08:36:18.000Z</time>
      </trkpt>
      <trkpt lat="47.683712" lon="2.0990243">
        <ele>156</ele>
        <time>2022-02-24T08:36:19.000Z</time>
      </trkpt>
      <trkpt lat="47.683716" lon="2.0990095">
        <ele>156</ele>
        <time>2022-02-24T08:36:20.000Z</time>
      </trkpt>
      <trkpt lat="47.68372" lon="2.098996">
        <ele>156</ele>
        <time>2022-02-24T08:36:21.000Z</time>
      </trkpt>
      <trkpt lat="47.683723" lon="2.0989814">
        <ele>156</ele>
        <time>2022-02-24T08:36:22.000Z</time>
      </trkpt>
      <trkpt lat="47.683727" lon="2.0989666">
        <ele>155</ele>
        <time>2022-02-24T08:36:23.000Z</time>
      </trkpt>
      <trkpt lat="47.68373" lon="2.0989475">
        <ele>156</ele>
        <time>2022-02-24T08:36:24.000Z</time>
      </trkpt>
      <trkpt lat="47.683735" lon="2.0989327">
        <ele>156</ele>
        <time>2022-02-24T08:36:25.000Z</time>
      </trkpt>
      <trkpt lat="47.68374" lon="2.098917">
        <ele>156</ele>
        <time>2022-02-24T08:36:26.000Z</time>
      </trkpt>
      <trkpt lat="47.683743" lon="2.0988984">
        <ele>156</ele>
        <time>2022-02-24T08:36:27.000Z</time>
      </trkpt>
      <trkpt lat="47.683746" lon="2.0988822">
        <ele>156</ele>
        <time>2022-02-24T08:36:28.000Z</time>
      </trkpt>
      <trkpt lat="47.68375" lon="2.098867">
        <ele>156</ele>
        <time>2022-02-24T08:36:29.000Z</time>
      </trkpt>
      <trkpt lat="47.68375" lon="2.0988529">
        <ele>156</ele>
        <time>2022-02-24T08:36:30.000Z</time>
      </trkpt>
      <trkpt lat="47.68375" lon="2.098833">
        <ele>155</ele>
        <time>2022-02-24T08:36:31.000Z</time>
      </trkpt>
      <trkpt lat="47.68375" lon="2.0988173">
        <ele>155</ele>
        <time>2022-02-24T08:36:32.000Z</time>
      </trkpt>
      <trkpt lat="47.683754" lon="2.0988023">
        <ele>155</ele>
        <time>2022-02-24T08:36:33.000Z</time>
      </trkpt>
      <trkpt lat="47.683758" lon="2.0987906">
        <ele>155</ele>
        <time>2022-02-24T08:36:34.000Z</time>
      </trkpt>
      <trkpt lat="47.683758" lon="2.0987906">
        <ele>155</ele>
        <time>2022-02-24T08:36:35.000Z</time>
      </trkpt>
      <trkpt lat="47.683758" lon="2.0987906">
        <ele>155</ele>
        <time>2022-02-24T08:36:36.000Z</time>
      </trkpt>
      <trkpt lat="47.68376" lon="2.0987542">
        <ele>154</ele>
        <time>2022-02-24T08:36:37.000Z</time>
      </trkpt>
      <trkpt lat="47.68377" lon="2.0987365">
        <ele>154</ele>
        <time>2022-02-24T08:36:38.000Z</time>
      </trkpt>
      <trkpt lat="47.68377" lon="2.098719">
        <ele>153</ele>
        <time>2022-02-24T08:36:39.000Z</time>
      </trkpt>
      <trkpt lat="47.683773" lon="2.098707">
        <ele>153</ele>
        <time>2022-02-24T08:36:40.000Z</time>
      </trkpt>
      <trkpt lat="47.68378" lon="2.0986989">
        <ele>153</ele>
        <time>2022-02-24T08:36:41.000Z</time>
      </trkpt>
      <trkpt lat="47.68378" lon="2.0986989">
        <ele>153</ele>
        <time>2022-02-24T08:36:42.000Z</time>
      </trkpt>
      <trkpt lat="47.68379" lon="2.0986662">
        <ele>154</ele>
        <time>2022-02-24T08:36:43.000Z</time>
      </trkpt>
      <trkpt lat="47.683792" lon="2.0986464">
        <ele>154</ele>
        <time>2022-02-24T08:36:44.000Z</time>
      </trkpt>
      <trkpt lat="47.683796" lon="2.0986266">
        <ele>154</ele>
        <time>2022-02-24T08:36:45.000Z</time>
      </trkpt>
      <trkpt lat="47.6838" lon="2.0986083">
        <ele>153</ele>
        <time>2022-02-24T08:36:46.000Z</time>
      </trkpt>
      <trkpt lat="47.6838" lon="2.0985904">
        <ele>153</ele>
        <time>2022-02-24T08:36:47.000Z</time>
      </trkpt>
      <trkpt lat="47.6838" lon="2.0985904">
        <ele>153</ele>
        <time>2022-02-24T08:36:48.000Z</time>
      </trkpt>
      <trkpt lat="47.6838" lon="2.0985904">
        <ele>153</ele>
        <time>2022-02-24T08:36:49.000Z</time>
      </trkpt>
      <trkpt lat="47.683804" lon="2.0985441">
        <ele>152</ele>
        <time>2022-02-24T08:36:50.000Z</time>
      </trkpt>
      <trkpt lat="47.683804" lon="2.0985222">
        <ele>152</ele>
        <time>2022-02-24T08:36:51.000Z</time>
      </trkpt>
      <trkpt lat="47.683807" lon="2.0985057">
        <ele>153</ele>
        <time>2022-02-24T08:36:52.000Z</time>
      </trkpt>
      <trkpt lat="47.68381" lon="2.0984933">
        <ele>153</ele>
        <time>2022-02-24T08:36:53.000Z</time>
      </trkpt>
      <trkpt lat="47.683815" lon="2.098483">
        <ele>153</ele>
        <time>2022-02-24T08:36:54.000Z</time>
      </trkpt>
      <trkpt lat="47.68382" lon="2.0984716">
        <ele>153</ele>
        <time>2022-02-24T08:36:55.000Z</time>
      </trkpt>
      <trkpt lat="47.683826" lon="2.0984576">
        <ele>153</ele>
        <time>2022-02-24T08:36:56.000Z</time>
      </trkpt>
      <trkpt lat="47.68383" lon="2.0984428">
        <ele>153</ele>
        <time>2022-02-24T08:36:57.000Z</time>
      </trkpt>
      <trkpt lat="47.683838" lon="2.0984304">
        <ele>153</ele>
        <time>2022-02-24T08:36:58.000Z</time>
      </trkpt>
      <trkpt lat="47.683838" lon="2.0984116">
        <ele>153</ele>
        <time>2022-02-24T08:36:59.000Z</time>
      </trkpt>
      <trkpt lat="47.68384" lon="2.0983915">
        <ele>153</ele>
        <time>2022-02-24T08:37:00.000Z</time>
      </trkpt>
      <trkpt lat="47.683846" lon="2.09837">
        <ele>153</ele>
        <time>2022-02-24T08:37:01.000Z</time>
      </trkpt>
      <trkpt lat="47.683846" lon="2.0983472">
        <ele>152</ele>
        <time>2022-02-24T08:37:02.000Z</time>
      </trkpt>
      <trkpt lat="47.683853" lon="2.098332">
        <ele>152</ele>
        <time>2022-02-24T08:37:03.000Z</time>
      </trkpt>
      <trkpt lat="47.683857" lon="2.0983162">
        <ele>152</ele>
        <time>2022-02-24T08:37:04.000Z</time>
      </trkpt>
      <trkpt lat="47.68386" lon="2.0982993">
        <ele>152</ele>
        <time>2022-02-24T08:37:05.000Z</time>
      </trkpt>
      <trkpt lat="47.68387" lon="2.0982854">
        <ele>151</ele>
        <time>2022-02-24T08:37:06.000Z</time>
      </trkpt>
      <trkpt lat="47.683872" lon="2.0982692">
        <ele>152</ele>
        <time>2022-02-24T08:37:07.000Z</time>
      </trkpt>
      <trkpt lat="47.683872" lon="2.0982523">
        <ele>152</ele>
        <time>2022-02-24T08:37:08.000Z</time>
      </trkpt>
      <trkpt lat="47.68387" lon="2.098238">
        <ele>152</ele>
        <time>2022-02-24T08:37:09.000Z</time>
      </trkpt>
      <trkpt lat="47.68387" lon="2.098238">
        <ele>152</ele>
        <time>2022-02-24T08:37:10.000Z</time>
      </trkpt>
      <trkpt lat="47.68387" lon="2.098238">
        <ele>152</ele>
        <time>2022-02-24T08:37:11.000Z</time>
      </trkpt>
      <trkpt lat="47.683872" lon="2.0981982">
        <ele>151</ele>
        <time>2022-02-24T08:37:12.000Z</time>
      </trkpt>
      <trkpt lat="47.683872" lon="2.0981793">
        <ele>151</ele>
        <time>2022-02-24T08:37:13.000Z</time>
      </trkpt>
      <trkpt lat="47.683872" lon="2.098161">
        <ele>151</ele>
        <time>2022-02-24T08:37:14.000Z</time>
      </trkpt>
      <trkpt lat="47.68387" lon="2.0981421">
        <ele>151</ele>
        <time>2022-02-24T08:37:15.000Z</time>
      </trkpt>
      <trkpt lat="47.68387" lon="2.0981421">
        <ele>151</ele>
        <time>2022-02-24T08:37:16.000Z</time>
      </trkpt>
      <trkpt lat="47.68387" lon="2.0981421">
        <ele>151</ele>
        <time>2022-02-24T08:37:17.000Z</time>
      </trkpt>
      <trkpt lat="47.68387" lon="2.0980964">
        <ele>152</ele>
        <time>2022-02-24T08:37:18.000Z</time>
      </trkpt>
      <trkpt lat="47.68387" lon="2.098074">
        <ele>151</ele>
        <time>2022-02-24T08:37:19.000Z</time>
      </trkpt>
      <trkpt lat="47.68387" lon="2.098058">
        <ele>152</ele>
        <time>2022-02-24T08:37:20.000Z</time>
      </trkpt>
      <trkpt lat="47.68387" lon="2.0980444">
        <ele>152</ele>
        <time>2022-02-24T08:37:21.000Z</time>
      </trkpt>
      <trkpt lat="47.68387" lon="2.0980237">
        <ele>153</ele>
        <time>2022-02-24T08:37:22.000Z</time>
      </trkpt>
      <trkpt lat="47.68387" lon="2.098002">
        <ele>153</ele>
        <time>2022-02-24T08:37:23.000Z</time>
      </trkpt>
      <trkpt lat="47.68387" lon="2.098002">
        <ele>153</ele>
        <time>2022-02-24T08:37:24.000Z</time>
      </trkpt>
      <trkpt lat="47.68387" lon="2.098002">
        <ele>153</ele>
        <time>2022-02-24T08:37:25.000Z</time>
      </trkpt>
      <trkpt lat="47.683872" lon="2.097961">
        <ele>153</ele>
        <time>2022-02-24T08:37:26.000Z</time>
      </trkpt>
      <trkpt lat="47.683872" lon="2.097947">
        <ele>153</ele>
        <time>2022-02-24T08:37:27.000Z</time>
      </trkpt>
      <trkpt lat="47.683876" lon="2.097934">
        <ele>154</ele>
        <time>2022-02-24T08:37:28.000Z</time>
      </trkpt>
      <trkpt lat="47.68388" lon="2.0979211">
        <ele>154</ele>
        <time>2022-02-24T08:37:29.000Z</time>
      </trkpt>
      <trkpt lat="47.68388" lon="2.0979018">
        <ele>154</ele>
        <time>2022-02-24T08:37:30.000Z</time>
      </trkpt>
      <trkpt lat="47.683876" lon="2.0978818">
        <ele>153</ele>
        <time>2022-02-24T08:37:31.000Z</time>
      </trkpt>
      <trkpt lat="47.683876" lon="2.0978622">
        <ele>153</ele>
        <time>2022-02-24T08:37:32.000Z</time>
      </trkpt>
      <trkpt lat="47.68388" lon="2.0978487">
        <ele>153</ele>
        <time>2022-02-24T08:37:33.000Z</time>
      </trkpt>
      <trkpt lat="47.683876" lon="2.097826">
        <ele>153</ele>
        <time>2022-02-24T08:37:34.000Z</time>
      </trkpt>
      <trkpt lat="47.683872" lon="2.097806">
        <ele>153</ele>
        <time>2022-02-24T08:37:35.000Z</time>
      </trkpt>
      <trkpt lat="47.683872" lon="2.0977895">
        <ele>153</ele>
        <time>2022-02-24T08:37:36.000Z</time>
      </trkpt>
      <trkpt lat="47.68387" lon="2.0977783">
        <ele>154</ele>
        <time>2022-02-24T08:37:37.000Z</time>
      </trkpt>
      <trkpt lat="47.68387" lon="2.0977623">
        <ele>155</ele>
        <time>2022-02-24T08:37:38.000Z</time>
      </trkpt>
      <trkpt lat="47.68387" lon="2.0977623">
        <ele>155</ele>
        <time>2022-02-24T08:37:39.000Z</time>
      </trkpt>
      <trkpt lat="47.68386" lon="2.09774">
        <ele>155</ele>
        <time>2022-02-24T08:37:40.000Z</time>
      </trkpt>
      <trkpt lat="47.683857" lon="2.0977328">
        <ele>155</ele>
        <time>2022-02-24T08:37:41.000Z</time>
      </trkpt>
      <trkpt lat="47.68386" lon="2.0977175">
        <ele>154</ele>
        <time>2022-02-24T08:37:42.000Z</time>
      </trkpt>
      <trkpt lat="47.683857" lon="2.0977006">
        <ele>154</ele>
        <time>2022-02-24T08:37:43.000Z</time>
      </trkpt>
      <trkpt lat="47.683857" lon="2.0976803">
        <ele>154</ele>
        <time>2022-02-24T08:37:44.000Z</time>
      </trkpt>
      <trkpt lat="47.683857" lon="2.0976803">
        <ele>154</ele>
        <time>2022-02-24T08:37:45.000Z</time>
      </trkpt>
      <trkpt lat="47.68385" lon="2.0976503">
        <ele>153</ele>
        <time>2022-02-24T08:37:46.000Z</time>
      </trkpt>
      <trkpt lat="47.68385" lon="2.0976238">
        <ele>153</ele>
        <time>2022-02-24T08:37:47.000Z</time>
      </trkpt>
      <trkpt lat="47.683846" lon="2.0976026">
        <ele>153</ele>
        <time>2022-02-24T08:37:48.000Z</time>
      </trkpt>
      <trkpt lat="47.68384" lon="2.097584">
        <ele>153</ele>
        <time>2022-02-24T08:37:49.000Z</time>
      </trkpt>
      <trkpt lat="47.68384" lon="2.0975654">
        <ele>153</ele>
        <time>2022-02-24T08:37:50.000Z</time>
      </trkpt>
      <trkpt lat="47.683838" lon="2.097547">
        <ele>152</ele>
        <time>2022-02-24T08:37:51.000Z</time>
      </trkpt>
      <trkpt lat="47.683838" lon="2.097547">
        <ele>152</ele>
        <time>2022-02-24T08:37:52.000Z</time>
      </trkpt>
      <trkpt lat="47.683838" lon="2.097547">
        <ele>152</ele>
        <time>2022-02-24T08:37:53.000Z</time>
      </trkpt>
      <trkpt lat="47.683826" lon="2.0975018">
        <ele>152</ele>
        <time>2022-02-24T08:37:54.000Z</time>
      </trkpt>
      <trkpt lat="47.683823" lon="2.0974798">
        <ele>152</ele>
        <time>2022-02-24T08:37:55.000Z</time>
      </trkpt>
      <trkpt lat="47.68382" lon="2.0974598">
        <ele>151</ele>
        <time>2022-02-24T08:37:56.000Z</time>
      </trkpt>
      <trkpt lat="47.68382" lon="2.0974398">
        <ele>151</ele>
        <time>2022-02-24T08:37:57.000Z</time>
      </trkpt>
      <trkpt lat="47.68382" lon="2.0974398">
        <ele>151</ele>
        <time>2022-02-24T08:37:58.000Z</time>
      </trkpt>
      <trkpt lat="47.68382" lon="2.0974398">
        <ele>151</ele>
        <time>2022-02-24T08:37:59.000Z</time>
      </trkpt>
      <trkpt lat="47.683815" lon="2.0973942">
        <ele>151</ele>
        <time>2022-02-24T08:38:00.000Z</time>
      </trkpt>
      <trkpt lat="47.68381" lon="2.0973759">
        <ele>151</ele>
        <time>2022-02-24T08:38:01.000Z</time>
      </trkpt>
      <trkpt lat="47.68381" lon="2.0973592">
        <ele>151</ele>
        <time>2022-02-24T08:38:02.000Z</time>
      </trkpt>
      <trkpt lat="47.683807" lon="2.0973384">
        <ele>151</ele>
        <time>2022-02-24T08:38:03.000Z</time>
      </trkpt>
      <trkpt lat="47.683804" lon="2.0973222">
        <ele>151</ele>
        <time>2022-02-24T08:38:04.000Z</time>
      </trkpt>
      <trkpt lat="47.683804" lon="2.0973065">
        <ele>151</ele>
        <time>2022-02-24T08:38:05.000Z</time>
      </trkpt>
      <trkpt lat="47.683804" lon="2.0973065">
        <ele>151</ele>
        <time>2022-02-24T08:38:06.000Z</time>
      </trkpt>
      <trkpt lat="47.683804" lon="2.0973065">
        <ele>151</ele>
        <time>2022-02-24T08:38:07.000Z</time>
      </trkpt>
      <trkpt lat="47.683796" lon="2.0972605">
        <ele>150</ele>
        <time>2022-02-24T08:38:08.000Z</time>
      </trkpt>
      <trkpt lat="47.683792" lon="2.0972435">
        <ele>151</ele>
        <time>2022-02-24T08:38:09.000Z</time>
      </trkpt>
      <trkpt lat="47.68379" lon="2.0972192">
        <ele>150</ele>
        <time>2022-02-24T08:38:10.000Z</time>
      </trkpt>
      <trkpt lat="47.68379" lon="2.097196">
        <ele>150</ele>
        <time>2022-02-24T08:38:11.000Z</time>
      </trkpt>
      <trkpt lat="47.683784" lon="2.0971751">
        <ele>150</ele>
        <time>2022-02-24T08:38:12.000Z</time>
      </trkpt>
      <trkpt lat="47.68378" lon="2.0971537">
        <ele>150</ele>
        <time>2022-02-24T08:38:13.000Z</time>
      </trkpt>
      <trkpt lat="47.68378" lon="2.0971537">
        <ele>150</ele>
        <time>2022-02-24T08:38:14.000Z</time>
      </trkpt>
      <trkpt lat="47.68378" lon="2.0971537">
        <ele>150</ele>
        <time>2022-02-24T08:38:15.000Z</time>
      </trkpt>
      <trkpt lat="47.68377" lon="2.0971036">
        <ele>150</ele>
        <time>2022-02-24T08:38:16.000Z</time>
      </trkpt>
      <trkpt lat="47.683765" lon="2.0970845">
        <ele>149</ele>
        <time>2022-02-24T08:38:17.000Z</time>
      </trkpt>
      <trkpt lat="47.68376" lon="2.097065">
        <ele>148</ele>
        <time>2022-02-24T08:38:18.000Z</time>
      </trkpt>
      <trkpt lat="47.683758" lon="2.0970502">
        <ele>149</ele>
        <time>2022-02-24T08:38:19.000Z</time>
      </trkpt>
      <trkpt lat="47.683758" lon="2.0970502">
        <ele>149</ele>
        <time>2022-02-24T08:38:20.000Z</time>
      </trkpt>
      <trkpt lat="47.683754" lon="2.0970163">
        <ele>149</ele>
        <time>2022-02-24T08:38:21.000Z</time>
      </trkpt>
      <trkpt lat="47.683754" lon="2.0969982">
        <ele>148</ele>
        <time>2022-02-24T08:38:22.000Z</time>
      </trkpt>
      <trkpt lat="47.68375" lon="2.0969784">
        <ele>148</ele>
        <time>2022-02-24T08:38:23.000Z</time>
      </trkpt>
      <trkpt lat="47.683746" lon="2.0969684">
        <ele>148</ele>
        <time>2022-02-24T08:38:24.000Z</time>
      </trkpt>
      <trkpt lat="47.683746" lon="2.0969617">
        <ele>148</ele>
        <time>2022-02-24T08:38:25.000Z</time>
      </trkpt>
      <trkpt lat="47.683746" lon="2.0969462">
        <ele>147</ele>
        <time>2022-02-24T08:38:26.000Z</time>
      </trkpt>
      <trkpt lat="47.683743" lon="2.0969281">
        <ele>147</ele>
        <time>2022-02-24T08:38:27.000Z</time>
      </trkpt>
      <trkpt lat="47.683743" lon="2.0969052">
        <ele>147</ele>
        <time>2022-02-24T08:38:28.000Z</time>
      </trkpt>
      <trkpt lat="47.683743" lon="2.0968847">
        <ele>147</ele>
        <time>2022-02-24T08:38:29.000Z</time>
      </trkpt>
      <trkpt lat="47.68374" lon="2.096865">
        <ele>148</ele>
        <time>2022-02-24T08:38:30.000Z</time>
      </trkpt>
      <trkpt lat="47.68374" lon="2.0968425">
        <ele>148</ele>
        <time>2022-02-24T08:38:31.000Z</time>
      </trkpt>
      <trkpt lat="47.683735" lon="2.0968208">
        <ele>148</ele>
        <time>2022-02-24T08:38:32.000Z</time>
      </trkpt>
      <trkpt lat="47.68373" lon="2.096799">
        <ele>148</ele>
        <time>2022-02-24T08:38:33.000Z</time>
      </trkpt>
      <trkpt lat="47.683727" lon="2.0967736">
        <ele>148</ele>
        <time>2022-02-24T08:38:34.000Z</time>
      </trkpt>
      <trkpt lat="47.683723" lon="2.096748">
        <ele>148</ele>
        <time>2022-02-24T08:38:35.000Z</time>
      </trkpt>
      <trkpt lat="47.683723" lon="2.0967243">
        <ele>149</ele>
        <time>2022-02-24T08:38:36.000Z</time>
      </trkpt>
      <trkpt lat="47.68372" lon="2.0967014">
        <ele>149</ele>
        <time>2022-02-24T08:38:37.000Z</time>
      </trkpt>
      <trkpt lat="47.683716" lon="2.0966778">
        <ele>149</ele>
        <time>2022-02-24T08:38:38.000Z</time>
      </trkpt>
      <trkpt lat="47.683716" lon="2.0966535">
        <ele>149</ele>
        <time>2022-02-24T08:38:39.000Z</time>
      </trkpt>
      <trkpt lat="47.683712" lon="2.0966344">
        <ele>150</ele>
        <time>2022-02-24T08:38:40.000Z</time>
      </trkpt>
      <trkpt lat="47.683712" lon="2.0966144">
        <ele>150</ele>
        <time>2022-02-24T08:38:41.000Z</time>
      </trkpt>
      <trkpt lat="47.68371" lon="2.096596">
        <ele>150</ele>
        <time>2022-02-24T08:38:42.000Z</time>
      </trkpt>
      <trkpt lat="47.683704" lon="2.0965765">
        <ele>150</ele>
        <time>2022-02-24T08:38:43.000Z</time>
      </trkpt>
      <trkpt lat="47.683697" lon="2.096557">
        <ele>150</ele>
        <time>2022-02-24T08:38:44.000Z</time>
      </trkpt>
      <trkpt lat="47.683697" lon="2.096537">
        <ele>150</ele>
        <time>2022-02-24T08:38:45.000Z</time>
      </trkpt>
      <trkpt lat="47.683693" lon="2.0965183">
        <ele>150</ele>
        <time>2022-02-24T08:38:46.000Z</time>
      </trkpt>
      <trkpt lat="47.683693" lon="2.0964968">
        <ele>151</ele>
        <time>2022-02-24T08:38:47.000Z</time>
      </trkpt>
      <trkpt lat="47.68369" lon="2.0964777">
        <ele>151</ele>
        <time>2022-02-24T08:38:48.000Z</time>
      </trkpt>
      <trkpt lat="47.68369" lon="2.0964594">
        <ele>151</ele>
        <time>2022-02-24T08:38:49.000Z</time>
      </trkpt>
      <trkpt lat="47.683685" lon="2.0964398">
        <ele>151</ele>
        <time>2022-02-24T08:38:50.000Z</time>
      </trkpt>
      <trkpt lat="47.683685" lon="2.0964208">
        <ele>151</ele>
        <time>2022-02-24T08:38:51.000Z</time>
      </trkpt>
      <trkpt lat="47.68368" lon="2.096404">
        <ele>150</ele>
        <time>2022-02-24T08:38:52.000Z</time>
      </trkpt>
      <trkpt lat="47.68368" lon="2.0963855">
        <ele>151</ele>
        <time>2022-02-24T08:38:53.000Z</time>
      </trkpt>
      <trkpt lat="47.683678" lon="2.0963697">
        <ele>151</ele>
        <time>2022-02-24T08:38:54.000Z</time>
      </trkpt>
      <trkpt lat="47.68367" lon="2.0963528">
        <ele>151</ele>
        <time>2022-02-24T08:38:55.000Z</time>
      </trkpt>
      <trkpt lat="47.683666" lon="2.0963304">
        <ele>151</ele>
        <time>2022-02-24T08:38:56.000Z</time>
      </trkpt>
      <trkpt lat="47.683662" lon="2.0963151">
        <ele>152</ele>
        <time>2022-02-24T08:38:57.000Z</time>
      </trkpt>
      <trkpt lat="47.68366" lon="2.0962975">
        <ele>152</ele>
        <time>2022-02-24T08:38:58.000Z</time>
      </trkpt>
      <trkpt lat="47.68365" lon="2.0962808">
        <ele>152</ele>
        <time>2022-02-24T08:38:59.000Z</time>
      </trkpt>
      <trkpt lat="47.68365" lon="2.0962684">
        <ele>152</ele>
        <time>2022-02-24T08:39:00.000Z</time>
      </trkpt>
      <trkpt lat="47.683647" lon="2.0962567">
        <ele>153</ele>
        <time>2022-02-24T08:39:01.000Z</time>
      </trkpt>
      <trkpt lat="47.683643" lon="2.0962298">
        <ele>153</ele>
        <time>2022-02-24T08:39:02.000Z</time>
      </trkpt>
      <trkpt lat="47.683643" lon="2.0962298">
        <ele>153</ele>
        <time>2022-02-24T08:39:02.000Z</time>
      </trkpt>
      <trkpt lat="47.68364" lon="2.096211">
        <ele>153</ele>
        <time>2022-02-24T08:39:04.000Z</time>
      </trkpt>
      <trkpt lat="47.68364" lon="2.0961933">
        <ele>153</ele>
        <time>2022-02-24T08:39:05.000Z</time>
      </trkpt>
      <trkpt lat="47.68364" lon="2.096177">
        <ele>154</ele>
        <time>2022-02-24T08:39:06.000Z</time>
      </trkpt>
      <trkpt lat="47.68364" lon="2.096161">
        <ele>154</ele>
        <time>2022-02-24T08:39:07.000Z</time>
      </trkpt>
      <trkpt lat="47.68364" lon="2.0961447">
        <ele>154</ele>
        <time>2022-02-24T08:39:08.000Z</time>
      </trkpt>
      <trkpt lat="47.68364" lon="2.0961294">
        <ele>154</ele>
        <time>2022-02-24T08:39:09.000Z</time>
      </trkpt>
      <trkpt lat="47.683636" lon="2.0961108">
        <ele>154</ele>
        <time>2022-02-24T08:39:10.000Z</time>
      </trkpt>
      <trkpt lat="47.683636" lon="2.096075">
        <ele>154</ele>
        <time>2022-02-24T08:39:11.000Z</time>
      </trkpt>
      <trkpt lat="47.683636" lon="2.096075">
        <ele>154</ele>
        <time>2022-02-24T08:39:11.000Z</time>
      </trkpt>
      <trkpt lat="47.683636" lon="2.0960593">
        <ele>154</ele>
        <time>2022-02-24T08:39:13.000Z</time>
      </trkpt>
      <trkpt lat="47.683636" lon="2.0960424">
        <ele>154</ele>
        <time>2022-02-24T08:39:14.000Z</time>
      </trkpt>
      <trkpt lat="47.683636" lon="2.0960279">
        <ele>154</ele>
        <time>2022-02-24T08:39:15.000Z</time>
      </trkpt>
      <trkpt lat="47.68363" lon="2.096014">
        <ele>154</ele>
        <time>2022-02-24T08:39:16.000Z</time>
      </trkpt>
      <trkpt lat="47.68363" lon="2.096014">
        <ele>154</ele>
        <time>2022-02-24T08:39:17.000Z</time>
      </trkpt>
      <trkpt lat="47.68363" lon="2.096014">
        <ele>154</ele>
        <time>2022-02-24T08:39:18.000Z</time>
      </trkpt>
      <trkpt lat="47.683628" lon="2.0959744">
        <ele>154</ele>
        <time>2022-02-24T08:39:19.000Z</time>
      </trkpt>
      <trkpt lat="47.683624" lon="2.095963">
        <ele>154</ele>
        <time>2022-02-24T08:39:20.000Z</time>
      </trkpt>
      <trkpt lat="47.68362" lon="2.0959504">
        <ele>154</ele>
        <time>2022-02-24T08:39:21.000Z</time>
      </trkpt>
      <trkpt lat="47.683617" lon="2.095933">
        <ele>154</ele>
        <time>2022-02-24T08:39:22.000Z</time>
      </trkpt>
      <trkpt lat="47.68361" lon="2.095912">
        <ele>153</ele>
        <time>2022-02-24T08:39:23.000Z</time>
      </trkpt>
      <trkpt lat="47.68361" lon="2.095896">
        <ele>153</ele>
        <time>2022-02-24T08:39:24.000Z</time>
      </trkpt>
      <trkpt lat="47.68361" lon="2.0958803">
        <ele>153</ele>
        <time>2022-02-24T08:39:25.000Z</time>
      </trkpt>
      <trkpt lat="47.683605" lon="2.0958724">
        <ele>153</ele>
        <time>2022-02-24T08:39:26.000Z</time>
      </trkpt>
      <trkpt lat="47.6836" lon="2.0958538">
        <ele>153</ele>
        <time>2022-02-24T08:39:27.000Z</time>
      </trkpt>
      <trkpt lat="47.683598" lon="2.0958257">
        <ele>153</ele>
        <time>2022-02-24T08:39:28.000Z</time>
      </trkpt>
      <trkpt lat="47.683598" lon="2.0958257">
        <ele>153</ele>
        <time>2022-02-24T08:39:28.000Z</time>
      </trkpt>
      <trkpt lat="47.683594" lon="2.0958114">
        <ele>153</ele>
        <time>2022-02-24T08:39:30.000Z</time>
      </trkpt>
      <trkpt lat="47.683594" lon="2.0958014">
        <ele>154</ele>
        <time>2022-02-24T08:39:31.000Z</time>
      </trkpt>
      <trkpt lat="47.683594" lon="2.0958014">
        <ele>154</ele>
        <time>2022-02-24T08:39:32.000Z</time>
      </trkpt>
      <trkpt lat="47.683594" lon="2.0958014">
        <ele>154</ele>
        <time>2022-02-24T08:39:33.000Z</time>
      </trkpt>
      <trkpt lat="47.68359" lon="2.0957606">
        <ele>154</ele>
        <time>2022-02-24T08:39:34.000Z</time>
      </trkpt>
      <trkpt lat="47.683586" lon="2.095745">
        <ele>154</ele>
        <time>2022-02-24T08:39:35.000Z</time>
      </trkpt>
      <trkpt lat="47.683582" lon="2.0957267">
        <ele>154</ele>
        <time>2022-02-24T08:39:36.000Z</time>
      </trkpt>
      <trkpt lat="47.68358" lon="2.0957096">
        <ele>155</ele>
        <time>2022-02-24T08:39:37.000Z</time>
      </trkpt>
      <trkpt lat="47.68358" lon="2.0956967">
        <ele>155</ele>
        <time>2022-02-24T08:39:38.000Z</time>
      </trkpt>
      <trkpt lat="47.68357" lon="2.0956683">
        <ele>156</ele>
        <time>2022-02-24T08:39:39.000Z</time>
      </trkpt>
      <trkpt lat="47.68357" lon="2.0956683">
        <ele>156</ele>
        <time>2022-02-24T08:39:39.000Z</time>
      </trkpt>
      <trkpt lat="47.68357" lon="2.0956683">
        <ele>156</ele>
        <time>2022-02-24T08:39:41.000Z</time>
      </trkpt>
      <trkpt lat="47.683567" lon="2.0956335">
        <ele>156</ele>
        <time>2022-02-24T08:39:42.000Z</time>
      </trkpt>
      <trkpt lat="47.683563" lon="2.0956209">
        <ele>156</ele>
        <time>2022-02-24T08:39:43.000Z</time>
      </trkpt>
      <trkpt lat="47.683563" lon="2.0956082">
        <ele>157</ele>
        <time>2022-02-24T08:39:44.000Z</time>
      </trkpt>
      <trkpt lat="47.68356" lon="2.0955973">
        <ele>157</ele>
        <time>2022-02-24T08:39:45.000Z</time>
      </trkpt>
      <trkpt lat="47.68356" lon="2.0955973">
        <ele>157</ele>
        <time>2022-02-24T08:39:46.000Z</time>
      </trkpt>
      <trkpt lat="47.68356" lon="2.0955973">
        <ele>157</ele>
        <time>2022-02-24T08:39:47.000Z</time>
      </trkpt>
      <trkpt lat="47.683556" lon="2.0955591">
        <ele>157</ele>
        <time>2022-02-24T08:39:48.000Z</time>
      </trkpt>
      <trkpt lat="47.683556" lon="2.0955477">
        <ele>156</ele>
        <time>2022-02-24T08:39:49.000Z</time>
      </trkpt>
      <trkpt lat="47.683556" lon="2.0955477">
        <ele>156</ele>
        <time>2022-02-24T08:39:49.000Z</time>
      </trkpt>
      <trkpt lat="47.683556" lon="2.095525">
        <ele>157</ele>
        <time>2022-02-24T08:39:51.000Z</time>
      </trkpt>
      <trkpt lat="47.683556" lon="2.095525">
        <ele>157</ele>
        <time>2022-02-24T08:39:51.000Z</time>
      </trkpt>
      <trkpt lat="47.683556" lon="2.095525">
        <ele>157</ele>
        <time>2022-02-24T08:39:53.000Z</time>
      </trkpt>
      <trkpt lat="47.683556" lon="2.095525">
        <ele>157</ele>
        <time>2022-02-24T08:39:54.000Z</time>
      </trkpt>
      <trkpt lat="47.683563" lon="2.0954964">
        <ele>156</ele>
        <time>2022-02-24T08:39:55.000Z</time>
      </trkpt>
      <trkpt lat="47.683563" lon="2.0954814">
        <ele>155</ele>
        <time>2022-02-24T08:39:56.000Z</time>
      </trkpt>
      <trkpt lat="47.683563" lon="2.09547">
        <ele>155</ele>
        <time>2022-02-24T08:39:57.000Z</time>
      </trkpt>
      <trkpt lat="47.68356" lon="2.095458">
        <ele>155</ele>
        <time>2022-02-24T08:39:58.000Z</time>
      </trkpt>
      <trkpt lat="47.68356" lon="2.095458">
        <ele>155</ele>
        <time>2022-02-24T08:39:59.000Z</time>
      </trkpt>
      <trkpt lat="47.68356" lon="2.095458">
        <ele>155</ele>
        <time>2022-02-24T08:39:59.000Z</time>
      </trkpt>
      <trkpt lat="47.683556" lon="2.0954225">
        <ele>154</ele>
        <time>2022-02-24T08:40:01.000Z</time>
      </trkpt>
      <trkpt lat="47.68355" lon="2.095404">
        <ele>153</ele>
        <time>2022-02-24T08:40:02.000Z</time>
      </trkpt>
      <trkpt lat="47.683544" lon="2.095359">
        <ele>153</ele>
        <time>2022-02-24T08:40:03.000Z</time>
      </trkpt>
      <trkpt lat="47.683544" lon="2.095359">
        <ele>153</ele>
        <time>2022-02-24T08:40:03.000Z</time>
      </trkpt>
      <trkpt lat="47.68354" lon="2.095318">
        <ele>152</ele>
        <time>2022-02-24T08:40:05.000Z</time>
      </trkpt>
      <trkpt lat="47.68354" lon="2.095318">
        <ele>152</ele>
        <time>2022-02-24T08:40:05.000Z</time>
      </trkpt>
      <trkpt lat="47.68354" lon="2.0952768">
        <ele>151</ele>
        <time>2022-02-24T08:40:07.000Z</time>
      </trkpt>
      <trkpt lat="47.68354" lon="2.0952768">
        <ele>151</ele>
        <time>2022-02-24T08:40:07.000Z</time>
      </trkpt>
      <trkpt lat="47.683533" lon="2.0952454">
        <ele>151</ele>
        <time>2022-02-24T08:40:09.000Z</time>
      </trkpt>
      <trkpt lat="47.683525" lon="2.0952322">
        <ele>151</ele>
        <time>2022-02-24T08:40:10.000Z</time>
      </trkpt>
      <trkpt lat="47.683525" lon="2.0952322">
        <ele>151</ele>
        <time>2022-02-24T08:40:10.000Z</time>
      </trkpt>
      <trkpt lat="47.683525" lon="2.095216">
        <ele>151</ele>
        <time>2022-02-24T08:40:12.000Z</time>
      </trkpt>
      <trkpt lat="47.68352" lon="2.0951948">
        <ele>151</ele>
        <time>2022-02-24T08:40:13.000Z</time>
      </trkpt>
      <trkpt lat="47.68352" lon="2.0951948">
        <ele>151</ele>
        <time>2022-02-24T08:40:13.000Z</time>
      </trkpt>
      <trkpt lat="47.683517" lon="2.0951872">
        <ele>151</ele>
        <time>2022-02-24T08:40:15.000Z</time>
      </trkpt>
      <trkpt lat="47.68352" lon="2.095167">
        <ele>151</ele>
        <time>2022-02-24T08:40:16.000Z</time>
      </trkpt>
      <trkpt lat="47.68352" lon="2.095167">
        <ele>151</ele>
        <time>2022-02-24T08:40:16.000Z</time>
      </trkpt>
      <trkpt lat="47.683525" lon="2.0951498">
        <ele>151</ele>
        <time>2022-02-24T08:40:18.000Z</time>
      </trkpt>
      <trkpt lat="47.68352" lon="2.0951335">
        <ele>151</ele>
        <time>2022-02-24T08:40:19.000Z</time>
      </trkpt>
      <trkpt lat="47.683517" lon="2.0951178">
        <ele>151</ele>
        <time>2022-02-24T08:40:20.000Z</time>
      </trkpt>
      <trkpt lat="47.683514" lon="2.0951033">
        <ele>151</ele>
        <time>2022-02-24T08:40:21.000Z</time>
      </trkpt>
      <trkpt lat="47.683514" lon="2.0950875">
        <ele>151</ele>
        <time>2022-02-24T08:40:22.000Z</time>
      </trkpt>
      <trkpt lat="47.683502" lon="2.0950499">
        <ele>151</ele>
        <time>2022-02-24T08:40:23.000Z</time>
      </trkpt>
      <trkpt lat="47.683502" lon="2.0950499">
        <ele>151</ele>
        <time>2022-02-24T08:40:23.000Z</time>
      </trkpt>
      <trkpt lat="47.6835" lon="2.0950139">
        <ele>151</ele>
        <time>2022-02-24T08:40:25.000Z</time>
      </trkpt>
      <trkpt lat="47.6835" lon="2.0949996">
        <ele>151</ele>
        <time>2022-02-24T08:40:26.000Z</time>
      </trkpt>
      <trkpt lat="47.6835" lon="2.0949996">
        <ele>151</ele>
        <time>2022-02-24T08:40:26.000Z</time>
      </trkpt>
      <trkpt lat="47.6835" lon="2.0949996">
        <ele>151</ele>
        <time>2022-02-24T08:40:28.000Z</time>
      </trkpt>
      <trkpt lat="47.6835" lon="2.0949996">
        <ele>151</ele>
        <time>2022-02-24T08:40:28.000Z</time>
      </trkpt>
      <trkpt lat="47.683495" lon="2.0949378">
        <ele>150</ele>
        <time>2022-02-24T08:40:30.000Z</time>
      </trkpt>
      <trkpt lat="47.68349" lon="2.0949223">
        <ele>151</ele>
        <time>2022-02-24T08:40:31.000Z</time>
      </trkpt>
      <trkpt lat="47.683487" lon="2.0949142">
        <ele>151</ele>
        <time>2022-02-24T08:40:32.000Z</time>
      </trkpt>
      <trkpt lat="47.683487" lon="2.0949142">
        <ele>151</ele>
        <time>2022-02-24T08:40:33.000Z</time>
      </trkpt>
      <trkpt lat="47.683487" lon="2.0949142">
        <ele>151</ele>
        <time>2022-02-24T08:40:33.000Z</time>
      </trkpt>
      <trkpt lat="47.68348" lon="2.0948756">
        <ele>152</ele>
        <time>2022-02-24T08:40:35.000Z</time>
      </trkpt>
      <trkpt lat="47.683475" lon="2.0948594">
        <ele>152</ele>
        <time>2022-02-24T08:40:36.000Z</time>
      </trkpt>
      <trkpt lat="47.683475" lon="2.094843">
        <ele>151</ele>
        <time>2022-02-24T08:40:37.000Z</time>
      </trkpt>
      <trkpt lat="47.683475" lon="2.094843">
        <ele>151</ele>
        <time>2022-02-24T08:40:37.000Z</time>
      </trkpt>
      <trkpt lat="47.683475" lon="2.0948248">
        <ele>151</ele>
        <time>2022-02-24T08:40:39.000Z</time>
      </trkpt>
      <trkpt lat="47.683475" lon="2.0948248">
        <ele>151</ele>
        <time>2022-02-24T08:40:39.000Z</time>
      </trkpt>
      <trkpt lat="47.683468" lon="2.0947914">
        <ele>150</ele>
        <time>2022-02-24T08:40:41.000Z</time>
      </trkpt>
      <trkpt lat="47.683468" lon="2.0947747">
        <ele>150</ele>
        <time>2022-02-24T08:40:42.000Z</time>
      </trkpt>
      <trkpt lat="47.683464" lon="2.094754">
        <ele>149</ele>
        <time>2022-02-24T08:40:43.000Z</time>
      </trkpt>
      <trkpt lat="47.683464" lon="2.094732">
        <ele>149</ele>
        <time>2022-02-24T08:40:44.000Z</time>
      </trkpt>
      <trkpt lat="47.683464" lon="2.094732">
        <ele>149</ele>
        <time>2022-02-24T08:40:45.000Z</time>
      </trkpt>
      <trkpt lat="47.683464" lon="2.094732">
        <ele>149</ele>
        <time>2022-02-24T08:40:46.000Z</time>
      </trkpt>
      <trkpt lat="47.68346" lon="2.094686">
        <ele>148</ele>
        <time>2022-02-24T08:40:47.000Z</time>
      </trkpt>
      <trkpt lat="47.68346" lon="2.094669">
        <ele>148</ele>
        <time>2022-02-24T08:40:48.000Z</time>
      </trkpt>
      <trkpt lat="47.683456" lon="2.0946496">
        <ele>147</ele>
        <time>2022-02-24T08:40:49.000Z</time>
      </trkpt>
      <trkpt lat="47.683453" lon="2.09463">
        <ele>147</ele>
        <time>2022-02-24T08:40:50.000Z</time>
      </trkpt>
      <trkpt lat="47.683445" lon="2.0946136">
        <ele>146</ele>
        <time>2022-02-24T08:40:51.000Z</time>
      </trkpt>
      <trkpt lat="47.68344" lon="2.0945947">
        <ele>146</ele>
        <time>2022-02-24T08:40:52.000Z</time>
      </trkpt>
      <trkpt lat="47.683437" lon="2.0945814">
        <ele>146</ele>
        <time>2022-02-24T08:40:53.000Z</time>
      </trkpt>
      <trkpt lat="47.683437" lon="2.0945814">
        <ele>146</ele>
        <time>2022-02-24T08:40:53.000Z</time>
      </trkpt>
      <trkpt lat="47.683434" lon="2.0945694">
        <ele>145</ele>
        <time>2022-02-24T08:40:55.000Z</time>
      </trkpt>
      <trkpt lat="47.683434" lon="2.0945694">
        <ele>145</ele>
        <time>2022-02-24T08:40:56.000Z</time>
      </trkpt>
      <trkpt lat="47.68343" lon="2.094543">
        <ele>146</ele>
        <time>2022-02-24T08:40:57.000Z</time>
      </trkpt>
      <trkpt lat="47.683426" lon="2.0945272">
        <ele>146</ele>
        <time>2022-02-24T08:40:58.000Z</time>
      </trkpt>
      <trkpt lat="47.683426" lon="2.0945091">
        <ele>145</ele>
        <time>2022-02-24T08:40:59.000Z</time>
      </trkpt>
      <trkpt lat="47.683426" lon="2.094489">
        <ele>145</ele>
        <time>2022-02-24T08:41:00.000Z</time>
      </trkpt>
      <trkpt lat="47.683422" lon="2.0944712">
        <ele>145</ele>
        <time>2022-02-24T08:41:01.000Z</time>
      </trkpt>
      <trkpt lat="47.68342" lon="2.0944517">
        <ele>144</ele>
        <time>2022-02-24T08:41:02.000Z</time>
      </trkpt>
      <trkpt lat="47.683414" lon="2.094433">
        <ele>144</ele>
        <time>2022-02-24T08:41:03.000Z</time>
      </trkpt>
      <trkpt lat="47.68341" lon="2.0944152">
        <ele>144</ele>
        <time>2022-02-24T08:41:04.000Z</time>
      </trkpt>
      <trkpt lat="47.683407" lon="2.0943947">
        <ele>144</ele>
        <time>2022-02-24T08:41:05.000Z</time>
      </trkpt>
      <trkpt lat="47.683403" lon="2.0943763">
        <ele>144</ele>
        <time>2022-02-24T08:41:06.000Z</time>
      </trkpt>
      <trkpt lat="47.683403" lon="2.0943556">
        <ele>144</ele>
        <time>2022-02-24T08:41:07.000Z</time>
      </trkpt>
      <trkpt lat="47.683407" lon="2.0943334">
        <ele>143</ele>
        <time>2022-02-24T08:41:08.000Z</time>
      </trkpt>
      <trkpt lat="47.683403" lon="2.094313">
        <ele>143</ele>
        <time>2022-02-24T08:41:09.000Z</time>
      </trkpt>
      <trkpt lat="47.6834" lon="2.0942914">
        <ele>143</ele>
        <time>2022-02-24T08:41:10.000Z</time>
      </trkpt>
      <trkpt lat="47.68339" lon="2.0942705">
        <ele>143</ele>
        <time>2022-02-24T08:41:11.000Z</time>
      </trkpt>
      <trkpt lat="47.683388" lon="2.0942535">
        <ele>143</ele>
        <time>2022-02-24T08:41:12.000Z</time>
      </trkpt>
      <trkpt lat="47.68338" lon="2.0942345">
        <ele>143</ele>
        <time>2022-02-24T08:41:13.000Z</time>
      </trkpt>
      <trkpt lat="47.68338" lon="2.0942345">
        <ele>143</ele>
        <time>2022-02-24T08:41:13.000Z</time>
      </trkpt>
      <trkpt lat="47.68338" lon="2.094207">
        <ele>143</ele>
        <time>2022-02-24T08:41:15.000Z</time>
      </trkpt>
      <trkpt lat="47.68338" lon="2.0941887">
        <ele>143</ele>
        <time>2022-02-24T08:41:16.000Z</time>
      </trkpt>
      <trkpt lat="47.68338" lon="2.094175">
        <ele>143</ele>
        <time>2022-02-24T08:41:17.000Z</time>
      </trkpt>
      <trkpt lat="47.68338" lon="2.094158">
        <ele>143</ele>
        <time>2022-02-24T08:41:18.000Z</time>
      </trkpt>
      <trkpt lat="47.68338" lon="2.0941467">
        <ele>143</ele>
        <time>2022-02-24T08:41:19.000Z</time>
      </trkpt>
      <trkpt lat="47.683388" lon="2.094135">
        <ele>143</ele>
        <time>2022-02-24T08:41:20.000Z</time>
      </trkpt>
      <trkpt lat="47.68339" lon="2.0941236">
        <ele>143</ele>
        <time>2022-02-24T08:41:21.000Z</time>
      </trkpt>
      <trkpt lat="47.683395" lon="2.0941117">
        <ele>143</ele>
        <time>2022-02-24T08:41:22.000Z</time>
      </trkpt>
      <trkpt lat="47.6834" lon="2.0941014">
        <ele>144</ele>
        <time>2022-02-24T08:41:23.000Z</time>
      </trkpt>
      <trkpt lat="47.683407" lon="2.094099">
        <ele>144</ele>
        <time>2022-02-24T08:41:24.000Z</time>
      </trkpt>
      <trkpt lat="47.68341" lon="2.0940921">
        <ele>146</ele>
        <time>2022-02-24T08:41:25.000Z</time>
      </trkpt>
      <trkpt lat="47.683414" lon="2.0940852">
        <ele>146</ele>
        <time>2022-02-24T08:41:26.000Z</time>
      </trkpt>
      <trkpt lat="47.68341" lon="2.094065">
        <ele>147</ele>
        <time>2022-02-24T08:41:27.000Z</time>
      </trkpt>
      <trkpt lat="47.68341" lon="2.094065">
        <ele>147</ele>
        <time>2022-02-24T08:41:28.000Z</time>
      </trkpt>
      <trkpt lat="47.683414" lon="2.0940225">
        <ele>149</ele>
        <time>2022-02-24T08:41:29.000Z</time>
      </trkpt>
      <trkpt lat="47.683414" lon="2.0940225">
        <ele>149</ele>
        <time>2022-02-24T08:41:29.000Z</time>
      </trkpt>
      <trkpt lat="47.68343" lon="2.0939975">
        <ele>150</ele>
        <time>2022-02-24T08:41:31.000Z</time>
      </trkpt>
      <trkpt lat="47.683437" lon="2.0939865">
        <ele>150</ele>
        <time>2022-02-24T08:41:32.000Z</time>
      </trkpt>
      <trkpt lat="47.683445" lon="2.0939765">
        <ele>151</ele>
        <time>2022-02-24T08:41:33.000Z</time>
      </trkpt>
      <trkpt lat="47.68345" lon="2.0939672">
        <ele>151</ele>
        <time>2022-02-24T08:41:34.000Z</time>
      </trkpt>
      <trkpt lat="47.683453" lon="2.093959">
        <ele>152</ele>
        <time>2022-02-24T08:41:35.000Z</time>
      </trkpt>
      <trkpt lat="47.68346" lon="2.0939517">
        <ele>153</ele>
        <time>2022-02-24T08:41:36.000Z</time>
      </trkpt>
      <trkpt lat="47.68347" lon="2.0939436">
        <ele>153</ele>
        <time>2022-02-24T08:41:37.000Z</time>
      </trkpt>
      <trkpt lat="47.68348" lon="2.0939322">
        <ele>154</ele>
        <time>2022-02-24T08:41:38.000Z</time>
      </trkpt>
      <trkpt lat="47.683487" lon="2.0939186">
        <ele>154</ele>
        <time>2022-02-24T08:41:39.000Z</time>
      </trkpt>
      <trkpt lat="47.683495" lon="2.0939097">
        <ele>154</ele>
        <time>2022-02-24T08:41:40.000Z</time>
      </trkpt>
      <trkpt lat="47.683495" lon="2.0939002">
        <ele>155</ele>
        <time>2022-02-24T08:41:41.000Z</time>
      </trkpt>
      <trkpt lat="47.683502" lon="2.0938962">
        <ele>155</ele>
        <time>2022-02-24T08:41:42.000Z</time>
      </trkpt>
      <trkpt lat="47.683502" lon="2.0938962">
        <ele>155</ele>
        <time>2022-02-24T08:41:43.000Z</time>
      </trkpt>
      <trkpt lat="47.683517" lon="2.0938823">
        <ele>156</ele>
        <time>2022-02-24T08:41:44.000Z</time>
      </trkpt>
      <trkpt lat="47.68353" lon="2.093879">
        <ele>156</ele>
        <time>2022-02-24T08:41:45.000Z</time>
      </trkpt>
      <trkpt lat="47.683537" lon="2.0938756">
        <ele>156</ele>
        <time>2022-02-24T08:41:46.000Z</time>
      </trkpt>
      <trkpt lat="47.683548" lon="2.093872">
        <ele>157</ele>
        <time>2022-02-24T08:41:47.000Z</time>
      </trkpt>
      <trkpt lat="47.68356" lon="2.0938637">
        <ele>156</ele>
        <time>2022-02-24T08:41:48.000Z</time>
      </trkpt>
      <trkpt lat="47.68357" lon="2.0938568">
        <ele>156</ele>
        <time>2022-02-24T08:41:49.000Z</time>
      </trkpt>
      <trkpt lat="47.683586" lon="2.0938559">
        <ele>156</ele>
        <time>2022-02-24T08:41:50.000Z</time>
      </trkpt>
      <trkpt lat="47.683598" lon="2.0938437">
        <ele>156</ele>
        <time>2022-02-24T08:41:51.000Z</time>
      </trkpt>
      <trkpt lat="47.683605" lon="2.0938356">
        <ele>156</ele>
        <time>2022-02-24T08:41:52.000Z</time>
      </trkpt>
      <trkpt lat="47.683617" lon="2.0938256">
        <ele>155</ele>
        <time>2022-02-24T08:41:53.000Z</time>
      </trkpt>
      <trkpt lat="47.683628" lon="2.0938196">
        <ele>155</ele>
        <time>2022-02-24T08:41:54.000Z</time>
      </trkpt>
      <trkpt lat="47.68364" lon="2.093815">
        <ele>154</ele>
        <time>2022-02-24T08:41:55.000Z</time>
      </trkpt>
      <trkpt lat="47.68365" lon="2.09381">
        <ele>154</ele>
        <time>2022-02-24T08:41:56.000Z</time>
      </trkpt>
      <trkpt lat="47.683662" lon="2.093807">
        <ele>154</ele>
        <time>2022-02-24T08:41:57.000Z</time>
      </trkpt>
      <trkpt lat="47.683674" lon="2.0938048">
        <ele>154</ele>
        <time>2022-02-24T08:41:58.000Z</time>
      </trkpt>
      <trkpt lat="47.68369" lon="2.0937984">
        <ele>154</ele>
        <time>2022-02-24T08:41:59.000Z</time>
      </trkpt>
      <trkpt lat="47.683697" lon="2.0937974">
        <ele>154</ele>
        <time>2022-02-24T08:42:00.000Z</time>
      </trkpt>
      <trkpt lat="47.683712" lon="2.0937924">
        <ele>154</ele>
        <time>2022-02-24T08:42:01.000Z</time>
      </trkpt>
      <trkpt lat="47.683723" lon="2.0937903">
        <ele>154</ele>
        <time>2022-02-24T08:42:02.000Z</time>
      </trkpt>
      <trkpt lat="47.68373" lon="2.0937934">
        <ele>154</ele>
        <time>2022-02-24T08:42:03.000Z</time>
      </trkpt>
      <trkpt lat="47.683743" lon="2.093797">
        <ele>154</ele>
        <time>2022-02-24T08:42:04.000Z</time>
      </trkpt>
      <trkpt lat="47.683754" lon="2.0938013">
        <ele>154</ele>
        <time>2022-02-24T08:42:05.000Z</time>
      </trkpt>
      <trkpt lat="47.683765" lon="2.0938027">
        <ele>154</ele>
        <time>2022-02-24T08:42:06.000Z</time>
      </trkpt>
      <trkpt lat="47.683777" lon="2.0938022">
        <ele>154</ele>
        <time>2022-02-24T08:42:07.000Z</time>
      </trkpt>
      <trkpt lat="47.68379" lon="2.0938034">
        <ele>153</ele>
        <time>2022-02-24T08:42:08.000Z</time>
      </trkpt>
      <trkpt lat="47.6838" lon="2.0937996">
        <ele>153</ele>
        <time>2022-02-24T08:42:09.000Z</time>
      </trkpt>
      <trkpt lat="47.68381" lon="2.0937965">
        <ele>153</ele>
        <time>2022-02-24T08:42:10.000Z</time>
      </trkpt>
      <trkpt lat="47.68382" lon="2.0937967">
        <ele>153</ele>
        <time>2022-02-24T08:42:11.000Z</time>
      </trkpt>
      <trkpt lat="47.68383" lon="2.093796">
        <ele>154</ele>
        <time>2022-02-24T08:42:12.000Z</time>
      </trkpt>
      <trkpt lat="47.68384" lon="2.0937982">
        <ele>153</ele>
        <time>2022-02-24T08:42:13.000Z</time>
      </trkpt>
      <trkpt lat="47.683857" lon="2.0937984">
        <ele>153</ele>
        <time>2022-02-24T08:42:14.000Z</time>
      </trkpt>
      <trkpt lat="47.683865" lon="2.0937955">
        <ele>153</ele>
        <time>2022-02-24T08:42:15.000Z</time>
      </trkpt>
      <trkpt lat="47.683876" lon="2.09379">
        <ele>153</ele>
        <time>2022-02-24T08:42:16.000Z</time>
      </trkpt>
      <trkpt lat="47.683887" lon="2.0937917">
        <ele>153</ele>
        <time>2022-02-24T08:42:17.000Z</time>
      </trkpt>
      <trkpt lat="47.683895" lon="2.0937927">
        <ele>152</ele>
        <time>2022-02-24T08:42:18.000Z</time>
      </trkpt>
      <trkpt lat="47.683903" lon="2.0937908">
        <ele>152</ele>
        <time>2022-02-24T08:42:19.000Z</time>
      </trkpt>
      <trkpt lat="47.683914" lon="2.0937877">
        <ele>152</ele>
        <time>2022-02-24T08:42:20.000Z</time>
      </trkpt>
      <trkpt lat="47.683926" lon="2.0937822">
        <ele>152</ele>
        <time>2022-02-24T08:42:21.000Z</time>
      </trkpt>
      <trkpt lat="47.683937" lon="2.0937796">
        <ele>152</ele>
        <time>2022-02-24T08:42:22.000Z</time>
      </trkpt>
      <trkpt lat="47.683952" lon="2.0937781">
        <ele>153</ele>
        <time>2022-02-24T08:42:23.000Z</time>
      </trkpt>
      <trkpt lat="47.683964" lon="2.0937796">
        <ele>153</ele>
        <time>2022-02-24T08:42:24.000Z</time>
      </trkpt>
      <trkpt lat="47.683975" lon="2.093777">
        <ele>153</ele>
        <time>2022-02-24T08:42:25.000Z</time>
      </trkpt>
      <trkpt lat="47.683987" lon="2.0937734">
        <ele>152</ele>
        <time>2022-02-24T08:42:26.000Z</time>
      </trkpt>
      <trkpt lat="47.684002" lon="2.0937703">
        <ele>153</ele>
        <time>2022-02-24T08:42:27.000Z</time>
      </trkpt>
      <trkpt lat="47.684013" lon="2.0937681">
        <ele>153</ele>
        <time>2022-02-24T08:42:28.000Z</time>
      </trkpt>
      <trkpt lat="47.684025" lon="2.0937636">
        <ele>153</ele>
        <time>2022-02-24T08:42:29.000Z</time>
      </trkpt>
      <trkpt lat="47.684032" lon="2.0937614">
        <ele>153</ele>
        <time>2022-02-24T08:42:30.000Z</time>
      </trkpt>
      <trkpt lat="47.684044" lon="2.093759">
        <ele>154</ele>
        <time>2022-02-24T08:42:31.000Z</time>
      </trkpt>
      <trkpt lat="47.68405" lon="2.093758">
        <ele>154</ele>
        <time>2022-02-24T08:42:32.000Z</time>
      </trkpt>
      <trkpt lat="47.684067" lon="2.0937524">
        <ele>154</ele>
        <time>2022-02-24T08:42:33.000Z</time>
      </trkpt>
      <trkpt lat="47.68408" lon="2.0937467">
        <ele>154</ele>
        <time>2022-02-24T08:42:34.000Z</time>
      </trkpt>
      <trkpt lat="47.684086" lon="2.0937417">
        <ele>155</ele>
        <time>2022-02-24T08:42:35.000Z</time>
      </trkpt>
      <trkpt lat="47.6841" lon="2.0937376">
        <ele>155</ele>
        <time>2022-02-24T08:42:36.000Z</time>
      </trkpt>
      <trkpt lat="47.684113" lon="2.0937371">
        <ele>155</ele>
        <time>2022-02-24T08:42:37.000Z</time>
      </trkpt>
      <trkpt lat="47.684124" lon="2.0937343">
        <ele>154</ele>
        <time>2022-02-24T08:42:38.000Z</time>
      </trkpt>
      <trkpt lat="47.684143" lon="2.0937295">
        <ele>154</ele>
        <time>2022-02-24T08:42:39.000Z</time>
      </trkpt>
      <trkpt lat="47.684155" lon="2.0937262">
        <ele>154</ele>
        <time>2022-02-24T08:42:40.000Z</time>
      </trkpt>
      <trkpt lat="47.684166" lon="2.0937228">
        <ele>154</ele>
        <time>2022-02-24T08:42:41.000Z</time>
      </trkpt>
      <trkpt lat="47.684174" lon="2.0937197">
        <ele>154</ele>
        <time>2022-02-24T08:42:42.000Z</time>
      </trkpt>
      <trkpt lat="47.684185" lon="2.093715">
        <ele>155</ele>
        <time>2022-02-24T08:42:43.000Z</time>
      </trkpt>
      <trkpt lat="47.684196" lon="2.0937147">
        <ele>155</ele>
        <time>2022-02-24T08:42:44.000Z</time>
      </trkpt>
      <trkpt lat="47.684208" lon="2.0937104">
        <ele>156</ele>
        <time>2022-02-24T08:42:45.000Z</time>
      </trkpt>
      <trkpt lat="47.68422" lon="2.0937076">
        <ele>156</ele>
        <time>2022-02-24T08:42:46.000Z</time>
      </trkpt>
      <trkpt lat="47.68423" lon="2.0937018">
        <ele>156</ele>
        <time>2022-02-24T08:42:47.000Z</time>
      </trkpt>
      <trkpt lat="47.68424" lon="2.0936985">
        <ele>157</ele>
        <time>2022-02-24T08:42:48.000Z</time>
      </trkpt>
      <trkpt lat="47.68425" lon="2.0936985">
        <ele>156</ele>
        <time>2022-02-24T08:42:49.000Z</time>
      </trkpt>
      <trkpt lat="47.684258" lon="2.0936983">
        <ele>156</ele>
        <time>2022-02-24T08:42:50.000Z</time>
      </trkpt>
      <trkpt lat="47.684265" lon="2.093694">
        <ele>156</ele>
        <time>2022-02-24T08:42:51.000Z</time>
      </trkpt>
      <trkpt lat="47.684273" lon="2.0936897">
        <ele>156</ele>
        <time>2022-02-24T08:42:52.000Z</time>
      </trkpt>
      <trkpt lat="47.684284" lon="2.0936875">
        <ele>157</ele>
        <time>2022-02-24T08:42:53.000Z</time>
      </trkpt>
      <trkpt lat="47.684296" lon="2.0936878">
        <ele>157</ele>
        <time>2022-02-24T08:42:54.000Z</time>
      </trkpt>
      <trkpt lat="47.684307" lon="2.0936882">
        <ele>157</ele>
        <time>2022-02-24T08:42:55.000Z</time>
      </trkpt>
      <trkpt lat="47.68432" lon="2.0936837">
        <ele>157</ele>
        <time>2022-02-24T08:42:56.000Z</time>
      </trkpt>
      <trkpt lat="47.68433" lon="2.093679">
        <ele>157</ele>
        <time>2022-02-24T08:42:57.000Z</time>
      </trkpt>
      <trkpt lat="47.68434" lon="2.0936759">
        <ele>157</ele>
        <time>2022-02-24T08:42:58.000Z</time>
      </trkpt>
      <trkpt lat="47.68435" lon="2.093673">
        <ele>157</ele>
        <time>2022-02-24T08:42:59.000Z</time>
      </trkpt>
      <trkpt lat="47.68436" lon="2.09367">
        <ele>157</ele>
        <time>2022-02-24T08:43:00.000Z</time>
      </trkpt>
      <trkpt lat="47.684372" lon="2.0936666">
        <ele>156</ele>
        <time>2022-02-24T08:43:01.000Z</time>
      </trkpt>
      <trkpt lat="47.684383" lon="2.0936615">
        <ele>156</ele>
        <time>2022-02-24T08:43:02.000Z</time>
      </trkpt>
      <trkpt lat="47.684395" lon="2.093657">
        <ele>156</ele>
        <time>2022-02-24T08:43:03.000Z</time>
      </trkpt>
      <trkpt lat="47.684406" lon="2.093657">
        <ele>156</ele>
        <time>2022-02-24T08:43:04.000Z</time>
      </trkpt>
      <trkpt lat="47.684414" lon="2.0936568">
        <ele>156</ele>
        <time>2022-02-24T08:43:05.000Z</time>
      </trkpt>
      <trkpt lat="47.684425" lon="2.0936546">
        <ele>156</ele>
        <time>2022-02-24T08:43:06.000Z</time>
      </trkpt>
      <trkpt lat="47.684433" lon="2.0936568">
        <ele>156</ele>
        <time>2022-02-24T08:43:07.000Z</time>
      </trkpt>
      <trkpt lat="47.684444" lon="2.093657">
        <ele>156</ele>
        <time>2022-02-24T08:43:08.000Z</time>
      </trkpt>
      <trkpt lat="47.684456" lon="2.0936553">
        <ele>156</ele>
        <time>2022-02-24T08:43:09.000Z</time>
      </trkpt>
      <trkpt lat="47.684467" lon="2.0936522">
        <ele>155</ele>
        <time>2022-02-24T08:43:10.000Z</time>
      </trkpt>
      <trkpt lat="47.684475" lon="2.093647">
        <ele>155</ele>
        <time>2022-02-24T08:43:11.000Z</time>
      </trkpt>
      <trkpt lat="47.684483" lon="2.0936408">
        <ele>156</ele>
        <time>2022-02-24T08:43:12.000Z</time>
      </trkpt>
      <trkpt lat="47.684494" lon="2.093633">
        <ele>156</ele>
        <time>2022-02-24T08:43:13.000Z</time>
      </trkpt>
      <trkpt lat="47.6845" lon="2.09363">
        <ele>155</ele>
        <time>2022-02-24T08:43:14.000Z</time>
      </trkpt>
      <trkpt lat="47.684517" lon="2.0936267">
        <ele>155</ele>
        <time>2022-02-24T08:43:15.000Z</time>
      </trkpt>
      <trkpt lat="47.68453" lon="2.0936246">
        <ele>155</ele>
        <time>2022-02-24T08:43:16.000Z</time>
      </trkpt>
      <trkpt lat="47.68454" lon="2.0936244">
        <ele>156</ele>
        <time>2022-02-24T08:43:17.000Z</time>
      </trkpt>
      <trkpt lat="47.68455" lon="2.0936294">
        <ele>156</ele>
        <time>2022-02-24T08:43:18.000Z</time>
      </trkpt>
      <trkpt lat="47.684563" lon="2.0936315">
        <ele>156</ele>
        <time>2022-02-24T08:43:19.000Z</time>
      </trkpt>
      <trkpt lat="47.684574" lon="2.0936303">
        <ele>156</ele>
        <time>2022-02-24T08:43:20.000Z</time>
      </trkpt>
      <trkpt lat="47.684586" lon="2.093628">
        <ele>156</ele>
        <time>2022-02-24T08:43:21.000Z</time>
      </trkpt>
      <trkpt lat="47.6846" lon="2.0936246">
        <ele>156</ele>
        <time>2022-02-24T08:43:22.000Z</time>
      </trkpt>
      <trkpt lat="47.684612" lon="2.09362">
        <ele>157</ele>
        <time>2022-02-24T08:43:23.000Z</time>
      </trkpt>
      <trkpt lat="47.684624" lon="2.0936186">
        <ele>156</ele>
        <time>2022-02-24T08:43:24.000Z</time>
      </trkpt>
      <trkpt lat="47.684635" lon="2.0936108">
        <ele>156</ele>
        <time>2022-02-24T08:43:25.000Z</time>
      </trkpt>
      <trkpt lat="47.684647" lon="2.0936058">
        <ele>156</ele>
        <time>2022-02-24T08:43:26.000Z</time>
      </trkpt>
      <trkpt lat="47.684658" lon="2.0936027">
        <ele>156</ele>
        <time>2022-02-24T08:43:27.000Z</time>
      </trkpt>
      <trkpt lat="47.68467" lon="2.093599">
        <ele>156</ele>
        <time>2022-02-24T08:43:28.000Z</time>
      </trkpt>
      <trkpt lat="47.684677" lon="2.0935943">
        <ele>156</ele>
        <time>2022-02-24T08:43:29.000Z</time>
      </trkpt>
      <trkpt lat="47.684692" lon="2.0935907">
        <ele>155</ele>
        <time>2022-02-24T08:43:30.000Z</time>
      </trkpt>
      <trkpt lat="47.6847" lon="2.093588">
        <ele>156</ele>
        <time>2022-02-24T08:43:31.000Z</time>
      </trkpt>
      <trkpt lat="47.684708" lon="2.093584">
        <ele>155</ele>
        <time>2022-02-24T08:43:32.000Z</time>
      </trkpt>
      <trkpt lat="47.68471" lon="2.0935807">
        <ele>155</ele>
        <time>2022-02-24T08:43:33.000Z</time>
      </trkpt>
      <trkpt lat="47.684723" lon="2.0935802">
        <ele>155</ele>
        <time>2022-02-24T08:43:34.000Z</time>
      </trkpt>
      <trkpt lat="47.68473" lon="2.0935788">
        <ele>155</ele>
        <time>2022-02-24T08:43:35.000Z</time>
      </trkpt>
      <trkpt lat="47.684742" lon="2.0935745">
        <ele>155</ele>
        <time>2022-02-24T08:43:36.000Z</time>
      </trkpt>
      <trkpt lat="47.68475" lon="2.0935717">
        <ele>156</ele>
        <time>2022-02-24T08:43:37.000Z</time>
      </trkpt>
      <trkpt lat="47.684757" lon="2.0935724">
        <ele>156</ele>
        <time>2022-02-24T08:43:38.000Z</time>
      </trkpt>
      <trkpt lat="47.684765" lon="2.0935721">
        <ele>156</ele>
        <time>2022-02-24T08:43:39.000Z</time>
      </trkpt>
      <trkpt lat="47.684772" lon="2.0935683">
        <ele>157</ele>
        <time>2022-02-24T08:43:40.000Z</time>
      </trkpt>
      <trkpt lat="47.68478" lon="2.0935652">
        <ele>157</ele>
        <time>2022-02-24T08:43:41.000Z</time>
      </trkpt>
      <trkpt lat="47.684788" lon="2.093565">
        <ele>157</ele>
        <time>2022-02-24T08:43:42.000Z</time>
      </trkpt>
      <trkpt lat="47.684795" lon="2.0935633">
        <ele>157</ele>
        <time>2022-02-24T08:43:43.000Z</time>
      </trkpt>
      <trkpt lat="47.684803" lon="2.0935607">
        <ele>157</ele>
        <time>2022-02-24T08:43:44.000Z</time>
      </trkpt>
      <trkpt lat="47.68481" lon="2.0935643">
        <ele>157</ele>
        <time>2022-02-24T08:43:45.000Z</time>
      </trkpt>
      <trkpt lat="47.68482" lon="2.0935638">
        <ele>157</ele>
        <time>2022-02-24T08:43:46.000Z</time>
      </trkpt>
      <trkpt lat="47.684826" lon="2.093563">
        <ele>157</ele>
        <time>2022-02-24T08:43:47.000Z</time>
      </trkpt>
      <trkpt lat="47.684826" lon="2.093563">
        <ele>157</ele>
        <time>2022-02-24T08:43:48.000Z</time>
      </trkpt>
      <trkpt lat="47.684837" lon="2.093557">
        <ele>157</ele>
        <time>2022-02-24T08:43:49.000Z</time>
      </trkpt>
      <trkpt lat="47.68485" lon="2.0935545">
        <ele>157</ele>
        <time>2022-02-24T08:43:50.000Z</time>
      </trkpt>
      <trkpt lat="47.684856" lon="2.0935547">
        <ele>157</ele>
        <time>2022-02-24T08:43:51.000Z</time>
      </trkpt>
      <trkpt lat="47.684864" lon="2.0935578">
        <ele>157</ele>
        <time>2022-02-24T08:43:52.000Z</time>
      </trkpt>
      <trkpt lat="47.68487" lon="2.0935528">
        <ele>157</ele>
        <time>2022-02-24T08:43:53.000Z</time>
      </trkpt>
      <trkpt lat="47.684883" lon="2.0935497">
        <ele>156</ele>
        <time>2022-02-24T08:43:54.000Z</time>
      </trkpt>
      <trkpt lat="47.684895" lon="2.09355">
        <ele>156</ele>
        <time>2022-02-24T08:43:55.000Z</time>
      </trkpt>
      <trkpt lat="47.684906" lon="2.0935488">
        <ele>155</ele>
        <time>2022-02-24T08:43:56.000Z</time>
      </trkpt>
      <trkpt lat="47.684917" lon="2.093548">
        <ele>154</ele>
        <time>2022-02-24T08:43:57.000Z</time>
      </trkpt>
      <trkpt lat="47.68493" lon="2.093546">
        <ele>154</ele>
        <time>2022-02-24T08:43:58.000Z</time>
      </trkpt>
      <trkpt lat="47.68494" lon="2.0935502">
        <ele>154</ele>
        <time>2022-02-24T08:43:59.000Z</time>
      </trkpt>
      <trkpt lat="47.684948" lon="2.093553">
        <ele>154</ele>
        <time>2022-02-24T08:44:00.000Z</time>
      </trkpt>
      <trkpt lat="47.68496" lon="2.093564">
        <ele>154</ele>
        <time>2022-02-24T08:44:01.000Z</time>
      </trkpt>
      <trkpt lat="47.684963" lon="2.093581">
        <ele>154</ele>
        <time>2022-02-24T08:44:02.000Z</time>
      </trkpt>
      <trkpt lat="47.684967" lon="2.0935943">
        <ele>155</ele>
        <time>2022-02-24T08:44:03.000Z</time>
      </trkpt>
      <trkpt lat="47.68497" lon="2.0936055">
        <ele>155</ele>
        <time>2022-02-24T08:44:04.000Z</time>
      </trkpt>
      <trkpt lat="47.684967" lon="2.0936122">
        <ele>156</ele>
        <time>2022-02-24T08:44:05.000Z</time>
      </trkpt>
      <trkpt lat="47.684963" lon="2.0936272">
        <ele>156</ele>
        <time>2022-02-24T08:44:06.000Z</time>
      </trkpt>
      <trkpt lat="47.684963" lon="2.0936368">
        <ele>157</ele>
        <time>2022-02-24T08:44:07.000Z</time>
      </trkpt>
      <trkpt lat="47.68496" lon="2.0936475">
        <ele>158</ele>
        <time>2022-02-24T08:44:08.000Z</time>
      </trkpt>
      <trkpt lat="47.68495" lon="2.0936568">
        <ele>158</ele>
        <time>2022-02-24T08:44:09.000Z</time>
      </trkpt>
      <trkpt lat="47.684944" lon="2.0936666">
        <ele>159</ele>
        <time>2022-02-24T08:44:10.000Z</time>
      </trkpt>
      <trkpt lat="47.684944" lon="2.093666">
        <ele>158</ele>
        <time>2022-02-24T08:44:11.000Z</time>
      </trkpt>
      <trkpt lat="47.68494" lon="2.093668">
        <ele>158</ele>
        <time>2022-02-24T08:44:12.000Z</time>
      </trkpt>
      <trkpt lat="47.684937" lon="2.093671">
        <ele>158</ele>
        <time>2022-02-24T08:44:13.000Z</time>
      </trkpt>
      <trkpt lat="47.684933" lon="2.093679">
        <ele>159</ele>
        <time>2022-02-24T08:44:14.000Z</time>
      </trkpt>
      <trkpt lat="47.684925" lon="2.093689">
        <ele>159</ele>
        <time>2022-02-24T08:44:15.000Z</time>
      </trkpt>
      <trkpt lat="47.684917" lon="2.0937006">
        <ele>159</ele>
        <time>2022-02-24T08:44:16.000Z</time>
      </trkpt>
      <trkpt lat="47.68491" lon="2.0937114">
        <ele>159</ele>
        <time>2022-02-24T08:44:17.000Z</time>
      </trkpt>
      <trkpt lat="47.684902" lon="2.0937214">
        <ele>159</ele>
        <time>2022-02-24T08:44:18.000Z</time>
      </trkpt>
      <trkpt lat="47.684895" lon="2.0937352">
        <ele>160</ele>
        <time>2022-02-24T08:44:19.000Z</time>
      </trkpt>
      <trkpt lat="47.684887" lon="2.0937464">
        <ele>160</ele>
        <time>2022-02-24T08:44:20.000Z</time>
      </trkpt>
      <trkpt lat="47.68488" lon="2.0937624">
        <ele>160</ele>
        <time>2022-02-24T08:44:21.000Z</time>
      </trkpt>
      <trkpt lat="47.68488" lon="2.0937645">
        <ele>160</ele>
        <time>2022-02-24T08:44:22.000Z</time>
      </trkpt>
      <trkpt lat="47.684875" lon="2.0937717">
        <ele>160</ele>
        <time>2022-02-24T08:44:23.000Z</time>
      </trkpt>
      <trkpt lat="47.684868" lon="2.0937817">
        <ele>160</ele>
        <time>2022-02-24T08:44:24.000Z</time>
      </trkpt>
      <trkpt lat="47.68486" lon="2.0937974">
        <ele>160</ele>
        <time>2022-02-24T08:44:25.000Z</time>
      </trkpt>
      <trkpt lat="47.684856" lon="2.093812">
        <ele>160</ele>
        <time>2022-02-24T08:44:26.000Z</time>
      </trkpt>
      <trkpt lat="47.684853" lon="2.0938294">
        <ele>160</ele>
        <time>2022-02-24T08:44:27.000Z</time>
      </trkpt>
      <trkpt lat="47.684856" lon="2.0938394">
        <ele>160</ele>
        <time>2022-02-24T08:44:28.000Z</time>
      </trkpt>
      <trkpt lat="47.684853" lon="2.0938468">
        <ele>161</ele>
        <time>2022-02-24T08:44:29.000Z</time>
      </trkpt>
      <trkpt lat="47.684853" lon="2.0938468">
        <ele>161</ele>
        <time>2022-02-24T08:44:30.000Z</time>
      </trkpt>
      <trkpt lat="47.68485" lon="2.0938747">
        <ele>160</ele>
        <time>2022-02-24T08:44:31.000Z</time>
      </trkpt>
      <trkpt lat="47.68485" lon="2.093891">
        <ele>160</ele>
        <time>2022-02-24T08:44:32.000Z</time>
      </trkpt>
      <trkpt lat="47.68485" lon="2.0939038">
        <ele>160</ele>
        <time>2022-02-24T08:44:33.000Z</time>
      </trkpt>
      <trkpt lat="47.68485" lon="2.0939162">
        <ele>160</ele>
        <time>2022-02-24T08:44:34.000Z</time>
      </trkpt>
      <trkpt lat="47.684845" lon="2.093928">
        <ele>160</ele>
        <time>2022-02-24T08:44:35.000Z</time>
      </trkpt>
      <trkpt lat="47.684845" lon="2.093944">
        <ele>159</ele>
        <time>2022-02-24T08:44:36.000Z</time>
      </trkpt>
      <trkpt lat="47.68484" lon="2.0939612">
        <ele>159</ele>
        <time>2022-02-24T08:44:37.000Z</time>
      </trkpt>
      <trkpt lat="47.68484" lon="2.0939796">
        <ele>159</ele>
        <time>2022-02-24T08:44:38.000Z</time>
      </trkpt>
      <trkpt lat="47.68484" lon="2.093993">
        <ele>159</ele>
        <time>2022-02-24T08:44:39.000Z</time>
      </trkpt>
      <trkpt lat="47.68484" lon="2.0940046">
        <ele>159</ele>
        <time>2022-02-24T08:44:40.000Z</time>
      </trkpt>
      <trkpt lat="47.68484" lon="2.0940158">
        <ele>159</ele>
        <time>2022-02-24T08:44:41.000Z</time>
      </trkpt>
      <trkpt lat="47.68484" lon="2.0940297">
        <ele>159</ele>
        <time>2022-02-24T08:44:42.000Z</time>
      </trkpt>
      <trkpt lat="47.68484" lon="2.0940392">
        <ele>159</ele>
        <time>2022-02-24T08:44:43.000Z</time>
      </trkpt>
      <trkpt lat="47.68484" lon="2.0940495">
        <ele>158</ele>
        <time>2022-02-24T08:44:44.000Z</time>
      </trkpt>
      <trkpt lat="47.68484" lon="2.0940669">
        <ele>158</ele>
        <time>2022-02-24T08:44:45.000Z</time>
      </trkpt>
      <trkpt lat="47.68484" lon="2.0940833">
        <ele>157</ele>
        <time>2022-02-24T08:44:46.000Z</time>
      </trkpt>
      <trkpt lat="47.684837" lon="2.0940998">
        <ele>157</ele>
        <time>2022-02-24T08:44:47.000Z</time>
      </trkpt>
      <trkpt lat="47.684837" lon="2.0940998">
        <ele>157</ele>
        <time>2022-02-24T08:44:48.000Z</time>
      </trkpt>
      <trkpt lat="47.684837" lon="2.0940998">
        <ele>157</ele>
        <time>2022-02-24T08:44:49.000Z</time>
      </trkpt>
      <trkpt lat="47.684834" lon="2.094138">
        <ele>158</ele>
        <time>2022-02-24T08:44:50.000Z</time>
      </trkpt>
      <trkpt lat="47.68483" lon="2.0941541">
        <ele>158</ele>
        <time>2022-02-24T08:44:51.000Z</time>
      </trkpt>
      <trkpt lat="47.68483" lon="2.0941632">
        <ele>158</ele>
        <time>2022-02-24T08:44:52.000Z</time>
      </trkpt>
      <trkpt lat="47.684822" lon="2.0941792">
        <ele>158</ele>
        <time>2022-02-24T08:44:53.000Z</time>
      </trkpt>
      <trkpt lat="47.68482" lon="2.0941916">
        <ele>159</ele>
        <time>2022-02-24T08:44:54.000Z</time>
      </trkpt>
      <trkpt lat="47.684822" lon="2.0942078">
        <ele>159</ele>
        <time>2022-02-24T08:44:55.000Z</time>
      </trkpt>
      <trkpt lat="47.684822" lon="2.094223">
        <ele>159</ele>
        <time>2022-02-24T08:44:56.000Z</time>
      </trkpt>
      <trkpt lat="47.684822" lon="2.0942345">
        <ele>159</ele>
        <time>2022-02-24T08:44:57.000Z</time>
      </trkpt>
      <trkpt lat="47.684822" lon="2.0942345">
        <ele>159</ele>
        <time>2022-02-24T08:44:58.000Z</time>
      </trkpt>
      <trkpt lat="47.684822" lon="2.0942345">
        <ele>159</ele>
        <time>2022-02-24T08:44:59.000Z</time>
      </trkpt>
      <trkpt lat="47.684814" lon="2.0942683">
        <ele>160</ele>
        <time>2022-02-24T08:45:00.000Z</time>
      </trkpt>
      <trkpt lat="47.684814" lon="2.094279">
        <ele>159</ele>
        <time>2022-02-24T08:45:01.000Z</time>
      </trkpt>
      <trkpt lat="47.684814" lon="2.094293">
        <ele>159</ele>
        <time>2022-02-24T08:45:02.000Z</time>
      </trkpt>
      <trkpt lat="47.68482" lon="2.0943077">
        <ele>159</ele>
        <time>2022-02-24T08:45:03.000Z</time>
      </trkpt>
      <trkpt lat="47.68482" lon="2.0943077">
        <ele>159</ele>
        <time>2022-02-24T08:45:04.000Z</time>
      </trkpt>
      <trkpt lat="47.68482" lon="2.0943077">
        <ele>159</ele>
        <time>2022-02-24T08:45:05.000Z</time>
      </trkpt>
      <trkpt lat="47.684822" lon="2.0943546">
        <ele>157</ele>
        <time>2022-02-24T08:45:06.000Z</time>
      </trkpt>
      <trkpt lat="47.684822" lon="2.0943747">
        <ele>156</ele>
        <time>2022-02-24T08:45:07.000Z</time>
      </trkpt>
      <trkpt lat="47.684826" lon="2.0943933">
        <ele>156</ele>
        <time>2022-02-24T08:45:08.000Z</time>
      </trkpt>
      <trkpt lat="47.68483" lon="2.0944116">
        <ele>155</ele>
        <time>2022-02-24T08:45:09.000Z</time>
      </trkpt>
      <trkpt lat="47.68483" lon="2.0944285">
        <ele>155</ele>
        <time>2022-02-24T08:45:10.000Z</time>
      </trkpt>
      <trkpt lat="47.68483" lon="2.0944462">
        <ele>155</ele>
        <time>2022-02-24T08:45:11.000Z</time>
      </trkpt>
      <trkpt lat="47.68483" lon="2.0944602">
        <ele>155</ele>
        <time>2022-02-24T08:45:12.000Z</time>
      </trkpt>
      <trkpt lat="47.684826" lon="2.0944812">
        <ele>155</ele>
        <time>2022-02-24T08:45:13.000Z</time>
      </trkpt>
      <trkpt lat="47.684826" lon="2.0944986">
        <ele>155</ele>
        <time>2022-02-24T08:45:14.000Z</time>
      </trkpt>
      <trkpt lat="47.68483" lon="2.0945146">
        <ele>155</ele>
        <time>2022-02-24T08:45:15.000Z</time>
      </trkpt>
      <trkpt lat="47.68483" lon="2.0945349">
        <ele>154</ele>
        <time>2022-02-24T08:45:16.000Z</time>
      </trkpt>
      <trkpt lat="47.68483" lon="2.0945582">
        <ele>155</ele>
        <time>2022-02-24T08:45:17.000Z</time>
      </trkpt>
      <trkpt lat="47.684826" lon="2.0945797">
        <ele>155</ele>
        <time>2022-02-24T08:45:18.000Z</time>
      </trkpt>
      <trkpt lat="47.684826" lon="2.0946007">
        <ele>155</ele>
        <time>2022-02-24T08:45:19.000Z</time>
      </trkpt>
      <trkpt lat="47.684826" lon="2.094618">
        <ele>156</ele>
        <time>2022-02-24T08:45:20.000Z</time>
      </trkpt>
      <trkpt lat="47.684822" lon="2.0946383">
        <ele>155</ele>
        <time>2022-02-24T08:45:21.000Z</time>
      </trkpt>
      <trkpt lat="47.684822" lon="2.094659">
        <ele>155</ele>
        <time>2022-02-24T08:45:22.000Z</time>
      </trkpt>
      <trkpt lat="47.684826" lon="2.0946803">
        <ele>155</ele>
        <time>2022-02-24T08:45:23.000Z</time>
      </trkpt>
      <trkpt lat="47.684826" lon="2.0947008">
        <ele>155</ele>
        <time>2022-02-24T08:45:24.000Z</time>
      </trkpt>
      <trkpt lat="47.684826" lon="2.0947142">
        <ele>155</ele>
        <time>2022-02-24T08:45:25.000Z</time>
      </trkpt>
      <trkpt lat="47.684826" lon="2.094728">
        <ele>156</ele>
        <time>2022-02-24T08:45:26.000Z</time>
      </trkpt>
      <trkpt lat="47.68483" lon="2.0947382">
        <ele>156</ele>
        <time>2022-02-24T08:45:27.000Z</time>
      </trkpt>
      <trkpt lat="47.68483" lon="2.0947547">
        <ele>156</ele>
        <time>2022-02-24T08:45:28.000Z</time>
      </trkpt>
      <trkpt lat="47.684826" lon="2.094776">
        <ele>156</ele>
        <time>2022-02-24T08:45:29.000Z</time>
      </trkpt>
      <trkpt lat="47.684822" lon="2.094791">
        <ele>156</ele>
        <time>2022-02-24T08:45:30.000Z</time>
      </trkpt>
      <trkpt lat="47.684822" lon="2.0948024">
        <ele>155</ele>
        <time>2022-02-24T08:45:31.000Z</time>
      </trkpt>
      <trkpt lat="47.684822" lon="2.09482">
        <ele>155</ele>
        <time>2022-02-24T08:45:32.000Z</time>
      </trkpt>
      <trkpt lat="47.684822" lon="2.0948377">
        <ele>155</ele>
        <time>2022-02-24T08:45:33.000Z</time>
      </trkpt>
      <trkpt lat="47.684826" lon="2.0948563">
        <ele>155</ele>
        <time>2022-02-24T08:45:34.000Z</time>
      </trkpt>
      <trkpt lat="47.684822" lon="2.0948775">
        <ele>156</ele>
        <time>2022-02-24T08:45:35.000Z</time>
      </trkpt>
      <trkpt lat="47.684822" lon="2.0948899">
        <ele>156</ele>
        <time>2022-02-24T08:45:36.000Z</time>
      </trkpt>
      <trkpt lat="47.684826" lon="2.0949032">
        <ele>156</ele>
        <time>2022-02-24T08:45:37.000Z</time>
      </trkpt>
      <trkpt lat="47.68483" lon="2.094918">
        <ele>155</ele>
        <time>2022-02-24T08:45:38.000Z</time>
      </trkpt>
      <trkpt lat="47.68483" lon="2.094918">
        <ele>155</ele>
        <time>2022-02-24T08:45:39.000Z</time>
      </trkpt>
      <trkpt lat="47.68483" lon="2.094918">
        <ele>155</ele>
        <time>2022-02-24T08:45:40.000Z</time>
      </trkpt>
      <trkpt lat="47.684837" lon="2.0949683">
        <ele>155</ele>
        <time>2022-02-24T08:45:41.000Z</time>
      </trkpt>
      <trkpt lat="47.684837" lon="2.0949876">
        <ele>155</ele>
        <time>2022-02-24T08:45:42.000Z</time>
      </trkpt>
      <trkpt lat="47.684837" lon="2.0950124">
        <ele>155</ele>
        <time>2022-02-24T08:45:43.000Z</time>
      </trkpt>
      <trkpt lat="47.684837" lon="2.0950325">
        <ele>156</ele>
        <time>2022-02-24T08:45:44.000Z</time>
      </trkpt>
      <trkpt lat="47.684837" lon="2.0950453">
        <ele>156</ele>
        <time>2022-02-24T08:45:45.000Z</time>
      </trkpt>
      <trkpt lat="47.684837" lon="2.0950556">
        <ele>156</ele>
        <time>2022-02-24T08:45:46.000Z</time>
      </trkpt>
      <trkpt lat="47.684837" lon="2.0950556">
        <ele>156</ele>
        <time>2022-02-24T08:45:47.000Z</time>
      </trkpt>
      <trkpt lat="47.684837" lon="2.0950556">
        <ele>156</ele>
        <time>2022-02-24T08:45:48.000Z</time>
      </trkpt>
      <trkpt lat="47.68484" lon="2.0950835">
        <ele>156</ele>
        <time>2022-02-24T08:45:49.000Z</time>
      </trkpt>
      <trkpt lat="47.68484" lon="2.0950994">
        <ele>156</ele>
        <time>2022-02-24T08:45:50.000Z</time>
      </trkpt>
      <trkpt lat="47.684837" lon="2.0951164">
        <ele>156</ele>
        <time>2022-02-24T08:45:51.000Z</time>
      </trkpt>
      <trkpt lat="47.684834" lon="2.0951355">
        <ele>157</ele>
        <time>2022-02-24T08:45:52.000Z</time>
      </trkpt>
      <trkpt lat="47.68483" lon="2.0951552">
        <ele>157</ele>
        <time>2022-02-24T08:45:53.000Z</time>
      </trkpt>
      <trkpt lat="47.684826" lon="2.0951746">
        <ele>157</ele>
        <time>2022-02-24T08:45:54.000Z</time>
      </trkpt>
      <trkpt lat="47.684826" lon="2.09519">
        <ele>156</ele>
        <time>2022-02-24T08:45:55.000Z</time>
      </trkpt>
      <trkpt lat="47.684826" lon="2.09519">
        <ele>156</ele>
        <time>2022-02-24T08:45:56.000Z</time>
      </trkpt>
      <trkpt lat="47.684826" lon="2.09519">
        <ele>156</ele>
        <time>2022-02-24T08:45:57.000Z</time>
      </trkpt>
      <trkpt lat="47.68483" lon="2.0952308">
        <ele>156</ele>
        <time>2022-02-24T08:45:58.000Z</time>
      </trkpt>
      <trkpt lat="47.68483" lon="2.0952485">
        <ele>156</ele>
        <time>2022-02-24T08:45:59.000Z</time>
      </trkpt>
      <trkpt lat="47.684826" lon="2.095266">
        <ele>157</ele>
        <time>2022-02-24T08:46:00.000Z</time>
      </trkpt>
      <trkpt lat="47.684826" lon="2.095285">
        <ele>157</ele>
        <time>2022-02-24T08:46:01.000Z</time>
      </trkpt>
      <trkpt lat="47.684822" lon="2.0953083">
        <ele>158</ele>
        <time>2022-02-24T08:46:02.000Z</time>
      </trkpt>
      <trkpt lat="47.684822" lon="2.0953298">
        <ele>158</ele>
        <time>2022-02-24T08:46:03.000Z</time>
      </trkpt>
      <trkpt lat="47.68482" lon="2.0953496">
        <ele>158</ele>
        <time>2022-02-24T08:46:04.000Z</time>
      </trkpt>
      <trkpt lat="47.684814" lon="2.095366">
        <ele>159</ele>
        <time>2022-02-24T08:46:05.000Z</time>
      </trkpt>
      <trkpt lat="47.684814" lon="2.0953887">
        <ele>159</ele>
        <time>2022-02-24T08:46:06.000Z</time>
      </trkpt>
      <trkpt lat="47.68482" lon="2.0954163">
        <ele>159</ele>
        <time>2022-02-24T08:46:07.000Z</time>
      </trkpt>
      <trkpt lat="47.68482" lon="2.0954404">
        <ele>159</ele>
        <time>2022-02-24T08:46:08.000Z</time>
      </trkpt>
      <trkpt lat="47.684814" lon="2.0954657">
        <ele>158</ele>
        <time>2022-02-24T08:46:09.000Z</time>
      </trkpt>
      <trkpt lat="47.68481" lon="2.09549">
        <ele>159</ele>
        <time>2022-02-24T08:46:10.000Z</time>
      </trkpt>
      <trkpt lat="47.68481" lon="2.0955122">
        <ele>159</ele>
        <time>2022-02-24T08:46:11.000Z</time>
      </trkpt>
      <trkpt lat="47.684807" lon="2.0955348">
        <ele>159</ele>
        <time>2022-02-24T08:46:12.000Z</time>
      </trkpt>
      <trkpt lat="47.684803" lon="2.095556">
        <ele>159</ele>
        <time>2022-02-24T08:46:13.000Z</time>
      </trkpt>
      <trkpt lat="47.684803" lon="2.0955725">
        <ele>159</ele>
        <time>2022-02-24T08:46:14.000Z</time>
      </trkpt>
      <trkpt lat="47.684803" lon="2.0955923">
        <ele>159</ele>
        <time>2022-02-24T08:46:15.000Z</time>
      </trkpt>
      <trkpt lat="47.6848" lon="2.0956113">
        <ele>159</ele>
        <time>2022-02-24T08:46:16.000Z</time>
      </trkpt>
      <trkpt lat="47.6848" lon="2.0956297">
        <ele>159</ele>
        <time>2022-02-24T08:46:17.000Z</time>
      </trkpt>
      <trkpt lat="47.684795" lon="2.095651">
        <ele>159</ele>
        <time>2022-02-24T08:46:18.000Z</time>
      </trkpt>
      <trkpt lat="47.68479" lon="2.0956712">
        <ele>160</ele>
        <time>2022-02-24T08:46:19.000Z</time>
      </trkpt>
      <trkpt lat="47.684788" lon="2.0956943">
        <ele>160</ele>
        <time>2022-02-24T08:46:20.000Z</time>
      </trkpt>
      <trkpt lat="47.684784" lon="2.0957112">
        <ele>160</ele>
        <time>2022-02-24T08:46:21.000Z</time>
      </trkpt>
      <trkpt lat="47.68478" lon="2.09573">
        <ele>160</ele>
        <time>2022-02-24T08:46:22.000Z</time>
      </trkpt>
      <trkpt lat="47.68477" lon="2.095745">
        <ele>160</ele>
        <time>2022-02-24T08:46:23.000Z</time>
      </trkpt>
      <trkpt lat="47.68476" lon="2.095761">
        <ele>161</ele>
        <time>2022-02-24T08:46:24.000Z</time>
      </trkpt>
      <trkpt lat="47.684753" lon="2.0957763">
        <ele>162</ele>
        <time>2022-02-24T08:46:25.000Z</time>
      </trkpt>
      <trkpt lat="47.684753" lon="2.0957925">
        <ele>162</ele>
        <time>2022-02-24T08:46:26.000Z</time>
      </trkpt>
      <trkpt lat="47.68475" lon="2.0958097">
        <ele>161</ele>
        <time>2022-02-24T08:46:27.000Z</time>
      </trkpt>
      <trkpt lat="47.68475" lon="2.0958223">
        <ele>161</ele>
        <time>2022-02-24T08:46:28.000Z</time>
      </trkpt>
      <trkpt lat="47.684746" lon="2.095839">
        <ele>161</ele>
        <time>2022-02-24T08:46:29.000Z</time>
      </trkpt>
      <trkpt lat="47.684742" lon="2.0958579">
        <ele>162</ele>
        <time>2022-02-24T08:46:30.000Z</time>
      </trkpt>
      <trkpt lat="47.684742" lon="2.095876">
        <ele>162</ele>
        <time>2022-02-24T08:46:31.000Z</time>
      </trkpt>
      <trkpt lat="47.684742" lon="2.095895">
        <ele>162</ele>
        <time>2022-02-24T08:46:32.000Z</time>
      </trkpt>
      <trkpt lat="47.684742" lon="2.0959127">
        <ele>162</ele>
        <time>2022-02-24T08:46:33.000Z</time>
      </trkpt>
      <trkpt lat="47.684734" lon="2.0959232">
        <ele>162</ele>
        <time>2022-02-24T08:46:34.000Z</time>
      </trkpt>
      <trkpt lat="47.684727" lon="2.095934">
        <ele>163</ele>
        <time>2022-02-24T08:46:35.000Z</time>
      </trkpt>
      <trkpt lat="47.684723" lon="2.09595">
        <ele>162</ele>
        <time>2022-02-24T08:46:36.000Z</time>
      </trkpt>
      <trkpt lat="47.684715" lon="2.0959675">
        <ele>162</ele>
        <time>2022-02-24T08:46:37.000Z</time>
      </trkpt>
      <trkpt lat="47.684715" lon="2.0959797">
        <ele>162</ele>
        <time>2022-02-24T08:46:38.000Z</time>
      </trkpt>
      <trkpt lat="47.684708" lon="2.095999">
        <ele>162</ele>
        <time>2022-02-24T08:46:39.000Z</time>
      </trkpt>
      <trkpt lat="47.684708" lon="2.0960174">
        <ele>162</ele>
        <time>2022-02-24T08:46:40.000Z</time>
      </trkpt>
      <trkpt lat="47.684708" lon="2.0960417">
        <ele>162</ele>
        <time>2022-02-24T08:46:41.000Z</time>
      </trkpt>
      <trkpt lat="47.684704" lon="2.0960531">
        <ele>162</ele>
        <time>2022-02-24T08:46:42.000Z</time>
      </trkpt>
      <trkpt lat="47.684704" lon="2.0960732">
        <ele>162</ele>
        <time>2022-02-24T08:46:43.000Z</time>
      </trkpt>
      <trkpt lat="47.6847" lon="2.0960932">
        <ele>162</ele>
        <time>2022-02-24T08:46:44.000Z</time>
      </trkpt>
      <trkpt lat="47.6847" lon="2.0961127">
        <ele>162</ele>
        <time>2022-02-24T08:46:45.000Z</time>
      </trkpt>
      <trkpt lat="47.684692" lon="2.0961304">
        <ele>162</ele>
        <time>2022-02-24T08:46:46.000Z</time>
      </trkpt>
      <trkpt lat="47.68469" lon="2.0961475">
        <ele>161</ele>
        <time>2022-02-24T08:46:47.000Z</time>
      </trkpt>
      <trkpt lat="47.684677" lon="2.0961628">
        <ele>162</ele>
        <time>2022-02-24T08:46:48.000Z</time>
      </trkpt>
      <trkpt lat="47.68467" lon="2.0961776">
        <ele>162</ele>
        <time>2022-02-24T08:46:49.000Z</time>
      </trkpt>
      <trkpt lat="47.68467" lon="2.096193">
        <ele>162</ele>
        <time>2022-02-24T08:46:50.000Z</time>
      </trkpt>
      <trkpt lat="47.684666" lon="2.096209">
        <ele>162</ele>
        <time>2022-02-24T08:46:51.000Z</time>
      </trkpt>
      <trkpt lat="47.684666" lon="2.0962243">
        <ele>162</ele>
        <time>2022-02-24T08:46:52.000Z</time>
      </trkpt>
      <trkpt lat="47.684666" lon="2.096237">
        <ele>162</ele>
        <time>2022-02-24T08:46:53.000Z</time>
      </trkpt>
      <trkpt lat="47.68466" lon="2.096251">
        <ele>162</ele>
        <time>2022-02-24T08:46:54.000Z</time>
      </trkpt>
      <trkpt lat="47.684658" lon="2.0962634">
        <ele>162</ele>
        <time>2022-02-24T08:46:55.000Z</time>
      </trkpt>
      <trkpt lat="47.684654" lon="2.0962806">
        <ele>162</ele>
        <time>2022-02-24T08:46:56.000Z</time>
      </trkpt>
      <trkpt lat="47.68465" lon="2.0962963">
        <ele>162</ele>
        <time>2022-02-24T08:46:57.000Z</time>
      </trkpt>
      <trkpt lat="47.684647" lon="2.0963097">
        <ele>162</ele>
        <time>2022-02-24T08:46:58.000Z</time>
      </trkpt>
      <trkpt lat="47.684643" lon="2.0963266">
        <ele>162</ele>
        <time>2022-02-24T08:46:59.000Z</time>
      </trkpt>
      <trkpt lat="47.68464" lon="2.0963414">
        <ele>162</ele>
        <time>2022-02-24T08:47:00.000Z</time>
      </trkpt>
      <trkpt lat="47.684635" lon="2.0963585">
        <ele>162</ele>
        <time>2022-02-24T08:47:01.000Z</time>
      </trkpt>
      <trkpt lat="47.68463" lon="2.096374">
        <ele>162</ele>
        <time>2022-02-24T08:47:02.000Z</time>
      </trkpt>
      <trkpt lat="47.68463" lon="2.0963936">
        <ele>162</ele>
        <time>2022-02-24T08:47:03.000Z</time>
      </trkpt>
      <trkpt lat="47.684628" lon="2.0964131">
        <ele>163</ele>
        <time>2022-02-24T08:47:04.000Z</time>
      </trkpt>
      <trkpt lat="47.684624" lon="2.0964313">
        <ele>162</ele>
        <time>2022-02-24T08:47:05.000Z</time>
      </trkpt>
      <trkpt lat="47.68462" lon="2.09645">
        <ele>163</ele>
        <time>2022-02-24T08:47:06.000Z</time>
      </trkpt>
      <trkpt lat="47.68462" lon="2.09647">
        <ele>163</ele>
        <time>2022-02-24T08:47:07.000Z</time>
      </trkpt>
      <trkpt lat="47.68462" lon="2.096486">
        <ele>163</ele>
        <time>2022-02-24T08:47:08.000Z</time>
      </trkpt>
      <trkpt lat="47.684612" lon="2.0965018">
        <ele>164</ele>
        <time>2022-02-24T08:47:09.000Z</time>
      </trkpt>
      <trkpt lat="47.684612" lon="2.0965188">
        <ele>164</ele>
        <time>2022-02-24T08:47:10.000Z</time>
      </trkpt>
      <trkpt lat="47.68461" lon="2.0965316">
        <ele>165</ele>
        <time>2022-02-24T08:47:11.000Z</time>
      </trkpt>
      <trkpt lat="47.684605" lon="2.0965474">
        <ele>165</ele>
        <time>2022-02-24T08:47:12.000Z</time>
      </trkpt>
      <trkpt lat="47.6846" lon="2.0965662">
        <ele>164</ele>
        <time>2022-02-24T08:47:13.000Z</time>
      </trkpt>
      <trkpt lat="47.684597" lon="2.0965796">
        <ele>165</ele>
        <time>2022-02-24T08:47:14.000Z</time>
      </trkpt>
      <trkpt lat="47.684593" lon="2.0965917">
        <ele>165</ele>
        <time>2022-02-24T08:47:15.000Z</time>
      </trkpt>
      <trkpt lat="47.68459" lon="2.0966089">
        <ele>165</ele>
        <time>2022-02-24T08:47:16.000Z</time>
      </trkpt>
      <trkpt lat="47.68459" lon="2.0966253">
        <ele>165</ele>
        <time>2022-02-24T08:47:17.000Z</time>
      </trkpt>
      <trkpt lat="47.684586" lon="2.0966399">
        <ele>165</ele>
        <time>2022-02-24T08:47:18.000Z</time>
      </trkpt>
      <trkpt lat="47.68458" lon="2.0966587">
        <ele>164</ele>
        <time>2022-02-24T08:47:19.000Z</time>
      </trkpt>
      <trkpt lat="47.684574" lon="2.096674">
        <ele>165</ele>
        <time>2022-02-24T08:47:20.000Z</time>
      </trkpt>
      <trkpt lat="47.684566" lon="2.096691">
        <ele>165</ele>
        <time>2022-02-24T08:47:21.000Z</time>
      </trkpt>
      <trkpt lat="47.68456" lon="2.09671">
        <ele>165</ele>
        <time>2022-02-24T08:47:22.000Z</time>
      </trkpt>
      <trkpt lat="47.684555" lon="2.0967298">
        <ele>165</ele>
        <time>2022-02-24T08:47:23.000Z</time>
      </trkpt>
      <trkpt lat="47.68455" lon="2.0967464">
        <ele>165</ele>
        <time>2022-02-24T08:47:24.000Z</time>
      </trkpt>
      <trkpt lat="47.684544" lon="2.0967598">
        <ele>166</ele>
        <time>2022-02-24T08:47:25.000Z</time>
      </trkpt>
      <trkpt lat="47.684544" lon="2.0967743">
        <ele>166</ele>
        <time>2022-02-24T08:47:26.000Z</time>
      </trkpt>
      <trkpt lat="47.68454" lon="2.096788">
        <ele>166</ele>
        <time>2022-02-24T08:47:27.000Z</time>
      </trkpt>
      <trkpt lat="47.684536" lon="2.096804">
        <ele>166</ele>
        <time>2022-02-24T08:47:28.000Z</time>
      </trkpt>
      <trkpt lat="47.68454" lon="2.0968218">
        <ele>166</ele>
        <time>2022-02-24T08:47:29.000Z</time>
      </trkpt>
      <trkpt lat="47.68454" lon="2.0968363">
        <ele>166</ele>
        <time>2022-02-24T08:47:30.000Z</time>
      </trkpt>
      <trkpt lat="47.68454" lon="2.096851">
        <ele>166</ele>
        <time>2022-02-24T08:47:31.000Z</time>
      </trkpt>
      <trkpt lat="47.684536" lon="2.0968602">
        <ele>165</ele>
        <time>2022-02-24T08:47:32.000Z</time>
      </trkpt>
      <trkpt lat="47.68453" lon="2.0968769">
        <ele>166</ele>
        <time>2022-02-24T08:47:33.000Z</time>
      </trkpt>
      <trkpt lat="47.684525" lon="2.0968938">
        <ele>166</ele>
        <time>2022-02-24T08:47:34.000Z</time>
      </trkpt>
      <trkpt lat="47.68452" lon="2.0969064">
        <ele>165</ele>
        <time>2022-02-24T08:47:35.000Z</time>
      </trkpt>
      <trkpt lat="47.684517" lon="2.0969234">
        <ele>165</ele>
        <time>2022-02-24T08:47:36.000Z</time>
      </trkpt>
      <trkpt lat="47.684513" lon="2.0969396">
        <ele>166</ele>
        <time>2022-02-24T08:47:37.000Z</time>
      </trkpt>
      <trkpt lat="47.684513" lon="2.0969582">
        <ele>166</ele>
        <time>2022-02-24T08:47:38.000Z</time>
      </trkpt>
      <trkpt lat="47.68451" lon="2.0969727">
        <ele>166</ele>
        <time>2022-02-24T08:47:39.000Z</time>
      </trkpt>
      <trkpt lat="47.68451" lon="2.096992">
        <ele>165</ele>
        <time>2022-02-24T08:47:40.000Z</time>
      </trkpt>
      <trkpt lat="47.6845" lon="2.09701">
        <ele>165</ele>
        <time>2022-02-24T08:47:41.000Z</time>
      </trkpt>
      <trkpt lat="47.684498" lon="2.0970292">
        <ele>165</ele>
        <time>2022-02-24T08:47:42.000Z</time>
      </trkpt>
      <trkpt lat="47.684494" lon="2.0970483">
        <ele>166</ele>
        <time>2022-02-24T08:47:43.000Z</time>
      </trkpt>
      <trkpt lat="47.684486" lon="2.0970657">
        <ele>166</ele>
        <time>2022-02-24T08:47:44.000Z</time>
      </trkpt>
      <trkpt lat="47.684486" lon="2.0970807">
        <ele>165</ele>
        <time>2022-02-24T08:47:45.000Z</time>
      </trkpt>
      <trkpt lat="47.684483" lon="2.0970912">
        <ele>166</ele>
        <time>2022-02-24T08:47:46.000Z</time>
      </trkpt>
      <trkpt lat="47.68448" lon="2.09711">
        <ele>165</ele>
        <time>2022-02-24T08:47:47.000Z</time>
      </trkpt>
      <trkpt lat="47.684475" lon="2.0971267">
        <ele>165</ele>
        <time>2022-02-24T08:47:48.000Z</time>
      </trkpt>
      <trkpt lat="47.684475" lon="2.0971408">
        <ele>165</ele>
        <time>2022-02-24T08:47:49.000Z</time>
      </trkpt>
      <trkpt lat="47.68447" lon="2.0971563">
        <ele>165</ele>
        <time>2022-02-24T08:47:50.000Z</time>
      </trkpt>
      <trkpt lat="47.684467" lon="2.0971699">
        <ele>165</ele>
        <time>2022-02-24T08:47:51.000Z</time>
      </trkpt>
      <trkpt lat="47.684464" lon="2.097185">
        <ele>165</ele>
        <time>2022-02-24T08:47:52.000Z</time>
      </trkpt>
      <trkpt lat="47.684456" lon="2.097199">
        <ele>164</ele>
        <time>2022-02-24T08:47:53.000Z</time>
      </trkpt>
      <trkpt lat="47.684456" lon="2.0972173">
        <ele>164</ele>
        <time>2022-02-24T08:47:54.000Z</time>
      </trkpt>
      <trkpt lat="47.684452" lon="2.0972342">
        <ele>164</ele>
        <time>2022-02-24T08:47:55.000Z</time>
      </trkpt>
      <trkpt lat="47.68445" lon="2.0972457">
        <ele>164</ele>
        <time>2022-02-24T08:47:56.000Z</time>
      </trkpt>
      <trkpt lat="47.68445" lon="2.0972576">
        <ele>164</ele>
        <time>2022-02-24T08:47:57.000Z</time>
      </trkpt>
      <trkpt lat="47.684444" lon="2.0972762">
        <ele>165</ele>
        <time>2022-02-24T08:47:58.000Z</time>
      </trkpt>
      <trkpt lat="47.68444" lon="2.0972927">
        <ele>165</ele>
        <time>2022-02-24T08:47:59.000Z</time>
      </trkpt>
      <trkpt lat="47.68444" lon="2.0973096">
        <ele>165</ele>
        <time>2022-02-24T08:48:00.000Z</time>
      </trkpt>
      <trkpt lat="47.684433" lon="2.097325">
        <ele>165</ele>
        <time>2022-02-24T08:48:01.000Z</time>
      </trkpt>
      <trkpt lat="47.684433" lon="2.0973392">
        <ele>165</ele>
        <time>2022-02-24T08:48:02.000Z</time>
      </trkpt>
      <trkpt lat="47.684425" lon="2.0973551">
        <ele>165</ele>
        <time>2022-02-24T08:48:03.000Z</time>
      </trkpt>
      <trkpt lat="47.68442" lon="2.0973747">
        <ele>165</ele>
        <time>2022-02-24T08:48:04.000Z</time>
      </trkpt>
      <trkpt lat="47.68442" lon="2.0973918">
        <ele>165</ele>
        <time>2022-02-24T08:48:05.000Z</time>
      </trkpt>
      <trkpt lat="47.684414" lon="2.0974102">
        <ele>166</ele>
        <time>2022-02-24T08:48:06.000Z</time>
      </trkpt>
      <trkpt lat="47.684414" lon="2.0974286">
        <ele>166</ele>
        <time>2022-02-24T08:48:07.000Z</time>
      </trkpt>
      <trkpt lat="47.684406" lon="2.0974479">
        <ele>166</ele>
        <time>2022-02-24T08:48:08.000Z</time>
      </trkpt>
      <trkpt lat="47.684402" lon="2.0974655">
        <ele>166</ele>
        <time>2022-02-24T08:48:09.000Z</time>
      </trkpt>
      <trkpt lat="47.684402" lon="2.097479">
        <ele>166</ele>
        <time>2022-02-24T08:48:10.000Z</time>
      </trkpt>
      <trkpt lat="47.6844" lon="2.097496">
        <ele>166</ele>
        <time>2022-02-24T08:48:11.000Z</time>
      </trkpt>
      <trkpt lat="47.6844" lon="2.0975146">
        <ele>166</ele>
        <time>2022-02-24T08:48:12.000Z</time>
      </trkpt>
      <trkpt lat="47.684395" lon="2.0975358">
        <ele>166</ele>
        <time>2022-02-24T08:48:13.000Z</time>
      </trkpt>
      <trkpt lat="47.684395" lon="2.0975485">
        <ele>166</ele>
        <time>2022-02-24T08:48:14.000Z</time>
      </trkpt>
      <trkpt lat="47.684387" lon="2.097562">
        <ele>166</ele>
        <time>2022-02-24T08:48:15.000Z</time>
      </trkpt>
      <trkpt lat="47.684387" lon="2.0975783">
        <ele>166</ele>
        <time>2022-02-24T08:48:16.000Z</time>
      </trkpt>
      <trkpt lat="47.684383" lon="2.0975928">
        <ele>166</ele>
        <time>2022-02-24T08:48:17.000Z</time>
      </trkpt>
      <trkpt lat="47.684383" lon="2.097606">
        <ele>166</ele>
        <time>2022-02-24T08:48:18.000Z</time>
      </trkpt>
      <trkpt lat="47.684383" lon="2.0976198">
        <ele>166</ele>
        <time>2022-02-24T08:48:19.000Z</time>
      </trkpt>
      <trkpt lat="47.68438" lon="2.0976348">
        <ele>166</ele>
        <time>2022-02-24T08:48:20.000Z</time>
      </trkpt>
      <trkpt lat="47.684372" lon="2.09765">
        <ele>166</ele>
        <time>2022-02-24T08:48:21.000Z</time>
      </trkpt>
      <trkpt lat="47.684364" lon="2.0976665">
        <ele>166</ele>
        <time>2022-02-24T08:48:22.000Z</time>
      </trkpt>
      <trkpt lat="47.68436" lon="2.0976832">
        <ele>166</ele>
        <time>2022-02-24T08:48:23.000Z</time>
      </trkpt>
      <trkpt lat="47.68436" lon="2.0976975">
        <ele>166</ele>
        <time>2022-02-24T08:48:24.000Z</time>
      </trkpt>
      <trkpt lat="47.684357" lon="2.0977128">
        <ele>166</ele>
        <time>2022-02-24T08:48:25.000Z</time>
      </trkpt>
      <trkpt lat="47.684353" lon="2.0977242">
        <ele>166</ele>
        <time>2022-02-24T08:48:26.000Z</time>
      </trkpt>
      <trkpt lat="47.684345" lon="2.0977368">
        <ele>166</ele>
        <time>2022-02-24T08:48:27.000Z</time>
      </trkpt>
      <trkpt lat="47.68434" lon="2.097751">
        <ele>166</ele>
        <time>2022-02-24T08:48:28.000Z</time>
      </trkpt>
      <trkpt lat="47.684338" lon="2.0977645">
        <ele>166</ele>
        <time>2022-02-24T08:48:29.000Z</time>
      </trkpt>
      <trkpt lat="47.684334" lon="2.097778">
        <ele>166</ele>
        <time>2022-02-24T08:48:30.000Z</time>
      </trkpt>
      <trkpt lat="47.68433" lon="2.0977893">
        <ele>166</ele>
        <time>2022-02-24T08:48:31.000Z</time>
      </trkpt>
      <trkpt lat="47.68433" lon="2.097807">
        <ele>166</ele>
        <time>2022-02-24T08:48:32.000Z</time>
      </trkpt>
      <trkpt lat="47.68433" lon="2.0978222">
        <ele>166</ele>
        <time>2022-02-24T08:48:33.000Z</time>
      </trkpt>
      <trkpt lat="47.684326" lon="2.0978365">
        <ele>166</ele>
        <time>2022-02-24T08:48:34.000Z</time>
      </trkpt>
      <trkpt lat="47.684326" lon="2.097854">
        <ele>166</ele>
        <time>2022-02-24T08:48:35.000Z</time>
      </trkpt>
      <trkpt lat="47.684322" lon="2.0978699">
        <ele>167</ele>
        <time>2022-02-24T08:48:36.000Z</time>
      </trkpt>
      <trkpt lat="47.684315" lon="2.0978851">
        <ele>166</ele>
        <time>2022-02-24T08:48:37.000Z</time>
      </trkpt>
      <trkpt lat="47.684315" lon="2.0979023">
        <ele>166</ele>
        <time>2022-02-24T08:48:38.000Z</time>
      </trkpt>
      <trkpt lat="47.68431" lon="2.0979154">
        <ele>166</ele>
        <time>2022-02-24T08:48:39.000Z</time>
      </trkpt>
      <trkpt lat="47.684307" lon="2.0979326">
        <ele>166</ele>
        <time>2022-02-24T08:48:40.000Z</time>
      </trkpt>
      <trkpt lat="47.6843" lon="2.097947">
        <ele>166</ele>
        <time>2022-02-24T08:48:41.000Z</time>
      </trkpt>
      <trkpt lat="47.684296" lon="2.0979655">
        <ele>167</ele>
        <time>2022-02-24T08:48:42.000Z</time>
      </trkpt>
      <trkpt lat="47.68429" lon="2.0979834">
        <ele>166</ele>
        <time>2022-02-24T08:48:43.000Z</time>
      </trkpt>
      <trkpt lat="47.684284" lon="2.0979993">
        <ele>166</ele>
        <time>2022-02-24T08:48:44.000Z</time>
      </trkpt>
      <trkpt lat="47.68428" lon="2.098019">
        <ele>166</ele>
        <time>2022-02-24T08:48:45.000Z</time>
      </trkpt>
      <trkpt lat="47.684277" lon="2.0980372">
        <ele>166</ele>
        <time>2022-02-24T08:48:46.000Z</time>
      </trkpt>
      <trkpt lat="47.684273" lon="2.0980525">
        <ele>166</ele>
        <time>2022-02-24T08:48:47.000Z</time>
      </trkpt>
      <trkpt lat="47.684273" lon="2.0980694">
        <ele>166</ele>
        <time>2022-02-24T08:48:48.000Z</time>
      </trkpt>
      <trkpt lat="47.68427" lon="2.0980916">
        <ele>166</ele>
        <time>2022-02-24T08:48:49.000Z</time>
      </trkpt>
      <trkpt lat="47.68427" lon="2.0981092">
        <ele>166</ele>
        <time>2022-02-24T08:48:50.000Z</time>
      </trkpt>
      <trkpt lat="47.684265" lon="2.0981202">
        <ele>166</ele>
        <time>2022-02-24T08:48:51.000Z</time>
      </trkpt>
      <trkpt lat="47.68426" lon="2.0981333">
        <ele>166</ele>
        <time>2022-02-24T08:48:52.000Z</time>
      </trkpt>
      <trkpt lat="47.684258" lon="2.0981512">
        <ele>166</ele>
        <time>2022-02-24T08:48:53.000Z</time>
      </trkpt>
      <trkpt lat="47.684254" lon="2.0981648">
        <ele>166</ele>
        <time>2022-02-24T08:48:54.000Z</time>
      </trkpt>
      <trkpt lat="47.684246" lon="2.0981803">
        <ele>166</ele>
        <time>2022-02-24T08:48:55.000Z</time>
      </trkpt>
      <trkpt lat="47.684242" lon="2.098194">
        <ele>166</ele>
        <time>2022-02-24T08:48:56.000Z</time>
      </trkpt>
      <trkpt lat="47.68424" lon="2.0982082">
        <ele>166</ele>
        <time>2022-02-24T08:48:57.000Z</time>
      </trkpt>
      <trkpt lat="47.68424" lon="2.098225">
        <ele>166</ele>
        <time>2022-02-24T08:48:58.000Z</time>
      </trkpt>
      <trkpt lat="47.684235" lon="2.0982392">
        <ele>166</ele>
        <time>2022-02-24T08:48:59.000Z</time>
      </trkpt>
      <trkpt lat="47.684235" lon="2.09825">
        <ele>166</ele>
        <time>2022-02-24T08:49:00.000Z</time>
      </trkpt>
      <trkpt lat="47.68423" lon="2.0982609">
        <ele>166</ele>
        <time>2022-02-24T08:49:01.000Z</time>
      </trkpt>
      <trkpt lat="47.684223" lon="2.0982718">
        <ele>166</ele>
        <time>2022-02-24T08:49:02.000Z</time>
      </trkpt>
      <trkpt lat="47.68422" lon="2.0982842">
        <ele>166</ele>
        <time>2022-02-24T08:49:03.000Z</time>
      </trkpt>
      <trkpt lat="47.684216" lon="2.0982997">
        <ele>166</ele>
        <time>2022-02-24T08:49:04.000Z</time>
      </trkpt>
      <trkpt lat="47.68421" lon="2.0983105">
        <ele>166</ele>
        <time>2022-02-24T08:49:05.000Z</time>
      </trkpt>
      <trkpt lat="47.684208" lon="2.0983222">
        <ele>166</ele>
        <time>2022-02-24T08:49:06.000Z</time>
      </trkpt>
      <trkpt lat="47.684204" lon="2.0983362">
        <ele>166</ele>
        <time>2022-02-24T08:49:07.000Z</time>
      </trkpt>
      <trkpt lat="47.684204" lon="2.0983527">
        <ele>166</ele>
        <time>2022-02-24T08:49:08.000Z</time>
      </trkpt>
      <trkpt lat="47.684196" lon="2.0983655">
        <ele>166</ele>
        <time>2022-02-24T08:49:09.000Z</time>
      </trkpt>
      <trkpt lat="47.684196" lon="2.0983815">
        <ele>167</ele>
        <time>2022-02-24T08:49:10.000Z</time>
      </trkpt>
      <trkpt lat="47.684196" lon="2.098398">
        <ele>166</ele>
        <time>2022-02-24T08:49:11.000Z</time>
      </trkpt>
      <trkpt lat="47.684193" lon="2.0984159">
        <ele>166</ele>
        <time>2022-02-24T08:49:12.000Z</time>
      </trkpt>
      <trkpt lat="47.68419" lon="2.0984294">
        <ele>166</ele>
        <time>2022-02-24T08:49:13.000Z</time>
      </trkpt>
      <trkpt lat="47.684185" lon="2.0984442">
        <ele>166</ele>
        <time>2022-02-24T08:49:14.000Z</time>
      </trkpt>
      <trkpt lat="47.68418" lon="2.0984607">
        <ele>166</ele>
        <time>2022-02-24T08:49:15.000Z</time>
      </trkpt>
      <trkpt lat="47.684177" lon="2.098473">
        <ele>166</ele>
        <time>2022-02-24T08:49:16.000Z</time>
      </trkpt>
      <trkpt lat="47.684177" lon="2.0984879">
        <ele>166</ele>
        <time>2022-02-24T08:49:17.000Z</time>
      </trkpt>
      <trkpt lat="47.684174" lon="2.0985012">
        <ele>166</ele>
        <time>2022-02-24T08:49:18.000Z</time>
      </trkpt>
      <trkpt lat="47.68417" lon="2.098517">
        <ele>166</ele>
        <time>2022-02-24T08:49:19.000Z</time>
      </trkpt>
      <trkpt lat="47.684162" lon="2.0985367">
        <ele>165</ele>
        <time>2022-02-24T08:49:20.000Z</time>
      </trkpt>
      <trkpt lat="47.684162" lon="2.0985527">
        <ele>165</ele>
        <time>2022-02-24T08:49:21.000Z</time>
      </trkpt>
      <trkpt lat="47.68416" lon="2.0985708">
        <ele>165</ele>
        <time>2022-02-24T08:49:22.000Z</time>
      </trkpt>
      <trkpt lat="47.68415" lon="2.0985851">
        <ele>165</ele>
        <time>2022-02-24T08:49:23.000Z</time>
      </trkpt>
      <trkpt lat="47.68415" lon="2.0986028">
        <ele>165</ele>
        <time>2022-02-24T08:49:24.000Z</time>
      </trkpt>
      <trkpt lat="47.684147" lon="2.0986195">
        <ele>165</ele>
        <time>2022-02-24T08:49:25.000Z</time>
      </trkpt>
      <trkpt lat="47.684147" lon="2.0986357">
        <ele>165</ele>
        <time>2022-02-24T08:49:26.000Z</time>
      </trkpt>
      <trkpt lat="47.684147" lon="2.0986552">
        <ele>165</ele>
        <time>2022-02-24T08:49:27.000Z</time>
      </trkpt>
      <trkpt lat="47.68414" lon="2.0986726">
        <ele>165</ele>
        <time>2022-02-24T08:49:28.000Z</time>
      </trkpt>
      <trkpt lat="47.684135" lon="2.0986874">
        <ele>165</ele>
        <time>2022-02-24T08:49:29.000Z</time>
      </trkpt>
      <trkpt lat="47.684135" lon="2.0987072">
        <ele>165</ele>
        <time>2022-02-24T08:49:30.000Z</time>
      </trkpt>
      <trkpt lat="47.68413" lon="2.0987267">
        <ele>164</ele>
        <time>2022-02-24T08:49:31.000Z</time>
      </trkpt>
      <trkpt lat="47.684128" lon="2.0987396">
        <ele>164</ele>
        <time>2022-02-24T08:49:32.000Z</time>
      </trkpt>
      <trkpt lat="47.684124" lon="2.0987525">
        <ele>165</ele>
        <time>2022-02-24T08:49:33.000Z</time>
      </trkpt>
      <trkpt lat="47.68412" lon="2.0987663">
        <ele>165</ele>
        <time>2022-02-24T08:49:34.000Z</time>
      </trkpt>
      <trkpt lat="47.684116" lon="2.098778">
        <ele>165</ele>
        <time>2022-02-24T08:49:35.000Z</time>
      </trkpt>
      <trkpt lat="47.68412" lon="2.0987976">
        <ele>164</ele>
        <time>2022-02-24T08:49:36.000Z</time>
      </trkpt>
      <trkpt lat="47.684113" lon="2.0988116">
        <ele>165</ele>
        <time>2022-02-24T08:49:37.000Z</time>
      </trkpt>
      <trkpt lat="47.68411" lon="2.0988271">
        <ele>165</ele>
        <time>2022-02-24T08:49:38.000Z</time>
      </trkpt>
      <trkpt lat="47.684105" lon="2.0988393">
        <ele>164</ele>
        <time>2022-02-24T08:49:39.000Z</time>
      </trkpt>
      <trkpt lat="47.6841" lon="2.098851">
        <ele>164</ele>
        <time>2022-02-24T08:49:40.000Z</time>
      </trkpt>
      <trkpt lat="47.684097" lon="2.098863">
        <ele>164</ele>
        <time>2022-02-24T08:49:41.000Z</time>
      </trkpt>
      <trkpt lat="47.684097" lon="2.0988712">
        <ele>164</ele>
        <time>2022-02-24T08:49:42.000Z</time>
      </trkpt>
      <trkpt lat="47.684097" lon="2.0988803">
        <ele>164</ele>
        <time>2022-02-24T08:49:43.000Z</time>
      </trkpt>
      <trkpt lat="47.684097" lon="2.098894">
        <ele>164</ele>
        <time>2022-02-24T08:49:44.000Z</time>
      </trkpt>
      <trkpt lat="47.68409" lon="2.0989087">
        <ele>164</ele>
        <time>2022-02-24T08:49:45.000Z</time>
      </trkpt>
      <trkpt lat="47.684086" lon="2.0989234">
        <ele>165</ele>
        <time>2022-02-24T08:49:46.000Z</time>
      </trkpt>
      <trkpt lat="47.684082" lon="2.0989387">
        <ele>165</ele>
        <time>2022-02-24T08:49:47.000Z</time>
      </trkpt>
      <trkpt lat="47.68408" lon="2.0989568">
        <ele>165</ele>
        <time>2022-02-24T08:49:48.000Z</time>
      </trkpt>
      <trkpt lat="47.68408" lon="2.0989695">
        <ele>165</ele>
        <time>2022-02-24T08:49:49.000Z</time>
      </trkpt>
      <trkpt lat="47.68407" lon="2.0989807">
        <ele>165</ele>
        <time>2022-02-24T08:49:50.000Z</time>
      </trkpt>
      <trkpt lat="47.684067" lon="2.0989947">
        <ele>165</ele>
        <time>2022-02-24T08:49:51.000Z</time>
      </trkpt>
      <trkpt lat="47.684067" lon="2.0990112">
        <ele>165</ele>
        <time>2022-02-24T08:49:52.000Z</time>
      </trkpt>
      <trkpt lat="47.684063" lon="2.0990262">
        <ele>165</ele>
        <time>2022-02-24T08:49:53.000Z</time>
      </trkpt>
      <trkpt lat="47.684063" lon="2.0990427">
        <ele>165</ele>
        <time>2022-02-24T08:49:54.000Z</time>
      </trkpt>
      <trkpt lat="47.684063" lon="2.0990558">
        <ele>165</ele>
        <time>2022-02-24T08:49:55.000Z</time>
      </trkpt>
      <trkpt lat="47.684063" lon="2.099068">
        <ele>165</ele>
        <time>2022-02-24T08:49:56.000Z</time>
      </trkpt>
      <trkpt lat="47.684055" lon="2.0990818">
        <ele>165</ele>
        <time>2022-02-24T08:49:57.000Z</time>
      </trkpt>
      <trkpt lat="47.684055" lon="2.0990987">
        <ele>165</ele>
        <time>2022-02-24T08:49:58.000Z</time>
      </trkpt>
      <trkpt lat="47.68405" lon="2.0991204">
        <ele>166</ele>
        <time>2022-02-24T08:49:59.000Z</time>
      </trkpt>
      <trkpt lat="47.684048" lon="2.099134">
        <ele>165</ele>
        <time>2022-02-24T08:50:00.000Z</time>
      </trkpt>
      <trkpt lat="47.68404" lon="2.0991507">
        <ele>165</ele>
        <time>2022-02-24T08:50:01.000Z</time>
      </trkpt>
      <trkpt lat="47.684032" lon="2.0991666">
        <ele>165</ele>
        <time>2022-02-24T08:50:02.000Z</time>
      </trkpt>
      <trkpt lat="47.68403" lon="2.0991802">
        <ele>165</ele>
        <time>2022-02-24T08:50:03.000Z</time>
      </trkpt>
      <trkpt lat="47.684025" lon="2.0991936">
        <ele>165</ele>
        <time>2022-02-24T08:50:04.000Z</time>
      </trkpt>
      <trkpt lat="47.68402" lon="2.0992045">
        <ele>165</ele>
        <time>2022-02-24T08:50:05.000Z</time>
      </trkpt>
      <trkpt lat="47.684017" lon="2.0992165">
        <ele>165</ele>
        <time>2022-02-24T08:50:06.000Z</time>
      </trkpt>
      <trkpt lat="47.684013" lon="2.099227">
        <ele>165</ele>
        <time>2022-02-24T08:50:07.000Z</time>
      </trkpt>
      <trkpt lat="47.68401" lon="2.0992382">
        <ele>165</ele>
        <time>2022-02-24T08:50:08.000Z</time>
      </trkpt>
      <trkpt lat="47.684006" lon="2.0992491">
        <ele>165</ele>
        <time>2022-02-24T08:50:09.000Z</time>
      </trkpt>
      <trkpt lat="47.684002" lon="2.0992682">
        <ele>165</ele>
        <time>2022-02-24T08:50:10.000Z</time>
      </trkpt>
      <trkpt lat="47.684" lon="2.099284">
        <ele>165</ele>
        <time>2022-02-24T08:50:11.000Z</time>
      </trkpt>
      <trkpt lat="47.683994" lon="2.099298">
        <ele>165</ele>
        <time>2022-02-24T08:50:12.000Z</time>
      </trkpt>
      <trkpt lat="47.68399" lon="2.0993118">
        <ele>164</ele>
        <time>2022-02-24T08:50:13.000Z</time>
      </trkpt>
      <trkpt lat="47.683987" lon="2.0993261">
        <ele>164</ele>
        <time>2022-02-24T08:50:14.000Z</time>
      </trkpt>
      <trkpt lat="47.683983" lon="2.0993443">
        <ele>164</ele>
        <time>2022-02-24T08:50:15.000Z</time>
      </trkpt>
      <trkpt lat="47.683983" lon="2.0993648">
        <ele>164</ele>
        <time>2022-02-24T08:50:16.000Z</time>
      </trkpt>
      <trkpt lat="47.683983" lon="2.0993817">
        <ele>164</ele>
        <time>2022-02-24T08:50:17.000Z</time>
      </trkpt>
      <trkpt lat="47.68398" lon="2.0994027">
        <ele>164</ele>
        <time>2022-02-24T08:50:18.000Z</time>
      </trkpt>
      <trkpt lat="47.683975" lon="2.0994208">
        <ele>164</ele>
        <time>2022-02-24T08:50:19.000Z</time>
      </trkpt>
      <trkpt lat="47.68397" lon="2.0994377">
        <ele>164</ele>
        <time>2022-02-24T08:50:20.000Z</time>
      </trkpt>
      <trkpt lat="47.683968" lon="2.099455">
        <ele>164</ele>
        <time>2022-02-24T08:50:21.000Z</time>
      </trkpt>
      <trkpt lat="47.683964" lon="2.0994756">
        <ele>164</ele>
        <time>2022-02-24T08:50:22.000Z</time>
      </trkpt>
      <trkpt lat="47.68396" lon="2.099495">
        <ele>165</ele>
        <time>2022-02-24T08:50:23.000Z</time>
      </trkpt>
      <trkpt lat="47.683956" lon="2.0995126">
        <ele>165</ele>
        <time>2022-02-24T08:50:24.000Z</time>
      </trkpt>
      <trkpt lat="47.683952" lon="2.0995312">
        <ele>165</ele>
        <time>2022-02-24T08:50:25.000Z</time>
      </trkpt>
      <trkpt lat="47.68395" lon="2.0995502">
        <ele>165</ele>
        <time>2022-02-24T08:50:26.000Z</time>
      </trkpt>
      <trkpt lat="47.683945" lon="2.0995674">
        <ele>166</ele>
        <time>2022-02-24T08:50:27.000Z</time>
      </trkpt>
      <trkpt lat="47.68394" lon="2.0995877">
        <ele>165</ele>
        <time>2022-02-24T08:50:28.000Z</time>
      </trkpt>
      <trkpt lat="47.683937" lon="2.0996048">
        <ele>165</ele>
        <time>2022-02-24T08:50:29.000Z</time>
      </trkpt>
      <trkpt lat="47.683933" lon="2.099622">
        <ele>165</ele>
        <time>2022-02-24T08:50:30.000Z</time>
      </trkpt>
      <trkpt lat="47.68393" lon="2.099641">
        <ele>166</ele>
        <time>2022-02-24T08:50:31.000Z</time>
      </trkpt>
      <trkpt lat="47.68392" lon="2.099657">
        <ele>166</ele>
        <time>2022-02-24T08:50:32.000Z</time>
      </trkpt>
      <trkpt lat="47.68392" lon="2.0996704">
        <ele>166</ele>
        <time>2022-02-24T08:50:33.000Z</time>
      </trkpt>
      <trkpt lat="47.683918" lon="2.0996852">
        <ele>166</ele>
        <time>2022-02-24T08:50:34.000Z</time>
      </trkpt>
      <trkpt lat="47.683918" lon="2.0997002">
        <ele>166</ele>
        <time>2022-02-24T08:50:35.000Z</time>
      </trkpt>
      <trkpt lat="47.683914" lon="2.0997164">
        <ele>166</ele>
        <time>2022-02-24T08:50:36.000Z</time>
      </trkpt>
      <trkpt lat="47.683914" lon="2.0997372">
        <ele>166</ele>
        <time>2022-02-24T08:50:37.000Z</time>
      </trkpt>
      <trkpt lat="47.683907" lon="2.0997539">
        <ele>166</ele>
        <time>2022-02-24T08:50:38.000Z</time>
      </trkpt>
      <trkpt lat="47.683903" lon="2.0997713">
        <ele>166</ele>
        <time>2022-02-24T08:50:39.000Z</time>
      </trkpt>
      <trkpt lat="47.6839" lon="2.099788">
        <ele>166</ele>
        <time>2022-02-24T08:50:40.000Z</time>
      </trkpt>
      <trkpt lat="47.6839" lon="2.0998023">
        <ele>166</ele>
        <time>2022-02-24T08:50:41.000Z</time>
      </trkpt>
      <trkpt lat="47.683895" lon="2.0998197">
        <ele>166</ele>
        <time>2022-02-24T08:50:42.000Z</time>
      </trkpt>
      <trkpt lat="47.68389" lon="2.0998344">
        <ele>166</ele>
        <time>2022-02-24T08:50:43.000Z</time>
      </trkpt>
      <trkpt lat="47.683887" lon="2.0998476">
        <ele>166</ele>
        <time>2022-02-24T08:50:44.000Z</time>
      </trkpt>
      <trkpt lat="47.683884" lon="2.0998619">
        <ele>166</ele>
        <time>2022-02-24T08:50:45.000Z</time>
      </trkpt>
      <trkpt lat="47.683876" lon="2.099879">
        <ele>166</ele>
        <time>2022-02-24T08:50:46.000Z</time>
      </trkpt>
      <trkpt lat="47.683876" lon="2.099896">
        <ele>166</ele>
        <time>2022-02-24T08:50:47.000Z</time>
      </trkpt>
      <trkpt lat="47.683872" lon="2.0999084">
        <ele>166</ele>
        <time>2022-02-24T08:50:48.000Z</time>
      </trkpt>
      <trkpt lat="47.683872" lon="2.0999215">
        <ele>166</ele>
        <time>2022-02-24T08:50:49.000Z</time>
      </trkpt>
      <trkpt lat="47.68387" lon="2.0999336">
        <ele>166</ele>
        <time>2022-02-24T08:50:50.000Z</time>
      </trkpt>
      <trkpt lat="47.683865" lon="2.0999491">
        <ele>166</ele>
        <time>2022-02-24T08:50:51.000Z</time>
      </trkpt>
      <trkpt lat="47.68386" lon="2.0999656">
        <ele>166</ele>
        <time>2022-02-24T08:50:52.000Z</time>
      </trkpt>
      <trkpt lat="47.68386" lon="2.0999808">
        <ele>166</ele>
        <time>2022-02-24T08:50:53.000Z</time>
      </trkpt>
      <trkpt lat="47.683857" lon="2.0999966">
        <ele>167</ele>
        <time>2022-02-24T08:50:54.000Z</time>
      </trkpt>
      <trkpt lat="47.683853" lon="2.1000082">
        <ele>167</ele>
        <time>2022-02-24T08:50:55.000Z</time>
      </trkpt>
      <trkpt lat="47.68385" lon="2.1000206">
        <ele>166</ele>
        <time>2022-02-24T08:50:56.000Z</time>
      </trkpt>
      <trkpt lat="47.683846" lon="2.100032">
        <ele>166</ele>
        <time>2022-02-24T08:50:57.000Z</time>
      </trkpt>
      <trkpt lat="47.683846" lon="2.1000485">
        <ele>166</ele>
        <time>2022-02-24T08:50:58.000Z</time>
      </trkpt>
      <trkpt lat="47.68384" lon="2.10007">
        <ele>167</ele>
        <time>2022-02-24T08:50:59.000Z</time>
      </trkpt>
      <trkpt lat="47.683838" lon="2.100088">
        <ele>166</ele>
        <time>2022-02-24T08:51:00.000Z</time>
      </trkpt>
      <trkpt lat="47.683834" lon="2.1001067">
        <ele>166</ele>
        <time>2022-02-24T08:51:01.000Z</time>
      </trkpt>
      <trkpt lat="47.683834" lon="2.1001198">
        <ele>166</ele>
        <time>2022-02-24T08:51:02.000Z</time>
      </trkpt>
      <trkpt lat="47.68383" lon="2.1001403">
        <ele>166</ele>
        <time>2022-02-24T08:51:03.000Z</time>
      </trkpt>
      <trkpt lat="47.683826" lon="2.1001592">
        <ele>166</ele>
        <time>2022-02-24T08:51:04.000Z</time>
      </trkpt>
      <trkpt lat="47.683823" lon="2.1001768">
        <ele>166</ele>
        <time>2022-02-24T08:51:05.000Z</time>
      </trkpt>
      <trkpt lat="47.68382" lon="2.1001916">
        <ele>165</ele>
        <time>2022-02-24T08:51:06.000Z</time>
      </trkpt>
      <trkpt lat="47.683815" lon="2.1002069">
        <ele>165</ele>
        <time>2022-02-24T08:51:07.000Z</time>
      </trkpt>
      <trkpt lat="47.683807" lon="2.100223">
        <ele>165</ele>
        <time>2022-02-24T08:51:08.000Z</time>
      </trkpt>
      <trkpt lat="47.683807" lon="2.1002395">
        <ele>165</ele>
        <time>2022-02-24T08:51:09.000Z</time>
      </trkpt>
      <trkpt lat="47.683804" lon="2.100257">
        <ele>165</ele>
        <time>2022-02-24T08:51:10.000Z</time>
      </trkpt>
      <trkpt lat="47.6838" lon="2.10027">
        <ele>165</ele>
        <time>2022-02-24T08:51:11.000Z</time>
      </trkpt>
      <trkpt lat="47.6838" lon="2.1002867">
        <ele>166</ele>
        <time>2022-02-24T08:51:12.000Z</time>
      </trkpt>
      <trkpt lat="47.683796" lon="2.1003013">
        <ele>165</ele>
        <time>2022-02-24T08:51:13.000Z</time>
      </trkpt>
      <trkpt lat="47.683792" lon="2.1003132">
        <ele>165</ele>
        <time>2022-02-24T08:51:14.000Z</time>
      </trkpt>
      <trkpt lat="47.68379" lon="2.1003242">
        <ele>165</ele>
        <time>2022-02-24T08:51:15.000Z</time>
      </trkpt>
      <trkpt lat="47.683784" lon="2.1003377">
        <ele>165</ele>
        <time>2022-02-24T08:51:16.000Z</time>
      </trkpt>
      <trkpt lat="47.683784" lon="2.100351">
        <ele>165</ele>
        <time>2022-02-24T08:51:17.000Z</time>
      </trkpt>
      <trkpt lat="47.683784" lon="2.100365">
        <ele>165</ele>
        <time>2022-02-24T08:51:18.000Z</time>
      </trkpt>
      <trkpt lat="47.68378" lon="2.1003766">
        <ele>165</ele>
        <time>2022-02-24T08:51:19.000Z</time>
      </trkpt>
      <trkpt lat="47.683777" lon="2.1003904">
        <ele>165</ele>
        <time>2022-02-24T08:51:20.000Z</time>
      </trkpt>
      <trkpt lat="47.683773" lon="2.100406">
        <ele>165</ele>
        <time>2022-02-24T08:51:21.000Z</time>
      </trkpt>
      <trkpt lat="47.68377" lon="2.1004195">
        <ele>165</ele>
        <time>2022-02-24T08:51:22.000Z</time>
      </trkpt>
      <trkpt lat="47.683765" lon="2.1004353">
        <ele>166</ele>
        <time>2022-02-24T08:51:23.000Z</time>
      </trkpt>
      <trkpt lat="47.683758" lon="2.1004522">
        <ele>166</ele>
        <time>2022-02-24T08:51:24.000Z</time>
      </trkpt>
      <trkpt lat="47.683754" lon="2.1004672">
        <ele>166</ele>
        <time>2022-02-24T08:51:25.000Z</time>
      </trkpt>
      <trkpt lat="47.683754" lon="2.1004827">
        <ele>166</ele>
        <time>2022-02-24T08:51:26.000Z</time>
      </trkpt>
      <trkpt lat="47.683746" lon="2.1005006">
        <ele>165</ele>
        <time>2022-02-24T08:51:27.000Z</time>
      </trkpt>
      <trkpt lat="47.683743" lon="2.1005144">
        <ele>165</ele>
        <time>2022-02-24T08:51:28.000Z</time>
      </trkpt>
      <trkpt lat="47.683743" lon="2.1005294">
        <ele>165</ele>
        <time>2022-02-24T08:51:29.000Z</time>
      </trkpt>
      <trkpt lat="47.683743" lon="2.1005461">
        <ele>165</ele>
        <time>2022-02-24T08:51:30.000Z</time>
      </trkpt>
      <trkpt lat="47.68374" lon="2.1005628">
        <ele>165</ele>
        <time>2022-02-24T08:51:31.000Z</time>
      </trkpt>
      <trkpt lat="47.683735" lon="2.1005754">
        <ele>165</ele>
        <time>2022-02-24T08:51:32.000Z</time>
      </trkpt>
      <trkpt lat="47.683735" lon="2.1005957">
        <ele>164</ele>
        <time>2022-02-24T08:51:33.000Z</time>
      </trkpt>
      <trkpt lat="47.68373" lon="2.1006117">
        <ele>164</ele>
        <time>2022-02-24T08:51:34.000Z</time>
      </trkpt>
      <trkpt lat="47.683727" lon="2.100629">
        <ele>163</ele>
        <time>2022-02-24T08:51:35.000Z</time>
      </trkpt>
      <trkpt lat="47.683723" lon="2.1006525">
        <ele>163</ele>
        <time>2022-02-24T08:51:36.000Z</time>
      </trkpt>
      <trkpt lat="47.68372" lon="2.100677">
        <ele>163</ele>
        <time>2022-02-24T08:51:37.000Z</time>
      </trkpt>
      <trkpt lat="47.683712" lon="2.100702">
        <ele>163</ele>
        <time>2022-02-24T08:51:38.000Z</time>
      </trkpt>
      <trkpt lat="47.683704" lon="2.1007318">
        <ele>163</ele>
        <time>2022-02-24T08:51:40.000Z</time>
      </trkpt>
      <trkpt lat="47.683704" lon="2.1007423">
        <ele>164</ele>
        <time>2022-02-24T08:51:41.000Z</time>
      </trkpt>
      <trkpt lat="47.683697" lon="2.1007576">
        <ele>164</ele>
        <time>2022-02-24T08:51:42.000Z</time>
      </trkpt>
      <trkpt lat="47.68369" lon="2.1007748">
        <ele>164</ele>
        <time>2022-02-24T08:51:43.000Z</time>
      </trkpt>
      <trkpt lat="47.68369" lon="2.1007912">
        <ele>164</ele>
        <time>2022-02-24T08:51:44.000Z</time>
      </trkpt>
      <trkpt lat="47.683685" lon="2.1008034">
        <ele>163</ele>
        <time>2022-02-24T08:51:45.000Z</time>
      </trkpt>
      <trkpt lat="47.683685" lon="2.100818">
        <ele>163</ele>
        <time>2022-02-24T08:51:46.000Z</time>
      </trkpt>
      <trkpt lat="47.68368" lon="2.1008313">
        <ele>163</ele>
        <time>2022-02-24T08:51:47.000Z</time>
      </trkpt>
      <trkpt lat="47.683678" lon="2.1008449">
        <ele>163</ele>
        <time>2022-02-24T08:51:48.000Z</time>
      </trkpt>
      <trkpt lat="47.68367" lon="2.1008508">
        <ele>163</ele>
        <time>2022-02-24T08:51:49.000Z</time>
      </trkpt>
      <trkpt lat="47.683666" lon="2.1008608">
        <ele>163</ele>
        <time>2022-02-24T08:51:50.000Z</time>
      </trkpt>
      <trkpt lat="47.683666" lon="2.1008751">
        <ele>163</ele>
        <time>2022-02-24T08:51:51.000Z</time>
      </trkpt>
      <trkpt lat="47.683662" lon="2.100896">
        <ele>162</ele>
        <time>2022-02-24T08:51:52.000Z</time>
      </trkpt>
      <trkpt lat="47.68366" lon="2.100912">
        <ele>163</ele>
        <time>2022-02-24T08:51:53.000Z</time>
      </trkpt>
      <trkpt lat="47.68365" lon="2.1009288">
        <ele>162</ele>
        <time>2022-02-24T08:51:54.000Z</time>
      </trkpt>
      <trkpt lat="47.683643" lon="2.10095">
        <ele>162</ele>
        <time>2022-02-24T08:51:55.000Z</time>
      </trkpt>
      <trkpt lat="47.68364" lon="2.1009686">
        <ele>162</ele>
        <time>2022-02-24T08:51:56.000Z</time>
      </trkpt>
      <trkpt lat="47.683636" lon="2.1009815">
        <ele>162</ele>
        <time>2022-02-24T08:51:57.000Z</time>
      </trkpt>
      <trkpt lat="47.683636" lon="2.1010005">
        <ele>162</ele>
        <time>2022-02-24T08:51:58.000Z</time>
      </trkpt>
      <trkpt lat="47.68363" lon="2.1010184">
        <ele>162</ele>
        <time>2022-02-24T08:51:59.000Z</time>
      </trkpt>
      <trkpt lat="47.683628" lon="2.1010318">
        <ele>163</ele>
        <time>2022-02-24T08:52:00.000Z</time>
      </trkpt>
      <trkpt lat="47.68362" lon="2.1010473">
        <ele>163</ele>
        <time>2022-02-24T08:52:01.000Z</time>
      </trkpt>
      <trkpt lat="47.683617" lon="2.1010633">
        <ele>163</ele>
        <time>2022-02-24T08:52:02.000Z</time>
      </trkpt>
      <trkpt lat="47.683617" lon="2.101079">
        <ele>163</ele>
        <time>2022-02-24T08:52:03.000Z</time>
      </trkpt>
      <trkpt lat="47.683617" lon="2.101096">
        <ele>162</ele>
        <time>2022-02-24T08:52:04.000Z</time>
      </trkpt>
      <trkpt lat="47.683617" lon="2.1011133">
        <ele>162</ele>
        <time>2022-02-24T08:52:05.000Z</time>
      </trkpt>
      <trkpt lat="47.683613" lon="2.101134">
        <ele>161</ele>
        <time>2022-02-24T08:52:06.000Z</time>
      </trkpt>
      <trkpt lat="47.68361" lon="2.1011548">
        <ele>161</ele>
        <time>2022-02-24T08:52:07.000Z</time>
      </trkpt>
      <trkpt lat="47.6836" lon="2.101174">
        <ele>161</ele>
        <time>2022-02-24T08:52:08.000Z</time>
      </trkpt>
      <trkpt lat="47.683598" lon="2.1011908">
        <ele>161</ele>
        <time>2022-02-24T08:52:09.000Z</time>
      </trkpt>
      <trkpt lat="47.683598" lon="2.1012118">
        <ele>161</ele>
        <time>2022-02-24T08:52:10.000Z</time>
      </trkpt>
      <trkpt lat="47.68359" lon="2.1012306">
        <ele>161</ele>
        <time>2022-02-24T08:52:11.000Z</time>
      </trkpt>
      <trkpt lat="47.683586" lon="2.1012485">
        <ele>161</ele>
        <time>2022-02-24T08:52:12.000Z</time>
      </trkpt>
      <trkpt lat="47.68358" lon="2.101267">
        <ele>161</ele>
        <time>2022-02-24T08:52:13.000Z</time>
      </trkpt>
      <trkpt lat="47.683575" lon="2.101282">
        <ele>161</ele>
        <time>2022-02-24T08:52:14.000Z</time>
      </trkpt>
      <trkpt lat="47.683567" lon="2.1012967">
        <ele>161</ele>
        <time>2022-02-24T08:52:15.000Z</time>
      </trkpt>
      <trkpt lat="47.683563" lon="2.1013072">
        <ele>161</ele>
        <time>2022-02-24T08:52:16.000Z</time>
      </trkpt>
      <trkpt lat="47.683563" lon="2.1013236">
        <ele>161</ele>
        <time>2022-02-24T08:52:17.000Z</time>
      </trkpt>
      <trkpt lat="47.68356" lon="2.101342">
        <ele>161</ele>
        <time>2022-02-24T08:52:18.000Z</time>
      </trkpt>
      <trkpt lat="47.683556" lon="2.1013691">
        <ele>161</ele>
        <time>2022-02-24T08:52:19.000Z</time>
      </trkpt>
      <trkpt lat="47.68355" lon="2.1013906">
        <ele>161</ele>
        <time>2022-02-24T08:52:20.000Z</time>
      </trkpt>
      <trkpt lat="47.683548" lon="2.1014092">
        <ele>161</ele>
        <time>2022-02-24T08:52:21.000Z</time>
      </trkpt>
      <trkpt lat="47.68354" lon="2.101427">
        <ele>162</ele>
        <time>2022-02-24T08:52:22.000Z</time>
      </trkpt>
      <trkpt lat="47.683537" lon="2.1014442">
        <ele>161</ele>
        <time>2022-02-24T08:52:23.000Z</time>
      </trkpt>
      <trkpt lat="47.68353" lon="2.1014607">
        <ele>162</ele>
        <time>2022-02-24T08:52:24.000Z</time>
      </trkpt>
      <trkpt lat="47.683525" lon="2.1014755">
        <ele>162</ele>
        <time>2022-02-24T08:52:25.000Z</time>
      </trkpt>
      <trkpt lat="47.683517" lon="2.1014926">
        <ele>162</ele>
        <time>2022-02-24T08:52:26.000Z</time>
      </trkpt>
      <trkpt lat="47.683517" lon="2.1015058">
        <ele>162</ele>
        <time>2022-02-24T08:52:27.000Z</time>
      </trkpt>
      <trkpt lat="47.68351" lon="2.1015232">
        <ele>162</ele>
        <time>2022-02-24T08:52:28.000Z</time>
      </trkpt>
      <trkpt lat="47.683506" lon="2.1015387">
        <ele>163</ele>
        <time>2022-02-24T08:52:29.000Z</time>
      </trkpt>
      <trkpt lat="47.683495" lon="2.101556">
        <ele>163</ele>
        <time>2022-02-24T08:52:30.000Z</time>
      </trkpt>
      <trkpt lat="47.68349" lon="2.1015675">
        <ele>163</ele>
        <time>2022-02-24T08:52:31.000Z</time>
      </trkpt>
      <trkpt lat="47.683487" lon="2.1015778">
        <ele>163</ele>
        <time>2022-02-24T08:52:32.000Z</time>
      </trkpt>
      <trkpt lat="47.683487" lon="2.101588">
        <ele>163</ele>
        <time>2022-02-24T08:52:33.000Z</time>
      </trkpt>
      <trkpt lat="47.683487" lon="2.101588">
        <ele>163</ele>
        <time>2022-02-24T08:52:34.000Z</time>
      </trkpt>
      <trkpt lat="47.683487" lon="2.101588">
        <ele>163</ele>
        <time>2022-02-24T08:52:35.000Z</time>
      </trkpt>
      <trkpt lat="47.68347" lon="2.1016178">
        <ele>163</ele>
        <time>2022-02-24T08:52:36.000Z</time>
      </trkpt>
      <trkpt lat="47.68347" lon="2.101632">
        <ele>164</ele>
        <time>2022-02-24T08:52:37.000Z</time>
      </trkpt>
      <trkpt lat="47.683468" lon="2.1016517">
        <ele>163</ele>
        <time>2022-02-24T08:52:38.000Z</time>
      </trkpt>
      <trkpt lat="47.68347" lon="2.1016686">
        <ele>163</ele>
        <time>2022-02-24T08:52:39.000Z</time>
      </trkpt>
      <trkpt lat="47.683468" lon="2.1016843">
        <ele>163</ele>
        <time>2022-02-24T08:52:40.000Z</time>
      </trkpt>
      <trkpt lat="47.683464" lon="2.1016948">
        <ele>162</ele>
        <time>2022-02-24T08:52:41.000Z</time>
      </trkpt>
      <trkpt lat="47.68346" lon="2.101716">
        <ele>162</ele>
        <time>2022-02-24T08:52:42.000Z</time>
      </trkpt>
      <trkpt lat="47.683456" lon="2.101733">
        <ele>163</ele>
        <time>2022-02-24T08:52:43.000Z</time>
      </trkpt>
      <trkpt lat="47.683456" lon="2.1017547">
        <ele>163</ele>
        <time>2022-02-24T08:52:44.000Z</time>
      </trkpt>
      <trkpt lat="47.683453" lon="2.1017683">
        <ele>163</ele>
        <time>2022-02-24T08:52:45.000Z</time>
      </trkpt>
      <trkpt lat="47.68345" lon="2.101784">
        <ele>163</ele>
        <time>2022-02-24T08:52:46.000Z</time>
      </trkpt>
      <trkpt lat="47.68345" lon="2.1017957">
        <ele>163</ele>
        <time>2022-02-24T08:52:47.000Z</time>
      </trkpt>
      <trkpt lat="47.683453" lon="2.1018126">
        <ele>162</ele>
        <time>2022-02-24T08:52:48.000Z</time>
      </trkpt>
      <trkpt lat="47.683453" lon="2.10183">
        <ele>162</ele>
        <time>2022-02-24T08:52:49.000Z</time>
      </trkpt>
      <trkpt lat="47.68345" lon="2.1018484">
        <ele>162</ele>
        <time>2022-02-24T08:52:50.000Z</time>
      </trkpt>
      <trkpt lat="47.68345" lon="2.1018605">
        <ele>162</ele>
        <time>2022-02-24T08:52:51.000Z</time>
      </trkpt>
      <trkpt lat="47.683445" lon="2.1018765">
        <ele>162</ele>
        <time>2022-02-24T08:52:52.000Z</time>
      </trkpt>
      <trkpt lat="47.68344" lon="2.1018949">
        <ele>163</ele>
        <time>2022-02-24T08:52:53.000Z</time>
      </trkpt>
      <trkpt lat="47.683437" lon="2.10191">
        <ele>163</ele>
        <time>2022-02-24T08:52:54.000Z</time>
      </trkpt>
      <trkpt lat="47.68344" lon="2.1019292">
        <ele>163</ele>
        <time>2022-02-24T08:52:55.000Z</time>
      </trkpt>
      <trkpt lat="47.683434" lon="2.101944">
        <ele>164</ele>
        <time>2022-02-24T08:52:56.000Z</time>
      </trkpt>
      <trkpt lat="47.68343" lon="2.1019597">
        <ele>165</ele>
        <time>2022-02-24T08:52:57.000Z</time>
      </trkpt>
      <trkpt lat="47.683426" lon="2.101977">
        <ele>165</ele>
        <time>2022-02-24T08:52:58.000Z</time>
      </trkpt>
      <trkpt lat="47.683426" lon="2.1020024">
        <ele>165</ele>
        <time>2022-02-24T08:52:59.000Z</time>
      </trkpt>
      <trkpt lat="47.683426" lon="2.1020267">
        <ele>166</ele>
        <time>2022-02-24T08:53:00.000Z</time>
      </trkpt>
      <trkpt lat="47.683422" lon="2.102047">
        <ele>166</ele>
        <time>2022-02-24T08:53:01.000Z</time>
      </trkpt>
      <trkpt lat="47.68342" lon="2.1020644">
        <ele>166</ele>
        <time>2022-02-24T08:53:02.000Z</time>
      </trkpt>
      <trkpt lat="47.68341" lon="2.1020792">
        <ele>166</ele>
        <time>2022-02-24T08:53:03.000Z</time>
      </trkpt>
      <trkpt lat="47.683407" lon="2.1020925">
        <ele>166</ele>
        <time>2022-02-24T08:53:04.000Z</time>
      </trkpt>
      <trkpt lat="47.683403" lon="2.1021">
        <ele>166</ele>
        <time>2022-02-24T08:53:05.000Z</time>
      </trkpt>
      <trkpt lat="47.683403" lon="2.102112">
        <ele>166</ele>
        <time>2022-02-24T08:53:07.000Z</time>
      </trkpt>
      <trkpt lat="47.6834" lon="2.102122">
        <ele>166</ele>
        <time>2022-02-24T08:53:08.000Z</time>
      </trkpt>
      <trkpt lat="47.6834" lon="2.102122">
        <ele>166</ele>
        <time>2022-02-24T08:53:09.000Z</time>
      </trkpt>
      <trkpt lat="47.68339" lon="2.1021414">
        <ele>166</ele>
        <time>2022-02-24T08:53:10.000Z</time>
      </trkpt>
      <trkpt lat="47.683388" lon="2.1021564">
        <ele>166</ele>
        <time>2022-02-24T08:53:11.000Z</time>
      </trkpt>
      <trkpt lat="47.683384" lon="2.1021745">
        <ele>166</ele>
        <time>2022-02-24T08:53:12.000Z</time>
      </trkpt>
      <trkpt lat="47.68338" lon="2.1021936">
        <ele>166</ele>
        <time>2022-02-24T08:53:13.000Z</time>
      </trkpt>
      <trkpt lat="47.68338" lon="2.102211">
        <ele>167</ele>
        <time>2022-02-24T08:53:14.000Z</time>
      </trkpt>
      <trkpt lat="47.683376" lon="2.1022325">
        <ele>167</ele>
        <time>2022-02-24T08:53:15.000Z</time>
      </trkpt>
      <trkpt lat="47.683372" lon="2.1022503">
        <ele>167</ele>
        <time>2022-02-24T08:53:16.000Z</time>
      </trkpt>
      <trkpt lat="47.683365" lon="2.1022654">
        <ele>167</ele>
        <time>2022-02-24T08:53:17.000Z</time>
      </trkpt>
      <trkpt lat="47.683357" lon="2.102285">
        <ele>167</ele>
        <time>2022-02-24T08:53:18.000Z</time>
      </trkpt>
      <trkpt lat="47.683353" lon="2.102299">
        <ele>166</ele>
        <time>2022-02-24T08:53:19.000Z</time>
      </trkpt>
      <trkpt lat="47.683353" lon="2.1023145">
        <ele>166</ele>
        <time>2022-02-24T08:53:20.000Z</time>
      </trkpt>
      <trkpt lat="47.683346" lon="2.1023357">
        <ele>166</ele>
        <time>2022-02-24T08:53:21.000Z</time>
      </trkpt>
      <trkpt lat="47.683346" lon="2.102353">
        <ele>167</ele>
        <time>2022-02-24T08:53:22.000Z</time>
      </trkpt>
      <trkpt lat="47.683346" lon="2.10237">
        <ele>167</ele>
        <time>2022-02-24T08:53:23.000Z</time>
      </trkpt>
      <trkpt lat="47.683346" lon="2.1023858">
        <ele>168</ele>
        <time>2022-02-24T08:53:24.000Z</time>
      </trkpt>
      <trkpt lat="47.68335" lon="2.1024022">
        <ele>167</ele>
        <time>2022-02-24T08:53:25.000Z</time>
      </trkpt>
      <trkpt lat="47.68335" lon="2.102418">
        <ele>167</ele>
        <time>2022-02-24T08:53:26.000Z</time>
      </trkpt>
      <trkpt lat="47.68335" lon="2.102418">
        <ele>167</ele>
        <time>2022-02-24T08:53:27.000Z</time>
      </trkpt>
      <trkpt lat="47.68335" lon="2.102418">
        <ele>167</ele>
        <time>2022-02-24T08:53:28.000Z</time>
      </trkpt>
      <trkpt lat="47.68335" lon="2.102457">
        <ele>168</ele>
        <time>2022-02-24T08:53:29.000Z</time>
      </trkpt>
      <trkpt lat="47.68335" lon="2.1024725">
        <ele>168</ele>
        <time>2022-02-24T08:53:30.000Z</time>
      </trkpt>
      <trkpt lat="47.683346" lon="2.1024837">
        <ele>167</ele>
        <time>2022-02-24T08:53:31.000Z</time>
      </trkpt>
      <trkpt lat="47.683342" lon="2.1024988">
        <ele>168</ele>
        <time>2022-02-24T08:53:32.000Z</time>
      </trkpt>
      <trkpt lat="47.68334" lon="2.1025138">
        <ele>168</ele>
        <time>2022-02-24T08:53:33.000Z</time>
      </trkpt>
      <trkpt lat="47.683334" lon="2.1025271">
        <ele>168</ele>
        <time>2022-02-24T08:53:34.000Z</time>
      </trkpt>
      <trkpt lat="47.683334" lon="2.1025474">
        <ele>168</ele>
        <time>2022-02-24T08:53:35.000Z</time>
      </trkpt>
      <trkpt lat="47.68333" lon="2.102565">
        <ele>167</ele>
        <time>2022-02-24T08:53:36.000Z</time>
      </trkpt>
      <trkpt lat="47.683327" lon="2.1025805">
        <ele>167</ele>
        <time>2022-02-24T08:53:37.000Z</time>
      </trkpt>
      <trkpt lat="47.683327" lon="2.1025894">
        <ele>167</ele>
        <time>2022-02-24T08:53:38.000Z</time>
      </trkpt>
      <trkpt lat="47.68332" lon="2.1026032">
        <ele>168</ele>
        <time>2022-02-24T08:53:39.000Z</time>
      </trkpt>
      <trkpt lat="47.683315" lon="2.1026232">
        <ele>167</ele>
        <time>2022-02-24T08:53:40.000Z</time>
      </trkpt>
      <trkpt lat="47.68331" lon="2.1026428">
        <ele>167</ele>
        <time>2022-02-24T08:53:41.000Z</time>
      </trkpt>
      <trkpt lat="47.683304" lon="2.1026647">
        <ele>167</ele>
        <time>2022-02-24T08:53:42.000Z</time>
      </trkpt>
      <trkpt lat="47.6833" lon="2.1026855">
        <ele>167</ele>
        <time>2022-02-24T08:53:43.000Z</time>
      </trkpt>
      <trkpt lat="47.68329" lon="2.1027021">
        <ele>167</ele>
        <time>2022-02-24T08:53:44.000Z</time>
      </trkpt>
      <trkpt lat="47.683285" lon="2.1027188">
        <ele>167</ele>
        <time>2022-02-24T08:53:45.000Z</time>
      </trkpt>
      <trkpt lat="47.68328" lon="2.102737">
        <ele>167</ele>
        <time>2022-02-24T08:53:46.000Z</time>
      </trkpt>
      <trkpt lat="47.683273" lon="2.1027544">
        <ele>167</ele>
        <time>2022-02-24T08:53:47.000Z</time>
      </trkpt>
      <trkpt lat="47.683266" lon="2.1027703">
        <ele>168</ele>
        <time>2022-02-24T08:53:48.000Z</time>
      </trkpt>
      <trkpt lat="47.683258" lon="2.102789">
        <ele>169</ele>
        <time>2022-02-24T08:53:49.000Z</time>
      </trkpt>
      <trkpt lat="47.68325" lon="2.1028073">
        <ele>169</ele>
        <time>2022-02-24T08:53:50.000Z</time>
      </trkpt>
      <trkpt lat="47.683243" lon="2.1028218">
        <ele>169</ele>
        <time>2022-02-24T08:53:51.000Z</time>
      </trkpt>
      <trkpt lat="47.683247" lon="2.1028404">
        <ele>169</ele>
        <time>2022-02-24T08:53:52.000Z</time>
      </trkpt>
      <trkpt lat="47.683243" lon="2.1028585">
        <ele>169</ele>
        <time>2022-02-24T08:53:53.000Z</time>
      </trkpt>
      <trkpt lat="47.68324" lon="2.1028798">
        <ele>169</ele>
        <time>2022-02-24T08:53:54.000Z</time>
      </trkpt>
      <trkpt lat="47.683235" lon="2.102899">
        <ele>169</ele>
        <time>2022-02-24T08:53:55.000Z</time>
      </trkpt>
      <trkpt lat="47.683235" lon="2.1029162">
        <ele>170</ele>
        <time>2022-02-24T08:53:56.000Z</time>
      </trkpt>
      <trkpt lat="47.68323" lon="2.1029358">
        <ele>170</ele>
        <time>2022-02-24T08:53:57.000Z</time>
      </trkpt>
      <trkpt lat="47.683228" lon="2.1029544">
        <ele>170</ele>
        <time>2022-02-24T08:53:58.000Z</time>
      </trkpt>
      <trkpt lat="47.683224" lon="2.102976">
        <ele>170</ele>
        <time>2022-02-24T08:53:59.000Z</time>
      </trkpt>
      <trkpt lat="47.683224" lon="2.1029925">
        <ele>171</ele>
        <time>2022-02-24T08:54:00.000Z</time>
      </trkpt>
      <trkpt lat="47.68322" lon="2.1030111">
        <ele>171</ele>
        <time>2022-02-24T08:54:01.000Z</time>
      </trkpt>
      <trkpt lat="47.683216" lon="2.1030304">
        <ele>171</ele>
        <time>2022-02-24T08:54:02.000Z</time>
      </trkpt>
      <trkpt lat="47.683216" lon="2.103045">
        <ele>171</ele>
        <time>2022-02-24T08:54:03.000Z</time>
      </trkpt>
      <trkpt lat="47.683212" lon="2.1030648">
        <ele>171</ele>
        <time>2022-02-24T08:54:04.000Z</time>
      </trkpt>
      <trkpt lat="47.68321" lon="2.1030774">
        <ele>171</ele>
        <time>2022-02-24T08:54:05.000Z</time>
      </trkpt>
      <trkpt lat="47.6832" lon="2.1030898">
        <ele>171</ele>
        <time>2022-02-24T08:54:06.000Z</time>
      </trkpt>
      <trkpt lat="47.683197" lon="2.103104">
        <ele>171</ele>
        <time>2022-02-24T08:54:07.000Z</time>
      </trkpt>
      <trkpt lat="47.683197" lon="2.1031199">
        <ele>171</ele>
        <time>2022-02-24T08:54:08.000Z</time>
      </trkpt>
      <trkpt lat="47.683197" lon="2.103136">
        <ele>171</ele>
        <time>2022-02-24T08:54:09.000Z</time>
      </trkpt>
      <trkpt lat="47.68319" lon="2.103155">
        <ele>171</ele>
        <time>2022-02-24T08:54:10.000Z</time>
      </trkpt>
      <trkpt lat="47.68319" lon="2.1031709">
        <ele>171</ele>
        <time>2022-02-24T08:54:11.000Z</time>
      </trkpt>
      <trkpt lat="47.68319" lon="2.103192">
        <ele>171</ele>
        <time>2022-02-24T08:54:12.000Z</time>
      </trkpt>
      <trkpt lat="47.68319" lon="2.103209">
        <ele>171</ele>
        <time>2022-02-24T08:54:13.000Z</time>
      </trkpt>
      <trkpt lat="47.68319" lon="2.103223">
        <ele>170</ele>
        <time>2022-02-24T08:54:14.000Z</time>
      </trkpt>
      <trkpt lat="47.683186" lon="2.1032307">
        <ele>171</ele>
        <time>2022-02-24T08:54:15.000Z</time>
      </trkpt>
      <trkpt lat="47.68318" lon="2.103247">
        <ele>171</ele>
        <time>2022-02-24T08:54:16.000Z</time>
      </trkpt>
      <trkpt lat="47.68318" lon="2.1032643">
        <ele>171</ele>
        <time>2022-02-24T08:54:17.000Z</time>
      </trkpt>
      <trkpt lat="47.683178" lon="2.1032822">
        <ele>172</ele>
        <time>2022-02-24T08:54:18.000Z</time>
      </trkpt>
      <trkpt lat="47.683174" lon="2.1032953">
        <ele>172</ele>
        <time>2022-02-24T08:54:19.000Z</time>
      </trkpt>
      <trkpt lat="47.68317" lon="2.1033065">
        <ele>172</ele>
        <time>2022-02-24T08:54:20.000Z</time>
      </trkpt>
      <trkpt lat="47.68317" lon="2.103321">
        <ele>172</ele>
        <time>2022-02-24T08:54:21.000Z</time>
      </trkpt>
      <trkpt lat="47.683167" lon="2.1033397">
        <ele>172</ele>
        <time>2022-02-24T08:54:22.000Z</time>
      </trkpt>
      <trkpt lat="47.683163" lon="2.1033556">
        <ele>171</ele>
        <time>2022-02-24T08:54:23.000Z</time>
      </trkpt>
      <trkpt lat="47.68316" lon="2.1033683">
        <ele>172</ele>
        <time>2022-02-24T08:54:24.000Z</time>
      </trkpt>
      <trkpt lat="47.683155" lon="2.1033864">
        <ele>172</ele>
        <time>2022-02-24T08:54:25.000Z</time>
      </trkpt>
      <trkpt lat="47.683155" lon="2.1034067">
        <ele>172</ele>
        <time>2022-02-24T08:54:26.000Z</time>
      </trkpt>
      <trkpt lat="47.683155" lon="2.1034248">
        <ele>172</ele>
        <time>2022-02-24T08:54:27.000Z</time>
      </trkpt>
      <trkpt lat="47.68315" lon="2.1034398">
        <ele>172</ele>
        <time>2022-02-24T08:54:28.000Z</time>
      </trkpt>
      <trkpt lat="47.683147" lon="2.1034534">
        <ele>172</ele>
        <time>2022-02-24T08:54:29.000Z</time>
      </trkpt>
      <trkpt lat="47.683144" lon="2.1034696">
        <ele>171</ele>
        <time>2022-02-24T08:54:30.000Z</time>
      </trkpt>
      <trkpt lat="47.68314" lon="2.1034865">
        <ele>171</ele>
        <time>2022-02-24T08:54:31.000Z</time>
      </trkpt>
      <trkpt lat="47.683136" lon="2.1035037">
        <ele>171</ele>
        <time>2022-02-24T08:54:32.000Z</time>
      </trkpt>
      <trkpt lat="47.683132" lon="2.1035202">
        <ele>172</ele>
        <time>2022-02-24T08:54:33.000Z</time>
      </trkpt>
      <trkpt lat="47.68313" lon="2.1035335">
        <ele>171</ele>
        <time>2022-02-24T08:54:34.000Z</time>
      </trkpt>
      <trkpt lat="47.68312" lon="2.103545">
        <ele>171</ele>
        <time>2022-02-24T08:54:35.000Z</time>
      </trkpt>
      <trkpt lat="47.683113" lon="2.10356">
        <ele>171</ele>
        <time>2022-02-24T08:54:36.000Z</time>
      </trkpt>
      <trkpt lat="47.68311" lon="2.1035743">
        <ele>171</ele>
        <time>2022-02-24T08:54:37.000Z</time>
      </trkpt>
      <trkpt lat="47.68311" lon="2.1035845">
        <ele>170</ele>
        <time>2022-02-24T08:54:38.000Z</time>
      </trkpt>
      <trkpt lat="47.683105" lon="2.1035976">
        <ele>170</ele>
        <time>2022-02-24T08:54:39.000Z</time>
      </trkpt>
      <trkpt lat="47.6831" lon="2.10361">
        <ele>170</ele>
        <time>2022-02-24T08:54:40.000Z</time>
      </trkpt>
      <trkpt lat="47.683098" lon="2.103625">
        <ele>170</ele>
        <time>2022-02-24T08:54:41.000Z</time>
      </trkpt>
      <trkpt lat="47.683094" lon="2.103641">
        <ele>171</ele>
        <time>2022-02-24T08:54:42.000Z</time>
      </trkpt>
      <trkpt lat="47.68309" lon="2.1036549">
        <ele>171</ele>
        <time>2022-02-24T08:54:43.000Z</time>
      </trkpt>
      <trkpt lat="47.683086" lon="2.1036685">
        <ele>171</ele>
        <time>2022-02-24T08:54:44.000Z</time>
      </trkpt>
      <trkpt lat="47.683083" lon="2.1036837">
        <ele>171</ele>
        <time>2022-02-24T08:54:45.000Z</time>
      </trkpt>
      <trkpt lat="47.68308" lon="2.1036904">
        <ele>171</ele>
        <time>2022-02-24T08:54:46.000Z</time>
      </trkpt>
      <trkpt lat="47.68308" lon="2.1036975">
        <ele>172</ele>
        <time>2022-02-24T08:54:47.000Z</time>
      </trkpt>
      <trkpt lat="47.683075" lon="2.1037056">
        <ele>172</ele>
        <time>2022-02-24T08:54:48.000Z</time>
      </trkpt>
      <trkpt lat="47.683075" lon="2.1037166">
        <ele>172</ele>
        <time>2022-02-24T08:54:49.000Z</time>
      </trkpt>
      <trkpt lat="47.68307" lon="2.1037297">
        <ele>171</ele>
        <time>2022-02-24T08:54:50.000Z</time>
      </trkpt>
      <trkpt lat="47.683067" lon="2.1037483">
        <ele>170</ele>
        <time>2022-02-24T08:54:51.000Z</time>
      </trkpt>
      <trkpt lat="47.683064" lon="2.1037648">
        <ele>170</ele>
        <time>2022-02-24T08:54:52.000Z</time>
      </trkpt>
      <trkpt lat="47.68306" lon="2.1037846">
        <ele>170</ele>
        <time>2022-02-24T08:54:53.000Z</time>
      </trkpt>
      <trkpt lat="47.683052" lon="2.1038">
        <ele>170</ele>
        <time>2022-02-24T08:54:54.000Z</time>
      </trkpt>
      <trkpt lat="47.68305" lon="2.103817">
        <ele>170</ele>
        <time>2022-02-24T08:54:55.000Z</time>
      </trkpt>
      <trkpt lat="47.683044" lon="2.1038375">
        <ele>170</ele>
        <time>2022-02-24T08:54:56.000Z</time>
      </trkpt>
      <trkpt lat="47.68304" lon="2.103851">
        <ele>170</ele>
        <time>2022-02-24T08:54:57.000Z</time>
      </trkpt>
      <trkpt lat="47.683037" lon="2.1038616">
        <ele>170</ele>
        <time>2022-02-24T08:54:58.000Z</time>
      </trkpt>
      <trkpt lat="47.68303" lon="2.1038752">
        <ele>170</ele>
        <time>2022-02-24T08:54:59.000Z</time>
      </trkpt>
      <trkpt lat="47.68303" lon="2.1038923">
        <ele>170</ele>
        <time>2022-02-24T08:55:00.000Z</time>
      </trkpt>
      <trkpt lat="47.683025" lon="2.103912">
        <ele>169</ele>
        <time>2022-02-24T08:55:01.000Z</time>
      </trkpt>
      <trkpt lat="47.68302" lon="2.103932">
        <ele>169</ele>
        <time>2022-02-24T08:55:02.000Z</time>
      </trkpt>
      <trkpt lat="47.683018" lon="2.103951">
        <ele>169</ele>
        <time>2022-02-24T08:55:03.000Z</time>
      </trkpt>
      <trkpt lat="47.683018" lon="2.1039734">
        <ele>169</ele>
        <time>2022-02-24T08:55:04.000Z</time>
      </trkpt>
      <trkpt lat="47.683014" lon="2.1039891">
        <ele>169</ele>
        <time>2022-02-24T08:55:05.000Z</time>
      </trkpt>
      <trkpt lat="47.683014" lon="2.1040044">
        <ele>168</ele>
        <time>2022-02-24T08:55:06.000Z</time>
      </trkpt>
      <trkpt lat="47.683018" lon="2.1040199">
        <ele>168</ele>
        <time>2022-02-24T08:55:07.000Z</time>
      </trkpt>
      <trkpt lat="47.683014" lon="2.1040401">
        <ele>168</ele>
        <time>2022-02-24T08:55:08.000Z</time>
      </trkpt>
      <trkpt lat="47.68301" lon="2.1040623">
        <ele>168</ele>
        <time>2022-02-24T08:55:09.000Z</time>
      </trkpt>
      <trkpt lat="47.683006" lon="2.1040797">
        <ele>169</ele>
        <time>2022-02-24T08:55:10.000Z</time>
      </trkpt>
      <trkpt lat="47.683002" lon="2.1040974">
        <ele>169</ele>
        <time>2022-02-24T08:55:11.000Z</time>
      </trkpt>
      <trkpt lat="47.683" lon="2.1041136">
        <ele>170</ele>
        <time>2022-02-24T08:55:12.000Z</time>
      </trkpt>
      <trkpt lat="47.682995" lon="2.1041267">
        <ele>169</ele>
        <time>2022-02-24T08:55:13.000Z</time>
      </trkpt>
      <trkpt lat="47.68299" lon="2.1041367">
        <ele>169</ele>
        <time>2022-02-24T08:55:14.000Z</time>
      </trkpt>
      <trkpt lat="47.682983" lon="2.1041522">
        <ele>169</ele>
        <time>2022-02-24T08:55:15.000Z</time>
      </trkpt>
      <trkpt lat="47.682983" lon="2.1041698">
        <ele>169</ele>
        <time>2022-02-24T08:55:16.000Z</time>
      </trkpt>
      <trkpt lat="47.68298" lon="2.104188">
        <ele>169</ele>
        <time>2022-02-24T08:55:17.000Z</time>
      </trkpt>
      <trkpt lat="47.682976" lon="2.1042042">
        <ele>169</ele>
        <time>2022-02-24T08:55:18.000Z</time>
      </trkpt>
      <trkpt lat="47.682972" lon="2.1042194">
        <ele>169</ele>
        <time>2022-02-24T08:55:19.000Z</time>
      </trkpt>
      <trkpt lat="47.68297" lon="2.1042337">
        <ele>169</ele>
        <time>2022-02-24T08:55:20.000Z</time>
      </trkpt>
      <trkpt lat="47.68296" lon="2.1042454">
        <ele>169</ele>
        <time>2022-02-24T08:55:21.000Z</time>
      </trkpt>
      <trkpt lat="47.682953" lon="2.104265">
        <ele>169</ele>
        <time>2022-02-24T08:55:22.000Z</time>
      </trkpt>
      <trkpt lat="47.68295" lon="2.1042805">
        <ele>168</ele>
        <time>2022-02-24T08:55:23.000Z</time>
      </trkpt>
      <trkpt lat="47.682945" lon="2.1042976">
        <ele>169</ele>
        <time>2022-02-24T08:55:24.000Z</time>
      </trkpt>
      <trkpt lat="47.68294" lon="2.1043146">
        <ele>169</ele>
        <time>2022-02-24T08:55:25.000Z</time>
      </trkpt>
      <trkpt lat="47.682938" lon="2.1043286">
        <ele>170</ele>
        <time>2022-02-24T08:55:26.000Z</time>
      </trkpt>
      <trkpt lat="47.682934" lon="2.1043432">
        <ele>170</ele>
        <time>2022-02-24T08:55:27.000Z</time>
      </trkpt>
      <trkpt lat="47.68293" lon="2.1043575">
        <ele>169</ele>
        <time>2022-02-24T08:55:28.000Z</time>
      </trkpt>
      <trkpt lat="47.682926" lon="2.1043723">
        <ele>169</ele>
        <time>2022-02-24T08:55:29.000Z</time>
      </trkpt>
      <trkpt lat="47.682922" lon="2.1043842">
        <ele>169</ele>
        <time>2022-02-24T08:55:30.000Z</time>
      </trkpt>
      <trkpt lat="47.68292" lon="2.104398">
        <ele>168</ele>
        <time>2022-02-24T08:55:31.000Z</time>
      </trkpt>
      <trkpt lat="47.68292" lon="2.1044142">
        <ele>168</ele>
        <time>2022-02-24T08:55:32.000Z</time>
      </trkpt>
      <trkpt lat="47.68292" lon="2.1044304">
        <ele>168</ele>
        <time>2022-02-24T08:55:33.000Z</time>
      </trkpt>
      <trkpt lat="47.682915" lon="2.1044421">
        <ele>167</ele>
        <time>2022-02-24T08:55:34.000Z</time>
      </trkpt>
      <trkpt lat="47.682907" lon="2.1044612">
        <ele>167</ele>
        <time>2022-02-24T08:55:35.000Z</time>
      </trkpt>
      <trkpt lat="47.6829" lon="2.1044757">
        <ele>168</ele>
        <time>2022-02-24T08:55:36.000Z</time>
      </trkpt>
      <trkpt lat="47.682896" lon="2.1044877">
        <ele>168</ele>
        <time>2022-02-24T08:55:37.000Z</time>
      </trkpt>
      <trkpt lat="47.68289" lon="2.1045027">
        <ele>168</ele>
        <time>2022-02-24T08:55:38.000Z</time>
      </trkpt>
      <trkpt lat="47.682884" lon="2.1045165">
        <ele>168</ele>
        <time>2022-02-24T08:55:39.000Z</time>
      </trkpt>
      <trkpt lat="47.68288" lon="2.1045291">
        <ele>168</ele>
        <time>2022-02-24T08:55:40.000Z</time>
      </trkpt>
      <trkpt lat="47.682877" lon="2.1045427">
        <ele>168</ele>
        <time>2022-02-24T08:55:41.000Z</time>
      </trkpt>
      <trkpt lat="47.682873" lon="2.1045537">
        <ele>168</ele>
        <time>2022-02-24T08:55:42.000Z</time>
      </trkpt>
      <trkpt lat="47.68287" lon="2.1045702">
        <ele>168</ele>
        <time>2022-02-24T08:55:43.000Z</time>
      </trkpt>
      <trkpt lat="47.68287" lon="2.104577">
        <ele>168</ele>
        <time>2022-02-24T08:55:44.000Z</time>
      </trkpt>
      <trkpt lat="47.682873" lon="2.1045926">
        <ele>168</ele>
        <time>2022-02-24T08:55:45.000Z</time>
      </trkpt>
      <trkpt lat="47.682873" lon="2.1046083">
        <ele>167</ele>
        <time>2022-02-24T08:55:46.000Z</time>
      </trkpt>
      <trkpt lat="47.682873" lon="2.1046226">
        <ele>167</ele>
        <time>2022-02-24T08:55:47.000Z</time>
      </trkpt>
      <trkpt lat="47.682873" lon="2.1046374">
        <ele>167</ele>
        <time>2022-02-24T08:55:48.000Z</time>
      </trkpt>
      <trkpt lat="47.682873" lon="2.1046524">
        <ele>167</ele>
        <time>2022-02-24T08:55:49.000Z</time>
      </trkpt>
      <trkpt lat="47.68287" lon="2.1046665">
        <ele>166</ele>
        <time>2022-02-24T08:55:50.000Z</time>
      </trkpt>
      <trkpt lat="47.682865" lon="2.1046796">
        <ele>166</ele>
        <time>2022-02-24T08:55:51.000Z</time>
      </trkpt>
      <trkpt lat="47.682865" lon="2.1046946">
        <ele>166</ele>
        <time>2022-02-24T08:55:52.000Z</time>
      </trkpt>
      <trkpt lat="47.68286" lon="2.10471">
        <ele>166</ele>
        <time>2022-02-24T08:55:53.000Z</time>
      </trkpt>
      <trkpt lat="47.682854" lon="2.1047254">
        <ele>166</ele>
        <time>2022-02-24T08:55:54.000Z</time>
      </trkpt>
      <trkpt lat="47.68285" lon="2.1047428">
        <ele>166</ele>
        <time>2022-02-24T08:55:55.000Z</time>
      </trkpt>
      <trkpt lat="47.682846" lon="2.104763">
        <ele>166</ele>
        <time>2022-02-24T08:55:56.000Z</time>
      </trkpt>
      <trkpt lat="47.682842" lon="2.104782">
        <ele>166</ele>
        <time>2022-02-24T08:55:57.000Z</time>
      </trkpt>
      <trkpt lat="47.68284" lon="2.104802">
        <ele>166</ele>
        <time>2022-02-24T08:55:58.000Z</time>
      </trkpt>
      <trkpt lat="47.682835" lon="2.1048224">
        <ele>166</ele>
        <time>2022-02-24T08:55:59.000Z</time>
      </trkpt>
      <trkpt lat="47.682827" lon="2.1048377">
        <ele>167</ele>
        <time>2022-02-24T08:56:00.000Z</time>
      </trkpt>
      <trkpt lat="47.682827" lon="2.1048524">
        <ele>167</ele>
        <time>2022-02-24T08:56:01.000Z</time>
      </trkpt>
      <trkpt lat="47.682823" lon="2.104869">
        <ele>166</ele>
        <time>2022-02-24T08:56:02.000Z</time>
      </trkpt>
      <trkpt lat="47.68282" lon="2.1048837">
        <ele>165</ele>
        <time>2022-02-24T08:56:03.000Z</time>
      </trkpt>
      <trkpt lat="47.68281" lon="2.104898">
        <ele>166</ele>
        <time>2022-02-24T08:56:04.000Z</time>
      </trkpt>
      <trkpt lat="47.682808" lon="2.10491">
        <ele>166</ele>
        <time>2022-02-24T08:56:05.000Z</time>
      </trkpt>
      <trkpt lat="47.682804" lon="2.104923">
        <ele>165</ele>
        <time>2022-02-24T08:56:06.000Z</time>
      </trkpt>
      <trkpt lat="47.682804" lon="2.1049354">
        <ele>165</ele>
        <time>2022-02-24T08:56:07.000Z</time>
      </trkpt>
      <trkpt lat="47.682804" lon="2.1049461">
        <ele>164</ele>
        <time>2022-02-24T08:56:08.000Z</time>
      </trkpt>
      <trkpt lat="47.682804" lon="2.104964">
        <ele>164</ele>
        <time>2022-02-24T08:56:09.000Z</time>
      </trkpt>
      <trkpt lat="47.682796" lon="2.1049817">
        <ele>165</ele>
        <time>2022-02-24T08:56:10.000Z</time>
      </trkpt>
      <trkpt lat="47.682793" lon="2.1050017">
        <ele>165</ele>
        <time>2022-02-24T08:56:11.000Z</time>
      </trkpt>
      <trkpt lat="47.682785" lon="2.105023">
        <ele>165</ele>
        <time>2022-02-24T08:56:12.000Z</time>
      </trkpt>
      <trkpt lat="47.682777" lon="2.105042">
        <ele>165</ele>
        <time>2022-02-24T08:56:13.000Z</time>
      </trkpt>
      <trkpt lat="47.682774" lon="2.1050575">
        <ele>165</ele>
        <time>2022-02-24T08:56:14.000Z</time>
      </trkpt>
      <trkpt lat="47.682766" lon="2.1050735">
        <ele>166</ele>
        <time>2022-02-24T08:56:15.000Z</time>
      </trkpt>
      <trkpt lat="47.68276" lon="2.105093">
        <ele>166</ele>
        <time>2022-02-24T08:56:16.000Z</time>
      </trkpt>
      <trkpt lat="47.682755" lon="2.1051118">
        <ele>167</ele>
        <time>2022-02-24T08:56:17.000Z</time>
      </trkpt>
      <trkpt lat="47.68275" lon="2.1051314">
        <ele>167</ele>
        <time>2022-02-24T08:56:18.000Z</time>
      </trkpt>
      <trkpt lat="47.682743" lon="2.1051507">
        <ele>168</ele>
        <time>2022-02-24T08:56:19.000Z</time>
      </trkpt>
      <trkpt lat="47.68274" lon="2.105167">
        <ele>168</ele>
        <time>2022-02-24T08:56:20.000Z</time>
      </trkpt>
      <trkpt lat="47.68274" lon="2.1051862">
        <ele>168</ele>
        <time>2022-02-24T08:56:21.000Z</time>
      </trkpt>
      <trkpt lat="47.682735" lon="2.1051948">
        <ele>167</ele>
        <time>2022-02-24T08:56:22.000Z</time>
      </trkpt>
      <trkpt lat="47.68273" lon="2.1052125">
        <ele>167</ele>
        <time>2022-02-24T08:56:23.000Z</time>
      </trkpt>
      <trkpt lat="47.682724" lon="2.1052272">
        <ele>167</ele>
        <time>2022-02-24T08:56:24.000Z</time>
      </trkpt>
      <trkpt lat="47.68272" lon="2.105244">
        <ele>167</ele>
        <time>2022-02-24T08:56:25.000Z</time>
      </trkpt>
      <trkpt lat="47.682716" lon="2.1052577">
        <ele>167</ele>
        <time>2022-02-24T08:56:26.000Z</time>
      </trkpt>
      <trkpt lat="47.682716" lon="2.10528">
        <ele>166</ele>
        <time>2022-02-24T08:56:27.000Z</time>
      </trkpt>
      <trkpt lat="47.682713" lon="2.105293">
        <ele>166</ele>
        <time>2022-02-24T08:56:28.000Z</time>
      </trkpt>
      <trkpt lat="47.68271" lon="2.105311">
        <ele>167</ele>
        <time>2022-02-24T08:56:29.000Z</time>
      </trkpt>
      <trkpt lat="47.682705" lon="2.1053288">
        <ele>167</ele>
        <time>2022-02-24T08:56:30.000Z</time>
      </trkpt>
      <trkpt lat="47.6827" lon="2.105345">
        <ele>167</ele>
        <time>2022-02-24T08:56:31.000Z</time>
      </trkpt>
      <trkpt lat="47.682693" lon="2.1053615">
        <ele>167</ele>
        <time>2022-02-24T08:56:32.000Z</time>
      </trkpt>
      <trkpt lat="47.68269" lon="2.1053748">
        <ele>166</ele>
        <time>2022-02-24T08:56:33.000Z</time>
      </trkpt>
      <trkpt lat="47.682686" lon="2.1053882">
        <ele>166</ele>
        <time>2022-02-24T08:56:34.000Z</time>
      </trkpt>
      <trkpt lat="47.682682" lon="2.1054022">
        <ele>166</ele>
        <time>2022-02-24T08:56:35.000Z</time>
      </trkpt>
      <trkpt lat="47.682682" lon="2.1054156">
        <ele>165</ele>
        <time>2022-02-24T08:56:36.000Z</time>
      </trkpt>
      <trkpt lat="47.682682" lon="2.1054325">
        <ele>166</ele>
        <time>2022-02-24T08:56:37.000Z</time>
      </trkpt>
      <trkpt lat="47.682682" lon="2.1054413">
        <ele>166</ele>
        <time>2022-02-24T08:56:38.000Z</time>
      </trkpt>
      <trkpt lat="47.68268" lon="2.1054513">
        <ele>166</ele>
        <time>2022-02-24T08:56:39.000Z</time>
      </trkpt>
      <trkpt lat="47.682674" lon="2.1054592">
        <ele>166</ele>
        <time>2022-02-24T08:56:40.000Z</time>
      </trkpt>
      <trkpt lat="47.682667" lon="2.1054707">
        <ele>166</ele>
        <time>2022-02-24T08:56:41.000Z</time>
      </trkpt>
      <trkpt lat="47.682663" lon="2.105486">
        <ele>166</ele>
        <time>2022-02-24T08:56:42.000Z</time>
      </trkpt>
      <trkpt lat="47.68266" lon="2.1054986">
        <ele>166</ele>
        <time>2022-02-24T08:56:43.000Z</time>
      </trkpt>
      <trkpt lat="47.68266" lon="2.1055143">
        <ele>166</ele>
        <time>2022-02-24T08:56:44.000Z</time>
      </trkpt>
      <trkpt lat="47.682655" lon="2.105529">
        <ele>165</ele>
        <time>2022-02-24T08:56:45.000Z</time>
      </trkpt>
      <trkpt lat="47.682648" lon="2.105545">
        <ele>165</ele>
        <time>2022-02-24T08:56:46.000Z</time>
      </trkpt>
      <trkpt lat="47.682644" lon="2.1055634">
        <ele>165</ele>
        <time>2022-02-24T08:56:47.000Z</time>
      </trkpt>
      <trkpt lat="47.68264" lon="2.1055737">
        <ele>165</ele>
        <time>2022-02-24T08:56:48.000Z</time>
      </trkpt>
      <trkpt lat="47.682636" lon="2.1055918">
        <ele>165</ele>
        <time>2022-02-24T08:56:49.000Z</time>
      </trkpt>
      <trkpt lat="47.682632" lon="2.1056066">
        <ele>165</ele>
        <time>2022-02-24T08:56:50.000Z</time>
      </trkpt>
      <trkpt lat="47.68263" lon="2.1056242">
        <ele>165</ele>
        <time>2022-02-24T08:56:51.000Z</time>
      </trkpt>
      <trkpt lat="47.68263" lon="2.105642">
        <ele>165</ele>
        <time>2022-02-24T08:56:52.000Z</time>
      </trkpt>
      <trkpt lat="47.682625" lon="2.1056597">
        <ele>165</ele>
        <time>2022-02-24T08:56:53.000Z</time>
      </trkpt>
      <trkpt lat="47.68262" lon="2.1056736">
        <ele>165</ele>
        <time>2022-02-24T08:56:54.000Z</time>
      </trkpt>
      <trkpt lat="47.68262" lon="2.1056833">
        <ele>165</ele>
        <time>2022-02-24T08:56:55.000Z</time>
      </trkpt>
      <trkpt lat="47.68262" lon="2.1056962">
        <ele>166</ele>
        <time>2022-02-24T08:56:56.000Z</time>
      </trkpt>
      <trkpt lat="47.682617" lon="2.1057131">
        <ele>166</ele>
        <time>2022-02-24T08:56:57.000Z</time>
      </trkpt>
      <trkpt lat="47.682613" lon="2.1057339">
        <ele>167</ele>
        <time>2022-02-24T08:56:58.000Z</time>
      </trkpt>
      <trkpt lat="47.682606" lon="2.1057506">
        <ele>166</ele>
        <time>2022-02-24T08:56:59.000Z</time>
      </trkpt>
      <trkpt lat="47.682606" lon="2.1057694">
        <ele>167</ele>
        <time>2022-02-24T08:57:00.000Z</time>
      </trkpt>
      <trkpt lat="47.682602" lon="2.1057863">
        <ele>167</ele>
        <time>2022-02-24T08:57:01.000Z</time>
      </trkpt>
      <trkpt lat="47.6826" lon="2.1058037">
        <ele>167</ele>
        <time>2022-02-24T08:57:02.000Z</time>
      </trkpt>
      <trkpt lat="47.6826" lon="2.10582">
        <ele>167</ele>
        <time>2022-02-24T08:57:03.000Z</time>
      </trkpt>
      <trkpt lat="47.6826" lon="2.1058352">
        <ele>167</ele>
        <time>2022-02-24T08:57:04.000Z</time>
      </trkpt>
      <trkpt lat="47.6826" lon="2.1058466">
        <ele>167</ele>
        <time>2022-02-24T08:57:05.000Z</time>
      </trkpt>
      <trkpt lat="47.6826" lon="2.105866">
        <ele>167</ele>
        <time>2022-02-24T08:57:06.000Z</time>
      </trkpt>
      <trkpt lat="47.6826" lon="2.1058831">
        <ele>167</ele>
        <time>2022-02-24T08:57:07.000Z</time>
      </trkpt>
      <trkpt lat="47.6826" lon="2.1059046">
        <ele>167</ele>
        <time>2022-02-24T08:57:08.000Z</time>
      </trkpt>
      <trkpt lat="47.682594" lon="2.1059191">
        <ele>167</ele>
        <time>2022-02-24T08:57:09.000Z</time>
      </trkpt>
      <trkpt lat="47.68259" lon="2.1059315">
        <ele>167</ele>
        <time>2022-02-24T08:57:10.000Z</time>
      </trkpt>
      <trkpt lat="47.682587" lon="2.105945">
        <ele>167</ele>
        <time>2022-02-24T08:57:11.000Z</time>
      </trkpt>
      <trkpt lat="47.682587" lon="2.10596">
        <ele>167</ele>
        <time>2022-02-24T08:57:12.000Z</time>
      </trkpt>
      <trkpt lat="47.682583" lon="2.1059785">
        <ele>168</ele>
        <time>2022-02-24T08:57:13.000Z</time>
      </trkpt>
      <trkpt lat="47.68258" lon="2.1059942">
        <ele>167</ele>
        <time>2022-02-24T08:57:14.000Z</time>
      </trkpt>
      <trkpt lat="47.682575" lon="2.106005">
        <ele>168</ele>
        <time>2022-02-24T08:57:15.000Z</time>
      </trkpt>
      <trkpt lat="47.682575" lon="2.106021">
        <ele>167</ele>
        <time>2022-02-24T08:57:16.000Z</time>
      </trkpt>
      <trkpt lat="47.682575" lon="2.1060333">
        <ele>167</ele>
        <time>2022-02-24T08:57:17.000Z</time>
      </trkpt>
      <trkpt lat="47.682575" lon="2.1060474">
        <ele>167</ele>
        <time>2022-02-24T08:57:18.000Z</time>
      </trkpt>
      <trkpt lat="47.68257" lon="2.1060596">
        <ele>167</ele>
        <time>2022-02-24T08:57:19.000Z</time>
      </trkpt>
      <trkpt lat="47.682568" lon="2.1060681">
        <ele>167</ele>
        <time>2022-02-24T08:57:20.000Z</time>
      </trkpt>
      <trkpt lat="47.68256" lon="2.1060796">
        <ele>167</ele>
        <time>2022-02-24T08:57:21.000Z</time>
      </trkpt>
      <trkpt lat="47.682556" lon="2.1060965">
        <ele>167</ele>
        <time>2022-02-24T08:57:22.000Z</time>
      </trkpt>
      <trkpt lat="47.682552" lon="2.1061118">
        <ele>166</ele>
        <time>2022-02-24T08:57:23.000Z</time>
      </trkpt>
      <trkpt lat="47.68255" lon="2.106126">
        <ele>167</ele>
        <time>2022-02-24T08:57:24.000Z</time>
      </trkpt>
      <trkpt lat="47.68255" lon="2.10614">
        <ele>167</ele>
        <time>2022-02-24T08:57:25.000Z</time>
      </trkpt>
      <trkpt lat="47.682545" lon="2.1061523">
        <ele>167</ele>
        <time>2022-02-24T08:57:26.000Z</time>
      </trkpt>
      <trkpt lat="47.68254" lon="2.1061652">
        <ele>167</ele>
        <time>2022-02-24T08:57:27.000Z</time>
      </trkpt>
      <trkpt lat="47.682537" lon="2.1061804">
        <ele>166</ele>
        <time>2022-02-24T08:57:28.000Z</time>
      </trkpt>
      <trkpt lat="47.682533" lon="2.1061983">
        <ele>166</ele>
        <time>2022-02-24T08:57:29.000Z</time>
      </trkpt>
      <trkpt lat="47.68253" lon="2.1062145">
        <ele>167</ele>
        <time>2022-02-24T08:57:30.000Z</time>
      </trkpt>
      <trkpt lat="47.682526" lon="2.1062288">
        <ele>166</ele>
        <time>2022-02-24T08:57:31.000Z</time>
      </trkpt>
      <trkpt lat="47.682518" lon="2.1062448">
        <ele>166</ele>
        <time>2022-02-24T08:57:32.000Z</time>
      </trkpt>
      <trkpt lat="47.682518" lon="2.1062636">
        <ele>166</ele>
        <time>2022-02-24T08:57:33.000Z</time>
      </trkpt>
      <trkpt lat="47.682514" lon="2.1062825">
        <ele>166</ele>
        <time>2022-02-24T08:57:34.000Z</time>
      </trkpt>
      <trkpt lat="47.68251" lon="2.106297">
        <ele>166</ele>
        <time>2022-02-24T08:57:35.000Z</time>
      </trkpt>
      <trkpt lat="47.682503" lon="2.1063108">
        <ele>166</ele>
        <time>2022-02-24T08:57:36.000Z</time>
      </trkpt>
      <trkpt lat="47.682495" lon="2.1063259">
        <ele>167</ele>
        <time>2022-02-24T08:57:37.000Z</time>
      </trkpt>
      <trkpt lat="47.682495" lon="2.1063426">
        <ele>166</ele>
        <time>2022-02-24T08:57:38.000Z</time>
      </trkpt>
      <trkpt lat="47.68249" lon="2.1063592">
        <ele>166</ele>
        <time>2022-02-24T08:57:39.000Z</time>
      </trkpt>
      <trkpt lat="47.682484" lon="2.1063771">
        <ele>166</ele>
        <time>2022-02-24T08:57:40.000Z</time>
      </trkpt>
      <trkpt lat="47.68248" lon="2.1063933">
        <ele>166</ele>
        <time>2022-02-24T08:57:41.000Z</time>
      </trkpt>
      <trkpt lat="47.682476" lon="2.1064124">
        <ele>166</ele>
        <time>2022-02-24T08:57:42.000Z</time>
      </trkpt>
      <trkpt lat="47.682472" lon="2.1064327">
        <ele>165</ele>
        <time>2022-02-24T08:57:43.000Z</time>
      </trkpt>
      <trkpt lat="47.68247" lon="2.106448">
        <ele>166</ele>
        <time>2022-02-24T08:57:44.000Z</time>
      </trkpt>
      <trkpt lat="47.682465" lon="2.1064663">
        <ele>167</ele>
        <time>2022-02-24T08:57:45.000Z</time>
      </trkpt>
      <trkpt lat="47.68246" lon="2.1064844">
        <ele>167</ele>
        <time>2022-02-24T08:57:46.000Z</time>
      </trkpt>
      <trkpt lat="47.68246" lon="2.1065054">
        <ele>167</ele>
        <time>2022-02-24T08:57:47.000Z</time>
      </trkpt>
      <trkpt lat="47.682453" lon="2.1065245">
        <ele>167</ele>
        <time>2022-02-24T08:57:48.000Z</time>
      </trkpt>
      <trkpt lat="47.682446" lon="2.106544">
        <ele>167</ele>
        <time>2022-02-24T08:57:49.000Z</time>
      </trkpt>
      <trkpt lat="47.68244" lon="2.1065643">
        <ele>167</ele>
        <time>2022-02-24T08:57:50.000Z</time>
      </trkpt>
      <trkpt lat="47.682434" lon="2.106583">
        <ele>167</ele>
        <time>2022-02-24T08:57:51.000Z</time>
      </trkpt>
      <trkpt lat="47.682434" lon="2.1066005">
        <ele>167</ele>
        <time>2022-02-24T08:57:52.000Z</time>
      </trkpt>
      <trkpt lat="47.682426" lon="2.106617">
        <ele>167</ele>
        <time>2022-02-24T08:57:53.000Z</time>
      </trkpt>
      <trkpt lat="47.682423" lon="2.106636">
        <ele>168</ele>
        <time>2022-02-24T08:57:54.000Z</time>
      </trkpt>
      <trkpt lat="47.682426" lon="2.1066535">
        <ele>167</ele>
        <time>2022-02-24T08:57:55.000Z</time>
      </trkpt>
      <trkpt lat="47.682423" lon="2.1066704">
        <ele>167</ele>
        <time>2022-02-24T08:57:56.000Z</time>
      </trkpt>
      <trkpt lat="47.68242" lon="2.1066937">
        <ele>166</ele>
        <time>2022-02-24T08:57:57.000Z</time>
      </trkpt>
      <trkpt lat="47.682415" lon="2.1067152">
        <ele>167</ele>
        <time>2022-02-24T08:57:58.000Z</time>
      </trkpt>
      <trkpt lat="47.682415" lon="2.1067336">
        <ele>166</ele>
        <time>2022-02-24T08:57:59.000Z</time>
      </trkpt>
      <trkpt lat="47.68241" lon="2.1067502">
        <ele>167</ele>
        <time>2022-02-24T08:58:00.000Z</time>
      </trkpt>
      <trkpt lat="47.682407" lon="2.1067612">
        <ele>166</ele>
        <time>2022-02-24T08:58:01.000Z</time>
      </trkpt>
      <trkpt lat="47.682404" lon="2.1067708">
        <ele>166</ele>
        <time>2022-02-24T08:58:02.000Z</time>
      </trkpt>
      <trkpt lat="47.682396" lon="2.1067832">
        <ele>166</ele>
        <time>2022-02-24T08:58:03.000Z</time>
      </trkpt>
      <trkpt lat="47.682392" lon="2.1067963">
        <ele>166</ele>
        <time>2022-02-24T08:58:04.000Z</time>
      </trkpt>
      <trkpt lat="47.68239" lon="2.1068118">
        <ele>167</ele>
        <time>2022-02-24T08:58:05.000Z</time>
      </trkpt>
      <trkpt lat="47.68239" lon="2.106829">
        <ele>166</ele>
        <time>2022-02-24T08:58:06.000Z</time>
      </trkpt>
      <trkpt lat="47.682384" lon="2.1068408">
        <ele>166</ele>
        <time>2022-02-24T08:58:07.000Z</time>
      </trkpt>
      <trkpt lat="47.682377" lon="2.1068573">
        <ele>166</ele>
        <time>2022-02-24T08:58:08.000Z</time>
      </trkpt>
      <trkpt lat="47.682373" lon="2.1068754">
        <ele>167</ele>
        <time>2022-02-24T08:58:09.000Z</time>
      </trkpt>
      <trkpt lat="47.68237" lon="2.1068914">
        <ele>167</ele>
        <time>2022-02-24T08:58:10.000Z</time>
      </trkpt>
      <trkpt lat="47.682377" lon="2.1069176">
        <ele>167</ele>
        <time>2022-02-24T08:58:11.000Z</time>
      </trkpt>
      <trkpt lat="47.682373" lon="2.1069424">
        <ele>166</ele>
        <time>2022-02-24T08:58:12.000Z</time>
      </trkpt>
      <trkpt lat="47.682373" lon="2.1069643">
        <ele>166</ele>
        <time>2022-02-24T08:58:13.000Z</time>
      </trkpt>
      <trkpt lat="47.68237" lon="2.106986">
        <ele>167</ele>
        <time>2022-02-24T08:58:14.000Z</time>
      </trkpt>
      <trkpt lat="47.682365" lon="2.1070042">
        <ele>167</ele>
        <time>2022-02-24T08:58:15.000Z</time>
      </trkpt>
      <trkpt lat="47.68236" lon="2.1070235">
        <ele>167</ele>
        <time>2022-02-24T08:58:16.000Z</time>
      </trkpt>
      <trkpt lat="47.682354" lon="2.1070366">
        <ele>167</ele>
        <time>2022-02-24T08:58:17.000Z</time>
      </trkpt>
      <trkpt lat="47.682346" lon="2.1070535">
        <ele>168</ele>
        <time>2022-02-24T08:58:18.000Z</time>
      </trkpt>
      <trkpt lat="47.682343" lon="2.1070702">
        <ele>167</ele>
        <time>2022-02-24T08:58:19.000Z</time>
      </trkpt>
      <trkpt lat="47.682335" lon="2.1070864">
        <ele>167</ele>
        <time>2022-02-24T08:58:20.000Z</time>
      </trkpt>
      <trkpt lat="47.682327" lon="2.107103">
        <ele>167</ele>
        <time>2022-02-24T08:58:21.000Z</time>
      </trkpt>
      <trkpt lat="47.68232" lon="2.107123">
        <ele>168</ele>
        <time>2022-02-24T08:58:22.000Z</time>
      </trkpt>
      <trkpt lat="47.682316" lon="2.1071403">
        <ele>168</ele>
        <time>2022-02-24T08:58:23.000Z</time>
      </trkpt>
      <trkpt lat="47.68231" lon="2.1071513">
        <ele>168</ele>
        <time>2022-02-24T08:58:24.000Z</time>
      </trkpt>
      <trkpt lat="47.68231" lon="2.107166">
        <ele>168</ele>
        <time>2022-02-24T08:58:25.000Z</time>
      </trkpt>
      <trkpt lat="47.68231" lon="2.1071806">
        <ele>168</ele>
        <time>2022-02-24T08:58:26.000Z</time>
      </trkpt>
      <trkpt lat="47.68231" lon="2.1071932">
        <ele>168</ele>
        <time>2022-02-24T08:58:27.000Z</time>
      </trkpt>
      <trkpt lat="47.68231" lon="2.107213">
        <ele>167</ele>
        <time>2022-02-24T08:58:28.000Z</time>
      </trkpt>
      <trkpt lat="47.68231" lon="2.107228">
        <ele>167</ele>
        <time>2022-02-24T08:58:29.000Z</time>
      </trkpt>
      <trkpt lat="47.68231" lon="2.1072447">
        <ele>167</ele>
        <time>2022-02-24T08:58:30.000Z</time>
      </trkpt>
      <trkpt lat="47.68231" lon="2.1072588">
        <ele>167</ele>
        <time>2022-02-24T08:58:31.000Z</time>
      </trkpt>
      <trkpt lat="47.682312" lon="2.107275">
        <ele>167</ele>
        <time>2022-02-24T08:58:32.000Z</time>
      </trkpt>
      <trkpt lat="47.682312" lon="2.1072893">
        <ele>166</ele>
        <time>2022-02-24T08:58:33.000Z</time>
      </trkpt>
      <trkpt lat="47.682312" lon="2.1072893">
        <ele>166</ele>
        <time>2022-02-24T08:58:34.000Z</time>
      </trkpt>
      <trkpt lat="47.682312" lon="2.1072893">
        <ele>166</ele>
        <time>2022-02-24T08:58:35.000Z</time>
      </trkpt>
      <trkpt lat="47.682312" lon="2.1073244">
        <ele>166</ele>
        <time>2022-02-24T08:58:36.000Z</time>
      </trkpt>
      <trkpt lat="47.682312" lon="2.1073415">
        <ele>166</ele>
        <time>2022-02-24T08:58:37.000Z</time>
      </trkpt>
      <trkpt lat="47.682316" lon="2.107356">
        <ele>166</ele>
        <time>2022-02-24T08:58:38.000Z</time>
      </trkpt>
      <trkpt lat="47.68232" lon="2.1073678">
        <ele>166</ele>
        <time>2022-02-24T08:58:39.000Z</time>
      </trkpt>
      <trkpt lat="47.68232" lon="2.1073859">
        <ele>166</ele>
        <time>2022-02-24T08:58:40.000Z</time>
      </trkpt>
      <trkpt lat="47.682323" lon="2.107401">
        <ele>165</ele>
        <time>2022-02-24T08:58:41.000Z</time>
      </trkpt>
      <trkpt lat="47.682323" lon="2.107419">
        <ele>165</ele>
        <time>2022-02-24T08:58:42.000Z</time>
      </trkpt>
      <trkpt lat="47.682327" lon="2.107435">
        <ele>165</ele>
        <time>2022-02-24T08:58:43.000Z</time>
      </trkpt>
      <trkpt lat="47.682327" lon="2.107449">
        <ele>164</ele>
        <time>2022-02-24T08:58:44.000Z</time>
      </trkpt>
      <trkpt lat="47.682327" lon="2.107449">
        <ele>164</ele>
        <time>2022-02-24T08:58:45.000Z</time>
      </trkpt>
      <trkpt lat="47.682327" lon="2.107481">
        <ele>164</ele>
        <time>2022-02-24T08:58:46.000Z</time>
      </trkpt>
      <trkpt lat="47.682327" lon="2.1074975">
        <ele>164</ele>
        <time>2022-02-24T08:58:47.000Z</time>
      </trkpt>
      <trkpt lat="47.682327" lon="2.107516">
        <ele>164</ele>
        <time>2022-02-24T08:58:48.000Z</time>
      </trkpt>
      <trkpt lat="47.68233" lon="2.1075344">
        <ele>163</ele>
        <time>2022-02-24T08:58:49.000Z</time>
      </trkpt>
      <trkpt lat="47.68233" lon="2.10755">
        <ele>163</ele>
        <time>2022-02-24T08:58:50.000Z</time>
      </trkpt>
      <trkpt lat="47.68233" lon="2.1075678">
        <ele>163</ele>
        <time>2022-02-24T08:58:51.000Z</time>
      </trkpt>
      <trkpt lat="47.682335" lon="2.1075864">
        <ele>163</ele>
        <time>2022-02-24T08:58:52.000Z</time>
      </trkpt>
      <trkpt lat="47.68234" lon="2.1076038">
        <ele>162</ele>
        <time>2022-02-24T08:58:53.000Z</time>
      </trkpt>
      <trkpt lat="47.682346" lon="2.1076186">
        <ele>163</ele>
        <time>2022-02-24T08:58:54.000Z</time>
      </trkpt>
      <trkpt lat="47.682354" lon="2.1076343">
        <ele>162</ele>
        <time>2022-02-24T08:58:55.000Z</time>
      </trkpt>
      <trkpt lat="47.68235" lon="2.1076496">
        <ele>163</ele>
        <time>2022-02-24T08:58:56.000Z</time>
      </trkpt>
      <trkpt lat="47.68235" lon="2.1076634">
        <ele>163</ele>
        <time>2022-02-24T08:58:57.000Z</time>
      </trkpt>
      <trkpt lat="47.68235" lon="2.107679">
        <ele>163</ele>
        <time>2022-02-24T08:58:58.000Z</time>
      </trkpt>
      <trkpt lat="47.682346" lon="2.1076963">
        <ele>163</ele>
        <time>2022-02-24T08:58:59.000Z</time>
      </trkpt>
      <trkpt lat="47.682346" lon="2.107712">
        <ele>163</ele>
        <time>2022-02-24T08:59:00.000Z</time>
      </trkpt>
      <trkpt lat="47.68235" lon="2.1077309">
        <ele>162</ele>
        <time>2022-02-24T08:59:01.000Z</time>
      </trkpt>
      <trkpt lat="47.682354" lon="2.1077476">
        <ele>163</ele>
        <time>2022-02-24T08:59:02.000Z</time>
      </trkpt>
      <trkpt lat="47.682354" lon="2.107766">
        <ele>162</ele>
        <time>2022-02-24T08:59:03.000Z</time>
      </trkpt>
      <trkpt lat="47.682358" lon="2.1077833">
        <ele>162</ele>
        <time>2022-02-24T08:59:04.000Z</time>
      </trkpt>
      <trkpt lat="47.68236" lon="2.1078014">
        <ele>162</ele>
        <time>2022-02-24T08:59:05.000Z</time>
      </trkpt>
      <trkpt lat="47.68236" lon="2.1078014">
        <ele>162</ele>
        <time>2022-02-24T08:59:06.000Z</time>
      </trkpt>
      <trkpt lat="47.682365" lon="2.107828">
        <ele>162</ele>
        <time>2022-02-24T08:59:07.000Z</time>
      </trkpt>
      <trkpt lat="47.682365" lon="2.1078496">
        <ele>163</ele>
        <time>2022-02-24T08:59:08.000Z</time>
      </trkpt>
      <trkpt lat="47.682365" lon="2.1078675">
        <ele>163</ele>
        <time>2022-02-24T08:59:09.000Z</time>
      </trkpt>
      <trkpt lat="47.68237" lon="2.1078804">
        <ele>164</ele>
        <time>2022-02-24T08:59:10.000Z</time>
      </trkpt>
      <trkpt lat="47.682373" lon="2.107893">
        <ele>164</ele>
        <time>2022-02-24T08:59:11.000Z</time>
      </trkpt>
      <trkpt lat="47.682373" lon="2.1079054">
        <ele>164</ele>
        <time>2022-02-24T08:59:12.000Z</time>
      </trkpt>
      <trkpt lat="47.682377" lon="2.1079211">
        <ele>164</ele>
        <time>2022-02-24T08:59:13.000Z</time>
      </trkpt>
      <trkpt lat="47.682384" lon="2.1079369">
        <ele>164</ele>
        <time>2022-02-24T08:59:14.000Z</time>
      </trkpt>
      <trkpt lat="47.682384" lon="2.1079452">
        <ele>164</ele>
        <time>2022-02-24T08:59:15.000Z</time>
      </trkpt>
      <trkpt lat="47.682392" lon="2.1079676">
        <ele>164</ele>
        <time>2022-02-24T08:59:16.000Z</time>
      </trkpt>
      <trkpt lat="47.682392" lon="2.107982">
        <ele>164</ele>
        <time>2022-02-24T08:59:17.000Z</time>
      </trkpt>
      <trkpt lat="47.682396" lon="2.107995">
        <ele>164</ele>
        <time>2022-02-24T08:59:18.000Z</time>
      </trkpt>
      <trkpt lat="47.6824" lon="2.1080167">
        <ele>164</ele>
        <time>2022-02-24T08:59:19.000Z</time>
      </trkpt>
      <trkpt lat="47.682404" lon="2.1080294">
        <ele>163</ele>
        <time>2022-02-24T08:59:20.000Z</time>
      </trkpt>
      <trkpt lat="47.682407" lon="2.1080487">
        <ele>163</ele>
        <time>2022-02-24T08:59:21.000Z</time>
      </trkpt>
      <trkpt lat="47.682407" lon="2.1080713">
        <ele>163</ele>
        <time>2022-02-24T08:59:22.000Z</time>
      </trkpt>
      <trkpt lat="47.6824" lon="2.1080925">
        <ele>164</ele>
        <time>2022-02-24T08:59:23.000Z</time>
      </trkpt>
      <trkpt lat="47.682396" lon="2.1081083">
        <ele>163</ele>
        <time>2022-02-24T08:59:24.000Z</time>
      </trkpt>
      <trkpt lat="47.682392" lon="2.108126">
        <ele>163</ele>
        <time>2022-02-24T08:59:25.000Z</time>
      </trkpt>
      <trkpt lat="47.6824" lon="2.1081452">
        <ele>163</ele>
        <time>2022-02-24T08:59:26.000Z</time>
      </trkpt>
      <trkpt lat="47.682404" lon="2.1081648">
        <ele>162</ele>
        <time>2022-02-24T08:59:27.000Z</time>
      </trkpt>
      <trkpt lat="47.682404" lon="2.10819">
        <ele>162</ele>
        <time>2022-02-24T08:59:28.000Z</time>
      </trkpt>
      <trkpt lat="47.6824" lon="2.10821">
        <ele>162</ele>
        <time>2022-02-24T08:59:29.000Z</time>
      </trkpt>
      <trkpt lat="47.6824" lon="2.108228">
        <ele>161</ele>
        <time>2022-02-24T08:59:30.000Z</time>
      </trkpt>
      <trkpt lat="47.682404" lon="2.1082454">
        <ele>161</ele>
        <time>2022-02-24T08:59:31.000Z</time>
      </trkpt>
      <trkpt lat="47.682407" lon="2.1082683">
        <ele>161</ele>
        <time>2022-02-24T08:59:32.000Z</time>
      </trkpt>
      <trkpt lat="47.68241" lon="2.1082876">
        <ele>161</ele>
        <time>2022-02-24T08:59:33.000Z</time>
      </trkpt>
      <trkpt lat="47.682415" lon="2.1083043">
        <ele>160</ele>
        <time>2022-02-24T08:59:34.000Z</time>
      </trkpt>
      <trkpt lat="47.682423" lon="2.1083207">
        <ele>160</ele>
        <time>2022-02-24T08:59:35.000Z</time>
      </trkpt>
      <trkpt lat="47.682426" lon="2.1083388">
        <ele>160</ele>
        <time>2022-02-24T08:59:36.000Z</time>
      </trkpt>
      <trkpt lat="47.68243" lon="2.1083574">
        <ele>160</ele>
        <time>2022-02-24T08:59:37.000Z</time>
      </trkpt>
      <trkpt lat="47.682434" lon="2.1083717">
        <ele>160</ele>
        <time>2022-02-24T08:59:38.000Z</time>
      </trkpt>
      <trkpt lat="47.68244" lon="2.1083822">
        <ele>160</ele>
        <time>2022-02-24T08:59:39.000Z</time>
      </trkpt>
      <trkpt lat="47.68245" lon="2.1083956">
        <ele>160</ele>
        <time>2022-02-24T08:59:40.000Z</time>
      </trkpt>
      <trkpt lat="47.68245" lon="2.1083956">
        <ele>160</ele>
        <time>2022-02-24T08:59:41.000Z</time>
      </trkpt>
      <trkpt lat="47.68245" lon="2.1083956">
        <ele>160</ele>
        <time>2022-02-24T08:59:42.000Z</time>
      </trkpt>
      <trkpt lat="47.682465" lon="2.1084366">
        <ele>159</ele>
        <time>2022-02-24T08:59:43.000Z</time>
      </trkpt>
      <trkpt lat="47.68247" lon="2.108452">
        <ele>159</ele>
        <time>2022-02-24T08:59:44.000Z</time>
      </trkpt>
      <trkpt lat="47.682476" lon="2.1084735">
        <ele>159</ele>
        <time>2022-02-24T08:59:45.000Z</time>
      </trkpt>
      <trkpt lat="47.682484" lon="2.1084926">
        <ele>159</ele>
        <time>2022-02-24T08:59:46.000Z</time>
      </trkpt>
      <trkpt lat="47.68248" lon="2.1085122">
        <ele>159</ele>
        <time>2022-02-24T08:59:47.000Z</time>
      </trkpt>
      <trkpt lat="47.68248" lon="2.1085315">
        <ele>159</ele>
        <time>2022-02-24T08:59:48.000Z</time>
      </trkpt>
      <trkpt lat="47.682487" lon="2.1085489">
        <ele>159</ele>
        <time>2022-02-24T08:59:49.000Z</time>
      </trkpt>
      <trkpt lat="47.68249" lon="2.1085641">
        <ele>158</ele>
        <time>2022-02-24T08:59:50.000Z</time>
      </trkpt>
      <trkpt lat="47.68249" lon="2.1085813">
        <ele>159</ele>
        <time>2022-02-24T08:59:51.000Z</time>
      </trkpt>
      <trkpt lat="47.682495" lon="2.1085947">
        <ele>158</ele>
        <time>2022-02-24T08:59:52.000Z</time>
      </trkpt>
      <trkpt lat="47.6825" lon="2.1086068">
        <ele>159</ele>
        <time>2022-02-24T08:59:53.000Z</time>
      </trkpt>
      <trkpt lat="47.6825" lon="2.1086068">
        <ele>159</ele>
        <time>2022-02-24T08:59:54.000Z</time>
      </trkpt>
      <trkpt lat="47.6825" lon="2.1086068">
        <ele>159</ele>
        <time>2022-02-24T08:59:55.000Z</time>
      </trkpt>
      <trkpt lat="47.6825" lon="2.1086464">
        <ele>160</ele>
        <time>2022-02-24T08:59:56.000Z</time>
      </trkpt>
      <trkpt lat="47.6825" lon="2.1086674">
        <ele>159</ele>
        <time>2022-02-24T08:59:57.000Z</time>
      </trkpt>
      <trkpt lat="47.6825" lon="2.1086817">
        <ele>159</ele>
        <time>2022-02-24T08:59:58.000Z</time>
      </trkpt>
      <trkpt lat="47.682503" lon="2.1086986">
        <ele>159</ele>
        <time>2022-02-24T08:59:59.000Z</time>
      </trkpt>
      <trkpt lat="47.6825" lon="2.108718">
        <ele>159</ele>
        <time>2022-02-24T09:00:00.000Z</time>
      </trkpt>
      <trkpt lat="47.682495" lon="2.1087384">
        <ele>159</ele>
        <time>2022-02-24T09:00:01.000Z</time>
      </trkpt>
      <trkpt lat="47.6825" lon="2.1087625">
        <ele>159</ele>
        <time>2022-02-24T09:00:02.000Z</time>
      </trkpt>
      <trkpt lat="47.682495" lon="2.1087825">
        <ele>159</ele>
        <time>2022-02-24T09:00:03.000Z</time>
      </trkpt>
      <trkpt lat="47.6825" lon="2.1087992">
        <ele>159</ele>
        <time>2022-02-24T09:00:04.000Z</time>
      </trkpt>
      <trkpt lat="47.682503" lon="2.1088185">
        <ele>159</ele>
        <time>2022-02-24T09:00:05.000Z</time>
      </trkpt>
      <trkpt lat="47.682503" lon="2.1088388">
        <ele>160</ele>
        <time>2022-02-24T09:00:06.000Z</time>
      </trkpt>
      <trkpt lat="47.682507" lon="2.1088555">
        <ele>159</ele>
        <time>2022-02-24T09:00:07.000Z</time>
      </trkpt>
      <trkpt lat="47.682507" lon="2.1088738">
        <ele>159</ele>
        <time>2022-02-24T09:00:08.000Z</time>
      </trkpt>
      <trkpt lat="47.682503" lon="2.1088865">
        <ele>158</ele>
        <time>2022-02-24T09:00:09.000Z</time>
      </trkpt>
      <trkpt lat="47.6825" lon="2.1089025">
        <ele>159</ele>
        <time>2022-02-24T09:00:10.000Z</time>
      </trkpt>
      <trkpt lat="47.682503" lon="2.108918">
        <ele>160</ele>
        <time>2022-02-24T09:00:11.000Z</time>
      </trkpt>
      <trkpt lat="47.682507" lon="2.1089332">
        <ele>159</ele>
        <time>2022-02-24T09:00:12.000Z</time>
      </trkpt>
      <trkpt lat="47.682507" lon="2.1089532">
        <ele>159</ele>
        <time>2022-02-24T09:00:13.000Z</time>
      </trkpt>
      <trkpt lat="47.682514" lon="2.1089714">
        <ele>158</ele>
        <time>2022-02-24T09:00:14.000Z</time>
      </trkpt>
      <trkpt lat="47.682518" lon="2.1089876">
        <ele>158</ele>
        <time>2022-02-24T09:00:15.000Z</time>
      </trkpt>
      <trkpt lat="47.68252" lon="2.1090076">
        <ele>158</ele>
        <time>2022-02-24T09:00:16.000Z</time>
      </trkpt>
      <trkpt lat="47.682526" lon="2.109028">
        <ele>158</ele>
        <time>2022-02-24T09:00:17.000Z</time>
      </trkpt>
      <trkpt lat="47.682533" lon="2.1090436">
        <ele>158</ele>
        <time>2022-02-24T09:00:18.000Z</time>
      </trkpt>
      <trkpt lat="47.682537" lon="2.109059">
        <ele>158</ele>
        <time>2022-02-24T09:00:19.000Z</time>
      </trkpt>
      <trkpt lat="47.682537" lon="2.1090777">
        <ele>157</ele>
        <time>2022-02-24T09:00:20.000Z</time>
      </trkpt>
      <trkpt lat="47.68254" lon="2.1090944">
        <ele>157</ele>
        <time>2022-02-24T09:00:21.000Z</time>
      </trkpt>
      <trkpt lat="47.68255" lon="2.1091104">
        <ele>157</ele>
        <time>2022-02-24T09:00:22.000Z</time>
      </trkpt>
      <trkpt lat="47.682552" lon="2.1091275">
        <ele>158</ele>
        <time>2022-02-24T09:00:23.000Z</time>
      </trkpt>
      <trkpt lat="47.682556" lon="2.1091473">
        <ele>157</ele>
        <time>2022-02-24T09:00:24.000Z</time>
      </trkpt>
      <trkpt lat="47.682564" lon="2.1091685">
        <ele>157</ele>
        <time>2022-02-24T09:00:25.000Z</time>
      </trkpt>
      <trkpt lat="47.682575" lon="2.1091824">
        <ele>157</ele>
        <time>2022-02-24T09:00:26.000Z</time>
      </trkpt>
      <trkpt lat="47.68258" lon="2.1091967">
        <ele>157</ele>
        <time>2022-02-24T09:00:27.000Z</time>
      </trkpt>
      <trkpt lat="47.68258" lon="2.109208">
        <ele>157</ele>
        <time>2022-02-24T09:00:28.000Z</time>
      </trkpt>
      <trkpt lat="47.682587" lon="2.1092184">
        <ele>157</ele>
        <time>2022-02-24T09:00:29.000Z</time>
      </trkpt>
      <trkpt lat="47.68259" lon="2.109234">
        <ele>156</ele>
        <time>2022-02-24T09:00:30.000Z</time>
      </trkpt>
      <trkpt lat="47.68259" lon="2.109251">
        <ele>156</ele>
        <time>2022-02-24T09:00:31.000Z</time>
      </trkpt>
      <trkpt lat="47.68259" lon="2.1092696">
        <ele>156</ele>
        <time>2022-02-24T09:00:32.000Z</time>
      </trkpt>
      <trkpt lat="47.68259" lon="2.1092868">
        <ele>156</ele>
        <time>2022-02-24T09:00:33.000Z</time>
      </trkpt>
      <trkpt lat="47.68259" lon="2.109303">
        <ele>156</ele>
        <time>2022-02-24T09:00:34.000Z</time>
      </trkpt>
      <trkpt lat="47.682594" lon="2.1093175">
        <ele>156</ele>
        <time>2022-02-24T09:00:35.000Z</time>
      </trkpt>
      <trkpt lat="47.682602" lon="2.1093333">
        <ele>155</ele>
        <time>2022-02-24T09:00:36.000Z</time>
      </trkpt>
      <trkpt lat="47.682606" lon="2.1093519">
        <ele>156</ele>
        <time>2022-02-24T09:00:37.000Z</time>
      </trkpt>
      <trkpt lat="47.682606" lon="2.109366">
        <ele>156</ele>
        <time>2022-02-24T09:00:38.000Z</time>
      </trkpt>
      <trkpt lat="47.68261" lon="2.10938">
        <ele>157</ele>
        <time>2022-02-24T09:00:39.000Z</time>
      </trkpt>
      <trkpt lat="47.682613" lon="2.1093955">
        <ele>157</ele>
        <time>2022-02-24T09:00:40.000Z</time>
      </trkpt>
      <trkpt lat="47.682617" lon="2.1094093">
        <ele>156</ele>
        <time>2022-02-24T09:00:41.000Z</time>
      </trkpt>
      <trkpt lat="47.68262" lon="2.109426">
        <ele>156</ele>
        <time>2022-02-24T09:00:42.000Z</time>
      </trkpt>
      <trkpt lat="47.682625" lon="2.1094441">
        <ele>156</ele>
        <time>2022-02-24T09:00:43.000Z</time>
      </trkpt>
      <trkpt lat="47.682625" lon="2.109462">
        <ele>156</ele>
        <time>2022-02-24T09:00:44.000Z</time>
      </trkpt>
      <trkpt lat="47.68263" lon="2.109479">
        <ele>156</ele>
        <time>2022-02-24T09:00:45.000Z</time>
      </trkpt>
      <trkpt lat="47.68263" lon="2.1094952">
        <ele>156</ele>
        <time>2022-02-24T09:00:46.000Z</time>
      </trkpt>
      <trkpt lat="47.68263" lon="2.109515">
        <ele>156</ele>
        <time>2022-02-24T09:00:47.000Z</time>
      </trkpt>
      <trkpt lat="47.682636" lon="2.109527">
        <ele>156</ele>
        <time>2022-02-24T09:00:48.000Z</time>
      </trkpt>
      <trkpt lat="47.682636" lon="2.1095452">
        <ele>157</ele>
        <time>2022-02-24T09:00:49.000Z</time>
      </trkpt>
      <trkpt lat="47.68264" lon="2.1095648">
        <ele>157</ele>
        <time>2022-02-24T09:00:50.000Z</time>
      </trkpt>
      <trkpt lat="47.68264" lon="2.1095808">
        <ele>157</ele>
        <time>2022-02-24T09:00:51.000Z</time>
      </trkpt>
      <trkpt lat="47.682644" lon="2.1095977">
        <ele>158</ele>
        <time>2022-02-24T09:00:52.000Z</time>
      </trkpt>
      <trkpt lat="47.682648" lon="2.1096125">
        <ele>158</ele>
        <time>2022-02-24T09:00:53.000Z</time>
      </trkpt>
      <trkpt lat="47.68265" lon="2.1096249">
        <ele>158</ele>
        <time>2022-02-24T09:00:54.000Z</time>
      </trkpt>
      <trkpt lat="47.68265" lon="2.109642">
        <ele>159</ele>
        <time>2022-02-24T09:00:55.000Z</time>
      </trkpt>
      <trkpt lat="47.682648" lon="2.1096613">
        <ele>159</ele>
        <time>2022-02-24T09:00:56.000Z</time>
      </trkpt>
      <trkpt lat="47.68265" lon="2.1096764">
        <ele>159</ele>
        <time>2022-02-24T09:00:57.000Z</time>
      </trkpt>
      <trkpt lat="47.682655" lon="2.1096895">
        <ele>159</ele>
        <time>2022-02-24T09:00:58.000Z</time>
      </trkpt>
      <trkpt lat="47.68265" lon="2.1097028">
        <ele>160</ele>
        <time>2022-02-24T09:00:59.000Z</time>
      </trkpt>
      <trkpt lat="47.68265" lon="2.109716">
        <ele>160</ele>
        <time>2022-02-24T09:01:00.000Z</time>
      </trkpt>
      <trkpt lat="47.68266" lon="2.1097336">
        <ele>160</ele>
        <time>2022-02-24T09:01:01.000Z</time>
      </trkpt>
      <trkpt lat="47.682663" lon="2.1097448">
        <ele>159</ele>
        <time>2022-02-24T09:01:02.000Z</time>
      </trkpt>
      <trkpt lat="47.68267" lon="2.1097586">
        <ele>159</ele>
        <time>2022-02-24T09:01:03.000Z</time>
      </trkpt>
      <trkpt lat="47.68267" lon="2.109772">
        <ele>159</ele>
        <time>2022-02-24T09:01:04.000Z</time>
      </trkpt>
      <trkpt lat="47.68268" lon="2.1097848">
        <ele>159</ele>
        <time>2022-02-24T09:01:05.000Z</time>
      </trkpt>
      <trkpt lat="47.682682" lon="2.109797">
        <ele>158</ele>
        <time>2022-02-24T09:01:06.000Z</time>
      </trkpt>
      <trkpt lat="47.682682" lon="2.1098115">
        <ele>158</ele>
        <time>2022-02-24T09:01:07.000Z</time>
      </trkpt>
      <trkpt lat="47.682686" lon="2.1098242">
        <ele>158</ele>
        <time>2022-02-24T09:01:08.000Z</time>
      </trkpt>
      <trkpt lat="47.682686" lon="2.1098397">
        <ele>158</ele>
        <time>2022-02-24T09:01:09.000Z</time>
      </trkpt>
      <trkpt lat="47.682686" lon="2.1098397">
        <ele>158</ele>
        <time>2022-02-24T09:01:10.000Z</time>
      </trkpt>
      <trkpt lat="47.682686" lon="2.1098397">
        <ele>158</ele>
        <time>2022-02-24T09:01:11.000Z</time>
      </trkpt>
      <trkpt lat="47.682686" lon="2.1098747">
        <ele>157</ele>
        <time>2022-02-24T09:01:12.000Z</time>
      </trkpt>
      <trkpt lat="47.682686" lon="2.109889">
        <ele>157</ele>
        <time>2022-02-24T09:01:13.000Z</time>
      </trkpt>
      <trkpt lat="47.68269" lon="2.1099062">
        <ele>157</ele>
        <time>2022-02-24T09:01:14.000Z</time>
      </trkpt>
      <trkpt lat="47.682693" lon="2.109924">
        <ele>157</ele>
        <time>2022-02-24T09:01:15.000Z</time>
      </trkpt>
      <trkpt lat="47.682697" lon="2.1099427">
        <ele>157</ele>
        <time>2022-02-24T09:01:16.000Z</time>
      </trkpt>
      <trkpt lat="47.682697" lon="2.1099584">
        <ele>157</ele>
        <time>2022-02-24T09:01:17.000Z</time>
      </trkpt>
      <trkpt lat="47.6827" lon="2.1099756">
        <ele>156</ele>
        <time>2022-02-24T09:01:18.000Z</time>
      </trkpt>
      <trkpt lat="47.6827" lon="2.1099756">
        <ele>156</ele>
        <time>2022-02-24T09:01:19.000Z</time>
      </trkpt>
      <trkpt lat="47.68271" lon="2.1100082">
        <ele>156</ele>
        <time>2022-02-24T09:01:20.000Z</time>
      </trkpt>
      <trkpt lat="47.68271" lon="2.1100338">
        <ele>156</ele>
        <time>2022-02-24T09:01:21.000Z</time>
      </trkpt>
      <trkpt lat="47.68271" lon="2.1100538">
        <ele>156</ele>
        <time>2022-02-24T09:01:22.000Z</time>
      </trkpt>
      <trkpt lat="47.682713" lon="2.1100733">
        <ele>156</ele>
        <time>2022-02-24T09:01:23.000Z</time>
      </trkpt>
      <trkpt lat="47.682713" lon="2.1100917">
        <ele>155</ele>
        <time>2022-02-24T09:01:24.000Z</time>
      </trkpt>
      <trkpt lat="47.682716" lon="2.1101086">
        <ele>155</ele>
        <time>2022-02-24T09:01:25.000Z</time>
      </trkpt>
      <trkpt lat="47.682716" lon="2.1101248">
        <ele>155</ele>
        <time>2022-02-24T09:01:26.000Z</time>
      </trkpt>
      <trkpt lat="47.682716" lon="2.1101413">
        <ele>155</ele>
        <time>2022-02-24T09:01:27.000Z</time>
      </trkpt>
      <trkpt lat="47.682716" lon="2.1101413">
        <ele>155</ele>
        <time>2022-02-24T09:01:28.000Z</time>
      </trkpt>
      <trkpt lat="47.682716" lon="2.1101413">
        <ele>155</ele>
        <time>2022-02-24T09:01:29.000Z</time>
      </trkpt>
      <trkpt lat="47.68273" lon="2.1101885">
        <ele>156</ele>
        <time>2022-02-24T09:01:30.000Z</time>
      </trkpt>
      <trkpt lat="47.68274" lon="2.1102102">
        <ele>156</ele>
        <time>2022-02-24T09:01:31.000Z</time>
      </trkpt>
      <trkpt lat="47.682743" lon="2.1102362">
        <ele>156</ele>
        <time>2022-02-24T09:01:32.000Z</time>
      </trkpt>
      <trkpt lat="47.68275" lon="2.110258">
        <ele>156</ele>
        <time>2022-02-24T09:01:33.000Z</time>
      </trkpt>
      <trkpt lat="47.68276" lon="2.110276">
        <ele>155</ele>
        <time>2022-02-24T09:01:34.000Z</time>
      </trkpt>
      <trkpt lat="47.682762" lon="2.1102958">
        <ele>155</ele>
        <time>2022-02-24T09:01:35.000Z</time>
      </trkpt>
      <trkpt lat="47.682766" lon="2.1103115">
        <ele>155</ele>
        <time>2022-02-24T09:01:36.000Z</time>
      </trkpt>
      <trkpt lat="47.682774" lon="2.1103308">
        <ele>154</ele>
        <time>2022-02-24T09:01:37.000Z</time>
      </trkpt>
      <trkpt lat="47.682777" lon="2.110348">
        <ele>154</ele>
        <time>2022-02-24T09:01:38.000Z</time>
      </trkpt>
      <trkpt lat="47.682785" lon="2.110366">
        <ele>154</ele>
        <time>2022-02-24T09:01:39.000Z</time>
      </trkpt>
      <trkpt lat="47.682785" lon="2.110382">
        <ele>154</ele>
        <time>2022-02-24T09:01:40.000Z</time>
      </trkpt>
      <trkpt lat="47.68279" lon="2.110394">
        <ele>154</ele>
        <time>2022-02-24T09:01:41.000Z</time>
      </trkpt>
      <trkpt lat="47.682793" lon="2.110406">
        <ele>154</ele>
        <time>2022-02-24T09:01:42.000Z</time>
      </trkpt>
      <trkpt lat="47.6828" lon="2.11042">
        <ele>154</ele>
        <time>2022-02-24T09:01:43.000Z</time>
      </trkpt>
      <trkpt lat="47.682804" lon="2.1104357">
        <ele>154</ele>
        <time>2022-02-24T09:01:44.000Z</time>
      </trkpt>
      <trkpt lat="47.68281" lon="2.1104558">
        <ele>155</ele>
        <time>2022-02-24T09:01:45.000Z</time>
      </trkpt>
      <trkpt lat="47.682816" lon="2.1104786">
        <ele>156</ele>
        <time>2022-02-24T09:01:46.000Z</time>
      </trkpt>
      <trkpt lat="47.68282" lon="2.1104953">
        <ele>156</ele>
        <time>2022-02-24T09:01:47.000Z</time>
      </trkpt>
      <trkpt lat="47.682823" lon="2.1105106">
        <ele>156</ele>
        <time>2022-02-24T09:01:48.000Z</time>
      </trkpt>
      <trkpt lat="47.682827" lon="2.1105232">
        <ele>156</ele>
        <time>2022-02-24T09:01:49.000Z</time>
      </trkpt>
      <trkpt lat="47.682827" lon="2.1105351">
        <ele>157</ele>
        <time>2022-02-24T09:01:50.000Z</time>
      </trkpt>
      <trkpt lat="47.68283" lon="2.11055">
        <ele>157</ele>
        <time>2022-02-24T09:01:51.000Z</time>
      </trkpt>
      <trkpt lat="47.68283" lon="2.11055">
        <ele>157</ele>
        <time>2022-02-24T09:01:52.000Z</time>
      </trkpt>
      <trkpt lat="47.68283" lon="2.11055">
        <ele>157</ele>
        <time>2022-02-24T09:01:53.000Z</time>
      </trkpt>
      <trkpt lat="47.68284" lon="2.1105847">
        <ele>158</ele>
        <time>2022-02-24T09:01:54.000Z</time>
      </trkpt>
      <trkpt lat="47.682842" lon="2.1105986">
        <ele>158</ele>
        <time>2022-02-24T09:01:55.000Z</time>
      </trkpt>
      <trkpt lat="47.682846" lon="2.1106138">
        <ele>158</ele>
        <time>2022-02-24T09:01:56.000Z</time>
      </trkpt>
      <trkpt lat="47.682846" lon="2.1106217">
        <ele>159</ele>
        <time>2022-02-24T09:01:57.000Z</time>
      </trkpt>
      <trkpt lat="47.68285" lon="2.110636">
        <ele>159</ele>
        <time>2022-02-24T09:01:58.000Z</time>
      </trkpt>
      <trkpt lat="47.68285" lon="2.1106546">
        <ele>159</ele>
        <time>2022-02-24T09:01:59.000Z</time>
      </trkpt>
      <trkpt lat="47.682858" lon="2.110672">
        <ele>159</ele>
        <time>2022-02-24T09:02:00.000Z</time>
      </trkpt>
      <trkpt lat="47.682865" lon="2.1106925">
        <ele>160</ele>
        <time>2022-02-24T09:02:01.000Z</time>
      </trkpt>
      <trkpt lat="47.68287" lon="2.110711">
        <ele>160</ele>
        <time>2022-02-24T09:02:02.000Z</time>
      </trkpt>
      <trkpt lat="47.682873" lon="2.110726">
        <ele>159</ele>
        <time>2022-02-24T09:02:03.000Z</time>
      </trkpt>
      <trkpt lat="47.682877" lon="2.1107433">
        <ele>159</ele>
        <time>2022-02-24T09:02:04.000Z</time>
      </trkpt>
      <trkpt lat="47.68288" lon="2.110761">
        <ele>159</ele>
        <time>2022-02-24T09:02:05.000Z</time>
      </trkpt>
      <trkpt lat="47.682888" lon="2.1107755">
        <ele>159</ele>
        <time>2022-02-24T09:02:06.000Z</time>
      </trkpt>
      <trkpt lat="47.68289" lon="2.1107898">
        <ele>159</ele>
        <time>2022-02-24T09:02:07.000Z</time>
      </trkpt>
      <trkpt lat="47.682903" lon="2.11081">
        <ele>159</ele>
        <time>2022-02-24T09:02:08.000Z</time>
      </trkpt>
      <trkpt lat="47.68291" lon="2.110825">
        <ele>159</ele>
        <time>2022-02-24T09:02:09.000Z</time>
      </trkpt>
      <trkpt lat="47.68292" lon="2.110843">
        <ele>159</ele>
        <time>2022-02-24T09:02:10.000Z</time>
      </trkpt>
      <trkpt lat="47.682922" lon="2.1108587">
        <ele>159</ele>
        <time>2022-02-24T09:02:11.000Z</time>
      </trkpt>
      <trkpt lat="47.68293" lon="2.110876">
        <ele>158</ele>
        <time>2022-02-24T09:02:12.000Z</time>
      </trkpt>
      <trkpt lat="47.682934" lon="2.11089">
        <ele>158</ele>
        <time>2022-02-24T09:02:13.000Z</time>
      </trkpt>
      <trkpt lat="47.682938" lon="2.110905">
        <ele>158</ele>
        <time>2022-02-24T09:02:14.000Z</time>
      </trkpt>
      <trkpt lat="47.682945" lon="2.1109219">
        <ele>157</ele>
        <time>2022-02-24T09:02:15.000Z</time>
      </trkpt>
      <trkpt lat="47.68295" lon="2.1109364">
        <ele>158</ele>
        <time>2022-02-24T09:02:16.000Z</time>
      </trkpt>
      <trkpt lat="47.68295" lon="2.1109495">
        <ele>158</ele>
        <time>2022-02-24T09:02:17.000Z</time>
      </trkpt>
      <trkpt lat="47.68295" lon="2.1109657">
        <ele>158</ele>
        <time>2022-02-24T09:02:18.000Z</time>
      </trkpt>
      <trkpt lat="47.682945" lon="2.110985">
        <ele>159</ele>
        <time>2022-02-24T09:02:19.000Z</time>
      </trkpt>
      <trkpt lat="47.68294" lon="2.1110077">
        <ele>160</ele>
        <time>2022-02-24T09:02:20.000Z</time>
      </trkpt>
      <trkpt lat="47.68294" lon="2.1110256">
        <ele>160</ele>
        <time>2022-02-24T09:02:21.000Z</time>
      </trkpt>
      <trkpt lat="47.68294" lon="2.1110365">
        <ele>160</ele>
        <time>2022-02-24T09:02:22.000Z</time>
      </trkpt>
      <trkpt lat="47.682934" lon="2.111052">
        <ele>160</ele>
        <time>2022-02-24T09:02:23.000Z</time>
      </trkpt>
      <trkpt lat="47.68293" lon="2.1110713">
        <ele>160</ele>
        <time>2022-02-24T09:02:24.000Z</time>
      </trkpt>
      <trkpt lat="47.682926" lon="2.1110947">
        <ele>161</ele>
        <time>2022-02-24T09:02:25.000Z</time>
      </trkpt>
      <trkpt lat="47.682926" lon="2.1111102">
        <ele>161</ele>
        <time>2022-02-24T09:02:26.000Z</time>
      </trkpt>
      <trkpt lat="47.682922" lon="2.1111221">
        <ele>160</ele>
        <time>2022-02-24T09:02:27.000Z</time>
      </trkpt>
      <trkpt lat="47.68292" lon="2.1111362">
        <ele>160</ele>
        <time>2022-02-24T09:02:28.000Z</time>
      </trkpt>
      <trkpt lat="47.682915" lon="2.1111505">
        <ele>160</ele>
        <time>2022-02-24T09:02:29.000Z</time>
      </trkpt>
      <trkpt lat="47.682915" lon="2.1111505">
        <ele>160</ele>
        <time>2022-02-24T09:02:30.000Z</time>
      </trkpt>
      <trkpt lat="47.682907" lon="2.1111858">
        <ele>161</ele>
        <time>2022-02-24T09:02:31.000Z</time>
      </trkpt>
      <trkpt lat="47.682896" lon="2.1112027">
        <ele>161</ele>
        <time>2022-02-24T09:02:32.000Z</time>
      </trkpt>
      <trkpt lat="47.68289" lon="2.1112123">
        <ele>161</ele>
        <time>2022-02-24T09:02:33.000Z</time>
      </trkpt>
      <trkpt lat="47.68289" lon="2.1112292">
        <ele>162</ele>
        <time>2022-02-24T09:02:34.000Z</time>
      </trkpt>
      <trkpt lat="47.68289" lon="2.1112373">
        <ele>162</ele>
        <time>2022-02-24T09:02:35.000Z</time>
      </trkpt>
      <trkpt lat="47.68289" lon="2.1112373">
        <ele>162</ele>
        <time>2022-02-24T09:02:36.000Z</time>
      </trkpt>
      <trkpt lat="47.68289" lon="2.1112373">
        <ele>162</ele>
        <time>2022-02-24T09:02:37.000Z</time>
      </trkpt>
      <trkpt lat="47.68289" lon="2.1112373">
        <ele>162</ele>
        <time>2022-02-24T09:02:38.000Z</time>
      </trkpt>
      <trkpt lat="47.68289" lon="2.1112373">
        <ele>162</ele>
        <time>2022-02-24T09:02:39.000Z</time>
      </trkpt>
      <trkpt lat="47.68289" lon="2.1112373">
        <ele>162</ele>
        <time>2022-02-24T09:02:40.000Z</time>
      </trkpt>
      <trkpt lat="47.682888" lon="2.111278">
        <ele>163</ele>
        <time>2022-02-24T09:02:41.000Z</time>
      </trkpt>
      <trkpt lat="47.682884" lon="2.1112893">
        <ele>164</ele>
        <time>2022-02-24T09:02:42.000Z</time>
      </trkpt>
      <trkpt lat="47.68288" lon="2.1112964">
        <ele>164</ele>
        <time>2022-02-24T09:02:43.000Z</time>
      </trkpt>
      <trkpt lat="47.682877" lon="2.1113076">
        <ele>163</ele>
        <time>2022-02-24T09:02:44.000Z</time>
      </trkpt>
      <trkpt lat="47.682877" lon="2.1113076">
        <ele>163</ele>
        <time>2022-02-24T09:02:45.000Z</time>
      </trkpt>
      <trkpt lat="47.682877" lon="2.1113076">
        <ele>163</ele>
        <time>2022-02-24T09:02:46.000Z</time>
      </trkpt>
      <trkpt lat="47.682873" lon="2.1113362">
        <ele>163</ele>
        <time>2022-02-24T09:02:47.000Z</time>
      </trkpt>
      <trkpt lat="47.68287" lon="2.1113503">
        <ele>164</ele>
        <time>2022-02-24T09:02:48.000Z</time>
      </trkpt>
      <trkpt lat="47.68287" lon="2.1113596">
        <ele>164</ele>
        <time>2022-02-24T09:02:49.000Z</time>
      </trkpt>
      <trkpt lat="47.682873" lon="2.1113677">
        <ele>164</ele>
        <time>2022-02-24T09:02:50.000Z</time>
      </trkpt>
      <trkpt lat="47.682873" lon="2.111378">
        <ele>164</ele>
        <time>2022-02-24T09:02:51.000Z</time>
      </trkpt>
      <trkpt lat="47.68287" lon="2.1113853">
        <ele>163</ele>
        <time>2022-02-24T09:02:52.000Z</time>
      </trkpt>
      <trkpt lat="47.68287" lon="2.1113937">
        <ele>163</ele>
        <time>2022-02-24T09:02:53.000Z</time>
      </trkpt>
      <trkpt lat="47.682865" lon="2.1114044">
        <ele>164</ele>
        <time>2022-02-24T09:02:54.000Z</time>
      </trkpt>
      <trkpt lat="47.682865" lon="2.1114197">
        <ele>164</ele>
        <time>2022-02-24T09:02:55.000Z</time>
      </trkpt>
      <trkpt lat="47.682865" lon="2.1114197">
        <ele>164</ele>
        <time>2022-02-24T09:02:56.000Z</time>
      </trkpt>
      <trkpt lat="47.682865" lon="2.1114197">
        <ele>164</ele>
        <time>2022-02-24T09:02:57.000Z</time>
      </trkpt>
      <trkpt lat="47.682854" lon="2.1114504">
        <ele>163</ele>
        <time>2022-02-24T09:02:58.000Z</time>
      </trkpt>
      <trkpt lat="47.682854" lon="2.1114638">
        <ele>162</ele>
        <time>2022-02-24T09:02:59.000Z</time>
      </trkpt>
      <trkpt lat="47.682858" lon="2.1114829">
        <ele>162</ele>
        <time>2022-02-24T09:03:00.000Z</time>
      </trkpt>
      <trkpt lat="47.682858" lon="2.1114967">
        <ele>162</ele>
        <time>2022-02-24T09:03:01.000Z</time>
      </trkpt>
      <trkpt lat="47.682858" lon="2.1114967">
        <ele>162</ele>
        <time>2022-02-24T09:03:02.000Z</time>
      </trkpt>
      <trkpt lat="47.682858" lon="2.1114967">
        <ele>162</ele>
        <time>2022-02-24T09:03:03.000Z</time>
      </trkpt>
      <trkpt lat="47.682858" lon="2.1115358">
        <ele>160</ele>
        <time>2022-02-24T09:03:04.000Z</time>
      </trkpt>
      <trkpt lat="47.682854" lon="2.1115475">
        <ele>161</ele>
        <time>2022-02-24T09:03:05.000Z</time>
      </trkpt>
      <trkpt lat="47.68285" lon="2.1115606">
        <ele>160</ele>
        <time>2022-02-24T09:03:06.000Z</time>
      </trkpt>
      <trkpt lat="47.682846" lon="2.111576">
        <ele>160</ele>
        <time>2022-02-24T09:03:07.000Z</time>
      </trkpt>
      <trkpt lat="47.682842" lon="2.1115975">
        <ele>160</ele>
        <time>2022-02-24T09:03:08.000Z</time>
      </trkpt>
      <trkpt lat="47.68283" lon="2.1116188">
        <ele>160</ele>
        <time>2022-02-24T09:03:09.000Z</time>
      </trkpt>
      <trkpt lat="47.682823" lon="2.1116376">
        <ele>160</ele>
        <time>2022-02-24T09:03:10.000Z</time>
      </trkpt>
      <trkpt lat="47.68282" lon="2.1116612">
        <ele>160</ele>
        <time>2022-02-24T09:03:11.000Z</time>
      </trkpt>
      <trkpt lat="47.682816" lon="2.1116755">
        <ele>160</ele>
        <time>2022-02-24T09:03:12.000Z</time>
      </trkpt>
      <trkpt lat="47.68281" lon="2.111693">
        <ele>161</ele>
        <time>2022-02-24T09:03:13.000Z</time>
      </trkpt>
      <trkpt lat="47.682808" lon="2.1117077">
        <ele>161</ele>
        <time>2022-02-24T09:03:14.000Z</time>
      </trkpt>
      <trkpt lat="47.682808" lon="2.1117077">
        <ele>161</ele>
        <time>2022-02-24T09:03:15.000Z</time>
      </trkpt>
      <trkpt lat="47.682804" lon="2.111733">
        <ele>161</ele>
        <time>2022-02-24T09:03:16.000Z</time>
      </trkpt>
      <trkpt lat="47.6828" lon="2.111752">
        <ele>161</ele>
        <time>2022-02-24T09:03:17.000Z</time>
      </trkpt>
      <trkpt lat="47.6828" lon="2.1117692">
        <ele>161</ele>
        <time>2022-02-24T09:03:18.000Z</time>
      </trkpt>
      <trkpt lat="47.682796" lon="2.1117816">
        <ele>161</ele>
        <time>2022-02-24T09:03:19.000Z</time>
      </trkpt>
      <trkpt lat="47.682793" lon="2.1117985">
        <ele>161</ele>
        <time>2022-02-24T09:03:20.000Z</time>
      </trkpt>
      <trkpt lat="47.682785" lon="2.1118133">
        <ele>161</ele>
        <time>2022-02-24T09:03:21.000Z</time>
      </trkpt>
      <trkpt lat="47.682785" lon="2.1118133">
        <ele>161</ele>
        <time>2022-02-24T09:03:22.000Z</time>
      </trkpt>
      <trkpt lat="47.682785" lon="2.1118133">
        <ele>161</ele>
        <time>2022-02-24T09:03:23.000Z</time>
      </trkpt>
      <trkpt lat="47.68278" lon="2.1118538">
        <ele>163</ele>
        <time>2022-02-24T09:03:24.000Z</time>
      </trkpt>
      <trkpt lat="47.682774" lon="2.1118765">
        <ele>162</ele>
        <time>2022-02-24T09:03:25.000Z</time>
      </trkpt>
      <trkpt lat="47.682766" lon="2.1118922">
        <ele>162</ele>
        <time>2022-02-24T09:03:26.000Z</time>
      </trkpt>
      <trkpt lat="47.682762" lon="2.111906">
        <ele>161</ele>
        <time>2022-02-24T09:03:27.000Z</time>
      </trkpt>
      <trkpt lat="47.68276" lon="2.111926">
        <ele>161</ele>
        <time>2022-02-24T09:03:28.000Z</time>
      </trkpt>
      <trkpt lat="47.68276" lon="2.111947">
        <ele>161</ele>
        <time>2022-02-24T09:03:29.000Z</time>
      </trkpt>
      <trkpt lat="47.68275" lon="2.1119707">
        <ele>161</ele>
        <time>2022-02-24T09:03:30.000Z</time>
      </trkpt>
      <trkpt lat="47.682743" lon="2.1119993">
        <ele>161</ele>
        <time>2022-02-24T09:03:31.000Z</time>
      </trkpt>
      <trkpt lat="47.682735" lon="2.1120236">
        <ele>162</ele>
        <time>2022-02-24T09:03:32.000Z</time>
      </trkpt>
      <trkpt lat="47.682735" lon="2.1120477">
        <ele>162</ele>
        <time>2022-02-24T09:03:33.000Z</time>
      </trkpt>
      <trkpt lat="47.68273" lon="2.1120713">
        <ele>162</ele>
        <time>2022-02-24T09:03:34.000Z</time>
      </trkpt>
      <trkpt lat="47.682728" lon="2.112089">
        <ele>162</ele>
        <time>2022-02-24T09:03:35.000Z</time>
      </trkpt>
      <trkpt lat="47.682728" lon="2.1121109">
        <ele>163</ele>
        <time>2022-02-24T09:03:36.000Z</time>
      </trkpt>
      <trkpt lat="47.68272" lon="2.1121306">
        <ele>163</ele>
        <time>2022-02-24T09:03:37.000Z</time>
      </trkpt>
      <trkpt lat="47.682716" lon="2.1121473">
        <ele>163</ele>
        <time>2022-02-24T09:03:38.000Z</time>
      </trkpt>
      <trkpt lat="47.682713" lon="2.1121564">
        <ele>163</ele>
        <time>2022-02-24T09:03:39.000Z</time>
      </trkpt>
      <trkpt lat="47.682716" lon="2.1121635">
        <ele>163</ele>
        <time>2022-02-24T09:03:40.000Z</time>
      </trkpt>
      <trkpt lat="47.682716" lon="2.1121635">
        <ele>163</ele>
        <time>2022-02-24T09:03:41.000Z</time>
      </trkpt>
      <trkpt lat="47.682713" lon="2.1121967">
        <ele>163</ele>
        <time>2022-02-24T09:03:42.000Z</time>
      </trkpt>
      <trkpt lat="47.682705" lon="2.1122098">
        <ele>162</ele>
        <time>2022-02-24T09:03:43.000Z</time>
      </trkpt>
      <trkpt lat="47.6827" lon="2.1122255">
        <ele>162</ele>
        <time>2022-02-24T09:03:44.000Z</time>
      </trkpt>
      <trkpt lat="47.682693" lon="2.1122463">
        <ele>161</ele>
        <time>2022-02-24T09:03:45.000Z</time>
      </trkpt>
      <trkpt lat="47.682693" lon="2.1122608">
        <ele>161</ele>
        <time>2022-02-24T09:03:46.000Z</time>
      </trkpt>
      <trkpt lat="47.682697" lon="2.1122766">
        <ele>161</ele>
        <time>2022-02-24T09:03:47.000Z</time>
      </trkpt>
      <trkpt lat="47.682693" lon="2.1122904">
        <ele>161</ele>
        <time>2022-02-24T09:03:48.000Z</time>
      </trkpt>
      <trkpt lat="47.68269" lon="2.112304">
        <ele>162</ele>
        <time>2022-02-24T09:03:49.000Z</time>
      </trkpt>
      <trkpt lat="47.682686" lon="2.1123164">
        <ele>162</ele>
        <time>2022-02-24T09:03:50.000Z</time>
      </trkpt>
      <trkpt lat="47.682682" lon="2.1123283">
        <ele>162</ele>
        <time>2022-02-24T09:03:51.000Z</time>
      </trkpt>
      <trkpt lat="47.68268" lon="2.1123395">
        <ele>162</ele>
        <time>2022-02-24T09:03:52.000Z</time>
      </trkpt>
      <trkpt lat="47.682674" lon="2.1123524">
        <ele>162</ele>
        <time>2022-02-24T09:03:53.000Z</time>
      </trkpt>
      <trkpt lat="47.682667" lon="2.1123674">
        <ele>162</ele>
        <time>2022-02-24T09:03:54.000Z</time>
      </trkpt>
      <trkpt lat="47.68266" lon="2.1123853">
        <ele>161</ele>
        <time>2022-02-24T09:03:55.000Z</time>
      </trkpt>
      <trkpt lat="47.682663" lon="2.1124015">
        <ele>161</ele>
        <time>2022-02-24T09:03:56.000Z</time>
      </trkpt>
      <trkpt lat="47.68266" lon="2.11242">
        <ele>161</ele>
        <time>2022-02-24T09:03:57.000Z</time>
      </trkpt>
      <trkpt lat="47.68265" lon="2.1124368">
        <ele>161</ele>
        <time>2022-02-24T09:03:58.000Z</time>
      </trkpt>
      <trkpt lat="47.682644" lon="2.1124563">
        <ele>161</ele>
        <time>2022-02-24T09:03:59.000Z</time>
      </trkpt>
      <trkpt lat="47.682644" lon="2.1124563">
        <ele>161</ele>
        <time>2022-02-24T09:04:00.000Z</time>
      </trkpt>
      <trkpt lat="47.682644" lon="2.1124563">
        <ele>161</ele>
        <time>2022-02-24T09:04:01.000Z</time>
      </trkpt>
      <trkpt lat="47.682632" lon="2.1124973">
        <ele>162</ele>
        <time>2022-02-24T09:04:02.000Z</time>
      </trkpt>
      <trkpt lat="47.68263" lon="2.112509">
        <ele>162</ele>
        <time>2022-02-24T09:04:03.000Z</time>
      </trkpt>
      <trkpt lat="47.68262" lon="2.1125247">
        <ele>162</ele>
        <time>2022-02-24T09:04:04.000Z</time>
      </trkpt>
      <trkpt lat="47.682617" lon="2.1125383">
        <ele>162</ele>
        <time>2022-02-24T09:04:05.000Z</time>
      </trkpt>
      <trkpt lat="47.682613" lon="2.1125498">
        <ele>162</ele>
        <time>2022-02-24T09:04:06.000Z</time>
      </trkpt>
      <trkpt lat="47.682613" lon="2.1125627">
        <ele>162</ele>
        <time>2022-02-24T09:04:07.000Z</time>
      </trkpt>
      <trkpt lat="47.682613" lon="2.1125824">
        <ele>163</ele>
        <time>2022-02-24T09:04:08.000Z</time>
      </trkpt>
      <trkpt lat="47.68261" lon="2.1126058">
        <ele>163</ele>
        <time>2022-02-24T09:04:09.000Z</time>
      </trkpt>
      <trkpt lat="47.68261" lon="2.1126285">
        <ele>163</ele>
        <time>2022-02-24T09:04:10.000Z</time>
      </trkpt>
      <trkpt lat="47.682606" lon="2.1126482">
        <ele>162</ele>
        <time>2022-02-24T09:04:11.000Z</time>
      </trkpt>
      <trkpt lat="47.682602" lon="2.1126683">
        <ele>162</ele>
        <time>2022-02-24T09:04:12.000Z</time>
      </trkpt>
      <trkpt lat="47.6826" lon="2.1126833">
        <ele>162</ele>
        <time>2022-02-24T09:04:13.000Z</time>
      </trkpt>
      <trkpt lat="47.6826" lon="2.1127021">
        <ele>161</ele>
        <time>2022-02-24T09:04:14.000Z</time>
      </trkpt>
      <trkpt lat="47.68261" lon="2.1127164">
        <ele>161</ele>
        <time>2022-02-24T09:04:15.000Z</time>
      </trkpt>
      <trkpt lat="47.682613" lon="2.1127295">
        <ele>161</ele>
        <time>2022-02-24T09:04:16.000Z</time>
      </trkpt>
      <trkpt lat="47.682613" lon="2.1127434">
        <ele>161</ele>
        <time>2022-02-24T09:04:17.000Z</time>
      </trkpt>
      <trkpt lat="47.682606" lon="2.1127558">
        <ele>161</ele>
        <time>2022-02-24T09:04:18.000Z</time>
      </trkpt>
      <trkpt lat="47.682606" lon="2.1127558">
        <ele>161</ele>
        <time>2022-02-24T09:04:19.000Z</time>
      </trkpt>
      <trkpt lat="47.682606" lon="2.1127558">
        <ele>161</ele>
        <time>2022-02-24T09:04:20.000Z</time>
      </trkpt>
      <trkpt lat="47.682594" lon="2.1127772">
        <ele>161</ele>
        <time>2022-02-24T09:04:21.000Z</time>
      </trkpt>
      <trkpt lat="47.68259" lon="2.1127832">
        <ele>160</ele>
        <time>2022-02-24T09:04:22.000Z</time>
      </trkpt>
      <trkpt lat="47.682583" lon="2.112783">
        <ele>160</ele>
        <time>2022-02-24T09:04:23.000Z</time>
      </trkpt>
      <trkpt lat="47.682583" lon="2.1127899">
        <ele>160</ele>
        <time>2022-02-24T09:04:24.000Z</time>
      </trkpt>
      <trkpt lat="47.682575" lon="2.1128066">
        <ele>160</ele>
        <time>2022-02-24T09:04:25.000Z</time>
      </trkpt>
      <trkpt lat="47.682575" lon="2.1128066">
        <ele>160</ele>
        <time>2022-02-24T09:04:25.000Z</time>
      </trkpt>
      <trkpt lat="47.682575" lon="2.1128066">
        <ele>160</ele>
        <time>2022-02-24T09:04:25.000Z</time>
      </trkpt>
      <trkpt lat="47.68256" lon="2.1128948">
        <ele>161</ele>
        <time>2022-02-24T09:04:31.000Z</time>
      </trkpt>
      <trkpt lat="47.682556" lon="2.1129122">
        <ele>161</ele>
        <time>2022-02-24T09:04:32.000Z</time>
      </trkpt>
      <trkpt lat="47.68255" lon="2.112926">
        <ele>161</ele>
        <time>2022-02-24T09:04:33.000Z</time>
      </trkpt>
      <trkpt lat="47.68254" lon="2.1129353">
        <ele>161</ele>
        <time>2022-02-24T09:04:34.000Z</time>
      </trkpt>
      <trkpt lat="47.682537" lon="2.1129467">
        <ele>161</ele>
        <time>2022-02-24T09:04:35.000Z</time>
      </trkpt>
      <trkpt lat="47.68253" lon="2.1129606">
        <ele>161</ele>
        <time>2022-02-24T09:04:36.000Z</time>
      </trkpt>
      <trkpt lat="47.682533" lon="2.1129782">
        <ele>162</ele>
        <time>2022-02-24T09:04:37.000Z</time>
      </trkpt>
      <trkpt lat="47.68253" lon="2.1129925">
        <ele>161</ele>
        <time>2022-02-24T09:04:38.000Z</time>
      </trkpt>
      <trkpt lat="47.68252" lon="2.113004">
        <ele>161</ele>
        <time>2022-02-24T09:04:39.000Z</time>
      </trkpt>
      <trkpt lat="47.68251" lon="2.1130188">
        <ele>161</ele>
        <time>2022-02-24T09:04:40.000Z</time>
      </trkpt>
      <trkpt lat="47.682507" lon="2.1130393">
        <ele>161</ele>
        <time>2022-02-24T09:04:41.000Z</time>
      </trkpt>
      <trkpt lat="47.682507" lon="2.1130538">
        <ele>161</ele>
        <time>2022-02-24T09:04:42.000Z</time>
      </trkpt>
      <trkpt lat="47.682507" lon="2.1130645">
        <ele>161</ele>
        <time>2022-02-24T09:04:43.000Z</time>
      </trkpt>
      <trkpt lat="47.682507" lon="2.1130767">
        <ele>161</ele>
        <time>2022-02-24T09:04:44.000Z</time>
      </trkpt>
      <trkpt lat="47.682507" lon="2.1130767">
        <ele>161</ele>
        <time>2022-02-24T09:04:45.000Z</time>
      </trkpt>
      <trkpt lat="47.682507" lon="2.1130767">
        <ele>161</ele>
        <time>2022-02-24T09:04:46.000Z</time>
      </trkpt>
      <trkpt lat="47.682503" lon="2.1131175">
        <ele>160</ele>
        <time>2022-02-24T09:04:47.000Z</time>
      </trkpt>
      <trkpt lat="47.682503" lon="2.1131341">
        <ele>160</ele>
        <time>2022-02-24T09:04:48.000Z</time>
      </trkpt>
      <trkpt lat="47.6825" lon="2.1131482">
        <ele>160</ele>
        <time>2022-02-24T09:04:49.000Z</time>
      </trkpt>
      <trkpt lat="47.682495" lon="2.1131635">
        <ele>161</ele>
        <time>2022-02-24T09:04:50.000Z</time>
      </trkpt>
      <trkpt lat="47.68249" lon="2.113181">
        <ele>161</ele>
        <time>2022-02-24T09:04:51.000Z</time>
      </trkpt>
      <trkpt lat="47.682487" lon="2.1132045">
        <ele>161</ele>
        <time>2022-02-24T09:04:52.000Z</time>
      </trkpt>
      <trkpt lat="47.682484" lon="2.1132245">
        <ele>160</ele>
        <time>2022-02-24T09:04:53.000Z</time>
      </trkpt>
      <trkpt lat="47.682484" lon="2.1132402">
        <ele>161</ele>
        <time>2022-02-24T09:04:54.000Z</time>
      </trkpt>
      <trkpt lat="47.682476" lon="2.1132543">
        <ele>161</ele>
        <time>2022-02-24T09:04:55.000Z</time>
      </trkpt>
      <trkpt lat="47.68247" lon="2.1132677">
        <ele>161</ele>
        <time>2022-02-24T09:04:56.000Z</time>
      </trkpt>
      <trkpt lat="47.682465" lon="2.1132822">
        <ele>161</ele>
        <time>2022-02-24T09:04:57.000Z</time>
      </trkpt>
      <trkpt lat="47.682465" lon="2.1132956">
        <ele>162</ele>
        <time>2022-02-24T09:04:58.000Z</time>
      </trkpt>
      <trkpt lat="47.682457" lon="2.1133063">
        <ele>161</ele>
        <time>2022-02-24T09:04:59.000Z</time>
      </trkpt>
      <trkpt lat="47.682453" lon="2.1133175">
        <ele>161</ele>
        <time>2022-02-24T09:05:00.000Z</time>
      </trkpt>
      <trkpt lat="47.682453" lon="2.113332">
        <ele>161</ele>
        <time>2022-02-24T09:05:01.000Z</time>
      </trkpt>
      <trkpt lat="47.68245" lon="2.1133459">
        <ele>161</ele>
        <time>2022-02-24T09:05:02.000Z</time>
      </trkpt>
      <trkpt lat="47.682446" lon="2.1133568">
        <ele>162</ele>
        <time>2022-02-24T09:05:03.000Z</time>
      </trkpt>
      <trkpt lat="47.682446" lon="2.1133666">
        <ele>162</ele>
        <time>2022-02-24T09:05:04.000Z</time>
      </trkpt>
      <trkpt lat="47.682446" lon="2.1133666">
        <ele>162</ele>
        <time>2022-02-24T09:05:05.000Z</time>
      </trkpt>
      <trkpt lat="47.682446" lon="2.1133685">
        <ele>162</ele>
        <time>2022-02-24T09:05:06.000Z</time>
      </trkpt>
      <trkpt lat="47.682446" lon="2.113378">
        <ele>162</ele>
        <time>2022-02-24T09:05:07.000Z</time>
      </trkpt>
      <trkpt lat="47.68244" lon="2.1133928">
        <ele>162</ele>
        <time>2022-02-24T09:05:08.000Z</time>
      </trkpt>
      <trkpt lat="47.682438" lon="2.11341">
        <ele>162</ele>
        <time>2022-02-24T09:05:09.000Z</time>
      </trkpt>
      <trkpt lat="47.682438" lon="2.1134248">
        <ele>162</ele>
        <time>2022-02-24T09:05:10.000Z</time>
      </trkpt>
      <trkpt lat="47.682434" lon="2.1134374">
        <ele>162</ele>
        <time>2022-02-24T09:05:11.000Z</time>
      </trkpt>
      <trkpt lat="47.68243" lon="2.1134512">
        <ele>162</ele>
        <time>2022-02-24T09:05:12.000Z</time>
      </trkpt>
      <trkpt lat="47.68243" lon="2.1134682">
        <ele>163</ele>
        <time>2022-02-24T09:05:13.000Z</time>
      </trkpt>
      <trkpt lat="47.682426" lon="2.1134791">
        <ele>163</ele>
        <time>2022-02-24T09:05:14.000Z</time>
      </trkpt>
      <trkpt lat="47.682423" lon="2.1134853">
        <ele>163</ele>
        <time>2022-02-24T09:05:15.000Z</time>
      </trkpt>
      <trkpt lat="47.682423" lon="2.1134946">
        <ele>164</ele>
        <time>2022-02-24T09:05:16.000Z</time>
      </trkpt>
      <trkpt lat="47.68242" lon="2.1135035">
        <ele>164</ele>
        <time>2022-02-24T09:05:17.000Z</time>
      </trkpt>
      <trkpt lat="47.682415" lon="2.1135123">
        <ele>164</ele>
        <time>2022-02-24T09:05:18.000Z</time>
      </trkpt>
      <trkpt lat="47.68241" lon="2.1135273">
        <ele>164</ele>
        <time>2022-02-24T09:05:19.000Z</time>
      </trkpt>
      <trkpt lat="47.682407" lon="2.1135435">
        <ele>164</ele>
        <time>2022-02-24T09:05:20.000Z</time>
      </trkpt>
      <trkpt lat="47.682404" lon="2.1135595">
        <ele>164</ele>
        <time>2022-02-24T09:05:21.000Z</time>
      </trkpt>
      <trkpt lat="47.682404" lon="2.1135595">
        <ele>164</ele>
        <time>2022-02-24T09:05:22.000Z</time>
      </trkpt>
      <trkpt lat="47.682404" lon="2.1135595">
        <ele>164</ele>
        <time>2022-02-24T09:05:23.000Z</time>
      </trkpt>
      <trkpt lat="47.682396" lon="2.1135886">
        <ele>165</ele>
        <time>2022-02-24T09:05:24.000Z</time>
      </trkpt>
      <trkpt lat="47.682392" lon="2.1135957">
        <ele>165</ele>
        <time>2022-02-24T09:05:25.000Z</time>
      </trkpt>
      <trkpt lat="47.68239" lon="2.1136086">
        <ele>165</ele>
        <time>2022-02-24T09:05:26.000Z</time>
      </trkpt>
      <trkpt lat="47.68238" lon="2.113623">
        <ele>164</ele>
        <time>2022-02-24T09:05:27.000Z</time>
      </trkpt>
      <trkpt lat="47.68238" lon="2.113635">
        <ele>164</ele>
        <time>2022-02-24T09:05:28.000Z</time>
      </trkpt>
      <trkpt lat="47.68238" lon="2.113651">
        <ele>164</ele>
        <time>2022-02-24T09:05:29.000Z</time>
      </trkpt>
      <trkpt lat="47.682373" lon="2.1136665">
        <ele>164</ele>
        <time>2022-02-24T09:05:30.000Z</time>
      </trkpt>
      <trkpt lat="47.68237" lon="2.1136827">
        <ele>165</ele>
        <time>2022-02-24T09:05:31.000Z</time>
      </trkpt>
      <trkpt lat="47.68236" lon="2.1136966">
        <ele>164</ele>
        <time>2022-02-24T09:05:32.000Z</time>
      </trkpt>
      <trkpt lat="47.682358" lon="2.113716">
        <ele>165</ele>
        <time>2022-02-24T09:05:33.000Z</time>
      </trkpt>
      <trkpt lat="47.682358" lon="2.1137366">
        <ele>165</ele>
        <time>2022-02-24T09:05:34.000Z</time>
      </trkpt>
      <trkpt lat="47.682354" lon="2.1137538">
        <ele>165</ele>
        <time>2022-02-24T09:05:35.000Z</time>
      </trkpt>
      <trkpt lat="47.68235" lon="2.1137736">
        <ele>165</ele>
        <time>2022-02-24T09:05:36.000Z</time>
      </trkpt>
      <trkpt lat="47.682346" lon="2.1137924">
        <ele>165</ele>
        <time>2022-02-24T09:05:37.000Z</time>
      </trkpt>
      <trkpt lat="47.682346" lon="2.113817">
        <ele>165</ele>
        <time>2022-02-24T09:05:38.000Z</time>
      </trkpt>
      <trkpt lat="47.682343" lon="2.1138363">
        <ele>164</ele>
        <time>2022-02-24T09:05:39.000Z</time>
      </trkpt>
      <trkpt lat="47.68234" lon="2.1138587">
        <ele>164</ele>
        <time>2022-02-24T09:05:40.000Z</time>
      </trkpt>
      <trkpt lat="47.682335" lon="2.113877">
        <ele>164</ele>
        <time>2022-02-24T09:05:41.000Z</time>
      </trkpt>
      <trkpt lat="47.68233" lon="2.1138968">
        <ele>164</ele>
        <time>2022-02-24T09:05:42.000Z</time>
      </trkpt>
      <trkpt lat="47.682327" lon="2.1139166">
        <ele>164</ele>
        <time>2022-02-24T09:05:43.000Z</time>
      </trkpt>
      <trkpt lat="47.682323" lon="2.1139338">
        <ele>164</ele>
        <time>2022-02-24T09:05:44.000Z</time>
      </trkpt>
      <trkpt lat="47.68232" lon="2.1139538">
        <ele>164</ele>
        <time>2022-02-24T09:05:45.000Z</time>
      </trkpt>
      <trkpt lat="47.68231" lon="2.113969">
        <ele>164</ele>
        <time>2022-02-24T09:05:46.000Z</time>
      </trkpt>
      <trkpt lat="47.682304" lon="2.1139848">
        <ele>164</ele>
        <time>2022-02-24T09:05:47.000Z</time>
      </trkpt>
      <trkpt lat="47.682297" lon="2.1140041">
        <ele>165</ele>
        <time>2022-02-24T09:05:48.000Z</time>
      </trkpt>
      <trkpt lat="47.682293" lon="2.1140206">
        <ele>164</ele>
        <time>2022-02-24T09:05:49.000Z</time>
      </trkpt>
      <trkpt lat="47.682285" lon="2.114042">
        <ele>165</ele>
        <time>2022-02-24T09:05:50.000Z</time>
      </trkpt>
      <trkpt lat="47.682278" lon="2.114062">
        <ele>165</ele>
        <time>2022-02-24T09:05:51.000Z</time>
      </trkpt>
      <trkpt lat="47.682274" lon="2.114083">
        <ele>165</ele>
        <time>2022-02-24T09:05:52.000Z</time>
      </trkpt>
      <trkpt lat="47.68227" lon="2.1140974">
        <ele>166</ele>
        <time>2022-02-24T09:05:53.000Z</time>
      </trkpt>
      <trkpt lat="47.682266" lon="2.1141112">
        <ele>166</ele>
        <time>2022-02-24T09:05:54.000Z</time>
      </trkpt>
      <trkpt lat="47.68226" lon="2.1141264">
        <ele>166</ele>
        <time>2022-02-24T09:05:55.000Z</time>
      </trkpt>
      <trkpt lat="47.68225" lon="2.1141398">
        <ele>166</ele>
        <time>2022-02-24T09:05:56.000Z</time>
      </trkpt>
      <trkpt lat="47.682247" lon="2.1141484">
        <ele>165</ele>
        <time>2022-02-24T09:05:57.000Z</time>
      </trkpt>
      <trkpt lat="47.68224" lon="2.1141598">
        <ele>165</ele>
        <time>2022-02-24T09:05:58.000Z</time>
      </trkpt>
      <trkpt lat="47.682236" lon="2.1141815">
        <ele>166</ele>
        <time>2022-02-24T09:05:59.000Z</time>
      </trkpt>
      <trkpt lat="47.682236" lon="2.1141977">
        <ele>166</ele>
        <time>2022-02-24T09:06:00.000Z</time>
      </trkpt>
      <trkpt lat="47.68223" lon="2.1142137">
        <ele>167</ele>
        <time>2022-02-24T09:06:01.000Z</time>
      </trkpt>
      <trkpt lat="47.68223" lon="2.1142232">
        <ele>167</ele>
        <time>2022-02-24T09:06:02.000Z</time>
      </trkpt>
      <trkpt lat="47.682228" lon="2.114232">
        <ele>167</ele>
        <time>2022-02-24T09:06:03.000Z</time>
      </trkpt>
      <trkpt lat="47.682228" lon="2.1142423">
        <ele>167</ele>
        <time>2022-02-24T09:06:04.000Z</time>
      </trkpt>
      <trkpt lat="47.68222" lon="2.1142461">
        <ele>167</ele>
        <time>2022-02-24T09:06:05.000Z</time>
      </trkpt>
      <trkpt lat="47.68222" lon="2.114246">
        <ele>167</ele>
        <time>2022-02-24T09:06:06.000Z</time>
      </trkpt>
      <trkpt lat="47.68222" lon="2.1142461">
        <ele>167</ele>
        <time>2022-02-24T09:06:07.000Z</time>
      </trkpt>
      <trkpt lat="47.68222" lon="2.1142461">
        <ele>167</ele>
        <time>2022-02-24T09:06:07.000Z</time>
      </trkpt>
      <trkpt lat="47.68222" lon="2.1142461">
        <ele>167</ele>
        <time>2022-02-24T09:06:07.000Z</time>
      </trkpt>
      <trkpt lat="47.68219" lon="2.1143417">
        <ele>169</ele>
        <time>2022-02-24T09:06:41.000Z</time>
      </trkpt>
      <trkpt lat="47.682186" lon="2.11436">
        <ele>169</ele>
        <time>2022-02-24T09:06:42.000Z</time>
      </trkpt>
      <trkpt lat="47.682182" lon="2.1143832">
        <ele>170</ele>
        <time>2022-02-24T09:06:43.000Z</time>
      </trkpt>
      <trkpt lat="47.68218" lon="2.114404">
        <ele>170</ele>
        <time>2022-02-24T09:06:44.000Z</time>
      </trkpt>
      <trkpt lat="47.68217" lon="2.114421">
        <ele>170</ele>
        <time>2022-02-24T09:06:45.000Z</time>
      </trkpt>
      <trkpt lat="47.682167" lon="2.1144364">
        <ele>171</ele>
        <time>2022-02-24T09:06:46.000Z</time>
      </trkpt>
      <trkpt lat="47.682163" lon="2.1144483">
        <ele>171</ele>
        <time>2022-02-24T09:06:47.000Z</time>
      </trkpt>
      <trkpt lat="47.68216" lon="2.1144645">
        <ele>171</ele>
        <time>2022-02-24T09:06:48.000Z</time>
      </trkpt>
      <trkpt lat="47.68216" lon="2.114474">
        <ele>170</ele>
        <time>2022-02-24T09:06:49.000Z</time>
      </trkpt>
      <trkpt lat="47.68216" lon="2.1144834">
        <ele>170</ele>
        <time>2022-02-24T09:06:50.000Z</time>
      </trkpt>
      <trkpt lat="47.68216" lon="2.1144834">
        <ele>170</ele>
        <time>2022-02-24T09:06:51.000Z</time>
      </trkpt>
      <trkpt lat="47.68216" lon="2.1144838">
        <ele>170</ele>
        <time>2022-02-24T09:06:52.000Z</time>
      </trkpt>
      <trkpt lat="47.68216" lon="2.1144838">
        <ele>170</ele>
        <time>2022-02-24T09:06:52.000Z</time>
      </trkpt>
      <trkpt lat="47.68216" lon="2.1144838">
        <ele>170</ele>
        <time>2022-02-24T09:06:52.000Z</time>
      </trkpt>
      <trkpt lat="47.68214" lon="2.1145504">
        <ele>171</ele>
        <time>2022-02-24T09:07:05.000Z</time>
      </trkpt>
      <trkpt lat="47.682137" lon="2.114566">
        <ele>170</ele>
        <time>2022-02-24T09:07:06.000Z</time>
      </trkpt>
      <trkpt lat="47.682137" lon="2.114582">
        <ele>170</ele>
        <time>2022-02-24T09:07:07.000Z</time>
      </trkpt>
      <trkpt lat="47.682133" lon="2.114604">
        <ele>171</ele>
        <time>2022-02-24T09:07:08.000Z</time>
      </trkpt>
      <trkpt lat="47.68212" lon="2.1146197">
        <ele>170</ele>
        <time>2022-02-24T09:07:09.000Z</time>
      </trkpt>
      <trkpt lat="47.682117" lon="2.1146383">
        <ele>170</ele>
        <time>2022-02-24T09:07:10.000Z</time>
      </trkpt>
      <trkpt lat="47.682114" lon="2.114659">
        <ele>170</ele>
        <time>2022-02-24T09:07:11.000Z</time>
      </trkpt>
      <trkpt lat="47.68211" lon="2.1146805">
        <ele>170</ele>
        <time>2022-02-24T09:07:12.000Z</time>
      </trkpt>
      <trkpt lat="47.682106" lon="2.114697">
        <ele>170</ele>
        <time>2022-02-24T09:07:13.000Z</time>
      </trkpt>
      <trkpt lat="47.682102" lon="2.114714">
        <ele>170</ele>
        <time>2022-02-24T09:07:14.000Z</time>
      </trkpt>
      <trkpt lat="47.6821" lon="2.1147325">
        <ele>171</ele>
        <time>2022-02-24T09:07:15.000Z</time>
      </trkpt>
      <trkpt lat="47.682095" lon="2.1147501">
        <ele>171</ele>
        <time>2022-02-24T09:07:16.000Z</time>
      </trkpt>
      <trkpt lat="47.682095" lon="2.114773">
        <ele>171</ele>
        <time>2022-02-24T09:07:17.000Z</time>
      </trkpt>
      <trkpt lat="47.682083" lon="2.1148164">
        <ele>170</ele>
        <time>2022-02-24T09:07:19.000Z</time>
      </trkpt>
      <trkpt lat="47.682083" lon="2.1148396">
        <ele>171</ele>
        <time>2022-02-24T09:07:20.000Z</time>
      </trkpt>
      <trkpt lat="47.682076" lon="2.114857">
        <ele>171</ele>
        <time>2022-02-24T09:07:21.000Z</time>
      </trkpt>
      <trkpt lat="47.68207" lon="2.114875">
        <ele>171</ele>
        <time>2022-02-24T09:07:22.000Z</time>
      </trkpt>
      <trkpt lat="47.682068" lon="2.114889">
        <ele>171</ele>
        <time>2022-02-24T09:07:23.000Z</time>
      </trkpt>
      <trkpt lat="47.682068" lon="2.1149077">
        <ele>171</ele>
        <time>2022-02-24T09:07:24.000Z</time>
      </trkpt>
      <trkpt lat="47.682068" lon="2.1149364">
        <ele>171</ele>
        <time>2022-02-24T09:07:25.000Z</time>
      </trkpt>
      <trkpt lat="47.682064" lon="2.1149516">
        <ele>171</ele>
        <time>2022-02-24T09:07:26.000Z</time>
      </trkpt>
      <trkpt lat="47.68206" lon="2.1149735">
        <ele>171</ele>
        <time>2022-02-24T09:07:27.000Z</time>
      </trkpt>
      <trkpt lat="47.682056" lon="2.114994">
        <ele>171</ele>
        <time>2022-02-24T09:07:28.000Z</time>
      </trkpt>
      <trkpt lat="47.682056" lon="2.1150055">
        <ele>170</ele>
        <time>2022-02-24T09:07:29.000Z</time>
      </trkpt>
      <trkpt lat="47.682053" lon="2.115021">
        <ele>170</ele>
        <time>2022-02-24T09:07:30.000Z</time>
      </trkpt>
      <trkpt lat="47.682053" lon="2.1150434">
        <ele>170</ele>
        <time>2022-02-24T09:07:31.000Z</time>
      </trkpt>
      <trkpt lat="47.682053" lon="2.115061">
        <ele>170</ele>
        <time>2022-02-24T09:07:32.000Z</time>
      </trkpt>
      <trkpt lat="47.68205" lon="2.1150765">
        <ele>170</ele>
        <time>2022-02-24T09:07:33.000Z</time>
      </trkpt>
      <trkpt lat="47.68205" lon="2.115096">
        <ele>170</ele>
        <time>2022-02-24T09:07:34.000Z</time>
      </trkpt>
      <trkpt lat="47.682045" lon="2.1151123">
        <ele>169</ele>
        <time>2022-02-24T09:07:35.000Z</time>
      </trkpt>
      <trkpt lat="47.68204" lon="2.1151295">
        <ele>169</ele>
        <time>2022-02-24T09:07:36.000Z</time>
      </trkpt>
      <trkpt lat="47.682037" lon="2.1151571">
        <ele>170</ele>
        <time>2022-02-24T09:07:37.000Z</time>
      </trkpt>
      <trkpt lat="47.682034" lon="2.1151807">
        <ele>170</ele>
        <time>2022-02-24T09:07:38.000Z</time>
      </trkpt>
      <trkpt lat="47.68203" lon="2.1152008">
        <ele>170</ele>
        <time>2022-02-24T09:07:39.000Z</time>
      </trkpt>
      <trkpt lat="47.682026" lon="2.115219">
        <ele>170</ele>
        <time>2022-02-24T09:07:40.000Z</time>
      </trkpt>
      <trkpt lat="47.682022" lon="2.115238">
        <ele>169</ele>
        <time>2022-02-24T09:07:41.000Z</time>
      </trkpt>
      <trkpt lat="47.68202" lon="2.1152577">
        <ele>169</ele>
        <time>2022-02-24T09:07:42.000Z</time>
      </trkpt>
      <trkpt lat="47.682014" lon="2.115274">
        <ele>170</ele>
        <time>2022-02-24T09:07:43.000Z</time>
      </trkpt>
      <trkpt lat="47.68201" lon="2.115295">
        <ele>170</ele>
        <time>2022-02-24T09:07:44.000Z</time>
      </trkpt>
      <trkpt lat="47.682003" lon="2.1153152">
        <ele>169</ele>
        <time>2022-02-24T09:07:45.000Z</time>
      </trkpt>
      <trkpt lat="47.681995" lon="2.1153328">
        <ele>170</ele>
        <time>2022-02-24T09:07:46.000Z</time>
      </trkpt>
      <trkpt lat="47.68199" lon="2.1153498">
        <ele>170</ele>
        <time>2022-02-24T09:07:47.000Z</time>
      </trkpt>
      <trkpt lat="47.68198" lon="2.1153677">
        <ele>170</ele>
        <time>2022-02-24T09:07:48.000Z</time>
      </trkpt>
      <trkpt lat="47.681973" lon="2.1154068">
        <ele>169</ele>
        <time>2022-02-24T09:07:50.000Z</time>
      </trkpt>
      <trkpt lat="47.681973" lon="2.1154287">
        <ele>169</ele>
        <time>2022-02-24T09:07:51.000Z</time>
      </trkpt>
      <trkpt lat="47.68197" lon="2.1154487">
        <ele>169</ele>
        <time>2022-02-24T09:07:52.000Z</time>
      </trkpt>
      <trkpt lat="47.68197" lon="2.1154675">
        <ele>170</ele>
        <time>2022-02-24T09:07:53.000Z</time>
      </trkpt>
      <trkpt lat="47.681976" lon="2.1154861">
        <ele>170</ele>
        <time>2022-02-24T09:07:54.000Z</time>
      </trkpt>
      <trkpt lat="47.681973" lon="2.1155086">
        <ele>170</ele>
        <time>2022-02-24T09:07:55.000Z</time>
      </trkpt>
      <trkpt lat="47.681973" lon="2.1155293">
        <ele>170</ele>
        <time>2022-02-24T09:07:56.000Z</time>
      </trkpt>
      <trkpt lat="47.681973" lon="2.11555">
        <ele>170</ele>
        <time>2022-02-24T09:07:57.000Z</time>
      </trkpt>
      <trkpt lat="47.681973" lon="2.115567">
        <ele>170</ele>
        <time>2022-02-24T09:07:58.000Z</time>
      </trkpt>
      <trkpt lat="47.681973" lon="2.1155856">
        <ele>170</ele>
        <time>2022-02-24T09:07:59.000Z</time>
      </trkpt>
      <trkpt lat="47.68197" lon="2.1156034">
        <ele>170</ele>
        <time>2022-02-24T09:08:00.000Z</time>
      </trkpt>
      <trkpt lat="47.681965" lon="2.1156228">
        <ele>170</ele>
        <time>2022-02-24T09:08:01.000Z</time>
      </trkpt>
      <trkpt lat="47.68196" lon="2.1156418">
        <ele>170</ele>
        <time>2022-02-24T09:08:02.000Z</time>
      </trkpt>
      <trkpt lat="47.681965" lon="2.1156597">
        <ele>171</ele>
        <time>2022-02-24T09:08:03.000Z</time>
      </trkpt>
      <trkpt lat="47.68196" lon="2.115673">
        <ele>171</ele>
        <time>2022-02-24T09:08:04.000Z</time>
      </trkpt>
      <trkpt lat="47.681957" lon="2.1156948">
        <ele>171</ele>
        <time>2022-02-24T09:08:05.000Z</time>
      </trkpt>
      <trkpt lat="47.681953" lon="2.1157112">
        <ele>171</ele>
        <time>2022-02-24T09:08:06.000Z</time>
      </trkpt>
      <trkpt lat="47.681953" lon="2.1157036">
        <ele>171</ele>
        <time>2022-02-24T09:08:07.000Z</time>
      </trkpt>
      <trkpt lat="47.681953" lon="2.115698">
        <ele>171</ele>
        <time>2022-02-24T09:08:08.000Z</time>
      </trkpt>
      <trkpt lat="47.681953" lon="2.1156938">
        <ele>171</ele>
        <time>2022-02-24T09:08:09.000Z</time>
      </trkpt>
      <trkpt lat="47.681953" lon="2.1156828">
        <ele>171</ele>
        <time>2022-02-24T09:08:10.000Z</time>
      </trkpt>
      <trkpt lat="47.681957" lon="2.1156707">
        <ele>171</ele>
        <time>2022-02-24T09:08:11.000Z</time>
      </trkpt>
      <trkpt lat="47.68196" lon="2.1156492">
        <ele>170</ele>
        <time>2022-02-24T09:08:12.000Z</time>
      </trkpt>
      <trkpt lat="47.68196" lon="2.115634">
        <ele>170</ele>
        <time>2022-02-24T09:08:13.000Z</time>
      </trkpt>
      <trkpt lat="47.68196" lon="2.1156282">
        <ele>170</ele>
        <time>2022-02-24T09:08:14.000Z</time>
      </trkpt>
      <trkpt lat="47.68196" lon="2.1156287">
        <ele>170</ele>
        <time>2022-02-24T09:08:15.000Z</time>
      </trkpt>
      <trkpt lat="47.68196" lon="2.115629">
        <ele>170</ele>
        <time>2022-02-24T09:08:16.000Z</time>
      </trkpt>
      <trkpt lat="47.68196" lon="2.1156292">
        <ele>170</ele>
        <time>2022-02-24T09:08:17.000Z</time>
      </trkpt>
      <trkpt lat="47.68196" lon="2.1156292">
        <ele>170</ele>
        <time>2022-02-24T09:08:17.000Z</time>
      </trkpt>
      <trkpt lat="47.68196" lon="2.1156292">
        <ele>170</ele>
        <time>2022-02-24T09:08:17.000Z</time>
      </trkpt>
      <trkpt lat="47.681942" lon="2.1156101">
        <ele>167</ele>
        <time>2022-02-24T09:08:53.000Z</time>
      </trkpt>
      <trkpt lat="47.68194" lon="2.1156383">
        <ele>166</ele>
        <time>2022-02-24T09:08:54.000Z</time>
      </trkpt>
      <trkpt lat="47.68194" lon="2.1156607">
        <ele>166</ele>
        <time>2022-02-24T09:08:55.000Z</time>
      </trkpt>
      <trkpt lat="47.681934" lon="2.1156855">
        <ele>166</ele>
        <time>2022-02-24T09:08:56.000Z</time>
      </trkpt>
      <trkpt lat="47.68193" lon="2.1157093">
        <ele>165</ele>
        <time>2022-02-24T09:08:57.000Z</time>
      </trkpt>
      <trkpt lat="47.681927" lon="2.115732">
        <ele>164</ele>
        <time>2022-02-24T09:08:58.000Z</time>
      </trkpt>
      <trkpt lat="47.681923" lon="2.1157532">
        <ele>165</ele>
        <time>2022-02-24T09:08:59.000Z</time>
      </trkpt>
      <trkpt lat="47.681915" lon="2.1157804">
        <ele>165</ele>
        <time>2022-02-24T09:09:00.000Z</time>
      </trkpt>
      <trkpt lat="47.68191" lon="2.1158047">
        <ele>165</ele>
        <time>2022-02-24T09:09:01.000Z</time>
      </trkpt>
      <trkpt lat="47.681908" lon="2.1158264">
        <ele>165</ele>
        <time>2022-02-24T09:09:02.000Z</time>
      </trkpt>
      <trkpt lat="47.681904" lon="2.115843">
        <ele>165</ele>
        <time>2022-02-24T09:09:03.000Z</time>
      </trkpt>
      <trkpt lat="47.6819" lon="2.1158614">
        <ele>166</ele>
        <time>2022-02-24T09:09:04.000Z</time>
      </trkpt>
      <trkpt lat="47.681896" lon="2.115871">
        <ele>166</ele>
        <time>2022-02-24T09:09:05.000Z</time>
      </trkpt>
      <trkpt lat="47.68189" lon="2.1158826">
        <ele>167</ele>
        <time>2022-02-24T09:09:06.000Z</time>
      </trkpt>
      <trkpt lat="47.681885" lon="2.1158977">
        <ele>167</ele>
        <time>2022-02-24T09:09:07.000Z</time>
      </trkpt>
      <trkpt lat="47.68188" lon="2.1159184">
        <ele>167</ele>
        <time>2022-02-24T09:09:08.000Z</time>
      </trkpt>
      <trkpt lat="47.681873" lon="2.1159394">
        <ele>167</ele>
        <time>2022-02-24T09:09:09.000Z</time>
      </trkpt>
      <trkpt lat="47.68187" lon="2.115959">
        <ele>167</ele>
        <time>2022-02-24T09:09:10.000Z</time>
      </trkpt>
      <trkpt lat="47.68186" lon="2.1159801">
        <ele>167</ele>
        <time>2022-02-24T09:09:11.000Z</time>
      </trkpt>
      <trkpt lat="47.681858" lon="2.1159852">
        <ele>168</ele>
        <time>2022-02-24T09:09:12.000Z</time>
      </trkpt>
      <trkpt lat="47.681858" lon="2.1159852">
        <ele>168</ele>
        <time>2022-02-24T09:09:13.000Z</time>
      </trkpt>
      <trkpt lat="47.681858" lon="2.1159856">
        <ele>168</ele>
        <time>2022-02-24T09:09:14.000Z</time>
      </trkpt>
      <trkpt lat="47.681858" lon="2.1159866">
        <ele>168</ele>
        <time>2022-02-24T09:09:15.000Z</time>
      </trkpt>
      <trkpt lat="47.681858" lon="2.1159866">
        <ele>168</ele>
        <time>2022-02-24T09:09:15.000Z</time>
      </trkpt>
      <trkpt lat="47.681858" lon="2.1159866">
        <ele>168</ele>
        <time>2022-02-24T09:09:15.000Z</time>
      </trkpt>
      <trkpt lat="47.681858" lon="2.1160688">
        <ele>170</ele>
        <time>2022-02-24T09:09:54.000Z</time>
      </trkpt>
      <trkpt lat="47.681854" lon="2.1160903">
        <ele>170</ele>
        <time>2022-02-24T09:09:55.000Z</time>
      </trkpt>
      <trkpt lat="47.68185" lon="2.1161115">
        <ele>170</ele>
        <time>2022-02-24T09:09:56.000Z</time>
      </trkpt>
      <trkpt lat="47.681843" lon="2.1161299">
        <ele>170</ele>
        <time>2022-02-24T09:09:57.000Z</time>
      </trkpt>
      <trkpt lat="47.681843" lon="2.116136">
        <ele>170</ele>
        <time>2022-02-24T09:09:58.000Z</time>
      </trkpt>
      <trkpt lat="47.681843" lon="2.116134">
        <ele>171</ele>
        <time>2022-02-24T09:09:59.000Z</time>
      </trkpt>
      <trkpt lat="47.681843" lon="2.1161332">
        <ele>171</ele>
        <time>2022-02-24T09:10:00.000Z</time>
      </trkpt>
      <trkpt lat="47.681843" lon="2.1161335">
        <ele>171</ele>
        <time>2022-02-24T09:10:01.000Z</time>
      </trkpt>
      <trkpt lat="47.681843" lon="2.1161337">
        <ele>172</ele>
        <time>2022-02-24T09:10:02.000Z</time>
      </trkpt>
      <trkpt lat="47.681843" lon="2.1161337">
        <ele>172</ele>
        <time>2022-02-24T09:10:02.000Z</time>
      </trkpt>
      <trkpt lat="47.681843" lon="2.1161337">
        <ele>172</ele>
        <time>2022-02-24T09:10:02.000Z</time>
      </trkpt>
      <trkpt lat="47.681812" lon="2.11619">
        <ele>171</ele>
        <time>2022-02-24T09:10:10.000Z</time>
      </trkpt>
      <trkpt lat="47.681805" lon="2.1162114">
        <ele>171</ele>
        <time>2022-02-24T09:10:11.000Z</time>
      </trkpt>
      <trkpt lat="47.681797" lon="2.1162255">
        <ele>171</ele>
        <time>2022-02-24T09:10:12.000Z</time>
      </trkpt>
      <trkpt lat="47.68179" lon="2.1162417">
        <ele>172</ele>
        <time>2022-02-24T09:10:13.000Z</time>
      </trkpt>
      <trkpt lat="47.681778" lon="2.1162572">
        <ele>172</ele>
        <time>2022-02-24T09:10:14.000Z</time>
      </trkpt>
      <trkpt lat="47.681774" lon="2.11627">
        <ele>172</ele>
        <time>2022-02-24T09:10:15.000Z</time>
      </trkpt>
      <trkpt lat="47.681767" lon="2.116288">
        <ele>171</ele>
        <time>2022-02-24T09:10:16.000Z</time>
      </trkpt>
      <trkpt lat="47.681767" lon="2.116305">
        <ele>170</ele>
        <time>2022-02-24T09:10:17.000Z</time>
      </trkpt>
      <trkpt lat="47.681767" lon="2.1163144">
        <ele>170</ele>
        <time>2022-02-24T09:10:18.000Z</time>
      </trkpt>
      <trkpt lat="47.681767" lon="2.1163292">
        <ele>171</ele>
        <time>2022-02-24T09:10:19.000Z</time>
      </trkpt>
      <trkpt lat="47.68176" lon="2.1163478">
        <ele>171</ele>
        <time>2022-02-24T09:10:20.000Z</time>
      </trkpt>
      <trkpt lat="47.68176" lon="2.1163576">
        <ele>171</ele>
        <time>2022-02-24T09:10:21.000Z</time>
      </trkpt>
      <trkpt lat="47.681755" lon="2.1163712">
        <ele>171</ele>
        <time>2022-02-24T09:10:22.000Z</time>
      </trkpt>
      <trkpt lat="47.681755" lon="2.1163926">
        <ele>171</ele>
        <time>2022-02-24T09:10:23.000Z</time>
      </trkpt>
      <trkpt lat="47.68175" lon="2.116406">
        <ele>171</ele>
        <time>2022-02-24T09:10:24.000Z</time>
      </trkpt>
      <trkpt lat="47.681744" lon="2.1164174">
        <ele>170</ele>
        <time>2022-02-24T09:10:25.000Z</time>
      </trkpt>
      <trkpt lat="47.681744" lon="2.1164293">
        <ele>170</ele>
        <time>2022-02-24T09:10:26.000Z</time>
      </trkpt>
      <trkpt lat="47.68174" lon="2.1164436">
        <ele>170</ele>
        <time>2022-02-24T09:10:27.000Z</time>
      </trkpt>
      <trkpt lat="47.68174" lon="2.1164553">
        <ele>170</ele>
        <time>2022-02-24T09:10:28.000Z</time>
      </trkpt>
      <trkpt lat="47.68174" lon="2.1164668">
        <ele>170</ele>
        <time>2022-02-24T09:10:29.000Z</time>
      </trkpt>
      <trkpt lat="47.681736" lon="2.116478">
        <ele>170</ele>
        <time>2022-02-24T09:10:30.000Z</time>
      </trkpt>
      <trkpt lat="47.681736" lon="2.1164887">
        <ele>170</ele>
        <time>2022-02-24T09:10:31.000Z</time>
      </trkpt>
      <trkpt lat="47.681736" lon="2.1164887">
        <ele>170</ele>
        <time>2022-02-24T09:10:32.000Z</time>
      </trkpt>
      <trkpt lat="47.681736" lon="2.1164887">
        <ele>170</ele>
        <time>2022-02-24T09:10:33.000Z</time>
      </trkpt>
      <trkpt lat="47.681736" lon="2.1164887">
        <ele>170</ele>
        <time>2022-02-24T09:10:33.000Z</time>
      </trkpt>
      <trkpt lat="47.681736" lon="2.1164887">
        <ele>170</ele>
        <time>2022-02-24T09:10:33.000Z</time>
      </trkpt>
      <trkpt lat="47.6817" lon="2.116565">
        <ele>171</ele>
        <time>2022-02-24T09:11:14.000Z</time>
      </trkpt>
      <trkpt lat="47.6817" lon="2.116565">
        <ele>171</ele>
        <time>2022-02-24T09:11:16.000Z</time>
      </trkpt>
      <trkpt lat="47.6817" lon="2.116565">
        <ele>171</ele>
        <time>2022-02-24T09:11:17.000Z</time>
      </trkpt>
      <trkpt lat="47.6817" lon="2.116565">
        <ele>171</ele>
        <time>2022-02-24T09:11:17.000Z</time>
      </trkpt>
      <trkpt lat="47.6817" lon="2.116565">
        <ele>171</ele>
        <time>2022-02-24T09:11:17.000Z</time>
      </trkpt>
      <trkpt lat="47.681656" lon="2.1166482">
        <ele>177</ele>
        <time>2022-02-24T09:12:02.000Z</time>
      </trkpt>
      <trkpt lat="47.681656" lon="2.116678">
        <ele>176</ele>
        <time>2022-02-24T09:12:03.000Z</time>
      </trkpt>
      <trkpt lat="47.68165" lon="2.1166875">
        <ele>176</ele>
        <time>2022-02-24T09:12:04.000Z</time>
      </trkpt>
      <trkpt lat="47.68165" lon="2.1166875">
        <ele>176</ele>
        <time>2022-02-24T09:12:04.000Z</time>
      </trkpt>
      <trkpt lat="47.681644" lon="2.1167004">
        <ele>176</ele>
        <time>2022-02-24T09:12:06.000Z</time>
      </trkpt>
      <trkpt lat="47.681644" lon="2.1167214">
        <ele>176</ele>
        <time>2022-02-24T09:12:07.000Z</time>
      </trkpt>
      <trkpt lat="47.68164" lon="2.11673">
        <ele>175</ele>
        <time>2022-02-24T09:12:08.000Z</time>
      </trkpt>
      <trkpt lat="47.68164" lon="2.1167302">
        <ele>175</ele>
        <time>2022-02-24T09:12:08.012Z</time>
      </trkpt>
      <trkpt lat="47.68164" lon="2.1167302">
        <ele>132</ele>
        <time>2022-02-24T09:12:08.012Z</time>
      </trkpt>
      <trkpt lat="47.68120882757286" lon="2.116540664520651">
        <ele>131.25338152004497</ele>
        <time>2022-02-24T09:12:48.162Z</time>
      </trkpt>
      <trkpt lat="47.68077765514571" lon="2.1163511290413024">
        <ele>130.99024646719963</ele>
        <time>2022-02-24T09:13:28.312Z</time>
      </trkpt>
      <trkpt lat="47.68034648271857" lon="2.1161615935619533">
        <ele>130.76022452198546</ele>
        <time>2022-02-24T09:14:08.462Z</time>
      </trkpt>
      <trkpt lat="47.67991531029142" lon="2.1159720580826042">
        <ele>129.89234026975583</ele>
        <time>2022-02-24T09:14:48.612Z</time>
      </trkpt>
      <trkpt lat="47.67948413786428" lon="2.115782522603255">
        <ele>130.7040852625396</ele>
        <time>2022-02-24T09:15:28.762Z</time>
      </trkpt>
      <trkpt lat="47.67905296543713" lon="2.1155929871239065">
        <ele>130.71115938332008</ele>
        <time>2022-02-24T09:16:08.912Z</time>
      </trkpt>
      <trkpt lat="47.67862179300999" lon="2.1154034516445575">
        <ele>131.23091506678645</ele>
        <time>2022-02-24T09:16:49.062Z</time>
      </trkpt>
      <trkpt lat="47.678190620582846" lon="2.1152139161652084">
        <ele>132.44522168095472</ele>
        <time>2022-02-24T09:17:29.212Z</time>
      </trkpt>
      <trkpt lat="47.6777594481557" lon="2.1150243806858593">
        <ele>132.31935355047483</ele>
        <time>2022-02-24T09:18:09.362Z</time>
      </trkpt>
      <trkpt lat="47.677328275728556" lon="2.1148348452065107">
        <ele>133.82521433774468</ele>
        <time>2022-02-24T09:18:49.512Z</time>
      </trkpt>
      <trkpt lat="47.67689710330141" lon="2.1146453097271616">
        <ele>140.28894870366568</ele>
        <time>2022-02-24T09:19:29.662Z</time>
      </trkpt>
      <trkpt lat="47.676465930874265" lon="2.1144557742478125">
        <ele>141.95234881623458</ele>
        <time>2022-02-24T09:20:09.812Z</time>
      </trkpt>
      <trkpt lat="47.67629950727317" lon="2.114382617489582">
        <ele>141.3132146279769</ele>
        <time>2022-02-24T09:20:25.000Z</time>
      </trkpt>
      <trkpt lat="47.67629950727317" lon="2.114382617489582">
        <ele>141.3132146279769</ele>
        <time>2022-02-24T09:20:25.000Z</time>
      </trkpt>
      <trkpt lat="47.676468749113916" lon="2.115001339164741">
        <ele>142.0159837747932</ele>
        <time>2022-02-24T09:21:04.349Z</time>
      </trkpt>
      <trkpt lat="47.67663799095466" lon="2.1156200608399">
        <ele>136.11286610521938</ele>
        <time>2022-02-24T09:21:43.698Z</time>
      </trkpt>
      <trkpt lat="47.676697898719794" lon="2.1158390742507436">
        <ele>134.35155054088756</ele>
        <time>2022-02-24T09:21:57.626Z</time>
      </trkpt>
      <trkpt lat="47.67628006641393" lon="2.1160858521208703">
        <ele>137.25761395110797</ele>
        <time>2022-02-24T09:22:36.975Z</time>
      </trkpt>
      <trkpt lat="47.675862234108074" lon="2.116332629990997">
        <ele>136.31626987108066</ele>
        <time>2022-02-24T09:23:16.324Z</time>
      </trkpt>
      <trkpt lat="47.67544440180221" lon="2.1165794078611238">
        <ele>138.9416259554383</ele>
        <time>2022-02-24T09:23:55.673Z</time>
      </trkpt>
      <trkpt lat="47.675026569496346" lon="2.1168261857312505">
        <ele>138.21001506890178</ele>
        <time>2022-02-24T09:24:35.022Z</time>
      </trkpt>
      <trkpt lat="47.67460873719048" lon="2.117072963601377">
        <ele>136.8703496253838</ele>
        <time>2022-02-24T09:25:14.371Z</time>
      </trkpt>
      <trkpt lat="47.674190904884625" lon="2.117319741471504">
        <ele>135.01311806557294</ele>
        <time>2022-02-24T09:25:53.720Z</time>
      </trkpt>
      <trkpt lat="47.67377307257876" lon="2.1175665193416306">
        <ele>136.73474536603408</ele>
        <time>2022-02-24T09:26:33.069Z</time>
      </trkpt>
      <trkpt lat="47.6735" lon="2.1177278">
        <ele>138.0400785394679</ele>
        <time>2022-02-24T09:26:58.785Z</time>
      </trkpt>
      <trkpt lat="47.6735" lon="2.1177278">
        <ele>173</ele>
        <time>2022-02-24T09:26:58.785Z</time>
      </trkpt>
      <trkpt lat="47.6735" lon="2.1177278">
        <ele>138.0400785394679</ele>
        <time>2022-02-24T09:36:00.109Z</time>
      </trkpt>
      <trkpt lat="47.67329781506748" lon="2.1171313326177033">
        <ele>143.1296799188957</ele>
        <time>2022-02-24T09:36:33.094Z</time>
      </trkpt>
      <trkpt lat="47.67309563013496" lon="2.116534865235407">
        <ele>142.80517640106933</ele>
        <time>2022-02-24T09:37:06.079Z</time>
      </trkpt>
      <trkpt lat="47.67289344520244" lon="2.1159383978531103">
        <ele>137.4657192545014</ele>
        <time>2022-02-24T09:37:39.064Z</time>
      </trkpt>
      <trkpt lat="47.672691260269914" lon="2.1153419304708136">
        <ele>137.55398092963813</ele>
        <time>2022-02-24T09:38:12.050Z</time>
      </trkpt>
      <trkpt lat="47.672489075337396" lon="2.1147454630885174">
        <ele>137.29019686891817</ele>
        <time>2022-02-24T09:38:45.036Z</time>
      </trkpt>
      <trkpt lat="47.67228689040488" lon="2.1141489957062207">
        <ele>136.98582430188654</ele>
        <time>2022-02-24T09:39:18.022Z</time>
      </trkpt>
      <trkpt lat="47.67208470547236" lon="2.113552528323924">
        <ele>137.2927797514021</ele>
        <time>2022-02-24T09:39:51.008Z</time>
      </trkpt>
      <trkpt lat="47.67188252053984" lon="2.112956060941628">
        <ele>137.84933382961958</ele>
        <time>2022-02-24T09:40:23.994Z</time>
      </trkpt>
      <trkpt lat="47.67168033560732" lon="2.112359593559331">
        <ele>136.68522846440405</ele>
        <time>2022-02-24T09:40:56.980Z</time>
      </trkpt>
      <trkpt lat="47.67167182199972" lon="2.1123344774976545">
        <ele>136.67029984872875</ele>
        <time>2022-02-24T09:40:58.369Z</time>
      </trkpt>
      <trkpt lat="47.671235046373965" lon="2.1121757868148787">
        <ele>137.3224816699984</ele>
        <time>2022-02-24T09:41:31.354Z</time>
      </trkpt>
      <trkpt lat="47.670798270748215" lon="2.112017096132103">
        <ele>138.8217348957446</ele>
        <time>2022-02-24T09:42:04.339Z</time>
      </trkpt>
      <trkpt lat="47.67036149512246" lon="2.1118584054493272">
        <ele>138.00567030701788</ele>
        <time>2022-02-24T09:42:37.325Z</time>
      </trkpt>
      <trkpt lat="47.6699247194967" lon="2.1116997147665515">
        <ele>137.55850940330438</ele>
        <time>2022-02-24T09:43:10.311Z</time>
      </trkpt>
      <trkpt lat="47.66948794387094" lon="2.1115410240837758">
        <ele>138.97002099156495</ele>
        <time>2022-02-24T09:43:43.297Z</time>
      </trkpt>
      <trkpt lat="47.66905116824519" lon="2.111382333401">
        <ele>140.41623449567786</ele>
        <time>2022-02-24T09:44:16.283Z</time>
      </trkpt>
      <trkpt lat="47.66861439261943" lon="2.1112236427182243">
        <ele>139.20436487018998</ele>
        <time>2022-02-24T09:44:49.269Z</time>
      </trkpt>
      <trkpt lat="47.668177616993674" lon="2.1110649520354485">
        <ele>138.10893003193723</ele>
        <time>2022-02-24T09:45:22.255Z</time>
      </trkpt>
      <trkpt lat="47.66774084136792" lon="2.110906261352673">
        <ele>138</ele>
        <time>2022-02-24T09:45:55.241Z</time>
      </trkpt>
      <trkpt lat="47.667304065742165" lon="2.110747570669897">
        <ele>138.77899619238553</ele>
        <time>2022-02-24T09:46:28.227Z</time>
      </trkpt>
      <trkpt lat="47.66686729011641" lon="2.1105888799871213">
        <ele>137.8822116390506</ele>
        <time>2022-02-24T09:47:01.213Z</time>
      </trkpt>
      <trkpt lat="47.66643051449065" lon="2.1104301893043456">
        <ele>141.81663410659027</ele>
        <time>2022-02-24T09:47:34.199Z</time>
      </trkpt>
      <trkpt lat="47.6659937388649" lon="2.1102714986215694">
        <ele>147.33009977489746</ele>
        <time>2022-02-24T09:48:07.185Z</time>
      </trkpt>
      <trkpt lat="47.66555696323914" lon="2.1101128079387936">
        <ele>148.5450137694841</ele>
        <time>2022-02-24T09:48:40.171Z</time>
      </trkpt>
      <trkpt lat="47.66512018761338" lon="2.109954117256018">
        <ele>148.3020862397202</ele>
        <time>2022-02-24T09:49:13.157Z</time>
      </trkpt>
      <trkpt lat="47.66468341198763" lon="2.109795426573242">
        <ele>148.48037308549905</ele>
        <time>2022-02-24T09:49:46.143Z</time>
      </trkpt>
      <trkpt lat="47.664246636361874" lon="2.1096367358904664">
        <ele>147.73515079309314</ele>
        <time>2022-02-24T09:50:19.129Z</time>
      </trkpt>
      <trkpt lat="47.663809860736116" lon="2.1094780452076907">
        <ele>147.7200563685511</ele>
        <time>2022-02-24T09:50:52.115Z</time>
      </trkpt>
      <trkpt lat="47.66337308511036" lon="2.109319354524915">
        <ele>146.9153779703205</ele>
        <time>2022-02-24T09:51:25.101Z</time>
      </trkpt>
      <trkpt lat="47.66293630948461" lon="2.109160663842139">
        <ele>147.21901633292515</ele>
        <time>2022-02-24T09:51:58.087Z</time>
      </trkpt>
      <trkpt lat="47.66249953385885" lon="2.1090019731593634">
        <ele>145.61827628977142</ele>
        <time>2022-02-24T09:52:31.073Z</time>
      </trkpt>
      <trkpt lat="47.66206275823309" lon="2.1088432824765877">
        <ele>143.12186050932343</ele>
        <time>2022-02-24T09:53:04.059Z</time>
      </trkpt>
      <trkpt lat="47.66162598260734" lon="2.108684591793812">
        <ele>144.51900110906007</ele>
        <time>2022-02-24T09:53:37.045Z</time>
      </trkpt>
      <trkpt lat="47.66118920698158" lon="2.108525901111036">
        <ele>144.7857151956307</ele>
        <time>2022-02-24T09:54:10.031Z</time>
      </trkpt>
      <trkpt lat="47.660752431355824" lon="2.1083672104282605">
        <ele>145.30718085102623</ele>
        <time>2022-02-24T09:54:43.017Z</time>
      </trkpt>
      <trkpt lat="47.660315655730074" lon="2.1082085197454847">
        <ele>146.53843524642804</ele>
        <time>2022-02-24T09:55:16.003Z</time>
      </trkpt>
      <trkpt lat="47.66014679591029" lon="2.108147169069042">
        <ele>146.07789312768813</ele>
        <time>2022-02-24T09:55:28.755Z</time>
      </trkpt>
      <trkpt lat="47.66014679591029" lon="2.108147169069042">
        <ele>146.07789312768813</ele>
        <time>2022-02-24T09:55:28.755Z</time>
      </trkpt>
      <trkpt lat="47.66024288688772" lon="2.1074949694356095">
        <ele>144.02022377373657</ele>
        <time>2022-02-24T09:56:01.741Z</time>
      </trkpt>
      <trkpt lat="47.660338977865145" lon="2.1068427698021774">
        <ele>143.115941378149</ele>
        <time>2022-02-24T09:56:34.490Z</time>
      </trkpt>
      <trkpt lat="47.6603613808127" lon="2.1066907139632747">
        <ele>142.52171823645074</ele>
        <time>2022-02-24T09:56:42.125Z</time>
      </trkpt>
      <trkpt lat="47.6603613808127" lon="2.1066907139632747">
        <ele>142.52171823645074</ele>
        <time>2022-02-24T09:56:42.125Z</time>
      </trkpt>
      <trkpt lat="47.65992267946087" lon="2.1065442195196713">
        <ele>141.90278795740298</ele>
        <time>2022-02-24T09:57:14.874Z</time>
      </trkpt>
      <trkpt lat="47.65971" lon="2.1064732">
        <ele>141.5574149426079</ele>
        <time>2022-02-24T09:57:30.669Z</time>
      </trkpt>
      <trkpt lat="47.65971" lon="2.1064732">
        <ele>177</ele>
        <time>2022-02-24T09:57:30.669Z</time>
      </trkpt>
      <trkpt lat="47.659702" lon="2.106461">
        <ele>177</ele>
        <time>2022-02-24T10:02:57.401Z</time>
      </trkpt>
      <trkpt lat="47.659695" lon="2.1064477">
        <ele>177</ele>
        <time>2022-02-24T10:02:58.401Z</time>
      </trkpt>
      <trkpt lat="47.659683" lon="2.1064355">
        <ele>178</ele>
        <time>2022-02-24T10:02:59.401Z</time>
      </trkpt>
      <trkpt lat="47.659676" lon="2.1064212">
        <ele>178</ele>
        <time>2022-02-24T10:03:00.401Z</time>
      </trkpt>
      <trkpt lat="47.65967" lon="2.1064124">
        <ele>178</ele>
        <time>2022-02-24T10:03:01.401Z</time>
      </trkpt>
      <trkpt lat="47.659664" lon="2.1063964">
        <ele>177</ele>
        <time>2022-02-24T10:03:02.401Z</time>
      </trkpt>
      <trkpt lat="47.659657" lon="2.1063828">
        <ele>177</ele>
        <time>2022-02-24T10:03:03.401Z</time>
      </trkpt>
      <trkpt lat="47.659653" lon="2.1063685">
        <ele>177</ele>
        <time>2022-02-24T10:03:04.401Z</time>
      </trkpt>
      <trkpt lat="47.65965" lon="2.1063526">
        <ele>177</ele>
        <time>2022-02-24T10:03:05.401Z</time>
      </trkpt>
      <trkpt lat="47.659645" lon="2.1063385">
        <ele>177</ele>
        <time>2022-02-24T10:03:06.401Z</time>
      </trkpt>
      <trkpt lat="47.659637" lon="2.1063266">
        <ele>177</ele>
        <time>2022-02-24T10:03:07.401Z</time>
      </trkpt>
      <trkpt lat="47.65963" lon="2.1063118">
        <ele>177</ele>
        <time>2022-02-24T10:03:08.401Z</time>
      </trkpt>
      <trkpt lat="47.659622" lon="2.1062977">
        <ele>177</ele>
        <time>2022-02-24T10:03:09.401Z</time>
      </trkpt>
      <trkpt lat="47.65962" lon="2.106282">
        <ele>177</ele>
        <time>2022-02-24T10:03:10.401Z</time>
      </trkpt>
      <trkpt lat="47.659615" lon="2.1062682">
        <ele>178</ele>
        <time>2022-02-24T10:03:11.401Z</time>
      </trkpt>
      <trkpt lat="47.659607" lon="2.1062534">
        <ele>178</ele>
        <time>2022-02-24T10:03:12.401Z</time>
      </trkpt>
      <trkpt lat="47.659595" lon="2.1062374">
        <ele>178</ele>
        <time>2022-02-24T10:03:13.401Z</time>
      </trkpt>
      <trkpt lat="47.659588" lon="2.1062229">
        <ele>179</ele>
        <time>2022-02-24T10:03:14.401Z</time>
      </trkpt>
      <trkpt lat="47.65958" lon="2.1062045">
        <ele>179</ele>
        <time>2022-02-24T10:03:15.401Z</time>
      </trkpt>
      <trkpt lat="47.65957" lon="2.1061878">
        <ele>179</ele>
        <time>2022-02-24T10:03:16.401Z</time>
      </trkpt>
      <trkpt lat="47.659565" lon="2.106176">
        <ele>179</ele>
        <time>2022-02-24T10:03:17.401Z</time>
      </trkpt>
      <trkpt lat="47.659557" lon="2.1061592">
        <ele>180</ele>
        <time>2022-02-24T10:03:18.401Z</time>
      </trkpt>
      <trkpt lat="47.659554" lon="2.1061406">
        <ele>180</ele>
        <time>2022-02-24T10:03:19.401Z</time>
      </trkpt>
      <trkpt lat="47.659546" lon="2.106124">
        <ele>180</ele>
        <time>2022-02-24T10:03:20.401Z</time>
      </trkpt>
      <trkpt lat="47.65954" lon="2.1061027">
        <ele>180</ele>
        <time>2022-02-24T10:03:21.401Z</time>
      </trkpt>
      <trkpt lat="47.659534" lon="2.1060824">
        <ele>180</ele>
        <time>2022-02-24T10:03:22.401Z</time>
      </trkpt>
      <trkpt lat="47.65953" lon="2.106067">
        <ele>180</ele>
        <time>2022-02-24T10:03:23.401Z</time>
      </trkpt>
      <trkpt lat="47.65952" lon="2.1060545">
        <ele>181</ele>
        <time>2022-02-24T10:03:24.401Z</time>
      </trkpt>
      <trkpt lat="47.65951" lon="2.1060328">
        <ele>181</ele>
        <time>2022-02-24T10:03:25.401Z</time>
      </trkpt>
      <trkpt lat="47.659508" lon="2.106014">
        <ele>181</ele>
        <time>2022-02-24T10:03:26.401Z</time>
      </trkpt>
      <trkpt lat="47.6595" lon="2.1060026">
        <ele>182</ele>
        <time>2022-02-24T10:03:27.401Z</time>
      </trkpt>
      <trkpt lat="47.65949" lon="2.1059875">
        <ele>182</ele>
        <time>2022-02-24T10:03:28.401Z</time>
      </trkpt>
      <trkpt lat="47.65948" lon="2.1059678">
        <ele>181</ele>
        <time>2022-02-24T10:03:29.401Z</time>
      </trkpt>
      <trkpt lat="47.659473" lon="2.1059482">
        <ele>181</ele>
        <time>2022-02-24T10:03:30.401Z</time>
      </trkpt>
      <trkpt lat="47.65947" lon="2.105926">
        <ele>181</ele>
        <time>2022-02-24T10:03:31.401Z</time>
      </trkpt>
      <trkpt lat="47.65946" lon="2.1059067">
        <ele>181</ele>
        <time>2022-02-24T10:03:32.401Z</time>
      </trkpt>
      <trkpt lat="47.65945" lon="2.1058893">
        <ele>181</ele>
        <time>2022-02-24T10:03:33.401Z</time>
      </trkpt>
      <trkpt lat="47.659447" lon="2.1058733">
        <ele>181</ele>
        <time>2022-02-24T10:03:34.401Z</time>
      </trkpt>
      <trkpt lat="47.659443" lon="2.105865">
        <ele>181</ele>
        <time>2022-02-24T10:03:35.401Z</time>
      </trkpt>
      <trkpt lat="47.659435" lon="2.105852">
        <ele>181</ele>
        <time>2022-02-24T10:03:36.401Z</time>
      </trkpt>
      <trkpt lat="47.659428" lon="2.1058388">
        <ele>182</ele>
        <time>2022-02-24T10:03:37.401Z</time>
      </trkpt>
      <trkpt lat="47.65942" lon="2.1058261">
        <ele>181</ele>
        <time>2022-02-24T10:03:38.401Z</time>
      </trkpt>
      <trkpt lat="47.659416" lon="2.1058145">
        <ele>181</ele>
        <time>2022-02-24T10:03:39.401Z</time>
      </trkpt>
      <trkpt lat="47.65941" lon="2.1057978">
        <ele>181</ele>
        <time>2022-02-24T10:03:40.401Z</time>
      </trkpt>
      <trkpt lat="47.6594" lon="2.1057842">
        <ele>181</ele>
        <time>2022-02-24T10:03:41.401Z</time>
      </trkpt>
      <trkpt lat="47.659393" lon="2.1057663">
        <ele>181</ele>
        <time>2022-02-24T10:03:42.401Z</time>
      </trkpt>
      <trkpt lat="47.659378" lon="2.1057491">
        <ele>181</ele>
        <time>2022-02-24T10:03:43.401Z</time>
      </trkpt>
      <trkpt lat="47.65937" lon="2.1057358">
        <ele>182</ele>
        <time>2022-02-24T10:03:44.401Z</time>
      </trkpt>
      <trkpt lat="47.659367" lon="2.1057196">
        <ele>182</ele>
        <time>2022-02-24T10:03:45.401Z</time>
      </trkpt>
      <trkpt lat="47.65937" lon="2.1057072">
        <ele>183</ele>
        <time>2022-02-24T10:03:46.401Z</time>
      </trkpt>
      <trkpt lat="47.659367" lon="2.105698">
        <ele>183</ele>
        <time>2022-02-24T10:03:47.401Z</time>
      </trkpt>
      <trkpt lat="47.659367" lon="2.105698">
        <ele>183</ele>
        <time>2022-02-24T10:03:48.401Z</time>
      </trkpt>
      <trkpt lat="47.659367" lon="2.105698">
        <ele>183</ele>
        <time>2022-02-24T10:03:49.401Z</time>
      </trkpt>
      <trkpt lat="47.65936" lon="2.105671">
        <ele>182</ele>
        <time>2022-02-24T10:03:50.401Z</time>
      </trkpt>
      <trkpt lat="47.659355" lon="2.1056612">
        <ele>182</ele>
        <time>2022-02-24T10:03:51.401Z</time>
      </trkpt>
      <trkpt lat="47.65935" lon="2.1056495">
        <ele>183</ele>
        <time>2022-02-24T10:03:52.401Z</time>
      </trkpt>
      <trkpt lat="47.659344" lon="2.1056352">
        <ele>183</ele>
        <time>2022-02-24T10:03:53.401Z</time>
      </trkpt>
      <trkpt lat="47.65934" lon="2.1056254">
        <ele>183</ele>
        <time>2022-02-24T10:03:54.401Z</time>
      </trkpt>
      <trkpt lat="47.659332" lon="2.1056118">
        <ele>182</ele>
        <time>2022-02-24T10:03:55.401Z</time>
      </trkpt>
      <trkpt lat="47.65933" lon="2.1056004">
        <ele>182</ele>
        <time>2022-02-24T10:03:56.401Z</time>
      </trkpt>
      <trkpt lat="47.65932" lon="2.1055877">
        <ele>181</ele>
        <time>2022-02-24T10:03:57.401Z</time>
      </trkpt>
      <trkpt lat="47.659317" lon="2.1055708">
        <ele>181</ele>
        <time>2022-02-24T10:03:58.401Z</time>
      </trkpt>
      <trkpt lat="47.659313" lon="2.105557">
        <ele>181</ele>
        <time>2022-02-24T10:03:59.401Z</time>
      </trkpt>
      <trkpt lat="47.659306" lon="2.1055481">
        <ele>181</ele>
        <time>2022-02-24T10:04:00.401Z</time>
      </trkpt>
      <trkpt lat="47.659298" lon="2.1055384">
        <ele>180</ele>
        <time>2022-02-24T10:04:01.401Z</time>
      </trkpt>
      <trkpt lat="47.65929" lon="2.1055338">
        <ele>181</ele>
        <time>2022-02-24T10:04:02.401Z</time>
      </trkpt>
      <trkpt lat="47.659283" lon="2.1055222">
        <ele>181</ele>
        <time>2022-02-24T10:04:03.401Z</time>
      </trkpt>
      <trkpt lat="47.659283" lon="2.1055064">
        <ele>181</ele>
        <time>2022-02-24T10:04:04.401Z</time>
      </trkpt>
      <trkpt lat="47.65928" lon="2.1054933">
        <ele>182</ele>
        <time>2022-02-24T10:04:05.401Z</time>
      </trkpt>
      <trkpt lat="47.659275" lon="2.1054792">
        <ele>182</ele>
        <time>2022-02-24T10:04:06.401Z</time>
      </trkpt>
      <trkpt lat="47.65927" lon="2.105467">
        <ele>182</ele>
        <time>2022-02-24T10:04:07.401Z</time>
      </trkpt>
      <trkpt lat="47.65927" lon="2.105454">
        <ele>182</ele>
        <time>2022-02-24T10:04:08.401Z</time>
      </trkpt>
      <trkpt lat="47.65927" lon="2.1054456">
        <ele>182</ele>
        <time>2022-02-24T10:04:09.401Z</time>
      </trkpt>
      <trkpt lat="47.65927" lon="2.1054318">
        <ele>182</ele>
        <time>2022-02-24T10:04:10.401Z</time>
      </trkpt>
      <trkpt lat="47.65927" lon="2.1054218">
        <ele>183</ele>
        <time>2022-02-24T10:04:11.401Z</time>
      </trkpt>
      <trkpt lat="47.65927" lon="2.1054063">
        <ele>182</ele>
        <time>2022-02-24T10:04:12.401Z</time>
      </trkpt>
      <trkpt lat="47.65927" lon="2.1053956">
        <ele>183</ele>
        <time>2022-02-24T10:04:13.401Z</time>
      </trkpt>
      <trkpt lat="47.65927" lon="2.10538">
        <ele>183</ele>
        <time>2022-02-24T10:04:14.401Z</time>
      </trkpt>
      <trkpt lat="47.659264" lon="2.1053622">
        <ele>183</ele>
        <time>2022-02-24T10:04:15.401Z</time>
      </trkpt>
      <trkpt lat="47.65926" lon="2.105346">
        <ele>183</ele>
        <time>2022-02-24T10:04:16.401Z</time>
      </trkpt>
      <trkpt lat="47.659256" lon="2.1053252">
        <ele>183</ele>
        <time>2022-02-24T10:04:17.401Z</time>
      </trkpt>
      <trkpt lat="47.659256" lon="2.1053045">
        <ele>182</ele>
        <time>2022-02-24T10:04:18.401Z</time>
      </trkpt>
      <trkpt lat="47.659252" lon="2.105289">
        <ele>182</ele>
        <time>2022-02-24T10:04:19.401Z</time>
      </trkpt>
      <trkpt lat="47.659245" lon="2.1052725">
        <ele>182</ele>
        <time>2022-02-24T10:04:20.401Z</time>
      </trkpt>
      <trkpt lat="47.65924" lon="2.1052563">
        <ele>183</ele>
        <time>2022-02-24T10:04:21.401Z</time>
      </trkpt>
      <trkpt lat="47.65924" lon="2.1052363">
        <ele>182</ele>
        <time>2022-02-24T10:04:22.401Z</time>
      </trkpt>
      <trkpt lat="47.659237" lon="2.105214">
        <ele>182</ele>
        <time>2022-02-24T10:04:23.401Z</time>
      </trkpt>
      <trkpt lat="47.65923" lon="2.1051931">
        <ele>182</ele>
        <time>2022-02-24T10:04:24.401Z</time>
      </trkpt>
      <trkpt lat="47.659225" lon="2.1051784">
        <ele>182</ele>
        <time>2022-02-24T10:04:25.401Z</time>
      </trkpt>
      <trkpt lat="47.65922" lon="2.1051679">
        <ele>183</ele>
        <time>2022-02-24T10:04:26.401Z</time>
      </trkpt>
      <trkpt lat="47.659218" lon="2.1051564">
        <ele>183</ele>
        <time>2022-02-24T10:04:27.401Z</time>
      </trkpt>
      <trkpt lat="47.659218" lon="2.1051564">
        <ele>183</ele>
        <time>2022-02-24T10:04:28.401Z</time>
      </trkpt>
      <trkpt lat="47.659218" lon="2.1051564">
        <ele>183</ele>
        <time>2022-02-24T10:04:29.401Z</time>
      </trkpt>
      <trkpt lat="47.659214" lon="2.1051197">
        <ele>182</ele>
        <time>2022-02-24T10:04:30.401Z</time>
      </trkpt>
      <trkpt lat="47.659214" lon="2.105102">
        <ele>182</ele>
        <time>2022-02-24T10:04:31.401Z</time>
      </trkpt>
      <trkpt lat="47.659206" lon="2.1050823">
        <ele>182</ele>
        <time>2022-02-24T10:04:32.401Z</time>
      </trkpt>
      <trkpt lat="47.65921" lon="2.1050634">
        <ele>182</ele>
        <time>2022-02-24T10:04:33.401Z</time>
      </trkpt>
      <trkpt lat="47.659214" lon="2.105046">
        <ele>182</ele>
        <time>2022-02-24T10:04:34.401Z</time>
      </trkpt>
      <trkpt lat="47.659214" lon="2.1050296">
        <ele>181</ele>
        <time>2022-02-24T10:04:35.401Z</time>
      </trkpt>
      <trkpt lat="47.659214" lon="2.105016">
        <ele>181</ele>
        <time>2022-02-24T10:04:36.401Z</time>
      </trkpt>
      <trkpt lat="47.65921" lon="2.1050048">
        <ele>181</ele>
        <time>2022-02-24T10:04:37.401Z</time>
      </trkpt>
      <trkpt lat="47.65921" lon="2.1049905">
        <ele>181</ele>
        <time>2022-02-24T10:04:38.401Z</time>
      </trkpt>
      <trkpt lat="47.65921" lon="2.104978">
        <ele>181</ele>
        <time>2022-02-24T10:04:39.401Z</time>
      </trkpt>
      <trkpt lat="47.65921" lon="2.1049654">
        <ele>181</ele>
        <time>2022-02-24T10:04:40.401Z</time>
      </trkpt>
      <trkpt lat="47.659206" lon="2.1049507">
        <ele>181</ele>
        <time>2022-02-24T10:04:41.401Z</time>
      </trkpt>
      <trkpt lat="47.6592" lon="2.104933">
        <ele>180</ele>
        <time>2022-02-24T10:04:42.401Z</time>
      </trkpt>
      <trkpt lat="47.6592" lon="2.1049135">
        <ele>180</ele>
        <time>2022-02-24T10:04:43.401Z</time>
      </trkpt>
      <trkpt lat="47.659195" lon="2.1048963">
        <ele>180</ele>
        <time>2022-02-24T10:04:44.401Z</time>
      </trkpt>
      <trkpt lat="47.659195" lon="2.1048784">
        <ele>180</ele>
        <time>2022-02-24T10:04:45.401Z</time>
      </trkpt>
      <trkpt lat="47.659195" lon="2.1048625">
        <ele>179</ele>
        <time>2022-02-24T10:04:46.401Z</time>
      </trkpt>
      <trkpt lat="47.659195" lon="2.1048446">
        <ele>179</ele>
        <time>2022-02-24T10:04:47.401Z</time>
      </trkpt>
      <trkpt lat="47.659187" lon="2.1048276">
        <ele>179</ele>
        <time>2022-02-24T10:04:48.401Z</time>
      </trkpt>
      <trkpt lat="47.659187" lon="2.1048102">
        <ele>178</ele>
        <time>2022-02-24T10:04:49.401Z</time>
      </trkpt>
      <trkpt lat="47.659184" lon="2.104797">
        <ele>178</ele>
        <time>2022-02-24T10:04:50.401Z</time>
      </trkpt>
      <trkpt lat="47.659176" lon="2.1047852">
        <ele>178</ele>
        <time>2022-02-24T10:04:51.401Z</time>
      </trkpt>
      <trkpt lat="47.659172" lon="2.1047714">
        <ele>178</ele>
        <time>2022-02-24T10:04:52.401Z</time>
      </trkpt>
      <trkpt lat="47.65917" lon="2.104759">
        <ele>178</ele>
        <time>2022-02-24T10:04:53.401Z</time>
      </trkpt>
      <trkpt lat="47.659157" lon="2.1047451">
        <ele>178</ele>
        <time>2022-02-24T10:04:54.401Z</time>
      </trkpt>
      <trkpt lat="47.65915" lon="2.104732">
        <ele>178</ele>
        <time>2022-02-24T10:04:55.401Z</time>
      </trkpt>
      <trkpt lat="47.659145" lon="2.1047182">
        <ele>179</ele>
        <time>2022-02-24T10:04:56.401Z</time>
      </trkpt>
      <trkpt lat="47.659134" lon="2.1047046">
        <ele>179</ele>
        <time>2022-02-24T10:04:57.401Z</time>
      </trkpt>
      <trkpt lat="47.65913" lon="2.1046894">
        <ele>178</ele>
        <time>2022-02-24T10:04:58.401Z</time>
      </trkpt>
      <trkpt lat="47.65912" lon="2.1046822">
        <ele>178</ele>
        <time>2022-02-24T10:04:59.401Z</time>
      </trkpt>
      <trkpt lat="47.659107" lon="2.1046722">
        <ele>178</ele>
        <time>2022-02-24T10:05:00.401Z</time>
      </trkpt>
      <trkpt lat="47.659103" lon="2.1046674">
        <ele>177</ele>
        <time>2022-02-24T10:05:01.401Z</time>
      </trkpt>
      <trkpt lat="47.659103" lon="2.1046674">
        <ele>177</ele>
        <time>2022-02-24T10:05:02.401Z</time>
      </trkpt>
      <trkpt lat="47.659103" lon="2.1046674">
        <ele>177</ele>
        <time>2022-02-24T10:05:03.401Z</time>
      </trkpt>
      <trkpt lat="47.65909" lon="2.104644">
        <ele>177</ele>
        <time>2022-02-24T10:05:04.401Z</time>
      </trkpt>
      <trkpt lat="47.659084" lon="2.1046293">
        <ele>178</ele>
        <time>2022-02-24T10:05:05.401Z</time>
      </trkpt>
      <trkpt lat="47.65908" lon="2.1046088">
        <ele>178</ele>
        <time>2022-02-24T10:05:06.401Z</time>
      </trkpt>
      <trkpt lat="47.659073" lon="2.104596">
        <ele>178</ele>
        <time>2022-02-24T10:05:07.401Z</time>
      </trkpt>
      <trkpt lat="47.659065" lon="2.10458">
        <ele>178</ele>
        <time>2022-02-24T10:05:08.401Z</time>
      </trkpt>
      <trkpt lat="47.65906" lon="2.104566">
        <ele>178</ele>
        <time>2022-02-24T10:05:09.401Z</time>
      </trkpt>
      <trkpt lat="47.659054" lon="2.1045518">
        <ele>178</ele>
        <time>2022-02-24T10:05:10.401Z</time>
      </trkpt>
      <trkpt lat="47.65905" lon="2.104542">
        <ele>178</ele>
        <time>2022-02-24T10:05:11.401Z</time>
      </trkpt>
      <trkpt lat="47.659042" lon="2.1045315">
        <ele>178</ele>
        <time>2022-02-24T10:05:12.401Z</time>
      </trkpt>
      <trkpt lat="47.659035" lon="2.1045234">
        <ele>178</ele>
        <time>2022-02-24T10:05:13.401Z</time>
      </trkpt>
      <trkpt lat="47.65903" lon="2.1045141">
        <ele>177</ele>
        <time>2022-02-24T10:05:14.401Z</time>
      </trkpt>
      <trkpt lat="47.659027" lon="2.1045">
        <ele>177</ele>
        <time>2022-02-24T10:05:15.401Z</time>
      </trkpt>
      <trkpt lat="47.65902" lon="2.1044862">
        <ele>176</ele>
        <time>2022-02-24T10:05:16.401Z</time>
      </trkpt>
      <trkpt lat="47.659016" lon="2.104477">
        <ele>175</ele>
        <time>2022-02-24T10:05:17.401Z</time>
      </trkpt>
      <trkpt lat="47.659016" lon="2.104477">
        <ele>175</ele>
        <time>2022-02-24T10:05:18.401Z</time>
      </trkpt>
      <trkpt lat="47.659004" lon="2.1044526">
        <ele>174</ele>
        <time>2022-02-24T10:05:19.401Z</time>
      </trkpt>
      <trkpt lat="47.659" lon="2.1044376">
        <ele>175</ele>
        <time>2022-02-24T10:05:20.401Z</time>
      </trkpt>
      <trkpt lat="47.658997" lon="2.1044228">
        <ele>174</ele>
        <time>2022-02-24T10:05:21.401Z</time>
      </trkpt>
      <trkpt lat="47.658993" lon="2.1044064">
        <ele>175</ele>
        <time>2022-02-24T10:05:22.401Z</time>
      </trkpt>
      <trkpt lat="47.658993" lon="2.1043873">
        <ele>175</ele>
        <time>2022-02-24T10:05:23.401Z</time>
      </trkpt>
      <trkpt lat="47.658993" lon="2.1043687">
        <ele>174</ele>
        <time>2022-02-24T10:05:24.401Z</time>
      </trkpt>
      <trkpt lat="47.658993" lon="2.1043553">
        <ele>175</ele>
        <time>2022-02-24T10:05:25.401Z</time>
      </trkpt>
      <trkpt lat="47.658993" lon="2.1043437">
        <ele>175</ele>
        <time>2022-02-24T10:05:26.401Z</time>
      </trkpt>
      <trkpt lat="47.658993" lon="2.1043437">
        <ele>175</ele>
        <time>2022-02-24T10:05:27.401Z</time>
      </trkpt>
      <trkpt lat="47.658993" lon="2.1043437">
        <ele>175</ele>
        <time>2022-02-24T10:05:28.401Z</time>
      </trkpt>
      <trkpt lat="47.65899" lon="2.1043134">
        <ele>174</ele>
        <time>2022-02-24T10:05:29.401Z</time>
      </trkpt>
      <trkpt lat="47.65899" lon="2.1042976">
        <ele>175</ele>
        <time>2022-02-24T10:05:30.401Z</time>
      </trkpt>
      <trkpt lat="47.658985" lon="2.1042867">
        <ele>176</ele>
        <time>2022-02-24T10:05:31.401Z</time>
      </trkpt>
      <trkpt lat="47.658978" lon="2.1042764">
        <ele>176</ele>
        <time>2022-02-24T10:05:32.401Z</time>
      </trkpt>
      <trkpt lat="47.658974" lon="2.1042645">
        <ele>176</ele>
        <time>2022-02-24T10:05:33.401Z</time>
      </trkpt>
      <trkpt lat="47.65897" lon="2.1042528">
        <ele>177</ele>
        <time>2022-02-24T10:05:34.401Z</time>
      </trkpt>
      <trkpt lat="47.65897" lon="2.1042528">
        <ele>177</ele>
        <time>2022-02-24T10:05:35.401Z</time>
      </trkpt>
      <trkpt lat="47.65897" lon="2.1042528">
        <ele>177</ele>
        <time>2022-02-24T10:05:36.401Z</time>
      </trkpt>
      <trkpt lat="47.658962" lon="2.1042185">
        <ele>177</ele>
        <time>2022-02-24T10:05:37.401Z</time>
      </trkpt>
      <trkpt lat="47.65896" lon="2.1042073">
        <ele>177</ele>
        <time>2022-02-24T10:05:38.401Z</time>
      </trkpt>
      <trkpt lat="47.658955" lon="2.104192">
        <ele>176</ele>
        <time>2022-02-24T10:05:39.401Z</time>
      </trkpt>
      <trkpt lat="47.65895" lon="2.10418">
        <ele>177</ele>
        <time>2022-02-24T10:05:40.401Z</time>
      </trkpt>
      <trkpt lat="47.65895" lon="2.10418">
        <ele>177</ele>
        <time>2022-02-24T10:05:41.401Z</time>
      </trkpt>
      <trkpt lat="47.65895" lon="2.10418">
        <ele>177</ele>
        <time>2022-02-24T10:05:42.401Z</time>
      </trkpt>
      <trkpt lat="47.65894" lon="2.104153">
        <ele>176</ele>
        <time>2022-02-24T10:05:43.401Z</time>
      </trkpt>
      <trkpt lat="47.658936" lon="2.104135">
        <ele>176</ele>
        <time>2022-02-24T10:05:44.401Z</time>
      </trkpt>
      <trkpt lat="47.65893" lon="2.1041174">
        <ele>175</ele>
        <time>2022-02-24T10:05:45.401Z</time>
      </trkpt>
      <trkpt lat="47.658928" lon="2.104101">
        <ele>174</ele>
        <time>2022-02-24T10:05:46.401Z</time>
      </trkpt>
      <trkpt lat="47.658924" lon="2.1040826">
        <ele>174</ele>
        <time>2022-02-24T10:05:47.401Z</time>
      </trkpt>
      <trkpt lat="47.65892" lon="2.1040664">
        <ele>173</ele>
        <time>2022-02-24T10:05:48.401Z</time>
      </trkpt>
      <trkpt lat="47.658916" lon="2.10405">
        <ele>173</ele>
        <time>2022-02-24T10:05:49.401Z</time>
      </trkpt>
      <trkpt lat="47.65891" lon="2.1040382">
        <ele>173</ele>
        <time>2022-02-24T10:05:50.401Z</time>
      </trkpt>
      <trkpt lat="47.6589" lon="2.104021">
        <ele>173</ele>
        <time>2022-02-24T10:05:51.401Z</time>
      </trkpt>
      <trkpt lat="47.658894" lon="2.1040094">
        <ele>173</ele>
        <time>2022-02-24T10:05:52.401Z</time>
      </trkpt>
      <trkpt lat="47.658886" lon="2.1039934">
        <ele>172</ele>
        <time>2022-02-24T10:05:53.401Z</time>
      </trkpt>
      <trkpt lat="47.658882" lon="2.1039765">
        <ele>172</ele>
        <time>2022-02-24T10:05:54.401Z</time>
      </trkpt>
      <trkpt lat="47.658875" lon="2.1039615">
        <ele>172</ele>
        <time>2022-02-24T10:05:55.401Z</time>
      </trkpt>
      <trkpt lat="47.65887" lon="2.1039479">
        <ele>171</ele>
        <time>2022-02-24T10:05:56.401Z</time>
      </trkpt>
      <trkpt lat="47.658867" lon="2.1039312">
        <ele>171</ele>
        <time>2022-02-24T10:05:57.401Z</time>
      </trkpt>
      <trkpt lat="47.65886" lon="2.1039162">
        <ele>171</ele>
        <time>2022-02-24T10:05:58.401Z</time>
      </trkpt>
      <trkpt lat="47.658855" lon="2.1039047">
        <ele>171</ele>
        <time>2022-02-24T10:05:59.401Z</time>
      </trkpt>
      <trkpt lat="47.65885" lon="2.103895">
        <ele>172</ele>
        <time>2022-02-24T10:06:00.401Z</time>
      </trkpt>
      <trkpt lat="47.65885" lon="2.1038785">
        <ele>172</ele>
        <time>2022-02-24T10:06:01.401Z</time>
      </trkpt>
      <trkpt lat="47.658848" lon="2.1038623">
        <ele>172</ele>
        <time>2022-02-24T10:06:02.401Z</time>
      </trkpt>
      <trkpt lat="47.658848" lon="2.1038535">
        <ele>172</ele>
        <time>2022-02-24T10:06:03.401Z</time>
      </trkpt>
      <trkpt lat="47.658848" lon="2.1038482">
        <ele>172</ele>
        <time>2022-02-24T10:06:04.401Z</time>
      </trkpt>
      <trkpt lat="47.658848" lon="2.1038365">
        <ele>173</ele>
        <time>2022-02-24T10:06:05.401Z</time>
      </trkpt>
      <trkpt lat="47.658844" lon="2.103821">
        <ele>173</ele>
        <time>2022-02-24T10:06:06.401Z</time>
      </trkpt>
      <trkpt lat="47.658844" lon="2.103821">
        <ele>173</ele>
        <time>2022-02-24T10:06:07.401Z</time>
      </trkpt>
      <trkpt lat="47.658844" lon="2.103821">
        <ele>173</ele>
        <time>2022-02-24T10:06:08.401Z</time>
      </trkpt>
      <trkpt lat="47.658833" lon="2.1037817">
        <ele>173</ele>
        <time>2022-02-24T10:06:09.401Z</time>
      </trkpt>
      <trkpt lat="47.65883" lon="2.1037679">
        <ele>173</ele>
        <time>2022-02-24T10:06:10.401Z</time>
      </trkpt>
      <trkpt lat="47.658825" lon="2.1037552">
        <ele>173</ele>
        <time>2022-02-24T10:06:11.401Z</time>
      </trkpt>
      <trkpt lat="47.658825" lon="2.1037405">
        <ele>172</ele>
        <time>2022-02-24T10:06:12.401Z</time>
      </trkpt>
      <trkpt lat="47.65882" lon="2.1037247">
        <ele>172</ele>
        <time>2022-02-24T10:06:13.401Z</time>
      </trkpt>
      <trkpt lat="47.658817" lon="2.1037061">
        <ele>172</ele>
        <time>2022-02-24T10:06:14.401Z</time>
      </trkpt>
      <trkpt lat="47.658813" lon="2.1036825">
        <ele>173</ele>
        <time>2022-02-24T10:06:15.401Z</time>
      </trkpt>
      <trkpt lat="47.658806" lon="2.1036577">
        <ele>173</ele>
        <time>2022-02-24T10:06:16.401Z</time>
      </trkpt>
      <trkpt lat="47.658802" lon="2.1036353">
        <ele>173</ele>
        <time>2022-02-24T10:06:17.401Z</time>
      </trkpt>
      <trkpt lat="47.6588" lon="2.1036136">
        <ele>173</ele>
        <time>2022-02-24T10:06:18.401Z</time>
      </trkpt>
      <trkpt lat="47.658794" lon="2.1035993">
        <ele>173</ele>
        <time>2022-02-24T10:06:19.401Z</time>
      </trkpt>
      <trkpt lat="47.65879" lon="2.1035817">
        <ele>173</ele>
        <time>2022-02-24T10:06:20.401Z</time>
      </trkpt>
      <trkpt lat="47.658787" lon="2.103566">
        <ele>173</ele>
        <time>2022-02-24T10:06:21.401Z</time>
      </trkpt>
      <trkpt lat="47.658783" lon="2.1035483">
        <ele>172</ele>
        <time>2022-02-24T10:06:22.401Z</time>
      </trkpt>
      <trkpt lat="47.65878" lon="2.103534">
        <ele>172</ele>
        <time>2022-02-24T10:06:23.401Z</time>
      </trkpt>
      <trkpt lat="47.658775" lon="2.103516">
        <ele>172</ele>
        <time>2022-02-24T10:06:24.401Z</time>
      </trkpt>
      <trkpt lat="47.65877" lon="2.103503">
        <ele>173</ele>
        <time>2022-02-24T10:06:25.401Z</time>
      </trkpt>
      <trkpt lat="47.658764" lon="2.1034865">
        <ele>172</ele>
        <time>2022-02-24T10:06:26.401Z</time>
      </trkpt>
      <trkpt lat="47.65876" lon="2.1034725">
        <ele>172</ele>
        <time>2022-02-24T10:06:27.401Z</time>
      </trkpt>
      <trkpt lat="47.658756" lon="2.1034563">
        <ele>172</ele>
        <time>2022-02-24T10:06:28.401Z</time>
      </trkpt>
      <trkpt lat="47.658752" lon="2.1034398">
        <ele>172</ele>
        <time>2022-02-24T10:06:29.401Z</time>
      </trkpt>
      <trkpt lat="47.658745" lon="2.1034234">
        <ele>173</ele>
        <time>2022-02-24T10:06:30.401Z</time>
      </trkpt>
      <trkpt lat="47.65874" lon="2.1034095">
        <ele>173</ele>
        <time>2022-02-24T10:06:31.401Z</time>
      </trkpt>
      <trkpt lat="47.65874" lon="2.1033974">
        <ele>172</ele>
        <time>2022-02-24T10:06:32.401Z</time>
      </trkpt>
      <trkpt lat="47.65874" lon="2.1033974">
        <ele>172</ele>
        <time>2022-02-24T10:06:33.401Z</time>
      </trkpt>
      <trkpt lat="47.65873" lon="2.1033695">
        <ele>172</ele>
        <time>2022-02-24T10:06:34.401Z</time>
      </trkpt>
      <trkpt lat="47.658726" lon="2.1033528">
        <ele>173</ele>
        <time>2022-02-24T10:06:35.401Z</time>
      </trkpt>
      <trkpt lat="47.65872" lon="2.1033368">
        <ele>173</ele>
        <time>2022-02-24T10:06:36.401Z</time>
      </trkpt>
      <trkpt lat="47.65872" lon="2.1033185">
        <ele>173</ele>
        <time>2022-02-24T10:06:37.401Z</time>
      </trkpt>
      <trkpt lat="47.658714" lon="2.103297">
        <ele>173</ele>
        <time>2022-02-24T10:06:38.401Z</time>
      </trkpt>
      <trkpt lat="47.65871" lon="2.1032803">
        <ele>172</ele>
        <time>2022-02-24T10:06:39.401Z</time>
      </trkpt>
      <trkpt lat="47.658707" lon="2.1032598">
        <ele>172</ele>
        <time>2022-02-24T10:06:40.401Z</time>
      </trkpt>
      <trkpt lat="47.6587" lon="2.1032443">
        <ele>172</ele>
        <time>2022-02-24T10:06:41.401Z</time>
      </trkpt>
      <trkpt lat="47.658695" lon="2.103229">
        <ele>172</ele>
        <time>2022-02-24T10:06:42.401Z</time>
      </trkpt>
      <trkpt lat="47.658688" lon="2.1032104">
        <ele>172</ele>
        <time>2022-02-24T10:06:43.401Z</time>
      </trkpt>
      <trkpt lat="47.658684" lon="2.103195">
        <ele>171</ele>
        <time>2022-02-24T10:06:44.401Z</time>
      </trkpt>
      <trkpt lat="47.65868" lon="2.1031792">
        <ele>171</ele>
        <time>2022-02-24T10:06:45.401Z</time>
      </trkpt>
      <trkpt lat="47.65868" lon="2.1031654">
        <ele>172</ele>
        <time>2022-02-24T10:06:46.401Z</time>
      </trkpt>
      <trkpt lat="47.65868" lon="2.1031654">
        <ele>172</ele>
        <time>2022-02-24T10:06:47.401Z</time>
      </trkpt>
      <trkpt lat="47.65868" lon="2.1031654">
        <ele>172</ele>
        <time>2022-02-24T10:06:48.401Z</time>
      </trkpt>
      <trkpt lat="47.65868" lon="2.1031258">
        <ele>171</ele>
        <time>2022-02-24T10:06:49.401Z</time>
      </trkpt>
      <trkpt lat="47.65868" lon="2.1031127">
        <ele>171</ele>
        <time>2022-02-24T10:06:50.401Z</time>
      </trkpt>
      <trkpt lat="47.65868" lon="2.1030982">
        <ele>170</ele>
        <time>2022-02-24T10:06:51.401Z</time>
      </trkpt>
      <trkpt lat="47.658684" lon="2.1030881">
        <ele>170</ele>
        <time>2022-02-24T10:06:52.401Z</time>
      </trkpt>
      <trkpt lat="47.658688" lon="2.103079">
        <ele>170</ele>
        <time>2022-02-24T10:06:53.401Z</time>
      </trkpt>
      <trkpt lat="47.658688" lon="2.1030638">
        <ele>170</ele>
        <time>2022-02-24T10:06:54.401Z</time>
      </trkpt>
      <trkpt lat="47.658688" lon="2.103049">
        <ele>170</ele>
        <time>2022-02-24T10:06:55.401Z</time>
      </trkpt>
      <trkpt lat="47.658688" lon="2.103049">
        <ele>170</ele>
        <time>2022-02-24T10:06:56.401Z</time>
      </trkpt>
      <trkpt lat="47.658688" lon="2.103049">
        <ele>170</ele>
        <time>2022-02-24T10:06:57.401Z</time>
      </trkpt>
      <trkpt lat="47.658676" lon="2.1030092">
        <ele>172</ele>
        <time>2022-02-24T10:06:58.401Z</time>
      </trkpt>
      <trkpt lat="47.65867" lon="2.1029987">
        <ele>172</ele>
        <time>2022-02-24T10:06:59.401Z</time>
      </trkpt>
      <trkpt lat="47.65866" lon="2.1029868">
        <ele>172</ele>
        <time>2022-02-24T10:07:00.401Z</time>
      </trkpt>
      <trkpt lat="47.658657" lon="2.1029687">
        <ele>172</ele>
        <time>2022-02-24T10:07:01.401Z</time>
      </trkpt>
      <trkpt lat="47.65865" lon="2.102953">
        <ele>172</ele>
        <time>2022-02-24T10:07:02.401Z</time>
      </trkpt>
      <trkpt lat="47.658646" lon="2.102935">
        <ele>171</ele>
        <time>2022-02-24T10:07:03.401Z</time>
      </trkpt>
      <trkpt lat="47.65864" lon="2.1029186">
        <ele>171</ele>
        <time>2022-02-24T10:07:04.401Z</time>
      </trkpt>
      <trkpt lat="47.658634" lon="2.102903">
        <ele>171</ele>
        <time>2022-02-24T10:07:05.401Z</time>
      </trkpt>
      <trkpt lat="47.65863" lon="2.1028872">
        <ele>171</ele>
        <time>2022-02-24T10:07:06.401Z</time>
      </trkpt>
      <trkpt lat="47.658623" lon="2.1028738">
        <ele>171</ele>
        <time>2022-02-24T10:07:07.401Z</time>
      </trkpt>
      <trkpt lat="47.65862" lon="2.1028597">
        <ele>171</ele>
        <time>2022-02-24T10:07:08.401Z</time>
      </trkpt>
      <trkpt lat="47.658615" lon="2.1028442">
        <ele>171</ele>
        <time>2022-02-24T10:07:09.401Z</time>
      </trkpt>
      <trkpt lat="47.65861" lon="2.1028304">
        <ele>171</ele>
        <time>2022-02-24T10:07:10.401Z</time>
      </trkpt>
      <trkpt lat="47.658604" lon="2.1028168">
        <ele>171</ele>
        <time>2022-02-24T10:07:11.401Z</time>
      </trkpt>
      <trkpt lat="47.6586" lon="2.1028023">
        <ele>171</ele>
        <time>2022-02-24T10:07:12.401Z</time>
      </trkpt>
      <trkpt lat="47.658596" lon="2.102784">
        <ele>171</ele>
        <time>2022-02-24T10:07:13.401Z</time>
      </trkpt>
      <trkpt lat="47.65859" lon="2.1027608">
        <ele>171</ele>
        <time>2022-02-24T10:07:14.401Z</time>
      </trkpt>
      <trkpt lat="47.65858" lon="2.1027398">
        <ele>171</ele>
        <time>2022-02-24T10:07:15.401Z</time>
      </trkpt>
      <trkpt lat="47.658577" lon="2.102715">
        <ele>171</ele>
        <time>2022-02-24T10:07:16.401Z</time>
      </trkpt>
      <trkpt lat="47.658566" lon="2.1026886">
        <ele>171</ele>
        <time>2022-02-24T10:07:17.401Z</time>
      </trkpt>
      <trkpt lat="47.658554" lon="2.1026676">
        <ele>171</ele>
        <time>2022-02-24T10:07:18.401Z</time>
      </trkpt>
      <trkpt lat="47.65855" lon="2.10265">
        <ele>171</ele>
        <time>2022-02-24T10:07:19.401Z</time>
      </trkpt>
      <trkpt lat="47.658546" lon="2.1026335">
        <ele>170</ele>
        <time>2022-02-24T10:07:20.401Z</time>
      </trkpt>
      <trkpt lat="47.65854" lon="2.1026173">
        <ele>170</ele>
        <time>2022-02-24T10:07:21.401Z</time>
      </trkpt>
      <trkpt lat="47.65853" lon="2.1026">
        <ele>170</ele>
        <time>2022-02-24T10:07:22.401Z</time>
      </trkpt>
      <trkpt lat="47.658524" lon="2.1025856">
        <ele>170</ele>
        <time>2022-02-24T10:07:23.401Z</time>
      </trkpt>
      <trkpt lat="47.658524" lon="2.1025856">
        <ele>170</ele>
        <time>2022-02-24T10:07:24.401Z</time>
      </trkpt>
      <trkpt lat="47.65852" lon="2.1025774">
        <ele>170</ele>
        <time>2022-02-24T10:07:25.401Z</time>
      </trkpt>
      <trkpt lat="47.65852" lon="2.1025774">
        <ele>170</ele>
        <time>2022-02-24T10:07:26.401Z</time>
      </trkpt>
      <trkpt lat="47.65852" lon="2.1025774">
        <ele>170</ele>
        <time>2022-02-24T10:07:27.401Z</time>
      </trkpt>
      <trkpt lat="47.658512" lon="2.1025503">
        <ele>170</ele>
        <time>2022-02-24T10:07:28.401Z</time>
      </trkpt>
      <trkpt lat="47.658504" lon="2.102538">
        <ele>170</ele>
        <time>2022-02-24T10:07:29.401Z</time>
      </trkpt>
      <trkpt lat="47.6585" lon="2.102528">
        <ele>171</ele>
        <time>2022-02-24T10:07:30.401Z</time>
      </trkpt>
      <trkpt lat="47.658493" lon="2.1025138">
        <ele>171</ele>
        <time>2022-02-24T10:07:31.401Z</time>
      </trkpt>
      <trkpt lat="47.658493" lon="2.1025038">
        <ele>171</ele>
        <time>2022-02-24T10:07:32.401Z</time>
      </trkpt>
      <trkpt lat="47.658485" lon="2.1024916">
        <ele>171</ele>
        <time>2022-02-24T10:07:33.401Z</time>
      </trkpt>
      <trkpt lat="47.658485" lon="2.102481">
        <ele>172</ele>
        <time>2022-02-24T10:07:34.401Z</time>
      </trkpt>
      <trkpt lat="47.658485" lon="2.1024697">
        <ele>172</ele>
        <time>2022-02-24T10:07:35.401Z</time>
      </trkpt>
      <trkpt lat="47.65848" lon="2.102461">
        <ele>172</ele>
        <time>2022-02-24T10:07:36.401Z</time>
      </trkpt>
      <trkpt lat="47.65848" lon="2.1024473">
        <ele>172</ele>
        <time>2022-02-24T10:07:37.401Z</time>
      </trkpt>
      <trkpt lat="47.65848" lon="2.1024275">
        <ele>172</ele>
        <time>2022-02-24T10:07:38.401Z</time>
      </trkpt>
      <trkpt lat="47.658478" lon="2.102411">
        <ele>171</ele>
        <time>2022-02-24T10:07:39.401Z</time>
      </trkpt>
      <trkpt lat="47.658474" lon="2.102398">
        <ele>171</ele>
        <time>2022-02-24T10:07:40.401Z</time>
      </trkpt>
      <trkpt lat="47.65847" lon="2.1023843">
        <ele>171</ele>
        <time>2022-02-24T10:07:41.401Z</time>
      </trkpt>
      <trkpt lat="47.65847" lon="2.1023843">
        <ele>171</ele>
        <time>2022-02-24T10:07:42.401Z</time>
      </trkpt>
      <trkpt lat="47.65847" lon="2.1023843">
        <ele>171</ele>
        <time>2022-02-24T10:07:43.401Z</time>
      </trkpt>
      <trkpt lat="47.658463" lon="2.1023598">
        <ele>171</ele>
        <time>2022-02-24T10:07:44.401Z</time>
      </trkpt>
      <trkpt lat="47.658463" lon="2.1023552">
        <ele>171</ele>
        <time>2022-02-24T10:07:45.401Z</time>
      </trkpt>
      <trkpt lat="47.65846" lon="2.1023476">
        <ele>171</ele>
        <time>2022-02-24T10:07:46.401Z</time>
      </trkpt>
      <trkpt lat="47.658455" lon="2.1023386">
        <ele>170</ele>
        <time>2022-02-24T10:07:47.401Z</time>
      </trkpt>
      <trkpt lat="47.658455" lon="2.1023386">
        <ele>170</ele>
        <time>2022-02-24T10:07:48.401Z</time>
      </trkpt>
      <trkpt lat="47.658447" lon="2.1023228">
        <ele>170</ele>
        <time>2022-02-24T10:07:49.401Z</time>
      </trkpt>
      <trkpt lat="47.658443" lon="2.102312">
        <ele>169</ele>
        <time>2022-02-24T10:07:50.401Z</time>
      </trkpt>
      <trkpt lat="47.658436" lon="2.102297">
        <ele>169</ele>
        <time>2022-02-24T10:07:51.401Z</time>
      </trkpt>
      <trkpt lat="47.658436" lon="2.1022806">
        <ele>169</ele>
        <time>2022-02-24T10:07:52.401Z</time>
      </trkpt>
      <trkpt lat="47.658432" lon="2.1022656">
        <ele>169</ele>
        <time>2022-02-24T10:07:53.401Z</time>
      </trkpt>
      <trkpt lat="47.658424" lon="2.10225">
        <ele>168</ele>
        <time>2022-02-24T10:07:54.401Z</time>
      </trkpt>
      <trkpt lat="47.65842" lon="2.1022356">
        <ele>167</ele>
        <time>2022-02-24T10:07:55.401Z</time>
      </trkpt>
      <trkpt lat="47.658417" lon="2.1022253">
        <ele>167</ele>
        <time>2022-02-24T10:07:56.401Z</time>
      </trkpt>
      <trkpt lat="47.658413" lon="2.1022167">
        <ele>166</ele>
        <time>2022-02-24T10:07:57.401Z</time>
      </trkpt>
      <trkpt lat="47.65841" lon="2.1022036">
        <ele>166</ele>
        <time>2022-02-24T10:07:58.401Z</time>
      </trkpt>
      <trkpt lat="47.65841" lon="2.1021879">
        <ele>167</ele>
        <time>2022-02-24T10:07:59.401Z</time>
      </trkpt>
      <trkpt lat="47.6584" lon="2.1021729">
        <ele>166</ele>
        <time>2022-02-24T10:08:00.401Z</time>
      </trkpt>
      <trkpt lat="47.658398" lon="2.1021526">
        <ele>166</ele>
        <time>2022-02-24T10:08:01.401Z</time>
      </trkpt>
      <trkpt lat="47.65839" lon="2.102133">
        <ele>167</ele>
        <time>2022-02-24T10:08:02.401Z</time>
      </trkpt>
      <trkpt lat="47.658382" lon="2.1021197">
        <ele>167</ele>
        <time>2022-02-24T10:08:03.401Z</time>
      </trkpt>
      <trkpt lat="47.65838" lon="2.1021023">
        <ele>168</ele>
        <time>2022-02-24T10:08:04.401Z</time>
      </trkpt>
      <trkpt lat="47.65837" lon="2.1020834">
        <ele>168</ele>
        <time>2022-02-24T10:08:05.401Z</time>
      </trkpt>
      <trkpt lat="47.658367" lon="2.1020656">
        <ele>168</ele>
        <time>2022-02-24T10:08:06.401Z</time>
      </trkpt>
      <trkpt lat="47.65836" lon="2.1020505">
        <ele>168</ele>
        <time>2022-02-24T10:08:07.401Z</time>
      </trkpt>
      <trkpt lat="47.658356" lon="2.1020257">
        <ele>168</ele>
        <time>2022-02-24T10:08:08.401Z</time>
      </trkpt>
      <trkpt lat="47.658348" lon="2.1020076">
        <ele>168</ele>
        <time>2022-02-24T10:08:09.401Z</time>
      </trkpt>
      <trkpt lat="47.658344" lon="2.1019902">
        <ele>168</ele>
        <time>2022-02-24T10:08:10.401Z</time>
      </trkpt>
      <trkpt lat="47.65834" lon="2.1019745">
        <ele>168</ele>
        <time>2022-02-24T10:08:11.401Z</time>
      </trkpt>
      <trkpt lat="47.65834" lon="2.1019745">
        <ele>168</ele>
        <time>2022-02-24T10:08:12.401Z</time>
      </trkpt>
      <trkpt lat="47.65834" lon="2.1019745">
        <ele>168</ele>
        <time>2022-02-24T10:08:13.401Z</time>
      </trkpt>
      <trkpt lat="47.658337" lon="2.101938">
        <ele>169</ele>
        <time>2022-02-24T10:08:14.401Z</time>
      </trkpt>
      <trkpt lat="47.65833" lon="2.101921">
        <ele>169</ele>
        <time>2022-02-24T10:08:15.401Z</time>
      </trkpt>
      <trkpt lat="47.658325" lon="2.1019025">
        <ele>168</ele>
        <time>2022-02-24T10:08:16.401Z</time>
      </trkpt>
      <trkpt lat="47.65832" lon="2.1018865">
        <ele>168</ele>
        <time>2022-02-24T10:08:17.401Z</time>
      </trkpt>
      <trkpt lat="47.658314" lon="2.101869">
        <ele>168</ele>
        <time>2022-02-24T10:08:18.401Z</time>
      </trkpt>
      <trkpt lat="47.65831" lon="2.1018555">
        <ele>168</ele>
        <time>2022-02-24T10:08:19.401Z</time>
      </trkpt>
      <trkpt lat="47.658306" lon="2.1018398">
        <ele>169</ele>
        <time>2022-02-24T10:08:20.401Z</time>
      </trkpt>
      <trkpt lat="47.658302" lon="2.1018217">
        <ele>168</ele>
        <time>2022-02-24T10:08:21.401Z</time>
      </trkpt>
      <trkpt lat="47.6583" lon="2.101802">
        <ele>168</ele>
        <time>2022-02-24T10:08:22.401Z</time>
      </trkpt>
      <trkpt lat="47.658295" lon="2.1017861">
        <ele>169</ele>
        <time>2022-02-24T10:08:23.401Z</time>
      </trkpt>
      <trkpt lat="47.658287" lon="2.1017754">
        <ele>169</ele>
        <time>2022-02-24T10:08:24.401Z</time>
      </trkpt>
      <trkpt lat="47.658283" lon="2.1017628">
        <ele>169</ele>
        <time>2022-02-24T10:08:25.401Z</time>
      </trkpt>
      <trkpt lat="47.658283" lon="2.1017444">
        <ele>169</ele>
        <time>2022-02-24T10:08:26.401Z</time>
      </trkpt>
      <trkpt lat="47.65828" lon="2.1017294">
        <ele>170</ele>
        <time>2022-02-24T10:08:27.401Z</time>
      </trkpt>
      <trkpt lat="47.658276" lon="2.1017137">
        <ele>170</ele>
        <time>2022-02-24T10:08:28.401Z</time>
      </trkpt>
      <trkpt lat="47.65827" lon="2.101695">
        <ele>170</ele>
        <time>2022-02-24T10:08:29.401Z</time>
      </trkpt>
      <trkpt lat="47.658268" lon="2.101676">
        <ele>170</ele>
        <time>2022-02-24T10:08:30.401Z</time>
      </trkpt>
      <trkpt lat="47.658264" lon="2.1016536">
        <ele>170</ele>
        <time>2022-02-24T10:08:31.401Z</time>
      </trkpt>
      <trkpt lat="47.658257" lon="2.101633">
        <ele>170</ele>
        <time>2022-02-24T10:08:32.401Z</time>
      </trkpt>
      <trkpt lat="47.658253" lon="2.1016119">
        <ele>170</ele>
        <time>2022-02-24T10:08:33.401Z</time>
      </trkpt>
      <trkpt lat="47.658245" lon="2.1015947">
        <ele>170</ele>
        <time>2022-02-24T10:08:34.401Z</time>
      </trkpt>
      <trkpt lat="47.658245" lon="2.1015785">
        <ele>170</ele>
        <time>2022-02-24T10:08:35.401Z</time>
      </trkpt>
      <trkpt lat="47.65824" lon="2.101565">
        <ele>169</ele>
        <time>2022-02-24T10:08:36.401Z</time>
      </trkpt>
      <trkpt lat="47.658237" lon="2.1015472">
        <ele>169</ele>
        <time>2022-02-24T10:08:37.401Z</time>
      </trkpt>
      <trkpt lat="47.65823" lon="2.1015272">
        <ele>169</ele>
        <time>2022-02-24T10:08:38.401Z</time>
      </trkpt>
      <trkpt lat="47.658226" lon="2.1015174">
        <ele>169</ele>
        <time>2022-02-24T10:08:39.401Z</time>
      </trkpt>
      <trkpt lat="47.658222" lon="2.1015055">
        <ele>168</ele>
        <time>2022-02-24T10:08:40.401Z</time>
      </trkpt>
      <trkpt lat="47.658215" lon="2.1014855">
        <ele>168</ele>
        <time>2022-02-24T10:08:41.401Z</time>
      </trkpt>
      <trkpt lat="47.65821" lon="2.101466">
        <ele>169</ele>
        <time>2022-02-24T10:08:42.401Z</time>
      </trkpt>
      <trkpt lat="47.658207" lon="2.1014476">
        <ele>169</ele>
        <time>2022-02-24T10:08:43.401Z</time>
      </trkpt>
      <trkpt lat="47.658203" lon="2.10143">
        <ele>168</ele>
        <time>2022-02-24T10:08:44.401Z</time>
      </trkpt>
      <trkpt lat="47.65819" lon="2.101412">
        <ele>169</ele>
        <time>2022-02-24T10:08:45.401Z</time>
      </trkpt>
      <trkpt lat="47.658188" lon="2.1013958">
        <ele>169</ele>
        <time>2022-02-24T10:08:46.401Z</time>
      </trkpt>
      <trkpt lat="47.658184" lon="2.1013777">
        <ele>169</ele>
        <time>2022-02-24T10:08:47.401Z</time>
      </trkpt>
      <trkpt lat="47.65818" lon="2.101359">
        <ele>170</ele>
        <time>2022-02-24T10:08:48.401Z</time>
      </trkpt>
      <trkpt lat="47.658176" lon="2.1013432">
        <ele>170</ele>
        <time>2022-02-24T10:08:49.401Z</time>
      </trkpt>
      <trkpt lat="47.658173" lon="2.1013274">
        <ele>170</ele>
        <time>2022-02-24T10:08:50.401Z</time>
      </trkpt>
      <trkpt lat="47.65817" lon="2.1013136">
        <ele>170</ele>
        <time>2022-02-24T10:08:51.401Z</time>
      </trkpt>
      <trkpt lat="47.658165" lon="2.1012974">
        <ele>171</ele>
        <time>2022-02-24T10:08:52.401Z</time>
      </trkpt>
      <trkpt lat="47.65816" lon="2.101284">
        <ele>171</ele>
        <time>2022-02-24T10:08:53.401Z</time>
      </trkpt>
      <trkpt lat="47.65816" lon="2.1012678">
        <ele>171</ele>
        <time>2022-02-24T10:08:54.401Z</time>
      </trkpt>
      <trkpt lat="47.65816" lon="2.101255">
        <ele>172</ele>
        <time>2022-02-24T10:08:55.401Z</time>
      </trkpt>
      <trkpt lat="47.658157" lon="2.101243">
        <ele>172</ele>
        <time>2022-02-24T10:08:56.401Z</time>
      </trkpt>
      <trkpt lat="47.658157" lon="2.1012428">
        <ele>172</ele>
        <time>2022-02-24T10:08:57.401Z</time>
      </trkpt>
      <trkpt lat="47.658157" lon="2.1012428">
        <ele>172</ele>
        <time>2022-02-24T10:08:58.401Z</time>
      </trkpt>
      <trkpt lat="47.658157" lon="2.1012428">
        <ele>172</ele>
        <time>2022-02-24T10:08:59.401Z</time>
      </trkpt>
      <trkpt lat="47.658146" lon="2.101214">
        <ele>173</ele>
        <time>2022-02-24T10:09:00.401Z</time>
      </trkpt>
      <trkpt lat="47.65814" lon="2.1011999">
        <ele>173</ele>
        <time>2022-02-24T10:09:01.401Z</time>
      </trkpt>
      <trkpt lat="47.658134" lon="2.1011858">
        <ele>174</ele>
        <time>2022-02-24T10:09:02.401Z</time>
      </trkpt>
      <trkpt lat="47.65813" lon="2.101172">
        <ele>173</ele>
        <time>2022-02-24T10:09:03.401Z</time>
      </trkpt>
      <trkpt lat="47.65813" lon="2.101172">
        <ele>173</ele>
        <time>2022-02-24T10:09:04.401Z</time>
      </trkpt>
      <trkpt lat="47.65813" lon="2.101172">
        <ele>173</ele>
        <time>2022-02-24T10:09:05.401Z</time>
      </trkpt>
      <trkpt lat="47.65812" lon="2.1011386">
        <ele>174</ele>
        <time>2022-02-24T10:09:06.401Z</time>
      </trkpt>
      <trkpt lat="47.658115" lon="2.1011214">
        <ele>174</ele>
        <time>2022-02-24T10:09:07.401Z</time>
      </trkpt>
      <trkpt lat="47.65811" lon="2.1011019">
        <ele>174</ele>
        <time>2022-02-24T10:09:08.401Z</time>
      </trkpt>
      <trkpt lat="47.65811" lon="2.1010828">
        <ele>174</ele>
        <time>2022-02-24T10:09:09.401Z</time>
      </trkpt>
      <trkpt lat="47.658108" lon="2.1010678">
        <ele>174</ele>
        <time>2022-02-24T10:09:10.401Z</time>
      </trkpt>
      <trkpt lat="47.658104" lon="2.1010509">
        <ele>175</ele>
        <time>2022-02-24T10:09:11.401Z</time>
      </trkpt>
      <trkpt lat="47.6581" lon="2.1010342">
        <ele>175</ele>
        <time>2022-02-24T10:09:12.401Z</time>
      </trkpt>
      <trkpt lat="47.658096" lon="2.1010182">
        <ele>174</ele>
        <time>2022-02-24T10:09:13.401Z</time>
      </trkpt>
      <trkpt lat="47.65809" lon="2.1010048">
        <ele>175</ele>
        <time>2022-02-24T10:09:14.401Z</time>
      </trkpt>
      <trkpt lat="47.65809" lon="2.1009898">
        <ele>174</ele>
        <time>2022-02-24T10:09:15.401Z</time>
      </trkpt>
      <trkpt lat="47.65809" lon="2.1009898">
        <ele>174</ele>
        <time>2022-02-24T10:09:16.401Z</time>
      </trkpt>
      <trkpt lat="47.658092" lon="2.1009612">
        <ele>175</ele>
        <time>2022-02-24T10:09:17.401Z</time>
      </trkpt>
      <trkpt lat="47.65809" lon="2.10094">
        <ele>175</ele>
        <time>2022-02-24T10:09:18.401Z</time>
      </trkpt>
      <trkpt lat="47.65808" lon="2.100917">
        <ele>175</ele>
        <time>2022-02-24T10:09:19.401Z</time>
      </trkpt>
      <trkpt lat="47.658073" lon="2.1008985">
        <ele>175</ele>
        <time>2022-02-24T10:09:20.401Z</time>
      </trkpt>
      <trkpt lat="47.658062" lon="2.1008842">
        <ele>175</ele>
        <time>2022-02-24T10:09:21.401Z</time>
      </trkpt>
      <trkpt lat="47.658054" lon="2.1008668">
        <ele>175</ele>
        <time>2022-02-24T10:09:22.401Z</time>
      </trkpt>
      <trkpt lat="47.65805" lon="2.1008492">
        <ele>175</ele>
        <time>2022-02-24T10:09:23.401Z</time>
      </trkpt>
      <trkpt lat="47.658043" lon="2.100833">
        <ele>175</ele>
        <time>2022-02-24T10:09:24.401Z</time>
      </trkpt>
      <trkpt lat="47.65804" lon="2.1008182">
        <ele>175</ele>
        <time>2022-02-24T10:09:25.401Z</time>
      </trkpt>
      <trkpt lat="47.65803" lon="2.100801">
        <ele>175</ele>
        <time>2022-02-24T10:09:26.401Z</time>
      </trkpt>
      <trkpt lat="47.658024" lon="2.1007802">
        <ele>175</ele>
        <time>2022-02-24T10:09:27.401Z</time>
      </trkpt>
      <trkpt lat="47.658016" lon="2.1007655">
        <ele>175</ele>
        <time>2022-02-24T10:09:28.401Z</time>
      </trkpt>
      <trkpt lat="47.658012" lon="2.100747">
        <ele>175</ele>
        <time>2022-02-24T10:09:29.401Z</time>
      </trkpt>
      <trkpt lat="47.658" lon="2.10073">
        <ele>174</ele>
        <time>2022-02-24T10:09:30.401Z</time>
      </trkpt>
      <trkpt lat="47.657993" lon="2.100711">
        <ele>173</ele>
        <time>2022-02-24T10:09:31.401Z</time>
      </trkpt>
      <trkpt lat="47.657997" lon="2.100691">
        <ele>174</ele>
        <time>2022-02-24T10:09:32.401Z</time>
      </trkpt>
      <trkpt lat="47.657993" lon="2.1006756">
        <ele>174</ele>
        <time>2022-02-24T10:09:33.401Z</time>
      </trkpt>
      <trkpt lat="47.65799" lon="2.1006584">
        <ele>174</ele>
        <time>2022-02-24T10:09:34.401Z</time>
      </trkpt>
      <trkpt lat="47.65799" lon="2.1006584">
        <ele>174</ele>
        <time>2022-02-24T10:09:35.401Z</time>
      </trkpt>
      <trkpt lat="47.65799" lon="2.1006584">
        <ele>174</ele>
        <time>2022-02-24T10:09:36.401Z</time>
      </trkpt>
      <trkpt lat="47.657978" lon="2.1006145">
        <ele>174</ele>
        <time>2022-02-24T10:09:37.401Z</time>
      </trkpt>
      <trkpt lat="47.657978" lon="2.1005998">
        <ele>174</ele>
        <time>2022-02-24T10:09:38.401Z</time>
      </trkpt>
      <trkpt lat="47.657974" lon="2.1005843">
        <ele>174</ele>
        <time>2022-02-24T10:09:39.401Z</time>
      </trkpt>
      <trkpt lat="47.65797" lon="2.1005704">
        <ele>175</ele>
        <time>2022-02-24T10:09:40.401Z</time>
      </trkpt>
      <trkpt lat="47.657967" lon="2.1005557">
        <ele>174</ele>
        <time>2022-02-24T10:09:41.401Z</time>
      </trkpt>
      <trkpt lat="47.657963" lon="2.100541">
        <ele>174</ele>
        <time>2022-02-24T10:09:42.401Z</time>
      </trkpt>
      <trkpt lat="47.657955" lon="2.1005232">
        <ele>174</ele>
        <time>2022-02-24T10:09:43.401Z</time>
      </trkpt>
      <trkpt lat="47.657948" lon="2.1005108">
        <ele>174</ele>
        <time>2022-02-24T10:09:44.401Z</time>
      </trkpt>
      <trkpt lat="47.65794" lon="2.100494">
        <ele>174</ele>
        <time>2022-02-24T10:09:45.401Z</time>
      </trkpt>
      <trkpt lat="47.657936" lon="2.1004772">
        <ele>175</ele>
        <time>2022-02-24T10:09:46.401Z</time>
      </trkpt>
      <trkpt lat="47.657932" lon="2.1004589">
        <ele>175</ele>
        <time>2022-02-24T10:09:47.401Z</time>
      </trkpt>
      <trkpt lat="47.65793" lon="2.10044">
        <ele>176</ele>
        <time>2022-02-24T10:09:48.401Z</time>
      </trkpt>
      <trkpt lat="47.657925" lon="2.1004236">
        <ele>176</ele>
        <time>2022-02-24T10:09:49.401Z</time>
      </trkpt>
      <trkpt lat="47.65792" lon="2.100404">
        <ele>176</ele>
        <time>2022-02-24T10:09:50.401Z</time>
      </trkpt>
      <trkpt lat="47.657913" lon="2.10039">
        <ele>176</ele>
        <time>2022-02-24T10:09:51.401Z</time>
      </trkpt>
      <trkpt lat="47.657906" lon="2.100375">
        <ele>176</ele>
        <time>2022-02-24T10:09:52.401Z</time>
      </trkpt>
      <trkpt lat="47.657898" lon="2.1003592">
        <ele>177</ele>
        <time>2022-02-24T10:09:53.401Z</time>
      </trkpt>
      <trkpt lat="47.657894" lon="2.1003416">
        <ele>177</ele>
        <time>2022-02-24T10:09:54.401Z</time>
      </trkpt>
      <trkpt lat="47.657894" lon="2.1003416">
        <ele>177</ele>
        <time>2022-02-24T10:09:55.401Z</time>
      </trkpt>
      <trkpt lat="47.657894" lon="2.1003416">
        <ele>177</ele>
        <time>2022-02-24T10:09:56.401Z</time>
      </trkpt>
      <trkpt lat="47.65789" lon="2.1003056">
        <ele>177</ele>
        <time>2022-02-24T10:09:57.401Z</time>
      </trkpt>
      <trkpt lat="47.657887" lon="2.1002908">
        <ele>177</ele>
        <time>2022-02-24T10:09:58.401Z</time>
      </trkpt>
      <trkpt lat="47.657883" lon="2.100272">
        <ele>178</ele>
        <time>2022-02-24T10:09:59.401Z</time>
      </trkpt>
      <trkpt lat="47.657875" lon="2.100255">
        <ele>177</ele>
        <time>2022-02-24T10:10:00.401Z</time>
      </trkpt>
      <trkpt lat="47.657867" lon="2.100241">
        <ele>177</ele>
        <time>2022-02-24T10:10:01.401Z</time>
      </trkpt>
      <trkpt lat="47.65786" lon="2.100226">
        <ele>177</ele>
        <time>2022-02-24T10:10:02.401Z</time>
      </trkpt>
      <trkpt lat="47.657856" lon="2.1002114">
        <ele>177</ele>
        <time>2022-02-24T10:10:03.401Z</time>
      </trkpt>
      <trkpt lat="47.657856" lon="2.1002114">
        <ele>177</ele>
        <time>2022-02-24T10:10:04.401Z</time>
      </trkpt>
      <trkpt lat="47.657856" lon="2.1002114">
        <ele>177</ele>
        <time>2022-02-24T10:10:05.401Z</time>
      </trkpt>
      <trkpt lat="47.65784" lon="2.1001725">
        <ele>178</ele>
        <time>2022-02-24T10:10:06.401Z</time>
      </trkpt>
      <trkpt lat="47.657833" lon="2.1001556">
        <ele>178</ele>
        <time>2022-02-24T10:10:07.401Z</time>
      </trkpt>
      <trkpt lat="47.65783" lon="2.1001384">
        <ele>177</ele>
        <time>2022-02-24T10:10:08.401Z</time>
      </trkpt>
      <trkpt lat="47.65782" lon="2.1001184">
        <ele>177</ele>
        <time>2022-02-24T10:10:09.401Z</time>
      </trkpt>
      <trkpt lat="47.657814" lon="2.1001003">
        <ele>177</ele>
        <time>2022-02-24T10:10:10.401Z</time>
      </trkpt>
      <trkpt lat="47.657803" lon="2.1000803">
        <ele>177</ele>
        <time>2022-02-24T10:10:11.401Z</time>
      </trkpt>
      <trkpt lat="47.6578" lon="2.1000595">
        <ele>176</ele>
        <time>2022-02-24T10:10:12.401Z</time>
      </trkpt>
      <trkpt lat="47.6578" lon="2.1000595">
        <ele>176</ele>
        <time>2022-02-24T10:10:13.401Z</time>
      </trkpt>
      <trkpt lat="47.6578" lon="2.1000595">
        <ele>176</ele>
        <time>2022-02-24T10:10:14.401Z</time>
      </trkpt>
      <trkpt lat="47.657787" lon="2.1000152">
        <ele>175</ele>
        <time>2022-02-24T10:10:15.401Z</time>
      </trkpt>
      <trkpt lat="47.657784" lon="2.1000016">
        <ele>175</ele>
        <time>2022-02-24T10:10:16.401Z</time>
      </trkpt>
      <trkpt lat="47.657784" lon="2.1">
        <ele>175</ele>
        <time>2022-02-24T10:10:17.401Z</time>
      </trkpt>
      <trkpt lat="47.657784" lon="2.0999997">
        <ele>175</ele>
        <time>2022-02-24T10:10:18.401Z</time>
      </trkpt>
      <trkpt lat="47.657784" lon="2.0999997">
        <ele>175</ele>
        <time>2022-02-24T10:10:19.401Z</time>
      </trkpt>
      <trkpt lat="47.657784" lon="2.0999997">
        <ele>175</ele>
        <time>2022-02-24T10:10:20.401Z</time>
      </trkpt>
      <trkpt lat="47.65778" lon="2.099961">
        <ele>174</ele>
        <time>2022-02-24T10:10:21.401Z</time>
      </trkpt>
      <trkpt lat="47.657772" lon="2.0999465">
        <ele>174</ele>
        <time>2022-02-24T10:10:22.401Z</time>
      </trkpt>
      <trkpt lat="47.65777" lon="2.099929">
        <ele>174</ele>
        <time>2022-02-24T10:10:23.401Z</time>
      </trkpt>
      <trkpt lat="47.65777" lon="2.099914">
        <ele>173</ele>
        <time>2022-02-24T10:10:24.401Z</time>
      </trkpt>
      <trkpt lat="47.65777" lon="2.099914">
        <ele>173</ele>
        <time>2022-02-24T10:10:25.401Z</time>
      </trkpt>
      <trkpt lat="47.65777" lon="2.099914">
        <ele>173</ele>
        <time>2022-02-24T10:10:26.401Z</time>
      </trkpt>
      <trkpt lat="47.657757" lon="2.099875">
        <ele>173</ele>
        <time>2022-02-24T10:10:27.401Z</time>
      </trkpt>
      <trkpt lat="47.657753" lon="2.0998583">
        <ele>172</ele>
        <time>2022-02-24T10:10:28.401Z</time>
      </trkpt>
      <trkpt lat="47.657753" lon="2.0998387">
        <ele>172</ele>
        <time>2022-02-24T10:10:29.401Z</time>
      </trkpt>
      <trkpt lat="47.657753" lon="2.0998123">
        <ele>171</ele>
        <time>2022-02-24T10:10:30.401Z</time>
      </trkpt>
      <trkpt lat="47.657753" lon="2.0998123">
        <ele>171</ele>
        <time>2022-02-24T10:10:31.401Z</time>
      </trkpt>
      <trkpt lat="47.657753" lon="2.0998123">
        <ele>171</ele>
        <time>2022-02-24T10:10:32.401Z</time>
      </trkpt>
      <trkpt lat="47.657745" lon="2.0997713">
        <ele>171</ele>
        <time>2022-02-24T10:10:33.401Z</time>
      </trkpt>
      <trkpt lat="47.65774" lon="2.0997534">
        <ele>171</ele>
        <time>2022-02-24T10:10:34.401Z</time>
      </trkpt>
      <trkpt lat="47.65774" lon="2.09974">
        <ele>171</ele>
        <time>2022-02-24T10:10:35.401Z</time>
      </trkpt>
      <trkpt lat="47.657738" lon="2.099725">
        <ele>171</ele>
        <time>2022-02-24T10:10:36.401Z</time>
      </trkpt>
      <trkpt lat="47.657738" lon="2.099725">
        <ele>171</ele>
        <time>2022-02-24T10:10:37.401Z</time>
      </trkpt>
      <trkpt lat="47.657738" lon="2.099725">
        <ele>171</ele>
        <time>2022-02-24T10:10:38.401Z</time>
      </trkpt>
      <trkpt lat="47.657726" lon="2.099681">
        <ele>170</ele>
        <time>2022-02-24T10:10:39.401Z</time>
      </trkpt>
      <trkpt lat="47.657722" lon="2.0996592">
        <ele>169</ele>
        <time>2022-02-24T10:10:40.401Z</time>
      </trkpt>
      <trkpt lat="47.65772" lon="2.0996397">
        <ele>170</ele>
        <time>2022-02-24T10:10:41.401Z</time>
      </trkpt>
      <trkpt lat="47.657715" lon="2.0996225">
        <ele>170</ele>
        <time>2022-02-24T10:10:42.401Z</time>
      </trkpt>
      <trkpt lat="47.657707" lon="2.0996077">
        <ele>171</ele>
        <time>2022-02-24T10:10:43.401Z</time>
      </trkpt>
      <trkpt lat="47.657696" lon="2.0995955">
        <ele>170</ele>
        <time>2022-02-24T10:10:44.401Z</time>
      </trkpt>
      <trkpt lat="47.657692" lon="2.0995784">
        <ele>171</ele>
        <time>2022-02-24T10:10:45.401Z</time>
      </trkpt>
      <trkpt lat="47.657692" lon="2.0995784">
        <ele>171</ele>
        <time>2022-02-24T10:10:46.401Z</time>
      </trkpt>
      <trkpt lat="47.657692" lon="2.0995784">
        <ele>171</ele>
        <time>2022-02-24T10:10:47.401Z</time>
      </trkpt>
      <trkpt lat="47.65768" lon="2.0995386">
        <ele>171</ele>
        <time>2022-02-24T10:10:48.401Z</time>
      </trkpt>
      <trkpt lat="47.657677" lon="2.099514">
        <ele>171</ele>
        <time>2022-02-24T10:10:49.401Z</time>
      </trkpt>
      <trkpt lat="47.657673" lon="2.099494">
        <ele>171</ele>
        <time>2022-02-24T10:10:50.401Z</time>
      </trkpt>
      <trkpt lat="47.657665" lon="2.0994797">
        <ele>170</ele>
        <time>2022-02-24T10:10:51.401Z</time>
      </trkpt>
      <trkpt lat="47.657665" lon="2.0994644">
        <ele>171</ele>
        <time>2022-02-24T10:10:52.401Z</time>
      </trkpt>
      <trkpt lat="47.657658" lon="2.0994494">
        <ele>171</ele>
        <time>2022-02-24T10:10:53.401Z</time>
      </trkpt>
      <trkpt lat="47.657658" lon="2.0994494">
        <ele>171</ele>
        <time>2022-02-24T10:10:54.401Z</time>
      </trkpt>
      <trkpt lat="47.657658" lon="2.0994494">
        <ele>171</ele>
        <time>2022-02-24T10:10:55.401Z</time>
      </trkpt>
      <trkpt lat="47.657646" lon="2.099404">
        <ele>172</ele>
        <time>2022-02-24T10:10:56.401Z</time>
      </trkpt>
      <trkpt lat="47.65764" lon="2.099388">
        <ele>172</ele>
        <time>2022-02-24T10:10:57.401Z</time>
      </trkpt>
      <trkpt lat="47.65763" lon="2.099366">
        <ele>172</ele>
        <time>2022-02-24T10:10:58.401Z</time>
      </trkpt>
      <trkpt lat="47.657623" lon="2.0993416">
        <ele>173</ele>
        <time>2022-02-24T10:10:59.401Z</time>
      </trkpt>
      <trkpt lat="47.65762" lon="2.099324">
        <ele>173</ele>
        <time>2022-02-24T10:11:00.401Z</time>
      </trkpt>
      <trkpt lat="47.65762" lon="2.0993066">
        <ele>173</ele>
        <time>2022-02-24T10:11:01.401Z</time>
      </trkpt>
      <trkpt lat="47.65762" lon="2.0992932">
        <ele>174</ele>
        <time>2022-02-24T10:11:02.401Z</time>
      </trkpt>
      <trkpt lat="47.65762" lon="2.0992932">
        <ele>174</ele>
        <time>2022-02-24T10:11:03.401Z</time>
      </trkpt>
      <trkpt lat="47.65762" lon="2.0992932">
        <ele>174</ele>
        <time>2022-02-24T10:11:04.401Z</time>
      </trkpt>
      <trkpt lat="47.657608" lon="2.0992644">
        <ele>175</ele>
        <time>2022-02-24T10:11:05.401Z</time>
      </trkpt>
      <trkpt lat="47.657604" lon="2.0992522">
        <ele>176</ele>
        <time>2022-02-24T10:11:06.401Z</time>
      </trkpt>
      <trkpt lat="47.657597" lon="2.099238">
        <ele>175</ele>
        <time>2022-02-24T10:11:07.401Z</time>
      </trkpt>
      <trkpt lat="47.657593" lon="2.099223">
        <ele>175</ele>
        <time>2022-02-24T10:11:08.401Z</time>
      </trkpt>
      <trkpt lat="47.657593" lon="2.099223">
        <ele>175</ele>
        <time>2022-02-24T10:11:09.401Z</time>
      </trkpt>
      <trkpt lat="47.657593" lon="2.099223">
        <ele>175</ele>
        <time>2022-02-24T10:11:10.401Z</time>
      </trkpt>
      <trkpt lat="47.657578" lon="2.0991752">
        <ele>176</ele>
        <time>2022-02-24T10:11:11.401Z</time>
      </trkpt>
      <trkpt lat="47.65757" lon="2.0991554">
        <ele>176</ele>
        <time>2022-02-24T10:11:12.401Z</time>
      </trkpt>
      <trkpt lat="47.657566" lon="2.0991375">
        <ele>176</ele>
        <time>2022-02-24T10:11:13.401Z</time>
      </trkpt>
      <trkpt lat="47.65756" lon="2.0991204">
        <ele>176</ele>
        <time>2022-02-24T10:11:14.401Z</time>
      </trkpt>
      <trkpt lat="47.65756" lon="2.0991204">
        <ele>176</ele>
        <time>2022-02-24T10:11:15.401Z</time>
      </trkpt>
      <trkpt lat="47.65756" lon="2.0991204">
        <ele>176</ele>
        <time>2022-02-24T10:11:16.401Z</time>
      </trkpt>
      <trkpt lat="47.657543" lon="2.0990815">
        <ele>176</ele>
        <time>2022-02-24T10:11:17.401Z</time>
      </trkpt>
      <trkpt lat="47.657543" lon="2.0990639">
        <ele>175</ele>
        <time>2022-02-24T10:11:18.401Z</time>
      </trkpt>
      <trkpt lat="47.65754" lon="2.0990472">
        <ele>175</ele>
        <time>2022-02-24T10:11:19.401Z</time>
      </trkpt>
      <trkpt lat="47.65753" lon="2.099032">
        <ele>175</ele>
        <time>2022-02-24T10:11:20.401Z</time>
      </trkpt>
      <trkpt lat="47.65753" lon="2.099032">
        <ele>175</ele>
        <time>2022-02-24T10:11:21.401Z</time>
      </trkpt>
      <trkpt lat="47.65753" lon="2.099032">
        <ele>175</ele>
        <time>2022-02-24T10:11:22.401Z</time>
      </trkpt>
      <trkpt lat="47.65752" lon="2.0989861">
        <ele>175</ele>
        <time>2022-02-24T10:11:23.401Z</time>
      </trkpt>
      <trkpt lat="47.657516" lon="2.0989687">
        <ele>175</ele>
        <time>2022-02-24T10:11:24.401Z</time>
      </trkpt>
      <trkpt lat="47.657513" lon="2.0989516">
        <ele>176</ele>
        <time>2022-02-24T10:11:25.401Z</time>
      </trkpt>
      <trkpt lat="47.65751" lon="2.0989387">
        <ele>176</ele>
        <time>2022-02-24T10:11:26.401Z</time>
      </trkpt>
      <trkpt lat="47.65751" lon="2.0989387">
        <ele>176</ele>
        <time>2022-02-24T10:11:27.401Z</time>
      </trkpt>
      <trkpt lat="47.65751" lon="2.0989387">
        <ele>176</ele>
        <time>2022-02-24T10:11:28.401Z</time>
      </trkpt>
      <trkpt lat="47.6575" lon="2.0989041">
        <ele>176</ele>
        <time>2022-02-24T10:11:29.401Z</time>
      </trkpt>
      <trkpt lat="47.657497" lon="2.0988882">
        <ele>176</ele>
        <time>2022-02-24T10:11:30.401Z</time>
      </trkpt>
      <trkpt lat="47.65749" lon="2.0988686">
        <ele>176</ele>
        <time>2022-02-24T10:11:31.401Z</time>
      </trkpt>
      <trkpt lat="47.657482" lon="2.0988512">
        <ele>176</ele>
        <time>2022-02-24T10:11:32.401Z</time>
      </trkpt>
      <trkpt lat="47.65748" lon="2.0988133">
        <ele>176</ele>
        <time>2022-02-24T10:11:33.401Z</time>
      </trkpt>
      <trkpt lat="47.65748" lon="2.0988133">
        <ele>176</ele>
        <time>2022-02-24T10:11:33.401Z</time>
      </trkpt>
      <trkpt lat="47.65748" lon="2.0988133">
        <ele>176</ele>
        <time>2022-02-24T10:11:35.401Z</time>
      </trkpt>
      <trkpt lat="47.65747" lon="2.098771">
        <ele>176</ele>
        <time>2022-02-24T10:11:36.401Z</time>
      </trkpt>
      <trkpt lat="47.657467" lon="2.0987563">
        <ele>176</ele>
        <time>2022-02-24T10:11:37.401Z</time>
      </trkpt>
      <trkpt lat="47.657463" lon="2.0987387">
        <ele>177</ele>
        <time>2022-02-24T10:11:38.401Z</time>
      </trkpt>
      <trkpt lat="47.65746" lon="2.0987213">
        <ele>177</ele>
        <time>2022-02-24T10:11:39.401Z</time>
      </trkpt>
      <trkpt lat="47.65746" lon="2.0987213">
        <ele>177</ele>
        <time>2022-02-24T10:11:40.401Z</time>
      </trkpt>
      <trkpt lat="47.65746" lon="2.0987213">
        <ele>177</ele>
        <time>2022-02-24T10:11:41.401Z</time>
      </trkpt>
      <trkpt lat="47.65745" lon="2.0986865">
        <ele>177</ele>
        <time>2022-02-24T10:11:42.401Z</time>
      </trkpt>
      <trkpt lat="47.65745" lon="2.0986717">
        <ele>176</ele>
        <time>2022-02-24T10:11:43.401Z</time>
      </trkpt>
      <trkpt lat="47.657448" lon="2.0986583">
        <ele>176</ele>
        <time>2022-02-24T10:11:44.401Z</time>
      </trkpt>
      <trkpt lat="47.657448" lon="2.098644">
        <ele>176</ele>
        <time>2022-02-24T10:11:45.401Z</time>
      </trkpt>
      <trkpt lat="47.657444" lon="2.0986354">
        <ele>176</ele>
        <time>2022-02-24T10:11:46.401Z</time>
      </trkpt>
      <trkpt lat="47.657444" lon="2.0986247">
        <ele>176</ele>
        <time>2022-02-24T10:11:47.401Z</time>
      </trkpt>
      <trkpt lat="47.657444" lon="2.0986247">
        <ele>176</ele>
        <time>2022-02-24T10:11:48.401Z</time>
      </trkpt>
      <trkpt lat="47.657444" lon="2.0986247">
        <ele>176</ele>
        <time>2022-02-24T10:11:48.401Z</time>
      </trkpt>
      <trkpt lat="47.657444" lon="2.0986247">
        <ele>176</ele>
        <time>2022-02-24T10:11:50.401Z</time>
      </trkpt>
      <trkpt lat="47.657433" lon="2.0985844">
        <ele>176</ele>
        <time>2022-02-24T10:11:51.401Z</time>
      </trkpt>
      <trkpt lat="47.657433" lon="2.0985844">
        <ele>176</ele>
        <time>2022-02-24T10:11:51.401Z</time>
      </trkpt>
      <trkpt lat="47.657425" lon="2.0985734">
        <ele>176</ele>
        <time>2022-02-24T10:11:53.401Z</time>
      </trkpt>
      <trkpt lat="47.657413" lon="2.0985613">
        <ele>177</ele>
        <time>2022-02-24T10:11:54.401Z</time>
      </trkpt>
      <trkpt lat="47.657413" lon="2.0985613">
        <ele>177</ele>
        <time>2022-02-24T10:11:55.401Z</time>
      </trkpt>
      <trkpt lat="47.657413" lon="2.0985613">
        <ele>177</ele>
        <time>2022-02-24T10:11:56.401Z</time>
      </trkpt>
      <trkpt lat="47.657402" lon="2.0985165">
        <ele>177</ele>
        <time>2022-02-24T10:11:57.401Z</time>
      </trkpt>
      <trkpt lat="47.6574" lon="2.0985038">
        <ele>177</ele>
        <time>2022-02-24T10:11:58.401Z</time>
      </trkpt>
      <trkpt lat="47.65739" lon="2.098488">
        <ele>178</ele>
        <time>2022-02-24T10:11:59.401Z</time>
      </trkpt>
      <trkpt lat="47.657387" lon="2.0984755">
        <ele>178</ele>
        <time>2022-02-24T10:12:00.401Z</time>
      </trkpt>
      <trkpt lat="47.657387" lon="2.0984755">
        <ele>178</ele>
        <time>2022-02-24T10:12:01.401Z</time>
      </trkpt>
      <trkpt lat="47.657387" lon="2.0984755">
        <ele>178</ele>
        <time>2022-02-24T10:12:02.401Z</time>
      </trkpt>
      <trkpt lat="47.657368" lon="2.0984318">
        <ele>178</ele>
        <time>2022-02-24T10:12:03.401Z</time>
      </trkpt>
      <trkpt lat="47.657364" lon="2.0984108">
        <ele>178</ele>
        <time>2022-02-24T10:12:04.401Z</time>
      </trkpt>
      <trkpt lat="47.657356" lon="2.0983734">
        <ele>178</ele>
        <time>2022-02-24T10:12:05.401Z</time>
      </trkpt>
      <trkpt lat="47.657356" lon="2.0983734">
        <ele>178</ele>
        <time>2022-02-24T10:12:05.401Z</time>
      </trkpt>
      <trkpt lat="47.65735" lon="2.0983367">
        <ele>179</ele>
        <time>2022-02-24T10:12:07.401Z</time>
      </trkpt>
      <trkpt lat="47.657345" lon="2.098317">
        <ele>179</ele>
        <time>2022-02-24T10:12:08.401Z</time>
      </trkpt>
      <trkpt lat="47.65734" lon="2.0982974">
        <ele>180</ele>
        <time>2022-02-24T10:12:09.401Z</time>
      </trkpt>
      <trkpt lat="47.65734" lon="2.0982974">
        <ele>180</ele>
        <time>2022-02-24T10:12:09.401Z</time>
      </trkpt>
      <trkpt lat="47.65733" lon="2.0982604">
        <ele>179</ele>
        <time>2022-02-24T10:12:11.401Z</time>
      </trkpt>
      <trkpt lat="47.65733" lon="2.0982604">
        <ele>179</ele>
        <time>2022-02-24T10:12:11.401Z</time>
      </trkpt>
      <trkpt lat="47.65733" lon="2.0982604">
        <ele>179</ele>
        <time>2022-02-24T10:12:13.401Z</time>
      </trkpt>
      <trkpt lat="47.65731" lon="2.0982168">
        <ele>179</ele>
        <time>2022-02-24T10:12:14.401Z</time>
      </trkpt>
      <trkpt lat="47.657303" lon="2.0981932">
        <ele>179</ele>
        <time>2022-02-24T10:12:15.401Z</time>
      </trkpt>
      <trkpt lat="47.657303" lon="2.0981727">
        <ele>179</ele>
        <time>2022-02-24T10:12:16.401Z</time>
      </trkpt>
      <trkpt lat="47.657303" lon="2.0981727">
        <ele>179</ele>
        <time>2022-02-24T10:12:16.401Z</time>
      </trkpt>
      <trkpt lat="47.65729" lon="2.0981383">
        <ele>178</ele>
        <time>2022-02-24T10:12:18.401Z</time>
      </trkpt>
      <trkpt lat="47.65729" lon="2.0981383">
        <ele>178</ele>
        <time>2022-02-24T10:12:18.401Z</time>
      </trkpt>
      <trkpt lat="47.65729" lon="2.0981383">
        <ele>178</ele>
        <time>2022-02-24T10:12:20.401Z</time>
      </trkpt>
      <trkpt lat="47.657272" lon="2.098099">
        <ele>179</ele>
        <time>2022-02-24T10:12:21.401Z</time>
      </trkpt>
      <trkpt lat="47.657272" lon="2.098099">
        <ele>179</ele>
        <time>2022-02-24T10:12:21.401Z</time>
      </trkpt>
      <trkpt lat="47.657257" lon="2.0980728">
        <ele>179</ele>
        <time>2022-02-24T10:12:23.401Z</time>
      </trkpt>
      <trkpt lat="47.65725" lon="2.0980563">
        <ele>179</ele>
        <time>2022-02-24T10:12:24.401Z</time>
      </trkpt>
      <trkpt lat="47.657246" lon="2.098041">
        <ele>179</ele>
        <time>2022-02-24T10:12:25.401Z</time>
      </trkpt>
      <trkpt lat="47.657238" lon="2.0980268">
        <ele>180</ele>
        <time>2022-02-24T10:12:26.401Z</time>
      </trkpt>
      <trkpt lat="47.657234" lon="2.098008">
        <ele>179</ele>
        <time>2022-02-24T10:12:27.401Z</time>
      </trkpt>
      <trkpt lat="47.657227" lon="2.0979903">
        <ele>180</ele>
        <time>2022-02-24T10:12:28.401Z</time>
      </trkpt>
      <trkpt lat="47.657223" lon="2.0979776">
        <ele>180</ele>
        <time>2022-02-24T10:12:29.401Z</time>
      </trkpt>
      <trkpt lat="47.657215" lon="2.0979586">
        <ele>180</ele>
        <time>2022-02-24T10:12:30.401Z</time>
      </trkpt>
      <trkpt lat="47.65721" lon="2.0979402">
        <ele>180</ele>
        <time>2022-02-24T10:12:31.401Z</time>
      </trkpt>
      <trkpt lat="47.657204" lon="2.097923">
        <ele>180</ele>
        <time>2022-02-24T10:12:32.401Z</time>
      </trkpt>
      <trkpt lat="47.6572" lon="2.097905">
        <ele>180</ele>
        <time>2022-02-24T10:12:33.401Z</time>
      </trkpt>
      <trkpt lat="47.657192" lon="2.097889">
        <ele>180</ele>
        <time>2022-02-24T10:12:34.401Z</time>
      </trkpt>
      <trkpt lat="47.65719" lon="2.097873">
        <ele>180</ele>
        <time>2022-02-24T10:12:35.401Z</time>
      </trkpt>
      <trkpt lat="47.65719" lon="2.0978553">
        <ele>181</ele>
        <time>2022-02-24T10:12:36.401Z</time>
      </trkpt>
      <trkpt lat="47.65719" lon="2.0978553">
        <ele>181</ele>
        <time>2022-02-24T10:12:37.401Z</time>
      </trkpt>
      <trkpt lat="47.65719" lon="2.0978553">
        <ele>181</ele>
        <time>2022-02-24T10:12:38.401Z</time>
      </trkpt>
      <trkpt lat="47.65718" lon="2.0978105">
        <ele>180</ele>
        <time>2022-02-24T10:12:39.401Z</time>
      </trkpt>
      <trkpt lat="47.657177" lon="2.0977972">
        <ele>180</ele>
        <time>2022-02-24T10:12:40.401Z</time>
      </trkpt>
      <trkpt lat="47.657177" lon="2.0977843">
        <ele>181</ele>
        <time>2022-02-24T10:12:41.401Z</time>
      </trkpt>
      <trkpt lat="47.657177" lon="2.0977721">
        <ele>181</ele>
        <time>2022-02-24T10:12:42.401Z</time>
      </trkpt>
      <trkpt lat="47.657177" lon="2.0977721">
        <ele>181</ele>
        <time>2022-02-24T10:12:43.401Z</time>
      </trkpt>
      <trkpt lat="47.657177" lon="2.0977721">
        <ele>181</ele>
        <time>2022-02-24T10:12:44.401Z</time>
      </trkpt>
      <trkpt lat="47.657173" lon="2.0977402">
        <ele>180</ele>
        <time>2022-02-24T10:12:45.401Z</time>
      </trkpt>
      <trkpt lat="47.657166" lon="2.097731">
        <ele>181</ele>
        <time>2022-02-24T10:12:46.401Z</time>
      </trkpt>
      <trkpt lat="47.65716" lon="2.0977225">
        <ele>181</ele>
        <time>2022-02-24T10:12:47.401Z</time>
      </trkpt>
      <trkpt lat="47.65716" lon="2.0977066">
        <ele>181</ele>
        <time>2022-02-24T10:12:48.401Z</time>
      </trkpt>
      <trkpt lat="47.65716" lon="2.0977066">
        <ele>181</ele>
        <time>2022-02-24T10:12:49.401Z</time>
      </trkpt>
      <trkpt lat="47.657158" lon="2.0976696">
        <ele>181</ele>
        <time>2022-02-24T10:12:50.401Z</time>
      </trkpt>
      <trkpt lat="47.657154" lon="2.097653">
        <ele>181</ele>
        <time>2022-02-24T10:12:51.401Z</time>
      </trkpt>
      <trkpt lat="47.657154" lon="2.097645">
        <ele>181</ele>
        <time>2022-02-24T10:12:52.401Z</time>
      </trkpt>
      <trkpt lat="47.657154" lon="2.0976348">
        <ele>181</ele>
        <time>2022-02-24T10:12:53.401Z</time>
      </trkpt>
      <trkpt lat="47.65715" lon="2.097622">
        <ele>181</ele>
        <time>2022-02-24T10:12:54.401Z</time>
      </trkpt>
      <trkpt lat="47.65715" lon="2.097622">
        <ele>181</ele>
        <time>2022-02-24T10:12:55.401Z</time>
      </trkpt>
      <trkpt lat="47.65715" lon="2.097622">
        <ele>181</ele>
        <time>2022-02-24T10:12:56.401Z</time>
      </trkpt>
      <trkpt lat="47.657135" lon="2.0975811">
        <ele>181</ele>
        <time>2022-02-24T10:12:57.401Z</time>
      </trkpt>
      <trkpt lat="47.65713" lon="2.0975654">
        <ele>180</ele>
        <time>2022-02-24T10:12:58.401Z</time>
      </trkpt>
      <trkpt lat="47.657127" lon="2.0975478">
        <ele>180</ele>
        <time>2022-02-24T10:12:59.401Z</time>
      </trkpt>
      <trkpt lat="47.65712" lon="2.0975363">
        <ele>180</ele>
        <time>2022-02-24T10:13:00.401Z</time>
      </trkpt>
      <trkpt lat="47.65712" lon="2.0975363">
        <ele>180</ele>
        <time>2022-02-24T10:13:01.401Z</time>
      </trkpt>
      <trkpt lat="47.65712" lon="2.0975363">
        <ele>180</ele>
        <time>2022-02-24T10:13:02.401Z</time>
      </trkpt>
      <trkpt lat="47.65711" lon="2.0974967">
        <ele>179</ele>
        <time>2022-02-24T10:13:03.401Z</time>
      </trkpt>
      <trkpt lat="47.6571" lon="2.0974822">
        <ele>179</ele>
        <time>2022-02-24T10:13:04.401Z</time>
      </trkpt>
      <trkpt lat="47.6571" lon="2.0974667">
        <ele>179</ele>
        <time>2022-02-24T10:13:05.401Z</time>
      </trkpt>
      <trkpt lat="47.657097" lon="2.0974522">
        <ele>179</ele>
        <time>2022-02-24T10:13:06.401Z</time>
      </trkpt>
      <trkpt lat="47.657097" lon="2.0974522">
        <ele>179</ele>
        <time>2022-02-24T10:13:07.401Z</time>
      </trkpt>
      <trkpt lat="47.657097" lon="2.0974522">
        <ele>179</ele>
        <time>2022-02-24T10:13:08.401Z</time>
      </trkpt>
      <trkpt lat="47.657074" lon="2.0974097">
        <ele>180</ele>
        <time>2022-02-24T10:13:09.401Z</time>
      </trkpt>
      <trkpt lat="47.65707" lon="2.0973873">
        <ele>180</ele>
        <time>2022-02-24T10:13:10.401Z</time>
      </trkpt>
      <trkpt lat="47.657063" lon="2.0973694">
        <ele>180</ele>
        <time>2022-02-24T10:13:11.401Z</time>
      </trkpt>
      <trkpt lat="47.65706" lon="2.0973492">
        <ele>180</ele>
        <time>2022-02-24T10:13:12.401Z</time>
      </trkpt>
      <trkpt lat="47.65705" lon="2.097334">
        <ele>181</ele>
        <time>2022-02-24T10:13:13.401Z</time>
      </trkpt>
      <trkpt lat="47.65705" lon="2.097334">
        <ele>181</ele>
        <time>2022-02-24T10:13:14.401Z</time>
      </trkpt>
      <trkpt lat="47.65705" lon="2.097334">
        <ele>181</ele>
        <time>2022-02-24T10:13:15.401Z</time>
      </trkpt>
      <trkpt lat="47.657043" lon="2.0972853">
        <ele>181</ele>
        <time>2022-02-24T10:13:16.401Z</time>
      </trkpt>
      <trkpt lat="47.657036" lon="2.0972686">
        <ele>180</ele>
        <time>2022-02-24T10:13:17.401Z</time>
      </trkpt>
      <trkpt lat="47.657032" lon="2.0972533">
        <ele>179</ele>
        <time>2022-02-24T10:13:18.401Z</time>
      </trkpt>
      <trkpt lat="47.65702" lon="2.0972376">
        <ele>180</ele>
        <time>2022-02-24T10:13:19.401Z</time>
      </trkpt>
      <trkpt lat="47.65702" lon="2.0972376">
        <ele>180</ele>
        <time>2022-02-24T10:13:20.401Z</time>
      </trkpt>
      <trkpt lat="47.65702" lon="2.0972376">
        <ele>180</ele>
        <time>2022-02-24T10:13:21.401Z</time>
      </trkpt>
      <trkpt lat="47.65701" lon="2.0971968">
        <ele>181</ele>
        <time>2022-02-24T10:13:22.401Z</time>
      </trkpt>
      <trkpt lat="47.657005" lon="2.097183">
        <ele>181</ele>
        <time>2022-02-24T10:13:23.401Z</time>
      </trkpt>
      <trkpt lat="47.657005" lon="2.0971718">
        <ele>180</ele>
        <time>2022-02-24T10:13:24.401Z</time>
      </trkpt>
      <trkpt lat="47.657" lon="2.0971553">
        <ele>181</ele>
        <time>2022-02-24T10:13:25.401Z</time>
      </trkpt>
      <trkpt lat="47.657" lon="2.0971553">
        <ele>181</ele>
        <time>2022-02-24T10:13:26.401Z</time>
      </trkpt>
      <trkpt lat="47.657" lon="2.0971553">
        <ele>181</ele>
        <time>2022-02-24T10:13:27.401Z</time>
      </trkpt>
      <trkpt lat="47.656998" lon="2.097111">
        <ele>180</ele>
        <time>2022-02-24T10:13:28.401Z</time>
      </trkpt>
      <trkpt lat="47.65699" lon="2.097095">
        <ele>179</ele>
        <time>2022-02-24T10:13:29.401Z</time>
      </trkpt>
      <trkpt lat="47.656986" lon="2.0970771">
        <ele>179</ele>
        <time>2022-02-24T10:13:30.401Z</time>
      </trkpt>
      <trkpt lat="47.656986" lon="2.0970578">
        <ele>179</ele>
        <time>2022-02-24T10:13:31.401Z</time>
      </trkpt>
      <trkpt lat="47.656982" lon="2.0970414">
        <ele>179</ele>
        <time>2022-02-24T10:13:32.401Z</time>
      </trkpt>
      <trkpt lat="47.656982" lon="2.0970197">
        <ele>179</ele>
        <time>2022-02-24T10:13:33.401Z</time>
      </trkpt>
      <trkpt lat="47.656982" lon="2.0970197">
        <ele>179</ele>
        <time>2022-02-24T10:13:34.401Z</time>
      </trkpt>
      <trkpt lat="47.656982" lon="2.0970197">
        <ele>179</ele>
        <time>2022-02-24T10:13:35.401Z</time>
      </trkpt>
      <trkpt lat="47.656982" lon="2.0969865">
        <ele>179</ele>
        <time>2022-02-24T10:13:36.401Z</time>
      </trkpt>
      <trkpt lat="47.65698" lon="2.0969708">
        <ele>179</ele>
        <time>2022-02-24T10:13:37.401Z</time>
      </trkpt>
      <trkpt lat="47.656975" lon="2.0969582">
        <ele>179</ele>
        <time>2022-02-24T10:13:38.401Z</time>
      </trkpt>
      <trkpt lat="47.656975" lon="2.0969477">
        <ele>179</ele>
        <time>2022-02-24T10:13:39.401Z</time>
      </trkpt>
      <trkpt lat="47.656975" lon="2.0969474">
        <ele>179</ele>
        <time>2022-02-24T10:13:40.401Z</time>
      </trkpt>
      <trkpt lat="47.65697" lon="2.0969367">
        <ele>178</ele>
        <time>2022-02-24T10:13:41.401Z</time>
      </trkpt>
      <trkpt lat="47.656967" lon="2.0969253">
        <ele>178</ele>
        <time>2022-02-24T10:13:42.401Z</time>
      </trkpt>
      <trkpt lat="47.656963" lon="2.0969095">
        <ele>178</ele>
        <time>2022-02-24T10:13:43.401Z</time>
      </trkpt>
      <trkpt lat="47.656963" lon="2.0969095">
        <ele>178</ele>
        <time>2022-02-24T10:13:44.401Z</time>
      </trkpt>
      <trkpt lat="47.656963" lon="2.0969095">
        <ele>178</ele>
        <time>2022-02-24T10:13:45.401Z</time>
      </trkpt>
      <trkpt lat="47.656948" lon="2.0968747">
        <ele>178</ele>
        <time>2022-02-24T10:13:46.401Z</time>
      </trkpt>
      <trkpt lat="47.656944" lon="2.09686">
        <ele>179</ele>
        <time>2022-02-24T10:13:47.401Z</time>
      </trkpt>
      <trkpt lat="47.65694" lon="2.0968435">
        <ele>179</ele>
        <time>2022-02-24T10:13:48.401Z</time>
      </trkpt>
      <trkpt lat="47.65694" lon="2.0968285">
        <ele>179</ele>
        <time>2022-02-24T10:13:49.401Z</time>
      </trkpt>
      <trkpt lat="47.65694" lon="2.0968285">
        <ele>179</ele>
        <time>2022-02-24T10:13:50.401Z</time>
      </trkpt>
      <trkpt lat="47.65694" lon="2.0968285">
        <ele>179</ele>
        <time>2022-02-24T10:13:51.401Z</time>
      </trkpt>
      <trkpt lat="47.65693" lon="2.0967977">
        <ele>180</ele>
        <time>2022-02-24T10:13:52.401Z</time>
      </trkpt>
      <trkpt lat="47.656925" lon="2.0967839">
        <ele>180</ele>
        <time>2022-02-24T10:13:53.401Z</time>
      </trkpt>
      <trkpt lat="47.656925" lon="2.096769">
        <ele>180</ele>
        <time>2022-02-24T10:13:54.401Z</time>
      </trkpt>
      <trkpt lat="47.656918" lon="2.0967538">
        <ele>180</ele>
        <time>2022-02-24T10:13:55.401Z</time>
      </trkpt>
      <trkpt lat="47.65691" lon="2.096737">
        <ele>180</ele>
        <time>2022-02-24T10:13:56.401Z</time>
      </trkpt>
      <trkpt lat="47.656906" lon="2.0967236">
        <ele>180</ele>
        <time>2022-02-24T10:13:57.401Z</time>
      </trkpt>
      <trkpt lat="47.656902" lon="2.0967085">
        <ele>180</ele>
        <time>2022-02-24T10:13:58.401Z</time>
      </trkpt>
      <trkpt lat="47.656902" lon="2.096692">
        <ele>180</ele>
        <time>2022-02-24T10:13:59.401Z</time>
      </trkpt>
      <trkpt lat="47.656902" lon="2.096692">
        <ele>180</ele>
        <time>2022-02-24T10:14:00.401Z</time>
      </trkpt>
      <trkpt lat="47.656902" lon="2.096692">
        <ele>180</ele>
        <time>2022-02-24T10:14:01.401Z</time>
      </trkpt>
      <trkpt lat="47.6569" lon="2.0966594">
        <ele>180</ele>
        <time>2022-02-24T10:14:02.401Z</time>
      </trkpt>
      <trkpt lat="47.656895" lon="2.0966473">
        <ele>180</ele>
        <time>2022-02-24T10:14:03.401Z</time>
      </trkpt>
      <trkpt lat="47.656887" lon="2.0966325">
        <ele>180</ele>
        <time>2022-02-24T10:14:04.401Z</time>
      </trkpt>
      <trkpt lat="47.656883" lon="2.0966175">
        <ele>180</ele>
        <time>2022-02-24T10:14:05.401Z</time>
      </trkpt>
      <trkpt lat="47.656876" lon="2.096605">
        <ele>180</ele>
        <time>2022-02-24T10:14:06.401Z</time>
      </trkpt>
      <trkpt lat="47.656868" lon="2.0965893">
        <ele>180</ele>
        <time>2022-02-24T10:14:07.401Z</time>
      </trkpt>
      <trkpt lat="47.656868" lon="2.0965745">
        <ele>180</ele>
        <time>2022-02-24T10:14:08.401Z</time>
      </trkpt>
      <trkpt lat="47.656864" lon="2.096558">
        <ele>180</ele>
        <time>2022-02-24T10:14:09.401Z</time>
      </trkpt>
      <trkpt lat="47.65686" lon="2.0965414">
        <ele>179</ele>
        <time>2022-02-24T10:14:10.401Z</time>
      </trkpt>
      <trkpt lat="47.65686" lon="2.0965238">
        <ele>179</ele>
        <time>2022-02-24T10:14:11.401Z</time>
      </trkpt>
      <trkpt lat="47.65686" lon="2.096507">
        <ele>179</ele>
        <time>2022-02-24T10:14:12.401Z</time>
      </trkpt>
      <trkpt lat="47.65686" lon="2.096507">
        <ele>179</ele>
        <time>2022-02-24T10:14:13.401Z</time>
      </trkpt>
      <trkpt lat="47.65686" lon="2.0964675">
        <ele>179</ele>
        <time>2022-02-24T10:14:14.401Z</time>
      </trkpt>
      <trkpt lat="47.656857" lon="2.0964463">
        <ele>178</ele>
        <time>2022-02-24T10:14:15.401Z</time>
      </trkpt>
      <trkpt lat="47.656857" lon="2.0964298">
        <ele>178</ele>
        <time>2022-02-24T10:14:16.401Z</time>
      </trkpt>
      <trkpt lat="47.656853" lon="2.0964103">
        <ele>178</ele>
        <time>2022-02-24T10:14:17.401Z</time>
      </trkpt>
      <trkpt lat="47.65685" lon="2.0963902">
        <ele>178</ele>
        <time>2022-02-24T10:14:18.401Z</time>
      </trkpt>
      <trkpt lat="47.65684" lon="2.096375">
        <ele>177</ele>
        <time>2022-02-24T10:14:19.401Z</time>
      </trkpt>
      <trkpt lat="47.656837" lon="2.0963595">
        <ele>177</ele>
        <time>2022-02-24T10:14:20.401Z</time>
      </trkpt>
      <trkpt lat="47.656834" lon="2.096342">
        <ele>177</ele>
        <time>2022-02-24T10:14:21.401Z</time>
      </trkpt>
      <trkpt lat="47.656834" lon="2.0963244">
        <ele>177</ele>
        <time>2022-02-24T10:14:22.401Z</time>
      </trkpt>
      <trkpt lat="47.656826" lon="2.0963054">
        <ele>177</ele>
        <time>2022-02-24T10:14:23.401Z</time>
      </trkpt>
      <trkpt lat="47.656822" lon="2.0962915">
        <ele>177</ele>
        <time>2022-02-24T10:14:24.401Z</time>
      </trkpt>
      <trkpt lat="47.656822" lon="2.0962915">
        <ele>177</ele>
        <time>2022-02-24T10:14:25.401Z</time>
      </trkpt>
      <trkpt lat="47.656822" lon="2.0962915">
        <ele>177</ele>
        <time>2022-02-24T10:14:26.401Z</time>
      </trkpt>
      <trkpt lat="47.656822" lon="2.0962915">
        <ele>177</ele>
        <time>2022-02-24T10:14:27.401Z</time>
      </trkpt>
      <trkpt lat="47.65681" lon="2.0962636">
        <ele>176</ele>
        <time>2022-02-24T10:14:28.401Z</time>
      </trkpt>
      <trkpt lat="47.656803" lon="2.0962443">
        <ele>175</ele>
        <time>2022-02-24T10:14:29.401Z</time>
      </trkpt>
      <trkpt lat="47.656803" lon="2.0962288">
        <ele>175</ele>
        <time>2022-02-24T10:14:30.401Z</time>
      </trkpt>
      <trkpt lat="47.6568" lon="2.0962157">
        <ele>175</ele>
        <time>2022-02-24T10:14:31.401Z</time>
      </trkpt>
      <trkpt lat="47.6568" lon="2.0962157">
        <ele>175</ele>
        <time>2022-02-24T10:14:32.401Z</time>
      </trkpt>
      <trkpt lat="47.6568" lon="2.0962157">
        <ele>175</ele>
        <time>2022-02-24T10:14:33.401Z</time>
      </trkpt>
      <trkpt lat="47.656788" lon="2.0961814">
        <ele>174</ele>
        <time>2022-02-24T10:14:34.401Z</time>
      </trkpt>
      <trkpt lat="47.656788" lon="2.0961697">
        <ele>173</ele>
        <time>2022-02-24T10:14:35.401Z</time>
      </trkpt>
      <trkpt lat="47.656784" lon="2.0961573">
        <ele>173</ele>
        <time>2022-02-24T10:14:36.401Z</time>
      </trkpt>
      <trkpt lat="47.65678" lon="2.096143">
        <ele>173</ele>
        <time>2022-02-24T10:14:37.401Z</time>
      </trkpt>
      <trkpt lat="47.65678" lon="2.096143">
        <ele>173</ele>
        <time>2022-02-24T10:14:38.401Z</time>
      </trkpt>
      <trkpt lat="47.65678" lon="2.096143">
        <ele>173</ele>
        <time>2022-02-24T10:14:39.401Z</time>
      </trkpt>
      <trkpt lat="47.65678" lon="2.096143">
        <ele>173</ele>
        <time>2022-02-24T10:14:40.401Z</time>
      </trkpt>
      <trkpt lat="47.65678" lon="2.096143">
        <ele>173</ele>
        <time>2022-02-24T10:14:41.401Z</time>
      </trkpt>
      <trkpt lat="47.65678" lon="2.096143">
        <ele>173</ele>
        <time>2022-02-24T10:14:42.401Z</time>
      </trkpt>
      <trkpt lat="47.656765" lon="2.096101">
        <ele>172</ele>
        <time>2022-02-24T10:14:43.401Z</time>
      </trkpt>
      <trkpt lat="47.65676" lon="2.0960824">
        <ele>172</ele>
        <time>2022-02-24T10:14:44.401Z</time>
      </trkpt>
      <trkpt lat="47.65676" lon="2.0960677">
        <ele>172</ele>
        <time>2022-02-24T10:14:45.401Z</time>
      </trkpt>
      <trkpt lat="47.656757" lon="2.096049">
        <ele>171</ele>
        <time>2022-02-24T10:14:46.401Z</time>
      </trkpt>
      <trkpt lat="47.656757" lon="2.0960295">
        <ele>171</ele>
        <time>2022-02-24T10:14:47.401Z</time>
      </trkpt>
      <trkpt lat="47.656754" lon="2.096006">
        <ele>171</ele>
        <time>2022-02-24T10:14:48.401Z</time>
      </trkpt>
      <trkpt lat="47.656746" lon="2.095985">
        <ele>171</ele>
        <time>2022-02-24T10:14:49.401Z</time>
      </trkpt>
      <trkpt lat="47.656742" lon="2.0959651">
        <ele>171</ele>
        <time>2022-02-24T10:14:50.401Z</time>
      </trkpt>
      <trkpt lat="47.656734" lon="2.0959492">
        <ele>171</ele>
        <time>2022-02-24T10:14:51.401Z</time>
      </trkpt>
      <trkpt lat="47.656734" lon="2.0959303">
        <ele>170</ele>
        <time>2022-02-24T10:14:52.401Z</time>
      </trkpt>
      <trkpt lat="47.656727" lon="2.0959115">
        <ele>170</ele>
        <time>2022-02-24T10:14:53.401Z</time>
      </trkpt>
      <trkpt lat="47.656723" lon="2.0958924">
        <ele>170</ele>
        <time>2022-02-24T10:14:54.401Z</time>
      </trkpt>
      <trkpt lat="47.656723" lon="2.0958762">
        <ele>170</ele>
        <time>2022-02-24T10:14:55.401Z</time>
      </trkpt>
      <trkpt lat="47.65672" lon="2.0958598">
        <ele>170</ele>
        <time>2022-02-24T10:14:56.401Z</time>
      </trkpt>
      <trkpt lat="47.65672" lon="2.0958598">
        <ele>170</ele>
        <time>2022-02-24T10:14:57.401Z</time>
      </trkpt>
      <trkpt lat="47.65672" lon="2.0958598">
        <ele>170</ele>
        <time>2022-02-24T10:14:58.401Z</time>
      </trkpt>
      <trkpt lat="47.65671" lon="2.0958056">
        <ele>170</ele>
        <time>2022-02-24T10:14:59.401Z</time>
      </trkpt>
      <trkpt lat="47.65671" lon="2.095787">
        <ele>170</ele>
        <time>2022-02-24T10:15:00.401Z</time>
      </trkpt>
      <trkpt lat="47.65671" lon="2.0957675">
        <ele>170</ele>
        <time>2022-02-24T10:15:01.401Z</time>
      </trkpt>
      <trkpt lat="47.656704" lon="2.0957484">
        <ele>170</ele>
        <time>2022-02-24T10:15:02.401Z</time>
      </trkpt>
      <trkpt lat="47.656704" lon="2.0957277">
        <ele>171</ele>
        <time>2022-02-24T10:15:03.401Z</time>
      </trkpt>
      <trkpt lat="47.6567" lon="2.0957093">
        <ele>172</ele>
        <time>2022-02-24T10:15:04.401Z</time>
      </trkpt>
      <trkpt lat="47.6567" lon="2.0957067">
        <ele>171</ele>
        <time>2022-02-24T10:15:05.401Z</time>
      </trkpt>
      <trkpt lat="47.656696" lon="2.095696">
        <ele>171</ele>
        <time>2022-02-24T10:15:06.401Z</time>
      </trkpt>
      <trkpt lat="47.656696" lon="2.095684">
        <ele>171</ele>
        <time>2022-02-24T10:15:07.401Z</time>
      </trkpt>
      <trkpt lat="47.656696" lon="2.095684">
        <ele>171</ele>
        <time>2022-02-24T10:15:08.401Z</time>
      </trkpt>
      <trkpt lat="47.656696" lon="2.095684">
        <ele>171</ele>
        <time>2022-02-24T10:15:09.401Z</time>
      </trkpt>
      <trkpt lat="47.656693" lon="2.09565">
        <ele>172</ele>
        <time>2022-02-24T10:15:10.401Z</time>
      </trkpt>
      <trkpt lat="47.656696" lon="2.0956333">
        <ele>171</ele>
        <time>2022-02-24T10:15:11.401Z</time>
      </trkpt>
      <trkpt lat="47.656693" lon="2.0956168">
        <ele>171</ele>
        <time>2022-02-24T10:15:12.401Z</time>
      </trkpt>
      <trkpt lat="47.65669" lon="2.0956006">
        <ele>171</ele>
        <time>2022-02-24T10:15:13.401Z</time>
      </trkpt>
      <trkpt lat="47.65669" lon="2.0956006">
        <ele>171</ele>
        <time>2022-02-24T10:15:14.401Z</time>
      </trkpt>
      <trkpt lat="47.65669" lon="2.0956006">
        <ele>171</ele>
        <time>2022-02-24T10:15:15.401Z</time>
      </trkpt>
      <trkpt lat="47.656677" lon="2.0955606">
        <ele>170</ele>
        <time>2022-02-24T10:15:16.401Z</time>
      </trkpt>
      <trkpt lat="47.65668" lon="2.0955462">
        <ele>169</ele>
        <time>2022-02-24T10:15:17.401Z</time>
      </trkpt>
      <trkpt lat="47.656677" lon="2.0955338">
        <ele>169</ele>
        <time>2022-02-24T10:15:18.401Z</time>
      </trkpt>
      <trkpt lat="47.656673" lon="2.0955193">
        <ele>168</ele>
        <time>2022-02-24T10:15:19.401Z</time>
      </trkpt>
      <trkpt lat="47.656673" lon="2.0955193">
        <ele>168</ele>
        <time>2022-02-24T10:15:20.401Z</time>
      </trkpt>
      <trkpt lat="47.656673" lon="2.0955193">
        <ele>168</ele>
        <time>2022-02-24T10:15:21.401Z</time>
      </trkpt>
      <trkpt lat="47.656666" lon="2.0954747">
        <ele>168</ele>
        <time>2022-02-24T10:15:22.401Z</time>
      </trkpt>
      <trkpt lat="47.656662" lon="2.095459">
        <ele>168</ele>
        <time>2022-02-24T10:15:23.401Z</time>
      </trkpt>
      <trkpt lat="47.656662" lon="2.0954397">
        <ele>168</ele>
        <time>2022-02-24T10:15:24.401Z</time>
      </trkpt>
      <trkpt lat="47.656654" lon="2.095422">
        <ele>168</ele>
        <time>2022-02-24T10:15:25.401Z</time>
      </trkpt>
      <trkpt lat="47.656654" lon="2.095422">
        <ele>168</ele>
        <time>2022-02-24T10:15:26.401Z</time>
      </trkpt>
      <trkpt lat="47.656654" lon="2.095422">
        <ele>168</ele>
        <time>2022-02-24T10:15:27.401Z</time>
      </trkpt>
      <trkpt lat="47.656647" lon="2.095371">
        <ele>167</ele>
        <time>2022-02-24T10:15:28.401Z</time>
      </trkpt>
      <trkpt lat="47.656643" lon="2.0953526">
        <ele>168</ele>
        <time>2022-02-24T10:15:29.401Z</time>
      </trkpt>
      <trkpt lat="47.656643" lon="2.0953398">
        <ele>167</ele>
        <time>2022-02-24T10:15:30.401Z</time>
      </trkpt>
      <trkpt lat="47.65664" lon="2.0953205">
        <ele>167</ele>
        <time>2022-02-24T10:15:31.401Z</time>
      </trkpt>
      <trkpt lat="47.656643" lon="2.0952988">
        <ele>167</ele>
        <time>2022-02-24T10:15:32.401Z</time>
      </trkpt>
      <trkpt lat="47.656643" lon="2.0952792">
        <ele>166</ele>
        <time>2022-02-24T10:15:33.401Z</time>
      </trkpt>
      <trkpt lat="47.656643" lon="2.0952652">
        <ele>166</ele>
        <time>2022-02-24T10:15:34.401Z</time>
      </trkpt>
      <trkpt lat="47.656643" lon="2.0952494">
        <ele>166</ele>
        <time>2022-02-24T10:15:35.401Z</time>
      </trkpt>
      <trkpt lat="47.656643" lon="2.0952494">
        <ele>166</ele>
        <time>2022-02-24T10:15:36.401Z</time>
      </trkpt>
      <trkpt lat="47.656643" lon="2.0952494">
        <ele>166</ele>
        <time>2022-02-24T10:15:37.401Z</time>
      </trkpt>
      <trkpt lat="47.65664" lon="2.095208">
        <ele>166</ele>
        <time>2022-02-24T10:15:38.401Z</time>
      </trkpt>
      <trkpt lat="47.656635" lon="2.0951943">
        <ele>166</ele>
        <time>2022-02-24T10:15:39.401Z</time>
      </trkpt>
      <trkpt lat="47.65663" lon="2.0951757">
        <ele>166</ele>
        <time>2022-02-24T10:15:40.401Z</time>
      </trkpt>
      <trkpt lat="47.656628" lon="2.095157">
        <ele>167</ele>
        <time>2022-02-24T10:15:41.401Z</time>
      </trkpt>
      <trkpt lat="47.656624" lon="2.095136">
        <ele>168</ele>
        <time>2022-02-24T10:15:42.401Z</time>
      </trkpt>
      <trkpt lat="47.656624" lon="2.0951226">
        <ele>168</ele>
        <time>2022-02-24T10:15:43.401Z</time>
      </trkpt>
      <trkpt lat="47.656624" lon="2.0951226">
        <ele>168</ele>
        <time>2022-02-24T10:15:44.401Z</time>
      </trkpt>
      <trkpt lat="47.656624" lon="2.0951226">
        <ele>168</ele>
        <time>2022-02-24T10:15:45.401Z</time>
      </trkpt>
      <trkpt lat="47.656612" lon="2.0950837">
        <ele>168</ele>
        <time>2022-02-24T10:15:46.401Z</time>
      </trkpt>
      <trkpt lat="47.656612" lon="2.0950665">
        <ele>169</ele>
        <time>2022-02-24T10:15:47.401Z</time>
      </trkpt>
      <trkpt lat="47.65661" lon="2.0950496">
        <ele>169</ele>
        <time>2022-02-24T10:15:48.401Z</time>
      </trkpt>
      <trkpt lat="47.656605" lon="2.0950303">
        <ele>169</ele>
        <time>2022-02-24T10:15:49.401Z</time>
      </trkpt>
      <trkpt lat="47.6566" lon="2.0950093">
        <ele>169</ele>
        <time>2022-02-24T10:15:50.401Z</time>
      </trkpt>
      <trkpt lat="47.656597" lon="2.0949938">
        <ele>169</ele>
        <time>2022-02-24T10:15:51.401Z</time>
      </trkpt>
      <trkpt lat="47.656597" lon="2.0949938">
        <ele>169</ele>
        <time>2022-02-24T10:15:52.401Z</time>
      </trkpt>
      <trkpt lat="47.656597" lon="2.0949938">
        <ele>169</ele>
        <time>2022-02-24T10:15:53.401Z</time>
      </trkpt>
      <trkpt lat="47.65659" lon="2.0949535">
        <ele>170</ele>
        <time>2022-02-24T10:15:54.401Z</time>
      </trkpt>
      <trkpt lat="47.656586" lon="2.0949335">
        <ele>170</ele>
        <time>2022-02-24T10:15:55.401Z</time>
      </trkpt>
      <trkpt lat="47.656578" lon="2.094917">
        <ele>171</ele>
        <time>2022-02-24T10:15:56.401Z</time>
      </trkpt>
      <trkpt lat="47.656578" lon="2.094901">
        <ele>171</ele>
        <time>2022-02-24T10:15:57.401Z</time>
      </trkpt>
      <trkpt lat="47.656574" lon="2.094885">
        <ele>172</ele>
        <time>2022-02-24T10:15:58.401Z</time>
      </trkpt>
      <trkpt lat="47.656574" lon="2.0948668">
        <ele>172</ele>
        <time>2022-02-24T10:15:59.401Z</time>
      </trkpt>
      <trkpt lat="47.656574" lon="2.0948472">
        <ele>172</ele>
        <time>2022-02-24T10:16:00.401Z</time>
      </trkpt>
      <trkpt lat="47.65657" lon="2.0948308">
        <ele>172</ele>
        <time>2022-02-24T10:16:01.401Z</time>
      </trkpt>
      <trkpt lat="47.656567" lon="2.0948129">
        <ele>172</ele>
        <time>2022-02-24T10:16:02.401Z</time>
      </trkpt>
      <trkpt lat="47.656563" lon="2.0947921">
        <ele>172</ele>
        <time>2022-02-24T10:16:03.401Z</time>
      </trkpt>
      <trkpt lat="47.656563" lon="2.0947921">
        <ele>172</ele>
        <time>2022-02-24T10:16:04.401Z</time>
      </trkpt>
      <trkpt lat="47.656563" lon="2.0947921">
        <ele>172</ele>
        <time>2022-02-24T10:16:05.401Z</time>
      </trkpt>
      <trkpt lat="47.656555" lon="2.094746">
        <ele>171</ele>
        <time>2022-02-24T10:16:06.401Z</time>
      </trkpt>
      <trkpt lat="47.65655" lon="2.0947313">
        <ele>171</ele>
        <time>2022-02-24T10:16:07.401Z</time>
      </trkpt>
      <trkpt lat="47.656544" lon="2.0947134">
        <ele>171</ele>
        <time>2022-02-24T10:16:08.401Z</time>
      </trkpt>
      <trkpt lat="47.65654" lon="2.0946975">
        <ele>171</ele>
        <time>2022-02-24T10:16:09.401Z</time>
      </trkpt>
      <trkpt lat="47.65654" lon="2.0946975">
        <ele>171</ele>
        <time>2022-02-24T10:16:10.401Z</time>
      </trkpt>
      <trkpt lat="47.65654" lon="2.0946975">
        <ele>171</ele>
        <time>2022-02-24T10:16:11.401Z</time>
      </trkpt>
      <trkpt lat="47.656536" lon="2.094658">
        <ele>171</ele>
        <time>2022-02-24T10:16:12.401Z</time>
      </trkpt>
      <trkpt lat="47.656536" lon="2.0946403">
        <ele>171</ele>
        <time>2022-02-24T10:16:13.401Z</time>
      </trkpt>
      <trkpt lat="47.656536" lon="2.094622">
        <ele>171</ele>
        <time>2022-02-24T10:16:14.401Z</time>
      </trkpt>
      <trkpt lat="47.656536" lon="2.094605">
        <ele>170</ele>
        <time>2022-02-24T10:16:15.401Z</time>
      </trkpt>
      <trkpt lat="47.656536" lon="2.094605">
        <ele>170</ele>
        <time>2022-02-24T10:16:16.401Z</time>
      </trkpt>
      <trkpt lat="47.656536" lon="2.094605">
        <ele>170</ele>
        <time>2022-02-24T10:16:17.401Z</time>
      </trkpt>
      <trkpt lat="47.65653" lon="2.0945656">
        <ele>170</ele>
        <time>2022-02-24T10:16:18.401Z</time>
      </trkpt>
      <trkpt lat="47.656525" lon="2.094545">
        <ele>171</ele>
        <time>2022-02-24T10:16:19.401Z</time>
      </trkpt>
      <trkpt lat="47.656525" lon="2.0945432">
        <ele>171</ele>
        <time>2022-02-24T10:16:20.401Z</time>
      </trkpt>
      <trkpt lat="47.65652" lon="2.0945325">
        <ele>171</ele>
        <time>2022-02-24T10:16:21.401Z</time>
      </trkpt>
      <trkpt lat="47.65652" lon="2.0945325">
        <ele>171</ele>
        <time>2022-02-24T10:16:22.401Z</time>
      </trkpt>
      <trkpt lat="47.65652" lon="2.0945325">
        <ele>171</ele>
        <time>2022-02-24T10:16:23.401Z</time>
      </trkpt>
      <trkpt lat="47.65651" lon="2.094497">
        <ele>170</ele>
        <time>2022-02-24T10:16:24.401Z</time>
      </trkpt>
      <trkpt lat="47.656506" lon="2.0944822">
        <ele>170</ele>
        <time>2022-02-24T10:16:25.401Z</time>
      </trkpt>
      <trkpt lat="47.656506" lon="2.0944638">
        <ele>170</ele>
        <time>2022-02-24T10:16:26.401Z</time>
      </trkpt>
      <trkpt lat="47.656506" lon="2.094451">
        <ele>170</ele>
        <time>2022-02-24T10:16:27.401Z</time>
      </trkpt>
      <trkpt lat="47.656506" lon="2.094451">
        <ele>170</ele>
        <time>2022-02-24T10:16:28.401Z</time>
      </trkpt>
      <trkpt lat="47.656506" lon="2.094451">
        <ele>170</ele>
        <time>2022-02-24T10:16:29.401Z</time>
      </trkpt>
      <trkpt lat="47.656494" lon="2.094416">
        <ele>169</ele>
        <time>2022-02-24T10:16:30.401Z</time>
      </trkpt>
      <trkpt lat="47.65649" lon="2.0944026">
        <ele>169</ele>
        <time>2022-02-24T10:16:31.401Z</time>
      </trkpt>
      <trkpt lat="47.656487" lon="2.0943854">
        <ele>170</ele>
        <time>2022-02-24T10:16:32.401Z</time>
      </trkpt>
      <trkpt lat="47.65648" lon="2.0943694">
        <ele>170</ele>
        <time>2022-02-24T10:16:33.401Z</time>
      </trkpt>
      <trkpt lat="47.65648" lon="2.0943694">
        <ele>170</ele>
        <time>2022-02-24T10:16:34.401Z</time>
      </trkpt>
      <trkpt lat="47.65648" lon="2.0943694">
        <ele>170</ele>
        <time>2022-02-24T10:16:35.401Z</time>
      </trkpt>
      <trkpt lat="47.656464" lon="2.0943213">
        <ele>171</ele>
        <time>2022-02-24T10:16:36.401Z</time>
      </trkpt>
      <trkpt lat="47.65646" lon="2.0943022">
        <ele>170</ele>
        <time>2022-02-24T10:16:37.401Z</time>
      </trkpt>
      <trkpt lat="47.656456" lon="2.094281">
        <ele>171</ele>
        <time>2022-02-24T10:16:38.401Z</time>
      </trkpt>
      <trkpt lat="47.656452" lon="2.0942624">
        <ele>171</ele>
        <time>2022-02-24T10:16:39.401Z</time>
      </trkpt>
      <trkpt lat="47.65645" lon="2.0942411">
        <ele>171</ele>
        <time>2022-02-24T10:16:40.401Z</time>
      </trkpt>
      <trkpt lat="47.65644" lon="2.09422">
        <ele>171</ele>
        <time>2022-02-24T10:16:41.401Z</time>
      </trkpt>
      <trkpt lat="47.656437" lon="2.0941963">
        <ele>172</ele>
        <time>2022-02-24T10:16:42.401Z</time>
      </trkpt>
      <trkpt lat="47.656433" lon="2.0941753">
        <ele>172</ele>
        <time>2022-02-24T10:16:43.401Z</time>
      </trkpt>
      <trkpt lat="47.65643" lon="2.0941577">
        <ele>172</ele>
        <time>2022-02-24T10:16:44.401Z</time>
      </trkpt>
      <trkpt lat="47.65643" lon="2.09414">
        <ele>172</ele>
        <time>2022-02-24T10:16:45.401Z</time>
      </trkpt>
      <trkpt lat="47.656425" lon="2.0941238">
        <ele>172</ele>
        <time>2022-02-24T10:16:46.401Z</time>
      </trkpt>
      <trkpt lat="47.656425" lon="2.0941093">
        <ele>172</ele>
        <time>2022-02-24T10:16:47.401Z</time>
      </trkpt>
      <trkpt lat="47.65643" lon="2.094096">
        <ele>172</ele>
        <time>2022-02-24T10:16:48.401Z</time>
      </trkpt>
      <trkpt lat="47.65643" lon="2.0940826">
        <ele>172</ele>
        <time>2022-02-24T10:16:49.401Z</time>
      </trkpt>
      <trkpt lat="47.65643" lon="2.0940826">
        <ele>172</ele>
        <time>2022-02-24T10:16:50.401Z</time>
      </trkpt>
      <trkpt lat="47.65643" lon="2.0940826">
        <ele>172</ele>
        <time>2022-02-24T10:16:51.401Z</time>
      </trkpt>
      <trkpt lat="47.656425" lon="2.09404">
        <ele>172</ele>
        <time>2022-02-24T10:16:52.401Z</time>
      </trkpt>
      <trkpt lat="47.656425" lon="2.0940228">
        <ele>172</ele>
        <time>2022-02-24T10:16:53.401Z</time>
      </trkpt>
      <trkpt lat="47.65642" lon="2.0940063">
        <ele>173</ele>
        <time>2022-02-24T10:16:54.401Z</time>
      </trkpt>
      <trkpt lat="47.65642" lon="2.0939956">
        <ele>173</ele>
        <time>2022-02-24T10:16:55.401Z</time>
      </trkpt>
      <trkpt lat="47.65642" lon="2.0939956">
        <ele>173</ele>
        <time>2022-02-24T10:16:56.401Z</time>
      </trkpt>
      <trkpt lat="47.65642" lon="2.0939956">
        <ele>173</ele>
        <time>2022-02-24T10:16:57.401Z</time>
      </trkpt>
      <trkpt lat="47.656414" lon="2.093952">
        <ele>175</ele>
        <time>2022-02-24T10:16:58.401Z</time>
      </trkpt>
      <trkpt lat="47.656414" lon="2.093936">
        <ele>175</ele>
        <time>2022-02-24T10:16:59.401Z</time>
      </trkpt>
      <trkpt lat="47.656414" lon="2.0939205">
        <ele>176</ele>
        <time>2022-02-24T10:17:00.401Z</time>
      </trkpt>
      <trkpt lat="47.65641" lon="2.0939047">
        <ele>176</ele>
        <time>2022-02-24T10:17:01.401Z</time>
      </trkpt>
      <trkpt lat="47.65641" lon="2.0939047">
        <ele>176</ele>
        <time>2022-02-24T10:17:02.401Z</time>
      </trkpt>
      <trkpt lat="47.65641" lon="2.0939047">
        <ele>176</ele>
        <time>2022-02-24T10:17:03.401Z</time>
      </trkpt>
      <trkpt lat="47.656414" lon="2.0938654">
        <ele>174</ele>
        <time>2022-02-24T10:17:04.401Z</time>
      </trkpt>
      <trkpt lat="47.65641" lon="2.0938492">
        <ele>173</ele>
        <time>2022-02-24T10:17:05.401Z</time>
      </trkpt>
      <trkpt lat="47.656406" lon="2.0938358">
        <ele>173</ele>
        <time>2022-02-24T10:17:06.401Z</time>
      </trkpt>
      <trkpt lat="47.656403" lon="2.0938208">
        <ele>172</ele>
        <time>2022-02-24T10:17:07.401Z</time>
      </trkpt>
      <trkpt lat="47.656403" lon="2.0938208">
        <ele>172</ele>
        <time>2022-02-24T10:17:08.401Z</time>
      </trkpt>
      <trkpt lat="47.656403" lon="2.0938208">
        <ele>172</ele>
        <time>2022-02-24T10:17:09.401Z</time>
      </trkpt>
      <trkpt lat="47.656395" lon="2.0937827">
        <ele>172</ele>
        <time>2022-02-24T10:17:10.401Z</time>
      </trkpt>
      <trkpt lat="47.656395" lon="2.0937667">
        <ele>172</ele>
        <time>2022-02-24T10:17:11.401Z</time>
      </trkpt>
      <trkpt lat="47.65639" lon="2.0937505">
        <ele>172</ele>
        <time>2022-02-24T10:17:12.401Z</time>
      </trkpt>
      <trkpt lat="47.656387" lon="2.0937324">
        <ele>172</ele>
        <time>2022-02-24T10:17:13.401Z</time>
      </trkpt>
      <trkpt lat="47.656387" lon="2.0937324">
        <ele>172</ele>
        <time>2022-02-24T10:17:14.401Z</time>
      </trkpt>
      <trkpt lat="47.656387" lon="2.0937324">
        <ele>172</ele>
        <time>2022-02-24T10:17:15.401Z</time>
      </trkpt>
      <trkpt lat="47.656384" lon="2.0936885">
        <ele>172</ele>
        <time>2022-02-24T10:17:16.401Z</time>
      </trkpt>
      <trkpt lat="47.65638" lon="2.0936723">
        <ele>172</ele>
        <time>2022-02-24T10:17:17.401Z</time>
      </trkpt>
      <trkpt lat="47.656376" lon="2.0936556">
        <ele>172</ele>
        <time>2022-02-24T10:17:18.401Z</time>
      </trkpt>
      <trkpt lat="47.656376" lon="2.0936368">
        <ele>171</ele>
        <time>2022-02-24T10:17:19.401Z</time>
      </trkpt>
      <trkpt lat="47.656376" lon="2.0936155">
        <ele>171</ele>
        <time>2022-02-24T10:17:20.401Z</time>
      </trkpt>
      <trkpt lat="47.656372" lon="2.0935948">
        <ele>171</ele>
        <time>2022-02-24T10:17:21.401Z</time>
      </trkpt>
      <trkpt lat="47.65637" lon="2.0935764">
        <ele>171</ele>
        <time>2022-02-24T10:17:22.401Z</time>
      </trkpt>
      <trkpt lat="47.656364" lon="2.0935621">
        <ele>171</ele>
        <time>2022-02-24T10:17:23.401Z</time>
      </trkpt>
      <trkpt lat="47.65636" lon="2.0935473">
        <ele>171</ele>
        <time>2022-02-24T10:17:24.401Z</time>
      </trkpt>
      <trkpt lat="47.65636" lon="2.09353">
        <ele>171</ele>
        <time>2022-02-24T10:17:25.401Z</time>
      </trkpt>
      <trkpt lat="47.65636" lon="2.0935116">
        <ele>171</ele>
        <time>2022-02-24T10:17:26.401Z</time>
      </trkpt>
      <trkpt lat="47.656357" lon="2.0934954">
        <ele>171</ele>
        <time>2022-02-24T10:17:27.401Z</time>
      </trkpt>
      <trkpt lat="47.656357" lon="2.0934763">
        <ele>171</ele>
        <time>2022-02-24T10:17:28.401Z</time>
      </trkpt>
      <trkpt lat="47.656353" lon="2.0934544">
        <ele>171</ele>
        <time>2022-02-24T10:17:29.401Z</time>
      </trkpt>
      <trkpt lat="47.65635" lon="2.093432">
        <ele>171</ele>
        <time>2022-02-24T10:17:30.401Z</time>
      </trkpt>
      <trkpt lat="47.65635" lon="2.093413">
        <ele>172</ele>
        <time>2022-02-24T10:17:31.401Z</time>
      </trkpt>
      <trkpt lat="47.65635" lon="2.093395">
        <ele>172</ele>
        <time>2022-02-24T10:17:32.401Z</time>
      </trkpt>
      <trkpt lat="47.65635" lon="2.0933797">
        <ele>172</ele>
        <time>2022-02-24T10:17:33.401Z</time>
      </trkpt>
      <trkpt lat="47.656353" lon="2.0933614">
        <ele>172</ele>
        <time>2022-02-24T10:17:34.401Z</time>
      </trkpt>
      <trkpt lat="47.656357" lon="2.0933392">
        <ele>172</ele>
        <time>2022-02-24T10:17:35.401Z</time>
      </trkpt>
      <trkpt lat="47.65636" lon="2.0933187">
        <ele>173</ele>
        <time>2022-02-24T10:17:36.401Z</time>
      </trkpt>
      <trkpt lat="47.656372" lon="2.0933003">
        <ele>173</ele>
        <time>2022-02-24T10:17:37.401Z</time>
      </trkpt>
      <trkpt lat="47.656376" lon="2.0932887">
        <ele>173</ele>
        <time>2022-02-24T10:17:38.401Z</time>
      </trkpt>
      <trkpt lat="47.656384" lon="2.0932777">
        <ele>173</ele>
        <time>2022-02-24T10:17:39.401Z</time>
      </trkpt>
      <trkpt lat="47.656395" lon="2.0932682">
        <ele>174</ele>
        <time>2022-02-24T10:17:40.401Z</time>
      </trkpt>
      <trkpt lat="47.656406" lon="2.093259">
        <ele>174</ele>
        <time>2022-02-24T10:17:41.401Z</time>
      </trkpt>
      <trkpt lat="47.656418" lon="2.0932531">
        <ele>174</ele>
        <time>2022-02-24T10:17:42.401Z</time>
      </trkpt>
      <trkpt lat="47.65643" lon="2.0932472">
        <ele>175</ele>
        <time>2022-02-24T10:17:43.401Z</time>
      </trkpt>
      <trkpt lat="47.65644" lon="2.0932465">
        <ele>175</ele>
        <time>2022-02-24T10:17:44.401Z</time>
      </trkpt>
      <trkpt lat="47.656452" lon="2.093246">
        <ele>176</ele>
        <time>2022-02-24T10:17:45.401Z</time>
      </trkpt>
      <trkpt lat="47.656456" lon="2.0932372">
        <ele>176</ele>
        <time>2022-02-24T10:17:46.401Z</time>
      </trkpt>
      <trkpt lat="47.656464" lon="2.0932276">
        <ele>177</ele>
        <time>2022-02-24T10:17:47.401Z</time>
      </trkpt>
      <trkpt lat="47.65647" lon="2.093229">
        <ele>178</ele>
        <time>2022-02-24T10:17:48.401Z</time>
      </trkpt>
      <trkpt lat="47.65648" lon="2.0932214">
        <ele>178</ele>
        <time>2022-02-24T10:17:49.401Z</time>
      </trkpt>
      <trkpt lat="47.65649" lon="2.0932112">
        <ele>179</ele>
        <time>2022-02-24T10:17:50.401Z</time>
      </trkpt>
      <trkpt lat="47.656498" lon="2.0932076">
        <ele>180</ele>
        <time>2022-02-24T10:17:51.401Z</time>
      </trkpt>
      <trkpt lat="47.65651" lon="2.0932028">
        <ele>180</ele>
        <time>2022-02-24T10:17:52.401Z</time>
      </trkpt>
      <trkpt lat="47.65652" lon="2.0932038">
        <ele>180</ele>
        <time>2022-02-24T10:17:53.401Z</time>
      </trkpt>
      <trkpt lat="47.656532" lon="2.0932033">
        <ele>180</ele>
        <time>2022-02-24T10:17:54.401Z</time>
      </trkpt>
      <trkpt lat="47.65654" lon="2.093203">
        <ele>181</ele>
        <time>2022-02-24T10:17:55.401Z</time>
      </trkpt>
      <trkpt lat="47.656548" lon="2.0932064">
        <ele>181</ele>
        <time>2022-02-24T10:17:56.401Z</time>
      </trkpt>
      <trkpt lat="47.65656" lon="2.0932095">
        <ele>181</ele>
        <time>2022-02-24T10:17:57.401Z</time>
      </trkpt>
      <trkpt lat="47.656567" lon="2.093212">
        <ele>182</ele>
        <time>2022-02-24T10:17:58.401Z</time>
      </trkpt>
      <trkpt lat="47.656574" lon="2.0932107">
        <ele>182</ele>
        <time>2022-02-24T10:17:59.401Z</time>
      </trkpt>
      <trkpt lat="47.656586" lon="2.0932148">
        <ele>182</ele>
        <time>2022-02-24T10:18:00.401Z</time>
      </trkpt>
      <trkpt lat="47.656597" lon="2.093221">
        <ele>183</ele>
        <time>2022-02-24T10:18:01.401Z</time>
      </trkpt>
      <trkpt lat="47.656605" lon="2.093226">
        <ele>182</ele>
        <time>2022-02-24T10:18:02.401Z</time>
      </trkpt>
      <trkpt lat="47.656616" lon="2.0932288">
        <ele>182</ele>
        <time>2022-02-24T10:18:03.401Z</time>
      </trkpt>
      <trkpt lat="47.65662" lon="2.0932283">
        <ele>182</ele>
        <time>2022-02-24T10:18:04.401Z</time>
      </trkpt>
      <trkpt lat="47.656628" lon="2.093232">
        <ele>181</ele>
        <time>2022-02-24T10:18:05.401Z</time>
      </trkpt>
      <trkpt lat="47.656635" lon="2.0932345">
        <ele>181</ele>
        <time>2022-02-24T10:18:06.401Z</time>
      </trkpt>
      <trkpt lat="47.656647" lon="2.0932379">
        <ele>181</ele>
        <time>2022-02-24T10:18:07.401Z</time>
      </trkpt>
      <trkpt lat="47.656647" lon="2.093239">
        <ele>181</ele>
        <time>2022-02-24T10:18:08.401Z</time>
      </trkpt>
      <trkpt lat="47.65665" lon="2.0932477">
        <ele>181</ele>
        <time>2022-02-24T10:18:09.401Z</time>
      </trkpt>
      <trkpt lat="47.656654" lon="2.0932527">
        <ele>180</ele>
        <time>2022-02-24T10:18:10.401Z</time>
      </trkpt>
      <trkpt lat="47.65666" lon="2.0932527">
        <ele>181</ele>
        <time>2022-02-24T10:18:11.401Z</time>
      </trkpt>
      <trkpt lat="47.656662" lon="2.0932555">
        <ele>180</ele>
        <time>2022-02-24T10:18:12.401Z</time>
      </trkpt>
      <trkpt lat="47.656662" lon="2.0932555">
        <ele>180</ele>
        <time>2022-02-24T10:18:13.401Z</time>
      </trkpt>
      <trkpt lat="47.656662" lon="2.0932555">
        <ele>180</ele>
        <time>2022-02-24T10:18:14.401Z</time>
      </trkpt>
      <trkpt lat="47.656677" lon="2.093272">
        <ele>179</ele>
        <time>2022-02-24T10:18:15.401Z</time>
      </trkpt>
      <trkpt lat="47.656685" lon="2.093277">
        <ele>178</ele>
        <time>2022-02-24T10:18:16.401Z</time>
      </trkpt>
      <trkpt lat="47.656693" lon="2.09328">
        <ele>177</ele>
        <time>2022-02-24T10:18:17.401Z</time>
      </trkpt>
      <trkpt lat="47.656696" lon="2.0932868">
        <ele>176</ele>
        <time>2022-02-24T10:18:18.401Z</time>
      </trkpt>
      <trkpt lat="47.656696" lon="2.0932868">
        <ele>176</ele>
        <time>2022-02-24T10:18:19.401Z</time>
      </trkpt>
      <trkpt lat="47.656696" lon="2.0932868">
        <ele>176</ele>
        <time>2022-02-24T10:18:20.401Z</time>
      </trkpt>
      <trkpt lat="47.656704" lon="2.0933058">
        <ele>174</ele>
        <time>2022-02-24T10:18:21.401Z</time>
      </trkpt>
      <trkpt lat="47.656704" lon="2.0933132">
        <ele>173</ele>
        <time>2022-02-24T10:18:22.401Z</time>
      </trkpt>
      <trkpt lat="47.656708" lon="2.0933237">
        <ele>172</ele>
        <time>2022-02-24T10:18:23.401Z</time>
      </trkpt>
      <trkpt lat="47.65671" lon="2.0933344">
        <ele>171</ele>
        <time>2022-02-24T10:18:24.401Z</time>
      </trkpt>
      <trkpt lat="47.656715" lon="2.0933414">
        <ele>170</ele>
        <time>2022-02-24T10:18:25.401Z</time>
      </trkpt>
      <trkpt lat="47.656723" lon="2.0933485">
        <ele>170</ele>
        <time>2022-02-24T10:18:26.401Z</time>
      </trkpt>
      <trkpt lat="47.656723" lon="2.0933485">
        <ele>170</ele>
        <time>2022-02-24T10:18:27.401Z</time>
      </trkpt>
      <trkpt lat="47.656742" lon="2.0933628">
        <ele>170</ele>
        <time>2022-02-24T10:18:28.401Z</time>
      </trkpt>
      <trkpt lat="47.656754" lon="2.0933733">
        <ele>170</ele>
        <time>2022-02-24T10:18:29.401Z</time>
      </trkpt>
      <trkpt lat="47.65676" lon="2.0933876">
        <ele>170</ele>
        <time>2022-02-24T10:18:30.401Z</time>
      </trkpt>
      <trkpt lat="47.656776" lon="2.093394">
        <ele>171</ele>
        <time>2022-02-24T10:18:31.401Z</time>
      </trkpt>
      <trkpt lat="47.656788" lon="2.0934">
        <ele>171</ele>
        <time>2022-02-24T10:18:32.401Z</time>
      </trkpt>
      <trkpt lat="47.656796" lon="2.093408">
        <ele>171</ele>
        <time>2022-02-24T10:18:33.401Z</time>
      </trkpt>
      <trkpt lat="47.65681" lon="2.0934176">
        <ele>171</ele>
        <time>2022-02-24T10:18:34.401Z</time>
      </trkpt>
      <trkpt lat="47.656822" lon="2.093425">
        <ele>171</ele>
        <time>2022-02-24T10:18:35.401Z</time>
      </trkpt>
      <trkpt lat="47.656837" lon="2.0934324">
        <ele>171</ele>
        <time>2022-02-24T10:18:36.401Z</time>
      </trkpt>
      <trkpt lat="47.65685" lon="2.09344">
        <ele>171</ele>
        <time>2022-02-24T10:18:37.401Z</time>
      </trkpt>
      <trkpt lat="47.656868" lon="2.093447">
        <ele>171</ele>
        <time>2022-02-24T10:18:38.401Z</time>
      </trkpt>
      <trkpt lat="47.656887" lon="2.0934565">
        <ele>172</ele>
        <time>2022-02-24T10:18:39.401Z</time>
      </trkpt>
      <trkpt lat="47.6569" lon="2.0934637">
        <ele>172</ele>
        <time>2022-02-24T10:18:40.401Z</time>
      </trkpt>
      <trkpt lat="47.656914" lon="2.093471">
        <ele>173</ele>
        <time>2022-02-24T10:18:41.401Z</time>
      </trkpt>
      <trkpt lat="47.656925" lon="2.093479">
        <ele>173</ele>
        <time>2022-02-24T10:18:42.401Z</time>
      </trkpt>
      <trkpt lat="47.65694" lon="2.0934865">
        <ele>173</ele>
        <time>2022-02-24T10:18:43.401Z</time>
      </trkpt>
      <trkpt lat="47.65695" lon="2.093493">
        <ele>174</ele>
        <time>2022-02-24T10:18:44.401Z</time>
      </trkpt>
      <trkpt lat="47.656967" lon="2.0935004">
        <ele>174</ele>
        <time>2022-02-24T10:18:45.401Z</time>
      </trkpt>
      <trkpt lat="47.656975" lon="2.0935018">
        <ele>174</ele>
        <time>2022-02-24T10:18:46.401Z</time>
      </trkpt>
      <trkpt lat="47.656982" lon="2.09351">
        <ele>174</ele>
        <time>2022-02-24T10:18:47.401Z</time>
      </trkpt>
      <trkpt lat="47.656982" lon="2.09351">
        <ele>174</ele>
        <time>2022-02-24T10:18:48.401Z</time>
      </trkpt>
      <trkpt lat="47.656982" lon="2.09351">
        <ele>174</ele>
        <time>2022-02-24T10:18:49.401Z</time>
      </trkpt>
      <trkpt lat="47.65701" lon="2.0935297">
        <ele>174</ele>
        <time>2022-02-24T10:18:50.401Z</time>
      </trkpt>
      <trkpt lat="47.657017" lon="2.0935404">
        <ele>174</ele>
        <time>2022-02-24T10:18:51.401Z</time>
      </trkpt>
      <trkpt lat="47.65703" lon="2.0935485">
        <ele>173</ele>
        <time>2022-02-24T10:18:52.401Z</time>
      </trkpt>
      <trkpt lat="47.657043" lon="2.093556">
        <ele>174</ele>
        <time>2022-02-24T10:18:53.401Z</time>
      </trkpt>
      <trkpt lat="47.657043" lon="2.093556">
        <ele>174</ele>
        <time>2022-02-24T10:18:54.401Z</time>
      </trkpt>
      <trkpt lat="47.657043" lon="2.093556">
        <ele>174</ele>
        <time>2022-02-24T10:18:55.401Z</time>
      </trkpt>
      <trkpt lat="47.65707" lon="2.0935595">
        <ele>175</ele>
        <time>2022-02-24T10:18:56.401Z</time>
      </trkpt>
      <trkpt lat="47.657078" lon="2.0935605">
        <ele>175</ele>
        <time>2022-02-24T10:18:57.401Z</time>
      </trkpt>
      <trkpt lat="47.65709" lon="2.0935657">
        <ele>175</ele>
        <time>2022-02-24T10:18:58.401Z</time>
      </trkpt>
      <trkpt lat="47.657097" lon="2.0935698">
        <ele>174</ele>
        <time>2022-02-24T10:18:59.401Z</time>
      </trkpt>
      <trkpt lat="47.65711" lon="2.09357">
        <ele>175</ele>
        <time>2022-02-24T10:19:00.401Z</time>
      </trkpt>
      <trkpt lat="47.65711" lon="2.09357">
        <ele>175</ele>
        <time>2022-02-24T10:19:01.401Z</time>
      </trkpt>
      <trkpt lat="47.65711" lon="2.09357">
        <ele>175</ele>
        <time>2022-02-24T10:19:02.401Z</time>
      </trkpt>
      <trkpt lat="47.657127" lon="2.0935771">
        <ele>175</ele>
        <time>2022-02-24T10:19:03.401Z</time>
      </trkpt>
      <trkpt lat="47.657135" lon="2.0935771">
        <ele>175</ele>
        <time>2022-02-24T10:19:04.401Z</time>
      </trkpt>
      <trkpt lat="47.657146" lon="2.0935779">
        <ele>176</ele>
        <time>2022-02-24T10:19:05.401Z</time>
      </trkpt>
      <trkpt lat="47.65715" lon="2.0935814">
        <ele>176</ele>
        <time>2022-02-24T10:19:06.401Z</time>
      </trkpt>
      <trkpt lat="47.65715" lon="2.0935814">
        <ele>176</ele>
        <time>2022-02-24T10:19:07.401Z</time>
      </trkpt>
      <trkpt lat="47.65715" lon="2.0935814">
        <ele>176</ele>
        <time>2022-02-24T10:19:08.401Z</time>
      </trkpt>
      <trkpt lat="47.657173" lon="2.0935926">
        <ele>176</ele>
        <time>2022-02-24T10:19:09.401Z</time>
      </trkpt>
      <trkpt lat="47.65718" lon="2.0936034">
        <ele>176</ele>
        <time>2022-02-24T10:19:10.401Z</time>
      </trkpt>
      <trkpt lat="47.657192" lon="2.0936115">
        <ele>176</ele>
        <time>2022-02-24T10:19:11.401Z</time>
      </trkpt>
      <trkpt lat="47.657196" lon="2.0936184">
        <ele>176</ele>
        <time>2022-02-24T10:19:12.401Z</time>
      </trkpt>
      <trkpt lat="47.657196" lon="2.0936184">
        <ele>176</ele>
        <time>2022-02-24T10:19:13.401Z</time>
      </trkpt>
      <trkpt lat="47.657196" lon="2.0936184">
        <ele>176</ele>
        <time>2022-02-24T10:19:14.401Z</time>
      </trkpt>
      <trkpt lat="47.657215" lon="2.093638">
        <ele>176</ele>
        <time>2022-02-24T10:19:15.401Z</time>
      </trkpt>
      <trkpt lat="47.657223" lon="2.093645">
        <ele>176</ele>
        <time>2022-02-24T10:19:16.401Z</time>
      </trkpt>
      <trkpt lat="47.657227" lon="2.0936577">
        <ele>175</ele>
        <time>2022-02-24T10:19:17.401Z</time>
      </trkpt>
      <trkpt lat="47.657238" lon="2.0936682">
        <ele>175</ele>
        <time>2022-02-24T10:19:18.401Z</time>
      </trkpt>
      <trkpt lat="47.657238" lon="2.0936682">
        <ele>175</ele>
        <time>2022-02-24T10:19:19.401Z</time>
      </trkpt>
      <trkpt lat="47.657238" lon="2.0936682">
        <ele>175</ele>
        <time>2022-02-24T10:19:20.401Z</time>
      </trkpt>
      <trkpt lat="47.65726" lon="2.0936852">
        <ele>175</ele>
        <time>2022-02-24T10:19:21.401Z</time>
      </trkpt>
      <trkpt lat="47.65727" lon="2.0936894">
        <ele>175</ele>
        <time>2022-02-24T10:19:22.401Z</time>
      </trkpt>
      <trkpt lat="47.657284" lon="2.0937">
        <ele>175</ele>
        <time>2022-02-24T10:19:23.401Z</time>
      </trkpt>
      <trkpt lat="47.65729" lon="2.0937035">
        <ele>175</ele>
        <time>2022-02-24T10:19:24.401Z</time>
      </trkpt>
      <trkpt lat="47.657307" lon="2.0937097">
        <ele>174</ele>
        <time>2022-02-24T10:19:25.401Z</time>
      </trkpt>
      <trkpt lat="47.657322" lon="2.0937243">
        <ele>173</ele>
        <time>2022-02-24T10:19:26.401Z</time>
      </trkpt>
      <trkpt lat="47.657337" lon="2.0937326">
        <ele>173</ele>
        <time>2022-02-24T10:19:27.401Z</time>
      </trkpt>
      <trkpt lat="47.657352" lon="2.0937452">
        <ele>172</ele>
        <time>2022-02-24T10:19:28.401Z</time>
      </trkpt>
      <trkpt lat="47.657368" lon="2.0937564">
        <ele>172</ele>
        <time>2022-02-24T10:19:29.401Z</time>
      </trkpt>
      <trkpt lat="47.65738" lon="2.093768">
        <ele>171</ele>
        <time>2022-02-24T10:19:30.401Z</time>
      </trkpt>
      <trkpt lat="47.65739" lon="2.093776">
        <ele>171</ele>
        <time>2022-02-24T10:19:31.401Z</time>
      </trkpt>
      <trkpt lat="47.657402" lon="2.093784">
        <ele>171</ele>
        <time>2022-02-24T10:19:32.401Z</time>
      </trkpt>
      <trkpt lat="47.65741" lon="2.0937874">
        <ele>171</ele>
        <time>2022-02-24T10:19:33.401Z</time>
      </trkpt>
      <trkpt lat="47.65742" lon="2.0937939">
        <ele>171</ele>
        <time>2022-02-24T10:19:34.401Z</time>
      </trkpt>
      <trkpt lat="47.657433" lon="2.0938032">
        <ele>170</ele>
        <time>2022-02-24T10:19:35.401Z</time>
      </trkpt>
      <trkpt lat="47.657444" lon="2.093813">
        <ele>169</ele>
        <time>2022-02-24T10:19:36.401Z</time>
      </trkpt>
      <trkpt lat="47.65746" lon="2.0938194">
        <ele>169</ele>
        <time>2022-02-24T10:19:37.401Z</time>
      </trkpt>
      <trkpt lat="47.65747" lon="2.0938232">
        <ele>169</ele>
        <time>2022-02-24T10:19:38.401Z</time>
      </trkpt>
      <trkpt lat="47.657486" lon="2.0938299">
        <ele>169</ele>
        <time>2022-02-24T10:19:39.401Z</time>
      </trkpt>
      <trkpt lat="47.657497" lon="2.0938385">
        <ele>169</ele>
        <time>2022-02-24T10:19:40.401Z</time>
      </trkpt>
      <trkpt lat="47.657505" lon="2.0938463">
        <ele>169</ele>
        <time>2022-02-24T10:19:41.401Z</time>
      </trkpt>
      <trkpt lat="47.657513" lon="2.0938492">
        <ele>168</ele>
        <time>2022-02-24T10:19:42.401Z</time>
      </trkpt>
      <trkpt lat="47.657513" lon="2.0938492">
        <ele>168</ele>
        <time>2022-02-24T10:19:43.401Z</time>
      </trkpt>
      <trkpt lat="47.657513" lon="2.0938492">
        <ele>168</ele>
        <time>2022-02-24T10:19:44.401Z</time>
      </trkpt>
      <trkpt lat="47.657536" lon="2.0938694">
        <ele>167</ele>
        <time>2022-02-24T10:19:45.401Z</time>
      </trkpt>
      <trkpt lat="47.657543" lon="2.0938735">
        <ele>167</ele>
        <time>2022-02-24T10:19:46.401Z</time>
      </trkpt>
      <trkpt lat="47.657555" lon="2.0938787">
        <ele>167</ele>
        <time>2022-02-24T10:19:47.401Z</time>
      </trkpt>
      <trkpt lat="47.657562" lon="2.0938811">
        <ele>167</ele>
        <time>2022-02-24T10:19:48.401Z</time>
      </trkpt>
      <trkpt lat="47.657562" lon="2.0938811">
        <ele>167</ele>
        <time>2022-02-24T10:19:49.401Z</time>
      </trkpt>
      <trkpt lat="47.657562" lon="2.0938811">
        <ele>167</ele>
        <time>2022-02-24T10:19:50.401Z</time>
      </trkpt>
      <trkpt lat="47.657585" lon="2.0939033">
        <ele>166</ele>
        <time>2022-02-24T10:19:51.401Z</time>
      </trkpt>
      <trkpt lat="47.657597" lon="2.0939097">
        <ele>166</ele>
        <time>2022-02-24T10:19:52.401Z</time>
      </trkpt>
      <trkpt lat="47.657608" lon="2.0939136">
        <ele>166</ele>
        <time>2022-02-24T10:19:53.401Z</time>
      </trkpt>
      <trkpt lat="47.65762" lon="2.0939205">
        <ele>166</ele>
        <time>2022-02-24T10:19:54.401Z</time>
      </trkpt>
      <trkpt lat="47.657635" lon="2.093931">
        <ele>166</ele>
        <time>2022-02-24T10:19:55.401Z</time>
      </trkpt>
      <trkpt lat="47.657646" lon="2.0939429">
        <ele>166</ele>
        <time>2022-02-24T10:19:56.401Z</time>
      </trkpt>
      <trkpt lat="47.657658" lon="2.0939512">
        <ele>166</ele>
        <time>2022-02-24T10:19:57.401Z</time>
      </trkpt>
      <trkpt lat="47.65767" lon="2.0939572">
        <ele>165</ele>
        <time>2022-02-24T10:19:58.401Z</time>
      </trkpt>
      <trkpt lat="47.65768" lon="2.093967">
        <ele>166</ele>
        <time>2022-02-24T10:19:59.401Z</time>
      </trkpt>
      <trkpt lat="47.657696" lon="2.0939772">
        <ele>165</ele>
        <time>2022-02-24T10:20:00.401Z</time>
      </trkpt>
      <trkpt lat="47.657707" lon="2.0939891">
        <ele>165</ele>
        <time>2022-02-24T10:20:01.401Z</time>
      </trkpt>
      <trkpt lat="47.657722" lon="2.094001">
        <ele>164</ele>
        <time>2022-02-24T10:20:02.401Z</time>
      </trkpt>
      <trkpt lat="47.657738" lon="2.0940123">
        <ele>164</ele>
        <time>2022-02-24T10:20:03.401Z</time>
      </trkpt>
      <trkpt lat="47.65775" lon="2.0940228">
        <ele>164</ele>
        <time>2022-02-24T10:20:04.401Z</time>
      </trkpt>
      <trkpt lat="47.65776" lon="2.0940306">
        <ele>164</ele>
        <time>2022-02-24T10:20:05.401Z</time>
      </trkpt>
      <trkpt lat="47.657772" lon="2.0940328">
        <ele>164</ele>
        <time>2022-02-24T10:20:06.401Z</time>
      </trkpt>
      <trkpt lat="47.657784" lon="2.0940382">
        <ele>163</ele>
        <time>2022-02-24T10:20:07.401Z</time>
      </trkpt>
      <trkpt lat="47.6578" lon="2.0940452">
        <ele>164</ele>
        <time>2022-02-24T10:20:08.401Z</time>
      </trkpt>
      <trkpt lat="47.65781" lon="2.0940545">
        <ele>163</ele>
        <time>2022-02-24T10:20:09.401Z</time>
      </trkpt>
      <trkpt lat="47.65782" lon="2.094062">
        <ele>163</ele>
        <time>2022-02-24T10:20:10.401Z</time>
      </trkpt>
      <trkpt lat="47.657833" lon="2.0940726">
        <ele>163</ele>
        <time>2022-02-24T10:20:11.401Z</time>
      </trkpt>
      <trkpt lat="47.657845" lon="2.0940843">
        <ele>163</ele>
        <time>2022-02-24T10:20:12.401Z</time>
      </trkpt>
      <trkpt lat="47.657856" lon="2.0940957">
        <ele>163</ele>
        <time>2022-02-24T10:20:13.401Z</time>
      </trkpt>
      <trkpt lat="47.657867" lon="2.0941">
        <ele>163</ele>
        <time>2022-02-24T10:20:14.401Z</time>
      </trkpt>
      <trkpt lat="47.657875" lon="2.094102">
        <ele>164</ele>
        <time>2022-02-24T10:20:15.401Z</time>
      </trkpt>
      <trkpt lat="47.657887" lon="2.0941076">
        <ele>164</ele>
        <time>2022-02-24T10:20:16.401Z</time>
      </trkpt>
      <trkpt lat="47.65789" lon="2.0941164">
        <ele>164</ele>
        <time>2022-02-24T10:20:17.401Z</time>
      </trkpt>
      <trkpt lat="47.6579" lon="2.0941215">
        <ele>164</ele>
        <time>2022-02-24T10:20:18.401Z</time>
      </trkpt>
      <trkpt lat="47.657913" lon="2.0941272">
        <ele>164</ele>
        <time>2022-02-24T10:20:19.401Z</time>
      </trkpt>
      <trkpt lat="47.657925" lon="2.0941346">
        <ele>165</ele>
        <time>2022-02-24T10:20:20.401Z</time>
      </trkpt>
      <trkpt lat="47.657932" lon="2.094138">
        <ele>165</ele>
        <time>2022-02-24T10:20:21.401Z</time>
      </trkpt>
      <trkpt lat="47.657944" lon="2.0941446">
        <ele>165</ele>
        <time>2022-02-24T10:20:22.401Z</time>
      </trkpt>
      <trkpt lat="47.657955" lon="2.0941522">
        <ele>165</ele>
        <time>2022-02-24T10:20:23.401Z</time>
      </trkpt>
      <trkpt lat="47.657967" lon="2.0941598">
        <ele>165</ele>
        <time>2022-02-24T10:20:24.401Z</time>
      </trkpt>
      <trkpt lat="47.657978" lon="2.094166">
        <ele>166</ele>
        <time>2022-02-24T10:20:25.401Z</time>
      </trkpt>
      <trkpt lat="47.65799" lon="2.0941737">
        <ele>166</ele>
        <time>2022-02-24T10:20:26.401Z</time>
      </trkpt>
      <trkpt lat="47.658005" lon="2.0941823">
        <ele>166</ele>
        <time>2022-02-24T10:20:27.401Z</time>
      </trkpt>
      <trkpt lat="47.658012" lon="2.0941887">
        <ele>167</ele>
        <time>2022-02-24T10:20:28.401Z</time>
      </trkpt>
      <trkpt lat="47.65802" lon="2.094195">
        <ele>167</ele>
        <time>2022-02-24T10:20:29.401Z</time>
      </trkpt>
      <trkpt lat="47.65803" lon="2.0942035">
        <ele>167</ele>
        <time>2022-02-24T10:20:30.401Z</time>
      </trkpt>
      <trkpt lat="47.658043" lon="2.0942125">
        <ele>167</ele>
        <time>2022-02-24T10:20:31.401Z</time>
      </trkpt>
      <trkpt lat="47.658054" lon="2.094223">
        <ele>167</ele>
        <time>2022-02-24T10:20:32.401Z</time>
      </trkpt>
      <trkpt lat="47.658066" lon="2.0942314">
        <ele>168</ele>
        <time>2022-02-24T10:20:33.401Z</time>
      </trkpt>
      <trkpt lat="47.65808" lon="2.0942454">
        <ele>167</ele>
        <time>2022-02-24T10:20:34.401Z</time>
      </trkpt>
      <trkpt lat="47.658096" lon="2.0942533">
        <ele>168</ele>
        <time>2022-02-24T10:20:35.401Z</time>
      </trkpt>
      <trkpt lat="47.65811" lon="2.0942595">
        <ele>168</ele>
        <time>2022-02-24T10:20:36.401Z</time>
      </trkpt>
      <trkpt lat="47.658123" lon="2.0942698">
        <ele>168</ele>
        <time>2022-02-24T10:20:37.401Z</time>
      </trkpt>
      <trkpt lat="47.658134" lon="2.0942762">
        <ele>169</ele>
        <time>2022-02-24T10:20:38.401Z</time>
      </trkpt>
      <trkpt lat="47.658146" lon="2.0942783">
        <ele>170</ele>
        <time>2022-02-24T10:20:39.401Z</time>
      </trkpt>
      <trkpt lat="47.658157" lon="2.094285">
        <ele>170</ele>
        <time>2022-02-24T10:20:40.401Z</time>
      </trkpt>
      <trkpt lat="47.658157" lon="2.094285">
        <ele>170</ele>
        <time>2022-02-24T10:20:41.401Z</time>
      </trkpt>
      <trkpt lat="47.658157" lon="2.094285">
        <ele>170</ele>
        <time>2022-02-24T10:20:42.401Z</time>
      </trkpt>
      <trkpt lat="47.65818" lon="2.0943172">
        <ele>169</ele>
        <time>2022-02-24T10:20:43.401Z</time>
      </trkpt>
      <trkpt lat="47.65819" lon="2.0943274">
        <ele>169</ele>
        <time>2022-02-24T10:20:44.401Z</time>
      </trkpt>
      <trkpt lat="47.6582" lon="2.094337">
        <ele>169</ele>
        <time>2022-02-24T10:20:45.401Z</time>
      </trkpt>
      <trkpt lat="47.65821" lon="2.0943477">
        <ele>168</ele>
        <time>2022-02-24T10:20:46.401Z</time>
      </trkpt>
      <trkpt lat="47.65822" lon="2.094349">
        <ele>168</ele>
        <time>2022-02-24T10:20:47.401Z</time>
      </trkpt>
      <trkpt lat="47.65823" lon="2.0943587">
        <ele>168</ele>
        <time>2022-02-24T10:20:48.401Z</time>
      </trkpt>
      <trkpt lat="47.65824" lon="2.0943646">
        <ele>168</ele>
        <time>2022-02-24T10:20:49.401Z</time>
      </trkpt>
      <trkpt lat="47.65825" lon="2.094369">
        <ele>169</ele>
        <time>2022-02-24T10:20:50.401Z</time>
      </trkpt>
      <trkpt lat="47.65826" lon="2.0943747">
        <ele>169</ele>
        <time>2022-02-24T10:20:51.401Z</time>
      </trkpt>
      <trkpt lat="47.658276" lon="2.0943809">
        <ele>169</ele>
        <time>2022-02-24T10:20:52.401Z</time>
      </trkpt>
      <trkpt lat="47.65829" lon="2.0943894">
        <ele>169</ele>
        <time>2022-02-24T10:20:53.401Z</time>
      </trkpt>
      <trkpt lat="47.658306" lon="2.0943973">
        <ele>169</ele>
        <time>2022-02-24T10:20:54.401Z</time>
      </trkpt>
      <trkpt lat="47.658314" lon="2.094406">
        <ele>169</ele>
        <time>2022-02-24T10:20:55.401Z</time>
      </trkpt>
      <trkpt lat="47.658325" lon="2.0944178">
        <ele>170</ele>
        <time>2022-02-24T10:20:56.401Z</time>
      </trkpt>
      <trkpt lat="47.658337" lon="2.094432">
        <ele>170</ele>
        <time>2022-02-24T10:20:57.401Z</time>
      </trkpt>
      <trkpt lat="47.65835" lon="2.094442">
        <ele>170</ele>
        <time>2022-02-24T10:20:58.401Z</time>
      </trkpt>
      <trkpt lat="47.658363" lon="2.0944502">
        <ele>170</ele>
        <time>2022-02-24T10:20:59.401Z</time>
      </trkpt>
      <trkpt lat="47.658375" lon="2.094461">
        <ele>170</ele>
        <time>2022-02-24T10:21:00.401Z</time>
      </trkpt>
      <trkpt lat="47.658386" lon="2.0944693">
        <ele>170</ele>
        <time>2022-02-24T10:21:01.401Z</time>
      </trkpt>
      <trkpt lat="47.6584" lon="2.094475">
        <ele>170</ele>
        <time>2022-02-24T10:21:02.401Z</time>
      </trkpt>
      <trkpt lat="47.658417" lon="2.0944815">
        <ele>170</ele>
        <time>2022-02-24T10:21:03.401Z</time>
      </trkpt>
      <trkpt lat="47.65843" lon="2.0944874">
        <ele>170</ele>
        <time>2022-02-24T10:21:04.401Z</time>
      </trkpt>
      <trkpt lat="47.658443" lon="2.0944912">
        <ele>171</ele>
        <time>2022-02-24T10:21:05.401Z</time>
      </trkpt>
      <trkpt lat="47.65846" lon="2.0944932">
        <ele>171</ele>
        <time>2022-02-24T10:21:06.401Z</time>
      </trkpt>
      <trkpt lat="47.658478" lon="2.0944953">
        <ele>171</ele>
        <time>2022-02-24T10:21:07.401Z</time>
      </trkpt>
      <trkpt lat="47.658493" lon="2.094499">
        <ele>171</ele>
        <time>2022-02-24T10:21:08.401Z</time>
      </trkpt>
      <trkpt lat="47.65851" lon="2.0945013">
        <ele>171</ele>
        <time>2022-02-24T10:21:09.401Z</time>
      </trkpt>
      <trkpt lat="47.658524" lon="2.094508">
        <ele>172</ele>
        <time>2022-02-24T10:21:10.401Z</time>
      </trkpt>
      <trkpt lat="47.65854" lon="2.0945153">
        <ele>171</ele>
        <time>2022-02-24T10:21:11.401Z</time>
      </trkpt>
      <trkpt lat="47.658554" lon="2.094523">
        <ele>170</ele>
        <time>2022-02-24T10:21:12.401Z</time>
      </trkpt>
      <trkpt lat="47.65857" lon="2.0945296">
        <ele>170</ele>
        <time>2022-02-24T10:21:13.401Z</time>
      </trkpt>
      <trkpt lat="47.65858" lon="2.0945368">
        <ele>170</ele>
        <time>2022-02-24T10:21:14.401Z</time>
      </trkpt>
      <trkpt lat="47.658596" lon="2.09454">
        <ele>170</ele>
        <time>2022-02-24T10:21:15.401Z</time>
      </trkpt>
      <trkpt lat="47.658607" lon="2.0945404">
        <ele>170</ele>
        <time>2022-02-24T10:21:16.401Z</time>
      </trkpt>
      <trkpt lat="47.65862" lon="2.094549">
        <ele>170</ele>
        <time>2022-02-24T10:21:17.401Z</time>
      </trkpt>
      <trkpt lat="47.65863" lon="2.0945513">
        <ele>170</ele>
        <time>2022-02-24T10:21:18.401Z</time>
      </trkpt>
      <trkpt lat="47.65864" lon="2.0945547">
        <ele>170</ele>
        <time>2022-02-24T10:21:19.401Z</time>
      </trkpt>
      <trkpt lat="47.65865" lon="2.0945604">
        <ele>170</ele>
        <time>2022-02-24T10:21:20.401Z</time>
      </trkpt>
      <trkpt lat="47.65866" lon="2.0945654">
        <ele>171</ele>
        <time>2022-02-24T10:21:21.401Z</time>
      </trkpt>
      <trkpt lat="47.658676" lon="2.0945745">
        <ele>171</ele>
        <time>2022-02-24T10:21:22.401Z</time>
      </trkpt>
      <trkpt lat="47.65869" lon="2.094582">
        <ele>171</ele>
        <time>2022-02-24T10:21:23.401Z</time>
      </trkpt>
      <trkpt lat="47.658703" lon="2.0945892">
        <ele>170</ele>
        <time>2022-02-24T10:21:24.401Z</time>
      </trkpt>
      <trkpt lat="47.65871" lon="2.0945995">
        <ele>170</ele>
        <time>2022-02-24T10:21:25.401Z</time>
      </trkpt>
      <trkpt lat="47.658726" lon="2.0946126">
        <ele>171</ele>
        <time>2022-02-24T10:21:26.401Z</time>
      </trkpt>
      <trkpt lat="47.658737" lon="2.0946245">
        <ele>171</ele>
        <time>2022-02-24T10:21:27.401Z</time>
      </trkpt>
      <trkpt lat="47.658756" lon="2.0946324">
        <ele>171</ele>
        <time>2022-02-24T10:21:28.401Z</time>
      </trkpt>
      <trkpt lat="47.658768" lon="2.0946362">
        <ele>171</ele>
        <time>2022-02-24T10:21:29.401Z</time>
      </trkpt>
      <trkpt lat="47.658783" lon="2.094642">
        <ele>170</ele>
        <time>2022-02-24T10:21:30.401Z</time>
      </trkpt>
      <trkpt lat="47.658794" lon="2.0946498">
        <ele>169</ele>
        <time>2022-02-24T10:21:31.401Z</time>
      </trkpt>
      <trkpt lat="47.658802" lon="2.0946555">
        <ele>169</ele>
        <time>2022-02-24T10:21:32.401Z</time>
      </trkpt>
      <trkpt lat="47.658813" lon="2.0946639">
        <ele>169</ele>
        <time>2022-02-24T10:21:33.401Z</time>
      </trkpt>
      <trkpt lat="47.65882" lon="2.094667">
        <ele>169</ele>
        <time>2022-02-24T10:21:34.401Z</time>
      </trkpt>
      <trkpt lat="47.658833" lon="2.0946734">
        <ele>169</ele>
        <time>2022-02-24T10:21:35.401Z</time>
      </trkpt>
      <trkpt lat="47.658844" lon="2.0946803">
        <ele>169</ele>
        <time>2022-02-24T10:21:36.401Z</time>
      </trkpt>
      <trkpt lat="47.658855" lon="2.0946884">
        <ele>169</ele>
        <time>2022-02-24T10:21:37.401Z</time>
      </trkpt>
      <trkpt lat="47.658867" lon="2.0946953">
        <ele>170</ele>
        <time>2022-02-24T10:21:38.401Z</time>
      </trkpt>
      <trkpt lat="47.65888" lon="2.094705">
        <ele>170</ele>
        <time>2022-02-24T10:21:39.401Z</time>
      </trkpt>
      <trkpt lat="47.658897" lon="2.094715">
        <ele>170</ele>
        <time>2022-02-24T10:21:40.401Z</time>
      </trkpt>
      <trkpt lat="47.65891" lon="2.0947235">
        <ele>171</ele>
        <time>2022-02-24T10:21:41.401Z</time>
      </trkpt>
      <trkpt lat="47.65892" lon="2.0947337">
        <ele>170</ele>
        <time>2022-02-24T10:21:42.401Z</time>
      </trkpt>
      <trkpt lat="47.658936" lon="2.0947423">
        <ele>170</ele>
        <time>2022-02-24T10:21:43.401Z</time>
      </trkpt>
      <trkpt lat="47.658955" lon="2.0947511">
        <ele>170</ele>
        <time>2022-02-24T10:21:44.401Z</time>
      </trkpt>
      <trkpt lat="47.658974" lon="2.0947628">
        <ele>170</ele>
        <time>2022-02-24T10:21:45.401Z</time>
      </trkpt>
      <trkpt lat="47.658993" lon="2.0947742">
        <ele>170</ele>
        <time>2022-02-24T10:21:46.401Z</time>
      </trkpt>
      <trkpt lat="47.659004" lon="2.0947826">
        <ele>170</ele>
        <time>2022-02-24T10:21:47.401Z</time>
      </trkpt>
      <trkpt lat="47.65902" lon="2.094794">
        <ele>170</ele>
        <time>2022-02-24T10:21:48.401Z</time>
      </trkpt>
      <trkpt lat="47.659035" lon="2.0947988">
        <ele>171</ele>
        <time>2022-02-24T10:21:49.401Z</time>
      </trkpt>
      <trkpt lat="47.659046" lon="2.0947983">
        <ele>171</ele>
        <time>2022-02-24T10:21:50.401Z</time>
      </trkpt>
      <trkpt lat="47.659058" lon="2.094803">
        <ele>171</ele>
        <time>2022-02-24T10:21:51.401Z</time>
      </trkpt>
      <trkpt lat="47.65907" lon="2.094809">
        <ele>172</ele>
        <time>2022-02-24T10:21:52.401Z</time>
      </trkpt>
      <trkpt lat="47.65908" lon="2.0948117">
        <ele>172</ele>
        <time>2022-02-24T10:21:53.401Z</time>
      </trkpt>
      <trkpt lat="47.659092" lon="2.0948162">
        <ele>172</ele>
        <time>2022-02-24T10:21:54.401Z</time>
      </trkpt>
      <trkpt lat="47.659107" lon="2.0948255">
        <ele>171</ele>
        <time>2022-02-24T10:21:55.401Z</time>
      </trkpt>
      <trkpt lat="47.65912" lon="2.0948327">
        <ele>171</ele>
        <time>2022-02-24T10:21:56.401Z</time>
      </trkpt>
      <trkpt lat="47.659126" lon="2.094838">
        <ele>171</ele>
        <time>2022-02-24T10:21:57.401Z</time>
      </trkpt>
      <trkpt lat="47.659138" lon="2.0948439">
        <ele>171</ele>
        <time>2022-02-24T10:21:58.401Z</time>
      </trkpt>
      <trkpt lat="47.65915" lon="2.0948558">
        <ele>171</ele>
        <time>2022-02-24T10:21:59.401Z</time>
      </trkpt>
      <trkpt lat="47.65916" lon="2.0948658">
        <ele>171</ele>
        <time>2022-02-24T10:22:00.401Z</time>
      </trkpt>
      <trkpt lat="47.65917" lon="2.0948744">
        <ele>171</ele>
        <time>2022-02-24T10:22:01.401Z</time>
      </trkpt>
      <trkpt lat="47.659176" lon="2.094884">
        <ele>171</ele>
        <time>2022-02-24T10:22:02.401Z</time>
      </trkpt>
      <trkpt lat="47.65918" lon="2.09489">
        <ele>171</ele>
        <time>2022-02-24T10:22:03.401Z</time>
      </trkpt>
      <trkpt lat="47.65919" lon="2.0949013">
        <ele>171</ele>
        <time>2022-02-24T10:22:04.401Z</time>
      </trkpt>
      <trkpt lat="47.6592" lon="2.0949109">
        <ele>172</ele>
        <time>2022-02-24T10:22:05.401Z</time>
      </trkpt>
      <trkpt lat="47.65921" lon="2.0949225">
        <ele>172</ele>
        <time>2022-02-24T10:22:06.401Z</time>
      </trkpt>
      <trkpt lat="47.65921" lon="2.0949225">
        <ele>172</ele>
        <time>2022-02-24T10:22:07.401Z</time>
      </trkpt>
      <trkpt lat="47.65921" lon="2.0949225">
        <ele>172</ele>
        <time>2022-02-24T10:22:08.401Z</time>
      </trkpt>
      <trkpt lat="47.659237" lon="2.0949404">
        <ele>173</ele>
        <time>2022-02-24T10:22:09.401Z</time>
      </trkpt>
      <trkpt lat="47.659252" lon="2.094948">
        <ele>173</ele>
        <time>2022-02-24T10:22:10.401Z</time>
      </trkpt>
      <trkpt lat="47.65926" lon="2.0949557">
        <ele>173</ele>
        <time>2022-02-24T10:22:11.401Z</time>
      </trkpt>
      <trkpt lat="47.659275" lon="2.0949674">
        <ele>173</ele>
        <time>2022-02-24T10:22:12.401Z</time>
      </trkpt>
      <trkpt lat="47.65929" lon="2.094982">
        <ele>173</ele>
        <time>2022-02-24T10:22:13.401Z</time>
      </trkpt>
      <trkpt lat="47.659306" lon="2.0949922">
        <ele>173</ele>
        <time>2022-02-24T10:22:14.401Z</time>
      </trkpt>
      <trkpt lat="47.65932" lon="2.095003">
        <ele>173</ele>
        <time>2022-02-24T10:22:15.401Z</time>
      </trkpt>
      <trkpt lat="47.659332" lon="2.0950077">
        <ele>173</ele>
        <time>2022-02-24T10:22:16.401Z</time>
      </trkpt>
      <trkpt lat="47.659344" lon="2.0950172">
        <ele>173</ele>
        <time>2022-02-24T10:22:17.401Z</time>
      </trkpt>
      <trkpt lat="47.659355" lon="2.0950246">
        <ele>172</ele>
        <time>2022-02-24T10:22:18.401Z</time>
      </trkpt>
      <trkpt lat="47.659355" lon="2.0950246">
        <ele>172</ele>
        <time>2022-02-24T10:22:19.401Z</time>
      </trkpt>
      <trkpt lat="47.659355" lon="2.0950246">
        <ele>172</ele>
        <time>2022-02-24T10:22:20.401Z</time>
      </trkpt>
      <trkpt lat="47.65938" lon="2.0950365">
        <ele>172</ele>
        <time>2022-02-24T10:22:21.401Z</time>
      </trkpt>
      <trkpt lat="47.659397" lon="2.0950434">
        <ele>172</ele>
        <time>2022-02-24T10:22:22.401Z</time>
      </trkpt>
      <trkpt lat="47.659405" lon="2.0950544">
        <ele>172</ele>
        <time>2022-02-24T10:22:23.401Z</time>
      </trkpt>
      <trkpt lat="47.659412" lon="2.0950654">
        <ele>172</ele>
        <time>2022-02-24T10:22:24.401Z</time>
      </trkpt>
      <trkpt lat="47.659424" lon="2.0950768">
        <ele>173</ele>
        <time>2022-02-24T10:22:25.401Z</time>
      </trkpt>
      <trkpt lat="47.65943" lon="2.0950844">
        <ele>173</ele>
        <time>2022-02-24T10:22:26.401Z</time>
      </trkpt>
      <trkpt lat="47.659447" lon="2.095092">
        <ele>173</ele>
        <time>2022-02-24T10:22:27.401Z</time>
      </trkpt>
      <trkpt lat="47.659454" lon="2.0950983">
        <ele>173</ele>
        <time>2022-02-24T10:22:28.401Z</time>
      </trkpt>
      <trkpt lat="47.65947" lon="2.095104">
        <ele>173</ele>
        <time>2022-02-24T10:22:29.401Z</time>
      </trkpt>
      <trkpt lat="47.65948" lon="2.0951118">
        <ele>173</ele>
        <time>2022-02-24T10:22:30.401Z</time>
      </trkpt>
      <trkpt lat="47.659492" lon="2.0951178">
        <ele>173</ele>
        <time>2022-02-24T10:22:31.401Z</time>
      </trkpt>
      <trkpt lat="47.659504" lon="2.0951266">
        <ele>173</ele>
        <time>2022-02-24T10:22:32.401Z</time>
      </trkpt>
      <trkpt lat="47.659515" lon="2.0951314">
        <ele>174</ele>
        <time>2022-02-24T10:22:33.401Z</time>
      </trkpt>
      <trkpt lat="47.659523" lon="2.0951376">
        <ele>174</ele>
        <time>2022-02-24T10:22:34.401Z</time>
      </trkpt>
      <trkpt lat="47.659527" lon="2.0951457">
        <ele>174</ele>
        <time>2022-02-24T10:22:35.401Z</time>
      </trkpt>
      <trkpt lat="47.659527" lon="2.0951457">
        <ele>174</ele>
        <time>2022-02-24T10:22:36.401Z</time>
      </trkpt>
      <trkpt lat="47.659527" lon="2.0951457">
        <ele>174</ele>
        <time>2022-02-24T10:22:37.401Z</time>
      </trkpt>
      <trkpt lat="47.659546" lon="2.0951633">
        <ele>174</ele>
        <time>2022-02-24T10:22:38.401Z</time>
      </trkpt>
      <trkpt lat="47.659557" lon="2.095167">
        <ele>174</ele>
        <time>2022-02-24T10:22:39.401Z</time>
      </trkpt>
      <trkpt lat="47.65957" lon="2.0951765">
        <ele>174</ele>
        <time>2022-02-24T10:22:40.401Z</time>
      </trkpt>
      <trkpt lat="47.65958" lon="2.095186">
        <ele>173</ele>
        <time>2022-02-24T10:22:41.401Z</time>
      </trkpt>
      <trkpt lat="47.65959" lon="2.095195">
        <ele>173</ele>
        <time>2022-02-24T10:22:42.401Z</time>
      </trkpt>
      <trkpt lat="47.659603" lon="2.0952005">
        <ele>173</ele>
        <time>2022-02-24T10:22:43.401Z</time>
      </trkpt>
      <trkpt lat="47.65962" lon="2.0952055">
        <ele>173</ele>
        <time>2022-02-24T10:22:44.401Z</time>
      </trkpt>
      <trkpt lat="47.65963" lon="2.0952072">
        <ele>173</ele>
        <time>2022-02-24T10:22:45.401Z</time>
      </trkpt>
      <trkpt lat="47.659637" lon="2.0952113">
        <ele>173</ele>
        <time>2022-02-24T10:22:46.401Z</time>
      </trkpt>
      <trkpt lat="47.65965" lon="2.095222">
        <ele>172</ele>
        <time>2022-02-24T10:22:47.401Z</time>
      </trkpt>
      <trkpt lat="47.65966" lon="2.0952291">
        <ele>172</ele>
        <time>2022-02-24T10:22:48.401Z</time>
      </trkpt>
      <trkpt lat="47.65967" lon="2.0952408">
        <ele>171</ele>
        <time>2022-02-24T10:22:49.401Z</time>
      </trkpt>
      <trkpt lat="47.65968" lon="2.0952508">
        <ele>171</ele>
        <time>2022-02-24T10:22:50.401Z</time>
      </trkpt>
      <trkpt lat="47.65969" lon="2.0952609">
        <ele>170</ele>
        <time>2022-02-24T10:22:51.401Z</time>
      </trkpt>
      <trkpt lat="47.6597" lon="2.0952654">
        <ele>169</ele>
        <time>2022-02-24T10:22:52.401Z</time>
      </trkpt>
      <trkpt lat="47.6597" lon="2.0952654">
        <ele>169</ele>
        <time>2022-02-24T10:22:53.401Z</time>
      </trkpt>
      <trkpt lat="47.659718" lon="2.0952818">
        <ele>169</ele>
        <time>2022-02-24T10:22:54.401Z</time>
      </trkpt>
      <trkpt lat="47.659725" lon="2.0952876">
        <ele>169</ele>
        <time>2022-02-24T10:22:55.401Z</time>
      </trkpt>
      <trkpt lat="47.659737" lon="2.095292">
        <ele>169</ele>
        <time>2022-02-24T10:22:56.401Z</time>
      </trkpt>
      <trkpt lat="47.65975" lon="2.0952983">
        <ele>170</ele>
        <time>2022-02-24T10:22:57.401Z</time>
      </trkpt>
      <trkpt lat="47.65978" lon="2.0953119">
        <ele>171</ele>
        <time>2022-02-24T10:22:58.401Z</time>
      </trkpt>
      <trkpt lat="47.659805" lon="2.0953255">
        <ele>173</ele>
        <time>2022-02-24T10:22:59.401Z</time>
      </trkpt>
      <trkpt lat="47.659832" lon="2.0953336">
        <ele>174</ele>
        <time>2022-02-24T10:23:00.401Z</time>
      </trkpt>
      <trkpt lat="47.659847" lon="2.0953386">
        <ele>175</ele>
        <time>2022-02-24T10:23:01.401Z</time>
      </trkpt>
      <trkpt lat="47.659874" lon="2.0953515">
        <ele>178</ele>
        <time>2022-02-24T10:23:02.401Z</time>
      </trkpt>
      <trkpt lat="47.659904" lon="2.0953631">
        <ele>179</ele>
        <time>2022-02-24T10:23:03.401Z</time>
      </trkpt>
      <trkpt lat="47.659935" lon="2.0953693">
        <ele>180</ele>
        <time>2022-02-24T10:23:04.401Z</time>
      </trkpt>
      <trkpt lat="47.65996" lon="2.0953774">
        <ele>181</ele>
        <time>2022-02-24T10:23:05.401Z</time>
      </trkpt>
      <trkpt lat="47.65999" lon="2.095383">
        <ele>182</ele>
        <time>2022-02-24T10:23:06.401Z</time>
      </trkpt>
      <trkpt lat="47.660015" lon="2.0953846">
        <ele>183</ele>
        <time>2022-02-24T10:23:07.401Z</time>
      </trkpt>
      <trkpt lat="47.66003" lon="2.0953867">
        <ele>183</ele>
        <time>2022-02-24T10:23:08.401Z</time>
      </trkpt>
      <trkpt lat="47.66005" lon="2.0953898">
        <ele>184</ele>
        <time>2022-02-24T10:23:09.401Z</time>
      </trkpt>
      <trkpt lat="47.66007" lon="2.095388">
        <ele>184</ele>
        <time>2022-02-24T10:23:10.401Z</time>
      </trkpt>
      <trkpt lat="47.660084" lon="2.0953934">
        <ele>184</ele>
        <time>2022-02-24T10:23:11.401Z</time>
      </trkpt>
      <trkpt lat="47.6601" lon="2.0953975">
        <ele>184</ele>
        <time>2022-02-24T10:23:12.401Z</time>
      </trkpt>
      <trkpt lat="47.66011" lon="2.0954015">
        <ele>184</ele>
        <time>2022-02-24T10:23:13.401Z</time>
      </trkpt>
      <trkpt lat="47.660126" lon="2.095405">
        <ele>185</ele>
        <time>2022-02-24T10:23:14.401Z</time>
      </trkpt>
      <trkpt lat="47.660145" lon="2.0954063">
        <ele>185</ele>
        <time>2022-02-24T10:23:15.401Z</time>
      </trkpt>
      <trkpt lat="47.66016" lon="2.0954096">
        <ele>185</ele>
        <time>2022-02-24T10:23:16.401Z</time>
      </trkpt>
      <trkpt lat="47.66018" lon="2.0954123">
        <ele>185</ele>
        <time>2022-02-24T10:23:18.401Z</time>
      </trkpt>
      <trkpt lat="47.660194" lon="2.0954165">
        <ele>185</ele>
        <time>2022-02-24T10:23:19.401Z</time>
      </trkpt>
      <trkpt lat="47.66021" lon="2.0954242">
        <ele>186</ele>
        <time>2022-02-24T10:23:20.401Z</time>
      </trkpt>
      <trkpt lat="47.660225" lon="2.0954332">
        <ele>186</ele>
        <time>2022-02-24T10:23:21.401Z</time>
      </trkpt>
      <trkpt lat="47.66024" lon="2.0954425">
        <ele>186</ele>
        <time>2022-02-24T10:23:22.401Z</time>
      </trkpt>
      <trkpt lat="47.66025" lon="2.0954504">
        <ele>187</ele>
        <time>2022-02-24T10:23:22.401Z</time>
      </trkpt>
      <trkpt lat="47.660267" lon="2.0954573">
        <ele>187</ele>
        <time>2022-02-24T10:23:24.401Z</time>
      </trkpt>
      <trkpt lat="47.66028" lon="2.0954607">
        <ele>186</ele>
        <time>2022-02-24T10:23:25.401Z</time>
      </trkpt>
      <trkpt lat="47.660297" lon="2.09547">
        <ele>186</ele>
        <time>2022-02-24T10:23:26.401Z</time>
      </trkpt>
      <trkpt lat="47.660313" lon="2.095477">
        <ele>187</ele>
        <time>2022-02-24T10:23:27.401Z</time>
      </trkpt>
      <trkpt lat="47.660328" lon="2.0954847">
        <ele>187</ele>
        <time>2022-02-24T10:23:28.401Z</time>
      </trkpt>
      <trkpt lat="47.660343" lon="2.0954938">
        <ele>187</ele>
        <time>2022-02-24T10:23:29.401Z</time>
      </trkpt>
      <trkpt lat="47.66036" lon="2.0955029">
        <ele>187</ele>
        <time>2022-02-24T10:23:30.401Z</time>
      </trkpt>
      <trkpt lat="47.66037" lon="2.0955102">
        <ele>187</ele>
        <time>2022-02-24T10:23:31.401Z</time>
      </trkpt>
      <trkpt lat="47.660385" lon="2.095519">
        <ele>187</ele>
        <time>2022-02-24T10:23:32.401Z</time>
      </trkpt>
      <trkpt lat="47.6604" lon="2.095527">
        <ele>187</ele>
        <time>2022-02-24T10:23:33.401Z</time>
      </trkpt>
      <trkpt lat="47.660416" lon="2.0955343">
        <ele>187</ele>
        <time>2022-02-24T10:23:34.401Z</time>
      </trkpt>
      <trkpt lat="47.66043" lon="2.0955448">
        <ele>187</ele>
        <time>2022-02-24T10:23:35.401Z</time>
      </trkpt>
      <trkpt lat="47.660446" lon="2.0955536">
        <ele>188</ele>
        <time>2022-02-24T10:23:36.401Z</time>
      </trkpt>
      <trkpt lat="47.660458" lon="2.095559">
        <ele>188</ele>
        <time>2022-02-24T10:23:37.401Z</time>
      </trkpt>
      <trkpt lat="47.66047" lon="2.0955648">
        <ele>188</ele>
        <time>2022-02-24T10:23:38.401Z</time>
      </trkpt>
      <trkpt lat="47.660484" lon="2.0955698">
        <ele>187</ele>
        <time>2022-02-24T10:23:39.401Z</time>
      </trkpt>
      <trkpt lat="47.660496" lon="2.0955791">
        <ele>188</ele>
        <time>2022-02-24T10:23:40.401Z</time>
      </trkpt>
      <trkpt lat="47.660507" lon="2.095585">
        <ele>188</ele>
        <time>2022-02-24T10:23:41.401Z</time>
      </trkpt>
      <trkpt lat="47.660522" lon="2.095591">
        <ele>187</ele>
        <time>2022-02-24T10:23:42.401Z</time>
      </trkpt>
      <trkpt lat="47.660522" lon="2.0955904">
        <ele>187</ele>
        <time>2022-02-24T10:23:43.401Z</time>
      </trkpt>
      <trkpt lat="47.66053" lon="2.095598">
        <ele>188</ele>
        <time>2022-02-24T10:23:44.401Z</time>
      </trkpt>
      <trkpt lat="47.66054" lon="2.0956087">
        <ele>188</ele>
        <time>2022-02-24T10:23:45.401Z</time>
      </trkpt>
      <trkpt lat="47.660557" lon="2.0956187">
        <ele>188</ele>
        <time>2022-02-24T10:23:46.401Z</time>
      </trkpt>
      <trkpt lat="47.660572" lon="2.0956264">
        <ele>188</ele>
        <time>2022-02-24T10:23:47.401Z</time>
      </trkpt>
      <trkpt lat="47.660587" lon="2.095632">
        <ele>188</ele>
        <time>2022-02-24T10:23:48.401Z</time>
      </trkpt>
      <trkpt lat="47.6606" lon="2.095639">
        <ele>188</ele>
        <time>2022-02-24T10:23:49.401Z</time>
      </trkpt>
      <trkpt lat="47.660614" lon="2.0956454">
        <ele>189</ele>
        <time>2022-02-24T10:23:50.401Z</time>
      </trkpt>
      <trkpt lat="47.660633" lon="2.0956528">
        <ele>189</ele>
        <time>2022-02-24T10:23:51.401Z</time>
      </trkpt>
      <trkpt lat="47.660645" lon="2.0956683">
        <ele>189</ele>
        <time>2022-02-24T10:23:52.401Z</time>
      </trkpt>
      <trkpt lat="47.66066" lon="2.0956824">
        <ele>188</ele>
        <time>2022-02-24T10:23:53.401Z</time>
      </trkpt>
      <trkpt lat="47.66067" lon="2.0956876">
        <ele>188</ele>
        <time>2022-02-24T10:23:54.401Z</time>
      </trkpt>
      <trkpt lat="47.66069" lon="2.0956933">
        <ele>189</ele>
        <time>2022-02-24T10:23:55.401Z</time>
      </trkpt>
      <trkpt lat="47.660706" lon="2.0957003">
        <ele>188</ele>
        <time>2022-02-24T10:23:56.401Z</time>
      </trkpt>
      <trkpt lat="47.660713" lon="2.0957088">
        <ele>188</ele>
        <time>2022-02-24T10:23:57.401Z</time>
      </trkpt>
      <trkpt lat="47.660725" lon="2.0957203">
        <ele>188</ele>
        <time>2022-02-24T10:23:58.401Z</time>
      </trkpt>
      <trkpt lat="47.660736" lon="2.0957344">
        <ele>188</ele>
        <time>2022-02-24T10:23:59.401Z</time>
      </trkpt>
      <trkpt lat="47.66075" lon="2.0957527">
        <ele>188</ele>
        <time>2022-02-24T10:24:00.401Z</time>
      </trkpt>
      <trkpt lat="47.660767" lon="2.0957682">
        <ele>187</ele>
        <time>2022-02-24T10:24:01.401Z</time>
      </trkpt>
      <trkpt lat="47.660778" lon="2.0957758">
        <ele>187</ele>
        <time>2022-02-24T10:24:02.401Z</time>
      </trkpt>
      <trkpt lat="47.660793" lon="2.0957866">
        <ele>187</ele>
        <time>2022-02-24T10:24:03.401Z</time>
      </trkpt>
      <trkpt lat="47.6608" lon="2.0957959">
        <ele>187</ele>
        <time>2022-02-24T10:24:04.401Z</time>
      </trkpt>
      <trkpt lat="47.660816" lon="2.0958033">
        <ele>186</ele>
        <time>2022-02-24T10:24:05.401Z</time>
      </trkpt>
      <trkpt lat="47.660824" lon="2.0958116">
        <ele>186</ele>
        <time>2022-02-24T10:24:06.401Z</time>
      </trkpt>
      <trkpt lat="47.660835" lon="2.0958176">
        <ele>186</ele>
        <time>2022-02-24T10:24:07.401Z</time>
      </trkpt>
      <trkpt lat="47.660847" lon="2.095826">
        <ele>186</ele>
        <time>2022-02-24T10:24:08.401Z</time>
      </trkpt>
      <trkpt lat="47.660877" lon="2.0958369">
        <ele>188</ele>
        <time>2022-02-24T10:24:10.401Z</time>
      </trkpt>
      <trkpt lat="47.660896" lon="2.095856">
        <ele>188</ele>
        <time>2022-02-24T10:24:12.401Z</time>
      </trkpt>
      <trkpt lat="47.660908" lon="2.0958626">
        <ele>188</ele>
        <time>2022-02-24T10:24:13.401Z</time>
      </trkpt>
      <trkpt lat="47.660915" lon="2.0958695">
        <ele>188</ele>
        <time>2022-02-24T10:24:14.401Z</time>
      </trkpt>
      <trkpt lat="47.660927" lon="2.095871">
        <ele>188</ele>
        <time>2022-02-24T10:24:15.401Z</time>
      </trkpt>
      <trkpt lat="47.66094" lon="2.0958714">
        <ele>187</ele>
        <time>2022-02-24T10:24:16.401Z</time>
      </trkpt>
      <trkpt lat="47.66095" lon="2.0958745">
        <ele>188</ele>
        <time>2022-02-24T10:24:17.401Z</time>
      </trkpt>
      <trkpt lat="47.660965" lon="2.095883">
        <ele>188</ele>
        <time>2022-02-24T10:24:18.401Z</time>
      </trkpt>
      <trkpt lat="47.660976" lon="2.0958924">
        <ele>188</ele>
        <time>2022-02-24T10:24:19.401Z</time>
      </trkpt>
      <trkpt lat="47.66099" lon="2.0958996">
        <ele>188</ele>
        <time>2022-02-24T10:24:20.401Z</time>
      </trkpt>
      <trkpt lat="47.661003" lon="2.095909">
        <ele>188</ele>
        <time>2022-02-24T10:24:21.401Z</time>
      </trkpt>
      <trkpt lat="47.661015" lon="2.095916">
        <ele>188</ele>
        <time>2022-02-24T10:24:22.401Z</time>
      </trkpt>
      <trkpt lat="47.661026" lon="2.0959177">
        <ele>189</ele>
        <time>2022-02-24T10:24:23.401Z</time>
      </trkpt>
      <trkpt lat="47.66104" lon="2.0959256">
        <ele>189</ele>
        <time>2022-02-24T10:24:24.401Z</time>
      </trkpt>
      <trkpt lat="47.661053" lon="2.0959344">
        <ele>189</ele>
        <time>2022-02-24T10:24:25.401Z</time>
      </trkpt>
      <trkpt lat="47.661064" lon="2.0959456">
        <ele>189</ele>
        <time>2022-02-24T10:24:26.401Z</time>
      </trkpt>
      <trkpt lat="47.66108" lon="2.0959516">
        <ele>189</ele>
        <time>2022-02-24T10:24:27.401Z</time>
      </trkpt>
      <trkpt lat="47.661095" lon="2.095955">
        <ele>189</ele>
        <time>2022-02-24T10:24:28.401Z</time>
      </trkpt>
      <trkpt lat="47.66111" lon="2.095964">
        <ele>190</ele>
        <time>2022-02-24T10:24:29.401Z</time>
      </trkpt>
      <trkpt lat="47.661125" lon="2.0959706">
        <ele>190</ele>
        <time>2022-02-24T10:24:30.401Z</time>
      </trkpt>
      <trkpt lat="47.661148" lon="2.0959897">
        <ele>190</ele>
        <time>2022-02-24T10:24:32.401Z</time>
      </trkpt>
      <trkpt lat="47.66116" lon="2.0959957">
        <ele>190</ele>
        <time>2022-02-24T10:24:33.401Z</time>
      </trkpt>
      <trkpt lat="47.661167" lon="2.0960002">
        <ele>189</ele>
        <time>2022-02-24T10:24:34.401Z</time>
      </trkpt>
      <trkpt lat="47.66118" lon="2.0960066">
        <ele>189</ele>
        <time>2022-02-24T10:24:35.401Z</time>
      </trkpt>
      <trkpt lat="47.66119" lon="2.0960155">
        <ele>189</ele>
        <time>2022-02-24T10:24:36.401Z</time>
      </trkpt>
      <trkpt lat="47.6612" lon="2.0960217">
        <ele>189</ele>
        <time>2022-02-24T10:24:37.401Z</time>
      </trkpt>
      <trkpt lat="47.66121" lon="2.0960286">
        <ele>189</ele>
        <time>2022-02-24T10:24:38.401Z</time>
      </trkpt>
      <trkpt lat="47.661224" lon="2.0960317">
        <ele>189</ele>
        <time>2022-02-24T10:24:39.401Z</time>
      </trkpt>
      <trkpt lat="47.66124" lon="2.0960388">
        <ele>190</ele>
        <time>2022-02-24T10:24:40.401Z</time>
      </trkpt>
      <trkpt lat="47.66125" lon="2.0960476">
        <ele>190</ele>
        <time>2022-02-24T10:24:41.401Z</time>
      </trkpt>
      <trkpt lat="47.661263" lon="2.096059">
        <ele>190</ele>
        <time>2022-02-24T10:24:42.401Z</time>
      </trkpt>
      <trkpt lat="47.661274" lon="2.0960662">
        <ele>191</ele>
        <time>2022-02-24T10:24:43.401Z</time>
      </trkpt>
      <trkpt lat="47.66129" lon="2.096072">
        <ele>190</ele>
        <time>2022-02-24T10:24:44.401Z</time>
      </trkpt>
      <trkpt lat="47.661297" lon="2.096078">
        <ele>190</ele>
        <time>2022-02-24T10:24:45.401Z</time>
      </trkpt>
      <trkpt lat="47.66131" lon="2.096091">
        <ele>190</ele>
        <time>2022-02-24T10:24:46.401Z</time>
      </trkpt>
      <trkpt lat="47.66132" lon="2.0961032">
        <ele>190</ele>
        <time>2022-02-24T10:24:47.401Z</time>
      </trkpt>
      <trkpt lat="47.66133" lon="2.0961106">
        <ele>190</ele>
        <time>2022-02-24T10:24:48.401Z</time>
      </trkpt>
      <trkpt lat="47.66134" lon="2.0961263">
        <ele>190</ele>
        <time>2022-02-24T10:24:49.401Z</time>
      </trkpt>
      <trkpt lat="47.66135" lon="2.0961316">
        <ele>190</ele>
        <time>2022-02-24T10:24:50.401Z</time>
      </trkpt>
      <trkpt lat="47.661366" lon="2.0961316">
        <ele>190</ele>
        <time>2022-02-24T10:24:51.401Z</time>
      </trkpt>
      <trkpt lat="47.66138" lon="2.0961328">
        <ele>190</ele>
        <time>2022-02-24T10:24:52.401Z</time>
      </trkpt>
      <trkpt lat="47.66139" lon="2.096141">
        <ele>189</ele>
        <time>2022-02-24T10:24:53.401Z</time>
      </trkpt>
      <trkpt lat="47.6614" lon="2.0961502">
        <ele>189</ele>
        <time>2022-02-24T10:24:54.401Z</time>
      </trkpt>
      <trkpt lat="47.66141" lon="2.0961637">
        <ele>189</ele>
        <time>2022-02-24T10:24:55.401Z</time>
      </trkpt>
      <trkpt lat="47.661423" lon="2.0961735">
        <ele>189</ele>
        <time>2022-02-24T10:24:56.401Z</time>
      </trkpt>
      <trkpt lat="47.661423" lon="2.0961764">
        <ele>189</ele>
        <time>2022-02-24T10:24:57.401Z</time>
      </trkpt>
      <trkpt lat="47.66143" lon="2.096178">
        <ele>188</ele>
        <time>2022-02-24T10:24:58.401Z</time>
      </trkpt>
      <trkpt lat="47.66144" lon="2.0961838">
        <ele>188</ele>
        <time>2022-02-24T10:24:59.401Z</time>
      </trkpt>
      <trkpt lat="47.661457" lon="2.0961936">
        <ele>188</ele>
        <time>2022-02-24T10:25:00.401Z</time>
      </trkpt>
      <trkpt lat="47.66147" lon="2.0962038">
        <ele>188</ele>
        <time>2022-02-24T10:25:01.401Z</time>
      </trkpt>
      <trkpt lat="47.661484" lon="2.0962129">
        <ele>187</ele>
        <time>2022-02-24T10:25:02.401Z</time>
      </trkpt>
      <trkpt lat="47.661495" lon="2.0962255">
        <ele>187</ele>
        <time>2022-02-24T10:25:03.401Z</time>
      </trkpt>
      <trkpt lat="47.66151" lon="2.0962365">
        <ele>187</ele>
        <time>2022-02-24T10:25:04.401Z</time>
      </trkpt>
      <trkpt lat="47.661526" lon="2.0962465">
        <ele>187</ele>
        <time>2022-02-24T10:25:05.401Z</time>
      </trkpt>
      <trkpt lat="47.661545" lon="2.0962615">
        <ele>188</ele>
        <time>2022-02-24T10:25:06.401Z</time>
      </trkpt>
      <trkpt lat="47.661556" lon="2.0962713">
        <ele>188</ele>
        <time>2022-02-24T10:25:07.401Z</time>
      </trkpt>
      <trkpt lat="47.661575" lon="2.096275">
        <ele>187</ele>
        <time>2022-02-24T10:25:08.401Z</time>
      </trkpt>
      <trkpt lat="47.661594" lon="2.0962746">
        <ele>187</ele>
        <time>2022-02-24T10:25:09.401Z</time>
      </trkpt>
      <trkpt lat="47.66161" lon="2.09628">
        <ele>186</ele>
        <time>2022-02-24T10:25:10.401Z</time>
      </trkpt>
      <trkpt lat="47.66163" lon="2.0962887">
        <ele>186</ele>
        <time>2022-02-24T10:25:11.401Z</time>
      </trkpt>
      <trkpt lat="47.661648" lon="2.0962973">
        <ele>186</ele>
        <time>2022-02-24T10:25:12.401Z</time>
      </trkpt>
      <trkpt lat="47.66166" lon="2.0963037">
        <ele>185</ele>
        <time>2022-02-24T10:25:13.401Z</time>
      </trkpt>
      <trkpt lat="47.66167" lon="2.0963182">
        <ele>185</ele>
        <time>2022-02-24T10:25:14.401Z</time>
      </trkpt>
      <trkpt lat="47.661686" lon="2.0963237">
        <ele>184</ele>
        <time>2022-02-24T10:25:15.401Z</time>
      </trkpt>
      <trkpt lat="47.661697" lon="2.0963302">
        <ele>184</ele>
        <time>2022-02-24T10:25:16.401Z</time>
      </trkpt>
      <trkpt lat="47.66171" lon="2.096336">
        <ele>184</ele>
        <time>2022-02-24T10:25:17.401Z</time>
      </trkpt>
      <trkpt lat="47.661716" lon="2.096339">
        <ele>183</ele>
        <time>2022-02-24T10:25:18.401Z</time>
      </trkpt>
      <trkpt lat="47.661724" lon="2.0963457">
        <ele>183</ele>
        <time>2022-02-24T10:25:19.401Z</time>
      </trkpt>
      <trkpt lat="47.661736" lon="2.0963542">
        <ele>183</ele>
        <time>2022-02-24T10:25:20.401Z</time>
      </trkpt>
      <trkpt lat="47.661743" lon="2.096363">
        <ele>183</ele>
        <time>2022-02-24T10:25:21.401Z</time>
      </trkpt>
      <trkpt lat="47.661755" lon="2.096372">
        <ele>182</ele>
        <time>2022-02-24T10:25:22.401Z</time>
      </trkpt>
      <trkpt lat="47.661762" lon="2.0963812">
        <ele>182</ele>
        <time>2022-02-24T10:25:23.401Z</time>
      </trkpt>
      <trkpt lat="47.661777" lon="2.096389">
        <ele>181</ele>
        <time>2022-02-24T10:25:24.401Z</time>
      </trkpt>
      <trkpt lat="47.661793" lon="2.0963964">
        <ele>181</ele>
        <time>2022-02-24T10:25:25.401Z</time>
      </trkpt>
      <trkpt lat="47.66181" lon="2.096402">
        <ele>180</ele>
        <time>2022-02-24T10:25:26.401Z</time>
      </trkpt>
      <trkpt lat="47.661827" lon="2.0964072">
        <ele>180</ele>
        <time>2022-02-24T10:25:27.401Z</time>
      </trkpt>
      <trkpt lat="47.66184" lon="2.096415">
        <ele>179</ele>
        <time>2022-02-24T10:25:28.401Z</time>
      </trkpt>
      <trkpt lat="47.66185" lon="2.0964174">
        <ele>179</ele>
        <time>2022-02-24T10:25:29.401Z</time>
      </trkpt>
      <trkpt lat="47.661865" lon="2.096423">
        <ele>178</ele>
        <time>2022-02-24T10:25:30.401Z</time>
      </trkpt>
      <trkpt lat="47.66188" lon="2.0964303">
        <ele>178</ele>
        <time>2022-02-24T10:25:31.401Z</time>
      </trkpt>
      <trkpt lat="47.661892" lon="2.096447">
        <ele>178</ele>
        <time>2022-02-24T10:25:32.401Z</time>
      </trkpt>
      <trkpt lat="47.661903" lon="2.0964522">
        <ele>179</ele>
        <time>2022-02-24T10:25:33.401Z</time>
      </trkpt>
      <trkpt lat="47.661915" lon="2.0964577">
        <ele>179</ele>
        <time>2022-02-24T10:25:34.401Z</time>
      </trkpt>
      <trkpt lat="47.661926" lon="2.0964653">
        <ele>178</ele>
        <time>2022-02-24T10:25:35.401Z</time>
      </trkpt>
      <trkpt lat="47.661934" lon="2.0964785">
        <ele>178</ele>
        <time>2022-02-24T10:25:36.401Z</time>
      </trkpt>
      <trkpt lat="47.661945" lon="2.096486">
        <ele>177</ele>
        <time>2022-02-24T10:25:37.401Z</time>
      </trkpt>
      <trkpt lat="47.661957" lon="2.096497">
        <ele>177</ele>
        <time>2022-02-24T10:25:38.401Z</time>
      </trkpt>
      <trkpt lat="47.661964" lon="2.096513">
        <ele>176</ele>
        <time>2022-02-24T10:25:39.401Z</time>
      </trkpt>
      <trkpt lat="47.661976" lon="2.096526">
        <ele>175</ele>
        <time>2022-02-24T10:25:40.401Z</time>
      </trkpt>
      <trkpt lat="47.66199" lon="2.0965388">
        <ele>175</ele>
        <time>2022-02-24T10:25:41.401Z</time>
      </trkpt>
      <trkpt lat="47.662003" lon="2.0965438">
        <ele>175</ele>
        <time>2022-02-24T10:25:42.401Z</time>
      </trkpt>
      <trkpt lat="47.662014" lon="2.0965497">
        <ele>174</ele>
        <time>2022-02-24T10:25:43.401Z</time>
      </trkpt>
      <trkpt lat="47.662025" lon="2.0965555">
        <ele>174</ele>
        <time>2022-02-24T10:25:44.401Z</time>
      </trkpt>
      <trkpt lat="47.662033" lon="2.096569">
        <ele>173</ele>
        <time>2022-02-24T10:25:45.401Z</time>
      </trkpt>
      <trkpt lat="47.662045" lon="2.0965786">
        <ele>173</ele>
        <time>2022-02-24T10:25:46.401Z</time>
      </trkpt>
      <trkpt lat="47.662056" lon="2.0965848">
        <ele>173</ele>
        <time>2022-02-24T10:25:47.401Z</time>
      </trkpt>
      <trkpt lat="47.662067" lon="2.0965917">
        <ele>173</ele>
        <time>2022-02-24T10:25:48.401Z</time>
      </trkpt>
      <trkpt lat="47.66208" lon="2.0965958">
        <ele>173</ele>
        <time>2022-02-24T10:25:49.401Z</time>
      </trkpt>
      <trkpt lat="47.662094" lon="2.0966022">
        <ele>172</ele>
        <time>2022-02-24T10:25:50.401Z</time>
      </trkpt>
      <trkpt lat="47.662106" lon="2.0966094">
        <ele>172</ele>
        <time>2022-02-24T10:25:51.401Z</time>
      </trkpt>
      <trkpt lat="47.662117" lon="2.0966163">
        <ele>172</ele>
        <time>2022-02-24T10:25:52.401Z</time>
      </trkpt>
      <trkpt lat="47.66213" lon="2.0966265">
        <ele>172</ele>
        <time>2022-02-24T10:25:53.401Z</time>
      </trkpt>
      <trkpt lat="47.66214" lon="2.0966325">
        <ele>171</ele>
        <time>2022-02-24T10:25:54.401Z</time>
      </trkpt>
      <trkpt lat="47.66215" lon="2.0966375">
        <ele>171</ele>
        <time>2022-02-24T10:25:55.401Z</time>
      </trkpt>
      <trkpt lat="47.66216" lon="2.096644">
        <ele>171</ele>
        <time>2022-02-24T10:25:56.401Z</time>
      </trkpt>
      <trkpt lat="47.662167" lon="2.0966554">
        <ele>170</ele>
        <time>2022-02-24T10:25:57.401Z</time>
      </trkpt>
      <trkpt lat="47.662178" lon="2.0966659">
        <ele>169</ele>
        <time>2022-02-24T10:25:58.401Z</time>
      </trkpt>
      <trkpt lat="47.66219" lon="2.0966735">
        <ele>169</ele>
        <time>2022-02-24T10:25:59.401Z</time>
      </trkpt>
      <trkpt lat="47.6622" lon="2.09668">
        <ele>169</ele>
        <time>2022-02-24T10:26:00.401Z</time>
      </trkpt>
      <trkpt lat="47.662216" lon="2.0966847">
        <ele>169</ele>
        <time>2022-02-24T10:26:01.401Z</time>
      </trkpt>
      <trkpt lat="47.66223" lon="2.096691">
        <ele>170</ele>
        <time>2022-02-24T10:26:02.401Z</time>
      </trkpt>
      <trkpt lat="47.662247" lon="2.0966969">
        <ele>170</ele>
        <time>2022-02-24T10:26:03.401Z</time>
      </trkpt>
      <trkpt lat="47.662262" lon="2.0967023">
        <ele>170</ele>
        <time>2022-02-24T10:26:04.401Z</time>
      </trkpt>
      <trkpt lat="47.662277" lon="2.0967104">
        <ele>170</ele>
        <time>2022-02-24T10:26:05.401Z</time>
      </trkpt>
      <trkpt lat="47.66229" lon="2.0967236">
        <ele>170</ele>
        <time>2022-02-24T10:26:06.401Z</time>
      </trkpt>
      <trkpt lat="47.662304" lon="2.0967343">
        <ele>171</ele>
        <time>2022-02-24T10:26:07.401Z</time>
      </trkpt>
      <trkpt lat="47.66231" lon="2.0967405">
        <ele>172</ele>
        <time>2022-02-24T10:26:08.401Z</time>
      </trkpt>
      <trkpt lat="47.662323" lon="2.0967507">
        <ele>171</ele>
        <time>2022-02-24T10:26:09.401Z</time>
      </trkpt>
      <trkpt lat="47.66233" lon="2.0967593">
        <ele>172</ele>
        <time>2022-02-24T10:26:10.401Z</time>
      </trkpt>
      <trkpt lat="47.662346" lon="2.0967655">
        <ele>172</ele>
        <time>2022-02-24T10:26:11.401Z</time>
      </trkpt>
      <trkpt lat="47.662354" lon="2.0967727">
        <ele>172</ele>
        <time>2022-02-24T10:26:12.401Z</time>
      </trkpt>
      <trkpt lat="47.66236" lon="2.0967855">
        <ele>173</ele>
        <time>2022-02-24T10:26:13.401Z</time>
      </trkpt>
      <trkpt lat="47.66237" lon="2.0967968">
        <ele>173</ele>
        <time>2022-02-24T10:26:14.401Z</time>
      </trkpt>
      <trkpt lat="47.66238" lon="2.0968077">
        <ele>173</ele>
        <time>2022-02-24T10:26:15.401Z</time>
      </trkpt>
      <trkpt lat="47.66239" lon="2.0968225">
        <ele>172</ele>
        <time>2022-02-24T10:26:16.401Z</time>
      </trkpt>
      <trkpt lat="47.662403" lon="2.0968306">
        <ele>173</ele>
        <time>2022-02-24T10:26:17.401Z</time>
      </trkpt>
      <trkpt lat="47.662422" lon="2.0968435">
        <ele>173</ele>
        <time>2022-02-24T10:26:18.401Z</time>
      </trkpt>
      <trkpt lat="47.662437" lon="2.0968604">
        <ele>172</ele>
        <time>2022-02-24T10:26:19.401Z</time>
      </trkpt>
      <trkpt lat="47.662453" lon="2.0968666">
        <ele>172</ele>
        <time>2022-02-24T10:26:20.401Z</time>
      </trkpt>
      <trkpt lat="47.662468" lon="2.0968745">
        <ele>171</ele>
        <time>2022-02-24T10:26:21.401Z</time>
      </trkpt>
      <trkpt lat="47.66248" lon="2.0968754">
        <ele>171</ele>
        <time>2022-02-24T10:26:22.401Z</time>
      </trkpt>
      <trkpt lat="47.66249" lon="2.096882">
        <ele>171</ele>
        <time>2022-02-24T10:26:23.401Z</time>
      </trkpt>
      <trkpt lat="47.6625" lon="2.0968862">
        <ele>171</ele>
        <time>2022-02-24T10:26:24.401Z</time>
      </trkpt>
      <trkpt lat="47.66251" lon="2.0968895">
        <ele>171</ele>
        <time>2022-02-24T10:26:25.401Z</time>
      </trkpt>
      <trkpt lat="47.662514" lon="2.0968976">
        <ele>171</ele>
        <time>2022-02-24T10:26:26.401Z</time>
      </trkpt>
      <trkpt lat="47.662525" lon="2.0969045">
        <ele>170</ele>
        <time>2022-02-24T10:26:27.401Z</time>
      </trkpt>
      <trkpt lat="47.662537" lon="2.0969093">
        <ele>170</ele>
        <time>2022-02-24T10:26:28.401Z</time>
      </trkpt>
      <trkpt lat="47.66255" lon="2.096914">
        <ele>170</ele>
        <time>2022-02-24T10:26:29.401Z</time>
      </trkpt>
      <trkpt lat="47.662567" lon="2.096919">
        <ele>170</ele>
        <time>2022-02-24T10:26:30.401Z</time>
      </trkpt>
      <trkpt lat="47.662582" lon="2.0969224">
        <ele>170</ele>
        <time>2022-02-24T10:26:31.401Z</time>
      </trkpt>
      <trkpt lat="47.662598" lon="2.0969262">
        <ele>169</ele>
        <time>2022-02-24T10:26:32.401Z</time>
      </trkpt>
      <trkpt lat="47.66261" lon="2.0969334">
        <ele>170</ele>
        <time>2022-02-24T10:26:33.401Z</time>
      </trkpt>
      <trkpt lat="47.66262" lon="2.0969408">
        <ele>171</ele>
        <time>2022-02-24T10:26:34.401Z</time>
      </trkpt>
      <trkpt lat="47.662636" lon="2.0969458">
        <ele>171</ele>
        <time>2022-02-24T10:26:35.401Z</time>
      </trkpt>
      <trkpt lat="47.66265" lon="2.0969515">
        <ele>172</ele>
        <time>2022-02-24T10:26:36.401Z</time>
      </trkpt>
      <trkpt lat="47.662663" lon="2.096962">
        <ele>172</ele>
        <time>2022-02-24T10:26:37.401Z</time>
      </trkpt>
      <trkpt lat="47.662674" lon="2.0969741">
        <ele>173</ele>
        <time>2022-02-24T10:26:38.401Z</time>
      </trkpt>
      <trkpt lat="47.662693" lon="2.096989">
        <ele>173</ele>
        <time>2022-02-24T10:26:39.401Z</time>
      </trkpt>
      <trkpt lat="47.66271" lon="2.0970001">
        <ele>173</ele>
        <time>2022-02-24T10:26:40.401Z</time>
      </trkpt>
      <trkpt lat="47.662724" lon="2.0970187">
        <ele>173</ele>
        <time>2022-02-24T10:26:41.401Z</time>
      </trkpt>
      <trkpt lat="47.66274" lon="2.097024">
        <ele>173</ele>
        <time>2022-02-24T10:26:42.401Z</time>
      </trkpt>
      <trkpt lat="47.662746" lon="2.0970318">
        <ele>172</ele>
        <time>2022-02-24T10:26:43.401Z</time>
      </trkpt>
      <trkpt lat="47.66275" lon="2.0970352">
        <ele>172</ele>
        <time>2022-02-24T10:26:44.401Z</time>
      </trkpt>
      <trkpt lat="47.662758" lon="2.0970347">
        <ele>172</ele>
        <time>2022-02-24T10:26:45.401Z</time>
      </trkpt>
      <trkpt lat="47.66277" lon="2.0970387">
        <ele>172</ele>
        <time>2022-02-24T10:26:46.401Z</time>
      </trkpt>
      <trkpt lat="47.66278" lon="2.0970476">
        <ele>171</ele>
        <time>2022-02-24T10:26:47.401Z</time>
      </trkpt>
      <trkpt lat="47.662792" lon="2.0970507">
        <ele>171</ele>
        <time>2022-02-24T10:26:48.401Z</time>
      </trkpt>
      <trkpt lat="47.662804" lon="2.0970554">
        <ele>170</ele>
        <time>2022-02-24T10:26:49.401Z</time>
      </trkpt>
      <trkpt lat="47.66282" lon="2.097063">
        <ele>170</ele>
        <time>2022-02-24T10:26:50.401Z</time>
      </trkpt>
      <trkpt lat="47.662834" lon="2.0970674">
        <ele>170</ele>
        <time>2022-02-24T10:26:51.401Z</time>
      </trkpt>
      <trkpt lat="47.662846" lon="2.09707">
        <ele>169</ele>
        <time>2022-02-24T10:26:52.401Z</time>
      </trkpt>
      <trkpt lat="47.662853" lon="2.0970685">
        <ele>170</ele>
        <time>2022-02-24T10:26:53.401Z</time>
      </trkpt>
      <trkpt lat="47.66286" lon="2.0970724">
        <ele>170</ele>
        <time>2022-02-24T10:26:54.401Z</time>
      </trkpt>
      <trkpt lat="47.662872" lon="2.0970767">
        <ele>170</ele>
        <time>2022-02-24T10:26:55.401Z</time>
      </trkpt>
      <trkpt lat="47.662888" lon="2.0970795">
        <ele>171</ele>
        <time>2022-02-24T10:26:56.401Z</time>
      </trkpt>
      <trkpt lat="47.6629" lon="2.0970783">
        <ele>171</ele>
        <time>2022-02-24T10:26:57.401Z</time>
      </trkpt>
      <trkpt lat="47.662914" lon="2.0970798">
        <ele>171</ele>
        <time>2022-02-24T10:26:58.401Z</time>
      </trkpt>
      <trkpt lat="47.662926" lon="2.097081">
        <ele>172</ele>
        <time>2022-02-24T10:26:59.401Z</time>
      </trkpt>
      <trkpt lat="47.662937" lon="2.0970817">
        <ele>172</ele>
        <time>2022-02-24T10:27:00.401Z</time>
      </trkpt>
      <trkpt lat="47.66295" lon="2.0970812">
        <ele>172</ele>
        <time>2022-02-24T10:27:01.401Z</time>
      </trkpt>
      <trkpt lat="47.662964" lon="2.0970805">
        <ele>173</ele>
        <time>2022-02-24T10:27:02.401Z</time>
      </trkpt>
      <trkpt lat="47.66298" lon="2.09708">
        <ele>174</ele>
        <time>2022-02-24T10:27:03.401Z</time>
      </trkpt>
      <trkpt lat="47.66299" lon="2.0970812">
        <ele>174</ele>
        <time>2022-02-24T10:27:04.401Z</time>
      </trkpt>
      <trkpt lat="47.663002" lon="2.097081">
        <ele>175</ele>
        <time>2022-02-24T10:27:05.401Z</time>
      </trkpt>
      <trkpt lat="47.663013" lon="2.097081">
        <ele>175</ele>
        <time>2022-02-24T10:27:06.401Z</time>
      </trkpt>
      <trkpt lat="47.663025" lon="2.0970824">
        <ele>175</ele>
        <time>2022-02-24T10:27:07.401Z</time>
      </trkpt>
      <trkpt lat="47.66303" lon="2.0970857">
        <ele>175</ele>
        <time>2022-02-24T10:27:08.401Z</time>
      </trkpt>
      <trkpt lat="47.663036" lon="2.0970874">
        <ele>176</ele>
        <time>2022-02-24T10:27:09.401Z</time>
      </trkpt>
      <trkpt lat="47.663048" lon="2.0970855">
        <ele>176</ele>
        <time>2022-02-24T10:27:10.401Z</time>
      </trkpt>
      <trkpt lat="47.66306" lon="2.0970876">
        <ele>177</ele>
        <time>2022-02-24T10:27:11.401Z</time>
      </trkpt>
      <trkpt lat="47.66307" lon="2.0970871">
        <ele>177</ele>
        <time>2022-02-24T10:27:12.401Z</time>
      </trkpt>
      <trkpt lat="47.66309" lon="2.0970843">
        <ele>177</ele>
        <time>2022-02-24T10:27:13.401Z</time>
      </trkpt>
      <trkpt lat="47.663105" lon="2.097078">
        <ele>177</ele>
        <time>2022-02-24T10:27:14.401Z</time>
      </trkpt>
      <trkpt lat="47.663124" lon="2.0970733">
        <ele>177</ele>
        <time>2022-02-24T10:27:15.401Z</time>
      </trkpt>
      <trkpt lat="47.66313" lon="2.0970693">
        <ele>177</ele>
        <time>2022-02-24T10:27:16.401Z</time>
      </trkpt>
      <trkpt lat="47.663136" lon="2.0970712">
        <ele>177</ele>
        <time>2022-02-24T10:27:17.401Z</time>
      </trkpt>
      <trkpt lat="47.663147" lon="2.0970688">
        <ele>177</ele>
        <time>2022-02-24T10:27:18.401Z</time>
      </trkpt>
      <trkpt lat="47.663155" lon="2.0970588">
        <ele>177</ele>
        <time>2022-02-24T10:27:19.401Z</time>
      </trkpt>
      <trkpt lat="47.663166" lon="2.097052">
        <ele>177</ele>
        <time>2022-02-24T10:27:20.401Z</time>
      </trkpt>
      <trkpt lat="47.66318" lon="2.0970533">
        <ele>177</ele>
        <time>2022-02-24T10:27:21.401Z</time>
      </trkpt>
      <trkpt lat="47.663197" lon="2.0970502">
        <ele>178</ele>
        <time>2022-02-24T10:27:22.401Z</time>
      </trkpt>
      <trkpt lat="47.66321" lon="2.0970478">
        <ele>179</ele>
        <time>2022-02-24T10:27:23.401Z</time>
      </trkpt>
      <trkpt lat="47.66323" lon="2.097051">
        <ele>179</ele>
        <time>2022-02-24T10:27:24.401Z</time>
      </trkpt>
      <trkpt lat="47.663246" lon="2.097045">
        <ele>181</ele>
        <time>2022-02-24T10:27:25.401Z</time>
      </trkpt>
      <trkpt lat="47.66326" lon="2.0970469">
        <ele>181</ele>
        <time>2022-02-24T10:27:26.401Z</time>
      </trkpt>
      <trkpt lat="47.663273" lon="2.0970476">
        <ele>181</ele>
        <time>2022-02-24T10:27:27.401Z</time>
      </trkpt>
      <trkpt lat="47.663284" lon="2.0970454">
        <ele>182</ele>
        <time>2022-02-24T10:27:28.401Z</time>
      </trkpt>
      <trkpt lat="47.663296" lon="2.0970395">
        <ele>182</ele>
        <time>2022-02-24T10:27:29.401Z</time>
      </trkpt>
      <trkpt lat="47.663303" lon="2.0970364">
        <ele>182</ele>
        <time>2022-02-24T10:27:30.401Z</time>
      </trkpt>
      <trkpt lat="47.66332" lon="2.0970309">
        <ele>183</ele>
        <time>2022-02-24T10:27:31.401Z</time>
      </trkpt>
      <trkpt lat="47.66333" lon="2.0970287">
        <ele>184</ele>
        <time>2022-02-24T10:27:32.401Z</time>
      </trkpt>
      <trkpt lat="47.663338" lon="2.0970302">
        <ele>184</ele>
        <time>2022-02-24T10:27:33.401Z</time>
      </trkpt>
      <trkpt lat="47.663353" lon="2.097029">
        <ele>184</ele>
        <time>2022-02-24T10:27:34.401Z</time>
      </trkpt>
      <trkpt lat="47.66337" lon="2.097026">
        <ele>184</ele>
        <time>2022-02-24T10:27:35.401Z</time>
      </trkpt>
      <trkpt lat="47.663383" lon="2.097026">
        <ele>185</ele>
        <time>2022-02-24T10:27:36.401Z</time>
      </trkpt>
      <trkpt lat="47.6634" lon="2.0970237">
        <ele>185</ele>
        <time>2022-02-24T10:27:37.401Z</time>
      </trkpt>
      <trkpt lat="47.663418" lon="2.0970194">
        <ele>186</ele>
        <time>2022-02-24T10:27:38.401Z</time>
      </trkpt>
      <trkpt lat="47.663437" lon="2.0970144">
        <ele>187</ele>
        <time>2022-02-24T10:27:39.401Z</time>
      </trkpt>
      <trkpt lat="47.66345" lon="2.0970068">
        <ele>187</ele>
        <time>2022-02-24T10:27:40.401Z</time>
      </trkpt>
      <trkpt lat="47.663456" lon="2.0970042">
        <ele>188</ele>
        <time>2022-02-24T10:27:41.401Z</time>
      </trkpt>
      <trkpt lat="47.663467" lon="2.097003">
        <ele>188</ele>
        <time>2022-02-24T10:27:42.401Z</time>
      </trkpt>
      <trkpt lat="47.66348" lon="2.0969994">
        <ele>189</ele>
        <time>2022-02-24T10:27:43.401Z</time>
      </trkpt>
      <trkpt lat="47.663494" lon="2.0969925">
        <ele>190</ele>
        <time>2022-02-24T10:27:44.401Z</time>
      </trkpt>
      <trkpt lat="47.663506" lon="2.096985">
        <ele>190</ele>
        <time>2022-02-24T10:27:45.401Z</time>
      </trkpt>
      <trkpt lat="47.663517" lon="2.0969808">
        <ele>191</ele>
        <time>2022-02-24T10:27:46.401Z</time>
      </trkpt>
      <trkpt lat="47.663525" lon="2.096971">
        <ele>191</ele>
        <time>2022-02-24T10:27:47.401Z</time>
      </trkpt>
      <trkpt lat="47.663536" lon="2.0969636">
        <ele>191</ele>
        <time>2022-02-24T10:27:48.401Z</time>
      </trkpt>
      <trkpt lat="47.66354" lon="2.096956">
        <ele>191</ele>
        <time>2022-02-24T10:27:49.401Z</time>
      </trkpt>
      <trkpt lat="47.66355" lon="2.0969498">
        <ele>192</ele>
        <time>2022-02-24T10:27:50.401Z</time>
      </trkpt>
      <trkpt lat="47.663563" lon="2.0969486">
        <ele>192</ele>
        <time>2022-02-24T10:27:51.401Z</time>
      </trkpt>
      <trkpt lat="47.66357" lon="2.0969465">
        <ele>192</ele>
        <time>2022-02-24T10:27:52.401Z</time>
      </trkpt>
      <trkpt lat="47.663578" lon="2.096942">
        <ele>192</ele>
        <time>2022-02-24T10:27:53.401Z</time>
      </trkpt>
      <trkpt lat="47.66359" lon="2.0969343">
        <ele>192</ele>
        <time>2022-02-24T10:27:54.401Z</time>
      </trkpt>
      <trkpt lat="47.6636" lon="2.0969276">
        <ele>192</ele>
        <time>2022-02-24T10:27:55.401Z</time>
      </trkpt>
      <trkpt lat="47.663616" lon="2.096921">
        <ele>192</ele>
        <time>2022-02-24T10:27:56.401Z</time>
      </trkpt>
      <trkpt lat="47.66363" lon="2.096919">
        <ele>192</ele>
        <time>2022-02-24T10:27:57.401Z</time>
      </trkpt>
      <trkpt lat="47.663643" lon="2.0969172">
        <ele>192</ele>
        <time>2022-02-24T10:27:58.401Z</time>
      </trkpt>
      <trkpt lat="47.66366" lon="2.0969093">
        <ele>193</ele>
        <time>2022-02-24T10:27:59.401Z</time>
      </trkpt>
      <trkpt lat="47.663677" lon="2.0969028">
        <ele>193</ele>
        <time>2022-02-24T10:28:00.401Z</time>
      </trkpt>
      <trkpt lat="47.663685" lon="2.0968962">
        <ele>193</ele>
        <time>2022-02-24T10:28:01.401Z</time>
      </trkpt>
      <trkpt lat="47.663696" lon="2.096891">
        <ele>193</ele>
        <time>2022-02-24T10:28:02.401Z</time>
      </trkpt>
      <trkpt lat="47.66371" lon="2.096882">
        <ele>193</ele>
        <time>2022-02-24T10:28:03.401Z</time>
      </trkpt>
      <trkpt lat="47.663723" lon="2.0968776">
        <ele>193</ele>
        <time>2022-02-24T10:28:04.401Z</time>
      </trkpt>
      <trkpt lat="47.663734" lon="2.096873">
        <ele>194</ele>
        <time>2022-02-24T10:28:05.401Z</time>
      </trkpt>
      <trkpt lat="47.663746" lon="2.0968761">
        <ele>194</ele>
        <time>2022-02-24T10:28:06.401Z</time>
      </trkpt>
      <trkpt lat="47.663765" lon="2.0968754">
        <ele>193</ele>
        <time>2022-02-24T10:28:07.401Z</time>
      </trkpt>
      <trkpt lat="47.663776" lon="2.0968752">
        <ele>193</ele>
        <time>2022-02-24T10:28:08.401Z</time>
      </trkpt>
      <trkpt lat="47.663788" lon="2.0968726">
        <ele>192</ele>
        <time>2022-02-24T10:28:09.401Z</time>
      </trkpt>
      <trkpt lat="47.663807" lon="2.0968664">
        <ele>192</ele>
        <time>2022-02-24T10:28:10.401Z</time>
      </trkpt>
      <trkpt lat="47.66382" lon="2.0968637">
        <ele>191</ele>
        <time>2022-02-24T10:28:11.401Z</time>
      </trkpt>
      <trkpt lat="47.663834" lon="2.0968657">
        <ele>190</ele>
        <time>2022-02-24T10:28:12.401Z</time>
      </trkpt>
      <trkpt lat="47.663853" lon="2.0968673">
        <ele>189</ele>
        <time>2022-02-24T10:28:13.401Z</time>
      </trkpt>
      <trkpt lat="47.663868" lon="2.0968602">
        <ele>188</ele>
        <time>2022-02-24T10:28:14.401Z</time>
      </trkpt>
      <trkpt lat="47.663883" lon="2.0968487">
        <ele>188</ele>
        <time>2022-02-24T10:28:15.401Z</time>
      </trkpt>
      <trkpt lat="47.663895" lon="2.096842">
        <ele>189</ele>
        <time>2022-02-24T10:28:16.401Z</time>
      </trkpt>
      <trkpt lat="47.663906" lon="2.0968397">
        <ele>189</ele>
        <time>2022-02-24T10:28:17.401Z</time>
      </trkpt>
      <trkpt lat="47.663918" lon="2.0968368">
        <ele>189</ele>
        <time>2022-02-24T10:28:18.401Z</time>
      </trkpt>
      <trkpt lat="47.663925" lon="2.0968294">
        <ele>189</ele>
        <time>2022-02-24T10:28:19.401Z</time>
      </trkpt>
      <trkpt lat="47.663933" lon="2.0968235">
        <ele>189</ele>
        <time>2022-02-24T10:28:20.401Z</time>
      </trkpt>
      <trkpt lat="47.663937" lon="2.0968194">
        <ele>188</ele>
        <time>2022-02-24T10:28:21.401Z</time>
      </trkpt>
      <trkpt lat="47.663944" lon="2.0968175">
        <ele>188</ele>
        <time>2022-02-24T10:28:22.401Z</time>
      </trkpt>
      <trkpt lat="47.66395" lon="2.0968208">
        <ele>188</ele>
        <time>2022-02-24T10:28:23.401Z</time>
      </trkpt>
      <trkpt lat="47.66396" lon="2.0968204">
        <ele>189</ele>
        <time>2022-02-24T10:28:24.401Z</time>
      </trkpt>
      <trkpt lat="47.663975" lon="2.0968232">
        <ele>189</ele>
        <time>2022-02-24T10:28:25.401Z</time>
      </trkpt>
      <trkpt lat="47.663986" lon="2.0968177">
        <ele>189</ele>
        <time>2022-02-24T10:28:26.401Z</time>
      </trkpt>
      <trkpt lat="47.663994" lon="2.0968094">
        <ele>190</ele>
        <time>2022-02-24T10:28:27.401Z</time>
      </trkpt>
      <trkpt lat="47.66401" lon="2.0968037">
        <ele>190</ele>
        <time>2022-02-24T10:28:28.401Z</time>
      </trkpt>
      <trkpt lat="47.66402" lon="2.096803">
        <ele>191</ele>
        <time>2022-02-24T10:28:29.401Z</time>
      </trkpt>
      <trkpt lat="47.664032" lon="2.096796">
        <ele>191</ele>
        <time>2022-02-24T10:28:30.401Z</time>
      </trkpt>
      <trkpt lat="47.664043" lon="2.0967886">
        <ele>191</ele>
        <time>2022-02-24T10:28:31.401Z</time>
      </trkpt>
      <trkpt lat="47.664055" lon="2.0967813">
        <ele>192</ele>
        <time>2022-02-24T10:28:32.401Z</time>
      </trkpt>
      <trkpt lat="47.664066" lon="2.0967743">
        <ele>191</ele>
        <time>2022-02-24T10:28:33.401Z</time>
      </trkpt>
      <trkpt lat="47.66407" lon="2.0967655">
        <ele>191</ele>
        <time>2022-02-24T10:28:34.401Z</time>
      </trkpt>
      <trkpt lat="47.66408" lon="2.0967646">
        <ele>191</ele>
        <time>2022-02-24T10:28:35.401Z</time>
      </trkpt>
      <trkpt lat="47.664097" lon="2.0967567">
        <ele>192</ele>
        <time>2022-02-24T10:28:36.401Z</time>
      </trkpt>
      <trkpt lat="47.664104" lon="2.0967474">
        <ele>192</ele>
        <time>2022-02-24T10:28:37.401Z</time>
      </trkpt>
      <trkpt lat="47.664116" lon="2.0967426">
        <ele>192</ele>
        <time>2022-02-24T10:28:38.401Z</time>
      </trkpt>
      <trkpt lat="47.664127" lon="2.0967367">
        <ele>191</ele>
        <time>2022-02-24T10:28:39.401Z</time>
      </trkpt>
      <trkpt lat="47.66414" lon="2.0967276">
        <ele>192</ele>
        <time>2022-02-24T10:28:40.401Z</time>
      </trkpt>
      <trkpt lat="47.664154" lon="2.0967233">
        <ele>192</ele>
        <time>2022-02-24T10:28:41.401Z</time>
      </trkpt>
      <trkpt lat="47.66416" lon="2.0967164">
        <ele>192</ele>
        <time>2022-02-24T10:28:42.401Z</time>
      </trkpt>
      <trkpt lat="47.664173" lon="2.0967126">
        <ele>192</ele>
        <time>2022-02-24T10:28:43.401Z</time>
      </trkpt>
      <trkpt lat="47.664185" lon="2.0967064">
        <ele>192</ele>
        <time>2022-02-24T10:28:44.401Z</time>
      </trkpt>
      <trkpt lat="47.664196" lon="2.0967011">
        <ele>191</ele>
        <time>2022-02-24T10:28:45.401Z</time>
      </trkpt>
      <trkpt lat="47.664204" lon="2.096698">
        <ele>191</ele>
        <time>2022-02-24T10:28:46.401Z</time>
      </trkpt>
      <trkpt lat="47.66421" lon="2.0966942">
        <ele>191</ele>
        <time>2022-02-24T10:28:47.401Z</time>
      </trkpt>
      <trkpt lat="47.664227" lon="2.0966878">
        <ele>192</ele>
        <time>2022-02-24T10:28:48.401Z</time>
      </trkpt>
      <trkpt lat="47.664234" lon="2.0966816">
        <ele>191</ele>
        <time>2022-02-24T10:28:49.401Z</time>
      </trkpt>
      <trkpt lat="47.664246" lon="2.0966747">
        <ele>191</ele>
        <time>2022-02-24T10:28:50.401Z</time>
      </trkpt>
      <trkpt lat="47.66426" lon="2.0966644">
        <ele>191</ele>
        <time>2022-02-24T10:28:51.401Z</time>
      </trkpt>
      <trkpt lat="47.66428" lon="2.096654">
        <ele>191</ele>
        <time>2022-02-24T10:28:52.401Z</time>
      </trkpt>
      <trkpt lat="47.66429" lon="2.0966544">
        <ele>192</ele>
        <time>2022-02-24T10:28:53.401Z</time>
      </trkpt>
      <trkpt lat="47.6643" lon="2.0966554">
        <ele>192</ele>
        <time>2022-02-24T10:28:54.401Z</time>
      </trkpt>
      <trkpt lat="47.664307" lon="2.09666">
        <ele>192</ele>
        <time>2022-02-24T10:28:55.401Z</time>
      </trkpt>
      <trkpt lat="47.664314" lon="2.0966678">
        <ele>192</ele>
        <time>2022-02-24T10:28:56.401Z</time>
      </trkpt>
      <trkpt lat="47.664326" lon="2.0966709">
        <ele>192</ele>
        <time>2022-02-24T10:28:57.401Z</time>
      </trkpt>
      <trkpt lat="47.66434" lon="2.0966618">
        <ele>191</ele>
        <time>2022-02-24T10:28:58.401Z</time>
      </trkpt>
      <trkpt lat="47.664352" lon="2.0966558">
        <ele>192</ele>
        <time>2022-02-24T10:28:59.401Z</time>
      </trkpt>
      <trkpt lat="47.664356" lon="2.0966432">
        <ele>191</ele>
        <time>2022-02-24T10:29:00.401Z</time>
      </trkpt>
      <trkpt lat="47.664368" lon="2.0966358">
        <ele>191</ele>
        <time>2022-02-24T10:29:01.401Z</time>
      </trkpt>
      <trkpt lat="47.66438" lon="2.096627">
        <ele>191</ele>
        <time>2022-02-24T10:29:02.401Z</time>
      </trkpt>
      <trkpt lat="47.66439" lon="2.0966167">
        <ele>190</ele>
        <time>2022-02-24T10:29:03.401Z</time>
      </trkpt>
      <trkpt lat="47.664406" lon="2.0966115">
        <ele>190</ele>
        <time>2022-02-24T10:29:04.401Z</time>
      </trkpt>
      <trkpt lat="47.66442" lon="2.0966113">
        <ele>190</ele>
        <time>2022-02-24T10:29:05.401Z</time>
      </trkpt>
      <trkpt lat="47.664433" lon="2.0966098">
        <ele>191</ele>
        <time>2022-02-24T10:29:06.401Z</time>
      </trkpt>
      <trkpt lat="47.664444" lon="2.0966086">
        <ele>190</ele>
        <time>2022-02-24T10:29:07.401Z</time>
      </trkpt>
      <trkpt lat="47.664455" lon="2.0966122">
        <ele>190</ele>
        <time>2022-02-24T10:29:08.401Z</time>
      </trkpt>
      <trkpt lat="47.664467" lon="2.0966098">
        <ele>191</ele>
        <time>2022-02-24T10:29:09.401Z</time>
      </trkpt>
      <trkpt lat="47.66448" lon="2.0966055">
        <ele>190</ele>
        <time>2022-02-24T10:29:10.401Z</time>
      </trkpt>
      <trkpt lat="47.66449" lon="2.09661">
        <ele>190</ele>
        <time>2022-02-24T10:29:11.401Z</time>
      </trkpt>
      <trkpt lat="47.664497" lon="2.0966122">
        <ele>190</ele>
        <time>2022-02-24T10:29:12.401Z</time>
      </trkpt>
      <trkpt lat="47.664497" lon="2.0966165">
        <ele>189</ele>
        <time>2022-02-24T10:29:13.401Z</time>
      </trkpt>
      <trkpt lat="47.664494" lon="2.0966272">
        <ele>188</ele>
        <time>2022-02-24T10:29:14.401Z</time>
      </trkpt>
      <trkpt lat="47.664494" lon="2.0966325">
        <ele>188</ele>
        <time>2022-02-24T10:29:15.401Z</time>
      </trkpt>
      <trkpt lat="47.664497" lon="2.0966296">
        <ele>188</ele>
        <time>2022-02-24T10:29:16.401Z</time>
      </trkpt>
      <trkpt lat="47.664505" lon="2.096624">
        <ele>188</ele>
        <time>2022-02-24T10:29:17.401Z</time>
      </trkpt>
      <trkpt lat="47.66452" lon="2.0966175">
        <ele>188</ele>
        <time>2022-02-24T10:29:18.401Z</time>
      </trkpt>
      <trkpt lat="47.664528" lon="2.0966094">
        <ele>188</ele>
        <time>2022-02-24T10:29:19.401Z</time>
      </trkpt>
      <trkpt lat="47.66454" lon="2.0966008">
        <ele>188</ele>
        <time>2022-02-24T10:29:20.401Z</time>
      </trkpt>
      <trkpt lat="47.66455" lon="2.0965989">
        <ele>189</ele>
        <time>2022-02-24T10:29:21.401Z</time>
      </trkpt>
      <trkpt lat="47.664562" lon="2.096596">
        <ele>188</ele>
        <time>2022-02-24T10:29:22.401Z</time>
      </trkpt>
      <trkpt lat="47.664577" lon="2.096593">
        <ele>188</ele>
        <time>2022-02-24T10:29:23.401Z</time>
      </trkpt>
      <trkpt lat="47.664585" lon="2.0965955">
        <ele>188</ele>
        <time>2022-02-24T10:29:24.401Z</time>
      </trkpt>
      <trkpt lat="47.664593" lon="2.0965993">
        <ele>189</ele>
        <time>2022-02-24T10:29:25.401Z</time>
      </trkpt>
      <trkpt lat="47.6646" lon="2.0965974">
        <ele>189</ele>
        <time>2022-02-24T10:29:26.401Z</time>
      </trkpt>
      <trkpt lat="47.664604" lon="2.0965958">
        <ele>189</ele>
        <time>2022-02-24T10:29:27.401Z</time>
      </trkpt>
      <trkpt lat="47.664608" lon="2.096589">
        <ele>189</ele>
        <time>2022-02-24T10:29:28.401Z</time>
      </trkpt>
      <trkpt lat="47.664616" lon="2.0965889">
        <ele>189</ele>
        <time>2022-02-24T10:29:29.401Z</time>
      </trkpt>
      <trkpt lat="47.66462" lon="2.0965865">
        <ele>188</ele>
        <time>2022-02-24T10:29:30.401Z</time>
      </trkpt>
      <trkpt lat="47.66462" lon="2.0965865">
        <ele>188</ele>
        <time>2022-02-24T10:29:31.401Z</time>
      </trkpt>
      <trkpt lat="47.66462" lon="2.0965865">
        <ele>188</ele>
        <time>2022-02-24T10:29:32.401Z</time>
      </trkpt>
      <trkpt lat="47.66462" lon="2.0965865">
        <ele>188</ele>
        <time>2022-02-24T10:29:33.401Z</time>
      </trkpt>
      <trkpt lat="47.66462" lon="2.0965865">
        <ele>188</ele>
        <time>2022-02-24T10:29:34.401Z</time>
      </trkpt>
      <trkpt lat="47.66463" lon="2.0965905">
        <ele>189</ele>
        <time>2022-02-24T10:29:35.401Z</time>
      </trkpt>
      <trkpt lat="47.664642" lon="2.0965881">
        <ele>187</ele>
        <time>2022-02-24T10:29:36.401Z</time>
      </trkpt>
      <trkpt lat="47.664654" lon="2.0965853">
        <ele>187</ele>
        <time>2022-02-24T10:29:37.401Z</time>
      </trkpt>
      <trkpt lat="47.66467" lon="2.0965786">
        <ele>187</ele>
        <time>2022-02-24T10:29:38.401Z</time>
      </trkpt>
      <trkpt lat="47.66468" lon="2.096575">
        <ele>187</ele>
        <time>2022-02-24T10:29:39.401Z</time>
      </trkpt>
      <trkpt lat="47.664696" lon="2.0965748">
        <ele>187</ele>
        <time>2022-02-24T10:29:40.401Z</time>
      </trkpt>
      <trkpt lat="47.66471" lon="2.0965712">
        <ele>187</ele>
        <time>2022-02-24T10:29:41.401Z</time>
      </trkpt>
      <trkpt lat="47.664726" lon="2.096571">
        <ele>186</ele>
        <time>2022-02-24T10:29:42.401Z</time>
      </trkpt>
      <trkpt lat="47.66474" lon="2.0965722">
        <ele>186</ele>
        <time>2022-02-24T10:29:43.401Z</time>
      </trkpt>
      <trkpt lat="47.664753" lon="2.096571">
        <ele>186</ele>
        <time>2022-02-24T10:29:44.401Z</time>
      </trkpt>
      <trkpt lat="47.66477" lon="2.0965683">
        <ele>185</ele>
        <time>2022-02-24T10:29:45.401Z</time>
      </trkpt>
      <trkpt lat="47.66478" lon="2.096562">
        <ele>185</ele>
        <time>2022-02-24T10:29:46.401Z</time>
      </trkpt>
      <trkpt lat="47.664795" lon="2.0965621">
        <ele>185</ele>
        <time>2022-02-24T10:29:47.401Z</time>
      </trkpt>
      <trkpt lat="47.664806" lon="2.096558">
        <ele>184</ele>
        <time>2022-02-24T10:29:48.401Z</time>
      </trkpt>
      <trkpt lat="47.664814" lon="2.0965583">
        <ele>184</ele>
        <time>2022-02-24T10:29:49.401Z</time>
      </trkpt>
      <trkpt lat="47.664825" lon="2.096554">
        <ele>184</ele>
        <time>2022-02-24T10:29:50.401Z</time>
      </trkpt>
      <trkpt lat="47.664837" lon="2.0965502">
        <ele>183</ele>
        <time>2022-02-24T10:29:51.401Z</time>
      </trkpt>
      <trkpt lat="47.66485" lon="2.0965443">
        <ele>184</ele>
        <time>2022-02-24T10:29:52.401Z</time>
      </trkpt>
      <trkpt lat="47.664852" lon="2.0965357">
        <ele>185</ele>
        <time>2022-02-24T10:29:53.401Z</time>
      </trkpt>
      <trkpt lat="47.664864" lon="2.096534">
        <ele>185</ele>
        <time>2022-02-24T10:29:54.401Z</time>
      </trkpt>
      <trkpt lat="47.664867" lon="2.09653">
        <ele>185</ele>
        <time>2022-02-24T10:29:55.401Z</time>
      </trkpt>
      <trkpt lat="47.66488" lon="2.096524">
        <ele>184</ele>
        <time>2022-02-24T10:29:56.401Z</time>
      </trkpt>
      <trkpt lat="47.664886" lon="2.0965228">
        <ele>184</ele>
        <time>2022-02-24T10:29:57.401Z</time>
      </trkpt>
      <trkpt lat="47.664898" lon="2.0965178">
        <ele>184</ele>
        <time>2022-02-24T10:29:58.401Z</time>
      </trkpt>
      <trkpt lat="47.664906" lon="2.0965116">
        <ele>184</ele>
        <time>2022-02-24T10:29:59.401Z</time>
      </trkpt>
      <trkpt lat="47.664913" lon="2.096507">
        <ele>184</ele>
        <time>2022-02-24T10:30:00.401Z</time>
      </trkpt>
      <trkpt lat="47.664925" lon="2.096509">
        <ele>184</ele>
        <time>2022-02-24T10:30:01.401Z</time>
      </trkpt>
      <trkpt lat="47.664932" lon="2.0965116">
        <ele>185</ele>
        <time>2022-02-24T10:30:02.401Z</time>
      </trkpt>
      <trkpt lat="47.664936" lon="2.0965157">
        <ele>185</ele>
        <time>2022-02-24T10:30:03.401Z</time>
      </trkpt>
      <trkpt lat="47.66494" lon="2.0965168">
        <ele>185</ele>
        <time>2022-02-24T10:30:04.401Z</time>
      </trkpt>
      <trkpt lat="47.664948" lon="2.0965192">
        <ele>186</ele>
        <time>2022-02-24T10:30:05.401Z</time>
      </trkpt>
      <trkpt lat="47.664963" lon="2.0965233">
        <ele>186</ele>
        <time>2022-02-24T10:30:06.401Z</time>
      </trkpt>
      <trkpt lat="47.66497" lon="2.0965247">
        <ele>187</ele>
        <time>2022-02-24T10:30:07.401Z</time>
      </trkpt>
      <trkpt lat="47.66498" lon="2.096524">
        <ele>187</ele>
        <time>2022-02-24T10:30:08.401Z</time>
      </trkpt>
      <trkpt lat="47.664993" lon="2.0965197">
        <ele>187</ele>
        <time>2022-02-24T10:30:09.401Z</time>
      </trkpt>
      <trkpt lat="47.665005" lon="2.0965128">
        <ele>187</ele>
        <time>2022-02-24T10:30:10.401Z</time>
      </trkpt>
      <trkpt lat="47.665016" lon="2.096506">
        <ele>187</ele>
        <time>2022-02-24T10:30:11.401Z</time>
      </trkpt>
      <trkpt lat="47.66503" lon="2.0965">
        <ele>187</ele>
        <time>2022-02-24T10:30:12.401Z</time>
      </trkpt>
      <trkpt lat="47.665043" lon="2.096498">
        <ele>187</ele>
        <time>2022-02-24T10:30:13.401Z</time>
      </trkpt>
      <trkpt lat="47.66505" lon="2.0964973">
        <ele>188</ele>
        <time>2022-02-24T10:30:14.401Z</time>
      </trkpt>
      <trkpt lat="47.665062" lon="2.0964954">
        <ele>187</ele>
        <time>2022-02-24T10:30:15.401Z</time>
      </trkpt>
      <trkpt lat="47.665073" lon="2.0964935">
        <ele>187</ele>
        <time>2022-02-24T10:30:16.401Z</time>
      </trkpt>
      <trkpt lat="47.665085" lon="2.0964885">
        <ele>188</ele>
        <time>2022-02-24T10:30:17.401Z</time>
      </trkpt>
      <trkpt lat="47.665096" lon="2.0964801">
        <ele>188</ele>
        <time>2022-02-24T10:30:18.401Z</time>
      </trkpt>
      <trkpt lat="47.665104" lon="2.0964708">
        <ele>188</ele>
        <time>2022-02-24T10:30:19.401Z</time>
      </trkpt>
      <trkpt lat="47.665115" lon="2.0964603">
        <ele>189</ele>
        <time>2022-02-24T10:30:20.401Z</time>
      </trkpt>
      <trkpt lat="47.665127" lon="2.096453">
        <ele>189</ele>
        <time>2022-02-24T10:30:21.401Z</time>
      </trkpt>
      <trkpt lat="47.665134" lon="2.0964415">
        <ele>189</ele>
        <time>2022-02-24T10:30:22.401Z</time>
      </trkpt>
      <trkpt lat="47.665142" lon="2.0964317">
        <ele>189</ele>
        <time>2022-02-24T10:30:23.401Z</time>
      </trkpt>
      <trkpt lat="47.665157" lon="2.0964236">
        <ele>189</ele>
        <time>2022-02-24T10:30:24.401Z</time>
      </trkpt>
      <trkpt lat="47.66517" lon="2.0964148">
        <ele>189</ele>
        <time>2022-02-24T10:30:25.401Z</time>
      </trkpt>
      <trkpt lat="47.665184" lon="2.0964098">
        <ele>188</ele>
        <time>2022-02-24T10:30:26.401Z</time>
      </trkpt>
      <trkpt lat="47.665195" lon="2.0964012">
        <ele>188</ele>
        <time>2022-02-24T10:30:27.401Z</time>
      </trkpt>
      <trkpt lat="47.66521" lon="2.0963943">
        <ele>188</ele>
        <time>2022-02-24T10:30:28.401Z</time>
      </trkpt>
      <trkpt lat="47.665222" lon="2.0963821">
        <ele>189</ele>
        <time>2022-02-24T10:30:29.401Z</time>
      </trkpt>
      <trkpt lat="47.665234" lon="2.0963733">
        <ele>189</ele>
        <time>2022-02-24T10:30:30.401Z</time>
      </trkpt>
      <trkpt lat="47.66524" lon="2.0963652">
        <ele>189</ele>
        <time>2022-02-24T10:30:31.401Z</time>
      </trkpt>
      <trkpt lat="47.665253" lon="2.0963626">
        <ele>188</ele>
        <time>2022-02-24T10:30:32.401Z</time>
      </trkpt>
      <trkpt lat="47.665268" lon="2.0963569">
        <ele>188</ele>
        <time>2022-02-24T10:30:33.401Z</time>
      </trkpt>
      <trkpt lat="47.665283" lon="2.096361">
        <ele>188</ele>
        <time>2022-02-24T10:30:34.401Z</time>
      </trkpt>
      <trkpt lat="47.665302" lon="2.0963717">
        <ele>187</ele>
        <time>2022-02-24T10:30:35.401Z</time>
      </trkpt>
      <trkpt lat="47.66532" lon="2.096376">
        <ele>187</ele>
        <time>2022-02-24T10:30:36.401Z</time>
      </trkpt>
      <trkpt lat="47.665337" lon="2.0963705">
        <ele>187</ele>
        <time>2022-02-24T10:30:37.401Z</time>
      </trkpt>
      <trkpt lat="47.66535" lon="2.0963714">
        <ele>187</ele>
        <time>2022-02-24T10:30:38.401Z</time>
      </trkpt>
      <trkpt lat="47.665367" lon="2.0963662">
        <ele>186</ele>
        <time>2022-02-24T10:30:39.401Z</time>
      </trkpt>
      <trkpt lat="47.66538" lon="2.0963635">
        <ele>186</ele>
        <time>2022-02-24T10:30:40.401Z</time>
      </trkpt>
      <trkpt lat="47.665394" lon="2.0963666">
        <ele>186</ele>
        <time>2022-02-24T10:30:41.401Z</time>
      </trkpt>
      <trkpt lat="47.665394" lon="2.0963666">
        <ele>186</ele>
        <time>2022-02-24T10:30:41.401Z</time>
      </trkpt>
      <trkpt lat="47.665394" lon="2.0963666">
        <ele>186</ele>
        <time>2022-02-24T10:30:41.401Z</time>
      </trkpt>
    </trkseg>
  </trk>
</gpx>
